<?xml version="1.0" encoding="UTF-8" standalone="no" ?>
<gpx xmlns="http://www.topografix.com/GPX/1/1" xmlns:xsi="http://www.w3.org/2001/XMLSchema-instance" xsi:schemaLocation="http://www.topografix.com/GPX/1/1 http://www.topografix.com/GPX/1/1/gpx.xsd" version="1.1" creator="VisuGPX - https://www.visugpx.com">
  <metadata>
    <name>2017-07-11 Bike ride-Chatillon-Limas</name>
    <desc><![CDATA[2017-07-11 Bike ride-Chatillon-Limas]]></desc>
  </metadata>
  <wpt lat="45.92451" lon="4.73702">
    <ele>174</ele>
    <name><![CDATA[2017-07-11 10:52 (Start)]]></name>
  </wpt>
  <wpt lat="45.92452" lon="4.73706">
    <ele>174</ele>
    <name><![CDATA[2017-07-11 10:52 (End)]]></name>
    <desc><![CDATA[Created by Google My Tracks on Android  Name: 2017-07-11 10:52 Activity type: biking Description: - Total distance: 38.73 km (24.1 mi) Total time: 2:15:08 Moving time: 2:00:23 Average speed: 17.20 km/h (10.7 mi/h) Average moving speed: 19.30 km/h (12.0 mi/h) Max speed: 48.79 km/h (30.3 mi/h) Average pace: 3:29 min/km (5:37 min/mi) Average moving pace: 3:06 min/km (5:00 min/mi) Fastest pace: 1:14 min/km (1:59 min/mi) Max elevation: 424 m (1390 ft) Min elevation: 153 m (501 ft) Elevation gain: 690 m (2265 ft) Max grade: 46 % Min grade: -9 % Recorded: 11/07/2017 10:52]]></desc>
  </wpt>
  <trk>
    <name><![CDATA[2017-07-11 10:52]]></name>
    <trkseg>
      <trkpt lat="45.92451" lon="4.73702">
        <ele>174</ele>
        <time>2017-07-11T08:52:15.123Z</time>
      </trkpt>
      <trkpt lat="45.92452" lon="4.73703">
        <ele>174</ele>
        <time>2017-07-11T08:52:48Z</time>
      </trkpt>
      <trkpt lat="45.92458" lon="4.73708">
        <ele>174</ele>
        <time>2017-07-11T08:52:49Z</time>
      </trkpt>
      <trkpt lat="45.9246" lon="4.73709">
        <ele>174</ele>
        <time>2017-07-11T08:52:50Z</time>
      </trkpt>
      <trkpt lat="45.92464" lon="4.73699">
        <ele>174</ele>
        <time>2017-07-11T08:53:30Z</time>
      </trkpt>
      <trkpt lat="45.92465" lon="4.73695">
        <ele>174</ele>
        <time>2017-07-11T08:53:31Z</time>
      </trkpt>
      <trkpt lat="45.92465" lon="4.73684">
        <ele>174</ele>
        <time>2017-07-11T08:53:33Z</time>
      </trkpt>
      <trkpt lat="45.92467" lon="4.7368">
        <ele>174</ele>
        <time>2017-07-11T08:53:34Z</time>
      </trkpt>
      <trkpt lat="45.92469" lon="4.73668">
        <ele>174</ele>
        <time>2017-07-11T08:53:36Z</time>
      </trkpt>
      <trkpt lat="45.9247" lon="4.73661">
        <ele>174</ele>
        <time>2017-07-11T08:53:37Z</time>
      </trkpt>
      <trkpt lat="45.92472" lon="4.73654">
        <ele>174</ele>
        <time>2017-07-11T08:53:38Z</time>
      </trkpt>
      <trkpt lat="45.92472" lon="4.73646">
        <ele>174</ele>
        <time>2017-07-11T08:53:39Z</time>
      </trkpt>
      <trkpt lat="45.92472" lon="4.73639">
        <ele>174</ele>
        <time>2017-07-11T08:53:40Z</time>
      </trkpt>
      <trkpt lat="45.92472" lon="4.73631">
        <ele>174</ele>
        <time>2017-07-11T08:53:41Z</time>
      </trkpt>
      <trkpt lat="45.92472" lon="4.73623">
        <ele>174</ele>
        <time>2017-07-11T08:53:42Z</time>
      </trkpt>
      <trkpt lat="45.92471" lon="4.73616">
        <ele>174</ele>
        <time>2017-07-11T08:53:43Z</time>
      </trkpt>
      <trkpt lat="45.9247" lon="4.73608">
        <ele>174</ele>
        <time>2017-07-11T08:53:44Z</time>
      </trkpt>
      <trkpt lat="45.9247" lon="4.736">
        <ele>174</ele>
        <time>2017-07-11T08:53:45Z</time>
      </trkpt>
      <trkpt lat="45.92469" lon="4.73592">
        <ele>174</ele>
        <time>2017-07-11T08:53:46Z</time>
      </trkpt>
      <trkpt lat="45.92469" lon="4.73584">
        <ele>174</ele>
        <time>2017-07-11T08:53:47Z</time>
      </trkpt>
      <trkpt lat="45.9247" lon="4.73577">
        <ele>173</ele>
        <time>2017-07-11T08:53:48Z</time>
      </trkpt>
      <trkpt lat="45.92468" lon="4.73568">
        <ele>173</ele>
        <time>2017-07-11T08:53:49Z</time>
      </trkpt>
      <trkpt lat="45.92466" lon="4.73557">
        <ele>173</ele>
        <time>2017-07-11T08:53:51Z</time>
      </trkpt>
      <trkpt lat="45.92466" lon="4.73552">
        <ele>173</ele>
        <time>2017-07-11T08:53:52Z</time>
      </trkpt>
      <trkpt lat="45.92461" lon="4.73542">
        <ele>174</ele>
        <time>2017-07-11T08:53:55Z</time>
      </trkpt>
      <trkpt lat="45.92458" lon="4.7354">
        <ele>173</ele>
        <time>2017-07-11T08:53:56Z</time>
      </trkpt>
      <trkpt lat="45.9245" lon="4.73542">
        <ele>174</ele>
        <time>2017-07-11T08:53:58Z</time>
      </trkpt>
      <trkpt lat="45.92446" lon="4.73545">
        <ele>174</ele>
        <time>2017-07-11T08:53:59Z</time>
      </trkpt>
      <trkpt lat="45.92442" lon="4.73548">
        <ele>174</ele>
        <time>2017-07-11T08:54:00Z</time>
      </trkpt>
      <trkpt lat="45.92437" lon="4.7355">
        <ele>174</ele>
        <time>2017-07-11T08:54:01Z</time>
      </trkpt>
      <trkpt lat="45.92432" lon="4.73553">
        <ele>174</ele>
        <time>2017-07-11T08:54:02Z</time>
      </trkpt>
      <trkpt lat="45.92428" lon="4.73555">
        <ele>174</ele>
        <time>2017-07-11T08:54:03Z</time>
      </trkpt>
      <trkpt lat="45.92423" lon="4.73558">
        <ele>174</ele>
        <time>2017-07-11T08:54:04Z</time>
      </trkpt>
      <trkpt lat="45.92418" lon="4.7356">
        <ele>174</ele>
        <time>2017-07-11T08:54:05Z</time>
      </trkpt>
      <trkpt lat="45.92414" lon="4.73563">
        <ele>173</ele>
        <time>2017-07-11T08:54:06Z</time>
      </trkpt>
      <trkpt lat="45.92409" lon="4.73565">
        <ele>173</ele>
        <time>2017-07-11T08:54:07Z</time>
      </trkpt>
      <trkpt lat="45.92404" lon="4.73568">
        <ele>173</ele>
        <time>2017-07-11T08:54:08Z</time>
      </trkpt>
      <trkpt lat="45.92399" lon="4.7357">
        <ele>173</ele>
        <time>2017-07-11T08:54:09Z</time>
      </trkpt>
      <trkpt lat="45.92393" lon="4.73572">
        <ele>173</ele>
        <time>2017-07-11T08:54:10Z</time>
      </trkpt>
      <trkpt lat="45.92388" lon="4.73575">
        <ele>173</ele>
        <time>2017-07-11T08:54:11Z</time>
      </trkpt>
      <trkpt lat="45.92383" lon="4.73577">
        <ele>173</ele>
        <time>2017-07-11T08:54:12Z</time>
      </trkpt>
      <trkpt lat="45.92378" lon="4.7358">
        <ele>173</ele>
        <time>2017-07-11T08:54:13Z</time>
      </trkpt>
      <trkpt lat="45.92373" lon="4.73583">
        <ele>173</ele>
        <time>2017-07-11T08:54:14Z</time>
      </trkpt>
      <trkpt lat="45.92368" lon="4.73586">
        <ele>173</ele>
        <time>2017-07-11T08:54:15Z</time>
      </trkpt>
      <trkpt lat="45.92363" lon="4.73589">
        <ele>173</ele>
        <time>2017-07-11T08:54:16Z</time>
      </trkpt>
      <trkpt lat="45.92358" lon="4.73592">
        <ele>173</ele>
        <time>2017-07-11T08:54:17Z</time>
      </trkpt>
      <trkpt lat="45.92353" lon="4.73595">
        <ele>173</ele>
        <time>2017-07-11T08:54:18Z</time>
      </trkpt>
      <trkpt lat="45.92348" lon="4.73597">
        <ele>173</ele>
        <time>2017-07-11T08:54:19Z</time>
      </trkpt>
      <trkpt lat="45.92344" lon="4.73601">
        <ele>173</ele>
        <time>2017-07-11T08:54:20Z</time>
      </trkpt>
      <trkpt lat="45.92339" lon="4.73604">
        <ele>173</ele>
        <time>2017-07-11T08:54:21Z</time>
      </trkpt>
      <trkpt lat="45.92335" lon="4.73606">
        <ele>173</ele>
        <time>2017-07-11T08:54:22Z</time>
      </trkpt>
      <trkpt lat="45.9233" lon="4.73609">
        <ele>172</ele>
        <time>2017-07-11T08:54:23Z</time>
      </trkpt>
      <trkpt lat="45.92325" lon="4.73611">
        <ele>172</ele>
        <time>2017-07-11T08:54:24Z</time>
      </trkpt>
      <trkpt lat="45.9232" lon="4.73614">
        <ele>172</ele>
        <time>2017-07-11T08:54:25Z</time>
      </trkpt>
      <trkpt lat="45.92315" lon="4.73616">
        <ele>172</ele>
        <time>2017-07-11T08:54:26Z</time>
      </trkpt>
      <trkpt lat="45.9231" lon="4.73619">
        <ele>172</ele>
        <time>2017-07-11T08:54:27Z</time>
      </trkpt>
      <trkpt lat="45.92305" lon="4.73622">
        <ele>172</ele>
        <time>2017-07-11T08:54:28Z</time>
      </trkpt>
      <trkpt lat="45.923" lon="4.73625">
        <ele>172</ele>
        <time>2017-07-11T08:54:29Z</time>
      </trkpt>
      <trkpt lat="45.92295" lon="4.73629">
        <ele>172</ele>
        <time>2017-07-11T08:54:30Z</time>
      </trkpt>
      <trkpt lat="45.9229" lon="4.73632">
        <ele>172</ele>
        <time>2017-07-11T08:54:31Z</time>
      </trkpt>
      <trkpt lat="45.92285" lon="4.73635">
        <ele>172</ele>
        <time>2017-07-11T08:54:32Z</time>
      </trkpt>
      <trkpt lat="45.9228" lon="4.73638">
        <ele>172</ele>
        <time>2017-07-11T08:54:33Z</time>
      </trkpt>
      <trkpt lat="45.92275" lon="4.73641">
        <ele>172</ele>
        <time>2017-07-11T08:54:34Z</time>
      </trkpt>
      <trkpt lat="45.9227" lon="4.73644">
        <ele>172</ele>
        <time>2017-07-11T08:54:35Z</time>
      </trkpt>
      <trkpt lat="45.92265" lon="4.73647">
        <ele>171</ele>
        <time>2017-07-11T08:54:36Z</time>
      </trkpt>
      <trkpt lat="45.9226" lon="4.7365">
        <ele>171</ele>
        <time>2017-07-11T08:54:37Z</time>
      </trkpt>
      <trkpt lat="45.92256" lon="4.73653">
        <ele>171</ele>
        <time>2017-07-11T08:54:38Z</time>
      </trkpt>
      <trkpt lat="45.92251" lon="4.73656">
        <ele>171</ele>
        <time>2017-07-11T08:54:39Z</time>
      </trkpt>
      <trkpt lat="45.92245" lon="4.73658">
        <ele>171</ele>
        <time>2017-07-11T08:54:40Z</time>
      </trkpt>
      <trkpt lat="45.9224" lon="4.73661">
        <ele>171</ele>
        <time>2017-07-11T08:54:41Z</time>
      </trkpt>
      <trkpt lat="45.92234" lon="4.73663">
        <ele>171</ele>
        <time>2017-07-11T08:54:42Z</time>
      </trkpt>
      <trkpt lat="45.92229" lon="4.73666">
        <ele>171</ele>
        <time>2017-07-11T08:54:43Z</time>
      </trkpt>
      <trkpt lat="45.92223" lon="4.73669">
        <ele>171</ele>
        <time>2017-07-11T08:54:44Z</time>
      </trkpt>
      <trkpt lat="45.92218" lon="4.73672">
        <ele>171</ele>
        <time>2017-07-11T08:54:45Z</time>
      </trkpt>
      <trkpt lat="45.92213" lon="4.73675">
        <ele>171</ele>
        <time>2017-07-11T08:54:46Z</time>
      </trkpt>
      <trkpt lat="45.92207" lon="4.73678">
        <ele>171</ele>
        <time>2017-07-11T08:54:47Z</time>
      </trkpt>
      <trkpt lat="45.92201" lon="4.7368">
        <ele>171</ele>
        <time>2017-07-11T08:54:48Z</time>
      </trkpt>
      <trkpt lat="45.92196" lon="4.73683">
        <ele>171</ele>
        <time>2017-07-11T08:54:49Z</time>
      </trkpt>
      <trkpt lat="45.92191" lon="4.73686">
        <ele>171</ele>
        <time>2017-07-11T08:54:50Z</time>
      </trkpt>
      <trkpt lat="45.92185" lon="4.73689">
        <ele>171</ele>
        <time>2017-07-11T08:54:51Z</time>
      </trkpt>
      <trkpt lat="45.9218" lon="4.73692">
        <ele>171</ele>
        <time>2017-07-11T08:54:52Z</time>
      </trkpt>
      <trkpt lat="45.92175" lon="4.73694">
        <ele>171</ele>
        <time>2017-07-11T08:54:53Z</time>
      </trkpt>
      <trkpt lat="45.9217" lon="4.73697">
        <ele>171</ele>
        <time>2017-07-11T08:54:54Z</time>
      </trkpt>
      <trkpt lat="45.92165" lon="4.73699">
        <ele>171</ele>
        <time>2017-07-11T08:54:55Z</time>
      </trkpt>
      <trkpt lat="45.9216" lon="4.73702">
        <ele>171</ele>
        <time>2017-07-11T08:54:56Z</time>
      </trkpt>
      <trkpt lat="45.92155" lon="4.73704">
        <ele>171</ele>
        <time>2017-07-11T08:54:57Z</time>
      </trkpt>
      <trkpt lat="45.92149" lon="4.73707">
        <ele>171</ele>
        <time>2017-07-11T08:54:58Z</time>
      </trkpt>
      <trkpt lat="45.92144" lon="4.73708">
        <ele>171</ele>
        <time>2017-07-11T08:54:59Z</time>
      </trkpt>
      <trkpt lat="45.92139" lon="4.7371">
        <ele>171</ele>
        <time>2017-07-11T08:55:00Z</time>
      </trkpt>
      <trkpt lat="45.92134" lon="4.73712">
        <ele>171</ele>
        <time>2017-07-11T08:55:01Z</time>
      </trkpt>
      <trkpt lat="45.92128" lon="4.73714">
        <ele>171</ele>
        <time>2017-07-11T08:55:02Z</time>
      </trkpt>
      <trkpt lat="45.92122" lon="4.73716">
        <ele>171</ele>
        <time>2017-07-11T08:55:03Z</time>
      </trkpt>
      <trkpt lat="45.92117" lon="4.73718">
        <ele>171</ele>
        <time>2017-07-11T08:55:04Z</time>
      </trkpt>
      <trkpt lat="45.92111" lon="4.73719">
        <ele>171</ele>
        <time>2017-07-11T08:55:05Z</time>
      </trkpt>
      <trkpt lat="45.92105" lon="4.73721">
        <ele>171</ele>
        <time>2017-07-11T08:55:06Z</time>
      </trkpt>
      <trkpt lat="45.92099" lon="4.73722">
        <ele>171</ele>
        <time>2017-07-11T08:55:07Z</time>
      </trkpt>
      <trkpt lat="45.92093" lon="4.73723">
        <ele>171</ele>
        <time>2017-07-11T08:55:08Z</time>
      </trkpt>
      <trkpt lat="45.92088" lon="4.73725">
        <ele>171</ele>
        <time>2017-07-11T08:55:09Z</time>
      </trkpt>
      <trkpt lat="45.92082" lon="4.73725">
        <ele>171</ele>
        <time>2017-07-11T08:55:10Z</time>
      </trkpt>
      <trkpt lat="45.92077" lon="4.73726">
        <ele>171</ele>
        <time>2017-07-11T08:55:11Z</time>
      </trkpt>
      <trkpt lat="45.92071" lon="4.73727">
        <ele>171</ele>
        <time>2017-07-11T08:55:12Z</time>
      </trkpt>
      <trkpt lat="45.92065" lon="4.73727">
        <ele>171</ele>
        <time>2017-07-11T08:55:13Z</time>
      </trkpt>
      <trkpt lat="45.92059" lon="4.73727">
        <ele>171</ele>
        <time>2017-07-11T08:55:14Z</time>
      </trkpt>
      <trkpt lat="45.92053" lon="4.73727">
        <ele>171</ele>
        <time>2017-07-11T08:55:15Z</time>
      </trkpt>
      <trkpt lat="45.92047" lon="4.73728">
        <ele>171</ele>
        <time>2017-07-11T08:55:16Z</time>
      </trkpt>
      <trkpt lat="45.92041" lon="4.73728">
        <ele>171</ele>
        <time>2017-07-11T08:55:17Z</time>
      </trkpt>
      <trkpt lat="45.92035" lon="4.73728">
        <ele>171</ele>
        <time>2017-07-11T08:55:18Z</time>
      </trkpt>
      <trkpt lat="45.92029" lon="4.73728">
        <ele>171</ele>
        <time>2017-07-11T08:55:19Z</time>
      </trkpt>
      <trkpt lat="45.92024" lon="4.73729">
        <ele>171</ele>
        <time>2017-07-11T08:55:20Z</time>
      </trkpt>
      <trkpt lat="45.92018" lon="4.73729">
        <ele>171</ele>
        <time>2017-07-11T08:55:21Z</time>
      </trkpt>
      <trkpt lat="45.92013" lon="4.73729">
        <ele>171</ele>
        <time>2017-07-11T08:55:22Z</time>
      </trkpt>
      <trkpt lat="45.92008" lon="4.73728">
        <ele>171</ele>
        <time>2017-07-11T08:55:23Z</time>
      </trkpt>
      <trkpt lat="45.92003" lon="4.73728">
        <ele>171</ele>
        <time>2017-07-11T08:55:24Z</time>
      </trkpt>
      <trkpt lat="45.91998" lon="4.73728">
        <ele>171</ele>
        <time>2017-07-11T08:55:25Z</time>
      </trkpt>
      <trkpt lat="45.91992" lon="4.73728">
        <ele>171</ele>
        <time>2017-07-11T08:55:26Z</time>
      </trkpt>
      <trkpt lat="45.91987" lon="4.73728">
        <ele>171</ele>
        <time>2017-07-11T08:55:27Z</time>
      </trkpt>
      <trkpt lat="45.91982" lon="4.73729">
        <ele>171</ele>
        <time>2017-07-11T08:55:28Z</time>
      </trkpt>
      <trkpt lat="45.91976" lon="4.73729">
        <ele>171</ele>
        <time>2017-07-11T08:55:29Z</time>
      </trkpt>
      <trkpt lat="45.9197" lon="4.73729">
        <ele>171</ele>
        <time>2017-07-11T08:55:30Z</time>
      </trkpt>
      <trkpt lat="45.91964" lon="4.73728">
        <ele>171</ele>
        <time>2017-07-11T08:55:31Z</time>
      </trkpt>
      <trkpt lat="45.91959" lon="4.73728">
        <ele>171</ele>
        <time>2017-07-11T08:55:32Z</time>
      </trkpt>
      <trkpt lat="45.91953" lon="4.73728">
        <ele>170</ele>
        <time>2017-07-11T08:55:33Z</time>
      </trkpt>
      <trkpt lat="45.91947" lon="4.73728">
        <ele>170</ele>
        <time>2017-07-11T08:55:34Z</time>
      </trkpt>
      <trkpt lat="45.91941" lon="4.73728">
        <ele>170</ele>
        <time>2017-07-11T08:55:35Z</time>
      </trkpt>
      <trkpt lat="45.91935" lon="4.73728">
        <ele>170</ele>
        <time>2017-07-11T08:55:36Z</time>
      </trkpt>
      <trkpt lat="45.91929" lon="4.73728">
        <ele>170</ele>
        <time>2017-07-11T08:55:37Z</time>
      </trkpt>
      <trkpt lat="45.91923" lon="4.73728">
        <ele>170</ele>
        <time>2017-07-11T08:55:38Z</time>
      </trkpt>
      <trkpt lat="45.91918" lon="4.73728">
        <ele>170</ele>
        <time>2017-07-11T08:55:39Z</time>
      </trkpt>
      <trkpt lat="45.91911" lon="4.73728">
        <ele>171</ele>
        <time>2017-07-11T08:55:40Z</time>
      </trkpt>
      <trkpt lat="45.91905" lon="4.73728">
        <ele>171</ele>
        <time>2017-07-11T08:55:41Z</time>
      </trkpt>
      <trkpt lat="45.91899" lon="4.73728">
        <ele>171</ele>
        <time>2017-07-11T08:55:42Z</time>
      </trkpt>
      <trkpt lat="45.91893" lon="4.73729">
        <ele>171</ele>
        <time>2017-07-11T08:55:43Z</time>
      </trkpt>
      <trkpt lat="45.91887" lon="4.73729">
        <ele>171</ele>
        <time>2017-07-11T08:55:44Z</time>
      </trkpt>
      <trkpt lat="45.91881" lon="4.73729">
        <ele>171</ele>
        <time>2017-07-11T08:55:45Z</time>
      </trkpt>
      <trkpt lat="45.91875" lon="4.73729">
        <ele>171</ele>
        <time>2017-07-11T08:55:46Z</time>
      </trkpt>
      <trkpt lat="45.9187" lon="4.73729">
        <ele>171</ele>
        <time>2017-07-11T08:55:47Z</time>
      </trkpt>
      <trkpt lat="45.91863" lon="4.73728">
        <ele>171</ele>
        <time>2017-07-11T08:55:48Z</time>
      </trkpt>
      <trkpt lat="45.91858" lon="4.73728">
        <ele>171</ele>
        <time>2017-07-11T08:55:49Z</time>
      </trkpt>
      <trkpt lat="45.91852" lon="4.73728">
        <ele>171</ele>
        <time>2017-07-11T08:55:50Z</time>
      </trkpt>
      <trkpt lat="45.91845" lon="4.73728">
        <ele>172</ele>
        <time>2017-07-11T08:55:51Z</time>
      </trkpt>
      <trkpt lat="45.91839" lon="4.73728">
        <ele>172</ele>
        <time>2017-07-11T08:55:52Z</time>
      </trkpt>
      <trkpt lat="45.91833" lon="4.73728">
        <ele>172</ele>
        <time>2017-07-11T08:55:53Z</time>
      </trkpt>
      <trkpt lat="45.91826" lon="4.73729">
        <ele>172</ele>
        <time>2017-07-11T08:55:54Z</time>
      </trkpt>
      <trkpt lat="45.9182" lon="4.7373">
        <ele>172</ele>
        <time>2017-07-11T08:55:55Z</time>
      </trkpt>
      <trkpt lat="45.91814" lon="4.7373">
        <ele>172</ele>
        <time>2017-07-11T08:55:56Z</time>
      </trkpt>
      <trkpt lat="45.91807" lon="4.7373">
        <ele>172</ele>
        <time>2017-07-11T08:55:57Z</time>
      </trkpt>
      <trkpt lat="45.91802" lon="4.7373">
        <ele>172</ele>
        <time>2017-07-11T08:55:58Z</time>
      </trkpt>
      <trkpt lat="45.91797" lon="4.73729">
        <ele>172</ele>
        <time>2017-07-11T08:55:59Z</time>
      </trkpt>
      <trkpt lat="45.91791" lon="4.73729">
        <ele>173</ele>
        <time>2017-07-11T08:56:00Z</time>
      </trkpt>
      <trkpt lat="45.91786" lon="4.73729">
        <ele>173</ele>
        <time>2017-07-11T08:56:01Z</time>
      </trkpt>
      <trkpt lat="45.91781" lon="4.73729">
        <ele>173</ele>
        <time>2017-07-11T08:56:02Z</time>
      </trkpt>
      <trkpt lat="45.91776" lon="4.73729">
        <ele>173</ele>
        <time>2017-07-11T08:56:03Z</time>
      </trkpt>
      <trkpt lat="45.9177" lon="4.73729">
        <ele>173</ele>
        <time>2017-07-11T08:56:04Z</time>
      </trkpt>
      <trkpt lat="45.91765" lon="4.73729">
        <ele>173</ele>
        <time>2017-07-11T08:56:05Z</time>
      </trkpt>
      <trkpt lat="45.9176" lon="4.73729">
        <ele>173</ele>
        <time>2017-07-11T08:56:06Z</time>
      </trkpt>
      <trkpt lat="45.91754" lon="4.73728">
        <ele>173</ele>
        <time>2017-07-11T08:56:07Z</time>
      </trkpt>
      <trkpt lat="45.91748" lon="4.73728">
        <ele>173</ele>
        <time>2017-07-11T08:56:08Z</time>
      </trkpt>
      <trkpt lat="45.91742" lon="4.73727">
        <ele>173</ele>
        <time>2017-07-11T08:56:09Z</time>
      </trkpt>
      <trkpt lat="45.91736" lon="4.73727">
        <ele>173</ele>
        <time>2017-07-11T08:56:10Z</time>
      </trkpt>
      <trkpt lat="45.9173" lon="4.73727">
        <ele>173</ele>
        <time>2017-07-11T08:56:11Z</time>
      </trkpt>
      <trkpt lat="45.91724" lon="4.73728">
        <ele>173</ele>
        <time>2017-07-11T08:56:12Z</time>
      </trkpt>
      <trkpt lat="45.91718" lon="4.73728">
        <ele>173</ele>
        <time>2017-07-11T08:56:13Z</time>
      </trkpt>
      <trkpt lat="45.91712" lon="4.73727">
        <ele>173</ele>
        <time>2017-07-11T08:56:14Z</time>
      </trkpt>
      <trkpt lat="45.91707" lon="4.73728">
        <ele>172</ele>
        <time>2017-07-11T08:56:15Z</time>
      </trkpt>
      <trkpt lat="45.91702" lon="4.73728">
        <ele>172</ele>
        <time>2017-07-11T08:56:16Z</time>
      </trkpt>
      <trkpt lat="45.91696" lon="4.73729">
        <ele>172</ele>
        <time>2017-07-11T08:56:17Z</time>
      </trkpt>
      <trkpt lat="45.91691" lon="4.73729">
        <ele>172</ele>
        <time>2017-07-11T08:56:18Z</time>
      </trkpt>
      <trkpt lat="45.91686" lon="4.7373">
        <ele>172</ele>
        <time>2017-07-11T08:56:19Z</time>
      </trkpt>
      <trkpt lat="45.91681" lon="4.7373">
        <ele>172</ele>
        <time>2017-07-11T08:56:20Z</time>
      </trkpt>
      <trkpt lat="45.91677" lon="4.7373">
        <ele>172</ele>
        <time>2017-07-11T08:56:21Z</time>
      </trkpt>
      <trkpt lat="45.91672" lon="4.7373">
        <ele>172</ele>
        <time>2017-07-11T08:56:22Z</time>
      </trkpt>
      <trkpt lat="45.91666" lon="4.7373">
        <ele>172</ele>
        <time>2017-07-11T08:56:23Z</time>
      </trkpt>
      <trkpt lat="45.91661" lon="4.73731">
        <ele>172</ele>
        <time>2017-07-11T08:56:24Z</time>
      </trkpt>
      <trkpt lat="45.91655" lon="4.73732">
        <ele>172</ele>
        <time>2017-07-11T08:56:25Z</time>
      </trkpt>
      <trkpt lat="45.9165" lon="4.73732">
        <ele>172</ele>
        <time>2017-07-11T08:56:26Z</time>
      </trkpt>
      <trkpt lat="45.91644" lon="4.73732">
        <ele>172</ele>
        <time>2017-07-11T08:56:27Z</time>
      </trkpt>
      <trkpt lat="45.91638" lon="4.73732">
        <ele>172</ele>
        <time>2017-07-11T08:56:28Z</time>
      </trkpt>
      <trkpt lat="45.91632" lon="4.73732">
        <ele>172</ele>
        <time>2017-07-11T08:56:29Z</time>
      </trkpt>
      <trkpt lat="45.91626" lon="4.73733">
        <ele>172</ele>
        <time>2017-07-11T08:56:30Z</time>
      </trkpt>
      <trkpt lat="45.91621" lon="4.73733">
        <ele>173</ele>
        <time>2017-07-11T08:56:31Z</time>
      </trkpt>
      <trkpt lat="45.91615" lon="4.73733">
        <ele>173</ele>
        <time>2017-07-11T08:56:32Z</time>
      </trkpt>
      <trkpt lat="45.91609" lon="4.73733">
        <ele>173</ele>
        <time>2017-07-11T08:56:33Z</time>
      </trkpt>
      <trkpt lat="45.91603" lon="4.73734">
        <ele>173</ele>
        <time>2017-07-11T08:56:34Z</time>
      </trkpt>
      <trkpt lat="45.91597" lon="4.73734">
        <ele>173</ele>
        <time>2017-07-11T08:56:35Z</time>
      </trkpt>
      <trkpt lat="45.91591" lon="4.73734">
        <ele>173</ele>
        <time>2017-07-11T08:56:36Z</time>
      </trkpt>
      <trkpt lat="45.91585" lon="4.73734">
        <ele>173</ele>
        <time>2017-07-11T08:56:37Z</time>
      </trkpt>
      <trkpt lat="45.91579" lon="4.73734">
        <ele>173</ele>
        <time>2017-07-11T08:56:38Z</time>
      </trkpt>
      <trkpt lat="45.91574" lon="4.73734">
        <ele>173</ele>
        <time>2017-07-11T08:56:39Z</time>
      </trkpt>
      <trkpt lat="45.91568" lon="4.73734">
        <ele>173</ele>
        <time>2017-07-11T08:56:40Z</time>
      </trkpt>
      <trkpt lat="45.91563" lon="4.73734">
        <ele>173</ele>
        <time>2017-07-11T08:56:41Z</time>
      </trkpt>
      <trkpt lat="45.91557" lon="4.73734">
        <ele>174</ele>
        <time>2017-07-11T08:56:42Z</time>
      </trkpt>
      <trkpt lat="45.91551" lon="4.73734">
        <ele>174</ele>
        <time>2017-07-11T08:56:43Z</time>
      </trkpt>
      <trkpt lat="45.91546" lon="4.73734">
        <ele>174</ele>
        <time>2017-07-11T08:56:44Z</time>
      </trkpt>
      <trkpt lat="45.91539" lon="4.73735">
        <ele>174</ele>
        <time>2017-07-11T08:56:45Z</time>
      </trkpt>
      <trkpt lat="45.91533" lon="4.73735">
        <ele>174</ele>
        <time>2017-07-11T08:56:46Z</time>
      </trkpt>
      <trkpt lat="45.91526" lon="4.73735">
        <ele>174</ele>
        <time>2017-07-11T08:56:47Z</time>
      </trkpt>
      <trkpt lat="45.9152" lon="4.73736">
        <ele>174</ele>
        <time>2017-07-11T08:56:48Z</time>
      </trkpt>
      <trkpt lat="45.91515" lon="4.73736">
        <ele>174</ele>
        <time>2017-07-11T08:56:49Z</time>
      </trkpt>
      <trkpt lat="45.91509" lon="4.73736">
        <ele>174</ele>
        <time>2017-07-11T08:56:50Z</time>
      </trkpt>
      <trkpt lat="45.91503" lon="4.73736">
        <ele>174</ele>
        <time>2017-07-11T08:56:51Z</time>
      </trkpt>
      <trkpt lat="45.91497" lon="4.73735">
        <ele>174</ele>
        <time>2017-07-11T08:56:52Z</time>
      </trkpt>
      <trkpt lat="45.91491" lon="4.73735">
        <ele>174</ele>
        <time>2017-07-11T08:56:53Z</time>
      </trkpt>
      <trkpt lat="45.91485" lon="4.73736">
        <ele>174</ele>
        <time>2017-07-11T08:56:54Z</time>
      </trkpt>
      <trkpt lat="45.91479" lon="4.73736">
        <ele>174</ele>
        <time>2017-07-11T08:56:55Z</time>
      </trkpt>
      <trkpt lat="45.91473" lon="4.73737">
        <ele>174</ele>
        <time>2017-07-11T08:56:56Z</time>
      </trkpt>
      <trkpt lat="45.91467" lon="4.73737">
        <ele>174</ele>
        <time>2017-07-11T08:56:57Z</time>
      </trkpt>
      <trkpt lat="45.91462" lon="4.73737">
        <ele>174</ele>
        <time>2017-07-11T08:56:58Z</time>
      </trkpt>
      <trkpt lat="45.91456" lon="4.73737">
        <ele>173</ele>
        <time>2017-07-11T08:56:59Z</time>
      </trkpt>
      <trkpt lat="45.9145" lon="4.73737">
        <ele>173</ele>
        <time>2017-07-11T08:57:00Z</time>
      </trkpt>
      <trkpt lat="45.91445" lon="4.73737">
        <ele>173</ele>
        <time>2017-07-11T08:57:01Z</time>
      </trkpt>
      <trkpt lat="45.91439" lon="4.73736">
        <ele>173</ele>
        <time>2017-07-11T08:57:02Z</time>
      </trkpt>
      <trkpt lat="45.91434" lon="4.73736">
        <ele>173</ele>
        <time>2017-07-11T08:57:03Z</time>
      </trkpt>
      <trkpt lat="45.91428" lon="4.73736">
        <ele>173</ele>
        <time>2017-07-11T08:57:04Z</time>
      </trkpt>
      <trkpt lat="45.91422" lon="4.73736">
        <ele>173</ele>
        <time>2017-07-11T08:57:05Z</time>
      </trkpt>
      <trkpt lat="45.91415" lon="4.73737">
        <ele>173</ele>
        <time>2017-07-11T08:57:06Z</time>
      </trkpt>
      <trkpt lat="45.91409" lon="4.73737">
        <ele>173</ele>
        <time>2017-07-11T08:57:07Z</time>
      </trkpt>
      <trkpt lat="45.91403" lon="4.73737">
        <ele>173</ele>
        <time>2017-07-11T08:57:08Z</time>
      </trkpt>
      <trkpt lat="45.91396" lon="4.73737">
        <ele>173</ele>
        <time>2017-07-11T08:57:09Z</time>
      </trkpt>
      <trkpt lat="45.91389" lon="4.73737">
        <ele>173</ele>
        <time>2017-07-11T08:57:10Z</time>
      </trkpt>
      <trkpt lat="45.91383" lon="4.73737">
        <ele>173</ele>
        <time>2017-07-11T08:57:11Z</time>
      </trkpt>
      <trkpt lat="45.91376" lon="4.73737">
        <ele>173</ele>
        <time>2017-07-11T08:57:12Z</time>
      </trkpt>
      <trkpt lat="45.9137" lon="4.73737">
        <ele>173</ele>
        <time>2017-07-11T08:57:13Z</time>
      </trkpt>
      <trkpt lat="45.91364" lon="4.73737">
        <ele>173</ele>
        <time>2017-07-11T08:57:14Z</time>
      </trkpt>
      <trkpt lat="45.91359" lon="4.73737">
        <ele>173</ele>
        <time>2017-07-11T08:57:15Z</time>
      </trkpt>
      <trkpt lat="45.91354" lon="4.73737">
        <ele>173</ele>
        <time>2017-07-11T08:57:16Z</time>
      </trkpt>
      <trkpt lat="45.91348" lon="4.73737">
        <ele>173</ele>
        <time>2017-07-11T08:57:17Z</time>
      </trkpt>
      <trkpt lat="45.91343" lon="4.73738">
        <ele>173</ele>
        <time>2017-07-11T08:57:18Z</time>
      </trkpt>
      <trkpt lat="45.91337" lon="4.73739">
        <ele>173</ele>
        <time>2017-07-11T08:57:19Z</time>
      </trkpt>
      <trkpt lat="45.91331" lon="4.73739">
        <ele>173</ele>
        <time>2017-07-11T08:57:20Z</time>
      </trkpt>
      <trkpt lat="45.91325" lon="4.73739">
        <ele>173</ele>
        <time>2017-07-11T08:57:21Z</time>
      </trkpt>
      <trkpt lat="45.91319" lon="4.7374">
        <ele>174</ele>
        <time>2017-07-11T08:57:22Z</time>
      </trkpt>
      <trkpt lat="45.91313" lon="4.7374">
        <ele>174</ele>
        <time>2017-07-11T08:57:23Z</time>
      </trkpt>
      <trkpt lat="45.91306" lon="4.73739">
        <ele>174</ele>
        <time>2017-07-11T08:57:24Z</time>
      </trkpt>
      <trkpt lat="45.913" lon="4.73739">
        <ele>174</ele>
        <time>2017-07-11T08:57:25Z</time>
      </trkpt>
      <trkpt lat="45.91293" lon="4.73738">
        <ele>174</ele>
        <time>2017-07-11T08:57:26Z</time>
      </trkpt>
      <trkpt lat="45.91287" lon="4.73738">
        <ele>174</ele>
        <time>2017-07-11T08:57:27Z</time>
      </trkpt>
      <trkpt lat="45.9128" lon="4.73739">
        <ele>174</ele>
        <time>2017-07-11T08:57:28Z</time>
      </trkpt>
      <trkpt lat="45.91274" lon="4.73738">
        <ele>174</ele>
        <time>2017-07-11T08:57:29Z</time>
      </trkpt>
      <trkpt lat="45.91268" lon="4.73738">
        <ele>174</ele>
        <time>2017-07-11T08:57:30Z</time>
      </trkpt>
      <trkpt lat="45.91262" lon="4.73739">
        <ele>174</ele>
        <time>2017-07-11T08:57:31Z</time>
      </trkpt>
      <trkpt lat="45.91256" lon="4.73739">
        <ele>175</ele>
        <time>2017-07-11T08:57:32Z</time>
      </trkpt>
      <trkpt lat="45.91251" lon="4.73739">
        <ele>175</ele>
        <time>2017-07-11T08:57:33Z</time>
      </trkpt>
      <trkpt lat="45.91245" lon="4.7374">
        <ele>175</ele>
        <time>2017-07-11T08:57:34Z</time>
      </trkpt>
      <trkpt lat="45.9124" lon="4.7374">
        <ele>175</ele>
        <time>2017-07-11T08:57:35Z</time>
      </trkpt>
      <trkpt lat="45.91235" lon="4.7374">
        <ele>175</ele>
        <time>2017-07-11T08:57:36Z</time>
      </trkpt>
      <trkpt lat="45.91229" lon="4.7374">
        <ele>175</ele>
        <time>2017-07-11T08:57:37Z</time>
      </trkpt>
      <trkpt lat="45.91224" lon="4.73741">
        <ele>175</ele>
        <time>2017-07-11T08:57:38Z</time>
      </trkpt>
      <trkpt lat="45.91218" lon="4.73741">
        <ele>175</ele>
        <time>2017-07-11T08:57:39Z</time>
      </trkpt>
      <trkpt lat="45.91212" lon="4.73741">
        <ele>175</ele>
        <time>2017-07-11T08:57:40Z</time>
      </trkpt>
      <trkpt lat="45.91206" lon="4.73741">
        <ele>175</ele>
        <time>2017-07-11T08:57:41Z</time>
      </trkpt>
      <trkpt lat="45.91201" lon="4.73742">
        <ele>175</ele>
        <time>2017-07-11T08:57:42Z</time>
      </trkpt>
      <trkpt lat="45.91196" lon="4.73742">
        <ele>175</ele>
        <time>2017-07-11T08:57:43Z</time>
      </trkpt>
      <trkpt lat="45.91191" lon="4.7374">
        <ele>175</ele>
        <time>2017-07-11T08:57:44Z</time>
      </trkpt>
      <trkpt lat="45.91186" lon="4.73738">
        <ele>175</ele>
        <time>2017-07-11T08:57:45Z</time>
      </trkpt>
      <trkpt lat="45.91181" lon="4.73735">
        <ele>175</ele>
        <time>2017-07-11T08:57:46Z</time>
      </trkpt>
      <trkpt lat="45.91176" lon="4.73733">
        <ele>175</ele>
        <time>2017-07-11T08:57:47Z</time>
      </trkpt>
      <trkpt lat="45.91171" lon="4.73732">
        <ele>175</ele>
        <time>2017-07-11T08:57:48Z</time>
      </trkpt>
      <trkpt lat="45.91165" lon="4.73732">
        <ele>175</ele>
        <time>2017-07-11T08:57:49Z</time>
      </trkpt>
      <trkpt lat="45.9116" lon="4.7373">
        <ele>175</ele>
        <time>2017-07-11T08:57:50Z</time>
      </trkpt>
      <trkpt lat="45.91155" lon="4.73728">
        <ele>175</ele>
        <time>2017-07-11T08:57:51Z</time>
      </trkpt>
      <trkpt lat="45.9115" lon="4.73723">
        <ele>175</ele>
        <time>2017-07-11T08:57:52Z</time>
      </trkpt>
      <trkpt lat="45.91146" lon="4.73718">
        <ele>174</ele>
        <time>2017-07-11T08:57:53Z</time>
      </trkpt>
      <trkpt lat="45.91143" lon="4.73712">
        <ele>174</ele>
        <time>2017-07-11T08:57:54Z</time>
      </trkpt>
      <trkpt lat="45.9114" lon="4.73705">
        <ele>174</ele>
        <time>2017-07-11T08:57:55Z</time>
      </trkpt>
      <trkpt lat="45.91137" lon="4.73698">
        <ele>174</ele>
        <time>2017-07-11T08:57:56Z</time>
      </trkpt>
      <trkpt lat="45.91134" lon="4.73691">
        <ele>174</ele>
        <time>2017-07-11T08:57:57Z</time>
      </trkpt>
      <trkpt lat="45.91131" lon="4.73685">
        <ele>174</ele>
        <time>2017-07-11T08:57:58Z</time>
      </trkpt>
      <trkpt lat="45.91128" lon="4.73677">
        <ele>174</ele>
        <time>2017-07-11T08:57:59Z</time>
      </trkpt>
      <trkpt lat="45.91125" lon="4.73669">
        <ele>174</ele>
        <time>2017-07-11T08:58:00Z</time>
      </trkpt>
      <trkpt lat="45.91122" lon="4.73662">
        <ele>174</ele>
        <time>2017-07-11T08:58:01Z</time>
      </trkpt>
      <trkpt lat="45.91118" lon="4.73655">
        <ele>174</ele>
        <time>2017-07-11T08:58:02Z</time>
      </trkpt>
      <trkpt lat="45.91116" lon="4.73648">
        <ele>174</ele>
        <time>2017-07-11T08:58:03Z</time>
      </trkpt>
      <trkpt lat="45.91112" lon="4.73641">
        <ele>174</ele>
        <time>2017-07-11T08:58:04Z</time>
      </trkpt>
      <trkpt lat="45.91109" lon="4.73635">
        <ele>174</ele>
        <time>2017-07-11T08:58:05Z</time>
      </trkpt>
      <trkpt lat="45.91107" lon="4.73629">
        <ele>174</ele>
        <time>2017-07-11T08:58:06Z</time>
      </trkpt>
      <trkpt lat="45.91104" lon="4.73623">
        <ele>174</ele>
        <time>2017-07-11T08:58:07Z</time>
      </trkpt>
      <trkpt lat="45.91102" lon="4.73617">
        <ele>174</ele>
        <time>2017-07-11T08:58:08Z</time>
      </trkpt>
      <trkpt lat="45.91099" lon="4.73611">
        <ele>174</ele>
        <time>2017-07-11T08:58:09Z</time>
      </trkpt>
      <trkpt lat="45.91097" lon="4.73605">
        <ele>174</ele>
        <time>2017-07-11T08:58:10Z</time>
      </trkpt>
      <trkpt lat="45.91094" lon="4.73598">
        <ele>174</ele>
        <time>2017-07-11T08:58:11Z</time>
      </trkpt>
      <trkpt lat="45.91091" lon="4.73592">
        <ele>174</ele>
        <time>2017-07-11T08:58:12Z</time>
      </trkpt>
      <trkpt lat="45.91088" lon="4.73585">
        <ele>174</ele>
        <time>2017-07-11T08:58:13Z</time>
      </trkpt>
      <trkpt lat="45.91085" lon="4.73579">
        <ele>174</ele>
        <time>2017-07-11T08:58:14Z</time>
      </trkpt>
      <trkpt lat="45.91082" lon="4.73572">
        <ele>174</ele>
        <time>2017-07-11T08:58:15Z</time>
      </trkpt>
      <trkpt lat="45.91079" lon="4.73565">
        <ele>174</ele>
        <time>2017-07-11T08:58:16Z</time>
      </trkpt>
      <trkpt lat="45.91077" lon="4.73558">
        <ele>174</ele>
        <time>2017-07-11T08:58:17Z</time>
      </trkpt>
      <trkpt lat="45.91074" lon="4.73552">
        <ele>174</ele>
        <time>2017-07-11T08:58:18Z</time>
      </trkpt>
      <trkpt lat="45.91071" lon="4.73545">
        <ele>174</ele>
        <time>2017-07-11T08:58:19Z</time>
      </trkpt>
      <trkpt lat="45.91068" lon="4.73539">
        <ele>175</ele>
        <time>2017-07-11T08:58:20Z</time>
      </trkpt>
      <trkpt lat="45.91065" lon="4.73532">
        <ele>175</ele>
        <time>2017-07-11T08:58:21Z</time>
      </trkpt>
      <trkpt lat="45.91062" lon="4.73526">
        <ele>175</ele>
        <time>2017-07-11T08:58:22Z</time>
      </trkpt>
      <trkpt lat="45.9106" lon="4.73521">
        <ele>175</ele>
        <time>2017-07-11T08:58:23Z</time>
      </trkpt>
      <trkpt lat="45.91057" lon="4.73515">
        <ele>175</ele>
        <time>2017-07-11T08:58:24Z</time>
      </trkpt>
      <trkpt lat="45.91055" lon="4.73509">
        <ele>175</ele>
        <time>2017-07-11T08:58:25Z</time>
      </trkpt>
      <trkpt lat="45.91052" lon="4.73503">
        <ele>175</ele>
        <time>2017-07-11T08:58:26Z</time>
      </trkpt>
      <trkpt lat="45.9105" lon="4.73497">
        <ele>175</ele>
        <time>2017-07-11T08:58:27Z</time>
      </trkpt>
      <trkpt lat="45.91047" lon="4.73491">
        <ele>175</ele>
        <time>2017-07-11T08:58:28Z</time>
      </trkpt>
      <trkpt lat="45.91045" lon="4.73485">
        <ele>175</ele>
        <time>2017-07-11T08:58:29Z</time>
      </trkpt>
      <trkpt lat="45.91042" lon="4.73479">
        <ele>175</ele>
        <time>2017-07-11T08:58:30Z</time>
      </trkpt>
      <trkpt lat="45.9104" lon="4.73473">
        <ele>175</ele>
        <time>2017-07-11T08:58:31Z</time>
      </trkpt>
      <trkpt lat="45.91037" lon="4.73462">
        <ele>175</ele>
        <time>2017-07-11T08:58:33Z</time>
      </trkpt>
      <trkpt lat="45.91036" lon="4.73457">
        <ele>175</ele>
        <time>2017-07-11T08:58:34Z</time>
      </trkpt>
      <trkpt lat="45.91036" lon="4.73448">
        <ele>175</ele>
        <time>2017-07-11T08:58:36Z</time>
      </trkpt>
      <trkpt lat="45.91036" lon="4.73442">
        <ele>175</ele>
        <time>2017-07-11T08:58:37Z</time>
      </trkpt>
      <trkpt lat="45.91036" lon="4.7343">
        <ele>175</ele>
        <time>2017-07-11T08:58:39Z</time>
      </trkpt>
      <trkpt lat="45.91035" lon="4.73424">
        <ele>175</ele>
        <time>2017-07-11T08:58:40Z</time>
      </trkpt>
      <trkpt lat="45.91032" lon="4.73418">
        <ele>175</ele>
        <time>2017-07-11T08:58:41Z</time>
      </trkpt>
      <trkpt lat="45.91028" lon="4.73414">
        <ele>174</ele>
        <time>2017-07-11T08:58:42Z</time>
      </trkpt>
      <trkpt lat="45.91023" lon="4.73413">
        <ele>174</ele>
        <time>2017-07-11T08:58:43Z</time>
      </trkpt>
      <trkpt lat="45.91017" lon="4.73414">
        <ele>175</ele>
        <time>2017-07-11T08:58:44Z</time>
      </trkpt>
      <trkpt lat="45.91012" lon="4.73417">
        <ele>175</ele>
        <time>2017-07-11T08:58:45Z</time>
      </trkpt>
      <trkpt lat="45.91008" lon="4.73421">
        <ele>175</ele>
        <time>2017-07-11T08:58:46Z</time>
      </trkpt>
      <trkpt lat="45.91003" lon="4.73426">
        <ele>175</ele>
        <time>2017-07-11T08:58:47Z</time>
      </trkpt>
      <trkpt lat="45.90999" lon="4.73431">
        <ele>175</ele>
        <time>2017-07-11T08:58:48Z</time>
      </trkpt>
      <trkpt lat="45.90994" lon="4.73435">
        <ele>175</ele>
        <time>2017-07-11T08:58:49Z</time>
      </trkpt>
      <trkpt lat="45.90988" lon="4.73439">
        <ele>175</ele>
        <time>2017-07-11T08:58:50Z</time>
      </trkpt>
      <trkpt lat="45.90983" lon="4.73442">
        <ele>175</ele>
        <time>2017-07-11T08:58:51Z</time>
      </trkpt>
      <trkpt lat="45.90978" lon="4.73445">
        <ele>175</ele>
        <time>2017-07-11T08:58:52Z</time>
      </trkpt>
      <trkpt lat="45.90973" lon="4.73447">
        <ele>175</ele>
        <time>2017-07-11T08:58:53Z</time>
      </trkpt>
      <trkpt lat="45.90969" lon="4.73449">
        <ele>175</ele>
        <time>2017-07-11T08:58:54Z</time>
      </trkpt>
      <trkpt lat="45.90963" lon="4.7345">
        <ele>175</ele>
        <time>2017-07-11T08:58:55Z</time>
      </trkpt>
      <trkpt lat="45.90958" lon="4.73453">
        <ele>175</ele>
        <time>2017-07-11T08:58:56Z</time>
      </trkpt>
      <trkpt lat="45.90953" lon="4.73455">
        <ele>175</ele>
        <time>2017-07-11T08:58:57Z</time>
      </trkpt>
      <trkpt lat="45.90947" lon="4.73458">
        <ele>175</ele>
        <time>2017-07-11T08:58:58Z</time>
      </trkpt>
      <trkpt lat="45.90942" lon="4.7346">
        <ele>175</ele>
        <time>2017-07-11T08:58:59Z</time>
      </trkpt>
      <trkpt lat="45.90937" lon="4.73463">
        <ele>175</ele>
        <time>2017-07-11T08:59:00Z</time>
      </trkpt>
      <trkpt lat="45.90932" lon="4.73465">
        <ele>175</ele>
        <time>2017-07-11T08:59:01Z</time>
      </trkpt>
      <trkpt lat="45.90926" lon="4.73467">
        <ele>175</ele>
        <time>2017-07-11T08:59:02Z</time>
      </trkpt>
      <trkpt lat="45.90921" lon="4.7347">
        <ele>175</ele>
        <time>2017-07-11T08:59:03Z</time>
      </trkpt>
      <trkpt lat="45.90915" lon="4.73472">
        <ele>175</ele>
        <time>2017-07-11T08:59:04Z</time>
      </trkpt>
      <trkpt lat="45.9091" lon="4.73474">
        <ele>175</ele>
        <time>2017-07-11T08:59:05Z</time>
      </trkpt>
      <trkpt lat="45.90905" lon="4.73477">
        <ele>175</ele>
        <time>2017-07-11T08:59:06Z</time>
      </trkpt>
      <trkpt lat="45.909" lon="4.73479">
        <ele>175</ele>
        <time>2017-07-11T08:59:07Z</time>
      </trkpt>
      <trkpt lat="45.90895" lon="4.73481">
        <ele>175</ele>
        <time>2017-07-11T08:59:08Z</time>
      </trkpt>
      <trkpt lat="45.9089" lon="4.73483">
        <ele>175</ele>
        <time>2017-07-11T08:59:09Z</time>
      </trkpt>
      <trkpt lat="45.90884" lon="4.73485">
        <ele>175</ele>
        <time>2017-07-11T08:59:10Z</time>
      </trkpt>
      <trkpt lat="45.90879" lon="4.73488">
        <ele>175</ele>
        <time>2017-07-11T08:59:11Z</time>
      </trkpt>
      <trkpt lat="45.90873" lon="4.7349">
        <ele>175</ele>
        <time>2017-07-11T08:59:12Z</time>
      </trkpt>
      <trkpt lat="45.90867" lon="4.73492">
        <ele>175</ele>
        <time>2017-07-11T08:59:13Z</time>
      </trkpt>
      <trkpt lat="45.90861" lon="4.73495">
        <ele>175</ele>
        <time>2017-07-11T08:59:14Z</time>
      </trkpt>
      <trkpt lat="45.90856" lon="4.73497">
        <ele>174</ele>
        <time>2017-07-11T08:59:15Z</time>
      </trkpt>
      <trkpt lat="45.9085" lon="4.73499">
        <ele>174</ele>
        <time>2017-07-11T08:59:16Z</time>
      </trkpt>
      <trkpt lat="45.90845" lon="4.73502">
        <ele>174</ele>
        <time>2017-07-11T08:59:17Z</time>
      </trkpt>
      <trkpt lat="45.90839" lon="4.73504">
        <ele>174</ele>
        <time>2017-07-11T08:59:18Z</time>
      </trkpt>
      <trkpt lat="45.90834" lon="4.73507">
        <ele>174</ele>
        <time>2017-07-11T08:59:19Z</time>
      </trkpt>
      <trkpt lat="45.90829" lon="4.73509">
        <ele>175</ele>
        <time>2017-07-11T08:59:20Z</time>
      </trkpt>
      <trkpt lat="45.90824" lon="4.73511">
        <ele>175</ele>
        <time>2017-07-11T08:59:21Z</time>
      </trkpt>
      <trkpt lat="45.90819" lon="4.73514">
        <ele>175</ele>
        <time>2017-07-11T08:59:22Z</time>
      </trkpt>
      <trkpt lat="45.90813" lon="4.73516">
        <ele>175</ele>
        <time>2017-07-11T08:59:23Z</time>
      </trkpt>
      <trkpt lat="45.90808" lon="4.73518">
        <ele>175</ele>
        <time>2017-07-11T08:59:24Z</time>
      </trkpt>
      <trkpt lat="45.90802" lon="4.73521">
        <ele>175</ele>
        <time>2017-07-11T08:59:25Z</time>
      </trkpt>
      <trkpt lat="45.90796" lon="4.73523">
        <ele>175</ele>
        <time>2017-07-11T08:59:26Z</time>
      </trkpt>
      <trkpt lat="45.90791" lon="4.73526">
        <ele>176</ele>
        <time>2017-07-11T08:59:27Z</time>
      </trkpt>
      <trkpt lat="45.90785" lon="4.73529">
        <ele>176</ele>
        <time>2017-07-11T08:59:28Z</time>
      </trkpt>
      <trkpt lat="45.9078" lon="4.73532">
        <ele>176</ele>
        <time>2017-07-11T08:59:29Z</time>
      </trkpt>
      <trkpt lat="45.90774" lon="4.73534">
        <ele>176</ele>
        <time>2017-07-11T08:59:30Z</time>
      </trkpt>
      <trkpt lat="45.90768" lon="4.73536">
        <ele>176</ele>
        <time>2017-07-11T08:59:31Z</time>
      </trkpt>
      <trkpt lat="45.90763" lon="4.73538">
        <ele>176</ele>
        <time>2017-07-11T08:59:32Z</time>
      </trkpt>
      <trkpt lat="45.90757" lon="4.73541">
        <ele>176</ele>
        <time>2017-07-11T08:59:33Z</time>
      </trkpt>
      <trkpt lat="45.90751" lon="4.73543">
        <ele>176</ele>
        <time>2017-07-11T08:59:34Z</time>
      </trkpt>
      <trkpt lat="45.90746" lon="4.73545">
        <ele>177</ele>
        <time>2017-07-11T08:59:35Z</time>
      </trkpt>
      <trkpt lat="45.9074" lon="4.73547">
        <ele>178</ele>
        <time>2017-07-11T08:59:36Z</time>
      </trkpt>
      <trkpt lat="45.90735" lon="4.7355">
        <ele>178</ele>
        <time>2017-07-11T08:59:37Z</time>
      </trkpt>
      <trkpt lat="45.9073" lon="4.73552">
        <ele>178</ele>
        <time>2017-07-11T08:59:38Z</time>
      </trkpt>
      <trkpt lat="45.90725" lon="4.73554">
        <ele>178</ele>
        <time>2017-07-11T08:59:39Z</time>
      </trkpt>
      <trkpt lat="45.90721" lon="4.73556">
        <ele>178</ele>
        <time>2017-07-11T08:59:40Z</time>
      </trkpt>
      <trkpt lat="45.90716" lon="4.73557">
        <ele>178</ele>
        <time>2017-07-11T08:59:41Z</time>
      </trkpt>
      <trkpt lat="45.90711" lon="4.73559">
        <ele>178</ele>
        <time>2017-07-11T08:59:42Z</time>
      </trkpt>
      <trkpt lat="45.90706" lon="4.73561">
        <ele>178</ele>
        <time>2017-07-11T08:59:43Z</time>
      </trkpt>
      <trkpt lat="45.90702" lon="4.73563">
        <ele>178</ele>
        <time>2017-07-11T08:59:44Z</time>
      </trkpt>
      <trkpt lat="45.90697" lon="4.73565">
        <ele>178</ele>
        <time>2017-07-11T08:59:45Z</time>
      </trkpt>
      <trkpt lat="45.90691" lon="4.73568">
        <ele>178</ele>
        <time>2017-07-11T08:59:46Z</time>
      </trkpt>
      <trkpt lat="45.90686" lon="4.7357">
        <ele>178</ele>
        <time>2017-07-11T08:59:47Z</time>
      </trkpt>
      <trkpt lat="45.90681" lon="4.73572">
        <ele>179</ele>
        <time>2017-07-11T08:59:48Z</time>
      </trkpt>
      <trkpt lat="45.90676" lon="4.73574">
        <ele>179</ele>
        <time>2017-07-11T08:59:49Z</time>
      </trkpt>
      <trkpt lat="45.90671" lon="4.73577">
        <ele>179</ele>
        <time>2017-07-11T08:59:50Z</time>
      </trkpt>
      <trkpt lat="45.90666" lon="4.73579">
        <ele>180</ele>
        <time>2017-07-11T08:59:51Z</time>
      </trkpt>
      <trkpt lat="45.90662" lon="4.73581">
        <ele>179</ele>
        <time>2017-07-11T08:59:52Z</time>
      </trkpt>
      <trkpt lat="45.90657" lon="4.73583">
        <ele>179</ele>
        <time>2017-07-11T08:59:53Z</time>
      </trkpt>
      <trkpt lat="45.90653" lon="4.73585">
        <ele>180</ele>
        <time>2017-07-11T08:59:54Z</time>
      </trkpt>
      <trkpt lat="45.90648" lon="4.73587">
        <ele>181</ele>
        <time>2017-07-11T08:59:55Z</time>
      </trkpt>
      <trkpt lat="45.90644" lon="4.73588">
        <ele>181</ele>
        <time>2017-07-11T08:59:56Z</time>
      </trkpt>
      <trkpt lat="45.90636" lon="4.73592">
        <ele>181</ele>
        <time>2017-07-11T08:59:58Z</time>
      </trkpt>
      <trkpt lat="45.90631" lon="4.73594">
        <ele>181</ele>
        <time>2017-07-11T08:59:59Z</time>
      </trkpt>
      <trkpt lat="45.90623" lon="4.73597">
        <ele>181</ele>
        <time>2017-07-11T09:00:01Z</time>
      </trkpt>
      <trkpt lat="45.90619" lon="4.73599">
        <ele>180</ele>
        <time>2017-07-11T09:00:02Z</time>
      </trkpt>
      <trkpt lat="45.90611" lon="4.73603">
        <ele>180</ele>
        <time>2017-07-11T09:00:04Z</time>
      </trkpt>
      <trkpt lat="45.90607" lon="4.73605">
        <ele>180</ele>
        <time>2017-07-11T09:00:05Z</time>
      </trkpt>
      <trkpt lat="45.90598" lon="4.73609">
        <ele>180</ele>
        <time>2017-07-11T09:00:07Z</time>
      </trkpt>
      <trkpt lat="45.90594" lon="4.7361">
        <ele>180</ele>
        <time>2017-07-11T09:00:08Z</time>
      </trkpt>
      <trkpt lat="45.9059" lon="4.73612">
        <ele>180</ele>
        <time>2017-07-11T09:00:09Z</time>
      </trkpt>
      <trkpt lat="45.90585" lon="4.73614">
        <ele>180</ele>
        <time>2017-07-11T09:00:10Z</time>
      </trkpt>
      <trkpt lat="45.90581" lon="4.73616">
        <ele>179</ele>
        <time>2017-07-11T09:00:11Z</time>
      </trkpt>
      <trkpt lat="45.90576" lon="4.73618">
        <ele>179</ele>
        <time>2017-07-11T09:00:12Z</time>
      </trkpt>
      <trkpt lat="45.90568" lon="4.7362">
        <ele>179</ele>
        <time>2017-07-11T09:00:14Z</time>
      </trkpt>
      <trkpt lat="45.90564" lon="4.73622">
        <ele>179</ele>
        <time>2017-07-11T09:00:15Z</time>
      </trkpt>
      <trkpt lat="45.90557" lon="4.73625">
        <ele>178</ele>
        <time>2017-07-11T09:00:17Z</time>
      </trkpt>
      <trkpt lat="45.90553" lon="4.73627">
        <ele>178</ele>
        <time>2017-07-11T09:00:18Z</time>
      </trkpt>
      <trkpt lat="45.90545" lon="4.73631">
        <ele>178</ele>
        <time>2017-07-11T09:00:20Z</time>
      </trkpt>
      <trkpt lat="45.90541" lon="4.73633">
        <ele>178</ele>
        <time>2017-07-11T09:00:21Z</time>
      </trkpt>
      <trkpt lat="45.90536" lon="4.73635">
        <ele>178</ele>
        <time>2017-07-11T09:00:22Z</time>
      </trkpt>
      <trkpt lat="45.90531" lon="4.73637">
        <ele>178</ele>
        <time>2017-07-11T09:00:23Z</time>
      </trkpt>
      <trkpt lat="45.90526" lon="4.73639">
        <ele>178</ele>
        <time>2017-07-11T09:00:24Z</time>
      </trkpt>
      <trkpt lat="45.90522" lon="4.73641">
        <ele>178</ele>
        <time>2017-07-11T09:00:25Z</time>
      </trkpt>
      <trkpt lat="45.90517" lon="4.73643">
        <ele>178</ele>
        <time>2017-07-11T09:00:26Z</time>
      </trkpt>
      <trkpt lat="45.90513" lon="4.73645">
        <ele>178</ele>
        <time>2017-07-11T09:00:27Z</time>
      </trkpt>
      <trkpt lat="45.90508" lon="4.73647">
        <ele>178</ele>
        <time>2017-07-11T09:00:28Z</time>
      </trkpt>
      <trkpt lat="45.90504" lon="4.73649">
        <ele>178</ele>
        <time>2017-07-11T09:00:29Z</time>
      </trkpt>
      <trkpt lat="45.90499" lon="4.73651">
        <ele>177</ele>
        <time>2017-07-11T09:00:30Z</time>
      </trkpt>
      <trkpt lat="45.90494" lon="4.73653">
        <ele>177</ele>
        <time>2017-07-11T09:00:31Z</time>
      </trkpt>
      <trkpt lat="45.9049" lon="4.73654">
        <ele>177</ele>
        <time>2017-07-11T09:00:32Z</time>
      </trkpt>
      <trkpt lat="45.90485" lon="4.73656">
        <ele>177</ele>
        <time>2017-07-11T09:00:33Z</time>
      </trkpt>
      <trkpt lat="45.9048" lon="4.73658">
        <ele>177</ele>
        <time>2017-07-11T09:00:34Z</time>
      </trkpt>
      <trkpt lat="45.90475" lon="4.7366">
        <ele>177</ele>
        <time>2017-07-11T09:00:35Z</time>
      </trkpt>
      <trkpt lat="45.90471" lon="4.73662">
        <ele>177</ele>
        <time>2017-07-11T09:00:36Z</time>
      </trkpt>
      <trkpt lat="45.90466" lon="4.73664">
        <ele>177</ele>
        <time>2017-07-11T09:00:37Z</time>
      </trkpt>
      <trkpt lat="45.90462" lon="4.73666">
        <ele>177</ele>
        <time>2017-07-11T09:00:38Z</time>
      </trkpt>
      <trkpt lat="45.90456" lon="4.73668">
        <ele>176</ele>
        <time>2017-07-11T09:00:39Z</time>
      </trkpt>
      <trkpt lat="45.90451" lon="4.7367">
        <ele>176</ele>
        <time>2017-07-11T09:00:40Z</time>
      </trkpt>
      <trkpt lat="45.90446" lon="4.73672">
        <ele>176</ele>
        <time>2017-07-11T09:00:41Z</time>
      </trkpt>
      <trkpt lat="45.90441" lon="4.73674">
        <ele>176</ele>
        <time>2017-07-11T09:00:42Z</time>
      </trkpt>
      <trkpt lat="45.90436" lon="4.73677">
        <ele>176</ele>
        <time>2017-07-11T09:00:43Z</time>
      </trkpt>
      <trkpt lat="45.90431" lon="4.73679">
        <ele>177</ele>
        <time>2017-07-11T09:00:44Z</time>
      </trkpt>
      <trkpt lat="45.90426" lon="4.73681">
        <ele>177</ele>
        <time>2017-07-11T09:00:45Z</time>
      </trkpt>
      <trkpt lat="45.9042" lon="4.73683">
        <ele>177</ele>
        <time>2017-07-11T09:00:46Z</time>
      </trkpt>
      <trkpt lat="45.90415" lon="4.73686">
        <ele>177</ele>
        <time>2017-07-11T09:00:47Z</time>
      </trkpt>
      <trkpt lat="45.90409" lon="4.73688">
        <ele>177</ele>
        <time>2017-07-11T09:00:48Z</time>
      </trkpt>
      <trkpt lat="45.90404" lon="4.7369">
        <ele>177</ele>
        <time>2017-07-11T09:00:49Z</time>
      </trkpt>
      <trkpt lat="45.90398" lon="4.73693">
        <ele>177</ele>
        <time>2017-07-11T09:00:50Z</time>
      </trkpt>
      <trkpt lat="45.90393" lon="4.73695">
        <ele>177</ele>
        <time>2017-07-11T09:00:51Z</time>
      </trkpt>
      <trkpt lat="45.90387" lon="4.73698">
        <ele>177</ele>
        <time>2017-07-11T09:00:52Z</time>
      </trkpt>
      <trkpt lat="45.90381" lon="4.73701">
        <ele>177</ele>
        <time>2017-07-11T09:00:53Z</time>
      </trkpt>
      <trkpt lat="45.90374" lon="4.73703">
        <ele>177</ele>
        <time>2017-07-11T09:00:54Z</time>
      </trkpt>
      <trkpt lat="45.90367" lon="4.73706">
        <ele>177</ele>
        <time>2017-07-11T09:00:55Z</time>
      </trkpt>
      <trkpt lat="45.9036" lon="4.73709">
        <ele>177</ele>
        <time>2017-07-11T09:00:56Z</time>
      </trkpt>
      <trkpt lat="45.90353" lon="4.73712">
        <ele>177</ele>
        <time>2017-07-11T09:00:57Z</time>
      </trkpt>
      <trkpt lat="45.90346" lon="4.73715">
        <ele>177</ele>
        <time>2017-07-11T09:00:58Z</time>
      </trkpt>
      <trkpt lat="45.90339" lon="4.73718">
        <ele>177</ele>
        <time>2017-07-11T09:00:59Z</time>
      </trkpt>
      <trkpt lat="45.90331" lon="4.7372">
        <ele>177</ele>
        <time>2017-07-11T09:01:00Z</time>
      </trkpt>
      <trkpt lat="45.90324" lon="4.73723">
        <ele>177</ele>
        <time>2017-07-11T09:01:01Z</time>
      </trkpt>
      <trkpt lat="45.90316" lon="4.73726">
        <ele>177</ele>
        <time>2017-07-11T09:01:02Z</time>
      </trkpt>
      <trkpt lat="45.90308" lon="4.73729">
        <ele>177</ele>
        <time>2017-07-11T09:01:03Z</time>
      </trkpt>
      <trkpt lat="45.903" lon="4.73733">
        <ele>177</ele>
        <time>2017-07-11T09:01:04Z</time>
      </trkpt>
      <trkpt lat="45.90293" lon="4.73736">
        <ele>177</ele>
        <time>2017-07-11T09:01:05Z</time>
      </trkpt>
      <trkpt lat="45.90285" lon="4.73738">
        <ele>177</ele>
        <time>2017-07-11T09:01:06Z</time>
      </trkpt>
      <trkpt lat="45.90278" lon="4.73741">
        <ele>177</ele>
        <time>2017-07-11T09:01:07Z</time>
      </trkpt>
      <trkpt lat="45.90271" lon="4.73744">
        <ele>177</ele>
        <time>2017-07-11T09:01:08Z</time>
      </trkpt>
      <trkpt lat="45.90264" lon="4.73747">
        <ele>178</ele>
        <time>2017-07-11T09:01:09Z</time>
      </trkpt>
      <trkpt lat="45.90257" lon="4.7375">
        <ele>178</ele>
        <time>2017-07-11T09:01:10Z</time>
      </trkpt>
      <trkpt lat="45.9025" lon="4.73753">
        <ele>178</ele>
        <time>2017-07-11T09:01:11Z</time>
      </trkpt>
      <trkpt lat="45.90244" lon="4.73757">
        <ele>178</ele>
        <time>2017-07-11T09:01:12Z</time>
      </trkpt>
      <trkpt lat="45.90237" lon="4.7376">
        <ele>178</ele>
        <time>2017-07-11T09:01:13Z</time>
      </trkpt>
      <trkpt lat="45.90231" lon="4.73763">
        <ele>177</ele>
        <time>2017-07-11T09:01:14Z</time>
      </trkpt>
      <trkpt lat="45.90224" lon="4.73765">
        <ele>177</ele>
        <time>2017-07-11T09:01:15Z</time>
      </trkpt>
      <trkpt lat="45.90218" lon="4.73768">
        <ele>177</ele>
        <time>2017-07-11T09:01:16Z</time>
      </trkpt>
      <trkpt lat="45.90212" lon="4.73771">
        <ele>177</ele>
        <time>2017-07-11T09:01:17Z</time>
      </trkpt>
      <trkpt lat="45.90206" lon="4.73773">
        <ele>177</ele>
        <time>2017-07-11T09:01:18Z</time>
      </trkpt>
      <trkpt lat="45.90201" lon="4.73775">
        <ele>177</ele>
        <time>2017-07-11T09:01:19Z</time>
      </trkpt>
      <trkpt lat="45.90195" lon="4.73778">
        <ele>177</ele>
        <time>2017-07-11T09:01:20Z</time>
      </trkpt>
      <trkpt lat="45.9019" lon="4.7378">
        <ele>177</ele>
        <time>2017-07-11T09:01:21Z</time>
      </trkpt>
      <trkpt lat="45.90184" lon="4.73782">
        <ele>177</ele>
        <time>2017-07-11T09:01:22Z</time>
      </trkpt>
      <trkpt lat="45.90179" lon="4.73784">
        <ele>177</ele>
        <time>2017-07-11T09:01:23Z</time>
      </trkpt>
      <trkpt lat="45.90174" lon="4.73786">
        <ele>177</ele>
        <time>2017-07-11T09:01:24Z</time>
      </trkpt>
      <trkpt lat="45.90169" lon="4.73789">
        <ele>177</ele>
        <time>2017-07-11T09:01:25Z</time>
      </trkpt>
      <trkpt lat="45.90163" lon="4.73791">
        <ele>176</ele>
        <time>2017-07-11T09:01:26Z</time>
      </trkpt>
      <trkpt lat="45.90158" lon="4.73794">
        <ele>177</ele>
        <time>2017-07-11T09:01:27Z</time>
      </trkpt>
      <trkpt lat="45.90152" lon="4.73796">
        <ele>177</ele>
        <time>2017-07-11T09:01:28Z</time>
      </trkpt>
      <trkpt lat="45.90147" lon="4.73799">
        <ele>177</ele>
        <time>2017-07-11T09:01:29Z</time>
      </trkpt>
      <trkpt lat="45.90141" lon="4.73801">
        <ele>177</ele>
        <time>2017-07-11T09:01:30Z</time>
      </trkpt>
      <trkpt lat="45.90135" lon="4.73804">
        <ele>177</ele>
        <time>2017-07-11T09:01:31Z</time>
      </trkpt>
      <trkpt lat="45.90129" lon="4.73807">
        <ele>177</ele>
        <time>2017-07-11T09:01:32Z</time>
      </trkpt>
      <trkpt lat="45.90124" lon="4.7381">
        <ele>177</ele>
        <time>2017-07-11T09:01:33Z</time>
      </trkpt>
      <trkpt lat="45.90118" lon="4.73812">
        <ele>177</ele>
        <time>2017-07-11T09:01:34Z</time>
      </trkpt>
      <trkpt lat="45.90113" lon="4.73814">
        <ele>177</ele>
        <time>2017-07-11T09:01:35Z</time>
      </trkpt>
      <trkpt lat="45.90107" lon="4.73816">
        <ele>177</ele>
        <time>2017-07-11T09:01:36Z</time>
      </trkpt>
      <trkpt lat="45.90102" lon="4.73818">
        <ele>177</ele>
        <time>2017-07-11T09:01:37Z</time>
      </trkpt>
      <trkpt lat="45.90096" lon="4.73821">
        <ele>177</ele>
        <time>2017-07-11T09:01:38Z</time>
      </trkpt>
      <trkpt lat="45.90091" lon="4.73823">
        <ele>177</ele>
        <time>2017-07-11T09:01:39Z</time>
      </trkpt>
      <trkpt lat="45.90085" lon="4.73826">
        <ele>178</ele>
        <time>2017-07-11T09:01:40Z</time>
      </trkpt>
      <trkpt lat="45.90079" lon="4.73828">
        <ele>178</ele>
        <time>2017-07-11T09:01:41Z</time>
      </trkpt>
      <trkpt lat="45.90072" lon="4.73831">
        <ele>178</ele>
        <time>2017-07-11T09:01:42Z</time>
      </trkpt>
      <trkpt lat="45.90066" lon="4.73834">
        <ele>178</ele>
        <time>2017-07-11T09:01:43Z</time>
      </trkpt>
      <trkpt lat="45.9006" lon="4.73836">
        <ele>178</ele>
        <time>2017-07-11T09:01:44Z</time>
      </trkpt>
      <trkpt lat="45.90054" lon="4.73839">
        <ele>178</ele>
        <time>2017-07-11T09:01:45Z</time>
      </trkpt>
      <trkpt lat="45.90048" lon="4.73841">
        <ele>178</ele>
        <time>2017-07-11T09:01:46Z</time>
      </trkpt>
      <trkpt lat="45.90042" lon="4.73844">
        <ele>178</ele>
        <time>2017-07-11T09:01:47Z</time>
      </trkpt>
      <trkpt lat="45.90037" lon="4.73846">
        <ele>178</ele>
        <time>2017-07-11T09:01:48Z</time>
      </trkpt>
      <trkpt lat="45.90032" lon="4.73848">
        <ele>178</ele>
        <time>2017-07-11T09:01:49Z</time>
      </trkpt>
      <trkpt lat="45.90026" lon="4.7385">
        <ele>178</ele>
        <time>2017-07-11T09:01:50Z</time>
      </trkpt>
      <trkpt lat="45.90021" lon="4.73851">
        <ele>178</ele>
        <time>2017-07-11T09:01:51Z</time>
      </trkpt>
      <trkpt lat="45.90017" lon="4.73853">
        <ele>178</ele>
        <time>2017-07-11T09:01:52Z</time>
      </trkpt>
      <trkpt lat="45.90011" lon="4.73856">
        <ele>178</ele>
        <time>2017-07-11T09:01:53Z</time>
      </trkpt>
      <trkpt lat="45.90006" lon="4.73858">
        <ele>178</ele>
        <time>2017-07-11T09:01:54Z</time>
      </trkpt>
      <trkpt lat="45.90001" lon="4.7386">
        <ele>178</ele>
        <time>2017-07-11T09:01:55Z</time>
      </trkpt>
      <trkpt lat="45.89995" lon="4.73862">
        <ele>178</ele>
        <time>2017-07-11T09:01:56Z</time>
      </trkpt>
      <trkpt lat="45.8999" lon="4.73863">
        <ele>178</ele>
        <time>2017-07-11T09:01:57Z</time>
      </trkpt>
      <trkpt lat="45.89984" lon="4.73866">
        <ele>178</ele>
        <time>2017-07-11T09:01:58Z</time>
      </trkpt>
      <trkpt lat="45.89979" lon="4.73868">
        <ele>178</ele>
        <time>2017-07-11T09:01:59Z</time>
      </trkpt>
      <trkpt lat="45.89973" lon="4.73871">
        <ele>178</ele>
        <time>2017-07-11T09:02:00Z</time>
      </trkpt>
      <trkpt lat="45.89966" lon="4.73873">
        <ele>178</ele>
        <time>2017-07-11T09:02:01Z</time>
      </trkpt>
      <trkpt lat="45.89961" lon="4.73876">
        <ele>178</ele>
        <time>2017-07-11T09:02:02Z</time>
      </trkpt>
      <trkpt lat="45.89955" lon="4.73878">
        <ele>178</ele>
        <time>2017-07-11T09:02:03Z</time>
      </trkpt>
      <trkpt lat="45.8995" lon="4.7388">
        <ele>178</ele>
        <time>2017-07-11T09:02:04Z</time>
      </trkpt>
      <trkpt lat="45.89944" lon="4.73882">
        <ele>178</ele>
        <time>2017-07-11T09:02:05Z</time>
      </trkpt>
      <trkpt lat="45.89939" lon="4.73884">
        <ele>178</ele>
        <time>2017-07-11T09:02:06Z</time>
      </trkpt>
      <trkpt lat="45.89934" lon="4.73887">
        <ele>178</ele>
        <time>2017-07-11T09:02:07Z</time>
      </trkpt>
      <trkpt lat="45.89929" lon="4.73889">
        <ele>178</ele>
        <time>2017-07-11T09:02:08Z</time>
      </trkpt>
      <trkpt lat="45.89923" lon="4.73892">
        <ele>178</ele>
        <time>2017-07-11T09:02:09Z</time>
      </trkpt>
      <trkpt lat="45.89918" lon="4.73894">
        <ele>178</ele>
        <time>2017-07-11T09:02:10Z</time>
      </trkpt>
      <trkpt lat="45.89912" lon="4.73896">
        <ele>178</ele>
        <time>2017-07-11T09:02:11Z</time>
      </trkpt>
      <trkpt lat="45.89906" lon="4.73899">
        <ele>178</ele>
        <time>2017-07-11T09:02:12Z</time>
      </trkpt>
      <trkpt lat="45.89901" lon="4.73901">
        <ele>178</ele>
        <time>2017-07-11T09:02:13Z</time>
      </trkpt>
      <trkpt lat="45.89896" lon="4.73904">
        <ele>178</ele>
        <time>2017-07-11T09:02:14Z</time>
      </trkpt>
      <trkpt lat="45.8989" lon="4.73907">
        <ele>179</ele>
        <time>2017-07-11T09:02:15Z</time>
      </trkpt>
      <trkpt lat="45.89885" lon="4.7391">
        <ele>179</ele>
        <time>2017-07-11T09:02:16Z</time>
      </trkpt>
      <trkpt lat="45.89879" lon="4.73912">
        <ele>179</ele>
        <time>2017-07-11T09:02:17Z</time>
      </trkpt>
      <trkpt lat="45.89873" lon="4.73914">
        <ele>179</ele>
        <time>2017-07-11T09:02:18Z</time>
      </trkpt>
      <trkpt lat="45.89868" lon="4.73917">
        <ele>179</ele>
        <time>2017-07-11T09:02:19Z</time>
      </trkpt>
      <trkpt lat="45.89863" lon="4.73919">
        <ele>179</ele>
        <time>2017-07-11T09:02:20Z</time>
      </trkpt>
      <trkpt lat="45.89858" lon="4.73922">
        <ele>179</ele>
        <time>2017-07-11T09:02:21Z</time>
      </trkpt>
      <trkpt lat="45.89853" lon="4.73924">
        <ele>179</ele>
        <time>2017-07-11T09:02:22Z</time>
      </trkpt>
      <trkpt lat="45.89848" lon="4.73926">
        <ele>179</ele>
        <time>2017-07-11T09:02:23Z</time>
      </trkpt>
      <trkpt lat="45.89842" lon="4.73929">
        <ele>179</ele>
        <time>2017-07-11T09:02:24Z</time>
      </trkpt>
      <trkpt lat="45.89837" lon="4.73931">
        <ele>179</ele>
        <time>2017-07-11T09:02:25Z</time>
      </trkpt>
      <trkpt lat="45.89832" lon="4.73933">
        <ele>179</ele>
        <time>2017-07-11T09:02:26Z</time>
      </trkpt>
      <trkpt lat="45.89826" lon="4.73936">
        <ele>179</ele>
        <time>2017-07-11T09:02:27Z</time>
      </trkpt>
      <trkpt lat="45.8982" lon="4.73939">
        <ele>179</ele>
        <time>2017-07-11T09:02:28Z</time>
      </trkpt>
      <trkpt lat="45.89814" lon="4.73941">
        <ele>179</ele>
        <time>2017-07-11T09:02:29Z</time>
      </trkpt>
      <trkpt lat="45.89808" lon="4.73944">
        <ele>179</ele>
        <time>2017-07-11T09:02:30Z</time>
      </trkpt>
      <trkpt lat="45.89803" lon="4.73946">
        <ele>179</ele>
        <time>2017-07-11T09:02:31Z</time>
      </trkpt>
      <trkpt lat="45.89798" lon="4.73948">
        <ele>179</ele>
        <time>2017-07-11T09:02:32Z</time>
      </trkpt>
      <trkpt lat="45.89793" lon="4.73951">
        <ele>179</ele>
        <time>2017-07-11T09:02:33Z</time>
      </trkpt>
      <trkpt lat="45.89788" lon="4.73953">
        <ele>179</ele>
        <time>2017-07-11T09:02:34Z</time>
      </trkpt>
      <trkpt lat="45.89782" lon="4.73955">
        <ele>179</ele>
        <time>2017-07-11T09:02:35Z</time>
      </trkpt>
      <trkpt lat="45.89777" lon="4.73957">
        <ele>179</ele>
        <time>2017-07-11T09:02:36Z</time>
      </trkpt>
      <trkpt lat="45.89771" lon="4.73959">
        <ele>179</ele>
        <time>2017-07-11T09:02:37Z</time>
      </trkpt>
      <trkpt lat="45.89766" lon="4.73961">
        <ele>179</ele>
        <time>2017-07-11T09:02:38Z</time>
      </trkpt>
      <trkpt lat="45.89761" lon="4.73964">
        <ele>179</ele>
        <time>2017-07-11T09:02:39Z</time>
      </trkpt>
      <trkpt lat="45.89756" lon="4.73966">
        <ele>178</ele>
        <time>2017-07-11T09:02:40Z</time>
      </trkpt>
      <trkpt lat="45.8975" lon="4.73969">
        <ele>178</ele>
        <time>2017-07-11T09:02:41Z</time>
      </trkpt>
      <trkpt lat="45.89744" lon="4.73971">
        <ele>178</ele>
        <time>2017-07-11T09:02:42Z</time>
      </trkpt>
      <trkpt lat="45.89738" lon="4.73974">
        <ele>178</ele>
        <time>2017-07-11T09:02:43Z</time>
      </trkpt>
      <trkpt lat="45.89732" lon="4.73976">
        <ele>178</ele>
        <time>2017-07-11T09:02:44Z</time>
      </trkpt>
      <trkpt lat="45.89727" lon="4.73979">
        <ele>178</ele>
        <time>2017-07-11T09:02:45Z</time>
      </trkpt>
      <trkpt lat="45.89722" lon="4.73981">
        <ele>178</ele>
        <time>2017-07-11T09:02:46Z</time>
      </trkpt>
      <trkpt lat="45.89716" lon="4.73983">
        <ele>178</ele>
        <time>2017-07-11T09:02:47Z</time>
      </trkpt>
      <trkpt lat="45.89711" lon="4.73985">
        <ele>178</ele>
        <time>2017-07-11T09:02:48Z</time>
      </trkpt>
      <trkpt lat="45.89706" lon="4.73987">
        <ele>178</ele>
        <time>2017-07-11T09:02:49Z</time>
      </trkpt>
      <trkpt lat="45.89701" lon="4.73989">
        <ele>178</ele>
        <time>2017-07-11T09:02:50Z</time>
      </trkpt>
      <trkpt lat="45.89696" lon="4.73992">
        <ele>178</ele>
        <time>2017-07-11T09:02:51Z</time>
      </trkpt>
      <trkpt lat="45.8969" lon="4.73994">
        <ele>179</ele>
        <time>2017-07-11T09:02:52Z</time>
      </trkpt>
      <trkpt lat="45.89684" lon="4.73996">
        <ele>179</ele>
        <time>2017-07-11T09:02:53Z</time>
      </trkpt>
      <trkpt lat="45.89678" lon="4.73999">
        <ele>179</ele>
        <time>2017-07-11T09:02:54Z</time>
      </trkpt>
      <trkpt lat="45.89672" lon="4.74001">
        <ele>179</ele>
        <time>2017-07-11T09:02:55Z</time>
      </trkpt>
      <trkpt lat="45.89666" lon="4.74004">
        <ele>179</ele>
        <time>2017-07-11T09:02:56Z</time>
      </trkpt>
      <trkpt lat="45.8966" lon="4.74006">
        <ele>179</ele>
        <time>2017-07-11T09:02:57Z</time>
      </trkpt>
      <trkpt lat="45.89655" lon="4.74008">
        <ele>179</ele>
        <time>2017-07-11T09:02:58Z</time>
      </trkpt>
      <trkpt lat="45.89649" lon="4.7401">
        <ele>180</ele>
        <time>2017-07-11T09:02:59Z</time>
      </trkpt>
      <trkpt lat="45.89644" lon="4.74013">
        <ele>180</ele>
        <time>2017-07-11T09:03:00Z</time>
      </trkpt>
      <trkpt lat="45.89639" lon="4.74015">
        <ele>180</ele>
        <time>2017-07-11T09:03:01Z</time>
      </trkpt>
      <trkpt lat="45.89634" lon="4.74017">
        <ele>180</ele>
        <time>2017-07-11T09:03:02Z</time>
      </trkpt>
      <trkpt lat="45.89629" lon="4.74019">
        <ele>180</ele>
        <time>2017-07-11T09:03:03Z</time>
      </trkpt>
      <trkpt lat="45.89625" lon="4.74022">
        <ele>180</ele>
        <time>2017-07-11T09:03:04Z</time>
      </trkpt>
      <trkpt lat="45.89619" lon="4.74025">
        <ele>180</ele>
        <time>2017-07-11T09:03:05Z</time>
      </trkpt>
      <trkpt lat="45.89614" lon="4.74027">
        <ele>180</ele>
        <time>2017-07-11T09:03:06Z</time>
      </trkpt>
      <trkpt lat="45.89609" lon="4.74029">
        <ele>180</ele>
        <time>2017-07-11T09:03:07Z</time>
      </trkpt>
      <trkpt lat="45.89603" lon="4.74032">
        <ele>180</ele>
        <time>2017-07-11T09:03:08Z</time>
      </trkpt>
      <trkpt lat="45.89598" lon="4.74034">
        <ele>180</ele>
        <time>2017-07-11T09:03:09Z</time>
      </trkpt>
      <trkpt lat="45.89593" lon="4.74037">
        <ele>180</ele>
        <time>2017-07-11T09:03:10Z</time>
      </trkpt>
      <trkpt lat="45.89588" lon="4.74039">
        <ele>180</ele>
        <time>2017-07-11T09:03:11Z</time>
      </trkpt>
      <trkpt lat="45.89583" lon="4.74041">
        <ele>181</ele>
        <time>2017-07-11T09:03:12Z</time>
      </trkpt>
      <trkpt lat="45.89578" lon="4.74043">
        <ele>181</ele>
        <time>2017-07-11T09:03:13Z</time>
      </trkpt>
      <trkpt lat="45.89573" lon="4.74044">
        <ele>181</ele>
        <time>2017-07-11T09:03:14Z</time>
      </trkpt>
      <trkpt lat="45.89567" lon="4.74047">
        <ele>181</ele>
        <time>2017-07-11T09:03:15Z</time>
      </trkpt>
      <trkpt lat="45.89562" lon="4.74049">
        <ele>181</ele>
        <time>2017-07-11T09:03:16Z</time>
      </trkpt>
      <trkpt lat="45.89557" lon="4.74051">
        <ele>181</ele>
        <time>2017-07-11T09:03:17Z</time>
      </trkpt>
      <trkpt lat="45.89551" lon="4.74053">
        <ele>181</ele>
        <time>2017-07-11T09:03:18Z</time>
      </trkpt>
      <trkpt lat="45.89546" lon="4.74055">
        <ele>181</ele>
        <time>2017-07-11T09:03:19Z</time>
      </trkpt>
      <trkpt lat="45.8954" lon="4.74058">
        <ele>181</ele>
        <time>2017-07-11T09:03:20Z</time>
      </trkpt>
      <trkpt lat="45.89535" lon="4.74059">
        <ele>181</ele>
        <time>2017-07-11T09:03:21Z</time>
      </trkpt>
      <trkpt lat="45.8953" lon="4.74061">
        <ele>181</ele>
        <time>2017-07-11T09:03:22Z</time>
      </trkpt>
      <trkpt lat="45.89525" lon="4.74063">
        <ele>181</ele>
        <time>2017-07-11T09:03:23Z</time>
      </trkpt>
      <trkpt lat="45.8952" lon="4.74065">
        <ele>181</ele>
        <time>2017-07-11T09:03:24Z</time>
      </trkpt>
      <trkpt lat="45.89516" lon="4.74067">
        <ele>181</ele>
        <time>2017-07-11T09:03:25Z</time>
      </trkpt>
      <trkpt lat="45.89511" lon="4.74069">
        <ele>181</ele>
        <time>2017-07-11T09:03:26Z</time>
      </trkpt>
      <trkpt lat="45.89506" lon="4.74071">
        <ele>181</ele>
        <time>2017-07-11T09:03:27Z</time>
      </trkpt>
      <trkpt lat="45.89501" lon="4.74074">
        <ele>181</ele>
        <time>2017-07-11T09:03:28Z</time>
      </trkpt>
      <trkpt lat="45.89496" lon="4.74076">
        <ele>181</ele>
        <time>2017-07-11T09:03:29Z</time>
      </trkpt>
      <trkpt lat="45.8949" lon="4.74078">
        <ele>181</ele>
        <time>2017-07-11T09:03:30Z</time>
      </trkpt>
      <trkpt lat="45.89485" lon="4.7408">
        <ele>181</ele>
        <time>2017-07-11T09:03:31Z</time>
      </trkpt>
      <trkpt lat="45.8948" lon="4.74083">
        <ele>181</ele>
        <time>2017-07-11T09:03:32Z</time>
      </trkpt>
      <trkpt lat="45.89474" lon="4.74085">
        <ele>182</ele>
        <time>2017-07-11T09:03:33Z</time>
      </trkpt>
      <trkpt lat="45.89469" lon="4.74087">
        <ele>182</ele>
        <time>2017-07-11T09:03:34Z</time>
      </trkpt>
      <trkpt lat="45.89464" lon="4.74089">
        <ele>182</ele>
        <time>2017-07-11T09:03:35Z</time>
      </trkpt>
      <trkpt lat="45.89459" lon="4.74091">
        <ele>182</ele>
        <time>2017-07-11T09:03:36Z</time>
      </trkpt>
      <trkpt lat="45.89454" lon="4.74093">
        <ele>182</ele>
        <time>2017-07-11T09:03:37Z</time>
      </trkpt>
      <trkpt lat="45.8945" lon="4.74096">
        <ele>182</ele>
        <time>2017-07-11T09:03:38Z</time>
      </trkpt>
      <trkpt lat="45.89445" lon="4.74098">
        <ele>182</ele>
        <time>2017-07-11T09:03:39Z</time>
      </trkpt>
      <trkpt lat="45.89439" lon="4.74101">
        <ele>182</ele>
        <time>2017-07-11T09:03:40Z</time>
      </trkpt>
      <trkpt lat="45.89434" lon="4.74103">
        <ele>182</ele>
        <time>2017-07-11T09:03:41Z</time>
      </trkpt>
      <trkpt lat="45.89428" lon="4.74105">
        <ele>182</ele>
        <time>2017-07-11T09:03:42Z</time>
      </trkpt>
      <trkpt lat="45.89422" lon="4.74107">
        <ele>183</ele>
        <time>2017-07-11T09:03:43Z</time>
      </trkpt>
      <trkpt lat="45.89417" lon="4.74109">
        <ele>183</ele>
        <time>2017-07-11T09:03:44Z</time>
      </trkpt>
      <trkpt lat="45.89411" lon="4.74112">
        <ele>183</ele>
        <time>2017-07-11T09:03:45Z</time>
      </trkpt>
      <trkpt lat="45.89406" lon="4.74114">
        <ele>183</ele>
        <time>2017-07-11T09:03:46Z</time>
      </trkpt>
      <trkpt lat="45.894" lon="4.74117">
        <ele>184</ele>
        <time>2017-07-11T09:03:47Z</time>
      </trkpt>
      <trkpt lat="45.89395" lon="4.7412">
        <ele>184</ele>
        <time>2017-07-11T09:03:48Z</time>
      </trkpt>
      <trkpt lat="45.8939" lon="4.74122">
        <ele>184</ele>
        <time>2017-07-11T09:03:49Z</time>
      </trkpt>
      <trkpt lat="45.89384" lon="4.74124">
        <ele>184</ele>
        <time>2017-07-11T09:03:50Z</time>
      </trkpt>
      <trkpt lat="45.8938" lon="4.74126">
        <ele>184</ele>
        <time>2017-07-11T09:03:51Z</time>
      </trkpt>
      <trkpt lat="45.89375" lon="4.74128">
        <ele>184</ele>
        <time>2017-07-11T09:03:52Z</time>
      </trkpt>
      <trkpt lat="45.8937" lon="4.7413">
        <ele>184</ele>
        <time>2017-07-11T09:03:53Z</time>
      </trkpt>
      <trkpt lat="45.89365" lon="4.74133">
        <ele>184</ele>
        <time>2017-07-11T09:03:54Z</time>
      </trkpt>
      <trkpt lat="45.89359" lon="4.74135">
        <ele>184</ele>
        <time>2017-07-11T09:03:55Z</time>
      </trkpt>
      <trkpt lat="45.89354" lon="4.74137">
        <ele>184</ele>
        <time>2017-07-11T09:03:56Z</time>
      </trkpt>
      <trkpt lat="45.89349" lon="4.74139">
        <ele>185</ele>
        <time>2017-07-11T09:03:57Z</time>
      </trkpt>
      <trkpt lat="45.89344" lon="4.74141">
        <ele>185</ele>
        <time>2017-07-11T09:03:58Z</time>
      </trkpt>
      <trkpt lat="45.89338" lon="4.74143">
        <ele>185</ele>
        <time>2017-07-11T09:03:59Z</time>
      </trkpt>
      <trkpt lat="45.89333" lon="4.74145">
        <ele>185</ele>
        <time>2017-07-11T09:04:00Z</time>
      </trkpt>
      <trkpt lat="45.89327" lon="4.74148">
        <ele>185</ele>
        <time>2017-07-11T09:04:01Z</time>
      </trkpt>
      <trkpt lat="45.89322" lon="4.7415">
        <ele>185</ele>
        <time>2017-07-11T09:04:02Z</time>
      </trkpt>
      <trkpt lat="45.89317" lon="4.74152">
        <ele>185</ele>
        <time>2017-07-11T09:04:03Z</time>
      </trkpt>
      <trkpt lat="45.89311" lon="4.74154">
        <ele>185</ele>
        <time>2017-07-11T09:04:04Z</time>
      </trkpt>
      <trkpt lat="45.89306" lon="4.74156">
        <ele>185</ele>
        <time>2017-07-11T09:04:05Z</time>
      </trkpt>
      <trkpt lat="45.89301" lon="4.74158">
        <ele>185</ele>
        <time>2017-07-11T09:04:06Z</time>
      </trkpt>
      <trkpt lat="45.89296" lon="4.7416">
        <ele>185</ele>
        <time>2017-07-11T09:04:07Z</time>
      </trkpt>
      <trkpt lat="45.89292" lon="4.74162">
        <ele>185</ele>
        <time>2017-07-11T09:04:08Z</time>
      </trkpt>
      <trkpt lat="45.89287" lon="4.74164">
        <ele>185</ele>
        <time>2017-07-11T09:04:09Z</time>
      </trkpt>
      <trkpt lat="45.89282" lon="4.74166">
        <ele>185</ele>
        <time>2017-07-11T09:04:10Z</time>
      </trkpt>
      <trkpt lat="45.89277" lon="4.74168">
        <ele>186</ele>
        <time>2017-07-11T09:04:11Z</time>
      </trkpt>
      <trkpt lat="45.89271" lon="4.7417">
        <ele>186</ele>
        <time>2017-07-11T09:04:12Z</time>
      </trkpt>
      <trkpt lat="45.89266" lon="4.74172">
        <ele>186</ele>
        <time>2017-07-11T09:04:13Z</time>
      </trkpt>
      <trkpt lat="45.8926" lon="4.74174">
        <ele>185</ele>
        <time>2017-07-11T09:04:14Z</time>
      </trkpt>
      <trkpt lat="45.89254" lon="4.74176">
        <ele>185</ele>
        <time>2017-07-11T09:04:15Z</time>
      </trkpt>
      <trkpt lat="45.89249" lon="4.74177">
        <ele>185</ele>
        <time>2017-07-11T09:04:16Z</time>
      </trkpt>
      <trkpt lat="45.89244" lon="4.74178">
        <ele>185</ele>
        <time>2017-07-11T09:04:17Z</time>
      </trkpt>
      <trkpt lat="45.89238" lon="4.7418">
        <ele>186</ele>
        <time>2017-07-11T09:04:18Z</time>
      </trkpt>
      <trkpt lat="45.89234" lon="4.74182">
        <ele>186</ele>
        <time>2017-07-11T09:04:19Z</time>
      </trkpt>
      <trkpt lat="45.89229" lon="4.74183">
        <ele>186</ele>
        <time>2017-07-11T09:04:20Z</time>
      </trkpt>
      <trkpt lat="45.89225" lon="4.74185">
        <ele>186</ele>
        <time>2017-07-11T09:04:21Z</time>
      </trkpt>
      <trkpt lat="45.8922" lon="4.74186">
        <ele>186</ele>
        <time>2017-07-11T09:04:22Z</time>
      </trkpt>
      <trkpt lat="45.89215" lon="4.74188">
        <ele>186</ele>
        <time>2017-07-11T09:04:23Z</time>
      </trkpt>
      <trkpt lat="45.8921" lon="4.74189">
        <ele>186</ele>
        <time>2017-07-11T09:04:24Z</time>
      </trkpt>
      <trkpt lat="45.89206" lon="4.74192">
        <ele>186</ele>
        <time>2017-07-11T09:04:25Z</time>
      </trkpt>
      <trkpt lat="45.892" lon="4.74194">
        <ele>186</ele>
        <time>2017-07-11T09:04:26Z</time>
      </trkpt>
      <trkpt lat="45.89196" lon="4.74195">
        <ele>186</ele>
        <time>2017-07-11T09:04:27Z</time>
      </trkpt>
      <trkpt lat="45.89191" lon="4.74198">
        <ele>186</ele>
        <time>2017-07-11T09:04:28Z</time>
      </trkpt>
      <trkpt lat="45.89186" lon="4.742">
        <ele>186</ele>
        <time>2017-07-11T09:04:29Z</time>
      </trkpt>
      <trkpt lat="45.89182" lon="4.74202">
        <ele>186</ele>
        <time>2017-07-11T09:04:30Z</time>
      </trkpt>
      <trkpt lat="45.89177" lon="4.74205">
        <ele>186</ele>
        <time>2017-07-11T09:04:31Z</time>
      </trkpt>
      <trkpt lat="45.89172" lon="4.74207">
        <ele>186</ele>
        <time>2017-07-11T09:04:32Z</time>
      </trkpt>
      <trkpt lat="45.89165" lon="4.74214">
        <ele>186</ele>
        <time>2017-07-11T09:04:33Z</time>
      </trkpt>
      <trkpt lat="45.89159" lon="4.74218">
        <ele>186</ele>
        <time>2017-07-11T09:04:34Z</time>
      </trkpt>
      <trkpt lat="45.89153" lon="4.74221">
        <ele>186</ele>
        <time>2017-07-11T09:04:35Z</time>
      </trkpt>
      <trkpt lat="45.89148" lon="4.74224">
        <ele>186</ele>
        <time>2017-07-11T09:04:36Z</time>
      </trkpt>
      <trkpt lat="45.89143" lon="4.74227">
        <ele>186</ele>
        <time>2017-07-11T09:04:37Z</time>
      </trkpt>
      <trkpt lat="45.89137" lon="4.74229">
        <ele>186</ele>
        <time>2017-07-11T09:04:38Z</time>
      </trkpt>
      <trkpt lat="45.89132" lon="4.74231">
        <ele>186</ele>
        <time>2017-07-11T09:04:39Z</time>
      </trkpt>
      <trkpt lat="45.89127" lon="4.74233">
        <ele>186</ele>
        <time>2017-07-11T09:04:40Z</time>
      </trkpt>
      <trkpt lat="45.89122" lon="4.74235">
        <ele>186</ele>
        <time>2017-07-11T09:04:41Z</time>
      </trkpt>
      <trkpt lat="45.89117" lon="4.74237">
        <ele>186</ele>
        <time>2017-07-11T09:04:42Z</time>
      </trkpt>
      <trkpt lat="45.89113" lon="4.74237">
        <ele>186</ele>
        <time>2017-07-11T09:04:43Z</time>
      </trkpt>
      <trkpt lat="45.89108" lon="4.74239">
        <ele>186</ele>
        <time>2017-07-11T09:04:44Z</time>
      </trkpt>
      <trkpt lat="45.89102" lon="4.74241">
        <ele>186</ele>
        <time>2017-07-11T09:04:45Z</time>
      </trkpt>
      <trkpt lat="45.89097" lon="4.74243">
        <ele>186</ele>
        <time>2017-07-11T09:04:46Z</time>
      </trkpt>
      <trkpt lat="45.89091" lon="4.74245">
        <ele>186</ele>
        <time>2017-07-11T09:04:47Z</time>
      </trkpt>
      <trkpt lat="45.89087" lon="4.74246">
        <ele>186</ele>
        <time>2017-07-11T09:04:48Z</time>
      </trkpt>
      <trkpt lat="45.89082" lon="4.74248">
        <ele>186</ele>
        <time>2017-07-11T09:04:49Z</time>
      </trkpt>
      <trkpt lat="45.89077" lon="4.7425">
        <ele>186</ele>
        <time>2017-07-11T09:04:50Z</time>
      </trkpt>
      <trkpt lat="45.89072" lon="4.74251">
        <ele>186</ele>
        <time>2017-07-11T09:04:51Z</time>
      </trkpt>
      <trkpt lat="45.89067" lon="4.74252">
        <ele>186</ele>
        <time>2017-07-11T09:04:52Z</time>
      </trkpt>
      <trkpt lat="45.89062" lon="4.74254">
        <ele>186</ele>
        <time>2017-07-11T09:04:53Z</time>
      </trkpt>
      <trkpt lat="45.89057" lon="4.74256">
        <ele>187</ele>
        <time>2017-07-11T09:04:54Z</time>
      </trkpt>
      <trkpt lat="45.89052" lon="4.74258">
        <ele>187</ele>
        <time>2017-07-11T09:04:55Z</time>
      </trkpt>
      <trkpt lat="45.89047" lon="4.7426">
        <ele>187</ele>
        <time>2017-07-11T09:04:56Z</time>
      </trkpt>
      <trkpt lat="45.89042" lon="4.74262">
        <ele>187</ele>
        <time>2017-07-11T09:04:57Z</time>
      </trkpt>
      <trkpt lat="45.89037" lon="4.74264">
        <ele>187</ele>
        <time>2017-07-11T09:04:58Z</time>
      </trkpt>
      <trkpt lat="45.89032" lon="4.74266">
        <ele>187</ele>
        <time>2017-07-11T09:04:59Z</time>
      </trkpt>
      <trkpt lat="45.89027" lon="4.74268">
        <ele>187</ele>
        <time>2017-07-11T09:05:00Z</time>
      </trkpt>
      <trkpt lat="45.89022" lon="4.74269">
        <ele>187</ele>
        <time>2017-07-11T09:05:01Z</time>
      </trkpt>
      <trkpt lat="45.89017" lon="4.74271">
        <ele>187</ele>
        <time>2017-07-11T09:05:02Z</time>
      </trkpt>
      <trkpt lat="45.89012" lon="4.74271">
        <ele>187</ele>
        <time>2017-07-11T09:05:03Z</time>
      </trkpt>
      <trkpt lat="45.89007" lon="4.74272">
        <ele>187</ele>
        <time>2017-07-11T09:05:04Z</time>
      </trkpt>
      <trkpt lat="45.89002" lon="4.74272">
        <ele>187</ele>
        <time>2017-07-11T09:05:05Z</time>
      </trkpt>
      <trkpt lat="45.88997" lon="4.74274">
        <ele>187</ele>
        <time>2017-07-11T09:05:06Z</time>
      </trkpt>
      <trkpt lat="45.88991" lon="4.74276">
        <ele>187</ele>
        <time>2017-07-11T09:05:07Z</time>
      </trkpt>
      <trkpt lat="45.88986" lon="4.74277">
        <ele>187</ele>
        <time>2017-07-11T09:05:08Z</time>
      </trkpt>
      <trkpt lat="45.88981" lon="4.74277">
        <ele>187</ele>
        <time>2017-07-11T09:05:09Z</time>
      </trkpt>
      <trkpt lat="45.88975" lon="4.74277">
        <ele>187</ele>
        <time>2017-07-11T09:05:10Z</time>
      </trkpt>
      <trkpt lat="45.88971" lon="4.74276">
        <ele>187</ele>
        <time>2017-07-11T09:05:11Z</time>
      </trkpt>
      <trkpt lat="45.88963" lon="4.74273">
        <ele>187</ele>
        <time>2017-07-11T09:05:13Z</time>
      </trkpt>
      <trkpt lat="45.88959" lon="4.74272">
        <ele>187</ele>
        <time>2017-07-11T09:05:14Z</time>
      </trkpt>
      <trkpt lat="45.88954" lon="4.74271">
        <ele>187</ele>
        <time>2017-07-11T09:05:15Z</time>
      </trkpt>
      <trkpt lat="45.88949" lon="4.7427">
        <ele>187</ele>
        <time>2017-07-11T09:05:16Z</time>
      </trkpt>
      <trkpt lat="45.88944" lon="4.74269">
        <ele>187</ele>
        <time>2017-07-11T09:05:17Z</time>
      </trkpt>
      <trkpt lat="45.88939" lon="4.74268">
        <ele>187</ele>
        <time>2017-07-11T09:05:18Z</time>
      </trkpt>
      <trkpt lat="45.88931" lon="4.74265">
        <ele>187</ele>
        <time>2017-07-11T09:05:20Z</time>
      </trkpt>
      <trkpt lat="45.88926" lon="4.74264">
        <ele>187</ele>
        <time>2017-07-11T09:05:21Z</time>
      </trkpt>
      <trkpt lat="45.88922" lon="4.74262">
        <ele>187</ele>
        <time>2017-07-11T09:05:22Z</time>
      </trkpt>
      <trkpt lat="45.88918" lon="4.7426">
        <ele>187</ele>
        <time>2017-07-11T09:05:23Z</time>
      </trkpt>
      <trkpt lat="45.88913" lon="4.74257">
        <ele>187</ele>
        <time>2017-07-11T09:05:24Z</time>
      </trkpt>
      <trkpt lat="45.88909" lon="4.74254">
        <ele>187</ele>
        <time>2017-07-11T09:05:25Z</time>
      </trkpt>
      <trkpt lat="45.88904" lon="4.7425">
        <ele>187</ele>
        <time>2017-07-11T09:05:26Z</time>
      </trkpt>
      <trkpt lat="45.889" lon="4.74247">
        <ele>187</ele>
        <time>2017-07-11T09:05:27Z</time>
      </trkpt>
      <trkpt lat="45.88895" lon="4.74244">
        <ele>187</ele>
        <time>2017-07-11T09:05:28Z</time>
      </trkpt>
      <trkpt lat="45.88891" lon="4.7424">
        <ele>187</ele>
        <time>2017-07-11T09:05:29Z</time>
      </trkpt>
      <trkpt lat="45.88887" lon="4.74236">
        <ele>187</ele>
        <time>2017-07-11T09:05:30Z</time>
      </trkpt>
      <trkpt lat="45.88882" lon="4.74233">
        <ele>187</ele>
        <time>2017-07-11T09:05:31Z</time>
      </trkpt>
      <trkpt lat="45.88878" lon="4.74229">
        <ele>187</ele>
        <time>2017-07-11T09:05:32Z</time>
      </trkpt>
      <trkpt lat="45.88874" lon="4.74226">
        <ele>187</ele>
        <time>2017-07-11T09:05:33Z</time>
      </trkpt>
      <trkpt lat="45.88869" lon="4.74223">
        <ele>187</ele>
        <time>2017-07-11T09:05:34Z</time>
      </trkpt>
      <trkpt lat="45.88864" lon="4.74219">
        <ele>187</ele>
        <time>2017-07-11T09:05:35Z</time>
      </trkpt>
      <trkpt lat="45.8886" lon="4.74216">
        <ele>187</ele>
        <time>2017-07-11T09:05:36Z</time>
      </trkpt>
      <trkpt lat="45.88855" lon="4.74213">
        <ele>187</ele>
        <time>2017-07-11T09:05:37Z</time>
      </trkpt>
      <trkpt lat="45.88851" lon="4.7421">
        <ele>187</ele>
        <time>2017-07-11T09:05:38Z</time>
      </trkpt>
      <trkpt lat="45.88847" lon="4.74207">
        <ele>187</ele>
        <time>2017-07-11T09:05:39Z</time>
      </trkpt>
      <trkpt lat="45.88839" lon="4.74202">
        <ele>187</ele>
        <time>2017-07-11T09:05:41Z</time>
      </trkpt>
      <trkpt lat="45.88834" lon="4.742">
        <ele>187</ele>
        <time>2017-07-11T09:05:42Z</time>
      </trkpt>
      <trkpt lat="45.8883" lon="4.74196">
        <ele>187</ele>
        <time>2017-07-11T09:05:43Z</time>
      </trkpt>
      <trkpt lat="45.88825" lon="4.74193">
        <ele>187</ele>
        <time>2017-07-11T09:05:44Z</time>
      </trkpt>
      <trkpt lat="45.88819" lon="4.74191">
        <ele>187</ele>
        <time>2017-07-11T09:05:45Z</time>
      </trkpt>
      <trkpt lat="45.88814" lon="4.74189">
        <ele>187</ele>
        <time>2017-07-11T09:05:46Z</time>
      </trkpt>
      <trkpt lat="45.88808" lon="4.74186">
        <ele>187</ele>
        <time>2017-07-11T09:05:47Z</time>
      </trkpt>
      <trkpt lat="45.88803" lon="4.74183">
        <ele>187</ele>
        <time>2017-07-11T09:05:48Z</time>
      </trkpt>
      <trkpt lat="45.88797" lon="4.74181">
        <ele>187</ele>
        <time>2017-07-11T09:05:49Z</time>
      </trkpt>
      <trkpt lat="45.88792" lon="4.74178">
        <ele>188</ele>
        <time>2017-07-11T09:05:50Z</time>
      </trkpt>
      <trkpt lat="45.88787" lon="4.74176">
        <ele>188</ele>
        <time>2017-07-11T09:05:51Z</time>
      </trkpt>
      <trkpt lat="45.88783" lon="4.74174">
        <ele>188</ele>
        <time>2017-07-11T09:05:52Z</time>
      </trkpt>
      <trkpt lat="45.88779" lon="4.74171">
        <ele>188</ele>
        <time>2017-07-11T09:05:53Z</time>
      </trkpt>
      <trkpt lat="45.88774" lon="4.74169">
        <ele>188</ele>
        <time>2017-07-11T09:05:54Z</time>
      </trkpt>
      <trkpt lat="45.8877" lon="4.74166">
        <ele>187</ele>
        <time>2017-07-11T09:05:55Z</time>
      </trkpt>
      <trkpt lat="45.88766" lon="4.74163">
        <ele>187</ele>
        <time>2017-07-11T09:05:56Z</time>
      </trkpt>
      <trkpt lat="45.88762" lon="4.74159">
        <ele>187</ele>
        <time>2017-07-11T09:05:57Z</time>
      </trkpt>
      <trkpt lat="45.88757" lon="4.74156">
        <ele>187</ele>
        <time>2017-07-11T09:05:58Z</time>
      </trkpt>
      <trkpt lat="45.88753" lon="4.74152">
        <ele>187</ele>
        <time>2017-07-11T09:05:59Z</time>
      </trkpt>
      <trkpt lat="45.88748" lon="4.74149">
        <ele>188</ele>
        <time>2017-07-11T09:06:00Z</time>
      </trkpt>
      <trkpt lat="45.88743" lon="4.74145">
        <ele>188</ele>
        <time>2017-07-11T09:06:01Z</time>
      </trkpt>
      <trkpt lat="45.88738" lon="4.74142">
        <ele>188</ele>
        <time>2017-07-11T09:06:02Z</time>
      </trkpt>
      <trkpt lat="45.88734" lon="4.74139">
        <ele>188</ele>
        <time>2017-07-11T09:06:03Z</time>
      </trkpt>
      <trkpt lat="45.88729" lon="4.74136">
        <ele>188</ele>
        <time>2017-07-11T09:06:04Z</time>
      </trkpt>
      <trkpt lat="45.88725" lon="4.74132">
        <ele>188</ele>
        <time>2017-07-11T09:06:05Z</time>
      </trkpt>
      <trkpt lat="45.88721" lon="4.74128">
        <ele>188</ele>
        <time>2017-07-11T09:06:06Z</time>
      </trkpt>
      <trkpt lat="45.88717" lon="4.74124">
        <ele>188</ele>
        <time>2017-07-11T09:06:07Z</time>
      </trkpt>
      <trkpt lat="45.88713" lon="4.74121">
        <ele>188</ele>
        <time>2017-07-11T09:06:08Z</time>
      </trkpt>
      <trkpt lat="45.88709" lon="4.74117">
        <ele>188</ele>
        <time>2017-07-11T09:06:09Z</time>
      </trkpt>
      <trkpt lat="45.88705" lon="4.74113">
        <ele>188</ele>
        <time>2017-07-11T09:06:10Z</time>
      </trkpt>
      <trkpt lat="45.88701" lon="4.74109">
        <ele>188</ele>
        <time>2017-07-11T09:06:11Z</time>
      </trkpt>
      <trkpt lat="45.88697" lon="4.74108">
        <ele>188</ele>
        <time>2017-07-11T09:06:12Z</time>
      </trkpt>
      <trkpt lat="45.88692" lon="4.74108">
        <ele>188</ele>
        <time>2017-07-11T09:06:13Z</time>
      </trkpt>
      <trkpt lat="45.88688" lon="4.74108">
        <ele>188</ele>
        <time>2017-07-11T09:06:14Z</time>
      </trkpt>
      <trkpt lat="45.88683" lon="4.74105">
        <ele>188</ele>
        <time>2017-07-11T09:06:15Z</time>
      </trkpt>
      <trkpt lat="45.8868" lon="4.74101">
        <ele>188</ele>
        <time>2017-07-11T09:06:16Z</time>
      </trkpt>
      <trkpt lat="45.88677" lon="4.74095">
        <ele>188</ele>
        <time>2017-07-11T09:06:17Z</time>
      </trkpt>
      <trkpt lat="45.88675" lon="4.74089">
        <ele>188</ele>
        <time>2017-07-11T09:06:18Z</time>
      </trkpt>
      <trkpt lat="45.88672" lon="4.74082">
        <ele>188</ele>
        <time>2017-07-11T09:06:19Z</time>
      </trkpt>
      <trkpt lat="45.8867" lon="4.74075">
        <ele>188</ele>
        <time>2017-07-11T09:06:20Z</time>
      </trkpt>
      <trkpt lat="45.88668" lon="4.74068">
        <ele>187</ele>
        <time>2017-07-11T09:06:21Z</time>
      </trkpt>
      <trkpt lat="45.88665" lon="4.74062">
        <ele>187</ele>
        <time>2017-07-11T09:06:22Z</time>
      </trkpt>
      <trkpt lat="45.88663" lon="4.74054">
        <ele>187</ele>
        <time>2017-07-11T09:06:23Z</time>
      </trkpt>
      <trkpt lat="45.88661" lon="4.74046">
        <ele>187</ele>
        <time>2017-07-11T09:06:24Z</time>
      </trkpt>
      <trkpt lat="45.8866" lon="4.74038">
        <ele>187</ele>
        <time>2017-07-11T09:06:25Z</time>
      </trkpt>
      <trkpt lat="45.88658" lon="4.7403">
        <ele>187</ele>
        <time>2017-07-11T09:06:26Z</time>
      </trkpt>
      <trkpt lat="45.88657" lon="4.74022">
        <ele>187</ele>
        <time>2017-07-11T09:06:27Z</time>
      </trkpt>
      <trkpt lat="45.88655" lon="4.74014">
        <ele>187</ele>
        <time>2017-07-11T09:06:28Z</time>
      </trkpt>
      <trkpt lat="45.88655" lon="4.74006">
        <ele>187</ele>
        <time>2017-07-11T09:06:29Z</time>
      </trkpt>
      <trkpt lat="45.88653" lon="4.73998">
        <ele>186</ele>
        <time>2017-07-11T09:06:30Z</time>
      </trkpt>
      <trkpt lat="45.88653" lon="4.7399">
        <ele>186</ele>
        <time>2017-07-11T09:06:31Z</time>
      </trkpt>
      <trkpt lat="45.88652" lon="4.73982">
        <ele>187</ele>
        <time>2017-07-11T09:06:32Z</time>
      </trkpt>
      <trkpt lat="45.88651" lon="4.73974">
        <ele>187</ele>
        <time>2017-07-11T09:06:33Z</time>
      </trkpt>
      <trkpt lat="45.8865" lon="4.73967">
        <ele>187</ele>
        <time>2017-07-11T09:06:34Z</time>
      </trkpt>
      <trkpt lat="45.88649" lon="4.73959">
        <ele>187</ele>
        <time>2017-07-11T09:06:35Z</time>
      </trkpt>
      <trkpt lat="45.88648" lon="4.73951">
        <ele>187</ele>
        <time>2017-07-11T09:06:36Z</time>
      </trkpt>
      <trkpt lat="45.88647" lon="4.73943">
        <ele>187</ele>
        <time>2017-07-11T09:06:37Z</time>
      </trkpt>
      <trkpt lat="45.88647" lon="4.73935">
        <ele>187</ele>
        <time>2017-07-11T09:06:38Z</time>
      </trkpt>
      <trkpt lat="45.88646" lon="4.73927">
        <ele>187</ele>
        <time>2017-07-11T09:06:39Z</time>
      </trkpt>
      <trkpt lat="45.88646" lon="4.73919">
        <ele>187</ele>
        <time>2017-07-11T09:06:40Z</time>
      </trkpt>
      <trkpt lat="45.88646" lon="4.73911">
        <ele>187</ele>
        <time>2017-07-11T09:06:41Z</time>
      </trkpt>
      <trkpt lat="45.88645" lon="4.73903">
        <ele>187</ele>
        <time>2017-07-11T09:06:42Z</time>
      </trkpt>
      <trkpt lat="45.88645" lon="4.73895">
        <ele>187</ele>
        <time>2017-07-11T09:06:43Z</time>
      </trkpt>
      <trkpt lat="45.88645" lon="4.73886">
        <ele>187</ele>
        <time>2017-07-11T09:06:44Z</time>
      </trkpt>
      <trkpt lat="45.88645" lon="4.73878">
        <ele>187</ele>
        <time>2017-07-11T09:06:45Z</time>
      </trkpt>
      <trkpt lat="45.88644" lon="4.73869">
        <ele>187</ele>
        <time>2017-07-11T09:06:46Z</time>
      </trkpt>
      <trkpt lat="45.88644" lon="4.7386">
        <ele>187</ele>
        <time>2017-07-11T09:06:47Z</time>
      </trkpt>
      <trkpt lat="45.88644" lon="4.73853">
        <ele>187</ele>
        <time>2017-07-11T09:06:48Z</time>
      </trkpt>
      <trkpt lat="45.88644" lon="4.73845">
        <ele>187</ele>
        <time>2017-07-11T09:06:49Z</time>
      </trkpt>
      <trkpt lat="45.88644" lon="4.73838">
        <ele>187</ele>
        <time>2017-07-11T09:06:50Z</time>
      </trkpt>
      <trkpt lat="45.88644" lon="4.73831">
        <ele>187</ele>
        <time>2017-07-11T09:06:51Z</time>
      </trkpt>
      <trkpt lat="45.88645" lon="4.73825">
        <ele>187</ele>
        <time>2017-07-11T09:06:52Z</time>
      </trkpt>
      <trkpt lat="45.88644" lon="4.73818">
        <ele>187</ele>
        <time>2017-07-11T09:06:53Z</time>
      </trkpt>
      <trkpt lat="45.88645" lon="4.73811">
        <ele>187</ele>
        <time>2017-07-11T09:06:54Z</time>
      </trkpt>
      <trkpt lat="45.88645" lon="4.73804">
        <ele>187</ele>
        <time>2017-07-11T09:06:55Z</time>
      </trkpt>
      <trkpt lat="45.88645" lon="4.73797">
        <ele>187</ele>
        <time>2017-07-11T09:06:56Z</time>
      </trkpt>
      <trkpt lat="45.88646" lon="4.7379">
        <ele>187</ele>
        <time>2017-07-11T09:06:57Z</time>
      </trkpt>
      <trkpt lat="45.88646" lon="4.73783">
        <ele>187</ele>
        <time>2017-07-11T09:06:58Z</time>
      </trkpt>
      <trkpt lat="45.88646" lon="4.73776">
        <ele>187</ele>
        <time>2017-07-11T09:06:59Z</time>
      </trkpt>
      <trkpt lat="45.88647" lon="4.73769">
        <ele>187</ele>
        <time>2017-07-11T09:07:00Z</time>
      </trkpt>
      <trkpt lat="45.88647" lon="4.73763">
        <ele>187</ele>
        <time>2017-07-11T09:07:01Z</time>
      </trkpt>
      <trkpt lat="45.88648" lon="4.73756">
        <ele>187</ele>
        <time>2017-07-11T09:07:02Z</time>
      </trkpt>
      <trkpt lat="45.88648" lon="4.73749">
        <ele>187</ele>
        <time>2017-07-11T09:07:03Z</time>
      </trkpt>
      <trkpt lat="45.88648" lon="4.73742">
        <ele>187</ele>
        <time>2017-07-11T09:07:04Z</time>
      </trkpt>
      <trkpt lat="45.88648" lon="4.73735">
        <ele>187</ele>
        <time>2017-07-11T09:07:05Z</time>
      </trkpt>
      <trkpt lat="45.88648" lon="4.73728">
        <ele>186</ele>
        <time>2017-07-11T09:07:06Z</time>
      </trkpt>
      <trkpt lat="45.88648" lon="4.73721">
        <ele>186</ele>
        <time>2017-07-11T09:07:07Z</time>
      </trkpt>
      <trkpt lat="45.88648" lon="4.73714">
        <ele>186</ele>
        <time>2017-07-11T09:07:08Z</time>
      </trkpt>
      <trkpt lat="45.88647" lon="4.73702">
        <ele>186</ele>
        <time>2017-07-11T09:07:10Z</time>
      </trkpt>
      <trkpt lat="45.88647" lon="4.73698">
        <ele>186</ele>
        <time>2017-07-11T09:07:11Z</time>
      </trkpt>
      <trkpt lat="45.88648" lon="4.73687">
        <ele>186</ele>
        <time>2017-07-11T09:07:13Z</time>
      </trkpt>
      <trkpt lat="45.88647" lon="4.73681">
        <ele>186</ele>
        <time>2017-07-11T09:07:14Z</time>
      </trkpt>
      <trkpt lat="45.88647" lon="4.73669">
        <ele>186</ele>
        <time>2017-07-11T09:07:16Z</time>
      </trkpt>
      <trkpt lat="45.88647" lon="4.73663">
        <ele>186</ele>
        <time>2017-07-11T09:07:17Z</time>
      </trkpt>
      <trkpt lat="45.88648" lon="4.7365">
        <ele>186</ele>
        <time>2017-07-11T09:07:19Z</time>
      </trkpt>
      <trkpt lat="45.88648" lon="4.73643">
        <ele>186</ele>
        <time>2017-07-11T09:07:20Z</time>
      </trkpt>
      <trkpt lat="45.88649" lon="4.73637">
        <ele>186</ele>
        <time>2017-07-11T09:07:21Z</time>
      </trkpt>
      <trkpt lat="45.88649" lon="4.7363">
        <ele>186</ele>
        <time>2017-07-11T09:07:22Z</time>
      </trkpt>
      <trkpt lat="45.88649" lon="4.73618">
        <ele>186</ele>
        <time>2017-07-11T09:07:24Z</time>
      </trkpt>
      <trkpt lat="45.88649" lon="4.73612">
        <ele>186</ele>
        <time>2017-07-11T09:07:25Z</time>
      </trkpt>
      <trkpt lat="45.88649" lon="4.73599">
        <ele>185</ele>
        <time>2017-07-11T09:07:27Z</time>
      </trkpt>
      <trkpt lat="45.8865" lon="4.73592">
        <ele>185</ele>
        <time>2017-07-11T09:07:28Z</time>
      </trkpt>
      <trkpt lat="45.8865" lon="4.73584">
        <ele>185</ele>
        <time>2017-07-11T09:07:29Z</time>
      </trkpt>
      <trkpt lat="45.8865" lon="4.73576">
        <ele>185</ele>
        <time>2017-07-11T09:07:30Z</time>
      </trkpt>
      <trkpt lat="45.8865" lon="4.73567">
        <ele>185</ele>
        <time>2017-07-11T09:07:31Z</time>
      </trkpt>
      <trkpt lat="45.8865" lon="4.73558">
        <ele>185</ele>
        <time>2017-07-11T09:07:32Z</time>
      </trkpt>
      <trkpt lat="45.88651" lon="4.73548">
        <ele>185</ele>
        <time>2017-07-11T09:07:33Z</time>
      </trkpt>
      <trkpt lat="45.88651" lon="4.73538">
        <ele>185</ele>
        <time>2017-07-11T09:07:34Z</time>
      </trkpt>
      <trkpt lat="45.88651" lon="4.73528">
        <ele>185</ele>
        <time>2017-07-11T09:07:35Z</time>
      </trkpt>
      <trkpt lat="45.88653" lon="4.73518">
        <ele>185</ele>
        <time>2017-07-11T09:07:36Z</time>
      </trkpt>
      <trkpt lat="45.88654" lon="4.73509">
        <ele>184</ele>
        <time>2017-07-11T09:07:37Z</time>
      </trkpt>
      <trkpt lat="45.88656" lon="4.73499">
        <ele>184</ele>
        <time>2017-07-11T09:07:38Z</time>
      </trkpt>
      <trkpt lat="45.88658" lon="4.7349">
        <ele>184</ele>
        <time>2017-07-11T09:07:39Z</time>
      </trkpt>
      <trkpt lat="45.88659" lon="4.73479">
        <ele>184</ele>
        <time>2017-07-11T09:07:40Z</time>
      </trkpt>
      <trkpt lat="45.88659" lon="4.73468">
        <ele>184</ele>
        <time>2017-07-11T09:07:41Z</time>
      </trkpt>
      <trkpt lat="45.88659" lon="4.73458">
        <ele>184</ele>
        <time>2017-07-11T09:07:42Z</time>
      </trkpt>
      <trkpt lat="45.88658" lon="4.73448">
        <ele>184</ele>
        <time>2017-07-11T09:07:43Z</time>
      </trkpt>
      <trkpt lat="45.88656" lon="4.73438">
        <ele>184</ele>
        <time>2017-07-11T09:07:44Z</time>
      </trkpt>
      <trkpt lat="45.88654" lon="4.73427">
        <ele>184</ele>
        <time>2017-07-11T09:07:45Z</time>
      </trkpt>
      <trkpt lat="45.88652" lon="4.73417">
        <ele>184</ele>
        <time>2017-07-11T09:07:46Z</time>
      </trkpt>
      <trkpt lat="45.8865" lon="4.73407">
        <ele>184</ele>
        <time>2017-07-11T09:07:47Z</time>
      </trkpt>
      <trkpt lat="45.88647" lon="4.73398">
        <ele>184</ele>
        <time>2017-07-11T09:07:48Z</time>
      </trkpt>
      <trkpt lat="45.88643" lon="4.73392">
        <ele>184</ele>
        <time>2017-07-11T09:07:49Z</time>
      </trkpt>
      <trkpt lat="45.88638" lon="4.73387">
        <ele>184</ele>
        <time>2017-07-11T09:07:50Z</time>
      </trkpt>
      <trkpt lat="45.88633" lon="4.73384">
        <ele>184</ele>
        <time>2017-07-11T09:07:51Z</time>
      </trkpt>
      <trkpt lat="45.88627" lon="4.73383">
        <ele>183</ele>
        <time>2017-07-11T09:07:52Z</time>
      </trkpt>
      <trkpt lat="45.88622" lon="4.73383">
        <ele>183</ele>
        <time>2017-07-11T09:07:53Z</time>
      </trkpt>
      <trkpt lat="45.88616" lon="4.73384">
        <ele>183</ele>
        <time>2017-07-11T09:07:54Z</time>
      </trkpt>
      <trkpt lat="45.88611" lon="4.73385">
        <ele>183</ele>
        <time>2017-07-11T09:07:55Z</time>
      </trkpt>
      <trkpt lat="45.88605" lon="4.73387">
        <ele>183</ele>
        <time>2017-07-11T09:07:56Z</time>
      </trkpt>
      <trkpt lat="45.886" lon="4.73388">
        <ele>183</ele>
        <time>2017-07-11T09:07:57Z</time>
      </trkpt>
      <trkpt lat="45.88595" lon="4.7339">
        <ele>183</ele>
        <time>2017-07-11T09:07:58Z</time>
      </trkpt>
      <trkpt lat="45.8859" lon="4.73392">
        <ele>183</ele>
        <time>2017-07-11T09:07:59Z</time>
      </trkpt>
      <trkpt lat="45.88584" lon="4.73393">
        <ele>183</ele>
        <time>2017-07-11T09:08:00Z</time>
      </trkpt>
      <trkpt lat="45.88579" lon="4.73394">
        <ele>183</ele>
        <time>2017-07-11T09:08:01Z</time>
      </trkpt>
      <trkpt lat="45.88574" lon="4.73395">
        <ele>183</ele>
        <time>2017-07-11T09:08:02Z</time>
      </trkpt>
      <trkpt lat="45.88569" lon="4.73396">
        <ele>183</ele>
        <time>2017-07-11T09:08:03Z</time>
      </trkpt>
      <trkpt lat="45.88564" lon="4.73397">
        <ele>183</ele>
        <time>2017-07-11T09:08:04Z</time>
      </trkpt>
      <trkpt lat="45.88559" lon="4.73399">
        <ele>183</ele>
        <time>2017-07-11T09:08:05Z</time>
      </trkpt>
      <trkpt lat="45.88554" lon="4.734">
        <ele>183</ele>
        <time>2017-07-11T09:08:06Z</time>
      </trkpt>
      <trkpt lat="45.88548" lon="4.73402">
        <ele>183</ele>
        <time>2017-07-11T09:08:07Z</time>
      </trkpt>
      <trkpt lat="45.88542" lon="4.73404">
        <ele>183</ele>
        <time>2017-07-11T09:08:08Z</time>
      </trkpt>
      <trkpt lat="45.88537" lon="4.73406">
        <ele>183</ele>
        <time>2017-07-11T09:08:09Z</time>
      </trkpt>
      <trkpt lat="45.88532" lon="4.73407">
        <ele>183</ele>
        <time>2017-07-11T09:08:10Z</time>
      </trkpt>
      <trkpt lat="45.88527" lon="4.73409">
        <ele>183</ele>
        <time>2017-07-11T09:08:11Z</time>
      </trkpt>
      <trkpt lat="45.88522" lon="4.7341">
        <ele>183</ele>
        <time>2017-07-11T09:08:12Z</time>
      </trkpt>
      <trkpt lat="45.88517" lon="4.73411">
        <ele>184</ele>
        <time>2017-07-11T09:08:13Z</time>
      </trkpt>
      <trkpt lat="45.88512" lon="4.73412">
        <ele>184</ele>
        <time>2017-07-11T09:08:14Z</time>
      </trkpt>
      <trkpt lat="45.88508" lon="4.73413">
        <ele>184</ele>
        <time>2017-07-11T09:08:15Z</time>
      </trkpt>
      <trkpt lat="45.88503" lon="4.73414">
        <ele>184</ele>
        <time>2017-07-11T09:08:16Z</time>
      </trkpt>
      <trkpt lat="45.88498" lon="4.73415">
        <ele>184</ele>
        <time>2017-07-11T09:08:17Z</time>
      </trkpt>
      <trkpt lat="45.88493" lon="4.73416">
        <ele>184</ele>
        <time>2017-07-11T09:08:18Z</time>
      </trkpt>
      <trkpt lat="45.88487" lon="4.73417">
        <ele>184</ele>
        <time>2017-07-11T09:08:19Z</time>
      </trkpt>
      <trkpt lat="45.88482" lon="4.73419">
        <ele>184</ele>
        <time>2017-07-11T09:08:20Z</time>
      </trkpt>
      <trkpt lat="45.88476" lon="4.73421">
        <ele>184</ele>
        <time>2017-07-11T09:08:21Z</time>
      </trkpt>
      <trkpt lat="45.8847" lon="4.73423">
        <ele>184</ele>
        <time>2017-07-11T09:08:22Z</time>
      </trkpt>
      <trkpt lat="45.88465" lon="4.73425">
        <ele>184</ele>
        <time>2017-07-11T09:08:23Z</time>
      </trkpt>
      <trkpt lat="45.8846" lon="4.73426">
        <ele>184</ele>
        <time>2017-07-11T09:08:24Z</time>
      </trkpt>
      <trkpt lat="45.88456" lon="4.73428">
        <ele>184</ele>
        <time>2017-07-11T09:08:25Z</time>
      </trkpt>
      <trkpt lat="45.88452" lon="4.7343">
        <ele>184</ele>
        <time>2017-07-11T09:08:26Z</time>
      </trkpt>
      <trkpt lat="45.88443" lon="4.73433">
        <ele>184</ele>
        <time>2017-07-11T09:08:28Z</time>
      </trkpt>
      <trkpt lat="45.88438" lon="4.73434">
        <ele>184</ele>
        <time>2017-07-11T09:08:29Z</time>
      </trkpt>
      <trkpt lat="45.88433" lon="4.73435">
        <ele>184</ele>
        <time>2017-07-11T09:08:30Z</time>
      </trkpt>
      <trkpt lat="45.88428" lon="4.73437">
        <ele>184</ele>
        <time>2017-07-11T09:08:31Z</time>
      </trkpt>
      <trkpt lat="45.88424" lon="4.73439">
        <ele>184</ele>
        <time>2017-07-11T09:08:32Z</time>
      </trkpt>
      <trkpt lat="45.88418" lon="4.73441">
        <ele>184</ele>
        <time>2017-07-11T09:08:33Z</time>
      </trkpt>
      <trkpt lat="45.88413" lon="4.73442">
        <ele>184</ele>
        <time>2017-07-11T09:08:34Z</time>
      </trkpt>
      <trkpt lat="45.88408" lon="4.73443">
        <ele>184</ele>
        <time>2017-07-11T09:08:35Z</time>
      </trkpt>
      <trkpt lat="45.88403" lon="4.73444">
        <ele>184</ele>
        <time>2017-07-11T09:08:36Z</time>
      </trkpt>
      <trkpt lat="45.88399" lon="4.73445">
        <ele>184</ele>
        <time>2017-07-11T09:08:37Z</time>
      </trkpt>
      <trkpt lat="45.88394" lon="4.73447">
        <ele>184</ele>
        <time>2017-07-11T09:08:38Z</time>
      </trkpt>
      <trkpt lat="45.88388" lon="4.73448">
        <ele>184</ele>
        <time>2017-07-11T09:08:39Z</time>
      </trkpt>
      <trkpt lat="45.88383" lon="4.7345">
        <ele>184</ele>
        <time>2017-07-11T09:08:40Z</time>
      </trkpt>
      <trkpt lat="45.88379" lon="4.73452">
        <ele>184</ele>
        <time>2017-07-11T09:08:41Z</time>
      </trkpt>
      <trkpt lat="45.88373" lon="4.73453">
        <ele>184</ele>
        <time>2017-07-11T09:08:42Z</time>
      </trkpt>
      <trkpt lat="45.88368" lon="4.73455">
        <ele>184</ele>
        <time>2017-07-11T09:08:43Z</time>
      </trkpt>
      <trkpt lat="45.88363" lon="4.73456">
        <ele>184</ele>
        <time>2017-07-11T09:08:44Z</time>
      </trkpt>
      <trkpt lat="45.88358" lon="4.73457">
        <ele>184</ele>
        <time>2017-07-11T09:08:45Z</time>
      </trkpt>
      <trkpt lat="45.88353" lon="4.73459">
        <ele>184</ele>
        <time>2017-07-11T09:08:46Z</time>
      </trkpt>
      <trkpt lat="45.88348" lon="4.73461">
        <ele>184</ele>
        <time>2017-07-11T09:08:47Z</time>
      </trkpt>
      <trkpt lat="45.88342" lon="4.73463">
        <ele>184</ele>
        <time>2017-07-11T09:08:48Z</time>
      </trkpt>
      <trkpt lat="45.88337" lon="4.73463">
        <ele>184</ele>
        <time>2017-07-11T09:08:49Z</time>
      </trkpt>
      <trkpt lat="45.88333" lon="4.73464">
        <ele>184</ele>
        <time>2017-07-11T09:08:50Z</time>
      </trkpt>
      <trkpt lat="45.88328" lon="4.73465">
        <ele>184</ele>
        <time>2017-07-11T09:08:51Z</time>
      </trkpt>
      <trkpt lat="45.88324" lon="4.73467">
        <ele>184</ele>
        <time>2017-07-11T09:08:52Z</time>
      </trkpt>
      <trkpt lat="45.88319" lon="4.73469">
        <ele>184</ele>
        <time>2017-07-11T09:08:53Z</time>
      </trkpt>
      <trkpt lat="45.88314" lon="4.73471">
        <ele>184</ele>
        <time>2017-07-11T09:08:54Z</time>
      </trkpt>
      <trkpt lat="45.88309" lon="4.73473">
        <ele>184</ele>
        <time>2017-07-11T09:08:55Z</time>
      </trkpt>
      <trkpt lat="45.88304" lon="4.73476">
        <ele>184</ele>
        <time>2017-07-11T09:08:56Z</time>
      </trkpt>
      <trkpt lat="45.88299" lon="4.73478">
        <ele>184</ele>
        <time>2017-07-11T09:08:57Z</time>
      </trkpt>
      <trkpt lat="45.88294" lon="4.7348">
        <ele>184</ele>
        <time>2017-07-11T09:08:58Z</time>
      </trkpt>
      <trkpt lat="45.88289" lon="4.73483">
        <ele>184</ele>
        <time>2017-07-11T09:08:59Z</time>
      </trkpt>
      <trkpt lat="45.88284" lon="4.73486">
        <ele>184</ele>
        <time>2017-07-11T09:09:00Z</time>
      </trkpt>
      <trkpt lat="45.88279" lon="4.73489">
        <ele>184</ele>
        <time>2017-07-11T09:09:01Z</time>
      </trkpt>
      <trkpt lat="45.88275" lon="4.73491">
        <ele>184</ele>
        <time>2017-07-11T09:09:02Z</time>
      </trkpt>
      <trkpt lat="45.88271" lon="4.73494">
        <ele>184</ele>
        <time>2017-07-11T09:09:03Z</time>
      </trkpt>
      <trkpt lat="45.88267" lon="4.73497">
        <ele>184</ele>
        <time>2017-07-11T09:09:04Z</time>
      </trkpt>
      <trkpt lat="45.88262" lon="4.735">
        <ele>185</ele>
        <time>2017-07-11T09:09:05Z</time>
      </trkpt>
      <trkpt lat="45.88258" lon="4.73503">
        <ele>185</ele>
        <time>2017-07-11T09:09:06Z</time>
      </trkpt>
      <trkpt lat="45.88253" lon="4.73507">
        <ele>185</ele>
        <time>2017-07-11T09:09:07Z</time>
      </trkpt>
      <trkpt lat="45.88249" lon="4.7351">
        <ele>185</ele>
        <time>2017-07-11T09:09:08Z</time>
      </trkpt>
      <trkpt lat="45.88244" lon="4.73513">
        <ele>185</ele>
        <time>2017-07-11T09:09:09Z</time>
      </trkpt>
      <trkpt lat="45.88239" lon="4.73517">
        <ele>185</ele>
        <time>2017-07-11T09:09:10Z</time>
      </trkpt>
      <trkpt lat="45.88235" lon="4.7352">
        <ele>185</ele>
        <time>2017-07-11T09:09:11Z</time>
      </trkpt>
      <trkpt lat="45.88231" lon="4.73523">
        <ele>185</ele>
        <time>2017-07-11T09:09:12Z</time>
      </trkpt>
      <trkpt lat="45.88226" lon="4.73526">
        <ele>185</ele>
        <time>2017-07-11T09:09:13Z</time>
      </trkpt>
      <trkpt lat="45.88222" lon="4.73528">
        <ele>185</ele>
        <time>2017-07-11T09:09:14Z</time>
      </trkpt>
      <trkpt lat="45.88218" lon="4.73532">
        <ele>185</ele>
        <time>2017-07-11T09:09:15Z</time>
      </trkpt>
      <trkpt lat="45.88213" lon="4.73535">
        <ele>185</ele>
        <time>2017-07-11T09:09:16Z</time>
      </trkpt>
      <trkpt lat="45.88209" lon="4.73538">
        <ele>185</ele>
        <time>2017-07-11T09:09:17Z</time>
      </trkpt>
      <trkpt lat="45.88203" lon="4.73541">
        <ele>186</ele>
        <time>2017-07-11T09:09:18Z</time>
      </trkpt>
      <trkpt lat="45.88199" lon="4.73544">
        <ele>186</ele>
        <time>2017-07-11T09:09:19Z</time>
      </trkpt>
      <trkpt lat="45.88194" lon="4.73547">
        <ele>186</ele>
        <time>2017-07-11T09:09:20Z</time>
      </trkpt>
      <trkpt lat="45.8819" lon="4.7355">
        <ele>186</ele>
        <time>2017-07-11T09:09:21Z</time>
      </trkpt>
      <trkpt lat="45.88182" lon="4.73556">
        <ele>186</ele>
        <time>2017-07-11T09:09:23Z</time>
      </trkpt>
      <trkpt lat="45.88178" lon="4.73558">
        <ele>186</ele>
        <time>2017-07-11T09:09:24Z</time>
      </trkpt>
      <trkpt lat="45.88174" lon="4.73561">
        <ele>186</ele>
        <time>2017-07-11T09:09:25Z</time>
      </trkpt>
      <trkpt lat="45.8817" lon="4.73564">
        <ele>186</ele>
        <time>2017-07-11T09:09:26Z</time>
      </trkpt>
      <trkpt lat="45.88166" lon="4.73567">
        <ele>186</ele>
        <time>2017-07-11T09:09:27Z</time>
      </trkpt>
      <trkpt lat="45.88161" lon="4.73569">
        <ele>186</ele>
        <time>2017-07-11T09:09:28Z</time>
      </trkpt>
      <trkpt lat="45.88157" lon="4.73572">
        <ele>186</ele>
        <time>2017-07-11T09:09:29Z</time>
      </trkpt>
      <trkpt lat="45.88152" lon="4.73575">
        <ele>186</ele>
        <time>2017-07-11T09:09:30Z</time>
      </trkpt>
      <trkpt lat="45.88144" lon="4.7358">
        <ele>186</ele>
        <time>2017-07-11T09:09:32Z</time>
      </trkpt>
      <trkpt lat="45.8814" lon="4.73582">
        <ele>186</ele>
        <time>2017-07-11T09:09:33Z</time>
      </trkpt>
      <trkpt lat="45.88135" lon="4.73585">
        <ele>187</ele>
        <time>2017-07-11T09:09:34Z</time>
      </trkpt>
      <trkpt lat="45.88131" lon="4.73588">
        <ele>187</ele>
        <time>2017-07-11T09:09:35Z</time>
      </trkpt>
      <trkpt lat="45.88127" lon="4.73591">
        <ele>187</ele>
        <time>2017-07-11T09:09:36Z</time>
      </trkpt>
      <trkpt lat="45.88123" lon="4.73594">
        <ele>187</ele>
        <time>2017-07-11T09:09:37Z</time>
      </trkpt>
      <trkpt lat="45.88115" lon="4.73598">
        <ele>187</ele>
        <time>2017-07-11T09:09:39Z</time>
      </trkpt>
      <trkpt lat="45.88111" lon="4.73601">
        <ele>187</ele>
        <time>2017-07-11T09:09:40Z</time>
      </trkpt>
      <trkpt lat="45.88103" lon="4.73607">
        <ele>188</ele>
        <time>2017-07-11T09:09:42Z</time>
      </trkpt>
      <trkpt lat="45.88099" lon="4.7361">
        <ele>188</ele>
        <time>2017-07-11T09:09:43Z</time>
      </trkpt>
      <trkpt lat="45.88095" lon="4.73612">
        <ele>188</ele>
        <time>2017-07-11T09:09:44Z</time>
      </trkpt>
      <trkpt lat="45.88091" lon="4.73615">
        <ele>188</ele>
        <time>2017-07-11T09:09:45Z</time>
      </trkpt>
      <trkpt lat="45.88084" lon="4.73619">
        <ele>188</ele>
        <time>2017-07-11T09:09:47Z</time>
      </trkpt>
      <trkpt lat="45.8808" lon="4.73621">
        <ele>189</ele>
        <time>2017-07-11T09:09:48Z</time>
      </trkpt>
      <trkpt lat="45.88072" lon="4.73625">
        <ele>189</ele>
        <time>2017-07-11T09:09:50Z</time>
      </trkpt>
      <trkpt lat="45.88068" lon="4.73627">
        <ele>189</ele>
        <time>2017-07-11T09:09:51Z</time>
      </trkpt>
      <trkpt lat="45.8806" lon="4.73632">
        <ele>189</ele>
        <time>2017-07-11T09:09:53Z</time>
      </trkpt>
      <trkpt lat="45.88055" lon="4.73634">
        <ele>189</ele>
        <time>2017-07-11T09:09:54Z</time>
      </trkpt>
      <trkpt lat="45.88048" lon="4.7364">
        <ele>189</ele>
        <time>2017-07-11T09:09:56Z</time>
      </trkpt>
      <trkpt lat="45.88044" lon="4.73642">
        <ele>189</ele>
        <time>2017-07-11T09:09:57Z</time>
      </trkpt>
      <trkpt lat="45.88039" lon="4.73645">
        <ele>189</ele>
        <time>2017-07-11T09:09:58Z</time>
      </trkpt>
      <trkpt lat="45.88035" lon="4.73648">
        <ele>189</ele>
        <time>2017-07-11T09:09:59Z</time>
      </trkpt>
      <trkpt lat="45.8803" lon="4.7365">
        <ele>189</ele>
        <time>2017-07-11T09:10:00Z</time>
      </trkpt>
      <trkpt lat="45.88026" lon="4.73652">
        <ele>189</ele>
        <time>2017-07-11T09:10:01Z</time>
      </trkpt>
      <trkpt lat="45.88021" lon="4.73653">
        <ele>189</ele>
        <time>2017-07-11T09:10:02Z</time>
      </trkpt>
      <trkpt lat="45.88016" lon="4.73653">
        <ele>189</ele>
        <time>2017-07-11T09:10:03Z</time>
      </trkpt>
      <trkpt lat="45.88012" lon="4.73652">
        <ele>189</ele>
        <time>2017-07-11T09:10:04Z</time>
      </trkpt>
      <trkpt lat="45.88007" lon="4.7365">
        <ele>189</ele>
        <time>2017-07-11T09:10:05Z</time>
      </trkpt>
      <trkpt lat="45.88002" lon="4.73649">
        <ele>189</ele>
        <time>2017-07-11T09:10:06Z</time>
      </trkpt>
      <trkpt lat="45.87997" lon="4.73648">
        <ele>190</ele>
        <time>2017-07-11T09:10:07Z</time>
      </trkpt>
      <trkpt lat="45.87993" lon="4.73646">
        <ele>190</ele>
        <time>2017-07-11T09:10:08Z</time>
      </trkpt>
      <trkpt lat="45.87987" lon="4.73645">
        <ele>190</ele>
        <time>2017-07-11T09:10:09Z</time>
      </trkpt>
      <trkpt lat="45.87982" lon="4.73644">
        <ele>189</ele>
        <time>2017-07-11T09:10:10Z</time>
      </trkpt>
      <trkpt lat="45.87977" lon="4.73643">
        <ele>189</ele>
        <time>2017-07-11T09:10:11Z</time>
      </trkpt>
      <trkpt lat="45.87973" lon="4.73641">
        <ele>189</ele>
        <time>2017-07-11T09:10:12Z</time>
      </trkpt>
      <trkpt lat="45.87968" lon="4.7364">
        <ele>189</ele>
        <time>2017-07-11T09:10:13Z</time>
      </trkpt>
      <trkpt lat="45.87964" lon="4.73638">
        <ele>189</ele>
        <time>2017-07-11T09:10:14Z</time>
      </trkpt>
      <trkpt lat="45.87959" lon="4.73637">
        <ele>189</ele>
        <time>2017-07-11T09:10:15Z</time>
      </trkpt>
      <trkpt lat="45.87954" lon="4.73636">
        <ele>189</ele>
        <time>2017-07-11T09:10:16Z</time>
      </trkpt>
      <trkpt lat="45.87949" lon="4.73635">
        <ele>189</ele>
        <time>2017-07-11T09:10:17Z</time>
      </trkpt>
      <trkpt lat="45.87943" lon="4.73633">
        <ele>189</ele>
        <time>2017-07-11T09:10:18Z</time>
      </trkpt>
      <trkpt lat="45.87938" lon="4.73632">
        <ele>189</ele>
        <time>2017-07-11T09:10:19Z</time>
      </trkpt>
      <trkpt lat="45.87932" lon="4.73632">
        <ele>189</ele>
        <time>2017-07-11T09:10:20Z</time>
      </trkpt>
      <trkpt lat="45.87927" lon="4.7363">
        <ele>189</ele>
        <time>2017-07-11T09:10:21Z</time>
      </trkpt>
      <trkpt lat="45.87921" lon="4.73629">
        <ele>189</ele>
        <time>2017-07-11T09:10:22Z</time>
      </trkpt>
      <trkpt lat="45.87916" lon="4.73627">
        <ele>190</ele>
        <time>2017-07-11T09:10:23Z</time>
      </trkpt>
      <trkpt lat="45.87911" lon="4.73626">
        <ele>190</ele>
        <time>2017-07-11T09:10:24Z</time>
      </trkpt>
      <trkpt lat="45.87905" lon="4.73625">
        <ele>190</ele>
        <time>2017-07-11T09:10:25Z</time>
      </trkpt>
      <trkpt lat="45.87901" lon="4.73624">
        <ele>190</ele>
        <time>2017-07-11T09:10:26Z</time>
      </trkpt>
      <trkpt lat="45.87896" lon="4.73623">
        <ele>190</ele>
        <time>2017-07-11T09:10:27Z</time>
      </trkpt>
      <trkpt lat="45.87892" lon="4.73621">
        <ele>190</ele>
        <time>2017-07-11T09:10:28Z</time>
      </trkpt>
      <trkpt lat="45.87887" lon="4.7362">
        <ele>190</ele>
        <time>2017-07-11T09:10:29Z</time>
      </trkpt>
      <trkpt lat="45.87882" lon="4.73619">
        <ele>190</ele>
        <time>2017-07-11T09:10:30Z</time>
      </trkpt>
      <trkpt lat="45.87877" lon="4.73618">
        <ele>190</ele>
        <time>2017-07-11T09:10:31Z</time>
      </trkpt>
      <trkpt lat="45.87872" lon="4.73619">
        <ele>190</ele>
        <time>2017-07-11T09:10:32Z</time>
      </trkpt>
      <trkpt lat="45.87867" lon="4.7362">
        <ele>190</ele>
        <time>2017-07-11T09:10:33Z</time>
      </trkpt>
      <trkpt lat="45.87863" lon="4.73623">
        <ele>190</ele>
        <time>2017-07-11T09:10:34Z</time>
      </trkpt>
      <trkpt lat="45.87859" lon="4.73626">
        <ele>190</ele>
        <time>2017-07-11T09:10:35Z</time>
      </trkpt>
      <trkpt lat="45.87851" lon="4.73632">
        <ele>191</ele>
        <time>2017-07-11T09:10:37Z</time>
      </trkpt>
      <trkpt lat="45.87846" lon="4.73634">
        <ele>191</ele>
        <time>2017-07-11T09:10:38Z</time>
      </trkpt>
      <trkpt lat="45.87839" lon="4.73632">
        <ele>191</ele>
        <time>2017-07-11T09:10:40Z</time>
      </trkpt>
      <trkpt lat="45.87835" lon="4.73628">
        <ele>191</ele>
        <time>2017-07-11T09:10:41Z</time>
      </trkpt>
      <trkpt lat="45.87831" lon="4.73617">
        <ele>190</ele>
        <time>2017-07-11T09:10:43Z</time>
      </trkpt>
      <trkpt lat="45.87829" lon="4.73611">
        <ele>190</ele>
        <time>2017-07-11T09:10:44Z</time>
      </trkpt>
      <trkpt lat="45.87826" lon="4.73605">
        <ele>190</ele>
        <time>2017-07-11T09:10:45Z</time>
      </trkpt>
      <trkpt lat="45.87824" lon="4.73599">
        <ele>190</ele>
        <time>2017-07-11T09:10:46Z</time>
      </trkpt>
      <trkpt lat="45.87822" lon="4.73593">
        <ele>190</ele>
        <time>2017-07-11T09:10:47Z</time>
      </trkpt>
      <trkpt lat="45.87819" lon="4.73588">
        <ele>190</ele>
        <time>2017-07-11T09:10:48Z</time>
      </trkpt>
      <trkpt lat="45.87815" lon="4.73577">
        <ele>189</ele>
        <time>2017-07-11T09:10:50Z</time>
      </trkpt>
      <trkpt lat="45.87813" lon="4.73572">
        <ele>189</ele>
        <time>2017-07-11T09:10:51Z</time>
      </trkpt>
      <trkpt lat="45.8781" lon="4.73567">
        <ele>189</ele>
        <time>2017-07-11T09:10:52Z</time>
      </trkpt>
      <trkpt lat="45.87807" lon="4.73561">
        <ele>189</ele>
        <time>2017-07-11T09:10:53Z</time>
      </trkpt>
      <trkpt lat="45.87802" lon="4.73551">
        <ele>189</ele>
        <time>2017-07-11T09:10:55Z</time>
      </trkpt>
      <trkpt lat="45.878" lon="4.73545">
        <ele>189</ele>
        <time>2017-07-11T09:10:56Z</time>
      </trkpt>
      <trkpt lat="45.87797" lon="4.73539">
        <ele>189</ele>
        <time>2017-07-11T09:10:57Z</time>
      </trkpt>
      <trkpt lat="45.87794" lon="4.73534">
        <ele>189</ele>
        <time>2017-07-11T09:10:58Z</time>
      </trkpt>
      <trkpt lat="45.87791" lon="4.73528">
        <ele>189</ele>
        <time>2017-07-11T09:10:59Z</time>
      </trkpt>
      <trkpt lat="45.87788" lon="4.73522">
        <ele>189</ele>
        <time>2017-07-11T09:11:00Z</time>
      </trkpt>
      <trkpt lat="45.87785" lon="4.73515">
        <ele>189</ele>
        <time>2017-07-11T09:11:01Z</time>
      </trkpt>
      <trkpt lat="45.87783" lon="4.73509">
        <ele>189</ele>
        <time>2017-07-11T09:11:02Z</time>
      </trkpt>
      <trkpt lat="45.8778" lon="4.73503">
        <ele>189</ele>
        <time>2017-07-11T09:11:03Z</time>
      </trkpt>
      <trkpt lat="45.87777" lon="4.73497">
        <ele>188</ele>
        <time>2017-07-11T09:11:04Z</time>
      </trkpt>
      <trkpt lat="45.87775" lon="4.73491">
        <ele>188</ele>
        <time>2017-07-11T09:11:05Z</time>
      </trkpt>
      <trkpt lat="45.87772" lon="4.73485">
        <ele>188</ele>
        <time>2017-07-11T09:11:06Z</time>
      </trkpt>
      <trkpt lat="45.87769" lon="4.73479">
        <ele>188</ele>
        <time>2017-07-11T09:11:07Z</time>
      </trkpt>
      <trkpt lat="45.87766" lon="4.73473">
        <ele>188</ele>
        <time>2017-07-11T09:11:08Z</time>
      </trkpt>
      <trkpt lat="45.87763" lon="4.73467">
        <ele>188</ele>
        <time>2017-07-11T09:11:09Z</time>
      </trkpt>
      <trkpt lat="45.8776" lon="4.7346">
        <ele>188</ele>
        <time>2017-07-11T09:11:10Z</time>
      </trkpt>
      <trkpt lat="45.87757" lon="4.73453">
        <ele>188</ele>
        <time>2017-07-11T09:11:11Z</time>
      </trkpt>
      <trkpt lat="45.87753" lon="4.73447">
        <ele>188</ele>
        <time>2017-07-11T09:11:12Z</time>
      </trkpt>
      <trkpt lat="45.8775" lon="4.73441">
        <ele>188</ele>
        <time>2017-07-11T09:11:13Z</time>
      </trkpt>
      <trkpt lat="45.87747" lon="4.73434">
        <ele>188</ele>
        <time>2017-07-11T09:11:14Z</time>
      </trkpt>
      <trkpt lat="45.87745" lon="4.73428">
        <ele>188</ele>
        <time>2017-07-11T09:11:15Z</time>
      </trkpt>
      <trkpt lat="45.87742" lon="4.73421">
        <ele>188</ele>
        <time>2017-07-11T09:11:16Z</time>
      </trkpt>
      <trkpt lat="45.87738" lon="4.73415">
        <ele>188</ele>
        <time>2017-07-11T09:11:17Z</time>
      </trkpt>
      <trkpt lat="45.87735" lon="4.73409">
        <ele>188</ele>
        <time>2017-07-11T09:11:18Z</time>
      </trkpt>
      <trkpt lat="45.87732" lon="4.73403">
        <ele>188</ele>
        <time>2017-07-11T09:11:19Z</time>
      </trkpt>
      <trkpt lat="45.87729" lon="4.73396">
        <ele>188</ele>
        <time>2017-07-11T09:11:20Z</time>
      </trkpt>
      <trkpt lat="45.87726" lon="4.73389">
        <ele>188</ele>
        <time>2017-07-11T09:11:21Z</time>
      </trkpt>
      <trkpt lat="45.87722" lon="4.73382">
        <ele>187</ele>
        <time>2017-07-11T09:11:22Z</time>
      </trkpt>
      <trkpt lat="45.87719" lon="4.73374">
        <ele>187</ele>
        <time>2017-07-11T09:11:23Z</time>
      </trkpt>
      <trkpt lat="45.87715" lon="4.73368">
        <ele>187</ele>
        <time>2017-07-11T09:11:24Z</time>
      </trkpt>
      <trkpt lat="45.87712" lon="4.73361">
        <ele>187</ele>
        <time>2017-07-11T09:11:25Z</time>
      </trkpt>
      <trkpt lat="45.87709" lon="4.73354">
        <ele>187</ele>
        <time>2017-07-11T09:11:26Z</time>
      </trkpt>
      <trkpt lat="45.87705" lon="4.73348">
        <ele>187</ele>
        <time>2017-07-11T09:11:27Z</time>
      </trkpt>
      <trkpt lat="45.87702" lon="4.73342">
        <ele>187</ele>
        <time>2017-07-11T09:11:28Z</time>
      </trkpt>
      <trkpt lat="45.87699" lon="4.73335">
        <ele>187</ele>
        <time>2017-07-11T09:11:29Z</time>
      </trkpt>
      <trkpt lat="45.87696" lon="4.73328">
        <ele>188</ele>
        <time>2017-07-11T09:11:30Z</time>
      </trkpt>
      <trkpt lat="45.87693" lon="4.73321">
        <ele>188</ele>
        <time>2017-07-11T09:11:31Z</time>
      </trkpt>
      <trkpt lat="45.8769" lon="4.73314">
        <ele>188</ele>
        <time>2017-07-11T09:11:32Z</time>
      </trkpt>
      <trkpt lat="45.87686" lon="4.73307">
        <ele>188</ele>
        <time>2017-07-11T09:11:33Z</time>
      </trkpt>
      <trkpt lat="45.87683" lon="4.733">
        <ele>188</ele>
        <time>2017-07-11T09:11:34Z</time>
      </trkpt>
      <trkpt lat="45.87679" lon="4.73293">
        <ele>188</ele>
        <time>2017-07-11T09:11:35Z</time>
      </trkpt>
      <trkpt lat="45.87676" lon="4.73286">
        <ele>188</ele>
        <time>2017-07-11T09:11:36Z</time>
      </trkpt>
      <trkpt lat="45.87673" lon="4.7328">
        <ele>188</ele>
        <time>2017-07-11T09:11:37Z</time>
      </trkpt>
      <trkpt lat="45.8767" lon="4.73274">
        <ele>188</ele>
        <time>2017-07-11T09:11:38Z</time>
      </trkpt>
      <trkpt lat="45.87667" lon="4.73268">
        <ele>189</ele>
        <time>2017-07-11T09:11:39Z</time>
      </trkpt>
      <trkpt lat="45.87664" lon="4.73261">
        <ele>189</ele>
        <time>2017-07-11T09:11:40Z</time>
      </trkpt>
      <trkpt lat="45.8766" lon="4.73255">
        <ele>189</ele>
        <time>2017-07-11T09:11:41Z</time>
      </trkpt>
      <trkpt lat="45.87658" lon="4.73249">
        <ele>189</ele>
        <time>2017-07-11T09:11:42Z</time>
      </trkpt>
      <trkpt lat="45.87654" lon="4.73242">
        <ele>188</ele>
        <time>2017-07-11T09:11:43Z</time>
      </trkpt>
      <trkpt lat="45.87651" lon="4.73237">
        <ele>188</ele>
        <time>2017-07-11T09:11:44Z</time>
      </trkpt>
      <trkpt lat="45.87649" lon="4.73231">
        <ele>188</ele>
        <time>2017-07-11T09:11:45Z</time>
      </trkpt>
      <trkpt lat="45.87646" lon="4.73224">
        <ele>188</ele>
        <time>2017-07-11T09:11:46Z</time>
      </trkpt>
      <trkpt lat="45.87643" lon="4.73217">
        <ele>188</ele>
        <time>2017-07-11T09:11:47Z</time>
      </trkpt>
      <trkpt lat="45.87639" lon="4.73211">
        <ele>188</ele>
        <time>2017-07-11T09:11:48Z</time>
      </trkpt>
      <trkpt lat="45.87635" lon="4.73204">
        <ele>188</ele>
        <time>2017-07-11T09:11:49Z</time>
      </trkpt>
      <trkpt lat="45.87631" lon="4.73197">
        <ele>188</ele>
        <time>2017-07-11T09:11:50Z</time>
      </trkpt>
      <trkpt lat="45.87628" lon="4.7319">
        <ele>188</ele>
        <time>2017-07-11T09:11:51Z</time>
      </trkpt>
      <trkpt lat="45.87624" lon="4.73183">
        <ele>188</ele>
        <time>2017-07-11T09:11:52Z</time>
      </trkpt>
      <trkpt lat="45.87622" lon="4.73176">
        <ele>187</ele>
        <time>2017-07-11T09:11:53Z</time>
      </trkpt>
      <trkpt lat="45.87619" lon="4.73169">
        <ele>187</ele>
        <time>2017-07-11T09:11:54Z</time>
      </trkpt>
      <trkpt lat="45.87615" lon="4.73162">
        <ele>187</ele>
        <time>2017-07-11T09:11:55Z</time>
      </trkpt>
      <trkpt lat="45.87611" lon="4.73155">
        <ele>187</ele>
        <time>2017-07-11T09:11:56Z</time>
      </trkpt>
      <trkpt lat="45.87608" lon="4.73149">
        <ele>187</ele>
        <time>2017-07-11T09:11:57Z</time>
      </trkpt>
      <trkpt lat="45.87604" lon="4.73141">
        <ele>187</ele>
        <time>2017-07-11T09:11:58Z</time>
      </trkpt>
      <trkpt lat="45.87601" lon="4.73134">
        <ele>187</ele>
        <time>2017-07-11T09:11:59Z</time>
      </trkpt>
      <trkpt lat="45.87597" lon="4.73126">
        <ele>187</ele>
        <time>2017-07-11T09:12:00Z</time>
      </trkpt>
      <trkpt lat="45.87593" lon="4.73118">
        <ele>188</ele>
        <time>2017-07-11T09:12:01Z</time>
      </trkpt>
      <trkpt lat="45.87589" lon="4.7311">
        <ele>188</ele>
        <time>2017-07-11T09:12:02Z</time>
      </trkpt>
      <trkpt lat="45.87585" lon="4.73103">
        <ele>188</ele>
        <time>2017-07-11T09:12:03Z</time>
      </trkpt>
      <trkpt lat="45.87581" lon="4.73095">
        <ele>188</ele>
        <time>2017-07-11T09:12:04Z</time>
      </trkpt>
      <trkpt lat="45.87577" lon="4.73088">
        <ele>188</ele>
        <time>2017-07-11T09:12:05Z</time>
      </trkpt>
      <trkpt lat="45.87573" lon="4.7308">
        <ele>188</ele>
        <time>2017-07-11T09:12:06Z</time>
      </trkpt>
      <trkpt lat="45.87569" lon="4.73073">
        <ele>188</ele>
        <time>2017-07-11T09:12:07Z</time>
      </trkpt>
      <trkpt lat="45.87566" lon="4.73067">
        <ele>188</ele>
        <time>2017-07-11T09:12:08Z</time>
      </trkpt>
      <trkpt lat="45.87562" lon="4.7306">
        <ele>188</ele>
        <time>2017-07-11T09:12:09Z</time>
      </trkpt>
      <trkpt lat="45.87559" lon="4.73053">
        <ele>188</ele>
        <time>2017-07-11T09:12:10Z</time>
      </trkpt>
      <trkpt lat="45.87556" lon="4.73047">
        <ele>188</ele>
        <time>2017-07-11T09:12:11Z</time>
      </trkpt>
      <trkpt lat="45.87553" lon="4.73041">
        <ele>188</ele>
        <time>2017-07-11T09:12:12Z</time>
      </trkpt>
      <trkpt lat="45.8755" lon="4.73035">
        <ele>188</ele>
        <time>2017-07-11T09:12:13Z</time>
      </trkpt>
      <trkpt lat="45.87547" lon="4.73028">
        <ele>188</ele>
        <time>2017-07-11T09:12:14Z</time>
      </trkpt>
      <trkpt lat="45.87544" lon="4.73021">
        <ele>188</ele>
        <time>2017-07-11T09:12:15Z</time>
      </trkpt>
      <trkpt lat="45.87541" lon="4.73015">
        <ele>187</ele>
        <time>2017-07-11T09:12:16Z</time>
      </trkpt>
      <trkpt lat="45.87538" lon="4.73008">
        <ele>187</ele>
        <time>2017-07-11T09:12:17Z</time>
      </trkpt>
      <trkpt lat="45.87535" lon="4.73002">
        <ele>187</ele>
        <time>2017-07-11T09:12:18Z</time>
      </trkpt>
      <trkpt lat="45.87532" lon="4.72996">
        <ele>187</ele>
        <time>2017-07-11T09:12:19Z</time>
      </trkpt>
      <trkpt lat="45.8753" lon="4.7299">
        <ele>187</ele>
        <time>2017-07-11T09:12:20Z</time>
      </trkpt>
      <trkpt lat="45.87527" lon="4.72983">
        <ele>187</ele>
        <time>2017-07-11T09:12:21Z</time>
      </trkpt>
      <trkpt lat="45.87524" lon="4.72977">
        <ele>187</ele>
        <time>2017-07-11T09:12:22Z</time>
      </trkpt>
      <trkpt lat="45.87521" lon="4.72971">
        <ele>187</ele>
        <time>2017-07-11T09:12:23Z</time>
      </trkpt>
      <trkpt lat="45.87517" lon="4.72965">
        <ele>187</ele>
        <time>2017-07-11T09:12:24Z</time>
      </trkpt>
      <trkpt lat="45.87513" lon="4.72959">
        <ele>187</ele>
        <time>2017-07-11T09:12:25Z</time>
      </trkpt>
      <trkpt lat="45.87511" lon="4.72954">
        <ele>187</ele>
        <time>2017-07-11T09:12:26Z</time>
      </trkpt>
      <trkpt lat="45.87507" lon="4.72949">
        <ele>187</ele>
        <time>2017-07-11T09:12:27Z</time>
      </trkpt>
      <trkpt lat="45.87503" lon="4.72946">
        <ele>187</ele>
        <time>2017-07-11T09:12:28Z</time>
      </trkpt>
      <trkpt lat="45.87498" lon="4.72942">
        <ele>188</ele>
        <time>2017-07-11T09:12:29Z</time>
      </trkpt>
      <trkpt lat="45.87494" lon="4.72939">
        <ele>188</ele>
        <time>2017-07-11T09:12:30Z</time>
      </trkpt>
      <trkpt lat="45.87489" lon="4.72935">
        <ele>188</ele>
        <time>2017-07-11T09:12:31Z</time>
      </trkpt>
      <trkpt lat="45.87485" lon="4.72932">
        <ele>188</ele>
        <time>2017-07-11T09:12:32Z</time>
      </trkpt>
      <trkpt lat="45.87481" lon="4.72928">
        <ele>188</ele>
        <time>2017-07-11T09:12:33Z</time>
      </trkpt>
      <trkpt lat="45.87478" lon="4.72923">
        <ele>188</ele>
        <time>2017-07-11T09:12:34Z</time>
      </trkpt>
      <trkpt lat="45.87475" lon="4.72918">
        <ele>188</ele>
        <time>2017-07-11T09:12:35Z</time>
      </trkpt>
      <trkpt lat="45.87472" lon="4.72913">
        <ele>188</ele>
        <time>2017-07-11T09:12:36Z</time>
      </trkpt>
      <trkpt lat="45.87468" lon="4.72903">
        <ele>188</ele>
        <time>2017-07-11T09:12:38Z</time>
      </trkpt>
      <trkpt lat="45.87467" lon="4.72899">
        <ele>188</ele>
        <time>2017-07-11T09:12:39Z</time>
      </trkpt>
      <trkpt lat="45.87464" lon="4.72886">
        <ele>188</ele>
        <time>2017-07-11T09:12:42Z</time>
      </trkpt>
      <trkpt lat="45.87463" lon="4.72882">
        <ele>188</ele>
        <time>2017-07-11T09:12:43Z</time>
      </trkpt>
      <trkpt lat="45.8746" lon="4.72873">
        <ele>188</ele>
        <time>2017-07-11T09:12:45Z</time>
      </trkpt>
      <trkpt lat="45.87459" lon="4.72868">
        <ele>188</ele>
        <time>2017-07-11T09:12:46Z</time>
      </trkpt>
      <trkpt lat="45.87455" lon="4.72857">
        <ele>188</ele>
        <time>2017-07-11T09:12:48Z</time>
      </trkpt>
      <trkpt lat="45.87453" lon="4.72852">
        <ele>188</ele>
        <time>2017-07-11T09:12:49Z</time>
      </trkpt>
      <trkpt lat="45.8745" lon="4.72846">
        <ele>188</ele>
        <time>2017-07-11T09:12:50Z</time>
      </trkpt>
      <trkpt lat="45.87448" lon="4.72841">
        <ele>188</ele>
        <time>2017-07-11T09:12:51Z</time>
      </trkpt>
      <trkpt lat="45.87445" lon="4.72835">
        <ele>188</ele>
        <time>2017-07-11T09:12:52Z</time>
      </trkpt>
      <trkpt lat="45.87442" lon="4.72828">
        <ele>189</ele>
        <time>2017-07-11T09:12:53Z</time>
      </trkpt>
      <trkpt lat="45.87439" lon="4.72822">
        <ele>189</ele>
        <time>2017-07-11T09:12:54Z</time>
      </trkpt>
      <trkpt lat="45.87437" lon="4.72817">
        <ele>189</ele>
        <time>2017-07-11T09:12:55Z</time>
      </trkpt>
      <trkpt lat="45.87434" lon="4.72811">
        <ele>189</ele>
        <time>2017-07-11T09:12:56Z</time>
      </trkpt>
      <trkpt lat="45.87431" lon="4.72806">
        <ele>189</ele>
        <time>2017-07-11T09:12:57Z</time>
      </trkpt>
      <trkpt lat="45.87428" lon="4.728">
        <ele>189</ele>
        <time>2017-07-11T09:12:58Z</time>
      </trkpt>
      <trkpt lat="45.87426" lon="4.72793">
        <ele>189</ele>
        <time>2017-07-11T09:12:59Z</time>
      </trkpt>
      <trkpt lat="45.87423" lon="4.72787">
        <ele>189</ele>
        <time>2017-07-11T09:13:00Z</time>
      </trkpt>
      <trkpt lat="45.8742" lon="4.72781">
        <ele>189</ele>
        <time>2017-07-11T09:13:01Z</time>
      </trkpt>
      <trkpt lat="45.87417" lon="4.72774">
        <ele>189</ele>
        <time>2017-07-11T09:13:02Z</time>
      </trkpt>
      <trkpt lat="45.87415" lon="4.72769">
        <ele>189</ele>
        <time>2017-07-11T09:13:03Z</time>
      </trkpt>
      <trkpt lat="45.8741" lon="4.72758">
        <ele>189</ele>
        <time>2017-07-11T09:13:05Z</time>
      </trkpt>
      <trkpt lat="45.87408" lon="4.72753">
        <ele>189</ele>
        <time>2017-07-11T09:13:06Z</time>
      </trkpt>
      <trkpt lat="45.87402" lon="4.72745">
        <ele>189</ele>
        <time>2017-07-11T09:13:08Z</time>
      </trkpt>
      <trkpt lat="45.87399" lon="4.72741">
        <ele>189</ele>
        <time>2017-07-11T09:13:09Z</time>
      </trkpt>
      <trkpt lat="45.87396" lon="4.72736">
        <ele>190</ele>
        <time>2017-07-11T09:13:10Z</time>
      </trkpt>
      <trkpt lat="45.87393" lon="4.72731">
        <ele>190</ele>
        <time>2017-07-11T09:13:11Z</time>
      </trkpt>
      <trkpt lat="45.8739" lon="4.72724">
        <ele>190</ele>
        <time>2017-07-11T09:13:12Z</time>
      </trkpt>
      <trkpt lat="45.87387" lon="4.72718">
        <ele>190</ele>
        <time>2017-07-11T09:13:13Z</time>
      </trkpt>
      <trkpt lat="45.87385" lon="4.72711">
        <ele>190</ele>
        <time>2017-07-11T09:13:14Z</time>
      </trkpt>
      <trkpt lat="45.87382" lon="4.72705">
        <ele>190</ele>
        <time>2017-07-11T09:13:15Z</time>
      </trkpt>
      <trkpt lat="45.87379" lon="4.72699">
        <ele>190</ele>
        <time>2017-07-11T09:13:16Z</time>
      </trkpt>
      <trkpt lat="45.87376" lon="4.72693">
        <ele>190</ele>
        <time>2017-07-11T09:13:17Z</time>
      </trkpt>
      <trkpt lat="45.87373" lon="4.72688">
        <ele>190</ele>
        <time>2017-07-11T09:13:18Z</time>
      </trkpt>
      <trkpt lat="45.87368" lon="4.72682">
        <ele>190</ele>
        <time>2017-07-11T09:13:19Z</time>
      </trkpt>
      <trkpt lat="45.87364" lon="4.72678">
        <ele>190</ele>
        <time>2017-07-11T09:13:20Z</time>
      </trkpt>
      <trkpt lat="45.8736" lon="4.72673">
        <ele>190</ele>
        <time>2017-07-11T09:13:21Z</time>
      </trkpt>
      <trkpt lat="45.87355" lon="4.72669">
        <ele>190</ele>
        <time>2017-07-11T09:13:22Z</time>
      </trkpt>
      <trkpt lat="45.87351" lon="4.72666">
        <ele>190</ele>
        <time>2017-07-11T09:13:23Z</time>
      </trkpt>
      <trkpt lat="45.87346" lon="4.72662">
        <ele>190</ele>
        <time>2017-07-11T09:13:24Z</time>
      </trkpt>
      <trkpt lat="45.87342" lon="4.72659">
        <ele>190</ele>
        <time>2017-07-11T09:13:25Z</time>
      </trkpt>
      <trkpt lat="45.87338" lon="4.72655">
        <ele>190</ele>
        <time>2017-07-11T09:13:26Z</time>
      </trkpt>
      <trkpt lat="45.87334" lon="4.72651">
        <ele>190</ele>
        <time>2017-07-11T09:13:27Z</time>
      </trkpt>
      <trkpt lat="45.8733" lon="4.72648">
        <ele>192</ele>
        <time>2017-07-11T09:13:28Z</time>
      </trkpt>
      <trkpt lat="45.87325" lon="4.72644">
        <ele>192</ele>
        <time>2017-07-11T09:13:29Z</time>
      </trkpt>
      <trkpt lat="45.87321" lon="4.72639">
        <ele>193</ele>
        <time>2017-07-11T09:13:30Z</time>
      </trkpt>
      <trkpt lat="45.87316" lon="4.72634">
        <ele>193</ele>
        <time>2017-07-11T09:13:31Z</time>
      </trkpt>
      <trkpt lat="45.87312" lon="4.72629">
        <ele>193</ele>
        <time>2017-07-11T09:13:32Z</time>
      </trkpt>
      <trkpt lat="45.87308" lon="4.72624">
        <ele>193</ele>
        <time>2017-07-11T09:13:33Z</time>
      </trkpt>
      <trkpt lat="45.87304" lon="4.7262">
        <ele>193</ele>
        <time>2017-07-11T09:13:34Z</time>
      </trkpt>
      <trkpt lat="45.873" lon="4.72615">
        <ele>194</ele>
        <time>2017-07-11T09:13:35Z</time>
      </trkpt>
      <trkpt lat="45.87293" lon="4.72607">
        <ele>194</ele>
        <time>2017-07-11T09:13:37Z</time>
      </trkpt>
      <trkpt lat="45.8729" lon="4.72603">
        <ele>194</ele>
        <time>2017-07-11T09:13:38Z</time>
      </trkpt>
      <trkpt lat="45.87283" lon="4.72594">
        <ele>194</ele>
        <time>2017-07-11T09:13:40Z</time>
      </trkpt>
      <trkpt lat="45.87281" lon="4.72589">
        <ele>195</ele>
        <time>2017-07-11T09:13:41Z</time>
      </trkpt>
      <trkpt lat="45.87276" lon="4.72579">
        <ele>194</ele>
        <time>2017-07-11T09:13:43Z</time>
      </trkpt>
      <trkpt lat="45.87272" lon="4.72574">
        <ele>194</ele>
        <time>2017-07-11T09:13:44Z</time>
      </trkpt>
      <trkpt lat="45.87266" lon="4.72565">
        <ele>194</ele>
        <time>2017-07-11T09:13:46Z</time>
      </trkpt>
      <trkpt lat="45.87263" lon="4.72561">
        <ele>194</ele>
        <time>2017-07-11T09:13:47Z</time>
      </trkpt>
      <trkpt lat="45.87259" lon="4.72552">
        <ele>194</ele>
        <time>2017-07-11T09:13:49Z</time>
      </trkpt>
      <trkpt lat="45.87257" lon="4.72548">
        <ele>194</ele>
        <time>2017-07-11T09:13:50Z</time>
      </trkpt>
      <trkpt lat="45.87254" lon="4.72538">
        <ele>194</ele>
        <time>2017-07-11T09:13:54Z</time>
      </trkpt>
      <trkpt lat="45.87253" lon="4.72535">
        <ele>194</ele>
        <time>2017-07-11T09:13:55Z</time>
      </trkpt>
      <trkpt lat="45.87252" lon="4.72527">
        <ele>193</ele>
        <time>2017-07-11T09:13:57Z</time>
      </trkpt>
      <trkpt lat="45.8725" lon="4.72522">
        <ele>196</ele>
        <time>2017-07-11T09:13:58Z</time>
      </trkpt>
      <trkpt lat="45.87247" lon="4.72517">
        <ele>196</ele>
        <time>2017-07-11T09:13:59Z</time>
      </trkpt>
      <trkpt lat="45.87242" lon="4.72511">
        <ele>195</ele>
        <time>2017-07-11T09:14:00Z</time>
      </trkpt>
      <trkpt lat="45.87238" lon="4.72506">
        <ele>195</ele>
        <time>2017-07-11T09:14:01Z</time>
      </trkpt>
      <trkpt lat="45.87234" lon="4.72501">
        <ele>196</ele>
        <time>2017-07-11T09:14:02Z</time>
      </trkpt>
      <trkpt lat="45.8723" lon="4.72495">
        <ele>194</ele>
        <time>2017-07-11T09:14:03Z</time>
      </trkpt>
      <trkpt lat="45.87226" lon="4.72489">
        <ele>194</ele>
        <time>2017-07-11T09:14:04Z</time>
      </trkpt>
      <trkpt lat="45.87222" lon="4.72483">
        <ele>194</ele>
        <time>2017-07-11T09:14:05Z</time>
      </trkpt>
      <trkpt lat="45.87218" lon="4.72478">
        <ele>194</ele>
        <time>2017-07-11T09:14:06Z</time>
      </trkpt>
      <trkpt lat="45.87215" lon="4.72473">
        <ele>194</ele>
        <time>2017-07-11T09:14:07Z</time>
      </trkpt>
      <trkpt lat="45.87212" lon="4.72468">
        <ele>194</ele>
        <time>2017-07-11T09:14:08Z</time>
      </trkpt>
      <trkpt lat="45.87209" lon="4.72463">
        <ele>194</ele>
        <time>2017-07-11T09:14:09Z</time>
      </trkpt>
      <trkpt lat="45.87206" lon="4.72458">
        <ele>194</ele>
        <time>2017-07-11T09:14:10Z</time>
      </trkpt>
      <trkpt lat="45.87199" lon="4.72449">
        <ele>194</ele>
        <time>2017-07-11T09:14:12Z</time>
      </trkpt>
      <trkpt lat="45.87197" lon="4.72444">
        <ele>194</ele>
        <time>2017-07-11T09:14:13Z</time>
      </trkpt>
      <trkpt lat="45.87194" lon="4.72438">
        <ele>194</ele>
        <time>2017-07-11T09:14:14Z</time>
      </trkpt>
      <trkpt lat="45.87191" lon="4.72433">
        <ele>194</ele>
        <time>2017-07-11T09:14:15Z</time>
      </trkpt>
      <trkpt lat="45.87187" lon="4.72428">
        <ele>194</ele>
        <time>2017-07-11T09:14:16Z</time>
      </trkpt>
      <trkpt lat="45.87184" lon="4.72423">
        <ele>194</ele>
        <time>2017-07-11T09:14:17Z</time>
      </trkpt>
      <trkpt lat="45.87181" lon="4.72418">
        <ele>194</ele>
        <time>2017-07-11T09:14:18Z</time>
      </trkpt>
      <trkpt lat="45.87177" lon="4.72413">
        <ele>192</ele>
        <time>2017-07-11T09:14:19Z</time>
      </trkpt>
      <trkpt lat="45.87174" lon="4.72408">
        <ele>192</ele>
        <time>2017-07-11T09:14:20Z</time>
      </trkpt>
      <trkpt lat="45.87171" lon="4.72402">
        <ele>192</ele>
        <time>2017-07-11T09:14:21Z</time>
      </trkpt>
      <trkpt lat="45.87169" lon="4.72396">
        <ele>191</ele>
        <time>2017-07-11T09:14:22Z</time>
      </trkpt>
      <trkpt lat="45.87166" lon="4.7239">
        <ele>197</ele>
        <time>2017-07-11T09:14:23Z</time>
      </trkpt>
      <trkpt lat="45.87163" lon="4.72384">
        <ele>197</ele>
        <time>2017-07-11T09:14:24Z</time>
      </trkpt>
      <trkpt lat="45.87161" lon="4.72378">
        <ele>197</ele>
        <time>2017-07-11T09:14:25Z</time>
      </trkpt>
      <trkpt lat="45.87158" lon="4.72372">
        <ele>197</ele>
        <time>2017-07-11T09:14:26Z</time>
      </trkpt>
      <trkpt lat="45.87156" lon="4.72366">
        <ele>196</ele>
        <time>2017-07-11T09:14:27Z</time>
      </trkpt>
      <trkpt lat="45.87152" lon="4.72361">
        <ele>196</ele>
        <time>2017-07-11T09:14:28Z</time>
      </trkpt>
      <trkpt lat="45.8715" lon="4.72355">
        <ele>196</ele>
        <time>2017-07-11T09:14:29Z</time>
      </trkpt>
      <trkpt lat="45.87147" lon="4.72349">
        <ele>196</ele>
        <time>2017-07-11T09:14:30Z</time>
      </trkpt>
      <trkpt lat="45.87145" lon="4.72343">
        <ele>196</ele>
        <time>2017-07-11T09:14:31Z</time>
      </trkpt>
      <trkpt lat="45.87143" lon="4.72336">
        <ele>196</ele>
        <time>2017-07-11T09:14:32Z</time>
      </trkpt>
      <trkpt lat="45.8714" lon="4.7233">
        <ele>194</ele>
        <time>2017-07-11T09:14:33Z</time>
      </trkpt>
      <trkpt lat="45.87138" lon="4.72324">
        <ele>195</ele>
        <time>2017-07-11T09:14:34Z</time>
      </trkpt>
      <trkpt lat="45.87135" lon="4.72318">
        <ele>195</ele>
        <time>2017-07-11T09:14:35Z</time>
      </trkpt>
      <trkpt lat="45.87132" lon="4.72312">
        <ele>196</ele>
        <time>2017-07-11T09:14:36Z</time>
      </trkpt>
      <trkpt lat="45.87129" lon="4.72307">
        <ele>196</ele>
        <time>2017-07-11T09:14:37Z</time>
      </trkpt>
      <trkpt lat="45.87126" lon="4.72302">
        <ele>196</ele>
        <time>2017-07-11T09:14:38Z</time>
      </trkpt>
      <trkpt lat="45.87123" lon="4.72297">
        <ele>196</ele>
        <time>2017-07-11T09:14:39Z</time>
      </trkpt>
      <trkpt lat="45.87119" lon="4.72291">
        <ele>196</ele>
        <time>2017-07-11T09:14:40Z</time>
      </trkpt>
      <trkpt lat="45.87115" lon="4.72285">
        <ele>197</ele>
        <time>2017-07-11T09:14:41Z</time>
      </trkpt>
      <trkpt lat="45.87111" lon="4.7228">
        <ele>197</ele>
        <time>2017-07-11T09:14:42Z</time>
      </trkpt>
      <trkpt lat="45.87107" lon="4.72275">
        <ele>197</ele>
        <time>2017-07-11T09:14:43Z</time>
      </trkpt>
      <trkpt lat="45.87103" lon="4.7227">
        <ele>197</ele>
        <time>2017-07-11T09:14:44Z</time>
      </trkpt>
      <trkpt lat="45.87099" lon="4.72264">
        <ele>197</ele>
        <time>2017-07-11T09:14:45Z</time>
      </trkpt>
      <trkpt lat="45.87095" lon="4.72259">
        <ele>198</ele>
        <time>2017-07-11T09:14:46Z</time>
      </trkpt>
      <trkpt lat="45.87091" lon="4.72255">
        <ele>198</ele>
        <time>2017-07-11T09:14:47Z</time>
      </trkpt>
      <trkpt lat="45.87087" lon="4.7225">
        <ele>198</ele>
        <time>2017-07-11T09:14:48Z</time>
      </trkpt>
      <trkpt lat="45.87083" lon="4.72245">
        <ele>199</ele>
        <time>2017-07-11T09:14:49Z</time>
      </trkpt>
      <trkpt lat="45.8708" lon="4.7224">
        <ele>200</ele>
        <time>2017-07-11T09:14:50Z</time>
      </trkpt>
      <trkpt lat="45.87075" lon="4.72236">
        <ele>200</ele>
        <time>2017-07-11T09:14:51Z</time>
      </trkpt>
      <trkpt lat="45.87071" lon="4.72231">
        <ele>200</ele>
        <time>2017-07-11T09:14:52Z</time>
      </trkpt>
      <trkpt lat="45.87067" lon="4.72227">
        <ele>200</ele>
        <time>2017-07-11T09:14:53Z</time>
      </trkpt>
      <trkpt lat="45.87062" lon="4.72222">
        <ele>200</ele>
        <time>2017-07-11T09:14:54Z</time>
      </trkpt>
      <trkpt lat="45.87058" lon="4.72218">
        <ele>200</ele>
        <time>2017-07-11T09:14:55Z</time>
      </trkpt>
      <trkpt lat="45.87053" lon="4.72214">
        <ele>200</ele>
        <time>2017-07-11T09:14:56Z</time>
      </trkpt>
      <trkpt lat="45.87048" lon="4.7221">
        <ele>200</ele>
        <time>2017-07-11T09:14:57Z</time>
      </trkpt>
      <trkpt lat="45.87043" lon="4.72206">
        <ele>200</ele>
        <time>2017-07-11T09:14:58Z</time>
      </trkpt>
      <trkpt lat="45.87039" lon="4.72203">
        <ele>201</ele>
        <time>2017-07-11T09:14:59Z</time>
      </trkpt>
      <trkpt lat="45.87034" lon="4.722">
        <ele>201</ele>
        <time>2017-07-11T09:15:00Z</time>
      </trkpt>
      <trkpt lat="45.8703" lon="4.72196">
        <ele>201</ele>
        <time>2017-07-11T09:15:01Z</time>
      </trkpt>
      <trkpt lat="45.87025" lon="4.72193">
        <ele>201</ele>
        <time>2017-07-11T09:15:02Z</time>
      </trkpt>
      <trkpt lat="45.8702" lon="4.7219">
        <ele>201</ele>
        <time>2017-07-11T09:15:03Z</time>
      </trkpt>
      <trkpt lat="45.87015" lon="4.72186">
        <ele>201</ele>
        <time>2017-07-11T09:15:04Z</time>
      </trkpt>
      <trkpt lat="45.8701" lon="4.72183">
        <ele>201</ele>
        <time>2017-07-11T09:15:05Z</time>
      </trkpt>
      <trkpt lat="45.87005" lon="4.7218">
        <ele>201</ele>
        <time>2017-07-11T09:15:06Z</time>
      </trkpt>
      <trkpt lat="45.86999" lon="4.72176">
        <ele>205</ele>
        <time>2017-07-11T09:15:07Z</time>
      </trkpt>
      <trkpt lat="45.86994" lon="4.72172">
        <ele>204</ele>
        <time>2017-07-11T09:15:08Z</time>
      </trkpt>
      <trkpt lat="45.86989" lon="4.72169">
        <ele>205</ele>
        <time>2017-07-11T09:15:09Z</time>
      </trkpt>
      <trkpt lat="45.86984" lon="4.72165">
        <ele>201</ele>
        <time>2017-07-11T09:15:10Z</time>
      </trkpt>
      <trkpt lat="45.8698" lon="4.72161">
        <ele>201</ele>
        <time>2017-07-11T09:15:11Z</time>
      </trkpt>
      <trkpt lat="45.86975" lon="4.72158">
        <ele>201</ele>
        <time>2017-07-11T09:15:12Z</time>
      </trkpt>
      <trkpt lat="45.8697" lon="4.72155">
        <ele>201</ele>
        <time>2017-07-11T09:15:13Z</time>
      </trkpt>
      <trkpt lat="45.86965" lon="4.72152">
        <ele>201</ele>
        <time>2017-07-11T09:15:14Z</time>
      </trkpt>
      <trkpt lat="45.8696" lon="4.72148">
        <ele>201</ele>
        <time>2017-07-11T09:15:15Z</time>
      </trkpt>
      <trkpt lat="45.86954" lon="4.72145">
        <ele>201</ele>
        <time>2017-07-11T09:15:16Z</time>
      </trkpt>
      <trkpt lat="45.8695" lon="4.72142">
        <ele>201</ele>
        <time>2017-07-11T09:15:17Z</time>
      </trkpt>
      <trkpt lat="45.86945" lon="4.72139">
        <ele>201</ele>
        <time>2017-07-11T09:15:18Z</time>
      </trkpt>
      <trkpt lat="45.8694" lon="4.72136">
        <ele>201</ele>
        <time>2017-07-11T09:15:19Z</time>
      </trkpt>
      <trkpt lat="45.86935" lon="4.72134">
        <ele>201</ele>
        <time>2017-07-11T09:15:20Z</time>
      </trkpt>
      <trkpt lat="45.8693" lon="4.72131">
        <ele>201</ele>
        <time>2017-07-11T09:15:21Z</time>
      </trkpt>
      <trkpt lat="45.86925" lon="4.72129">
        <ele>201</ele>
        <time>2017-07-11T09:15:22Z</time>
      </trkpt>
      <trkpt lat="45.8692" lon="4.72127">
        <ele>200</ele>
        <time>2017-07-11T09:15:23Z</time>
      </trkpt>
      <trkpt lat="45.86915" lon="4.72125">
        <ele>202</ele>
        <time>2017-07-11T09:15:24Z</time>
      </trkpt>
      <trkpt lat="45.8691" lon="4.72122">
        <ele>202</ele>
        <time>2017-07-11T09:15:25Z</time>
      </trkpt>
      <trkpt lat="45.86905" lon="4.72121">
        <ele>202</ele>
        <time>2017-07-11T09:15:26Z</time>
      </trkpt>
      <trkpt lat="45.86899" lon="4.72118">
        <ele>201</ele>
        <time>2017-07-11T09:15:27Z</time>
      </trkpt>
      <trkpt lat="45.86894" lon="4.72116">
        <ele>201</ele>
        <time>2017-07-11T09:15:28Z</time>
      </trkpt>
      <trkpt lat="45.86888" lon="4.72114">
        <ele>201</ele>
        <time>2017-07-11T09:15:29Z</time>
      </trkpt>
      <trkpt lat="45.86883" lon="4.72111">
        <ele>201</ele>
        <time>2017-07-11T09:15:30Z</time>
      </trkpt>
      <trkpt lat="45.86878" lon="4.72107">
        <ele>200</ele>
        <time>2017-07-11T09:15:31Z</time>
      </trkpt>
      <trkpt lat="45.86872" lon="4.72105">
        <ele>200</ele>
        <time>2017-07-11T09:15:32Z</time>
      </trkpt>
      <trkpt lat="45.86867" lon="4.72102">
        <ele>200</ele>
        <time>2017-07-11T09:15:33Z</time>
      </trkpt>
      <trkpt lat="45.86862" lon="4.72099">
        <ele>200</ele>
        <time>2017-07-11T09:15:34Z</time>
      </trkpt>
      <trkpt lat="45.86857" lon="4.72095">
        <ele>199</ele>
        <time>2017-07-11T09:15:35Z</time>
      </trkpt>
      <trkpt lat="45.86852" lon="4.72093">
        <ele>198</ele>
        <time>2017-07-11T09:15:36Z</time>
      </trkpt>
      <trkpt lat="45.86847" lon="4.72091">
        <ele>197</ele>
        <time>2017-07-11T09:15:37Z</time>
      </trkpt>
      <trkpt lat="45.86842" lon="4.72089">
        <ele>196</ele>
        <time>2017-07-11T09:15:38Z</time>
      </trkpt>
      <trkpt lat="45.86837" lon="4.72088">
        <ele>195</ele>
        <time>2017-07-11T09:15:39Z</time>
      </trkpt>
      <trkpt lat="45.86832" lon="4.72086">
        <ele>194</ele>
        <time>2017-07-11T09:15:40Z</time>
      </trkpt>
      <trkpt lat="45.86827" lon="4.72084">
        <ele>196</ele>
        <time>2017-07-11T09:15:41Z</time>
      </trkpt>
      <trkpt lat="45.86822" lon="4.72082">
        <ele>193</ele>
        <time>2017-07-11T09:15:42Z</time>
      </trkpt>
      <trkpt lat="45.86816" lon="4.72079">
        <ele>194</ele>
        <time>2017-07-11T09:15:43Z</time>
      </trkpt>
      <trkpt lat="45.8681" lon="4.72076">
        <ele>194</ele>
        <time>2017-07-11T09:15:44Z</time>
      </trkpt>
      <trkpt lat="45.86804" lon="4.72074">
        <ele>194</ele>
        <time>2017-07-11T09:15:45Z</time>
      </trkpt>
      <trkpt lat="45.86798" lon="4.72072">
        <ele>194</ele>
        <time>2017-07-11T09:15:46Z</time>
      </trkpt>
      <trkpt lat="45.86793" lon="4.7207">
        <ele>194</ele>
        <time>2017-07-11T09:15:47Z</time>
      </trkpt>
      <trkpt lat="45.86787" lon="4.72068">
        <ele>194</ele>
        <time>2017-07-11T09:15:48Z</time>
      </trkpt>
      <trkpt lat="45.86783" lon="4.72065">
        <ele>194</ele>
        <time>2017-07-11T09:15:49Z</time>
      </trkpt>
      <trkpt lat="45.86778" lon="4.72063">
        <ele>194</ele>
        <time>2017-07-11T09:15:50Z</time>
      </trkpt>
      <trkpt lat="45.86773" lon="4.72062">
        <ele>195</ele>
        <time>2017-07-11T09:15:51Z</time>
      </trkpt>
      <trkpt lat="45.86768" lon="4.7206">
        <ele>195</ele>
        <time>2017-07-11T09:15:52Z</time>
      </trkpt>
      <trkpt lat="45.86763" lon="4.72058">
        <ele>195</ele>
        <time>2017-07-11T09:15:53Z</time>
      </trkpt>
      <trkpt lat="45.86758" lon="4.72056">
        <ele>195</ele>
        <time>2017-07-11T09:15:54Z</time>
      </trkpt>
      <trkpt lat="45.86753" lon="4.72054">
        <ele>195</ele>
        <time>2017-07-11T09:15:55Z</time>
      </trkpt>
      <trkpt lat="45.86748" lon="4.72052">
        <ele>197</ele>
        <time>2017-07-11T09:15:56Z</time>
      </trkpt>
      <trkpt lat="45.86743" lon="4.7205">
        <ele>197</ele>
        <time>2017-07-11T09:15:57Z</time>
      </trkpt>
      <trkpt lat="45.86737" lon="4.72047">
        <ele>197</ele>
        <time>2017-07-11T09:15:58Z</time>
      </trkpt>
      <trkpt lat="45.86732" lon="4.72044">
        <ele>197</ele>
        <time>2017-07-11T09:15:59Z</time>
      </trkpt>
      <trkpt lat="45.86726" lon="4.72041">
        <ele>197</ele>
        <time>2017-07-11T09:16:00Z</time>
      </trkpt>
      <trkpt lat="45.86721" lon="4.72038">
        <ele>197</ele>
        <time>2017-07-11T09:16:01Z</time>
      </trkpt>
      <trkpt lat="45.86716" lon="4.72036">
        <ele>197</ele>
        <time>2017-07-11T09:16:02Z</time>
      </trkpt>
      <trkpt lat="45.86712" lon="4.72033">
        <ele>197</ele>
        <time>2017-07-11T09:16:03Z</time>
      </trkpt>
      <trkpt lat="45.86707" lon="4.72029">
        <ele>197</ele>
        <time>2017-07-11T09:16:04Z</time>
      </trkpt>
      <trkpt lat="45.86703" lon="4.72025">
        <ele>197</ele>
        <time>2017-07-11T09:16:05Z</time>
      </trkpt>
      <trkpt lat="45.86699" lon="4.72022">
        <ele>197</ele>
        <time>2017-07-11T09:16:06Z</time>
      </trkpt>
      <trkpt lat="45.86694" lon="4.72018">
        <ele>197</ele>
        <time>2017-07-11T09:16:07Z</time>
      </trkpt>
      <trkpt lat="45.86689" lon="4.72014">
        <ele>196</ele>
        <time>2017-07-11T09:16:08Z</time>
      </trkpt>
      <trkpt lat="45.86685" lon="4.72011">
        <ele>196</ele>
        <time>2017-07-11T09:16:09Z</time>
      </trkpt>
      <trkpt lat="45.8668" lon="4.72007">
        <ele>196</ele>
        <time>2017-07-11T09:16:10Z</time>
      </trkpt>
      <trkpt lat="45.86675" lon="4.72003">
        <ele>196</ele>
        <time>2017-07-11T09:16:11Z</time>
      </trkpt>
      <trkpt lat="45.8667" lon="4.71999">
        <ele>195</ele>
        <time>2017-07-11T09:16:12Z</time>
      </trkpt>
      <trkpt lat="45.86666" lon="4.71995">
        <ele>195</ele>
        <time>2017-07-11T09:16:13Z</time>
      </trkpt>
      <trkpt lat="45.86661" lon="4.71991">
        <ele>195</ele>
        <time>2017-07-11T09:16:14Z</time>
      </trkpt>
      <trkpt lat="45.86656" lon="4.71987">
        <ele>195</ele>
        <time>2017-07-11T09:16:15Z</time>
      </trkpt>
      <trkpt lat="45.86652" lon="4.71984">
        <ele>195</ele>
        <time>2017-07-11T09:16:16Z</time>
      </trkpt>
      <trkpt lat="45.86647" lon="4.7198">
        <ele>195</ele>
        <time>2017-07-11T09:16:17Z</time>
      </trkpt>
      <trkpt lat="45.86642" lon="4.71977">
        <ele>195</ele>
        <time>2017-07-11T09:16:18Z</time>
      </trkpt>
      <trkpt lat="45.86637" lon="4.71974">
        <ele>195</ele>
        <time>2017-07-11T09:16:19Z</time>
      </trkpt>
      <trkpt lat="45.86633" lon="4.7197">
        <ele>195</ele>
        <time>2017-07-11T09:16:20Z</time>
      </trkpt>
      <trkpt lat="45.86628" lon="4.71966">
        <ele>195</ele>
        <time>2017-07-11T09:16:21Z</time>
      </trkpt>
      <trkpt lat="45.86623" lon="4.71962">
        <ele>195</ele>
        <time>2017-07-11T09:16:22Z</time>
      </trkpt>
      <trkpt lat="45.86619" lon="4.71958">
        <ele>194</ele>
        <time>2017-07-11T09:16:23Z</time>
      </trkpt>
      <trkpt lat="45.86614" lon="4.71954">
        <ele>194</ele>
        <time>2017-07-11T09:16:24Z</time>
      </trkpt>
      <trkpt lat="45.86609" lon="4.7195">
        <ele>194</ele>
        <time>2017-07-11T09:16:25Z</time>
      </trkpt>
      <trkpt lat="45.86605" lon="4.71947">
        <ele>194</ele>
        <time>2017-07-11T09:16:26Z</time>
      </trkpt>
      <trkpt lat="45.866" lon="4.71943">
        <ele>194</ele>
        <time>2017-07-11T09:16:27Z</time>
      </trkpt>
      <trkpt lat="45.86596" lon="4.7194">
        <ele>194</ele>
        <time>2017-07-11T09:16:28Z</time>
      </trkpt>
      <trkpt lat="45.86592" lon="4.71936">
        <ele>194</ele>
        <time>2017-07-11T09:16:29Z</time>
      </trkpt>
      <trkpt lat="45.86588" lon="4.71933">
        <ele>194</ele>
        <time>2017-07-11T09:16:30Z</time>
      </trkpt>
      <trkpt lat="45.86583" lon="4.7193">
        <ele>195</ele>
        <time>2017-07-11T09:16:31Z</time>
      </trkpt>
      <trkpt lat="45.86578" lon="4.71926">
        <ele>195</ele>
        <time>2017-07-11T09:16:32Z</time>
      </trkpt>
      <trkpt lat="45.86573" lon="4.71922">
        <ele>195</ele>
        <time>2017-07-11T09:16:33Z</time>
      </trkpt>
      <trkpt lat="45.86568" lon="4.71919">
        <ele>195</ele>
        <time>2017-07-11T09:16:34Z</time>
      </trkpt>
      <trkpt lat="45.86563" lon="4.71915">
        <ele>195</ele>
        <time>2017-07-11T09:16:35Z</time>
      </trkpt>
      <trkpt lat="45.86558" lon="4.71911">
        <ele>195</ele>
        <time>2017-07-11T09:16:36Z</time>
      </trkpt>
      <trkpt lat="45.86554" lon="4.71907">
        <ele>195</ele>
        <time>2017-07-11T09:16:37Z</time>
      </trkpt>
      <trkpt lat="45.86549" lon="4.71903">
        <ele>195</ele>
        <time>2017-07-11T09:16:38Z</time>
      </trkpt>
      <trkpt lat="45.86545" lon="4.71899">
        <ele>195</ele>
        <time>2017-07-11T09:16:39Z</time>
      </trkpt>
      <trkpt lat="45.8654" lon="4.71896">
        <ele>195</ele>
        <time>2017-07-11T09:16:40Z</time>
      </trkpt>
      <trkpt lat="45.86536" lon="4.71893">
        <ele>195</ele>
        <time>2017-07-11T09:16:41Z</time>
      </trkpt>
      <trkpt lat="45.86532" lon="4.71889">
        <ele>195</ele>
        <time>2017-07-11T09:16:42Z</time>
      </trkpt>
      <trkpt lat="45.86528" lon="4.71886">
        <ele>195</ele>
        <time>2017-07-11T09:16:43Z</time>
      </trkpt>
      <trkpt lat="45.86524" lon="4.71883">
        <ele>195</ele>
        <time>2017-07-11T09:16:44Z</time>
      </trkpt>
      <trkpt lat="45.86519" lon="4.71879">
        <ele>195</ele>
        <time>2017-07-11T09:16:45Z</time>
      </trkpt>
      <trkpt lat="45.86515" lon="4.71875">
        <ele>195</ele>
        <time>2017-07-11T09:16:46Z</time>
      </trkpt>
      <trkpt lat="45.86511" lon="4.71871">
        <ele>195</ele>
        <time>2017-07-11T09:16:47Z</time>
      </trkpt>
      <trkpt lat="45.86506" lon="4.71868">
        <ele>195</ele>
        <time>2017-07-11T09:16:48Z</time>
      </trkpt>
      <trkpt lat="45.86502" lon="4.71865">
        <ele>195</ele>
        <time>2017-07-11T09:16:49Z</time>
      </trkpt>
      <trkpt lat="45.86497" lon="4.71862">
        <ele>198</ele>
        <time>2017-07-11T09:16:50Z</time>
      </trkpt>
      <trkpt lat="45.86492" lon="4.71859">
        <ele>198</ele>
        <time>2017-07-11T09:16:51Z</time>
      </trkpt>
      <trkpt lat="45.86486" lon="4.71855">
        <ele>198</ele>
        <time>2017-07-11T09:16:52Z</time>
      </trkpt>
      <trkpt lat="45.86481" lon="4.71851">
        <ele>198</ele>
        <time>2017-07-11T09:16:53Z</time>
      </trkpt>
      <trkpt lat="45.86476" lon="4.71847">
        <ele>198</ele>
        <time>2017-07-11T09:16:54Z</time>
      </trkpt>
      <trkpt lat="45.86472" lon="4.71843">
        <ele>199</ele>
        <time>2017-07-11T09:16:55Z</time>
      </trkpt>
      <trkpt lat="45.86467" lon="4.7184">
        <ele>199</ele>
        <time>2017-07-11T09:16:56Z</time>
      </trkpt>
      <trkpt lat="45.86462" lon="4.71837">
        <ele>199</ele>
        <time>2017-07-11T09:16:57Z</time>
      </trkpt>
      <trkpt lat="45.86457" lon="4.71834">
        <ele>200</ele>
        <time>2017-07-11T09:16:58Z</time>
      </trkpt>
      <trkpt lat="45.86454" lon="4.7183">
        <ele>197</ele>
        <time>2017-07-11T09:16:59Z</time>
      </trkpt>
      <trkpt lat="45.8645" lon="4.71827">
        <ele>197</ele>
        <time>2017-07-11T09:17:00Z</time>
      </trkpt>
      <trkpt lat="45.86446" lon="4.71823">
        <ele>197</ele>
        <time>2017-07-11T09:17:01Z</time>
      </trkpt>
      <trkpt lat="45.8644" lon="4.71816">
        <ele>197</ele>
        <time>2017-07-11T09:17:03Z</time>
      </trkpt>
      <trkpt lat="45.86437" lon="4.71812">
        <ele>197</ele>
        <time>2017-07-11T09:17:04Z</time>
      </trkpt>
      <trkpt lat="45.86429" lon="4.71806">
        <ele>197</ele>
        <time>2017-07-11T09:17:06Z</time>
      </trkpt>
      <trkpt lat="45.86425" lon="4.71804">
        <ele>197</ele>
        <time>2017-07-11T09:17:07Z</time>
      </trkpt>
      <trkpt lat="45.8642" lon="4.71801">
        <ele>197</ele>
        <time>2017-07-11T09:17:08Z</time>
      </trkpt>
      <trkpt lat="45.86416" lon="4.71798">
        <ele>199</ele>
        <time>2017-07-11T09:17:09Z</time>
      </trkpt>
      <trkpt lat="45.86411" lon="4.71795">
        <ele>199</ele>
        <time>2017-07-11T09:17:10Z</time>
      </trkpt>
      <trkpt lat="45.86407" lon="4.71791">
        <ele>198</ele>
        <time>2017-07-11T09:17:11Z</time>
      </trkpt>
      <trkpt lat="45.86402" lon="4.71788">
        <ele>198</ele>
        <time>2017-07-11T09:17:12Z</time>
      </trkpt>
      <trkpt lat="45.86397" lon="4.71785">
        <ele>198</ele>
        <time>2017-07-11T09:17:13Z</time>
      </trkpt>
      <trkpt lat="45.86392" lon="4.71781">
        <ele>198</ele>
        <time>2017-07-11T09:17:14Z</time>
      </trkpt>
      <trkpt lat="45.86388" lon="4.71777">
        <ele>198</ele>
        <time>2017-07-11T09:17:15Z</time>
      </trkpt>
      <trkpt lat="45.86383" lon="4.71774">
        <ele>198</ele>
        <time>2017-07-11T09:17:16Z</time>
      </trkpt>
      <trkpt lat="45.86379" lon="4.7177">
        <ele>198</ele>
        <time>2017-07-11T09:17:17Z</time>
      </trkpt>
      <trkpt lat="45.86375" lon="4.71767">
        <ele>198</ele>
        <time>2017-07-11T09:17:18Z</time>
      </trkpt>
      <trkpt lat="45.86371" lon="4.71764">
        <ele>198</ele>
        <time>2017-07-11T09:17:19Z</time>
      </trkpt>
      <trkpt lat="45.86366" lon="4.7176">
        <ele>198</ele>
        <time>2017-07-11T09:17:20Z</time>
      </trkpt>
      <trkpt lat="45.86362" lon="4.71757">
        <ele>198</ele>
        <time>2017-07-11T09:17:21Z</time>
      </trkpt>
      <trkpt lat="45.86357" lon="4.71754">
        <ele>197</ele>
        <time>2017-07-11T09:17:22Z</time>
      </trkpt>
      <trkpt lat="45.86352" lon="4.7175">
        <ele>197</ele>
        <time>2017-07-11T09:17:23Z</time>
      </trkpt>
      <trkpt lat="45.86348" lon="4.71747">
        <ele>195</ele>
        <time>2017-07-11T09:17:24Z</time>
      </trkpt>
      <trkpt lat="45.86342" lon="4.71743">
        <ele>195</ele>
        <time>2017-07-11T09:17:25Z</time>
      </trkpt>
      <trkpt lat="45.86337" lon="4.7174">
        <ele>195</ele>
        <time>2017-07-11T09:17:26Z</time>
      </trkpt>
      <trkpt lat="45.86332" lon="4.71736">
        <ele>196</ele>
        <time>2017-07-11T09:17:27Z</time>
      </trkpt>
      <trkpt lat="45.86327" lon="4.71732">
        <ele>196</ele>
        <time>2017-07-11T09:17:28Z</time>
      </trkpt>
      <trkpt lat="45.86322" lon="4.71728">
        <ele>196</ele>
        <time>2017-07-11T09:17:29Z</time>
      </trkpt>
      <trkpt lat="45.86318" lon="4.71725">
        <ele>196</ele>
        <time>2017-07-11T09:17:30Z</time>
      </trkpt>
      <trkpt lat="45.86313" lon="4.71721">
        <ele>196</ele>
        <time>2017-07-11T09:17:31Z</time>
      </trkpt>
      <trkpt lat="45.86308" lon="4.71717">
        <ele>196</ele>
        <time>2017-07-11T09:17:32Z</time>
      </trkpt>
      <trkpt lat="45.86304" lon="4.71713">
        <ele>195</ele>
        <time>2017-07-11T09:17:33Z</time>
      </trkpt>
      <trkpt lat="45.86299" lon="4.71709">
        <ele>195</ele>
        <time>2017-07-11T09:17:34Z</time>
      </trkpt>
      <trkpt lat="45.86295" lon="4.71705">
        <ele>195</ele>
        <time>2017-07-11T09:17:35Z</time>
      </trkpt>
      <trkpt lat="45.8629" lon="4.71702">
        <ele>195</ele>
        <time>2017-07-11T09:17:36Z</time>
      </trkpt>
      <trkpt lat="45.86285" lon="4.71698">
        <ele>195</ele>
        <time>2017-07-11T09:17:37Z</time>
      </trkpt>
      <trkpt lat="45.86281" lon="4.71694">
        <ele>195</ele>
        <time>2017-07-11T09:17:38Z</time>
      </trkpt>
      <trkpt lat="45.86277" lon="4.71691">
        <ele>195</ele>
        <time>2017-07-11T09:17:39Z</time>
      </trkpt>
      <trkpt lat="45.86272" lon="4.71687">
        <ele>195</ele>
        <time>2017-07-11T09:17:40Z</time>
      </trkpt>
      <trkpt lat="45.86268" lon="4.71684">
        <ele>195</ele>
        <time>2017-07-11T09:17:41Z</time>
      </trkpt>
      <trkpt lat="45.86263" lon="4.7168">
        <ele>195</ele>
        <time>2017-07-11T09:17:42Z</time>
      </trkpt>
      <trkpt lat="45.86259" lon="4.71675">
        <ele>195</ele>
        <time>2017-07-11T09:17:43Z</time>
      </trkpt>
      <trkpt lat="45.86254" lon="4.71672">
        <ele>195</ele>
        <time>2017-07-11T09:17:44Z</time>
      </trkpt>
      <trkpt lat="45.8625" lon="4.71668">
        <ele>195</ele>
        <time>2017-07-11T09:17:45Z</time>
      </trkpt>
      <trkpt lat="45.86245" lon="4.71665">
        <ele>195</ele>
        <time>2017-07-11T09:17:46Z</time>
      </trkpt>
      <trkpt lat="45.86241" lon="4.71661">
        <ele>195</ele>
        <time>2017-07-11T09:17:47Z</time>
      </trkpt>
      <trkpt lat="45.86237" lon="4.71658">
        <ele>195</ele>
        <time>2017-07-11T09:17:48Z</time>
      </trkpt>
      <trkpt lat="45.86233" lon="4.71655">
        <ele>195</ele>
        <time>2017-07-11T09:17:49Z</time>
      </trkpt>
      <trkpt lat="45.86225" lon="4.71649">
        <ele>195</ele>
        <time>2017-07-11T09:17:51Z</time>
      </trkpt>
      <trkpt lat="45.86221" lon="4.71645">
        <ele>195</ele>
        <time>2017-07-11T09:17:52Z</time>
      </trkpt>
      <trkpt lat="45.86218" lon="4.7164">
        <ele>195</ele>
        <time>2017-07-11T09:17:53Z</time>
      </trkpt>
      <trkpt lat="45.86215" lon="4.71635">
        <ele>195</ele>
        <time>2017-07-11T09:17:54Z</time>
      </trkpt>
      <trkpt lat="45.86213" lon="4.71628">
        <ele>195</ele>
        <time>2017-07-11T09:17:55Z</time>
      </trkpt>
      <trkpt lat="45.86211" lon="4.71621">
        <ele>195</ele>
        <time>2017-07-11T09:17:56Z</time>
      </trkpt>
      <trkpt lat="45.86209" lon="4.71615">
        <ele>195</ele>
        <time>2017-07-11T09:17:57Z</time>
      </trkpt>
      <trkpt lat="45.86207" lon="4.71609">
        <ele>195</ele>
        <time>2017-07-11T09:17:58Z</time>
      </trkpt>
      <trkpt lat="45.86203" lon="4.71604">
        <ele>195</ele>
        <time>2017-07-11T09:17:59Z</time>
      </trkpt>
      <trkpt lat="45.862" lon="4.71598">
        <ele>195</ele>
        <time>2017-07-11T09:18:00Z</time>
      </trkpt>
      <trkpt lat="45.86196" lon="4.71593">
        <ele>195</ele>
        <time>2017-07-11T09:18:01Z</time>
      </trkpt>
      <trkpt lat="45.86192" lon="4.71588">
        <ele>195</ele>
        <time>2017-07-11T09:18:02Z</time>
      </trkpt>
      <trkpt lat="45.86189" lon="4.71582">
        <ele>195</ele>
        <time>2017-07-11T09:18:03Z</time>
      </trkpt>
      <trkpt lat="45.86185" lon="4.71577">
        <ele>195</ele>
        <time>2017-07-11T09:18:04Z</time>
      </trkpt>
      <trkpt lat="45.86182" lon="4.71572">
        <ele>195</ele>
        <time>2017-07-11T09:18:05Z</time>
      </trkpt>
      <trkpt lat="45.86179" lon="4.71567">
        <ele>195</ele>
        <time>2017-07-11T09:18:06Z</time>
      </trkpt>
      <trkpt lat="45.86173" lon="4.71558">
        <ele>195</ele>
        <time>2017-07-11T09:18:08Z</time>
      </trkpt>
      <trkpt lat="45.8617" lon="4.71552">
        <ele>195</ele>
        <time>2017-07-11T09:18:09Z</time>
      </trkpt>
      <trkpt lat="45.86167" lon="4.71547">
        <ele>195</ele>
        <time>2017-07-11T09:18:10Z</time>
      </trkpt>
      <trkpt lat="45.86164" lon="4.71541">
        <ele>195</ele>
        <time>2017-07-11T09:18:11Z</time>
      </trkpt>
      <trkpt lat="45.8616" lon="4.71535">
        <ele>195</ele>
        <time>2017-07-11T09:18:12Z</time>
      </trkpt>
      <trkpt lat="45.86157" lon="4.71529">
        <ele>195</ele>
        <time>2017-07-11T09:18:13Z</time>
      </trkpt>
      <trkpt lat="45.86153" lon="4.71522">
        <ele>195</ele>
        <time>2017-07-11T09:18:14Z</time>
      </trkpt>
      <trkpt lat="45.8615" lon="4.71516">
        <ele>195</ele>
        <time>2017-07-11T09:18:15Z</time>
      </trkpt>
      <trkpt lat="45.86147" lon="4.7151">
        <ele>195</ele>
        <time>2017-07-11T09:18:16Z</time>
      </trkpt>
      <trkpt lat="45.86144" lon="4.71503">
        <ele>195</ele>
        <time>2017-07-11T09:18:17Z</time>
      </trkpt>
      <trkpt lat="45.86142" lon="4.71498">
        <ele>195</ele>
        <time>2017-07-11T09:18:18Z</time>
      </trkpt>
      <trkpt lat="45.86139" lon="4.71492">
        <ele>195</ele>
        <time>2017-07-11T09:18:19Z</time>
      </trkpt>
      <trkpt lat="45.86136" lon="4.71487">
        <ele>195</ele>
        <time>2017-07-11T09:18:20Z</time>
      </trkpt>
      <trkpt lat="45.86134" lon="4.71481">
        <ele>195</ele>
        <time>2017-07-11T09:18:21Z</time>
      </trkpt>
      <trkpt lat="45.86132" lon="4.71476">
        <ele>195</ele>
        <time>2017-07-11T09:18:22Z</time>
      </trkpt>
      <trkpt lat="45.8613" lon="4.71469">
        <ele>195</ele>
        <time>2017-07-11T09:18:23Z</time>
      </trkpt>
      <trkpt lat="45.86128" lon="4.71463">
        <ele>195</ele>
        <time>2017-07-11T09:18:24Z</time>
      </trkpt>
      <trkpt lat="45.86126" lon="4.71456">
        <ele>195</ele>
        <time>2017-07-11T09:18:25Z</time>
      </trkpt>
      <trkpt lat="45.86125" lon="4.71449">
        <ele>195</ele>
        <time>2017-07-11T09:18:26Z</time>
      </trkpt>
      <trkpt lat="45.86124" lon="4.71442">
        <ele>195</ele>
        <time>2017-07-11T09:18:27Z</time>
      </trkpt>
      <trkpt lat="45.86122" lon="4.71435">
        <ele>195</ele>
        <time>2017-07-11T09:18:28Z</time>
      </trkpt>
      <trkpt lat="45.8612" lon="4.71427">
        <ele>195</ele>
        <time>2017-07-11T09:18:29Z</time>
      </trkpt>
      <trkpt lat="45.86118" lon="4.7142">
        <ele>195</ele>
        <time>2017-07-11T09:18:30Z</time>
      </trkpt>
      <trkpt lat="45.86117" lon="4.71413">
        <ele>196</ele>
        <time>2017-07-11T09:18:31Z</time>
      </trkpt>
      <trkpt lat="45.86116" lon="4.71406">
        <ele>196</ele>
        <time>2017-07-11T09:18:32Z</time>
      </trkpt>
      <trkpt lat="45.86116" lon="4.71399">
        <ele>196</ele>
        <time>2017-07-11T09:18:33Z</time>
      </trkpt>
      <trkpt lat="45.86116" lon="4.71392">
        <ele>196</ele>
        <time>2017-07-11T09:18:34Z</time>
      </trkpt>
      <trkpt lat="45.86116" lon="4.71385">
        <ele>196</ele>
        <time>2017-07-11T09:18:35Z</time>
      </trkpt>
      <trkpt lat="45.86115" lon="4.71378">
        <ele>196</ele>
        <time>2017-07-11T09:18:36Z</time>
      </trkpt>
      <trkpt lat="45.86114" lon="4.71371">
        <ele>196</ele>
        <time>2017-07-11T09:18:37Z</time>
      </trkpt>
      <trkpt lat="45.86113" lon="4.71364">
        <ele>196</ele>
        <time>2017-07-11T09:18:38Z</time>
      </trkpt>
      <trkpt lat="45.86112" lon="4.71358">
        <ele>196</ele>
        <time>2017-07-11T09:18:39Z</time>
      </trkpt>
      <trkpt lat="45.86111" lon="4.71351">
        <ele>196</ele>
        <time>2017-07-11T09:18:40Z</time>
      </trkpt>
      <trkpt lat="45.86111" lon="4.71344">
        <ele>196</ele>
        <time>2017-07-11T09:18:41Z</time>
      </trkpt>
      <trkpt lat="45.8611" lon="4.71337">
        <ele>196</ele>
        <time>2017-07-11T09:18:42Z</time>
      </trkpt>
      <trkpt lat="45.86109" lon="4.7133">
        <ele>196</ele>
        <time>2017-07-11T09:18:43Z</time>
      </trkpt>
      <trkpt lat="45.86108" lon="4.71322">
        <ele>196</ele>
        <time>2017-07-11T09:18:44Z</time>
      </trkpt>
      <trkpt lat="45.86106" lon="4.71315">
        <ele>196</ele>
        <time>2017-07-11T09:18:45Z</time>
      </trkpt>
      <trkpt lat="45.86105" lon="4.71308">
        <ele>196</ele>
        <time>2017-07-11T09:18:46Z</time>
      </trkpt>
      <trkpt lat="45.86104" lon="4.71301">
        <ele>197</ele>
        <time>2017-07-11T09:18:47Z</time>
      </trkpt>
      <trkpt lat="45.86102" lon="4.71294">
        <ele>197</ele>
        <time>2017-07-11T09:18:48Z</time>
      </trkpt>
      <trkpt lat="45.86101" lon="4.71287">
        <ele>197</ele>
        <time>2017-07-11T09:18:49Z</time>
      </trkpt>
      <trkpt lat="45.86096" lon="4.71276">
        <ele>197</ele>
        <time>2017-07-11T09:18:51Z</time>
      </trkpt>
      <trkpt lat="45.86094" lon="4.7127">
        <ele>197</ele>
        <time>2017-07-11T09:18:52Z</time>
      </trkpt>
      <trkpt lat="45.86091" lon="4.71265">
        <ele>197</ele>
        <time>2017-07-11T09:18:53Z</time>
      </trkpt>
      <trkpt lat="45.86089" lon="4.71259">
        <ele>197</ele>
        <time>2017-07-11T09:18:54Z</time>
      </trkpt>
      <trkpt lat="45.86084" lon="4.7125">
        <ele>198</ele>
        <time>2017-07-11T09:18:56Z</time>
      </trkpt>
      <trkpt lat="45.86083" lon="4.71243">
        <ele>198</ele>
        <time>2017-07-11T09:18:57Z</time>
      </trkpt>
      <trkpt lat="45.86082" lon="4.71236">
        <ele>198</ele>
        <time>2017-07-11T09:18:58Z</time>
      </trkpt>
      <trkpt lat="45.86082" lon="4.71228">
        <ele>198</ele>
        <time>2017-07-11T09:18:59Z</time>
      </trkpt>
      <trkpt lat="45.86082" lon="4.71222">
        <ele>198</ele>
        <time>2017-07-11T09:19:00Z</time>
      </trkpt>
      <trkpt lat="45.86082" lon="4.71215">
        <ele>198</ele>
        <time>2017-07-11T09:19:01Z</time>
      </trkpt>
      <trkpt lat="45.86083" lon="4.71205">
        <ele>198</ele>
        <time>2017-07-11T09:19:03Z</time>
      </trkpt>
      <trkpt lat="45.86084" lon="4.71199">
        <ele>197</ele>
        <time>2017-07-11T09:19:04Z</time>
      </trkpt>
      <trkpt lat="45.86084" lon="4.71192">
        <ele>197</ele>
        <time>2017-07-11T09:19:05Z</time>
      </trkpt>
      <trkpt lat="45.86086" lon="4.71185">
        <ele>197</ele>
        <time>2017-07-11T09:19:06Z</time>
      </trkpt>
      <trkpt lat="45.86086" lon="4.71177">
        <ele>197</ele>
        <time>2017-07-11T09:19:07Z</time>
      </trkpt>
      <trkpt lat="45.86087" lon="4.7117">
        <ele>198</ele>
        <time>2017-07-11T09:19:08Z</time>
      </trkpt>
      <trkpt lat="45.86088" lon="4.71162">
        <ele>197</ele>
        <time>2017-07-11T09:19:09Z</time>
      </trkpt>
      <trkpt lat="45.86089" lon="4.71156">
        <ele>197</ele>
        <time>2017-07-11T09:19:10Z</time>
      </trkpt>
      <trkpt lat="45.86089" lon="4.71145">
        <ele>197</ele>
        <time>2017-07-11T09:19:12Z</time>
      </trkpt>
      <trkpt lat="45.86088" lon="4.71141">
        <ele>197</ele>
        <time>2017-07-11T09:19:13Z</time>
      </trkpt>
      <trkpt lat="45.86082" lon="4.71133">
        <ele>197</ele>
        <time>2017-07-11T09:19:16Z</time>
      </trkpt>
      <trkpt lat="45.86079" lon="4.71131">
        <ele>197</ele>
        <time>2017-07-11T09:19:17Z</time>
      </trkpt>
      <trkpt lat="45.86073" lon="4.71125">
        <ele>197</ele>
        <time>2017-07-11T09:19:19Z</time>
      </trkpt>
      <trkpt lat="45.86069" lon="4.71121">
        <ele>197</ele>
        <time>2017-07-11T09:19:20Z</time>
      </trkpt>
      <trkpt lat="45.86066" lon="4.71117">
        <ele>197</ele>
        <time>2017-07-11T09:19:21Z</time>
      </trkpt>
      <trkpt lat="45.86062" lon="4.71113">
        <ele>197</ele>
        <time>2017-07-11T09:19:22Z</time>
      </trkpt>
      <trkpt lat="45.86056" lon="4.71104">
        <ele>197</ele>
        <time>2017-07-11T09:19:24Z</time>
      </trkpt>
      <trkpt lat="45.86052" lon="4.711">
        <ele>197</ele>
        <time>2017-07-11T09:19:25Z</time>
      </trkpt>
      <trkpt lat="45.86049" lon="4.71095">
        <ele>197</ele>
        <time>2017-07-11T09:19:26Z</time>
      </trkpt>
      <trkpt lat="45.86046" lon="4.71089">
        <ele>197</ele>
        <time>2017-07-11T09:19:27Z</time>
      </trkpt>
      <trkpt lat="45.86044" lon="4.71083">
        <ele>196</ele>
        <time>2017-07-11T09:19:28Z</time>
      </trkpt>
      <trkpt lat="45.86042" lon="4.71077">
        <ele>196</ele>
        <time>2017-07-11T09:19:29Z</time>
      </trkpt>
      <trkpt lat="45.86041" lon="4.7107">
        <ele>197</ele>
        <time>2017-07-11T09:19:30Z</time>
      </trkpt>
      <trkpt lat="45.86039" lon="4.71063">
        <ele>197</ele>
        <time>2017-07-11T09:19:31Z</time>
      </trkpt>
      <trkpt lat="45.86037" lon="4.71056">
        <ele>197</ele>
        <time>2017-07-11T09:19:32Z</time>
      </trkpt>
      <trkpt lat="45.86035" lon="4.71049">
        <ele>197</ele>
        <time>2017-07-11T09:19:33Z</time>
      </trkpt>
      <trkpt lat="45.86033" lon="4.71038">
        <ele>197</ele>
        <time>2017-07-11T09:19:35Z</time>
      </trkpt>
      <trkpt lat="45.86032" lon="4.71032">
        <ele>197</ele>
        <time>2017-07-11T09:19:36Z</time>
      </trkpt>
      <trkpt lat="45.86027" lon="4.71023">
        <ele>197</ele>
        <time>2017-07-11T09:19:38Z</time>
      </trkpt>
      <trkpt lat="45.86024" lon="4.71018">
        <ele>197</ele>
        <time>2017-07-11T09:19:39Z</time>
      </trkpt>
      <trkpt lat="45.86021" lon="4.71012">
        <ele>197</ele>
        <time>2017-07-11T09:19:40Z</time>
      </trkpt>
      <trkpt lat="45.86017" lon="4.71006">
        <ele>197</ele>
        <time>2017-07-11T09:19:41Z</time>
      </trkpt>
      <trkpt lat="45.86014" lon="4.71001">
        <ele>197</ele>
        <time>2017-07-11T09:19:42Z</time>
      </trkpt>
      <trkpt lat="45.86009" lon="4.70996">
        <ele>197</ele>
        <time>2017-07-11T09:19:43Z</time>
      </trkpt>
      <trkpt lat="45.86005" lon="4.70992">
        <ele>197</ele>
        <time>2017-07-11T09:19:44Z</time>
      </trkpt>
      <trkpt lat="45.86" lon="4.70988">
        <ele>197</ele>
        <time>2017-07-11T09:19:45Z</time>
      </trkpt>
      <trkpt lat="45.85996" lon="4.70984">
        <ele>197</ele>
        <time>2017-07-11T09:19:46Z</time>
      </trkpt>
      <trkpt lat="45.85992" lon="4.7098">
        <ele>197</ele>
        <time>2017-07-11T09:19:47Z</time>
      </trkpt>
      <trkpt lat="45.85983" lon="4.70976">
        <ele>197</ele>
        <time>2017-07-11T09:19:49Z</time>
      </trkpt>
      <trkpt lat="45.85979" lon="4.70974">
        <ele>197</ele>
        <time>2017-07-11T09:19:50Z</time>
      </trkpt>
      <trkpt lat="45.85971" lon="4.70971">
        <ele>197</ele>
        <time>2017-07-11T09:19:52Z</time>
      </trkpt>
      <trkpt lat="45.85966" lon="4.7097">
        <ele>197</ele>
        <time>2017-07-11T09:19:53Z</time>
      </trkpt>
      <trkpt lat="45.85958" lon="4.70968">
        <ele>197</ele>
        <time>2017-07-11T09:19:55Z</time>
      </trkpt>
      <trkpt lat="45.85953" lon="4.70967">
        <ele>197</ele>
        <time>2017-07-11T09:19:56Z</time>
      </trkpt>
      <trkpt lat="45.85945" lon="4.70964">
        <ele>197</ele>
        <time>2017-07-11T09:19:58Z</time>
      </trkpt>
      <trkpt lat="45.85942" lon="4.7096">
        <ele>197</ele>
        <time>2017-07-11T09:19:59Z</time>
      </trkpt>
      <trkpt lat="45.8594" lon="4.70951">
        <ele>197</ele>
        <time>2017-07-11T09:20:01Z</time>
      </trkpt>
      <trkpt lat="45.85941" lon="4.70945">
        <ele>197</ele>
        <time>2017-07-11T09:20:02Z</time>
      </trkpt>
      <trkpt lat="45.85942" lon="4.70939">
        <ele>197</ele>
        <time>2017-07-11T09:20:03Z</time>
      </trkpt>
      <trkpt lat="45.85944" lon="4.70932">
        <ele>197</ele>
        <time>2017-07-11T09:20:04Z</time>
      </trkpt>
      <trkpt lat="45.85945" lon="4.70925">
        <ele>197</ele>
        <time>2017-07-11T09:20:05Z</time>
      </trkpt>
      <trkpt lat="45.85947" lon="4.70918">
        <ele>197</ele>
        <time>2017-07-11T09:20:06Z</time>
      </trkpt>
      <trkpt lat="45.85949" lon="4.70911">
        <ele>197</ele>
        <time>2017-07-11T09:20:07Z</time>
      </trkpt>
      <trkpt lat="45.8595" lon="4.70904">
        <ele>197</ele>
        <time>2017-07-11T09:20:08Z</time>
      </trkpt>
      <trkpt lat="45.85951" lon="4.70893">
        <ele>197</ele>
        <time>2017-07-11T09:20:10Z</time>
      </trkpt>
      <trkpt lat="45.85953" lon="4.70888">
        <ele>197</ele>
        <time>2017-07-11T09:20:11Z</time>
      </trkpt>
      <trkpt lat="45.85955" lon="4.70881">
        <ele>197</ele>
        <time>2017-07-11T09:20:12Z</time>
      </trkpt>
      <trkpt lat="45.85957" lon="4.70874">
        <ele>196</ele>
        <time>2017-07-11T09:20:13Z</time>
      </trkpt>
      <trkpt lat="45.85959" lon="4.70868">
        <ele>196</ele>
        <time>2017-07-11T09:20:14Z</time>
      </trkpt>
      <trkpt lat="45.8596" lon="4.70861">
        <ele>196</ele>
        <time>2017-07-11T09:20:15Z</time>
      </trkpt>
      <trkpt lat="45.85962" lon="4.70848">
        <ele>196</ele>
        <time>2017-07-11T09:20:17Z</time>
      </trkpt>
      <trkpt lat="45.85962" lon="4.70842">
        <ele>196</ele>
        <time>2017-07-11T09:20:18Z</time>
      </trkpt>
      <trkpt lat="45.85963" lon="4.70835">
        <ele>196</ele>
        <time>2017-07-11T09:20:19Z</time>
      </trkpt>
      <trkpt lat="45.85962" lon="4.70828">
        <ele>196</ele>
        <time>2017-07-11T09:20:20Z</time>
      </trkpt>
      <trkpt lat="45.85962" lon="4.70821">
        <ele>195</ele>
        <time>2017-07-11T09:20:21Z</time>
      </trkpt>
      <trkpt lat="45.8596" lon="4.70813">
        <ele>195</ele>
        <time>2017-07-11T09:20:22Z</time>
      </trkpt>
      <trkpt lat="45.85959" lon="4.70806">
        <ele>195</ele>
        <time>2017-07-11T09:20:23Z</time>
      </trkpt>
      <trkpt lat="45.85958" lon="4.70798">
        <ele>195</ele>
        <time>2017-07-11T09:20:24Z</time>
      </trkpt>
      <trkpt lat="45.85959" lon="4.70791">
        <ele>195</ele>
        <time>2017-07-11T09:20:25Z</time>
      </trkpt>
      <trkpt lat="45.85958" lon="4.70784">
        <ele>195</ele>
        <time>2017-07-11T09:20:26Z</time>
      </trkpt>
      <trkpt lat="45.85958" lon="4.70777">
        <ele>195</ele>
        <time>2017-07-11T09:20:27Z</time>
      </trkpt>
      <trkpt lat="45.85959" lon="4.7077">
        <ele>195</ele>
        <time>2017-07-11T09:20:28Z</time>
      </trkpt>
      <trkpt lat="45.85959" lon="4.70763">
        <ele>195</ele>
        <time>2017-07-11T09:20:29Z</time>
      </trkpt>
      <trkpt lat="45.8596" lon="4.70756">
        <ele>195</ele>
        <time>2017-07-11T09:20:30Z</time>
      </trkpt>
      <trkpt lat="45.8596" lon="4.70749">
        <ele>194</ele>
        <time>2017-07-11T09:20:31Z</time>
      </trkpt>
      <trkpt lat="45.85961" lon="4.70742">
        <ele>194</ele>
        <time>2017-07-11T09:20:32Z</time>
      </trkpt>
      <trkpt lat="45.85962" lon="4.70734">
        <ele>194</ele>
        <time>2017-07-11T09:20:33Z</time>
      </trkpt>
      <trkpt lat="45.85963" lon="4.70727">
        <ele>194</ele>
        <time>2017-07-11T09:20:34Z</time>
      </trkpt>
      <trkpt lat="45.85963" lon="4.70719">
        <ele>194</ele>
        <time>2017-07-11T09:20:35Z</time>
      </trkpt>
      <trkpt lat="45.85964" lon="4.70712">
        <ele>194</ele>
        <time>2017-07-11T09:20:36Z</time>
      </trkpt>
      <trkpt lat="45.85964" lon="4.70704">
        <ele>194</ele>
        <time>2017-07-11T09:20:37Z</time>
      </trkpt>
      <trkpt lat="45.85964" lon="4.70697">
        <ele>194</ele>
        <time>2017-07-11T09:20:38Z</time>
      </trkpt>
      <trkpt lat="45.85964" lon="4.7069">
        <ele>194</ele>
        <time>2017-07-11T09:20:39Z</time>
      </trkpt>
      <trkpt lat="45.85964" lon="4.70683">
        <ele>194</ele>
        <time>2017-07-11T09:20:40Z</time>
      </trkpt>
      <trkpt lat="45.85961" lon="4.70675">
        <ele>194</ele>
        <time>2017-07-11T09:20:41Z</time>
      </trkpt>
      <trkpt lat="45.85959" lon="4.70668">
        <ele>194</ele>
        <time>2017-07-11T09:20:42Z</time>
      </trkpt>
      <trkpt lat="45.85956" lon="4.70661">
        <ele>194</ele>
        <time>2017-07-11T09:20:43Z</time>
      </trkpt>
      <trkpt lat="45.85952" lon="4.70655">
        <ele>194</ele>
        <time>2017-07-11T09:20:44Z</time>
      </trkpt>
      <trkpt lat="45.85948" lon="4.70648">
        <ele>194</ele>
        <time>2017-07-11T09:20:45Z</time>
      </trkpt>
      <trkpt lat="45.85944" lon="4.70642">
        <ele>194</ele>
        <time>2017-07-11T09:20:46Z</time>
      </trkpt>
      <trkpt lat="45.8594" lon="4.70636">
        <ele>194</ele>
        <time>2017-07-11T09:20:47Z</time>
      </trkpt>
      <trkpt lat="45.85936" lon="4.70631">
        <ele>194</ele>
        <time>2017-07-11T09:20:48Z</time>
      </trkpt>
      <trkpt lat="45.85932" lon="4.70625">
        <ele>194</ele>
        <time>2017-07-11T09:20:49Z</time>
      </trkpt>
      <trkpt lat="45.85929" lon="4.70619">
        <ele>194</ele>
        <time>2017-07-11T09:20:50Z</time>
      </trkpt>
      <trkpt lat="45.85926" lon="4.70613">
        <ele>194</ele>
        <time>2017-07-11T09:20:51Z</time>
      </trkpt>
      <trkpt lat="45.85922" lon="4.70608">
        <ele>194</ele>
        <time>2017-07-11T09:20:52Z</time>
      </trkpt>
      <trkpt lat="45.85919" lon="4.70603">
        <ele>194</ele>
        <time>2017-07-11T09:20:53Z</time>
      </trkpt>
      <trkpt lat="45.85916" lon="4.70598">
        <ele>195</ele>
        <time>2017-07-11T09:20:54Z</time>
      </trkpt>
      <trkpt lat="45.85912" lon="4.70592">
        <ele>195</ele>
        <time>2017-07-11T09:20:55Z</time>
      </trkpt>
      <trkpt lat="45.85908" lon="4.70587">
        <ele>195</ele>
        <time>2017-07-11T09:20:56Z</time>
      </trkpt>
      <trkpt lat="45.85904" lon="4.70582">
        <ele>195</ele>
        <time>2017-07-11T09:20:57Z</time>
      </trkpt>
      <trkpt lat="45.85899" lon="4.70579">
        <ele>195</ele>
        <time>2017-07-11T09:20:58Z</time>
      </trkpt>
      <trkpt lat="45.85893" lon="4.70577">
        <ele>195</ele>
        <time>2017-07-11T09:20:59Z</time>
      </trkpt>
      <trkpt lat="45.85888" lon="4.70576">
        <ele>195</ele>
        <time>2017-07-11T09:21:00Z</time>
      </trkpt>
      <trkpt lat="45.85882" lon="4.70575">
        <ele>195</ele>
        <time>2017-07-11T09:21:01Z</time>
      </trkpt>
      <trkpt lat="45.85876" lon="4.70574">
        <ele>195</ele>
        <time>2017-07-11T09:21:02Z</time>
      </trkpt>
      <trkpt lat="45.85871" lon="4.70573">
        <ele>195</ele>
        <time>2017-07-11T09:21:03Z</time>
      </trkpt>
      <trkpt lat="45.85865" lon="4.70571">
        <ele>195</ele>
        <time>2017-07-11T09:21:04Z</time>
      </trkpt>
      <trkpt lat="45.8586" lon="4.70569">
        <ele>195</ele>
        <time>2017-07-11T09:21:05Z</time>
      </trkpt>
      <trkpt lat="45.85854" lon="4.70567">
        <ele>195</ele>
        <time>2017-07-11T09:21:06Z</time>
      </trkpt>
      <trkpt lat="45.8585" lon="4.70565">
        <ele>195</ele>
        <time>2017-07-11T09:21:07Z</time>
      </trkpt>
      <trkpt lat="45.85845" lon="4.70562">
        <ele>195</ele>
        <time>2017-07-11T09:21:08Z</time>
      </trkpt>
      <trkpt lat="45.8584" lon="4.7056">
        <ele>195</ele>
        <time>2017-07-11T09:21:09Z</time>
      </trkpt>
      <trkpt lat="45.85835" lon="4.70558">
        <ele>195</ele>
        <time>2017-07-11T09:21:10Z</time>
      </trkpt>
      <trkpt lat="45.85831" lon="4.70556">
        <ele>195</ele>
        <time>2017-07-11T09:21:11Z</time>
      </trkpt>
      <trkpt lat="45.85826" lon="4.70553">
        <ele>195</ele>
        <time>2017-07-11T09:21:12Z</time>
      </trkpt>
      <trkpt lat="45.85821" lon="4.70551">
        <ele>195</ele>
        <time>2017-07-11T09:21:13Z</time>
      </trkpt>
      <trkpt lat="45.85816" lon="4.70548">
        <ele>195</ele>
        <time>2017-07-11T09:21:14Z</time>
      </trkpt>
      <trkpt lat="45.85811" lon="4.70546">
        <ele>195</ele>
        <time>2017-07-11T09:21:15Z</time>
      </trkpt>
      <trkpt lat="45.85806" lon="4.70544">
        <ele>195</ele>
        <time>2017-07-11T09:21:16Z</time>
      </trkpt>
      <trkpt lat="45.85802" lon="4.70543">
        <ele>195</ele>
        <time>2017-07-11T09:21:17Z</time>
      </trkpt>
      <trkpt lat="45.85798" lon="4.70541">
        <ele>195</ele>
        <time>2017-07-11T09:21:18Z</time>
      </trkpt>
      <trkpt lat="45.8579" lon="4.70536">
        <ele>196</ele>
        <time>2017-07-11T09:21:20Z</time>
      </trkpt>
      <trkpt lat="45.85786" lon="4.70534">
        <ele>196</ele>
        <time>2017-07-11T09:21:21Z</time>
      </trkpt>
      <trkpt lat="45.85778" lon="4.70529">
        <ele>196</ele>
        <time>2017-07-11T09:21:23Z</time>
      </trkpt>
      <trkpt lat="45.85774" lon="4.70526">
        <ele>196</ele>
        <time>2017-07-11T09:21:24Z</time>
      </trkpt>
      <trkpt lat="45.85769" lon="4.70522">
        <ele>196</ele>
        <time>2017-07-11T09:21:25Z</time>
      </trkpt>
      <trkpt lat="45.85765" lon="4.70518">
        <ele>196</ele>
        <time>2017-07-11T09:21:26Z</time>
      </trkpt>
      <trkpt lat="45.8576" lon="4.70514">
        <ele>196</ele>
        <time>2017-07-11T09:21:27Z</time>
      </trkpt>
      <trkpt lat="45.85756" lon="4.70511">
        <ele>196</ele>
        <time>2017-07-11T09:21:28Z</time>
      </trkpt>
      <trkpt lat="45.85751" lon="4.70508">
        <ele>196</ele>
        <time>2017-07-11T09:21:29Z</time>
      </trkpt>
      <trkpt lat="45.85747" lon="4.70505">
        <ele>196</ele>
        <time>2017-07-11T09:21:30Z</time>
      </trkpt>
      <trkpt lat="45.8574" lon="4.70497">
        <ele>196</ele>
        <time>2017-07-11T09:21:32Z</time>
      </trkpt>
      <trkpt lat="45.85737" lon="4.70493">
        <ele>196</ele>
        <time>2017-07-11T09:21:33Z</time>
      </trkpt>
      <trkpt lat="45.85734" lon="4.70487">
        <ele>196</ele>
        <time>2017-07-11T09:21:34Z</time>
      </trkpt>
      <trkpt lat="45.85731" lon="4.70482">
        <ele>196</ele>
        <time>2017-07-11T09:21:35Z</time>
      </trkpt>
      <trkpt lat="45.85728" lon="4.70476">
        <ele>196</ele>
        <time>2017-07-11T09:21:36Z</time>
      </trkpt>
      <trkpt lat="45.85725" lon="4.7047">
        <ele>196</ele>
        <time>2017-07-11T09:21:37Z</time>
      </trkpt>
      <trkpt lat="45.85724" lon="4.70464">
        <ele>196</ele>
        <time>2017-07-11T09:21:38Z</time>
      </trkpt>
      <trkpt lat="45.85723" lon="4.70456">
        <ele>196</ele>
        <time>2017-07-11T09:21:39Z</time>
      </trkpt>
      <trkpt lat="45.85722" lon="4.70449">
        <ele>196</ele>
        <time>2017-07-11T09:21:40Z</time>
      </trkpt>
      <trkpt lat="45.85721" lon="4.70442">
        <ele>196</ele>
        <time>2017-07-11T09:21:41Z</time>
      </trkpt>
      <trkpt lat="45.8572" lon="4.70434">
        <ele>196</ele>
        <time>2017-07-11T09:21:42Z</time>
      </trkpt>
      <trkpt lat="45.8572" lon="4.70428">
        <ele>196</ele>
        <time>2017-07-11T09:21:43Z</time>
      </trkpt>
      <trkpt lat="45.85719" lon="4.70415">
        <ele>196</ele>
        <time>2017-07-11T09:21:45Z</time>
      </trkpt>
      <trkpt lat="45.85718" lon="4.70409">
        <ele>196</ele>
        <time>2017-07-11T09:21:46Z</time>
      </trkpt>
      <trkpt lat="45.85718" lon="4.70402">
        <ele>196</ele>
        <time>2017-07-11T09:21:47Z</time>
      </trkpt>
      <trkpt lat="45.85718" lon="4.70395">
        <ele>196</ele>
        <time>2017-07-11T09:21:48Z</time>
      </trkpt>
      <trkpt lat="45.85717" lon="4.70388">
        <ele>196</ele>
        <time>2017-07-11T09:21:49Z</time>
      </trkpt>
      <trkpt lat="45.85716" lon="4.7038">
        <ele>196</ele>
        <time>2017-07-11T09:21:50Z</time>
      </trkpt>
      <trkpt lat="45.85715" lon="4.70373">
        <ele>196</ele>
        <time>2017-07-11T09:21:51Z</time>
      </trkpt>
      <trkpt lat="45.85715" lon="4.70366">
        <ele>196</ele>
        <time>2017-07-11T09:21:52Z</time>
      </trkpt>
      <trkpt lat="45.85714" lon="4.70359">
        <ele>196</ele>
        <time>2017-07-11T09:21:53Z</time>
      </trkpt>
      <trkpt lat="45.85712" lon="4.70353">
        <ele>196</ele>
        <time>2017-07-11T09:21:54Z</time>
      </trkpt>
      <trkpt lat="45.85711" lon="4.7034">
        <ele>196</ele>
        <time>2017-07-11T09:21:56Z</time>
      </trkpt>
      <trkpt lat="45.8571" lon="4.70334">
        <ele>196</ele>
        <time>2017-07-11T09:21:57Z</time>
      </trkpt>
      <trkpt lat="45.85709" lon="4.70327">
        <ele>197</ele>
        <time>2017-07-11T09:21:58Z</time>
      </trkpt>
      <trkpt lat="45.85708" lon="4.7032">
        <ele>197</ele>
        <time>2017-07-11T09:21:59Z</time>
      </trkpt>
      <trkpt lat="45.85707" lon="4.70313">
        <ele>197</ele>
        <time>2017-07-11T09:22:00Z</time>
      </trkpt>
      <trkpt lat="45.85706" lon="4.70306">
        <ele>197</ele>
        <time>2017-07-11T09:22:01Z</time>
      </trkpt>
      <trkpt lat="45.85706" lon="4.70299">
        <ele>197</ele>
        <time>2017-07-11T09:22:02Z</time>
      </trkpt>
      <trkpt lat="45.85705" lon="4.70292">
        <ele>197</ele>
        <time>2017-07-11T09:22:03Z</time>
      </trkpt>
      <trkpt lat="45.85704" lon="4.70285">
        <ele>197</ele>
        <time>2017-07-11T09:22:04Z</time>
      </trkpt>
      <trkpt lat="45.85703" lon="4.70279">
        <ele>197</ele>
        <time>2017-07-11T09:22:05Z</time>
      </trkpt>
      <trkpt lat="45.85702" lon="4.70272">
        <ele>197</ele>
        <time>2017-07-11T09:22:06Z</time>
      </trkpt>
      <trkpt lat="45.85701" lon="4.70265">
        <ele>197</ele>
        <time>2017-07-11T09:22:07Z</time>
      </trkpt>
      <trkpt lat="45.85701" lon="4.70258">
        <ele>197</ele>
        <time>2017-07-11T09:22:08Z</time>
      </trkpt>
      <trkpt lat="45.857" lon="4.70252">
        <ele>197</ele>
        <time>2017-07-11T09:22:09Z</time>
      </trkpt>
      <trkpt lat="45.85699" lon="4.70239">
        <ele>197</ele>
        <time>2017-07-11T09:22:11Z</time>
      </trkpt>
      <trkpt lat="45.85698" lon="4.70233">
        <ele>197</ele>
        <time>2017-07-11T09:22:12Z</time>
      </trkpt>
      <trkpt lat="45.85698" lon="4.70226">
        <ele>197</ele>
        <time>2017-07-11T09:22:13Z</time>
      </trkpt>
      <trkpt lat="45.85697" lon="4.70219">
        <ele>197</ele>
        <time>2017-07-11T09:22:14Z</time>
      </trkpt>
      <trkpt lat="45.85695" lon="4.70211">
        <ele>197</ele>
        <time>2017-07-11T09:22:15Z</time>
      </trkpt>
      <trkpt lat="45.85694" lon="4.70204">
        <ele>197</ele>
        <time>2017-07-11T09:22:16Z</time>
      </trkpt>
      <trkpt lat="45.85692" lon="4.70191">
        <ele>197</ele>
        <time>2017-07-11T09:22:18Z</time>
      </trkpt>
      <trkpt lat="45.85691" lon="4.70185">
        <ele>197</ele>
        <time>2017-07-11T09:22:19Z</time>
      </trkpt>
      <trkpt lat="45.85688" lon="4.70173">
        <ele>197</ele>
        <time>2017-07-11T09:22:21Z</time>
      </trkpt>
      <trkpt lat="45.85687" lon="4.70167">
        <ele>197</ele>
        <time>2017-07-11T09:22:22Z</time>
      </trkpt>
      <trkpt lat="45.85686" lon="4.70161">
        <ele>197</ele>
        <time>2017-07-11T09:22:23Z</time>
      </trkpt>
      <trkpt lat="45.85684" lon="4.70154">
        <ele>197</ele>
        <time>2017-07-11T09:22:24Z</time>
      </trkpt>
      <trkpt lat="45.85683" lon="4.70147">
        <ele>197</ele>
        <time>2017-07-11T09:22:25Z</time>
      </trkpt>
      <trkpt lat="45.85682" lon="4.7014">
        <ele>197</ele>
        <time>2017-07-11T09:22:26Z</time>
      </trkpt>
      <trkpt lat="45.85681" lon="4.70133">
        <ele>197</ele>
        <time>2017-07-11T09:22:27Z</time>
      </trkpt>
      <trkpt lat="45.8568" lon="4.70125">
        <ele>197</ele>
        <time>2017-07-11T09:22:28Z</time>
      </trkpt>
      <trkpt lat="45.85679" lon="4.70117">
        <ele>197</ele>
        <time>2017-07-11T09:22:29Z</time>
      </trkpt>
      <trkpt lat="45.8568" lon="4.7011">
        <ele>197</ele>
        <time>2017-07-11T09:22:30Z</time>
      </trkpt>
      <trkpt lat="45.8568" lon="4.70102">
        <ele>196</ele>
        <time>2017-07-11T09:22:31Z</time>
      </trkpt>
      <trkpt lat="45.85681" lon="4.70095">
        <ele>196</ele>
        <time>2017-07-11T09:22:32Z</time>
      </trkpt>
      <trkpt lat="45.8568" lon="4.70083">
        <ele>196</ele>
        <time>2017-07-11T09:22:34Z</time>
      </trkpt>
      <trkpt lat="45.85681" lon="4.70077">
        <ele>196</ele>
        <time>2017-07-11T09:22:35Z</time>
      </trkpt>
      <trkpt lat="45.85682" lon="4.70066">
        <ele>196</ele>
        <time>2017-07-11T09:22:37Z</time>
      </trkpt>
      <trkpt lat="45.85684" lon="4.70061">
        <ele>196</ele>
        <time>2017-07-11T09:22:38Z</time>
      </trkpt>
      <trkpt lat="45.85686" lon="4.70049">
        <ele>195</ele>
        <time>2017-07-11T09:22:40Z</time>
      </trkpt>
      <trkpt lat="45.85688" lon="4.70043">
        <ele>195</ele>
        <time>2017-07-11T09:22:41Z</time>
      </trkpt>
      <trkpt lat="45.85689" lon="4.70036">
        <ele>195</ele>
        <time>2017-07-11T09:22:42Z</time>
      </trkpt>
      <trkpt lat="45.85691" lon="4.70029">
        <ele>195</ele>
        <time>2017-07-11T09:22:43Z</time>
      </trkpt>
      <trkpt lat="45.85692" lon="4.70021">
        <ele>195</ele>
        <time>2017-07-11T09:22:44Z</time>
      </trkpt>
      <trkpt lat="45.85694" lon="4.70014">
        <ele>195</ele>
        <time>2017-07-11T09:22:45Z</time>
      </trkpt>
      <trkpt lat="45.85694" lon="4.70007">
        <ele>195</ele>
        <time>2017-07-11T09:22:46Z</time>
      </trkpt>
      <trkpt lat="45.85694" lon="4.7">
        <ele>195</ele>
        <time>2017-07-11T09:22:47Z</time>
      </trkpt>
      <trkpt lat="45.85693" lon="4.69991">
        <ele>195</ele>
        <time>2017-07-11T09:22:48Z</time>
      </trkpt>
      <trkpt lat="45.85693" lon="4.69983">
        <ele>195</ele>
        <time>2017-07-11T09:22:49Z</time>
      </trkpt>
      <trkpt lat="45.85691" lon="4.69974">
        <ele>195</ele>
        <time>2017-07-11T09:22:50Z</time>
      </trkpt>
      <trkpt lat="45.85689" lon="4.69966">
        <ele>195</ele>
        <time>2017-07-11T09:22:51Z</time>
      </trkpt>
      <trkpt lat="45.85687" lon="4.69959">
        <ele>195</ele>
        <time>2017-07-11T09:22:52Z</time>
      </trkpt>
      <trkpt lat="45.85685" lon="4.69951">
        <ele>195</ele>
        <time>2017-07-11T09:22:53Z</time>
      </trkpt>
      <trkpt lat="45.85683" lon="4.69943">
        <ele>195</ele>
        <time>2017-07-11T09:22:54Z</time>
      </trkpt>
      <trkpt lat="45.85682" lon="4.69935">
        <ele>195</ele>
        <time>2017-07-11T09:22:55Z</time>
      </trkpt>
      <trkpt lat="45.8568" lon="4.69927">
        <ele>195</ele>
        <time>2017-07-11T09:22:56Z</time>
      </trkpt>
      <trkpt lat="45.85678" lon="4.69919">
        <ele>195</ele>
        <time>2017-07-11T09:22:57Z</time>
      </trkpt>
      <trkpt lat="45.85676" lon="4.69912">
        <ele>195</ele>
        <time>2017-07-11T09:22:58Z</time>
      </trkpt>
      <trkpt lat="45.85674" lon="4.69904">
        <ele>195</ele>
        <time>2017-07-11T09:22:59Z</time>
      </trkpt>
      <trkpt lat="45.85672" lon="4.69897">
        <ele>195</ele>
        <time>2017-07-11T09:23:00Z</time>
      </trkpt>
      <trkpt lat="45.85671" lon="4.69889">
        <ele>195</ele>
        <time>2017-07-11T09:23:01Z</time>
      </trkpt>
      <trkpt lat="45.8567" lon="4.69882">
        <ele>195</ele>
        <time>2017-07-11T09:23:02Z</time>
      </trkpt>
      <trkpt lat="45.85669" lon="4.69875">
        <ele>195</ele>
        <time>2017-07-11T09:23:03Z</time>
      </trkpt>
      <trkpt lat="45.85668" lon="4.69867">
        <ele>195</ele>
        <time>2017-07-11T09:23:04Z</time>
      </trkpt>
      <trkpt lat="45.85667" lon="4.6986">
        <ele>195</ele>
        <time>2017-07-11T09:23:05Z</time>
      </trkpt>
      <trkpt lat="45.85666" lon="4.69852">
        <ele>195</ele>
        <time>2017-07-11T09:23:06Z</time>
      </trkpt>
      <trkpt lat="45.85665" lon="4.69844">
        <ele>195</ele>
        <time>2017-07-11T09:23:07Z</time>
      </trkpt>
      <trkpt lat="45.85665" lon="4.69836">
        <ele>195</ele>
        <time>2017-07-11T09:23:08Z</time>
      </trkpt>
      <trkpt lat="45.85664" lon="4.69828">
        <ele>195</ele>
        <time>2017-07-11T09:23:09Z</time>
      </trkpt>
      <trkpt lat="45.85663" lon="4.6982">
        <ele>195</ele>
        <time>2017-07-11T09:23:10Z</time>
      </trkpt>
      <trkpt lat="45.85662" lon="4.69813">
        <ele>195</ele>
        <time>2017-07-11T09:23:11Z</time>
      </trkpt>
      <trkpt lat="45.85661" lon="4.69806">
        <ele>195</ele>
        <time>2017-07-11T09:23:12Z</time>
      </trkpt>
      <trkpt lat="45.85661" lon="4.69799">
        <ele>195</ele>
        <time>2017-07-11T09:23:13Z</time>
      </trkpt>
      <trkpt lat="45.8566" lon="4.69792">
        <ele>195</ele>
        <time>2017-07-11T09:23:14Z</time>
      </trkpt>
      <trkpt lat="45.85659" lon="4.69785">
        <ele>195</ele>
        <time>2017-07-11T09:23:15Z</time>
      </trkpt>
      <trkpt lat="45.85658" lon="4.69778">
        <ele>195</ele>
        <time>2017-07-11T09:23:16Z</time>
      </trkpt>
      <trkpt lat="45.85657" lon="4.6977">
        <ele>195</ele>
        <time>2017-07-11T09:23:17Z</time>
      </trkpt>
      <trkpt lat="45.85656" lon="4.69762">
        <ele>195</ele>
        <time>2017-07-11T09:23:18Z</time>
      </trkpt>
      <trkpt lat="45.85655" lon="4.69754">
        <ele>195</ele>
        <time>2017-07-11T09:23:19Z</time>
      </trkpt>
      <trkpt lat="45.85655" lon="4.69747">
        <ele>195</ele>
        <time>2017-07-11T09:23:20Z</time>
      </trkpt>
      <trkpt lat="45.85654" lon="4.69739">
        <ele>195</ele>
        <time>2017-07-11T09:23:21Z</time>
      </trkpt>
      <trkpt lat="45.85654" lon="4.69732">
        <ele>195</ele>
        <time>2017-07-11T09:23:22Z</time>
      </trkpt>
      <trkpt lat="45.85653" lon="4.69725">
        <ele>195</ele>
        <time>2017-07-11T09:23:23Z</time>
      </trkpt>
      <trkpt lat="45.85652" lon="4.69718">
        <ele>196</ele>
        <time>2017-07-11T09:23:24Z</time>
      </trkpt>
      <trkpt lat="45.85652" lon="4.69711">
        <ele>196</ele>
        <time>2017-07-11T09:23:25Z</time>
      </trkpt>
      <trkpt lat="45.85651" lon="4.69704">
        <ele>196</ele>
        <time>2017-07-11T09:23:26Z</time>
      </trkpt>
      <trkpt lat="45.85651" lon="4.69697">
        <ele>196</ele>
        <time>2017-07-11T09:23:27Z</time>
      </trkpt>
      <trkpt lat="45.8565" lon="4.6969">
        <ele>196</ele>
        <time>2017-07-11T09:23:28Z</time>
      </trkpt>
      <trkpt lat="45.85649" lon="4.69683">
        <ele>196</ele>
        <time>2017-07-11T09:23:29Z</time>
      </trkpt>
      <trkpt lat="45.85649" lon="4.69675">
        <ele>196</ele>
        <time>2017-07-11T09:23:30Z</time>
      </trkpt>
      <trkpt lat="45.85648" lon="4.69667">
        <ele>196</ele>
        <time>2017-07-11T09:23:31Z</time>
      </trkpt>
      <trkpt lat="45.85647" lon="4.6966">
        <ele>197</ele>
        <time>2017-07-11T09:23:32Z</time>
      </trkpt>
      <trkpt lat="45.85646" lon="4.69653">
        <ele>197</ele>
        <time>2017-07-11T09:23:33Z</time>
      </trkpt>
      <trkpt lat="45.85646" lon="4.69645">
        <ele>197</ele>
        <time>2017-07-11T09:23:34Z</time>
      </trkpt>
      <trkpt lat="45.85645" lon="4.69638">
        <ele>197</ele>
        <time>2017-07-11T09:23:35Z</time>
      </trkpt>
      <trkpt lat="45.85645" lon="4.69632">
        <ele>197</ele>
        <time>2017-07-11T09:23:36Z</time>
      </trkpt>
      <trkpt lat="45.85644" lon="4.69625">
        <ele>197</ele>
        <time>2017-07-11T09:23:37Z</time>
      </trkpt>
      <trkpt lat="45.85643" lon="4.69612">
        <ele>197</ele>
        <time>2017-07-11T09:23:39Z</time>
      </trkpt>
      <trkpt lat="45.85642" lon="4.69606">
        <ele>197</ele>
        <time>2017-07-11T09:23:40Z</time>
      </trkpt>
      <trkpt lat="45.85642" lon="4.69599">
        <ele>197</ele>
        <time>2017-07-11T09:23:41Z</time>
      </trkpt>
      <trkpt lat="45.85641" lon="4.69592">
        <ele>197</ele>
        <time>2017-07-11T09:23:42Z</time>
      </trkpt>
      <trkpt lat="45.8564" lon="4.69585">
        <ele>197</ele>
        <time>2017-07-11T09:23:43Z</time>
      </trkpt>
      <trkpt lat="45.8564" lon="4.69579">
        <ele>198</ele>
        <time>2017-07-11T09:23:44Z</time>
      </trkpt>
      <trkpt lat="45.8564" lon="4.69567">
        <ele>198</ele>
        <time>2017-07-11T09:23:46Z</time>
      </trkpt>
      <trkpt lat="45.85639" lon="4.69561">
        <ele>198</ele>
        <time>2017-07-11T09:23:47Z</time>
      </trkpt>
      <trkpt lat="45.85639" lon="4.69555">
        <ele>198</ele>
        <time>2017-07-11T09:23:48Z</time>
      </trkpt>
      <trkpt lat="45.85639" lon="4.69548">
        <ele>198</ele>
        <time>2017-07-11T09:23:49Z</time>
      </trkpt>
      <trkpt lat="45.85638" lon="4.6954">
        <ele>198</ele>
        <time>2017-07-11T09:23:50Z</time>
      </trkpt>
      <trkpt lat="45.85638" lon="4.69534">
        <ele>198</ele>
        <time>2017-07-11T09:23:51Z</time>
      </trkpt>
      <trkpt lat="45.85637" lon="4.69526">
        <ele>198</ele>
        <time>2017-07-11T09:23:52Z</time>
      </trkpt>
      <trkpt lat="45.85636" lon="4.69519">
        <ele>198</ele>
        <time>2017-07-11T09:23:53Z</time>
      </trkpt>
      <trkpt lat="45.85635" lon="4.69513">
        <ele>198</ele>
        <time>2017-07-11T09:23:54Z</time>
      </trkpt>
      <trkpt lat="45.85635" lon="4.69506">
        <ele>198</ele>
        <time>2017-07-11T09:23:55Z</time>
      </trkpt>
      <trkpt lat="45.85633" lon="4.69499">
        <ele>198</ele>
        <time>2017-07-11T09:23:56Z</time>
      </trkpt>
      <trkpt lat="45.85632" lon="4.69492">
        <ele>198</ele>
        <time>2017-07-11T09:23:57Z</time>
      </trkpt>
      <trkpt lat="45.85631" lon="4.69485">
        <ele>198</ele>
        <time>2017-07-11T09:23:58Z</time>
      </trkpt>
      <trkpt lat="45.8563" lon="4.69477">
        <ele>198</ele>
        <time>2017-07-11T09:23:59Z</time>
      </trkpt>
      <trkpt lat="45.8563" lon="4.6947">
        <ele>198</ele>
        <time>2017-07-11T09:24:00Z</time>
      </trkpt>
      <trkpt lat="45.85629" lon="4.69462">
        <ele>198</ele>
        <time>2017-07-11T09:24:01Z</time>
      </trkpt>
      <trkpt lat="45.85628" lon="4.69455">
        <ele>198</ele>
        <time>2017-07-11T09:24:02Z</time>
      </trkpt>
      <trkpt lat="45.85627" lon="4.69449">
        <ele>198</ele>
        <time>2017-07-11T09:24:03Z</time>
      </trkpt>
      <trkpt lat="45.85627" lon="4.69442">
        <ele>198</ele>
        <time>2017-07-11T09:24:04Z</time>
      </trkpt>
      <trkpt lat="45.85626" lon="4.69435">
        <ele>198</ele>
        <time>2017-07-11T09:24:05Z</time>
      </trkpt>
      <trkpt lat="45.85625" lon="4.69428">
        <ele>198</ele>
        <time>2017-07-11T09:24:06Z</time>
      </trkpt>
      <trkpt lat="45.85624" lon="4.6942">
        <ele>198</ele>
        <time>2017-07-11T09:24:07Z</time>
      </trkpt>
      <trkpt lat="45.85624" lon="4.69413">
        <ele>198</ele>
        <time>2017-07-11T09:24:08Z</time>
      </trkpt>
      <trkpt lat="45.85623" lon="4.69406">
        <ele>198</ele>
        <time>2017-07-11T09:24:09Z</time>
      </trkpt>
      <trkpt lat="45.85623" lon="4.69399">
        <ele>198</ele>
        <time>2017-07-11T09:24:10Z</time>
      </trkpt>
      <trkpt lat="45.85622" lon="4.69393">
        <ele>198</ele>
        <time>2017-07-11T09:24:11Z</time>
      </trkpt>
      <trkpt lat="45.85621" lon="4.6938">
        <ele>198</ele>
        <time>2017-07-11T09:24:13Z</time>
      </trkpt>
      <trkpt lat="45.8562" lon="4.69374">
        <ele>198</ele>
        <time>2017-07-11T09:24:14Z</time>
      </trkpt>
      <trkpt lat="45.85619" lon="4.69367">
        <ele>198</ele>
        <time>2017-07-11T09:24:15Z</time>
      </trkpt>
      <trkpt lat="45.85619" lon="4.6936">
        <ele>198</ele>
        <time>2017-07-11T09:24:16Z</time>
      </trkpt>
      <trkpt lat="45.85618" lon="4.69354">
        <ele>198</ele>
        <time>2017-07-11T09:24:17Z</time>
      </trkpt>
      <trkpt lat="45.85618" lon="4.69347">
        <ele>198</ele>
        <time>2017-07-11T09:24:18Z</time>
      </trkpt>
      <trkpt lat="45.85617" lon="4.69339">
        <ele>198</ele>
        <time>2017-07-11T09:24:19Z</time>
      </trkpt>
      <trkpt lat="45.85616" lon="4.69332">
        <ele>198</ele>
        <time>2017-07-11T09:24:20Z</time>
      </trkpt>
      <trkpt lat="45.85615" lon="4.69325">
        <ele>198</ele>
        <time>2017-07-11T09:24:21Z</time>
      </trkpt>
      <trkpt lat="45.85615" lon="4.69318">
        <ele>198</ele>
        <time>2017-07-11T09:24:22Z</time>
      </trkpt>
      <trkpt lat="45.85613" lon="4.69306">
        <ele>198</ele>
        <time>2017-07-11T09:24:24Z</time>
      </trkpt>
      <trkpt lat="45.85613" lon="4.69301">
        <ele>198</ele>
        <time>2017-07-11T09:24:25Z</time>
      </trkpt>
      <trkpt lat="45.85612" lon="4.69289">
        <ele>198</ele>
        <time>2017-07-11T09:24:27Z</time>
      </trkpt>
      <trkpt lat="45.85612" lon="4.69283">
        <ele>198</ele>
        <time>2017-07-11T09:24:28Z</time>
      </trkpt>
      <trkpt lat="45.85612" lon="4.69277">
        <ele>198</ele>
        <time>2017-07-11T09:24:29Z</time>
      </trkpt>
      <trkpt lat="45.85613" lon="4.6927">
        <ele>198</ele>
        <time>2017-07-11T09:24:30Z</time>
      </trkpt>
      <trkpt lat="45.85613" lon="4.69263">
        <ele>198</ele>
        <time>2017-07-11T09:24:31Z</time>
      </trkpt>
      <trkpt lat="45.85613" lon="4.69256">
        <ele>198</ele>
        <time>2017-07-11T09:24:32Z</time>
      </trkpt>
      <trkpt lat="45.85611" lon="4.69249">
        <ele>199</ele>
        <time>2017-07-11T09:24:33Z</time>
      </trkpt>
      <trkpt lat="45.85609" lon="4.69243">
        <ele>199</ele>
        <time>2017-07-11T09:24:34Z</time>
      </trkpt>
      <trkpt lat="45.85605" lon="4.69231">
        <ele>199</ele>
        <time>2017-07-11T09:24:36Z</time>
      </trkpt>
      <trkpt lat="45.85604" lon="4.69225">
        <ele>199</ele>
        <time>2017-07-11T09:24:37Z</time>
      </trkpt>
      <trkpt lat="45.85604" lon="4.69218">
        <ele>199</ele>
        <time>2017-07-11T09:24:38Z</time>
      </trkpt>
      <trkpt lat="45.85603" lon="4.69211">
        <ele>199</ele>
        <time>2017-07-11T09:24:39Z</time>
      </trkpt>
      <trkpt lat="45.85603" lon="4.69204">
        <ele>199</ele>
        <time>2017-07-11T09:24:40Z</time>
      </trkpt>
      <trkpt lat="45.85602" lon="4.69196">
        <ele>199</ele>
        <time>2017-07-11T09:24:41Z</time>
      </trkpt>
      <trkpt lat="45.85602" lon="4.69188">
        <ele>199</ele>
        <time>2017-07-11T09:24:42Z</time>
      </trkpt>
      <trkpt lat="45.85601" lon="4.6918">
        <ele>199</ele>
        <time>2017-07-11T09:24:43Z</time>
      </trkpt>
      <trkpt lat="45.856" lon="4.69173">
        <ele>199</ele>
        <time>2017-07-11T09:24:44Z</time>
      </trkpt>
      <trkpt lat="45.85599" lon="4.69165">
        <ele>199</ele>
        <time>2017-07-11T09:24:45Z</time>
      </trkpt>
      <trkpt lat="45.85598" lon="4.69158">
        <ele>199</ele>
        <time>2017-07-11T09:24:46Z</time>
      </trkpt>
      <trkpt lat="45.85597" lon="4.69151">
        <ele>199</ele>
        <time>2017-07-11T09:24:47Z</time>
      </trkpt>
      <trkpt lat="45.85597" lon="4.69143">
        <ele>199</ele>
        <time>2017-07-11T09:24:48Z</time>
      </trkpt>
      <trkpt lat="45.85597" lon="4.69136">
        <ele>199</ele>
        <time>2017-07-11T09:24:49Z</time>
      </trkpt>
      <trkpt lat="45.85596" lon="4.69128">
        <ele>198</ele>
        <time>2017-07-11T09:24:50Z</time>
      </trkpt>
      <trkpt lat="45.85595" lon="4.69121">
        <ele>198</ele>
        <time>2017-07-11T09:24:51Z</time>
      </trkpt>
      <trkpt lat="45.85594" lon="4.69114">
        <ele>199</ele>
        <time>2017-07-11T09:24:52Z</time>
      </trkpt>
      <trkpt lat="45.85593" lon="4.69107">
        <ele>199</ele>
        <time>2017-07-11T09:24:53Z</time>
      </trkpt>
      <trkpt lat="45.85592" lon="4.69099">
        <ele>199</ele>
        <time>2017-07-11T09:24:54Z</time>
      </trkpt>
      <trkpt lat="45.85592" lon="4.69092">
        <ele>199</ele>
        <time>2017-07-11T09:24:55Z</time>
      </trkpt>
      <trkpt lat="45.85592" lon="4.69085">
        <ele>199</ele>
        <time>2017-07-11T09:24:56Z</time>
      </trkpt>
      <trkpt lat="45.85591" lon="4.69078">
        <ele>199</ele>
        <time>2017-07-11T09:24:57Z</time>
      </trkpt>
      <trkpt lat="45.8559" lon="4.69071">
        <ele>199</ele>
        <time>2017-07-11T09:24:58Z</time>
      </trkpt>
      <trkpt lat="45.85589" lon="4.69063">
        <ele>199</ele>
        <time>2017-07-11T09:24:59Z</time>
      </trkpt>
      <trkpt lat="45.85589" lon="4.69056">
        <ele>199</ele>
        <time>2017-07-11T09:25:00Z</time>
      </trkpt>
      <trkpt lat="45.85588" lon="4.69048">
        <ele>199</ele>
        <time>2017-07-11T09:25:01Z</time>
      </trkpt>
      <trkpt lat="45.85587" lon="4.69041">
        <ele>199</ele>
        <time>2017-07-11T09:25:02Z</time>
      </trkpt>
      <trkpt lat="45.85586" lon="4.69033">
        <ele>199</ele>
        <time>2017-07-11T09:25:03Z</time>
      </trkpt>
      <trkpt lat="45.85586" lon="4.69026">
        <ele>199</ele>
        <time>2017-07-11T09:25:04Z</time>
      </trkpt>
      <trkpt lat="45.85585" lon="4.6902">
        <ele>199</ele>
        <time>2017-07-11T09:25:05Z</time>
      </trkpt>
      <trkpt lat="45.85584" lon="4.69007">
        <ele>200</ele>
        <time>2017-07-11T09:25:07Z</time>
      </trkpt>
      <trkpt lat="45.85583" lon="4.69001">
        <ele>200</ele>
        <time>2017-07-11T09:25:08Z</time>
      </trkpt>
      <trkpt lat="45.85583" lon="4.68988">
        <ele>200</ele>
        <time>2017-07-11T09:25:10Z</time>
      </trkpt>
      <trkpt lat="45.85582" lon="4.68982">
        <ele>200</ele>
        <time>2017-07-11T09:25:11Z</time>
      </trkpt>
      <trkpt lat="45.85582" lon="4.68975">
        <ele>200</ele>
        <time>2017-07-11T09:25:12Z</time>
      </trkpt>
      <trkpt lat="45.85582" lon="4.68968">
        <ele>200</ele>
        <time>2017-07-11T09:25:13Z</time>
      </trkpt>
      <trkpt lat="45.85582" lon="4.68961">
        <ele>200</ele>
        <time>2017-07-11T09:25:14Z</time>
      </trkpt>
      <trkpt lat="45.85581" lon="4.68954">
        <ele>200</ele>
        <time>2017-07-11T09:25:15Z</time>
      </trkpt>
      <trkpt lat="45.8558" lon="4.68946">
        <ele>200</ele>
        <time>2017-07-11T09:25:16Z</time>
      </trkpt>
      <trkpt lat="45.8558" lon="4.68939">
        <ele>200</ele>
        <time>2017-07-11T09:25:17Z</time>
      </trkpt>
      <trkpt lat="45.85579" lon="4.68932">
        <ele>200</ele>
        <time>2017-07-11T09:25:18Z</time>
      </trkpt>
      <trkpt lat="45.85579" lon="4.68925">
        <ele>200</ele>
        <time>2017-07-11T09:25:19Z</time>
      </trkpt>
      <trkpt lat="45.85579" lon="4.68919">
        <ele>200</ele>
        <time>2017-07-11T09:25:20Z</time>
      </trkpt>
      <trkpt lat="45.85578" lon="4.68911">
        <ele>200</ele>
        <time>2017-07-11T09:25:21Z</time>
      </trkpt>
      <trkpt lat="45.85578" lon="4.68904">
        <ele>200</ele>
        <time>2017-07-11T09:25:22Z</time>
      </trkpt>
      <trkpt lat="45.85577" lon="4.68897">
        <ele>200</ele>
        <time>2017-07-11T09:25:23Z</time>
      </trkpt>
      <trkpt lat="45.85577" lon="4.6889">
        <ele>200</ele>
        <time>2017-07-11T09:25:24Z</time>
      </trkpt>
      <trkpt lat="45.85576" lon="4.68883">
        <ele>200</ele>
        <time>2017-07-11T09:25:25Z</time>
      </trkpt>
      <trkpt lat="45.85576" lon="4.68876">
        <ele>200</ele>
        <time>2017-07-11T09:25:26Z</time>
      </trkpt>
      <trkpt lat="45.85575" lon="4.68868">
        <ele>200</ele>
        <time>2017-07-11T09:25:27Z</time>
      </trkpt>
      <trkpt lat="45.85573" lon="4.68859">
        <ele>200</ele>
        <time>2017-07-11T09:25:28Z</time>
      </trkpt>
      <trkpt lat="45.85573" lon="4.68852">
        <ele>200</ele>
        <time>2017-07-11T09:25:29Z</time>
      </trkpt>
      <trkpt lat="45.85571" lon="4.68845">
        <ele>200</ele>
        <time>2017-07-11T09:25:30Z</time>
      </trkpt>
      <trkpt lat="45.85571" lon="4.68838">
        <ele>200</ele>
        <time>2017-07-11T09:25:31Z</time>
      </trkpt>
      <trkpt lat="45.8557" lon="4.6883">
        <ele>200</ele>
        <time>2017-07-11T09:25:32Z</time>
      </trkpt>
      <trkpt lat="45.85569" lon="4.68822">
        <ele>200</ele>
        <time>2017-07-11T09:25:33Z</time>
      </trkpt>
      <trkpt lat="45.85568" lon="4.68814">
        <ele>200</ele>
        <time>2017-07-11T09:25:34Z</time>
      </trkpt>
      <trkpt lat="45.85568" lon="4.68806">
        <ele>200</ele>
        <time>2017-07-11T09:25:35Z</time>
      </trkpt>
      <trkpt lat="45.85568" lon="4.68797">
        <ele>200</ele>
        <time>2017-07-11T09:25:36Z</time>
      </trkpt>
      <trkpt lat="45.85568" lon="4.68788">
        <ele>200</ele>
        <time>2017-07-11T09:25:37Z</time>
      </trkpt>
      <trkpt lat="45.85567" lon="4.68779">
        <ele>200</ele>
        <time>2017-07-11T09:25:38Z</time>
      </trkpt>
      <trkpt lat="45.85566" lon="4.6877">
        <ele>200</ele>
        <time>2017-07-11T09:25:39Z</time>
      </trkpt>
      <trkpt lat="45.85566" lon="4.68762">
        <ele>200</ele>
        <time>2017-07-11T09:25:40Z</time>
      </trkpt>
      <trkpt lat="45.85565" lon="4.68753">
        <ele>200</ele>
        <time>2017-07-11T09:25:41Z</time>
      </trkpt>
      <trkpt lat="45.85565" lon="4.68745">
        <ele>200</ele>
        <time>2017-07-11T09:25:42Z</time>
      </trkpt>
      <trkpt lat="45.85563" lon="4.68737">
        <ele>200</ele>
        <time>2017-07-11T09:25:43Z</time>
      </trkpt>
      <trkpt lat="45.85562" lon="4.68728">
        <ele>200</ele>
        <time>2017-07-11T09:25:44Z</time>
      </trkpt>
      <trkpt lat="45.85561" lon="4.6872">
        <ele>200</ele>
        <time>2017-07-11T09:25:45Z</time>
      </trkpt>
      <trkpt lat="45.85561" lon="4.68713">
        <ele>200</ele>
        <time>2017-07-11T09:25:46Z</time>
      </trkpt>
      <trkpt lat="45.8556" lon="4.68705">
        <ele>200</ele>
        <time>2017-07-11T09:25:47Z</time>
      </trkpt>
      <trkpt lat="45.85559" lon="4.68697">
        <ele>200</ele>
        <time>2017-07-11T09:25:48Z</time>
      </trkpt>
      <trkpt lat="45.85558" lon="4.68689">
        <ele>200</ele>
        <time>2017-07-11T09:25:49Z</time>
      </trkpt>
      <trkpt lat="45.85557" lon="4.68681">
        <ele>200</ele>
        <time>2017-07-11T09:25:50Z</time>
      </trkpt>
      <trkpt lat="45.85556" lon="4.68673">
        <ele>200</ele>
        <time>2017-07-11T09:25:51Z</time>
      </trkpt>
      <trkpt lat="45.85554" lon="4.68666">
        <ele>200</ele>
        <time>2017-07-11T09:25:52Z</time>
      </trkpt>
      <trkpt lat="45.85553" lon="4.68658">
        <ele>200</ele>
        <time>2017-07-11T09:25:53Z</time>
      </trkpt>
      <trkpt lat="45.85551" lon="4.6865">
        <ele>201</ele>
        <time>2017-07-11T09:25:54Z</time>
      </trkpt>
      <trkpt lat="45.85549" lon="4.68642">
        <ele>201</ele>
        <time>2017-07-11T09:25:55Z</time>
      </trkpt>
      <trkpt lat="45.85548" lon="4.68635">
        <ele>201</ele>
        <time>2017-07-11T09:25:56Z</time>
      </trkpt>
      <trkpt lat="45.85548" lon="4.68628">
        <ele>201</ele>
        <time>2017-07-11T09:25:57Z</time>
      </trkpt>
      <trkpt lat="45.85547" lon="4.68622">
        <ele>201</ele>
        <time>2017-07-11T09:25:58Z</time>
      </trkpt>
      <trkpt lat="45.85546" lon="4.68615">
        <ele>201</ele>
        <time>2017-07-11T09:25:59Z</time>
      </trkpt>
      <trkpt lat="45.85545" lon="4.68608">
        <ele>201</ele>
        <time>2017-07-11T09:26:00Z</time>
      </trkpt>
      <trkpt lat="45.85544" lon="4.686">
        <ele>201</ele>
        <time>2017-07-11T09:26:01Z</time>
      </trkpt>
      <trkpt lat="45.85543" lon="4.68592">
        <ele>201</ele>
        <time>2017-07-11T09:26:02Z</time>
      </trkpt>
      <trkpt lat="45.85542" lon="4.68585">
        <ele>201</ele>
        <time>2017-07-11T09:26:03Z</time>
      </trkpt>
      <trkpt lat="45.85541" lon="4.68577">
        <ele>201</ele>
        <time>2017-07-11T09:26:04Z</time>
      </trkpt>
      <trkpt lat="45.85539" lon="4.68569">
        <ele>201</ele>
        <time>2017-07-11T09:26:05Z</time>
      </trkpt>
      <trkpt lat="45.85538" lon="4.68561">
        <ele>201</ele>
        <time>2017-07-11T09:26:06Z</time>
      </trkpt>
      <trkpt lat="45.85537" lon="4.68552">
        <ele>201</ele>
        <time>2017-07-11T09:26:07Z</time>
      </trkpt>
      <trkpt lat="45.85538" lon="4.68544">
        <ele>201</ele>
        <time>2017-07-11T09:26:08Z</time>
      </trkpt>
      <trkpt lat="45.85537" lon="4.68535">
        <ele>201</ele>
        <time>2017-07-11T09:26:09Z</time>
      </trkpt>
      <trkpt lat="45.85537" lon="4.68528">
        <ele>201</ele>
        <time>2017-07-11T09:26:10Z</time>
      </trkpt>
      <trkpt lat="45.85537" lon="4.68521">
        <ele>201</ele>
        <time>2017-07-11T09:26:11Z</time>
      </trkpt>
      <trkpt lat="45.85536" lon="4.68513">
        <ele>201</ele>
        <time>2017-07-11T09:26:12Z</time>
      </trkpt>
      <trkpt lat="45.85535" lon="4.68506">
        <ele>201</ele>
        <time>2017-07-11T09:26:13Z</time>
      </trkpt>
      <trkpt lat="45.85535" lon="4.68499">
        <ele>200</ele>
        <time>2017-07-11T09:26:14Z</time>
      </trkpt>
      <trkpt lat="45.85534" lon="4.68492">
        <ele>200</ele>
        <time>2017-07-11T09:26:15Z</time>
      </trkpt>
      <trkpt lat="45.85534" lon="4.68485">
        <ele>200</ele>
        <time>2017-07-11T09:26:16Z</time>
      </trkpt>
      <trkpt lat="45.85533" lon="4.68478">
        <ele>200</ele>
        <time>2017-07-11T09:26:17Z</time>
      </trkpt>
      <trkpt lat="45.85533" lon="4.6847">
        <ele>200</ele>
        <time>2017-07-11T09:26:18Z</time>
      </trkpt>
      <trkpt lat="45.85532" lon="4.68462">
        <ele>200</ele>
        <time>2017-07-11T09:26:19Z</time>
      </trkpt>
      <trkpt lat="45.85532" lon="4.68454">
        <ele>200</ele>
        <time>2017-07-11T09:26:20Z</time>
      </trkpt>
      <trkpt lat="45.85533" lon="4.68446">
        <ele>200</ele>
        <time>2017-07-11T09:26:21Z</time>
      </trkpt>
      <trkpt lat="45.85532" lon="4.68437">
        <ele>200</ele>
        <time>2017-07-11T09:26:22Z</time>
      </trkpt>
      <trkpt lat="45.85532" lon="4.6843">
        <ele>200</ele>
        <time>2017-07-11T09:26:23Z</time>
      </trkpt>
      <trkpt lat="45.85531" lon="4.68423">
        <ele>200</ele>
        <time>2017-07-11T09:26:24Z</time>
      </trkpt>
      <trkpt lat="45.8553" lon="4.68416">
        <ele>200</ele>
        <time>2017-07-11T09:26:25Z</time>
      </trkpt>
      <trkpt lat="45.85531" lon="4.68409">
        <ele>200</ele>
        <time>2017-07-11T09:26:26Z</time>
      </trkpt>
      <trkpt lat="45.8553" lon="4.68402">
        <ele>200</ele>
        <time>2017-07-11T09:26:27Z</time>
      </trkpt>
      <trkpt lat="45.8553" lon="4.68395">
        <ele>200</ele>
        <time>2017-07-11T09:26:28Z</time>
      </trkpt>
      <trkpt lat="45.85529" lon="4.68388">
        <ele>200</ele>
        <time>2017-07-11T09:26:29Z</time>
      </trkpt>
      <trkpt lat="45.85528" lon="4.68381">
        <ele>201</ele>
        <time>2017-07-11T09:26:30Z</time>
      </trkpt>
      <trkpt lat="45.85527" lon="4.68374">
        <ele>201</ele>
        <time>2017-07-11T09:26:31Z</time>
      </trkpt>
      <trkpt lat="45.85523" lon="4.68365">
        <ele>201</ele>
        <time>2017-07-11T09:26:32Z</time>
      </trkpt>
      <trkpt lat="45.85522" lon="4.68357">
        <ele>201</ele>
        <time>2017-07-11T09:26:33Z</time>
      </trkpt>
      <trkpt lat="45.85521" lon="4.68351">
        <ele>201</ele>
        <time>2017-07-11T09:26:34Z</time>
      </trkpt>
      <trkpt lat="45.8552" lon="4.68343">
        <ele>201</ele>
        <time>2017-07-11T09:26:35Z</time>
      </trkpt>
      <trkpt lat="45.85519" lon="4.68336">
        <ele>201</ele>
        <time>2017-07-11T09:26:36Z</time>
      </trkpt>
      <trkpt lat="45.85518" lon="4.68329">
        <ele>202</ele>
        <time>2017-07-11T09:26:37Z</time>
      </trkpt>
      <trkpt lat="45.85517" lon="4.68323">
        <ele>202</ele>
        <time>2017-07-11T09:26:38Z</time>
      </trkpt>
      <trkpt lat="45.85516" lon="4.68316">
        <ele>202</ele>
        <time>2017-07-11T09:26:39Z</time>
      </trkpt>
      <trkpt lat="45.85516" lon="4.68304">
        <ele>202</ele>
        <time>2017-07-11T09:26:41Z</time>
      </trkpt>
      <trkpt lat="45.85515" lon="4.68298">
        <ele>202</ele>
        <time>2017-07-11T09:26:42Z</time>
      </trkpt>
      <trkpt lat="45.85515" lon="4.68291">
        <ele>202</ele>
        <time>2017-07-11T09:26:43Z</time>
      </trkpt>
      <trkpt lat="45.85515" lon="4.68284">
        <ele>202</ele>
        <time>2017-07-11T09:26:44Z</time>
      </trkpt>
      <trkpt lat="45.85514" lon="4.68271">
        <ele>202</ele>
        <time>2017-07-11T09:26:46Z</time>
      </trkpt>
      <trkpt lat="45.85513" lon="4.68265">
        <ele>202</ele>
        <time>2017-07-11T09:26:47Z</time>
      </trkpt>
      <trkpt lat="45.85512" lon="4.68258">
        <ele>203</ele>
        <time>2017-07-11T09:26:48Z</time>
      </trkpt>
      <trkpt lat="45.85511" lon="4.68251">
        <ele>203</ele>
        <time>2017-07-11T09:26:49Z</time>
      </trkpt>
      <trkpt lat="45.8551" lon="4.68245">
        <ele>203</ele>
        <time>2017-07-11T09:26:50Z</time>
      </trkpt>
      <trkpt lat="45.8551" lon="4.68238">
        <ele>203</ele>
        <time>2017-07-11T09:26:51Z</time>
      </trkpt>
      <trkpt lat="45.85511" lon="4.6823">
        <ele>203</ele>
        <time>2017-07-11T09:26:52Z</time>
      </trkpt>
      <trkpt lat="45.8551" lon="4.68224">
        <ele>203</ele>
        <time>2017-07-11T09:26:53Z</time>
      </trkpt>
      <trkpt lat="45.8551" lon="4.68216">
        <ele>203</ele>
        <time>2017-07-11T09:26:54Z</time>
      </trkpt>
      <trkpt lat="45.8551" lon="4.68209">
        <ele>203</ele>
        <time>2017-07-11T09:26:55Z</time>
      </trkpt>
      <trkpt lat="45.8551" lon="4.68202">
        <ele>203</ele>
        <time>2017-07-11T09:26:56Z</time>
      </trkpt>
      <trkpt lat="45.8551" lon="4.68194">
        <ele>203</ele>
        <time>2017-07-11T09:26:57Z</time>
      </trkpt>
      <trkpt lat="45.8551" lon="4.68187">
        <ele>203</ele>
        <time>2017-07-11T09:26:58Z</time>
      </trkpt>
      <trkpt lat="45.8551" lon="4.68179">
        <ele>204</ele>
        <time>2017-07-11T09:26:59Z</time>
      </trkpt>
      <trkpt lat="45.85509" lon="4.68172">
        <ele>204</ele>
        <time>2017-07-11T09:27:00Z</time>
      </trkpt>
      <trkpt lat="45.85508" lon="4.68164">
        <ele>204</ele>
        <time>2017-07-11T09:27:01Z</time>
      </trkpt>
      <trkpt lat="45.85508" lon="4.68158">
        <ele>203</ele>
        <time>2017-07-11T09:27:02Z</time>
      </trkpt>
      <trkpt lat="45.85507" lon="4.68151">
        <ele>203</ele>
        <time>2017-07-11T09:27:03Z</time>
      </trkpt>
      <trkpt lat="45.85505" lon="4.6814">
        <ele>203</ele>
        <time>2017-07-11T09:27:05Z</time>
      </trkpt>
      <trkpt lat="45.85504" lon="4.68133">
        <ele>203</ele>
        <time>2017-07-11T09:27:06Z</time>
      </trkpt>
      <trkpt lat="45.85504" lon="4.68127">
        <ele>203</ele>
        <time>2017-07-11T09:27:07Z</time>
      </trkpt>
      <trkpt lat="45.85503" lon="4.6812">
        <ele>203</ele>
        <time>2017-07-11T09:27:08Z</time>
      </trkpt>
      <trkpt lat="45.85503" lon="4.68112">
        <ele>203</ele>
        <time>2017-07-11T09:27:09Z</time>
      </trkpt>
      <trkpt lat="45.85503" lon="4.68104">
        <ele>203</ele>
        <time>2017-07-11T09:27:10Z</time>
      </trkpt>
      <trkpt lat="45.85503" lon="4.68097">
        <ele>203</ele>
        <time>2017-07-11T09:27:11Z</time>
      </trkpt>
      <trkpt lat="45.85503" lon="4.68089">
        <ele>204</ele>
        <time>2017-07-11T09:27:12Z</time>
      </trkpt>
      <trkpt lat="45.85501" lon="4.68077">
        <ele>204</ele>
        <time>2017-07-11T09:27:14Z</time>
      </trkpt>
      <trkpt lat="45.85501" lon="4.6807">
        <ele>203</ele>
        <time>2017-07-11T09:27:15Z</time>
      </trkpt>
      <trkpt lat="45.855" lon="4.68063">
        <ele>203</ele>
        <time>2017-07-11T09:27:16Z</time>
      </trkpt>
      <trkpt lat="45.85499" lon="4.68057">
        <ele>206</ele>
        <time>2017-07-11T09:27:17Z</time>
      </trkpt>
      <trkpt lat="45.85498" lon="4.6805">
        <ele>206</ele>
        <time>2017-07-11T09:27:18Z</time>
      </trkpt>
      <trkpt lat="45.85497" lon="4.68043">
        <ele>206</ele>
        <time>2017-07-11T09:27:19Z</time>
      </trkpt>
      <trkpt lat="45.85496" lon="4.68031">
        <ele>207</ele>
        <time>2017-07-11T09:27:21Z</time>
      </trkpt>
      <trkpt lat="45.85495" lon="4.68026">
        <ele>207</ele>
        <time>2017-07-11T09:27:22Z</time>
      </trkpt>
      <trkpt lat="45.855" lon="4.68016">
        <ele>207</ele>
        <time>2017-07-11T09:27:24Z</time>
      </trkpt>
      <trkpt lat="45.85501" lon="4.68011">
        <ele>205</ele>
        <time>2017-07-11T09:27:25Z</time>
      </trkpt>
      <trkpt lat="45.85505" lon="4.67999">
        <ele>206</ele>
        <time>2017-07-11T09:27:27Z</time>
      </trkpt>
      <trkpt lat="45.85507" lon="4.67995">
        <ele>206</ele>
        <time>2017-07-11T09:27:28Z</time>
      </trkpt>
      <trkpt lat="45.8551" lon="4.6799">
        <ele>206</ele>
        <time>2017-07-11T09:27:29Z</time>
      </trkpt>
      <trkpt lat="45.85512" lon="4.67985">
        <ele>206</ele>
        <time>2017-07-11T09:27:30Z</time>
      </trkpt>
      <trkpt lat="45.85516" lon="4.6798">
        <ele>206</ele>
        <time>2017-07-11T09:27:31Z</time>
      </trkpt>
      <trkpt lat="45.8552" lon="4.67976">
        <ele>206</ele>
        <time>2017-07-11T09:27:32Z</time>
      </trkpt>
      <trkpt lat="45.85523" lon="4.67972">
        <ele>206</ele>
        <time>2017-07-11T09:27:33Z</time>
      </trkpt>
      <trkpt lat="45.85527" lon="4.67968">
        <ele>206</ele>
        <time>2017-07-11T09:27:34Z</time>
      </trkpt>
      <trkpt lat="45.85531" lon="4.67965">
        <ele>205</ele>
        <time>2017-07-11T09:27:35Z</time>
      </trkpt>
      <trkpt lat="45.85535" lon="4.67961">
        <ele>205</ele>
        <time>2017-07-11T09:27:36Z</time>
      </trkpt>
      <trkpt lat="45.85542" lon="4.67953">
        <ele>205</ele>
        <time>2017-07-11T09:27:38Z</time>
      </trkpt>
      <trkpt lat="45.85546" lon="4.6795">
        <ele>205</ele>
        <time>2017-07-11T09:27:39Z</time>
      </trkpt>
      <trkpt lat="45.85553" lon="4.67943">
        <ele>205</ele>
        <time>2017-07-11T09:27:41Z</time>
      </trkpt>
      <trkpt lat="45.85557" lon="4.67939">
        <ele>205</ele>
        <time>2017-07-11T09:27:42Z</time>
      </trkpt>
      <trkpt lat="45.85564" lon="4.67933">
        <ele>205</ele>
        <time>2017-07-11T09:27:44Z</time>
      </trkpt>
      <trkpt lat="45.85567" lon="4.67931">
        <ele>205</ele>
        <time>2017-07-11T09:27:45Z</time>
      </trkpt>
      <trkpt lat="45.85573" lon="4.67923">
        <ele>205</ele>
        <time>2017-07-11T09:27:47Z</time>
      </trkpt>
      <trkpt lat="45.85574" lon="4.67917">
        <ele>205</ele>
        <time>2017-07-11T09:27:48Z</time>
      </trkpt>
      <trkpt lat="45.85574" lon="4.6791">
        <ele>205</ele>
        <time>2017-07-11T09:27:49Z</time>
      </trkpt>
      <trkpt lat="45.85573" lon="4.67904">
        <ele>206</ele>
        <time>2017-07-11T09:27:50Z</time>
      </trkpt>
      <trkpt lat="45.85572" lon="4.67897">
        <ele>206</ele>
        <time>2017-07-11T09:27:51Z</time>
      </trkpt>
      <trkpt lat="45.85571" lon="4.67891">
        <ele>206</ele>
        <time>2017-07-11T09:27:52Z</time>
      </trkpt>
      <trkpt lat="45.8557" lon="4.67884">
        <ele>206</ele>
        <time>2017-07-11T09:27:53Z</time>
      </trkpt>
      <trkpt lat="45.85569" lon="4.67876">
        <ele>207</ele>
        <time>2017-07-11T09:27:54Z</time>
      </trkpt>
      <trkpt lat="45.8557" lon="4.67865">
        <ele>207</ele>
        <time>2017-07-11T09:27:55Z</time>
      </trkpt>
      <trkpt lat="45.85572" lon="4.67855">
        <ele>206</ele>
        <time>2017-07-11T09:27:56Z</time>
      </trkpt>
      <trkpt lat="45.85573" lon="4.67845">
        <ele>206</ele>
        <time>2017-07-11T09:27:57Z</time>
      </trkpt>
      <trkpt lat="45.85575" lon="4.67836">
        <ele>206</ele>
        <time>2017-07-11T09:27:58Z</time>
      </trkpt>
      <trkpt lat="45.85576" lon="4.67829">
        <ele>206</ele>
        <time>2017-07-11T09:27:59Z</time>
      </trkpt>
      <trkpt lat="45.85578" lon="4.67821">
        <ele>206</ele>
        <time>2017-07-11T09:28:00Z</time>
      </trkpt>
      <trkpt lat="45.85579" lon="4.67814">
        <ele>206</ele>
        <time>2017-07-11T09:28:01Z</time>
      </trkpt>
      <trkpt lat="45.85581" lon="4.67807">
        <ele>206</ele>
        <time>2017-07-11T09:28:02Z</time>
      </trkpt>
      <trkpt lat="45.85583" lon="4.67799">
        <ele>206</ele>
        <time>2017-07-11T09:28:03Z</time>
      </trkpt>
      <trkpt lat="45.85585" lon="4.67792">
        <ele>209</ele>
        <time>2017-07-11T09:28:04Z</time>
      </trkpt>
      <trkpt lat="45.85587" lon="4.67785">
        <ele>209</ele>
        <time>2017-07-11T09:28:05Z</time>
      </trkpt>
      <trkpt lat="45.8559" lon="4.67778">
        <ele>209</ele>
        <time>2017-07-11T09:28:06Z</time>
      </trkpt>
      <trkpt lat="45.85592" lon="4.67771">
        <ele>209</ele>
        <time>2017-07-11T09:28:07Z</time>
      </trkpt>
      <trkpt lat="45.85596" lon="4.67764">
        <ele>208</ele>
        <time>2017-07-11T09:28:08Z</time>
      </trkpt>
      <trkpt lat="45.856" lon="4.67758">
        <ele>208</ele>
        <time>2017-07-11T09:28:09Z</time>
      </trkpt>
      <trkpt lat="45.85603" lon="4.67751">
        <ele>209</ele>
        <time>2017-07-11T09:28:10Z</time>
      </trkpt>
      <trkpt lat="45.85607" lon="4.67745">
        <ele>207</ele>
        <time>2017-07-11T09:28:11Z</time>
      </trkpt>
      <trkpt lat="45.85611" lon="4.67739">
        <ele>208</ele>
        <time>2017-07-11T09:28:12Z</time>
      </trkpt>
      <trkpt lat="45.85615" lon="4.67734">
        <ele>209</ele>
        <time>2017-07-11T09:28:13Z</time>
      </trkpt>
      <trkpt lat="45.85619" lon="4.67728">
        <ele>209</ele>
        <time>2017-07-11T09:28:14Z</time>
      </trkpt>
      <trkpt lat="45.85623" lon="4.67722">
        <ele>209</ele>
        <time>2017-07-11T09:28:15Z</time>
      </trkpt>
      <trkpt lat="45.85627" lon="4.67717">
        <ele>209</ele>
        <time>2017-07-11T09:28:16Z</time>
      </trkpt>
      <trkpt lat="45.85631" lon="4.67711">
        <ele>210</ele>
        <time>2017-07-11T09:28:17Z</time>
      </trkpt>
      <trkpt lat="45.85635" lon="4.67706">
        <ele>210</ele>
        <time>2017-07-11T09:28:18Z</time>
      </trkpt>
      <trkpt lat="45.85639" lon="4.67701">
        <ele>210</ele>
        <time>2017-07-11T09:28:19Z</time>
      </trkpt>
      <trkpt lat="45.85644" lon="4.67697">
        <ele>210</ele>
        <time>2017-07-11T09:28:20Z</time>
      </trkpt>
      <trkpt lat="45.85648" lon="4.67692">
        <ele>210</ele>
        <time>2017-07-11T09:28:21Z</time>
      </trkpt>
      <trkpt lat="45.85653" lon="4.67688">
        <ele>210</ele>
        <time>2017-07-11T09:28:22Z</time>
      </trkpt>
      <trkpt lat="45.85658" lon="4.67685">
        <ele>209</ele>
        <time>2017-07-11T09:28:23Z</time>
      </trkpt>
      <trkpt lat="45.85662" lon="4.67681">
        <ele>209</ele>
        <time>2017-07-11T09:28:24Z</time>
      </trkpt>
      <trkpt lat="45.85667" lon="4.67677">
        <ele>214</ele>
        <time>2017-07-11T09:28:25Z</time>
      </trkpt>
      <trkpt lat="45.85673" lon="4.67674">
        <ele>213</ele>
        <time>2017-07-11T09:28:26Z</time>
      </trkpt>
      <trkpt lat="45.85678" lon="4.67672">
        <ele>214</ele>
        <time>2017-07-11T09:28:27Z</time>
      </trkpt>
      <trkpt lat="45.85683" lon="4.67669">
        <ele>215</ele>
        <time>2017-07-11T09:28:28Z</time>
      </trkpt>
      <trkpt lat="45.85687" lon="4.67666">
        <ele>210</ele>
        <time>2017-07-11T09:28:29Z</time>
      </trkpt>
      <trkpt lat="45.85692" lon="4.67662">
        <ele>211</ele>
        <time>2017-07-11T09:28:30Z</time>
      </trkpt>
      <trkpt lat="45.85697" lon="4.67659">
        <ele>211</ele>
        <time>2017-07-11T09:28:31Z</time>
      </trkpt>
      <trkpt lat="45.85702" lon="4.67655">
        <ele>211</ele>
        <time>2017-07-11T09:28:32Z</time>
      </trkpt>
      <trkpt lat="45.85707" lon="4.67652">
        <ele>212</ele>
        <time>2017-07-11T09:28:33Z</time>
      </trkpt>
      <trkpt lat="45.85712" lon="4.67649">
        <ele>212</ele>
        <time>2017-07-11T09:28:34Z</time>
      </trkpt>
      <trkpt lat="45.85717" lon="4.67646">
        <ele>212</ele>
        <time>2017-07-11T09:28:35Z</time>
      </trkpt>
      <trkpt lat="45.85722" lon="4.67643">
        <ele>213</ele>
        <time>2017-07-11T09:28:36Z</time>
      </trkpt>
      <trkpt lat="45.85727" lon="4.67639">
        <ele>213</ele>
        <time>2017-07-11T09:28:37Z</time>
      </trkpt>
      <trkpt lat="45.85732" lon="4.67636">
        <ele>213</ele>
        <time>2017-07-11T09:28:38Z</time>
      </trkpt>
      <trkpt lat="45.85737" lon="4.67632">
        <ele>213</ele>
        <time>2017-07-11T09:28:39Z</time>
      </trkpt>
      <trkpt lat="45.85742" lon="4.67629">
        <ele>212</ele>
        <time>2017-07-11T09:28:40Z</time>
      </trkpt>
      <trkpt lat="45.85746" lon="4.67626">
        <ele>212</ele>
        <time>2017-07-11T09:28:41Z</time>
      </trkpt>
      <trkpt lat="45.8575" lon="4.67623">
        <ele>219</ele>
        <time>2017-07-11T09:28:42Z</time>
      </trkpt>
      <trkpt lat="45.85755" lon="4.67621">
        <ele>219</ele>
        <time>2017-07-11T09:28:43Z</time>
      </trkpt>
      <trkpt lat="45.85759" lon="4.67617">
        <ele>218</ele>
        <time>2017-07-11T09:28:44Z</time>
      </trkpt>
      <trkpt lat="45.85764" lon="4.67613">
        <ele>218</ele>
        <time>2017-07-11T09:28:45Z</time>
      </trkpt>
      <trkpt lat="45.85769" lon="4.67608">
        <ele>218</ele>
        <time>2017-07-11T09:28:46Z</time>
      </trkpt>
      <trkpt lat="45.85774" lon="4.67604">
        <ele>218</ele>
        <time>2017-07-11T09:28:47Z</time>
      </trkpt>
      <trkpt lat="45.85779" lon="4.67599">
        <ele>218</ele>
        <time>2017-07-11T09:28:48Z</time>
      </trkpt>
      <trkpt lat="45.85783" lon="4.67594">
        <ele>218</ele>
        <time>2017-07-11T09:28:49Z</time>
      </trkpt>
      <trkpt lat="45.85787" lon="4.67589">
        <ele>219</ele>
        <time>2017-07-11T09:28:50Z</time>
      </trkpt>
      <trkpt lat="45.85791" lon="4.67584">
        <ele>219</ele>
        <time>2017-07-11T09:28:51Z</time>
      </trkpt>
      <trkpt lat="45.85795" lon="4.6758">
        <ele>211</ele>
        <time>2017-07-11T09:28:52Z</time>
      </trkpt>
      <trkpt lat="45.85799" lon="4.67575">
        <ele>212</ele>
        <time>2017-07-11T09:28:53Z</time>
      </trkpt>
      <trkpt lat="45.85803" lon="4.67571">
        <ele>212</ele>
        <time>2017-07-11T09:28:54Z</time>
      </trkpt>
      <trkpt lat="45.85806" lon="4.67567">
        <ele>212</ele>
        <time>2017-07-11T09:28:55Z</time>
      </trkpt>
      <trkpt lat="45.85811" lon="4.67562">
        <ele>212</ele>
        <time>2017-07-11T09:28:56Z</time>
      </trkpt>
      <trkpt lat="45.85814" lon="4.67557">
        <ele>212</ele>
        <time>2017-07-11T09:28:57Z</time>
      </trkpt>
      <trkpt lat="45.85818" lon="4.67552">
        <ele>212</ele>
        <time>2017-07-11T09:28:58Z</time>
      </trkpt>
      <trkpt lat="45.85821" lon="4.67546">
        <ele>211</ele>
        <time>2017-07-11T09:28:59Z</time>
      </trkpt>
      <trkpt lat="45.85825" lon="4.67538">
        <ele>210</ele>
        <time>2017-07-11T09:29:00Z</time>
      </trkpt>
      <trkpt lat="45.85829" lon="4.67533">
        <ele>210</ele>
        <time>2017-07-11T09:29:01Z</time>
      </trkpt>
      <trkpt lat="45.85832" lon="4.67526">
        <ele>209</ele>
        <time>2017-07-11T09:29:02Z</time>
      </trkpt>
      <trkpt lat="45.85835" lon="4.6752">
        <ele>217</ele>
        <time>2017-07-11T09:29:03Z</time>
      </trkpt>
      <trkpt lat="45.85837" lon="4.67513">
        <ele>214</ele>
        <time>2017-07-11T09:29:04Z</time>
      </trkpt>
      <trkpt lat="45.85839" lon="4.67507">
        <ele>212</ele>
        <time>2017-07-11T09:29:05Z</time>
      </trkpt>
      <trkpt lat="45.85842" lon="4.67501">
        <ele>212</ele>
        <time>2017-07-11T09:29:06Z</time>
      </trkpt>
      <trkpt lat="45.85845" lon="4.6749">
        <ele>210</ele>
        <time>2017-07-11T09:29:08Z</time>
      </trkpt>
      <trkpt lat="45.85847" lon="4.67483">
        <ele>211</ele>
        <time>2017-07-11T09:29:09Z</time>
      </trkpt>
      <trkpt lat="45.85849" lon="4.67478">
        <ele>212</ele>
        <time>2017-07-11T09:29:10Z</time>
      </trkpt>
      <trkpt lat="45.85851" lon="4.6747">
        <ele>212</ele>
        <time>2017-07-11T09:29:11Z</time>
      </trkpt>
      <trkpt lat="45.85853" lon="4.67462">
        <ele>213</ele>
        <time>2017-07-11T09:29:12Z</time>
      </trkpt>
      <trkpt lat="45.85855" lon="4.67455">
        <ele>213</ele>
        <time>2017-07-11T09:29:13Z</time>
      </trkpt>
      <trkpt lat="45.85857" lon="4.67448">
        <ele>212</ele>
        <time>2017-07-11T09:29:14Z</time>
      </trkpt>
      <trkpt lat="45.85859" lon="4.6744">
        <ele>212</ele>
        <time>2017-07-11T09:29:15Z</time>
      </trkpt>
      <trkpt lat="45.85861" lon="4.67432">
        <ele>212</ele>
        <time>2017-07-11T09:29:16Z</time>
      </trkpt>
      <trkpt lat="45.85862" lon="4.67424">
        <ele>212</ele>
        <time>2017-07-11T09:29:17Z</time>
      </trkpt>
      <trkpt lat="45.85863" lon="4.67416">
        <ele>208</ele>
        <time>2017-07-11T09:29:18Z</time>
      </trkpt>
      <trkpt lat="45.85865" lon="4.67407">
        <ele>209</ele>
        <time>2017-07-11T09:29:19Z</time>
      </trkpt>
      <trkpt lat="45.85866" lon="4.67399">
        <ele>209</ele>
        <time>2017-07-11T09:29:20Z</time>
      </trkpt>
      <trkpt lat="45.85867" lon="4.67392">
        <ele>209</ele>
        <time>2017-07-11T09:29:21Z</time>
      </trkpt>
      <trkpt lat="45.85868" lon="4.67384">
        <ele>209</ele>
        <time>2017-07-11T09:29:22Z</time>
      </trkpt>
      <trkpt lat="45.85869" lon="4.67376">
        <ele>209</ele>
        <time>2017-07-11T09:29:23Z</time>
      </trkpt>
      <trkpt lat="45.8587" lon="4.67368">
        <ele>209</ele>
        <time>2017-07-11T09:29:24Z</time>
      </trkpt>
      <trkpt lat="45.8587" lon="4.67361">
        <ele>208</ele>
        <time>2017-07-11T09:29:25Z</time>
      </trkpt>
      <trkpt lat="45.85871" lon="4.67355">
        <ele>208</ele>
        <time>2017-07-11T09:29:26Z</time>
      </trkpt>
      <trkpt lat="45.85872" lon="4.67348">
        <ele>208</ele>
        <time>2017-07-11T09:29:27Z</time>
      </trkpt>
      <trkpt lat="45.85872" lon="4.67342">
        <ele>208</ele>
        <time>2017-07-11T09:29:28Z</time>
      </trkpt>
      <trkpt lat="45.85873" lon="4.67335">
        <ele>208</ele>
        <time>2017-07-11T09:29:29Z</time>
      </trkpt>
      <trkpt lat="45.85875" lon="4.67326">
        <ele>206</ele>
        <time>2017-07-11T09:29:30Z</time>
      </trkpt>
      <trkpt lat="45.85876" lon="4.67318">
        <ele>206</ele>
        <time>2017-07-11T09:29:31Z</time>
      </trkpt>
      <trkpt lat="45.85877" lon="4.67309">
        <ele>206</ele>
        <time>2017-07-11T09:29:32Z</time>
      </trkpt>
      <trkpt lat="45.85877" lon="4.673">
        <ele>205</ele>
        <time>2017-07-11T09:29:33Z</time>
      </trkpt>
      <trkpt lat="45.85879" lon="4.6729">
        <ele>205</ele>
        <time>2017-07-11T09:29:34Z</time>
      </trkpt>
      <trkpt lat="45.85881" lon="4.67281">
        <ele>205</ele>
        <time>2017-07-11T09:29:35Z</time>
      </trkpt>
      <trkpt lat="45.85882" lon="4.67272">
        <ele>205</ele>
        <time>2017-07-11T09:29:36Z</time>
      </trkpt>
      <trkpt lat="45.85883" lon="4.67263">
        <ele>205</ele>
        <time>2017-07-11T09:29:37Z</time>
      </trkpt>
      <trkpt lat="45.85883" lon="4.67255">
        <ele>205</ele>
        <time>2017-07-11T09:29:38Z</time>
      </trkpt>
      <trkpt lat="45.85884" lon="4.67247">
        <ele>204</ele>
        <time>2017-07-11T09:29:39Z</time>
      </trkpt>
      <trkpt lat="45.85885" lon="4.67239">
        <ele>204</ele>
        <time>2017-07-11T09:29:40Z</time>
      </trkpt>
      <trkpt lat="45.85886" lon="4.67231">
        <ele>204</ele>
        <time>2017-07-11T09:29:41Z</time>
      </trkpt>
      <trkpt lat="45.85887" lon="4.67223">
        <ele>204</ele>
        <time>2017-07-11T09:29:42Z</time>
      </trkpt>
      <trkpt lat="45.85889" lon="4.67216">
        <ele>204</ele>
        <time>2017-07-11T09:29:43Z</time>
      </trkpt>
      <trkpt lat="45.8589" lon="4.67209">
        <ele>204</ele>
        <time>2017-07-11T09:29:44Z</time>
      </trkpt>
      <trkpt lat="45.8589" lon="4.67201">
        <ele>204</ele>
        <time>2017-07-11T09:29:45Z</time>
      </trkpt>
      <trkpt lat="45.85891" lon="4.67194">
        <ele>204</ele>
        <time>2017-07-11T09:29:46Z</time>
      </trkpt>
      <trkpt lat="45.85892" lon="4.67186">
        <ele>205</ele>
        <time>2017-07-11T09:29:47Z</time>
      </trkpt>
      <trkpt lat="45.85892" lon="4.67179">
        <ele>205</ele>
        <time>2017-07-11T09:29:48Z</time>
      </trkpt>
      <trkpt lat="45.85893" lon="4.67171">
        <ele>205</ele>
        <time>2017-07-11T09:29:49Z</time>
      </trkpt>
      <trkpt lat="45.85894" lon="4.67164">
        <ele>205</ele>
        <time>2017-07-11T09:29:50Z</time>
      </trkpt>
      <trkpt lat="45.85894" lon="4.67157">
        <ele>205</ele>
        <time>2017-07-11T09:29:51Z</time>
      </trkpt>
      <trkpt lat="45.85895" lon="4.67149">
        <ele>204</ele>
        <time>2017-07-11T09:29:52Z</time>
      </trkpt>
      <trkpt lat="45.85896" lon="4.67141">
        <ele>204</ele>
        <time>2017-07-11T09:29:53Z</time>
      </trkpt>
      <trkpt lat="45.85896" lon="4.67133">
        <ele>204</ele>
        <time>2017-07-11T09:29:54Z</time>
      </trkpt>
      <trkpt lat="45.85897" lon="4.67125">
        <ele>204</ele>
        <time>2017-07-11T09:29:55Z</time>
      </trkpt>
      <trkpt lat="45.85897" lon="4.67117">
        <ele>204</ele>
        <time>2017-07-11T09:29:56Z</time>
      </trkpt>
      <trkpt lat="45.85897" lon="4.6711">
        <ele>204</ele>
        <time>2017-07-11T09:29:57Z</time>
      </trkpt>
      <trkpt lat="45.85897" lon="4.67102">
        <ele>204</ele>
        <time>2017-07-11T09:29:58Z</time>
      </trkpt>
      <trkpt lat="45.85897" lon="4.67094">
        <ele>204</ele>
        <time>2017-07-11T09:29:59Z</time>
      </trkpt>
      <trkpt lat="45.85897" lon="4.67087">
        <ele>204</ele>
        <time>2017-07-11T09:30:00Z</time>
      </trkpt>
      <trkpt lat="45.85898" lon="4.67078">
        <ele>205</ele>
        <time>2017-07-11T09:30:01Z</time>
      </trkpt>
      <trkpt lat="45.85898" lon="4.6707">
        <ele>205</ele>
        <time>2017-07-11T09:30:02Z</time>
      </trkpt>
      <trkpt lat="45.859" lon="4.67062">
        <ele>205</ele>
        <time>2017-07-11T09:30:03Z</time>
      </trkpt>
      <trkpt lat="45.85901" lon="4.67054">
        <ele>205</ele>
        <time>2017-07-11T09:30:04Z</time>
      </trkpt>
      <trkpt lat="45.85903" lon="4.67047">
        <ele>205</ele>
        <time>2017-07-11T09:30:05Z</time>
      </trkpt>
      <trkpt lat="45.85905" lon="4.67039">
        <ele>205</ele>
        <time>2017-07-11T09:30:06Z</time>
      </trkpt>
      <trkpt lat="45.85909" lon="4.67032">
        <ele>205</ele>
        <time>2017-07-11T09:30:07Z</time>
      </trkpt>
      <trkpt lat="45.85911" lon="4.67025">
        <ele>205</ele>
        <time>2017-07-11T09:30:08Z</time>
      </trkpt>
      <trkpt lat="45.85912" lon="4.67019">
        <ele>205</ele>
        <time>2017-07-11T09:30:09Z</time>
      </trkpt>
      <trkpt lat="45.85914" lon="4.67012">
        <ele>206</ele>
        <time>2017-07-11T09:30:10Z</time>
      </trkpt>
      <trkpt lat="45.85916" lon="4.67007">
        <ele>206</ele>
        <time>2017-07-11T09:30:11Z</time>
      </trkpt>
      <trkpt lat="45.85921" lon="4.66997">
        <ele>207</ele>
        <time>2017-07-11T09:30:13Z</time>
      </trkpt>
      <trkpt lat="45.85924" lon="4.66992">
        <ele>207</ele>
        <time>2017-07-11T09:30:14Z</time>
      </trkpt>
      <trkpt lat="45.85926" lon="4.66986">
        <ele>208</ele>
        <time>2017-07-11T09:30:15Z</time>
      </trkpt>
      <trkpt lat="45.85928" lon="4.6698">
        <ele>208</ele>
        <time>2017-07-11T09:30:16Z</time>
      </trkpt>
      <trkpt lat="45.85929" lon="4.66972">
        <ele>208</ele>
        <time>2017-07-11T09:30:17Z</time>
      </trkpt>
      <trkpt lat="45.85928" lon="4.66964">
        <ele>209</ele>
        <time>2017-07-11T09:30:18Z</time>
      </trkpt>
      <trkpt lat="45.85926" lon="4.66956">
        <ele>209</ele>
        <time>2017-07-11T09:30:19Z</time>
      </trkpt>
      <trkpt lat="45.85925" lon="4.66948">
        <ele>209</ele>
        <time>2017-07-11T09:30:20Z</time>
      </trkpt>
      <trkpt lat="45.85925" lon="4.6694">
        <ele>209</ele>
        <time>2017-07-11T09:30:21Z</time>
      </trkpt>
      <trkpt lat="45.85926" lon="4.66932">
        <ele>208</ele>
        <time>2017-07-11T09:30:22Z</time>
      </trkpt>
      <trkpt lat="45.85928" lon="4.66924">
        <ele>208</ele>
        <time>2017-07-11T09:30:23Z</time>
      </trkpt>
      <trkpt lat="45.8593" lon="4.66917">
        <ele>208</ele>
        <time>2017-07-11T09:30:24Z</time>
      </trkpt>
      <trkpt lat="45.85932" lon="4.6691">
        <ele>209</ele>
        <time>2017-07-11T09:30:25Z</time>
      </trkpt>
      <trkpt lat="45.85934" lon="4.66903">
        <ele>209</ele>
        <time>2017-07-11T09:30:26Z</time>
      </trkpt>
      <trkpt lat="45.85936" lon="4.66897">
        <ele>210</ele>
        <time>2017-07-11T09:30:27Z</time>
      </trkpt>
      <trkpt lat="45.85938" lon="4.6689">
        <ele>210</ele>
        <time>2017-07-11T09:30:28Z</time>
      </trkpt>
      <trkpt lat="45.85939" lon="4.66884">
        <ele>210</ele>
        <time>2017-07-11T09:30:29Z</time>
      </trkpt>
      <trkpt lat="45.85941" lon="4.66877">
        <ele>210</ele>
        <time>2017-07-11T09:30:30Z</time>
      </trkpt>
      <trkpt lat="45.85943" lon="4.6687">
        <ele>210</ele>
        <time>2017-07-11T09:30:31Z</time>
      </trkpt>
      <trkpt lat="45.85946" lon="4.66863">
        <ele>210</ele>
        <time>2017-07-11T09:30:32Z</time>
      </trkpt>
      <trkpt lat="45.85947" lon="4.66856">
        <ele>211</ele>
        <time>2017-07-11T09:30:33Z</time>
      </trkpt>
      <trkpt lat="45.85949" lon="4.66848">
        <ele>211</ele>
        <time>2017-07-11T09:30:34Z</time>
      </trkpt>
      <trkpt lat="45.8595" lon="4.6684">
        <ele>211</ele>
        <time>2017-07-11T09:30:35Z</time>
      </trkpt>
      <trkpt lat="45.85952" lon="4.66833">
        <ele>212</ele>
        <time>2017-07-11T09:30:36Z</time>
      </trkpt>
      <trkpt lat="45.85954" lon="4.66826">
        <ele>212</ele>
        <time>2017-07-11T09:30:37Z</time>
      </trkpt>
      <trkpt lat="45.85956" lon="4.6682">
        <ele>213</ele>
        <time>2017-07-11T09:30:38Z</time>
      </trkpt>
      <trkpt lat="45.85958" lon="4.66814">
        <ele>213</ele>
        <time>2017-07-11T09:30:39Z</time>
      </trkpt>
      <trkpt lat="45.85959" lon="4.66807">
        <ele>213</ele>
        <time>2017-07-11T09:30:40Z</time>
      </trkpt>
      <trkpt lat="45.85961" lon="4.66801">
        <ele>213</ele>
        <time>2017-07-11T09:30:41Z</time>
      </trkpt>
      <trkpt lat="45.85964" lon="4.66794">
        <ele>213</ele>
        <time>2017-07-11T09:30:42Z</time>
      </trkpt>
      <trkpt lat="45.85965" lon="4.66788">
        <ele>214</ele>
        <time>2017-07-11T09:30:43Z</time>
      </trkpt>
      <trkpt lat="45.85967" lon="4.66781">
        <ele>214</ele>
        <time>2017-07-11T09:30:44Z</time>
      </trkpt>
      <trkpt lat="45.8597" lon="4.66773">
        <ele>214</ele>
        <time>2017-07-11T09:30:45Z</time>
      </trkpt>
      <trkpt lat="45.85972" lon="4.66766">
        <ele>214</ele>
        <time>2017-07-11T09:30:46Z</time>
      </trkpt>
      <trkpt lat="45.85974" lon="4.66759">
        <ele>215</ele>
        <time>2017-07-11T09:30:47Z</time>
      </trkpt>
      <trkpt lat="45.85976" lon="4.66751">
        <ele>215</ele>
        <time>2017-07-11T09:30:48Z</time>
      </trkpt>
      <trkpt lat="45.85978" lon="4.66744">
        <ele>216</ele>
        <time>2017-07-11T09:30:49Z</time>
      </trkpt>
      <trkpt lat="45.85981" lon="4.66738">
        <ele>216</ele>
        <time>2017-07-11T09:30:50Z</time>
      </trkpt>
      <trkpt lat="45.85984" lon="4.66731">
        <ele>216</ele>
        <time>2017-07-11T09:30:51Z</time>
      </trkpt>
      <trkpt lat="45.85988" lon="4.66724">
        <ele>216</ele>
        <time>2017-07-11T09:30:52Z</time>
      </trkpt>
      <trkpt lat="45.8599" lon="4.66719">
        <ele>215</ele>
        <time>2017-07-11T09:30:53Z</time>
      </trkpt>
      <trkpt lat="45.85994" lon="4.66712">
        <ele>215</ele>
        <time>2017-07-11T09:30:54Z</time>
      </trkpt>
      <trkpt lat="45.85997" lon="4.66707">
        <ele>215</ele>
        <time>2017-07-11T09:30:55Z</time>
      </trkpt>
      <trkpt lat="45.85999" lon="4.66701">
        <ele>215</ele>
        <time>2017-07-11T09:30:56Z</time>
      </trkpt>
      <trkpt lat="45.86005" lon="4.66691">
        <ele>218</ele>
        <time>2017-07-11T09:30:58Z</time>
      </trkpt>
      <trkpt lat="45.8601" lon="4.66686">
        <ele>217</ele>
        <time>2017-07-11T09:30:59Z</time>
      </trkpt>
      <trkpt lat="45.86015" lon="4.66679">
        <ele>217</ele>
        <time>2017-07-11T09:31:00Z</time>
      </trkpt>
      <trkpt lat="45.86021" lon="4.66674">
        <ele>218</ele>
        <time>2017-07-11T09:31:01Z</time>
      </trkpt>
      <trkpt lat="45.86025" lon="4.66668">
        <ele>218</ele>
        <time>2017-07-11T09:31:02Z</time>
      </trkpt>
      <trkpt lat="45.8603" lon="4.66662">
        <ele>214</ele>
        <time>2017-07-11T09:31:03Z</time>
      </trkpt>
      <trkpt lat="45.86035" lon="4.66657">
        <ele>214</ele>
        <time>2017-07-11T09:31:04Z</time>
      </trkpt>
      <trkpt lat="45.8604" lon="4.66652">
        <ele>214</ele>
        <time>2017-07-11T09:31:05Z</time>
      </trkpt>
      <trkpt lat="45.86045" lon="4.66646">
        <ele>215</ele>
        <time>2017-07-11T09:31:06Z</time>
      </trkpt>
      <trkpt lat="45.8605" lon="4.66641">
        <ele>215</ele>
        <time>2017-07-11T09:31:07Z</time>
      </trkpt>
      <trkpt lat="45.86056" lon="4.66636">
        <ele>215</ele>
        <time>2017-07-11T09:31:08Z</time>
      </trkpt>
      <trkpt lat="45.86062" lon="4.66631">
        <ele>215</ele>
        <time>2017-07-11T09:31:09Z</time>
      </trkpt>
      <trkpt lat="45.86068" lon="4.66628">
        <ele>215</ele>
        <time>2017-07-11T09:31:10Z</time>
      </trkpt>
      <trkpt lat="45.86073" lon="4.66623">
        <ele>214</ele>
        <time>2017-07-11T09:31:11Z</time>
      </trkpt>
      <trkpt lat="45.86078" lon="4.66618">
        <ele>214</ele>
        <time>2017-07-11T09:31:12Z</time>
      </trkpt>
      <trkpt lat="45.86083" lon="4.66614">
        <ele>214</ele>
        <time>2017-07-11T09:31:13Z</time>
      </trkpt>
      <trkpt lat="45.86088" lon="4.66611">
        <ele>219</ele>
        <time>2017-07-11T09:31:14Z</time>
      </trkpt>
      <trkpt lat="45.86093" lon="4.66608">
        <ele>219</ele>
        <time>2017-07-11T09:31:15Z</time>
      </trkpt>
      <trkpt lat="45.86098" lon="4.66605">
        <ele>219</ele>
        <time>2017-07-11T09:31:16Z</time>
      </trkpt>
      <trkpt lat="45.86103" lon="4.66602">
        <ele>219</ele>
        <time>2017-07-11T09:31:17Z</time>
      </trkpt>
      <trkpt lat="45.86108" lon="4.666">
        <ele>220</ele>
        <time>2017-07-11T09:31:18Z</time>
      </trkpt>
      <trkpt lat="45.86113" lon="4.66597">
        <ele>220</ele>
        <time>2017-07-11T09:31:19Z</time>
      </trkpt>
      <trkpt lat="45.86118" lon="4.66593">
        <ele>221</ele>
        <time>2017-07-11T09:31:20Z</time>
      </trkpt>
      <trkpt lat="45.86123" lon="4.66588">
        <ele>221</ele>
        <time>2017-07-11T09:31:21Z</time>
      </trkpt>
      <trkpt lat="45.86128" lon="4.66584">
        <ele>221</ele>
        <time>2017-07-11T09:31:22Z</time>
      </trkpt>
      <trkpt lat="45.86132" lon="4.66581">
        <ele>215</ele>
        <time>2017-07-11T09:31:23Z</time>
      </trkpt>
      <trkpt lat="45.86137" lon="4.66576">
        <ele>215</ele>
        <time>2017-07-11T09:31:24Z</time>
      </trkpt>
      <trkpt lat="45.86142" lon="4.66571">
        <ele>216</ele>
        <time>2017-07-11T09:31:25Z</time>
      </trkpt>
      <trkpt lat="45.86147" lon="4.66566">
        <ele>216</ele>
        <time>2017-07-11T09:31:26Z</time>
      </trkpt>
      <trkpt lat="45.86151" lon="4.66561">
        <ele>216</ele>
        <time>2017-07-11T09:31:27Z</time>
      </trkpt>
      <trkpt lat="45.86155" lon="4.66556">
        <ele>215</ele>
        <time>2017-07-11T09:31:28Z</time>
      </trkpt>
      <trkpt lat="45.8616" lon="4.6655">
        <ele>215</ele>
        <time>2017-07-11T09:31:29Z</time>
      </trkpt>
      <trkpt lat="45.86164" lon="4.66543">
        <ele>214</ele>
        <time>2017-07-11T09:31:30Z</time>
      </trkpt>
      <trkpt lat="45.86167" lon="4.66537">
        <ele>219</ele>
        <time>2017-07-11T09:31:31Z</time>
      </trkpt>
      <trkpt lat="45.86171" lon="4.66531">
        <ele>218</ele>
        <time>2017-07-11T09:31:32Z</time>
      </trkpt>
      <trkpt lat="45.86175" lon="4.66525">
        <ele>218</ele>
        <time>2017-07-11T09:31:33Z</time>
      </trkpt>
      <trkpt lat="45.86179" lon="4.66519">
        <ele>217</ele>
        <time>2017-07-11T09:31:34Z</time>
      </trkpt>
      <trkpt lat="45.86184" lon="4.66512">
        <ele>216</ele>
        <time>2017-07-11T09:31:35Z</time>
      </trkpt>
      <trkpt lat="45.86188" lon="4.66505">
        <ele>217</ele>
        <time>2017-07-11T09:31:36Z</time>
      </trkpt>
      <trkpt lat="45.86193" lon="4.66498">
        <ele>213</ele>
        <time>2017-07-11T09:31:37Z</time>
      </trkpt>
      <trkpt lat="45.86197" lon="4.66491">
        <ele>213</ele>
        <time>2017-07-11T09:31:38Z</time>
      </trkpt>
      <trkpt lat="45.86202" lon="4.66483">
        <ele>213</ele>
        <time>2017-07-11T09:31:39Z</time>
      </trkpt>
      <trkpt lat="45.86206" lon="4.66475">
        <ele>213</ele>
        <time>2017-07-11T09:31:40Z</time>
      </trkpt>
      <trkpt lat="45.86211" lon="4.66467">
        <ele>213</ele>
        <time>2017-07-11T09:31:41Z</time>
      </trkpt>
      <trkpt lat="45.86214" lon="4.6646">
        <ele>214</ele>
        <time>2017-07-11T09:31:42Z</time>
      </trkpt>
      <trkpt lat="45.86217" lon="4.66454">
        <ele>214</ele>
        <time>2017-07-11T09:31:43Z</time>
      </trkpt>
      <trkpt lat="45.86221" lon="4.66447">
        <ele>214</ele>
        <time>2017-07-11T09:31:44Z</time>
      </trkpt>
      <trkpt lat="45.86224" lon="4.66441">
        <ele>214</ele>
        <time>2017-07-11T09:31:45Z</time>
      </trkpt>
      <trkpt lat="45.86227" lon="4.66434">
        <ele>214</ele>
        <time>2017-07-11T09:31:46Z</time>
      </trkpt>
      <trkpt lat="45.86231" lon="4.66429">
        <ele>214</ele>
        <time>2017-07-11T09:31:47Z</time>
      </trkpt>
      <trkpt lat="45.86234" lon="4.66422">
        <ele>214</ele>
        <time>2017-07-11T09:31:48Z</time>
      </trkpt>
      <trkpt lat="45.86239" lon="4.66416">
        <ele>213</ele>
        <time>2017-07-11T09:31:49Z</time>
      </trkpt>
      <trkpt lat="45.86242" lon="4.66409">
        <ele>213</ele>
        <time>2017-07-11T09:31:50Z</time>
      </trkpt>
      <trkpt lat="45.86246" lon="4.66402">
        <ele>213</ele>
        <time>2017-07-11T09:31:51Z</time>
      </trkpt>
      <trkpt lat="45.86249" lon="4.66396">
        <ele>213</ele>
        <time>2017-07-11T09:31:52Z</time>
      </trkpt>
      <trkpt lat="45.86253" lon="4.66389">
        <ele>216</ele>
        <time>2017-07-11T09:31:53Z</time>
      </trkpt>
      <trkpt lat="45.86257" lon="4.66383">
        <ele>216</ele>
        <time>2017-07-11T09:31:54Z</time>
      </trkpt>
      <trkpt lat="45.86261" lon="4.66377">
        <ele>216</ele>
        <time>2017-07-11T09:31:55Z</time>
      </trkpt>
      <trkpt lat="45.86265" lon="4.6637">
        <ele>216</ele>
        <time>2017-07-11T09:31:56Z</time>
      </trkpt>
      <trkpt lat="45.86268" lon="4.66365">
        <ele>216</ele>
        <time>2017-07-11T09:31:57Z</time>
      </trkpt>
      <trkpt lat="45.86272" lon="4.66359">
        <ele>216</ele>
        <time>2017-07-11T09:31:58Z</time>
      </trkpt>
      <trkpt lat="45.86275" lon="4.66353">
        <ele>216</ele>
        <time>2017-07-11T09:31:59Z</time>
      </trkpt>
      <trkpt lat="45.86279" lon="4.66348">
        <ele>216</ele>
        <time>2017-07-11T09:32:00Z</time>
      </trkpt>
      <trkpt lat="45.86282" lon="4.66344">
        <ele>217</ele>
        <time>2017-07-11T09:32:01Z</time>
      </trkpt>
      <trkpt lat="45.86287" lon="4.66339">
        <ele>217</ele>
        <time>2017-07-11T09:32:02Z</time>
      </trkpt>
      <trkpt lat="45.86291" lon="4.66332">
        <ele>215</ele>
        <time>2017-07-11T09:32:03Z</time>
      </trkpt>
      <trkpt lat="45.86294" lon="4.66326">
        <ele>215</ele>
        <time>2017-07-11T09:32:04Z</time>
      </trkpt>
      <trkpt lat="45.86298" lon="4.66319">
        <ele>215</ele>
        <time>2017-07-11T09:32:05Z</time>
      </trkpt>
      <trkpt lat="45.86302" lon="4.66314">
        <ele>215</ele>
        <time>2017-07-11T09:32:06Z</time>
      </trkpt>
      <trkpt lat="45.86306" lon="4.66308">
        <ele>215</ele>
        <time>2017-07-11T09:32:07Z</time>
      </trkpt>
      <trkpt lat="45.86311" lon="4.66302">
        <ele>215</ele>
        <time>2017-07-11T09:32:08Z</time>
      </trkpt>
      <trkpt lat="45.86316" lon="4.66297">
        <ele>215</ele>
        <time>2017-07-11T09:32:09Z</time>
      </trkpt>
      <trkpt lat="45.86321" lon="4.66292">
        <ele>215</ele>
        <time>2017-07-11T09:32:10Z</time>
      </trkpt>
      <trkpt lat="45.86325" lon="4.66286">
        <ele>214</ele>
        <time>2017-07-11T09:32:11Z</time>
      </trkpt>
      <trkpt lat="45.8633" lon="4.66282">
        <ele>214</ele>
        <time>2017-07-11T09:32:12Z</time>
      </trkpt>
      <trkpt lat="45.86335" lon="4.66278">
        <ele>218</ele>
        <time>2017-07-11T09:32:13Z</time>
      </trkpt>
      <trkpt lat="45.8634" lon="4.66274">
        <ele>218</ele>
        <time>2017-07-11T09:32:14Z</time>
      </trkpt>
      <trkpt lat="45.86345" lon="4.6627">
        <ele>218</ele>
        <time>2017-07-11T09:32:15Z</time>
      </trkpt>
      <trkpt lat="45.86349" lon="4.66267">
        <ele>218</ele>
        <time>2017-07-11T09:32:16Z</time>
      </trkpt>
      <trkpt lat="45.86355" lon="4.66263">
        <ele>218</ele>
        <time>2017-07-11T09:32:17Z</time>
      </trkpt>
      <trkpt lat="45.8636" lon="4.66259">
        <ele>218</ele>
        <time>2017-07-11T09:32:18Z</time>
      </trkpt>
      <trkpt lat="45.86364" lon="4.66256">
        <ele>218</ele>
        <time>2017-07-11T09:32:19Z</time>
      </trkpt>
      <trkpt lat="45.86369" lon="4.66252">
        <ele>219</ele>
        <time>2017-07-11T09:32:20Z</time>
      </trkpt>
      <trkpt lat="45.86374" lon="4.66249">
        <ele>214</ele>
        <time>2017-07-11T09:32:21Z</time>
      </trkpt>
      <trkpt lat="45.8638" lon="4.66245">
        <ele>214</ele>
        <time>2017-07-11T09:32:22Z</time>
      </trkpt>
      <trkpt lat="45.86385" lon="4.66242">
        <ele>214</ele>
        <time>2017-07-11T09:32:23Z</time>
      </trkpt>
      <trkpt lat="45.8639" lon="4.66239">
        <ele>215</ele>
        <time>2017-07-11T09:32:24Z</time>
      </trkpt>
      <trkpt lat="45.86395" lon="4.66236">
        <ele>215</ele>
        <time>2017-07-11T09:32:25Z</time>
      </trkpt>
      <trkpt lat="45.86401" lon="4.66233">
        <ele>215</ele>
        <time>2017-07-11T09:32:26Z</time>
      </trkpt>
      <trkpt lat="45.86406" lon="4.6623">
        <ele>215</ele>
        <time>2017-07-11T09:32:27Z</time>
      </trkpt>
      <trkpt lat="45.86412" lon="4.66228">
        <ele>215</ele>
        <time>2017-07-11T09:32:28Z</time>
      </trkpt>
      <trkpt lat="45.86416" lon="4.66226">
        <ele>215</ele>
        <time>2017-07-11T09:32:29Z</time>
      </trkpt>
      <trkpt lat="45.86422" lon="4.66224">
        <ele>218</ele>
        <time>2017-07-11T09:32:30Z</time>
      </trkpt>
      <trkpt lat="45.86427" lon="4.66223">
        <ele>218</ele>
        <time>2017-07-11T09:32:31Z</time>
      </trkpt>
      <trkpt lat="45.86435" lon="4.6622">
        <ele>218</ele>
        <time>2017-07-11T09:32:33Z</time>
      </trkpt>
      <trkpt lat="45.86439" lon="4.66219">
        <ele>218</ele>
        <time>2017-07-11T09:32:34Z</time>
      </trkpt>
      <trkpt lat="45.86447" lon="4.66217">
        <ele>218</ele>
        <time>2017-07-11T09:32:36Z</time>
      </trkpt>
      <trkpt lat="45.86451" lon="4.66215">
        <ele>218</ele>
        <time>2017-07-11T09:32:37Z</time>
      </trkpt>
      <trkpt lat="45.86456" lon="4.66213">
        <ele>218</ele>
        <time>2017-07-11T09:32:38Z</time>
      </trkpt>
      <trkpt lat="45.86461" lon="4.66212">
        <ele>218</ele>
        <time>2017-07-11T09:32:39Z</time>
      </trkpt>
      <trkpt lat="45.86465" lon="4.6621">
        <ele>218</ele>
        <time>2017-07-11T09:32:40Z</time>
      </trkpt>
      <trkpt lat="45.8647" lon="4.66208">
        <ele>218</ele>
        <time>2017-07-11T09:32:41Z</time>
      </trkpt>
      <trkpt lat="45.86474" lon="4.66206">
        <ele>218</ele>
        <time>2017-07-11T09:32:42Z</time>
      </trkpt>
      <trkpt lat="45.86479" lon="4.66204">
        <ele>218</ele>
        <time>2017-07-11T09:32:43Z</time>
      </trkpt>
      <trkpt lat="45.86486" lon="4.66201">
        <ele>218</ele>
        <time>2017-07-11T09:32:45Z</time>
      </trkpt>
      <trkpt lat="45.86489" lon="4.66199">
        <ele>218</ele>
        <time>2017-07-11T09:32:46Z</time>
      </trkpt>
      <trkpt lat="45.86497" lon="4.66195">
        <ele>217</ele>
        <time>2017-07-11T09:32:48Z</time>
      </trkpt>
      <trkpt lat="45.86501" lon="4.66193">
        <ele>222</ele>
        <time>2017-07-11T09:32:49Z</time>
      </trkpt>
      <trkpt lat="45.86505" lon="4.6619">
        <ele>222</ele>
        <time>2017-07-11T09:32:50Z</time>
      </trkpt>
      <trkpt lat="45.86509" lon="4.66187">
        <ele>222</ele>
        <time>2017-07-11T09:32:51Z</time>
      </trkpt>
      <trkpt lat="45.86514" lon="4.66185">
        <ele>222</ele>
        <time>2017-07-11T09:32:52Z</time>
      </trkpt>
      <trkpt lat="45.86519" lon="4.66182">
        <ele>222</ele>
        <time>2017-07-11T09:32:53Z</time>
      </trkpt>
      <trkpt lat="45.86523" lon="4.66179">
        <ele>223</ele>
        <time>2017-07-11T09:32:54Z</time>
      </trkpt>
      <trkpt lat="45.86528" lon="4.66175">
        <ele>223</ele>
        <time>2017-07-11T09:32:55Z</time>
      </trkpt>
      <trkpt lat="45.86536" lon="4.66172">
        <ele>224</ele>
        <time>2017-07-11T09:32:57Z</time>
      </trkpt>
      <trkpt lat="45.86539" lon="4.6617">
        <ele>225</ele>
        <time>2017-07-11T09:32:58Z</time>
      </trkpt>
      <trkpt lat="45.86544" lon="4.66167">
        <ele>218</ele>
        <time>2017-07-11T09:32:59Z</time>
      </trkpt>
      <trkpt lat="45.86549" lon="4.66163">
        <ele>218</ele>
        <time>2017-07-11T09:33:00Z</time>
      </trkpt>
      <trkpt lat="45.86553" lon="4.66159">
        <ele>218</ele>
        <time>2017-07-11T09:33:01Z</time>
      </trkpt>
      <trkpt lat="45.86557" lon="4.66155">
        <ele>219</ele>
        <time>2017-07-11T09:33:02Z</time>
      </trkpt>
      <trkpt lat="45.86562" lon="4.66152">
        <ele>219</ele>
        <time>2017-07-11T09:33:03Z</time>
      </trkpt>
      <trkpt lat="45.86567" lon="4.66149">
        <ele>219</ele>
        <time>2017-07-11T09:33:04Z</time>
      </trkpt>
      <trkpt lat="45.86571" lon="4.66145">
        <ele>219</ele>
        <time>2017-07-11T09:33:05Z</time>
      </trkpt>
      <trkpt lat="45.86575" lon="4.66141">
        <ele>219</ele>
        <time>2017-07-11T09:33:06Z</time>
      </trkpt>
      <trkpt lat="45.8658" lon="4.66137">
        <ele>218</ele>
        <time>2017-07-11T09:33:07Z</time>
      </trkpt>
      <trkpt lat="45.86584" lon="4.66134">
        <ele>225</ele>
        <time>2017-07-11T09:33:08Z</time>
      </trkpt>
      <trkpt lat="45.86588" lon="4.6613">
        <ele>224</ele>
        <time>2017-07-11T09:33:09Z</time>
      </trkpt>
      <trkpt lat="45.86592" lon="4.66127">
        <ele>224</ele>
        <time>2017-07-11T09:33:10Z</time>
      </trkpt>
      <trkpt lat="45.86597" lon="4.66123">
        <ele>224</ele>
        <time>2017-07-11T09:33:11Z</time>
      </trkpt>
      <trkpt lat="45.86601" lon="4.6612">
        <ele>223</ele>
        <time>2017-07-11T09:33:12Z</time>
      </trkpt>
      <trkpt lat="45.86608" lon="4.66116">
        <ele>223</ele>
        <time>2017-07-11T09:33:14Z</time>
      </trkpt>
      <trkpt lat="45.86612" lon="4.66114">
        <ele>223</ele>
        <time>2017-07-11T09:33:15Z</time>
      </trkpt>
      <trkpt lat="45.86616" lon="4.6611">
        <ele>223</ele>
        <time>2017-07-11T09:33:16Z</time>
      </trkpt>
      <trkpt lat="45.8662" lon="4.66106">
        <ele>223</ele>
        <time>2017-07-11T09:33:17Z</time>
      </trkpt>
      <trkpt lat="45.86625" lon="4.66103">
        <ele>223</ele>
        <time>2017-07-11T09:33:18Z</time>
      </trkpt>
      <trkpt lat="45.86629" lon="4.66099">
        <ele>223</ele>
        <time>2017-07-11T09:33:19Z</time>
      </trkpt>
      <trkpt lat="45.86634" lon="4.66097">
        <ele>223</ele>
        <time>2017-07-11T09:33:20Z</time>
      </trkpt>
      <trkpt lat="45.8664" lon="4.66094">
        <ele>223</ele>
        <time>2017-07-11T09:33:21Z</time>
      </trkpt>
      <trkpt lat="45.86645" lon="4.66091">
        <ele>223</ele>
        <time>2017-07-11T09:33:22Z</time>
      </trkpt>
      <trkpt lat="45.86649" lon="4.66088">
        <ele>222</ele>
        <time>2017-07-11T09:33:23Z</time>
      </trkpt>
      <trkpt lat="45.86655" lon="4.66085">
        <ele>222</ele>
        <time>2017-07-11T09:33:24Z</time>
      </trkpt>
      <trkpt lat="45.86659" lon="4.66082">
        <ele>217</ele>
        <time>2017-07-11T09:33:25Z</time>
      </trkpt>
      <trkpt lat="45.86664" lon="4.6608">
        <ele>218</ele>
        <time>2017-07-11T09:33:26Z</time>
      </trkpt>
      <trkpt lat="45.86669" lon="4.66078">
        <ele>220</ele>
        <time>2017-07-11T09:33:27Z</time>
      </trkpt>
      <trkpt lat="45.86674" lon="4.66077">
        <ele>220</ele>
        <time>2017-07-11T09:33:28Z</time>
      </trkpt>
      <trkpt lat="45.86679" lon="4.66075">
        <ele>220</ele>
        <time>2017-07-11T09:33:29Z</time>
      </trkpt>
      <trkpt lat="45.86683" lon="4.66073">
        <ele>221</ele>
        <time>2017-07-11T09:33:30Z</time>
      </trkpt>
      <trkpt lat="45.86688" lon="4.66072">
        <ele>221</ele>
        <time>2017-07-11T09:33:31Z</time>
      </trkpt>
      <trkpt lat="45.86693" lon="4.66069">
        <ele>222</ele>
        <time>2017-07-11T09:33:32Z</time>
      </trkpt>
      <trkpt lat="45.86698" lon="4.66067">
        <ele>222</ele>
        <time>2017-07-11T09:33:33Z</time>
      </trkpt>
      <trkpt lat="45.86702" lon="4.66065">
        <ele>223</ele>
        <time>2017-07-11T09:33:34Z</time>
      </trkpt>
      <trkpt lat="45.86708" lon="4.66062">
        <ele>223</ele>
        <time>2017-07-11T09:33:35Z</time>
      </trkpt>
      <trkpt lat="45.86712" lon="4.6606">
        <ele>223</ele>
        <time>2017-07-11T09:33:36Z</time>
      </trkpt>
      <trkpt lat="45.86717" lon="4.66057">
        <ele>224</ele>
        <time>2017-07-11T09:33:37Z</time>
      </trkpt>
      <trkpt lat="45.86721" lon="4.66054">
        <ele>224</ele>
        <time>2017-07-11T09:33:38Z</time>
      </trkpt>
      <trkpt lat="45.86726" lon="4.66051">
        <ele>224</ele>
        <time>2017-07-11T09:33:39Z</time>
      </trkpt>
      <trkpt lat="45.86731" lon="4.66047">
        <ele>224</ele>
        <time>2017-07-11T09:33:40Z</time>
      </trkpt>
      <trkpt lat="45.86736" lon="4.66043">
        <ele>223</ele>
        <time>2017-07-11T09:33:41Z</time>
      </trkpt>
      <trkpt lat="45.8674" lon="4.66039">
        <ele>223</ele>
        <time>2017-07-11T09:33:42Z</time>
      </trkpt>
      <trkpt lat="45.86745" lon="4.66034">
        <ele>222</ele>
        <time>2017-07-11T09:33:43Z</time>
      </trkpt>
      <trkpt lat="45.8675" lon="4.6603">
        <ele>222</ele>
        <time>2017-07-11T09:33:44Z</time>
      </trkpt>
      <trkpt lat="45.86754" lon="4.66026">
        <ele>230</ele>
        <time>2017-07-11T09:33:45Z</time>
      </trkpt>
      <trkpt lat="45.86758" lon="4.66021">
        <ele>229</ele>
        <time>2017-07-11T09:33:46Z</time>
      </trkpt>
      <trkpt lat="45.86762" lon="4.66016">
        <ele>228</ele>
        <time>2017-07-11T09:33:47Z</time>
      </trkpt>
      <trkpt lat="45.86766" lon="4.66011">
        <ele>227</ele>
        <time>2017-07-11T09:33:48Z</time>
      </trkpt>
      <trkpt lat="45.86769" lon="4.66006">
        <ele>228</ele>
        <time>2017-07-11T09:33:49Z</time>
      </trkpt>
      <trkpt lat="45.86773" lon="4.66001">
        <ele>228</ele>
        <time>2017-07-11T09:33:50Z</time>
      </trkpt>
      <trkpt lat="45.86777" lon="4.65997">
        <ele>221</ele>
        <time>2017-07-11T09:33:51Z</time>
      </trkpt>
      <trkpt lat="45.8678" lon="4.65993">
        <ele>221</ele>
        <time>2017-07-11T09:33:52Z</time>
      </trkpt>
      <trkpt lat="45.86784" lon="4.65989">
        <ele>222</ele>
        <time>2017-07-11T09:33:53Z</time>
      </trkpt>
      <trkpt lat="45.86789" lon="4.65981">
        <ele>222</ele>
        <time>2017-07-11T09:33:55Z</time>
      </trkpt>
      <trkpt lat="45.86792" lon="4.65976">
        <ele>222</ele>
        <time>2017-07-11T09:33:56Z</time>
      </trkpt>
      <trkpt lat="45.86798" lon="4.65967">
        <ele>222</ele>
        <time>2017-07-11T09:33:58Z</time>
      </trkpt>
      <trkpt lat="45.86801" lon="4.65963">
        <ele>222</ele>
        <time>2017-07-11T09:33:59Z</time>
      </trkpt>
      <trkpt lat="45.86805" lon="4.65958">
        <ele>222</ele>
        <time>2017-07-11T09:34:00Z</time>
      </trkpt>
      <trkpt lat="45.86809" lon="4.65953">
        <ele>222</ele>
        <time>2017-07-11T09:34:01Z</time>
      </trkpt>
      <trkpt lat="45.86812" lon="4.65948">
        <ele>222</ele>
        <time>2017-07-11T09:34:02Z</time>
      </trkpt>
      <trkpt lat="45.86815" lon="4.65942">
        <ele>222</ele>
        <time>2017-07-11T09:34:03Z</time>
      </trkpt>
      <trkpt lat="45.86818" lon="4.65936">
        <ele>222</ele>
        <time>2017-07-11T09:34:04Z</time>
      </trkpt>
      <trkpt lat="45.86821" lon="4.65931">
        <ele>221</ele>
        <time>2017-07-11T09:34:05Z</time>
      </trkpt>
      <trkpt lat="45.86827" lon="4.65923">
        <ele>221</ele>
        <time>2017-07-11T09:34:07Z</time>
      </trkpt>
      <trkpt lat="45.8683" lon="4.65919">
        <ele>221</ele>
        <time>2017-07-11T09:34:08Z</time>
      </trkpt>
      <trkpt lat="45.86833" lon="4.65914">
        <ele>220</ele>
        <time>2017-07-11T09:34:09Z</time>
      </trkpt>
      <trkpt lat="45.86837" lon="4.65909">
        <ele>223</ele>
        <time>2017-07-11T09:34:10Z</time>
      </trkpt>
      <trkpt lat="45.8684" lon="4.65903">
        <ele>225</ele>
        <time>2017-07-11T09:34:11Z</time>
      </trkpt>
      <trkpt lat="45.86843" lon="4.65898">
        <ele>225</ele>
        <time>2017-07-11T09:34:12Z</time>
      </trkpt>
      <trkpt lat="45.86846" lon="4.65893">
        <ele>226</ele>
        <time>2017-07-11T09:34:13Z</time>
      </trkpt>
      <trkpt lat="45.86849" lon="4.65887">
        <ele>226</ele>
        <time>2017-07-11T09:34:14Z</time>
      </trkpt>
      <trkpt lat="45.86854" lon="4.65877">
        <ele>227</ele>
        <time>2017-07-11T09:34:16Z</time>
      </trkpt>
      <trkpt lat="45.86856" lon="4.65872">
        <ele>227</ele>
        <time>2017-07-11T09:34:17Z</time>
      </trkpt>
      <trkpt lat="45.86859" lon="4.65867">
        <ele>226</ele>
        <time>2017-07-11T09:34:18Z</time>
      </trkpt>
      <trkpt lat="45.86862" lon="4.65861">
        <ele>226</ele>
        <time>2017-07-11T09:34:19Z</time>
      </trkpt>
      <trkpt lat="45.86865" lon="4.65854">
        <ele>226</ele>
        <time>2017-07-11T09:34:20Z</time>
      </trkpt>
      <trkpt lat="45.86868" lon="4.65848">
        <ele>226</ele>
        <time>2017-07-11T09:34:21Z</time>
      </trkpt>
      <trkpt lat="45.86872" lon="4.65836">
        <ele>227</ele>
        <time>2017-07-11T09:34:23Z</time>
      </trkpt>
      <trkpt lat="45.86874" lon="4.6583">
        <ele>222</ele>
        <time>2017-07-11T09:34:24Z</time>
      </trkpt>
      <trkpt lat="45.86876" lon="4.65824">
        <ele>223</ele>
        <time>2017-07-11T09:34:25Z</time>
      </trkpt>
      <trkpt lat="45.86878" lon="4.65817">
        <ele>223</ele>
        <time>2017-07-11T09:34:26Z</time>
      </trkpt>
      <trkpt lat="45.8688" lon="4.65805">
        <ele>223</ele>
        <time>2017-07-11T09:34:28Z</time>
      </trkpt>
      <trkpt lat="45.86881" lon="4.658">
        <ele>223</ele>
        <time>2017-07-11T09:34:29Z</time>
      </trkpt>
      <trkpt lat="45.86882" lon="4.65789">
        <ele>223</ele>
        <time>2017-07-11T09:34:31Z</time>
      </trkpt>
      <trkpt lat="45.86882" lon="4.65784">
        <ele>223</ele>
        <time>2017-07-11T09:34:32Z</time>
      </trkpt>
      <trkpt lat="45.86883" lon="4.65778">
        <ele>223</ele>
        <time>2017-07-11T09:34:33Z</time>
      </trkpt>
      <trkpt lat="45.86884" lon="4.65771">
        <ele>223</ele>
        <time>2017-07-11T09:34:34Z</time>
      </trkpt>
      <trkpt lat="45.86885" lon="4.65765">
        <ele>223</ele>
        <time>2017-07-11T09:34:35Z</time>
      </trkpt>
      <trkpt lat="45.86887" lon="4.65758">
        <ele>223</ele>
        <time>2017-07-11T09:34:36Z</time>
      </trkpt>
      <trkpt lat="45.86888" lon="4.65751">
        <ele>224</ele>
        <time>2017-07-11T09:34:37Z</time>
      </trkpt>
      <trkpt lat="45.8689" lon="4.65744">
        <ele>223</ele>
        <time>2017-07-11T09:34:38Z</time>
      </trkpt>
      <trkpt lat="45.86891" lon="4.65736">
        <ele>223</ele>
        <time>2017-07-11T09:34:39Z</time>
      </trkpt>
      <trkpt lat="45.86893" lon="4.65728">
        <ele>223</ele>
        <time>2017-07-11T09:34:40Z</time>
      </trkpt>
      <trkpt lat="45.86894" lon="4.65721">
        <ele>223</ele>
        <time>2017-07-11T09:34:41Z</time>
      </trkpt>
      <trkpt lat="45.86895" lon="4.65713">
        <ele>223</ele>
        <time>2017-07-11T09:34:42Z</time>
      </trkpt>
      <trkpt lat="45.86895" lon="4.65705">
        <ele>223</ele>
        <time>2017-07-11T09:34:43Z</time>
      </trkpt>
      <trkpt lat="45.86896" lon="4.65698">
        <ele>223</ele>
        <time>2017-07-11T09:34:44Z</time>
      </trkpt>
      <trkpt lat="45.86896" lon="4.65689">
        <ele>224</ele>
        <time>2017-07-11T09:34:45Z</time>
      </trkpt>
      <trkpt lat="45.86897" lon="4.65681">
        <ele>225</ele>
        <time>2017-07-11T09:34:46Z</time>
      </trkpt>
      <trkpt lat="45.86897" lon="4.65672">
        <ele>225</ele>
        <time>2017-07-11T09:34:47Z</time>
      </trkpt>
      <trkpt lat="45.86898" lon="4.65664">
        <ele>225</ele>
        <time>2017-07-11T09:34:48Z</time>
      </trkpt>
      <trkpt lat="45.86898" lon="4.65655">
        <ele>225</ele>
        <time>2017-07-11T09:34:49Z</time>
      </trkpt>
      <trkpt lat="45.86898" lon="4.65645">
        <ele>224</ele>
        <time>2017-07-11T09:34:50Z</time>
      </trkpt>
      <trkpt lat="45.86898" lon="4.65635">
        <ele>223</ele>
        <time>2017-07-11T09:34:51Z</time>
      </trkpt>
      <trkpt lat="45.86899" lon="4.65626">
        <ele>223</ele>
        <time>2017-07-11T09:34:52Z</time>
      </trkpt>
      <trkpt lat="45.86901" lon="4.65616">
        <ele>223</ele>
        <time>2017-07-11T09:34:53Z</time>
      </trkpt>
      <trkpt lat="45.86902" lon="4.65606">
        <ele>223</ele>
        <time>2017-07-11T09:34:54Z</time>
      </trkpt>
      <trkpt lat="45.86903" lon="4.65596">
        <ele>223</ele>
        <time>2017-07-11T09:34:55Z</time>
      </trkpt>
      <trkpt lat="45.86906" lon="4.65586">
        <ele>224</ele>
        <time>2017-07-11T09:34:56Z</time>
      </trkpt>
      <trkpt lat="45.86908" lon="4.65576">
        <ele>223</ele>
        <time>2017-07-11T09:34:57Z</time>
      </trkpt>
      <trkpt lat="45.86911" lon="4.65566">
        <ele>221</ele>
        <time>2017-07-11T09:34:58Z</time>
      </trkpt>
      <trkpt lat="45.86914" lon="4.65557">
        <ele>220</ele>
        <time>2017-07-11T09:34:59Z</time>
      </trkpt>
      <trkpt lat="45.86917" lon="4.65547">
        <ele>230</ele>
        <time>2017-07-11T09:35:00Z</time>
      </trkpt>
      <trkpt lat="45.86921" lon="4.65538">
        <ele>229</ele>
        <time>2017-07-11T09:35:01Z</time>
      </trkpt>
      <trkpt lat="45.86924" lon="4.65528">
        <ele>228</ele>
        <time>2017-07-11T09:35:02Z</time>
      </trkpt>
      <trkpt lat="45.86928" lon="4.65518">
        <ele>227</ele>
        <time>2017-07-11T09:35:03Z</time>
      </trkpt>
      <trkpt lat="45.86931" lon="4.65509">
        <ele>226</ele>
        <time>2017-07-11T09:35:04Z</time>
      </trkpt>
      <trkpt lat="45.86934" lon="4.655">
        <ele>226</ele>
        <time>2017-07-11T09:35:05Z</time>
      </trkpt>
      <trkpt lat="45.86939" lon="4.65492">
        <ele>221</ele>
        <time>2017-07-11T09:35:06Z</time>
      </trkpt>
      <trkpt lat="45.86943" lon="4.65485">
        <ele>222</ele>
        <time>2017-07-11T09:35:07Z</time>
      </trkpt>
      <trkpt lat="45.86947" lon="4.65478">
        <ele>222</ele>
        <time>2017-07-11T09:35:08Z</time>
      </trkpt>
      <trkpt lat="45.86951" lon="4.65471">
        <ele>222</ele>
        <time>2017-07-11T09:35:09Z</time>
      </trkpt>
      <trkpt lat="45.86955" lon="4.65465">
        <ele>222</ele>
        <time>2017-07-11T09:35:10Z</time>
      </trkpt>
      <trkpt lat="45.8696" lon="4.65459">
        <ele>222</ele>
        <time>2017-07-11T09:35:11Z</time>
      </trkpt>
      <trkpt lat="45.86964" lon="4.65453">
        <ele>222</ele>
        <time>2017-07-11T09:35:12Z</time>
      </trkpt>
      <trkpt lat="45.86969" lon="4.65446">
        <ele>222</ele>
        <time>2017-07-11T09:35:13Z</time>
      </trkpt>
      <trkpt lat="45.86974" lon="4.6544">
        <ele>222</ele>
        <time>2017-07-11T09:35:14Z</time>
      </trkpt>
      <trkpt lat="45.86978" lon="4.65435">
        <ele>222</ele>
        <time>2017-07-11T09:35:15Z</time>
      </trkpt>
      <trkpt lat="45.86983" lon="4.65429">
        <ele>222</ele>
        <time>2017-07-11T09:35:16Z</time>
      </trkpt>
      <trkpt lat="45.86989" lon="4.65423">
        <ele>221</ele>
        <time>2017-07-11T09:35:17Z</time>
      </trkpt>
      <trkpt lat="45.86994" lon="4.65418">
        <ele>221</ele>
        <time>2017-07-11T09:35:18Z</time>
      </trkpt>
      <trkpt lat="45.86999" lon="4.65411">
        <ele>220</ele>
        <time>2017-07-11T09:35:19Z</time>
      </trkpt>
      <trkpt lat="45.87005" lon="4.65405">
        <ele>222</ele>
        <time>2017-07-11T09:35:20Z</time>
      </trkpt>
      <trkpt lat="45.8701" lon="4.65399">
        <ele>223</ele>
        <time>2017-07-11T09:35:21Z</time>
      </trkpt>
      <trkpt lat="45.87014" lon="4.65392">
        <ele>223</ele>
        <time>2017-07-11T09:35:22Z</time>
      </trkpt>
      <trkpt lat="45.87019" lon="4.65386">
        <ele>223</ele>
        <time>2017-07-11T09:35:23Z</time>
      </trkpt>
      <trkpt lat="45.87023" lon="4.65379">
        <ele>223</ele>
        <time>2017-07-11T09:35:24Z</time>
      </trkpt>
      <trkpt lat="45.87028" lon="4.65374">
        <ele>223</ele>
        <time>2017-07-11T09:35:25Z</time>
      </trkpt>
      <trkpt lat="45.87033" lon="4.65366">
        <ele>223</ele>
        <time>2017-07-11T09:35:26Z</time>
      </trkpt>
      <trkpt lat="45.87038" lon="4.65358">
        <ele>223</ele>
        <time>2017-07-11T09:35:27Z</time>
      </trkpt>
      <trkpt lat="45.87043" lon="4.65351">
        <ele>223</ele>
        <time>2017-07-11T09:35:28Z</time>
      </trkpt>
      <trkpt lat="45.87048" lon="4.65344">
        <ele>223</ele>
        <time>2017-07-11T09:35:29Z</time>
      </trkpt>
      <trkpt lat="45.87052" lon="4.65337">
        <ele>223</ele>
        <time>2017-07-11T09:35:30Z</time>
      </trkpt>
      <trkpt lat="45.87057" lon="4.65329">
        <ele>218</ele>
        <time>2017-07-11T09:35:31Z</time>
      </trkpt>
      <trkpt lat="45.87061" lon="4.65321">
        <ele>218</ele>
        <time>2017-07-11T09:35:32Z</time>
      </trkpt>
      <trkpt lat="45.87065" lon="4.65314">
        <ele>218</ele>
        <time>2017-07-11T09:35:33Z</time>
      </trkpt>
      <trkpt lat="45.87069" lon="4.65307">
        <ele>218</ele>
        <time>2017-07-11T09:35:34Z</time>
      </trkpt>
      <trkpt lat="45.87072" lon="4.65299">
        <ele>217</ele>
        <time>2017-07-11T09:35:35Z</time>
      </trkpt>
      <trkpt lat="45.87075" lon="4.65292">
        <ele>216</ele>
        <time>2017-07-11T09:35:36Z</time>
      </trkpt>
      <trkpt lat="45.87078" lon="4.65284">
        <ele>216</ele>
        <time>2017-07-11T09:35:37Z</time>
      </trkpt>
      <trkpt lat="45.87081" lon="4.65276">
        <ele>215</ele>
        <time>2017-07-11T09:35:38Z</time>
      </trkpt>
      <trkpt lat="45.87083" lon="4.6527">
        <ele>215</ele>
        <time>2017-07-11T09:35:39Z</time>
      </trkpt>
      <trkpt lat="45.87085" lon="4.65263">
        <ele>220</ele>
        <time>2017-07-11T09:35:40Z</time>
      </trkpt>
      <trkpt lat="45.87089" lon="4.65255">
        <ele>218</ele>
        <time>2017-07-11T09:35:41Z</time>
      </trkpt>
      <trkpt lat="45.87093" lon="4.65248">
        <ele>216</ele>
        <time>2017-07-11T09:35:42Z</time>
      </trkpt>
      <trkpt lat="45.87096" lon="4.65242">
        <ele>217</ele>
        <time>2017-07-11T09:35:43Z</time>
      </trkpt>
      <trkpt lat="45.871" lon="4.65237">
        <ele>218</ele>
        <time>2017-07-11T09:35:44Z</time>
      </trkpt>
      <trkpt lat="45.87103" lon="4.65231">
        <ele>218</ele>
        <time>2017-07-11T09:35:45Z</time>
      </trkpt>
      <trkpt lat="45.87107" lon="4.65226">
        <ele>219</ele>
        <time>2017-07-11T09:35:46Z</time>
      </trkpt>
      <trkpt lat="45.87112" lon="4.6522">
        <ele>219</ele>
        <time>2017-07-11T09:35:47Z</time>
      </trkpt>
      <trkpt lat="45.87116" lon="4.65214">
        <ele>220</ele>
        <time>2017-07-11T09:35:48Z</time>
      </trkpt>
      <trkpt lat="45.8712" lon="4.65208">
        <ele>220</ele>
        <time>2017-07-11T09:35:49Z</time>
      </trkpt>
      <trkpt lat="45.87125" lon="4.65203">
        <ele>220</ele>
        <time>2017-07-11T09:35:50Z</time>
      </trkpt>
      <trkpt lat="45.87131" lon="4.65197">
        <ele>220</ele>
        <time>2017-07-11T09:35:51Z</time>
      </trkpt>
      <trkpt lat="45.87137" lon="4.65192">
        <ele>220</ele>
        <time>2017-07-11T09:35:52Z</time>
      </trkpt>
      <trkpt lat="45.87142" lon="4.65187">
        <ele>220</ele>
        <time>2017-07-11T09:35:53Z</time>
      </trkpt>
      <trkpt lat="45.87147" lon="4.65182">
        <ele>220</ele>
        <time>2017-07-11T09:35:54Z</time>
      </trkpt>
      <trkpt lat="45.87151" lon="4.65177">
        <ele>220</ele>
        <time>2017-07-11T09:35:55Z</time>
      </trkpt>
      <trkpt lat="45.87156" lon="4.65173">
        <ele>220</ele>
        <time>2017-07-11T09:35:56Z</time>
      </trkpt>
      <trkpt lat="45.87161" lon="4.65168">
        <ele>220</ele>
        <time>2017-07-11T09:35:57Z</time>
      </trkpt>
      <trkpt lat="45.87166" lon="4.65164">
        <ele>219</ele>
        <time>2017-07-11T09:35:58Z</time>
      </trkpt>
      <trkpt lat="45.8717" lon="4.6516">
        <ele>221</ele>
        <time>2017-07-11T09:35:59Z</time>
      </trkpt>
      <trkpt lat="45.87175" lon="4.65155">
        <ele>221</ele>
        <time>2017-07-11T09:36:00Z</time>
      </trkpt>
      <trkpt lat="45.8718" lon="4.65151">
        <ele>221</ele>
        <time>2017-07-11T09:36:01Z</time>
      </trkpt>
      <trkpt lat="45.87185" lon="4.65147">
        <ele>222</ele>
        <time>2017-07-11T09:36:02Z</time>
      </trkpt>
      <trkpt lat="45.8719" lon="4.65143">
        <ele>222</ele>
        <time>2017-07-11T09:36:03Z</time>
      </trkpt>
      <trkpt lat="45.87195" lon="4.65139">
        <ele>222</ele>
        <time>2017-07-11T09:36:04Z</time>
      </trkpt>
      <trkpt lat="45.872" lon="4.65135">
        <ele>222</ele>
        <time>2017-07-11T09:36:05Z</time>
      </trkpt>
      <trkpt lat="45.87206" lon="4.6513">
        <ele>222</ele>
        <time>2017-07-11T09:36:06Z</time>
      </trkpt>
      <trkpt lat="45.87212" lon="4.65126">
        <ele>222</ele>
        <time>2017-07-11T09:36:07Z</time>
      </trkpt>
      <trkpt lat="45.87218" lon="4.65122">
        <ele>222</ele>
        <time>2017-07-11T09:36:08Z</time>
      </trkpt>
      <trkpt lat="45.87224" lon="4.65117">
        <ele>222</ele>
        <time>2017-07-11T09:36:09Z</time>
      </trkpt>
      <trkpt lat="45.87229" lon="4.65113">
        <ele>222</ele>
        <time>2017-07-11T09:36:10Z</time>
      </trkpt>
      <trkpt lat="45.87233" lon="4.65108">
        <ele>222</ele>
        <time>2017-07-11T09:36:11Z</time>
      </trkpt>
      <trkpt lat="45.87238" lon="4.65104">
        <ele>221</ele>
        <time>2017-07-11T09:36:12Z</time>
      </trkpt>
      <trkpt lat="45.87242" lon="4.65099">
        <ele>221</ele>
        <time>2017-07-11T09:36:13Z</time>
      </trkpt>
      <trkpt lat="45.87246" lon="4.65095">
        <ele>220</ele>
        <time>2017-07-11T09:36:14Z</time>
      </trkpt>
      <trkpt lat="45.87251" lon="4.6509">
        <ele>222</ele>
        <time>2017-07-11T09:36:15Z</time>
      </trkpt>
      <trkpt lat="45.87255" lon="4.65086">
        <ele>221</ele>
        <time>2017-07-11T09:36:16Z</time>
      </trkpt>
      <trkpt lat="45.8726" lon="4.6508">
        <ele>219</ele>
        <time>2017-07-11T09:36:17Z</time>
      </trkpt>
      <trkpt lat="45.87265" lon="4.65075">
        <ele>219</ele>
        <time>2017-07-11T09:36:18Z</time>
      </trkpt>
      <trkpt lat="45.87269" lon="4.6507">
        <ele>219</ele>
        <time>2017-07-11T09:36:19Z</time>
      </trkpt>
      <trkpt lat="45.87274" lon="4.65065">
        <ele>220</ele>
        <time>2017-07-11T09:36:20Z</time>
      </trkpt>
      <trkpt lat="45.87279" lon="4.65059">
        <ele>220</ele>
        <time>2017-07-11T09:36:21Z</time>
      </trkpt>
      <trkpt lat="45.87283" lon="4.65052">
        <ele>220</ele>
        <time>2017-07-11T09:36:22Z</time>
      </trkpt>
      <trkpt lat="45.87288" lon="4.65046">
        <ele>220</ele>
        <time>2017-07-11T09:36:23Z</time>
      </trkpt>
      <trkpt lat="45.87292" lon="4.65041">
        <ele>220</ele>
        <time>2017-07-11T09:36:24Z</time>
      </trkpt>
      <trkpt lat="45.87296" lon="4.65035">
        <ele>220</ele>
        <time>2017-07-11T09:36:25Z</time>
      </trkpt>
      <trkpt lat="45.873" lon="4.65029">
        <ele>219</ele>
        <time>2017-07-11T09:36:26Z</time>
      </trkpt>
      <trkpt lat="45.87304" lon="4.65023">
        <ele>219</ele>
        <time>2017-07-11T09:36:27Z</time>
      </trkpt>
      <trkpt lat="45.87309" lon="4.65018">
        <ele>219</ele>
        <time>2017-07-11T09:36:28Z</time>
      </trkpt>
      <trkpt lat="45.87313" lon="4.65012">
        <ele>219</ele>
        <time>2017-07-11T09:36:29Z</time>
      </trkpt>
      <trkpt lat="45.87317" lon="4.65006">
        <ele>219</ele>
        <time>2017-07-11T09:36:30Z</time>
      </trkpt>
      <trkpt lat="45.87322" lon="4.65">
        <ele>216</ele>
        <time>2017-07-11T09:36:31Z</time>
      </trkpt>
      <trkpt lat="45.87325" lon="4.64993">
        <ele>216</ele>
        <time>2017-07-11T09:36:32Z</time>
      </trkpt>
      <trkpt lat="45.87329" lon="4.64986">
        <ele>216</ele>
        <time>2017-07-11T09:36:33Z</time>
      </trkpt>
      <trkpt lat="45.87333" lon="4.64979">
        <ele>215</ele>
        <time>2017-07-11T09:36:34Z</time>
      </trkpt>
      <trkpt lat="45.87336" lon="4.64971">
        <ele>219</ele>
        <time>2017-07-11T09:36:35Z</time>
      </trkpt>
      <trkpt lat="45.8734" lon="4.64964">
        <ele>219</ele>
        <time>2017-07-11T09:36:36Z</time>
      </trkpt>
      <trkpt lat="45.87343" lon="4.64957">
        <ele>218</ele>
        <time>2017-07-11T09:36:37Z</time>
      </trkpt>
      <trkpt lat="45.87346" lon="4.64952">
        <ele>218</ele>
        <time>2017-07-11T09:36:38Z</time>
      </trkpt>
      <trkpt lat="45.87349" lon="4.64946">
        <ele>218</ele>
        <time>2017-07-11T09:36:39Z</time>
      </trkpt>
      <trkpt lat="45.87354" lon="4.6494">
        <ele>218</ele>
        <time>2017-07-11T09:36:40Z</time>
      </trkpt>
      <trkpt lat="45.87358" lon="4.64934">
        <ele>218</ele>
        <time>2017-07-11T09:36:41Z</time>
      </trkpt>
      <trkpt lat="45.87363" lon="4.64928">
        <ele>218</ele>
        <time>2017-07-11T09:36:42Z</time>
      </trkpt>
      <trkpt lat="45.87366" lon="4.64922">
        <ele>218</ele>
        <time>2017-07-11T09:36:43Z</time>
      </trkpt>
      <trkpt lat="45.8737" lon="4.64918">
        <ele>218</ele>
        <time>2017-07-11T09:36:44Z</time>
      </trkpt>
      <trkpt lat="45.87374" lon="4.64913">
        <ele>215</ele>
        <time>2017-07-11T09:36:45Z</time>
      </trkpt>
      <trkpt lat="45.87378" lon="4.64908">
        <ele>215</ele>
        <time>2017-07-11T09:36:46Z</time>
      </trkpt>
      <trkpt lat="45.87382" lon="4.64902">
        <ele>215</ele>
        <time>2017-07-11T09:36:47Z</time>
      </trkpt>
      <trkpt lat="45.87385" lon="4.64896">
        <ele>216</ele>
        <time>2017-07-11T09:36:48Z</time>
      </trkpt>
      <trkpt lat="45.87389" lon="4.64891">
        <ele>216</ele>
        <time>2017-07-11T09:36:49Z</time>
      </trkpt>
      <trkpt lat="45.87394" lon="4.64885">
        <ele>216</ele>
        <time>2017-07-11T09:36:50Z</time>
      </trkpt>
      <trkpt lat="45.87398" lon="4.64879">
        <ele>216</ele>
        <time>2017-07-11T09:36:51Z</time>
      </trkpt>
      <trkpt lat="45.87402" lon="4.64873">
        <ele>215</ele>
        <time>2017-07-11T09:36:52Z</time>
      </trkpt>
      <trkpt lat="45.87408" lon="4.64868">
        <ele>215</ele>
        <time>2017-07-11T09:36:53Z</time>
      </trkpt>
      <trkpt lat="45.87412" lon="4.64863">
        <ele>215</ele>
        <time>2017-07-11T09:36:54Z</time>
      </trkpt>
      <trkpt lat="45.87417" lon="4.64858">
        <ele>215</ele>
        <time>2017-07-11T09:36:55Z</time>
      </trkpt>
      <trkpt lat="45.87421" lon="4.64853">
        <ele>219</ele>
        <time>2017-07-11T09:36:56Z</time>
      </trkpt>
      <trkpt lat="45.87425" lon="4.64848">
        <ele>218</ele>
        <time>2017-07-11T09:36:57Z</time>
      </trkpt>
      <trkpt lat="45.87428" lon="4.64844">
        <ele>218</ele>
        <time>2017-07-11T09:36:58Z</time>
      </trkpt>
      <trkpt lat="45.87434" lon="4.64835">
        <ele>218</ele>
        <time>2017-07-11T09:37:00Z</time>
      </trkpt>
      <trkpt lat="45.87438" lon="4.6483">
        <ele>215</ele>
        <time>2017-07-11T09:37:01Z</time>
      </trkpt>
      <trkpt lat="45.87442" lon="4.64827">
        <ele>215</ele>
        <time>2017-07-11T09:37:02Z</time>
      </trkpt>
      <trkpt lat="45.87447" lon="4.64822">
        <ele>215</ele>
        <time>2017-07-11T09:37:03Z</time>
      </trkpt>
      <trkpt lat="45.8745" lon="4.64817">
        <ele>215</ele>
        <time>2017-07-11T09:37:04Z</time>
      </trkpt>
      <trkpt lat="45.87455" lon="4.64811">
        <ele>215</ele>
        <time>2017-07-11T09:37:05Z</time>
      </trkpt>
      <trkpt lat="45.87459" lon="4.64805">
        <ele>215</ele>
        <time>2017-07-11T09:37:06Z</time>
      </trkpt>
      <trkpt lat="45.87462" lon="4.648">
        <ele>215</ele>
        <time>2017-07-11T09:37:07Z</time>
      </trkpt>
      <trkpt lat="45.87466" lon="4.64794">
        <ele>214</ele>
        <time>2017-07-11T09:37:08Z</time>
      </trkpt>
      <trkpt lat="45.8747" lon="4.64788">
        <ele>214</ele>
        <time>2017-07-11T09:37:09Z</time>
      </trkpt>
      <trkpt lat="45.87473" lon="4.64783">
        <ele>214</ele>
        <time>2017-07-11T09:37:10Z</time>
      </trkpt>
      <trkpt lat="45.87476" lon="4.64778">
        <ele>214</ele>
        <time>2017-07-11T09:37:11Z</time>
      </trkpt>
      <trkpt lat="45.8748" lon="4.64773">
        <ele>214</ele>
        <time>2017-07-11T09:37:12Z</time>
      </trkpt>
      <trkpt lat="45.87485" lon="4.64767">
        <ele>214</ele>
        <time>2017-07-11T09:37:13Z</time>
      </trkpt>
      <trkpt lat="45.87489" lon="4.64762">
        <ele>214</ele>
        <time>2017-07-11T09:37:14Z</time>
      </trkpt>
      <trkpt lat="45.87493" lon="4.64756">
        <ele>213</ele>
        <time>2017-07-11T09:37:15Z</time>
      </trkpt>
      <trkpt lat="45.87497" lon="4.6475">
        <ele>213</ele>
        <time>2017-07-11T09:37:16Z</time>
      </trkpt>
      <trkpt lat="45.87501" lon="4.64744">
        <ele>213</ele>
        <time>2017-07-11T09:37:17Z</time>
      </trkpt>
      <trkpt lat="45.87506" lon="4.64739">
        <ele>213</ele>
        <time>2017-07-11T09:37:18Z</time>
      </trkpt>
      <trkpt lat="45.87511" lon="4.64733">
        <ele>213</ele>
        <time>2017-07-11T09:37:19Z</time>
      </trkpt>
      <trkpt lat="45.87515" lon="4.64727">
        <ele>213</ele>
        <time>2017-07-11T09:37:20Z</time>
      </trkpt>
      <trkpt lat="45.87519" lon="4.64721">
        <ele>212</ele>
        <time>2017-07-11T09:37:21Z</time>
      </trkpt>
      <trkpt lat="45.87523" lon="4.64715">
        <ele>212</ele>
        <time>2017-07-11T09:37:22Z</time>
      </trkpt>
      <trkpt lat="45.87528" lon="4.64709">
        <ele>212</ele>
        <time>2017-07-11T09:37:23Z</time>
      </trkpt>
      <trkpt lat="45.87531" lon="4.64704">
        <ele>212</ele>
        <time>2017-07-11T09:37:24Z</time>
      </trkpt>
      <trkpt lat="45.87535" lon="4.64699">
        <ele>212</ele>
        <time>2017-07-11T09:37:25Z</time>
      </trkpt>
      <trkpt lat="45.87538" lon="4.64694">
        <ele>212</ele>
        <time>2017-07-11T09:37:26Z</time>
      </trkpt>
      <trkpt lat="45.87542" lon="4.64689">
        <ele>212</ele>
        <time>2017-07-11T09:37:27Z</time>
      </trkpt>
      <trkpt lat="45.87545" lon="4.64684">
        <ele>212</ele>
        <time>2017-07-11T09:37:28Z</time>
      </trkpt>
      <trkpt lat="45.87548" lon="4.64679">
        <ele>212</ele>
        <time>2017-07-11T09:37:29Z</time>
      </trkpt>
      <trkpt lat="45.87552" lon="4.64674">
        <ele>212</ele>
        <time>2017-07-11T09:37:30Z</time>
      </trkpt>
      <trkpt lat="45.87555" lon="4.64668">
        <ele>212</ele>
        <time>2017-07-11T09:37:31Z</time>
      </trkpt>
      <trkpt lat="45.87559" lon="4.64663">
        <ele>212</ele>
        <time>2017-07-11T09:37:32Z</time>
      </trkpt>
      <trkpt lat="45.87562" lon="4.64657">
        <ele>212</ele>
        <time>2017-07-11T09:37:33Z</time>
      </trkpt>
      <trkpt lat="45.87565" lon="4.64652">
        <ele>212</ele>
        <time>2017-07-11T09:37:34Z</time>
      </trkpt>
      <trkpt lat="45.87569" lon="4.64646">
        <ele>212</ele>
        <time>2017-07-11T09:37:35Z</time>
      </trkpt>
      <trkpt lat="45.87574" lon="4.6464">
        <ele>212</ele>
        <time>2017-07-11T09:37:36Z</time>
      </trkpt>
      <trkpt lat="45.87578" lon="4.64634">
        <ele>212</ele>
        <time>2017-07-11T09:37:37Z</time>
      </trkpt>
      <trkpt lat="45.87581" lon="4.64629">
        <ele>212</ele>
        <time>2017-07-11T09:37:38Z</time>
      </trkpt>
      <trkpt lat="45.87585" lon="4.64625">
        <ele>212</ele>
        <time>2017-07-11T09:37:39Z</time>
      </trkpt>
      <trkpt lat="45.87588" lon="4.6462">
        <ele>212</ele>
        <time>2017-07-11T09:37:40Z</time>
      </trkpt>
      <trkpt lat="45.87592" lon="4.64615">
        <ele>212</ele>
        <time>2017-07-11T09:37:41Z</time>
      </trkpt>
      <trkpt lat="45.87595" lon="4.64611">
        <ele>212</ele>
        <time>2017-07-11T09:37:42Z</time>
      </trkpt>
      <trkpt lat="45.87599" lon="4.64607">
        <ele>212</ele>
        <time>2017-07-11T09:37:43Z</time>
      </trkpt>
      <trkpt lat="45.87604" lon="4.64601">
        <ele>212</ele>
        <time>2017-07-11T09:37:44Z</time>
      </trkpt>
      <trkpt lat="45.87608" lon="4.64596">
        <ele>212</ele>
        <time>2017-07-11T09:37:45Z</time>
      </trkpt>
      <trkpt lat="45.87612" lon="4.64591">
        <ele>212</ele>
        <time>2017-07-11T09:37:46Z</time>
      </trkpt>
      <trkpt lat="45.87617" lon="4.64585">
        <ele>212</ele>
        <time>2017-07-11T09:37:47Z</time>
      </trkpt>
      <trkpt lat="45.87621" lon="4.6458">
        <ele>212</ele>
        <time>2017-07-11T09:37:48Z</time>
      </trkpt>
      <trkpt lat="45.87626" lon="4.64575">
        <ele>212</ele>
        <time>2017-07-11T09:37:49Z</time>
      </trkpt>
      <trkpt lat="45.8763" lon="4.64569">
        <ele>212</ele>
        <time>2017-07-11T09:37:50Z</time>
      </trkpt>
      <trkpt lat="45.87634" lon="4.64564">
        <ele>212</ele>
        <time>2017-07-11T09:37:51Z</time>
      </trkpt>
      <trkpt lat="45.87637" lon="4.64559">
        <ele>212</ele>
        <time>2017-07-11T09:37:52Z</time>
      </trkpt>
      <trkpt lat="45.87641" lon="4.64554">
        <ele>212</ele>
        <time>2017-07-11T09:37:53Z</time>
      </trkpt>
      <trkpt lat="45.87645" lon="4.64549">
        <ele>212</ele>
        <time>2017-07-11T09:37:54Z</time>
      </trkpt>
      <trkpt lat="45.87648" lon="4.64544">
        <ele>213</ele>
        <time>2017-07-11T09:37:55Z</time>
      </trkpt>
      <trkpt lat="45.87651" lon="4.6454">
        <ele>213</ele>
        <time>2017-07-11T09:37:56Z</time>
      </trkpt>
      <trkpt lat="45.87655" lon="4.64535">
        <ele>213</ele>
        <time>2017-07-11T09:37:57Z</time>
      </trkpt>
      <trkpt lat="45.87658" lon="4.6453">
        <ele>213</ele>
        <time>2017-07-11T09:37:58Z</time>
      </trkpt>
      <trkpt lat="45.87661" lon="4.64526">
        <ele>213</ele>
        <time>2017-07-11T09:37:59Z</time>
      </trkpt>
      <trkpt lat="45.87668" lon="4.64518">
        <ele>215</ele>
        <time>2017-07-11T09:38:01Z</time>
      </trkpt>
      <trkpt lat="45.87671" lon="4.64516">
        <ele>215</ele>
        <time>2017-07-11T09:38:02Z</time>
      </trkpt>
      <trkpt lat="45.87676" lon="4.64509">
        <ele>215</ele>
        <time>2017-07-11T09:38:04Z</time>
      </trkpt>
      <trkpt lat="45.87679" lon="4.64506">
        <ele>215</ele>
        <time>2017-07-11T09:38:05Z</time>
      </trkpt>
      <trkpt lat="45.87685" lon="4.64502">
        <ele>215</ele>
        <time>2017-07-11T09:38:07Z</time>
      </trkpt>
      <trkpt lat="45.87689" lon="4.64503">
        <ele>215</ele>
        <time>2017-07-11T09:38:08Z</time>
      </trkpt>
      <trkpt lat="45.87695" lon="4.64508">
        <ele>215</ele>
        <time>2017-07-11T09:38:10Z</time>
      </trkpt>
      <trkpt lat="45.87696" lon="4.64512">
        <ele>215</ele>
        <time>2017-07-11T09:38:11Z</time>
      </trkpt>
      <trkpt lat="45.87698" lon="4.64517">
        <ele>215</ele>
        <time>2017-07-11T09:38:12Z</time>
      </trkpt>
      <trkpt lat="45.87702" lon="4.64523">
        <ele>215</ele>
        <time>2017-07-11T09:38:13Z</time>
      </trkpt>
      <trkpt lat="45.87706" lon="4.64529">
        <ele>216</ele>
        <time>2017-07-11T09:38:14Z</time>
      </trkpt>
      <trkpt lat="45.87708" lon="4.64535">
        <ele>216</ele>
        <time>2017-07-11T09:38:15Z</time>
      </trkpt>
      <trkpt lat="45.87712" lon="4.6454">
        <ele>216</ele>
        <time>2017-07-11T09:38:16Z</time>
      </trkpt>
      <trkpt lat="45.87715" lon="4.64546">
        <ele>216</ele>
        <time>2017-07-11T09:38:17Z</time>
      </trkpt>
      <trkpt lat="45.87718" lon="4.64553">
        <ele>216</ele>
        <time>2017-07-11T09:38:18Z</time>
      </trkpt>
      <trkpt lat="45.8772" lon="4.6456">
        <ele>216</ele>
        <time>2017-07-11T09:38:19Z</time>
      </trkpt>
      <trkpt lat="45.87721" lon="4.64571">
        <ele>217</ele>
        <time>2017-07-11T09:38:21Z</time>
      </trkpt>
      <trkpt lat="45.87721" lon="4.64578">
        <ele>217</ele>
        <time>2017-07-11T09:38:22Z</time>
      </trkpt>
      <trkpt lat="45.87721" lon="4.64584">
        <ele>217</ele>
        <time>2017-07-11T09:38:23Z</time>
      </trkpt>
      <trkpt lat="45.87722" lon="4.64591">
        <ele>217</ele>
        <time>2017-07-11T09:38:24Z</time>
      </trkpt>
      <trkpt lat="45.87723" lon="4.64603">
        <ele>217</ele>
        <time>2017-07-11T09:38:26Z</time>
      </trkpt>
      <trkpt lat="45.87724" lon="4.64609">
        <ele>217</ele>
        <time>2017-07-11T09:38:27Z</time>
      </trkpt>
      <trkpt lat="45.87726" lon="4.64616">
        <ele>217</ele>
        <time>2017-07-11T09:38:28Z</time>
      </trkpt>
      <trkpt lat="45.87726" lon="4.64623">
        <ele>217</ele>
        <time>2017-07-11T09:38:29Z</time>
      </trkpt>
      <trkpt lat="45.87727" lon="4.64629">
        <ele>217</ele>
        <time>2017-07-11T09:38:30Z</time>
      </trkpt>
      <trkpt lat="45.87728" lon="4.64636">
        <ele>217</ele>
        <time>2017-07-11T09:38:31Z</time>
      </trkpt>
      <trkpt lat="45.87727" lon="4.64648">
        <ele>217</ele>
        <time>2017-07-11T09:38:33Z</time>
      </trkpt>
      <trkpt lat="45.87726" lon="4.64653">
        <ele>217</ele>
        <time>2017-07-11T09:38:34Z</time>
      </trkpt>
      <trkpt lat="45.87725" lon="4.64666">
        <ele>217</ele>
        <time>2017-07-11T09:38:36Z</time>
      </trkpt>
      <trkpt lat="45.87724" lon="4.64673">
        <ele>216</ele>
        <time>2017-07-11T09:38:37Z</time>
      </trkpt>
      <trkpt lat="45.87724" lon="4.6468">
        <ele>216</ele>
        <time>2017-07-11T09:38:38Z</time>
      </trkpt>
      <trkpt lat="45.87724" lon="4.64688">
        <ele>216</ele>
        <time>2017-07-11T09:38:39Z</time>
      </trkpt>
      <trkpt lat="45.87724" lon="4.64695">
        <ele>215</ele>
        <time>2017-07-11T09:38:40Z</time>
      </trkpt>
      <trkpt lat="45.87725" lon="4.64703">
        <ele>215</ele>
        <time>2017-07-11T09:38:41Z</time>
      </trkpt>
      <trkpt lat="45.87726" lon="4.6471">
        <ele>215</ele>
        <time>2017-07-11T09:38:42Z</time>
      </trkpt>
      <trkpt lat="45.87726" lon="4.64718">
        <ele>215</ele>
        <time>2017-07-11T09:38:43Z</time>
      </trkpt>
      <trkpt lat="45.87726" lon="4.64725">
        <ele>215</ele>
        <time>2017-07-11T09:38:44Z</time>
      </trkpt>
      <trkpt lat="45.87727" lon="4.64731">
        <ele>214</ele>
        <time>2017-07-11T09:38:45Z</time>
      </trkpt>
      <trkpt lat="45.87729" lon="4.64737">
        <ele>214</ele>
        <time>2017-07-11T09:38:46Z</time>
      </trkpt>
      <trkpt lat="45.87731" lon="4.64743">
        <ele>214</ele>
        <time>2017-07-11T09:38:47Z</time>
      </trkpt>
      <trkpt lat="45.87733" lon="4.64756">
        <ele>213</ele>
        <time>2017-07-11T09:38:49Z</time>
      </trkpt>
      <trkpt lat="45.87734" lon="4.64762">
        <ele>213</ele>
        <time>2017-07-11T09:38:50Z</time>
      </trkpt>
      <trkpt lat="45.87736" lon="4.64774">
        <ele>213</ele>
        <time>2017-07-11T09:38:52Z</time>
      </trkpt>
      <trkpt lat="45.87738" lon="4.6478">
        <ele>213</ele>
        <time>2017-07-11T09:38:53Z</time>
      </trkpt>
      <trkpt lat="45.8774" lon="4.64786">
        <ele>213</ele>
        <time>2017-07-11T09:38:54Z</time>
      </trkpt>
      <trkpt lat="45.87743" lon="4.64791">
        <ele>213</ele>
        <time>2017-07-11T09:38:55Z</time>
      </trkpt>
      <trkpt lat="45.87746" lon="4.64796">
        <ele>214</ele>
        <time>2017-07-11T09:38:56Z</time>
      </trkpt>
      <trkpt lat="45.87748" lon="4.64802">
        <ele>214</ele>
        <time>2017-07-11T09:38:57Z</time>
      </trkpt>
      <trkpt lat="45.87754" lon="4.64811">
        <ele>214</ele>
        <time>2017-07-11T09:38:59Z</time>
      </trkpt>
      <trkpt lat="45.87757" lon="4.64815">
        <ele>214</ele>
        <time>2017-07-11T09:39:00Z</time>
      </trkpt>
      <trkpt lat="45.87762" lon="4.64823">
        <ele>214</ele>
        <time>2017-07-11T09:39:02Z</time>
      </trkpt>
      <trkpt lat="45.87765" lon="4.64826">
        <ele>214</ele>
        <time>2017-07-11T09:39:03Z</time>
      </trkpt>
      <trkpt lat="45.87768" lon="4.64833">
        <ele>214</ele>
        <time>2017-07-11T09:39:05Z</time>
      </trkpt>
      <trkpt lat="45.87771" lon="4.64837">
        <ele>216</ele>
        <time>2017-07-11T09:39:06Z</time>
      </trkpt>
      <trkpt lat="45.87775" lon="4.64843">
        <ele>217</ele>
        <time>2017-07-11T09:39:08Z</time>
      </trkpt>
      <trkpt lat="45.87776" lon="4.64847">
        <ele>217</ele>
        <time>2017-07-11T09:39:09Z</time>
      </trkpt>
      <trkpt lat="45.87781" lon="4.64856">
        <ele>218</ele>
        <time>2017-07-11T09:39:12Z</time>
      </trkpt>
      <trkpt lat="45.87783" lon="4.64859">
        <ele>218</ele>
        <time>2017-07-11T09:39:13Z</time>
      </trkpt>
      <trkpt lat="45.87787" lon="4.64869">
        <ele>218</ele>
        <time>2017-07-11T09:39:16Z</time>
      </trkpt>
      <trkpt lat="45.87789" lon="4.64872">
        <ele>218</ele>
        <time>2017-07-11T09:39:17Z</time>
      </trkpt>
      <trkpt lat="45.87792" lon="4.64881">
        <ele>219</ele>
        <time>2017-07-11T09:39:20Z</time>
      </trkpt>
      <trkpt lat="45.87794" lon="4.64885">
        <ele>219</ele>
        <time>2017-07-11T09:39:21Z</time>
      </trkpt>
      <trkpt lat="45.87798" lon="4.64893">
        <ele>219</ele>
        <time>2017-07-11T09:39:23Z</time>
      </trkpt>
      <trkpt lat="45.878" lon="4.64896">
        <ele>219</ele>
        <time>2017-07-11T09:39:24Z</time>
      </trkpt>
      <trkpt lat="45.87804" lon="4.64907">
        <ele>220</ele>
        <time>2017-07-11T09:39:27Z</time>
      </trkpt>
      <trkpt lat="45.87806" lon="4.64911">
        <ele>220</ele>
        <time>2017-07-11T09:39:28Z</time>
      </trkpt>
      <trkpt lat="45.8781" lon="4.64918">
        <ele>224</ele>
        <time>2017-07-11T09:39:30Z</time>
      </trkpt>
      <trkpt lat="45.87811" lon="4.64922">
        <ele>224</ele>
        <time>2017-07-11T09:39:31Z</time>
      </trkpt>
      <trkpt lat="45.87815" lon="4.64933">
        <ele>224</ele>
        <time>2017-07-11T09:39:34Z</time>
      </trkpt>
      <trkpt lat="45.87816" lon="4.64936">
        <ele>225</ele>
        <time>2017-07-11T09:39:35Z</time>
      </trkpt>
      <trkpt lat="45.87821" lon="4.64945">
        <ele>225</ele>
        <time>2017-07-11T09:39:38Z</time>
      </trkpt>
      <trkpt lat="45.87822" lon="4.64948">
        <ele>225</ele>
        <time>2017-07-11T09:39:39Z</time>
      </trkpt>
      <trkpt lat="45.87828" lon="4.64956">
        <ele>226</ele>
        <time>2017-07-11T09:39:43Z</time>
      </trkpt>
      <trkpt lat="45.87831" lon="4.64958">
        <ele>226</ele>
        <time>2017-07-11T09:39:44Z</time>
      </trkpt>
      <trkpt lat="45.87838" lon="4.64964">
        <ele>228</ele>
        <time>2017-07-11T09:39:48Z</time>
      </trkpt>
      <trkpt lat="45.87841" lon="4.64965">
        <ele>228</ele>
        <time>2017-07-11T09:39:49Z</time>
      </trkpt>
      <trkpt lat="45.87848" lon="4.64969">
        <ele>229</ele>
        <time>2017-07-11T09:39:52Z</time>
      </trkpt>
      <trkpt lat="45.8785" lon="4.64971">
        <ele>229</ele>
        <time>2017-07-11T09:39:53Z</time>
      </trkpt>
      <trkpt lat="45.87858" lon="4.64977">
        <ele>229</ele>
        <time>2017-07-11T09:39:58Z</time>
      </trkpt>
      <trkpt lat="45.87861" lon="4.64978">
        <ele>229</ele>
        <time>2017-07-11T09:39:59Z</time>
      </trkpt>
      <trkpt lat="45.87869" lon="4.64982">
        <ele>230</ele>
        <time>2017-07-11T09:40:03Z</time>
      </trkpt>
      <trkpt lat="45.87871" lon="4.64983">
        <ele>230</ele>
        <time>2017-07-11T09:40:04Z</time>
      </trkpt>
      <trkpt lat="45.8788" lon="4.64985">
        <ele>231</ele>
        <time>2017-07-11T09:40:08Z</time>
      </trkpt>
      <trkpt lat="45.87882" lon="4.64985">
        <ele>231</ele>
        <time>2017-07-11T09:40:09Z</time>
      </trkpt>
      <trkpt lat="45.87889" lon="4.64986">
        <ele>231</ele>
        <time>2017-07-11T09:40:12Z</time>
      </trkpt>
      <trkpt lat="45.87892" lon="4.64987">
        <ele>232</ele>
        <time>2017-07-11T09:40:13Z</time>
      </trkpt>
      <trkpt lat="45.879" lon="4.64986">
        <ele>232</ele>
        <time>2017-07-11T09:40:17Z</time>
      </trkpt>
      <trkpt lat="45.87902" lon="4.64986">
        <ele>233</ele>
        <time>2017-07-11T09:40:18Z</time>
      </trkpt>
      <trkpt lat="45.87911" lon="4.64987">
        <ele>233</ele>
        <time>2017-07-11T09:40:23Z</time>
      </trkpt>
      <trkpt lat="45.87913" lon="4.64987">
        <ele>234</ele>
        <time>2017-07-11T09:40:24Z</time>
      </trkpt>
      <trkpt lat="45.87921" lon="4.64985">
        <ele>237</ele>
        <time>2017-07-11T09:40:28Z</time>
      </trkpt>
      <trkpt lat="45.87922" lon="4.64985">
        <ele>237</ele>
        <time>2017-07-11T09:40:29Z</time>
      </trkpt>
      <trkpt lat="45.8793" lon="4.64984">
        <ele>237</ele>
        <time>2017-07-11T09:40:34Z</time>
      </trkpt>
      <trkpt lat="45.87932" lon="4.64985">
        <ele>237</ele>
        <time>2017-07-11T09:40:35Z</time>
      </trkpt>
      <trkpt lat="45.8794" lon="4.64982">
        <ele>237</ele>
        <time>2017-07-11T09:40:41Z</time>
      </trkpt>
      <trkpt lat="45.87942" lon="4.64981">
        <ele>237</ele>
        <time>2017-07-11T09:40:42Z</time>
      </trkpt>
      <trkpt lat="45.8795" lon="4.64978">
        <ele>238</ele>
        <time>2017-07-11T09:40:46Z</time>
      </trkpt>
      <trkpt lat="45.87952" lon="4.64977">
        <ele>238</ele>
        <time>2017-07-11T09:40:47Z</time>
      </trkpt>
      <trkpt lat="45.87959" lon="4.6497">
        <ele>238</ele>
        <time>2017-07-11T09:40:51Z</time>
      </trkpt>
      <trkpt lat="45.8796" lon="4.64969">
        <ele>238</ele>
        <time>2017-07-11T09:40:52Z</time>
      </trkpt>
      <trkpt lat="45.87968" lon="4.64965">
        <ele>238</ele>
        <time>2017-07-11T09:40:57Z</time>
      </trkpt>
      <trkpt lat="45.87969" lon="4.64964">
        <ele>238</ele>
        <time>2017-07-11T09:40:58Z</time>
      </trkpt>
      <trkpt lat="45.87975" lon="4.64956">
        <ele>238</ele>
        <time>2017-07-11T09:41:02Z</time>
      </trkpt>
      <trkpt lat="45.87977" lon="4.64954">
        <ele>238</ele>
        <time>2017-07-11T09:41:03Z</time>
      </trkpt>
      <trkpt lat="45.87985" lon="4.6495">
        <ele>238</ele>
        <time>2017-07-11T09:41:07Z</time>
      </trkpt>
      <trkpt lat="45.87987" lon="4.6495">
        <ele>238</ele>
        <time>2017-07-11T09:41:08Z</time>
      </trkpt>
      <trkpt lat="45.87994" lon="4.64944">
        <ele>237</ele>
        <time>2017-07-11T09:41:12Z</time>
      </trkpt>
      <trkpt lat="45.87995" lon="4.64943">
        <ele>237</ele>
        <time>2017-07-11T09:41:13Z</time>
      </trkpt>
      <trkpt lat="45.88002" lon="4.64936">
        <ele>244</ele>
        <time>2017-07-11T09:41:17Z</time>
      </trkpt>
      <trkpt lat="45.88003" lon="4.64935">
        <ele>243</ele>
        <time>2017-07-11T09:41:18Z</time>
      </trkpt>
      <trkpt lat="45.88009" lon="4.64928">
        <ele>242</ele>
        <time>2017-07-11T09:41:22Z</time>
      </trkpt>
      <trkpt lat="45.8801" lon="4.64926">
        <ele>242</ele>
        <time>2017-07-11T09:41:23Z</time>
      </trkpt>
      <trkpt lat="45.88017" lon="4.6492">
        <ele>243</ele>
        <time>2017-07-11T09:41:27Z</time>
      </trkpt>
      <trkpt lat="45.88019" lon="4.64918">
        <ele>244</ele>
        <time>2017-07-11T09:41:28Z</time>
      </trkpt>
      <trkpt lat="45.88025" lon="4.64913">
        <ele>238</ele>
        <time>2017-07-11T09:41:31Z</time>
      </trkpt>
      <trkpt lat="45.88027" lon="4.64911">
        <ele>238</ele>
        <time>2017-07-11T09:41:32Z</time>
      </trkpt>
      <trkpt lat="45.88033" lon="4.64904">
        <ele>239</ele>
        <time>2017-07-11T09:41:36Z</time>
      </trkpt>
      <trkpt lat="45.88035" lon="4.64901">
        <ele>239</ele>
        <time>2017-07-11T09:41:37Z</time>
      </trkpt>
      <trkpt lat="45.88042" lon="4.64896">
        <ele>239</ele>
        <time>2017-07-11T09:41:40Z</time>
      </trkpt>
      <trkpt lat="45.88044" lon="4.64894">
        <ele>239</ele>
        <time>2017-07-11T09:41:41Z</time>
      </trkpt>
      <trkpt lat="45.88051" lon="4.64888">
        <ele>240</ele>
        <time>2017-07-11T09:41:45Z</time>
      </trkpt>
      <trkpt lat="45.88052" lon="4.64886">
        <ele>240</ele>
        <time>2017-07-11T09:41:46Z</time>
      </trkpt>
      <trkpt lat="45.88057" lon="4.64877">
        <ele>239</ele>
        <time>2017-07-11T09:41:50Z</time>
      </trkpt>
      <trkpt lat="45.88058" lon="4.64876">
        <ele>239</ele>
        <time>2017-07-11T09:41:51Z</time>
      </trkpt>
      <trkpt lat="45.88065" lon="4.64871">
        <ele>239</ele>
        <time>2017-07-11T09:41:55Z</time>
      </trkpt>
      <trkpt lat="45.88066" lon="4.64869">
        <ele>239</ele>
        <time>2017-07-11T09:41:56Z</time>
      </trkpt>
      <trkpt lat="45.88073" lon="4.64865">
        <ele>239</ele>
        <time>2017-07-11T09:42:00Z</time>
      </trkpt>
      <trkpt lat="45.88075" lon="4.64865">
        <ele>239</ele>
        <time>2017-07-11T09:42:01Z</time>
      </trkpt>
      <trkpt lat="45.88082" lon="4.6486">
        <ele>238</ele>
        <time>2017-07-11T09:42:05Z</time>
      </trkpt>
      <trkpt lat="45.88084" lon="4.64858">
        <ele>245</ele>
        <time>2017-07-11T09:42:06Z</time>
      </trkpt>
      <trkpt lat="45.88091" lon="4.64854">
        <ele>244</ele>
        <time>2017-07-11T09:42:09Z</time>
      </trkpt>
      <trkpt lat="45.88093" lon="4.64854">
        <ele>244</ele>
        <time>2017-07-11T09:42:10Z</time>
      </trkpt>
      <trkpt lat="45.88102" lon="4.64851">
        <ele>245</ele>
        <time>2017-07-11T09:42:15Z</time>
      </trkpt>
      <trkpt lat="45.88103" lon="4.6485">
        <ele>245</ele>
        <time>2017-07-11T09:42:16Z</time>
      </trkpt>
      <trkpt lat="45.88111" lon="4.6485">
        <ele>246</ele>
        <time>2017-07-11T09:42:20Z</time>
      </trkpt>
      <trkpt lat="45.88113" lon="4.6485">
        <ele>246</ele>
        <time>2017-07-11T09:42:21Z</time>
      </trkpt>
      <trkpt lat="45.88122" lon="4.64849">
        <ele>247</ele>
        <time>2017-07-11T09:42:26Z</time>
      </trkpt>
      <trkpt lat="45.88123" lon="4.6485">
        <ele>247</ele>
        <time>2017-07-11T09:42:27Z</time>
      </trkpt>
      <trkpt lat="45.88131" lon="4.6485">
        <ele>247</ele>
        <time>2017-07-11T09:42:32Z</time>
      </trkpt>
      <trkpt lat="45.88133" lon="4.64849">
        <ele>247</ele>
        <time>2017-07-11T09:42:33Z</time>
      </trkpt>
      <trkpt lat="45.88141" lon="4.64849">
        <ele>248</ele>
        <time>2017-07-11T09:42:36Z</time>
      </trkpt>
      <trkpt lat="45.88143" lon="4.64849">
        <ele>248</ele>
        <time>2017-07-11T09:42:37Z</time>
      </trkpt>
      <trkpt lat="45.88151" lon="4.64848">
        <ele>247</ele>
        <time>2017-07-11T09:42:40Z</time>
      </trkpt>
      <trkpt lat="45.88154" lon="4.64846">
        <ele>247</ele>
        <time>2017-07-11T09:42:41Z</time>
      </trkpt>
      <trkpt lat="45.88161" lon="4.64841">
        <ele>246</ele>
        <time>2017-07-11T09:42:45Z</time>
      </trkpt>
      <trkpt lat="45.88163" lon="4.6484">
        <ele>246</ele>
        <time>2017-07-11T09:42:46Z</time>
      </trkpt>
      <trkpt lat="45.88171" lon="4.64838">
        <ele>248</ele>
        <time>2017-07-11T09:42:49Z</time>
      </trkpt>
      <trkpt lat="45.88174" lon="4.64837">
        <ele>249</ele>
        <time>2017-07-11T09:42:50Z</time>
      </trkpt>
      <trkpt lat="45.88182" lon="4.64836">
        <ele>251</ele>
        <time>2017-07-11T09:42:53Z</time>
      </trkpt>
      <trkpt lat="45.88185" lon="4.64836">
        <ele>252</ele>
        <time>2017-07-11T09:42:54Z</time>
      </trkpt>
      <trkpt lat="45.88194" lon="4.64836">
        <ele>254</ele>
        <time>2017-07-11T09:42:58Z</time>
      </trkpt>
      <trkpt lat="45.88196" lon="4.64835">
        <ele>254</ele>
        <time>2017-07-11T09:42:59Z</time>
      </trkpt>
      <trkpt lat="45.88203" lon="4.64834">
        <ele>255</ele>
        <time>2017-07-11T09:43:03Z</time>
      </trkpt>
      <trkpt lat="45.88205" lon="4.64834">
        <ele>255</ele>
        <time>2017-07-11T09:43:04Z</time>
      </trkpt>
      <trkpt lat="45.88212" lon="4.64833">
        <ele>247</ele>
        <time>2017-07-11T09:43:07Z</time>
      </trkpt>
      <trkpt lat="45.88215" lon="4.64833">
        <ele>247</ele>
        <time>2017-07-11T09:43:08Z</time>
      </trkpt>
      <trkpt lat="45.88224" lon="4.64832">
        <ele>248</ele>
        <time>2017-07-11T09:43:12Z</time>
      </trkpt>
      <trkpt lat="45.88226" lon="4.64831">
        <ele>249</ele>
        <time>2017-07-11T09:43:13Z</time>
      </trkpt>
      <trkpt lat="45.88234" lon="4.64828">
        <ele>250</ele>
        <time>2017-07-11T09:43:17Z</time>
      </trkpt>
      <trkpt lat="45.88236" lon="4.64827">
        <ele>251</ele>
        <time>2017-07-11T09:43:18Z</time>
      </trkpt>
      <trkpt lat="45.88243" lon="4.64825">
        <ele>252</ele>
        <time>2017-07-11T09:43:23Z</time>
      </trkpt>
      <trkpt lat="45.88245" lon="4.64825">
        <ele>253</ele>
        <time>2017-07-11T09:43:24Z</time>
      </trkpt>
      <trkpt lat="45.88252" lon="4.64825">
        <ele>257</ele>
        <time>2017-07-11T09:43:33Z</time>
      </trkpt>
      <trkpt lat="45.88254" lon="4.64824">
        <ele>257</ele>
        <time>2017-07-11T09:43:34Z</time>
      </trkpt>
      <trkpt lat="45.88262" lon="4.64821">
        <ele>257</ele>
        <time>2017-07-11T09:43:40Z</time>
      </trkpt>
      <trkpt lat="45.88264" lon="4.6482">
        <ele>257</ele>
        <time>2017-07-11T09:43:41Z</time>
      </trkpt>
      <trkpt lat="45.88272" lon="4.64819">
        <ele>258</ele>
        <time>2017-07-11T09:43:47Z</time>
      </trkpt>
      <trkpt lat="45.88274" lon="4.64818">
        <ele>258</ele>
        <time>2017-07-11T09:43:48Z</time>
      </trkpt>
      <trkpt lat="45.8828" lon="4.64817">
        <ele>258</ele>
        <time>2017-07-11T09:43:51Z</time>
      </trkpt>
      <trkpt lat="45.88283" lon="4.64815">
        <ele>258</ele>
        <time>2017-07-11T09:43:52Z</time>
      </trkpt>
      <trkpt lat="45.8829" lon="4.64811">
        <ele>259</ele>
        <time>2017-07-11T09:43:55Z</time>
      </trkpt>
      <trkpt lat="45.88292" lon="4.6481">
        <ele>259</ele>
        <time>2017-07-11T09:43:56Z</time>
      </trkpt>
      <trkpt lat="45.883" lon="4.6481">
        <ele>260</ele>
        <time>2017-07-11T09:44:02Z</time>
      </trkpt>
      <trkpt lat="45.88302" lon="4.6481">
        <ele>260</ele>
        <time>2017-07-11T09:44:03Z</time>
      </trkpt>
      <trkpt lat="45.88308" lon="4.64809">
        <ele>261</ele>
        <time>2017-07-11T09:44:09Z</time>
      </trkpt>
      <trkpt lat="45.88311" lon="4.64809">
        <ele>261</ele>
        <time>2017-07-11T09:44:10Z</time>
      </trkpt>
      <trkpt lat="45.88319" lon="4.64806">
        <ele>262</ele>
        <time>2017-07-11T09:44:14Z</time>
      </trkpt>
      <trkpt lat="45.88321" lon="4.64806">
        <ele>262</ele>
        <time>2017-07-11T09:44:15Z</time>
      </trkpt>
      <trkpt lat="45.88329" lon="4.64807">
        <ele>263</ele>
        <time>2017-07-11T09:44:21Z</time>
      </trkpt>
      <trkpt lat="45.88331" lon="4.64806">
        <ele>263</ele>
        <time>2017-07-11T09:44:22Z</time>
      </trkpt>
      <trkpt lat="45.88339" lon="4.64803">
        <ele>268</ele>
        <time>2017-07-11T09:44:25Z</time>
      </trkpt>
      <trkpt lat="45.88342" lon="4.64802">
        <ele>268</ele>
        <time>2017-07-11T09:44:26Z</time>
      </trkpt>
      <trkpt lat="45.88348" lon="4.64801">
        <ele>268</ele>
        <time>2017-07-11T09:44:28Z</time>
      </trkpt>
      <trkpt lat="45.88351" lon="4.64799">
        <ele>268</ele>
        <time>2017-07-11T09:44:29Z</time>
      </trkpt>
      <trkpt lat="45.88359" lon="4.64796">
        <ele>267</ele>
        <time>2017-07-11T09:44:32Z</time>
      </trkpt>
      <trkpt lat="45.8836" lon="4.64795">
        <ele>267</ele>
        <time>2017-07-11T09:44:33Z</time>
      </trkpt>
      <trkpt lat="45.88368" lon="4.64794">
        <ele>267</ele>
        <time>2017-07-11T09:44:37Z</time>
      </trkpt>
      <trkpt lat="45.8837" lon="4.64794">
        <ele>268</ele>
        <time>2017-07-11T09:44:38Z</time>
      </trkpt>
      <trkpt lat="45.88379" lon="4.64794">
        <ele>268</ele>
        <time>2017-07-11T09:44:43Z</time>
      </trkpt>
      <trkpt lat="45.88381" lon="4.64794">
        <ele>268</ele>
        <time>2017-07-11T09:44:44Z</time>
      </trkpt>
      <trkpt lat="45.8839" lon="4.64793">
        <ele>268</ele>
        <time>2017-07-11T09:44:49Z</time>
      </trkpt>
      <trkpt lat="45.88392" lon="4.64792">
        <ele>268</ele>
        <time>2017-07-11T09:44:50Z</time>
      </trkpt>
      <trkpt lat="45.884" lon="4.64786">
        <ele>268</ele>
        <time>2017-07-11T09:44:54Z</time>
      </trkpt>
      <trkpt lat="45.88403" lon="4.64786">
        <ele>268</ele>
        <time>2017-07-11T09:44:55Z</time>
      </trkpt>
      <trkpt lat="45.88411" lon="4.64784">
        <ele>268</ele>
        <time>2017-07-11T09:44:58Z</time>
      </trkpt>
      <trkpt lat="45.88413" lon="4.64784">
        <ele>268</ele>
        <time>2017-07-11T09:44:59Z</time>
      </trkpt>
      <trkpt lat="45.8842" lon="4.64784">
        <ele>271</ele>
        <time>2017-07-11T09:45:04Z</time>
      </trkpt>
      <trkpt lat="45.88422" lon="4.64784">
        <ele>271</ele>
        <time>2017-07-11T09:45:05Z</time>
      </trkpt>
      <trkpt lat="45.8843" lon="4.64784">
        <ele>271</ele>
        <time>2017-07-11T09:45:10Z</time>
      </trkpt>
      <trkpt lat="45.88432" lon="4.64784">
        <ele>271</ele>
        <time>2017-07-11T09:45:11Z</time>
      </trkpt>
      <trkpt lat="45.88439" lon="4.64783">
        <ele>271</ele>
        <time>2017-07-11T09:45:15Z</time>
      </trkpt>
      <trkpt lat="45.88441" lon="4.64782">
        <ele>271</ele>
        <time>2017-07-11T09:45:16Z</time>
      </trkpt>
      <trkpt lat="45.88449" lon="4.6478">
        <ele>271</ele>
        <time>2017-07-11T09:45:20Z</time>
      </trkpt>
      <trkpt lat="45.88451" lon="4.64781">
        <ele>271</ele>
        <time>2017-07-11T09:45:21Z</time>
      </trkpt>
      <trkpt lat="45.88459" lon="4.64781">
        <ele>271</ele>
        <time>2017-07-11T09:45:26Z</time>
      </trkpt>
      <trkpt lat="45.88461" lon="4.64782">
        <ele>271</ele>
        <time>2017-07-11T09:45:27Z</time>
      </trkpt>
      <trkpt lat="45.8847" lon="4.64781">
        <ele>271</ele>
        <time>2017-07-11T09:45:31Z</time>
      </trkpt>
      <trkpt lat="45.88472" lon="4.6478">
        <ele>271</ele>
        <time>2017-07-11T09:45:32Z</time>
      </trkpt>
      <trkpt lat="45.88481" lon="4.6478">
        <ele>271</ele>
        <time>2017-07-11T09:45:36Z</time>
      </trkpt>
      <trkpt lat="45.88483" lon="4.6478">
        <ele>271</ele>
        <time>2017-07-11T09:45:37Z</time>
      </trkpt>
      <trkpt lat="45.8849" lon="4.64778">
        <ele>271</ele>
        <time>2017-07-11T09:45:41Z</time>
      </trkpt>
      <trkpt lat="45.88492" lon="4.64778">
        <ele>271</ele>
        <time>2017-07-11T09:45:42Z</time>
      </trkpt>
      <trkpt lat="45.88501" lon="4.64775">
        <ele>271</ele>
        <time>2017-07-11T09:45:46Z</time>
      </trkpt>
      <trkpt lat="45.88503" lon="4.64775">
        <ele>271</ele>
        <time>2017-07-11T09:45:47Z</time>
      </trkpt>
      <trkpt lat="45.88511" lon="4.64777">
        <ele>271</ele>
        <time>2017-07-11T09:45:51Z</time>
      </trkpt>
      <trkpt lat="45.88513" lon="4.64778">
        <ele>271</ele>
        <time>2017-07-11T09:45:52Z</time>
      </trkpt>
      <trkpt lat="45.88521" lon="4.64777">
        <ele>271</ele>
        <time>2017-07-11T09:45:56Z</time>
      </trkpt>
      <trkpt lat="45.88523" lon="4.64777">
        <ele>271</ele>
        <time>2017-07-11T09:45:57Z</time>
      </trkpt>
      <trkpt lat="45.88531" lon="4.64781">
        <ele>271</ele>
        <time>2017-07-11T09:46:01Z</time>
      </trkpt>
      <trkpt lat="45.88532" lon="4.64783">
        <ele>271</ele>
        <time>2017-07-11T09:46:02Z</time>
      </trkpt>
      <trkpt lat="45.88539" lon="4.64789">
        <ele>272</ele>
        <time>2017-07-11T09:46:06Z</time>
      </trkpt>
      <trkpt lat="45.88541" lon="4.64791">
        <ele>272</ele>
        <time>2017-07-11T09:46:07Z</time>
      </trkpt>
      <trkpt lat="45.88546" lon="4.648">
        <ele>272</ele>
        <time>2017-07-11T09:46:12Z</time>
      </trkpt>
      <trkpt lat="45.88547" lon="4.64803">
        <ele>272</ele>
        <time>2017-07-11T09:46:13Z</time>
      </trkpt>
      <trkpt lat="45.88551" lon="4.64812">
        <ele>272</ele>
        <time>2017-07-11T09:46:17Z</time>
      </trkpt>
      <trkpt lat="45.88552" lon="4.64814">
        <ele>272</ele>
        <time>2017-07-11T09:46:18Z</time>
      </trkpt>
      <trkpt lat="45.88553" lon="4.64825">
        <ele>273</ele>
        <time>2017-07-11T09:46:23Z</time>
      </trkpt>
      <trkpt lat="45.88552" lon="4.64828">
        <ele>273</ele>
        <time>2017-07-11T09:46:24Z</time>
      </trkpt>
      <trkpt lat="45.88552" lon="4.6484">
        <ele>276</ele>
        <time>2017-07-11T09:46:29Z</time>
      </trkpt>
      <trkpt lat="45.88551" lon="4.64843">
        <ele>276</ele>
        <time>2017-07-11T09:46:30Z</time>
      </trkpt>
      <trkpt lat="45.8855" lon="4.64855">
        <ele>276</ele>
        <time>2017-07-11T09:46:35Z</time>
      </trkpt>
      <trkpt lat="45.88549" lon="4.64857">
        <ele>277</ele>
        <time>2017-07-11T09:46:36Z</time>
      </trkpt>
      <trkpt lat="45.88546" lon="4.64868">
        <ele>277</ele>
        <time>2017-07-11T09:46:42Z</time>
      </trkpt>
      <trkpt lat="45.88546" lon="4.6487">
        <ele>277</ele>
        <time>2017-07-11T09:46:43Z</time>
      </trkpt>
      <trkpt lat="45.88544" lon="4.6488">
        <ele>277</ele>
        <time>2017-07-11T09:46:48Z</time>
      </trkpt>
      <trkpt lat="45.88541" lon="4.64883">
        <ele>277</ele>
        <time>2017-07-11T09:46:49Z</time>
      </trkpt>
      <trkpt lat="45.88537" lon="4.64892">
        <ele>278</ele>
        <time>2017-07-11T09:46:53Z</time>
      </trkpt>
      <trkpt lat="45.88536" lon="4.64894">
        <ele>278</ele>
        <time>2017-07-11T09:46:54Z</time>
      </trkpt>
      <trkpt lat="45.88535" lon="4.64905">
        <ele>278</ele>
        <time>2017-07-11T09:46:59Z</time>
      </trkpt>
      <trkpt lat="45.88534" lon="4.64907">
        <ele>278</ele>
        <time>2017-07-11T09:47:00Z</time>
      </trkpt>
      <trkpt lat="45.88532" lon="4.64918">
        <ele>281</ele>
        <time>2017-07-11T09:47:04Z</time>
      </trkpt>
      <trkpt lat="45.88532" lon="4.64921">
        <ele>281</ele>
        <time>2017-07-11T09:47:05Z</time>
      </trkpt>
      <trkpt lat="45.88529" lon="4.64932">
        <ele>281</ele>
        <time>2017-07-11T09:47:09Z</time>
      </trkpt>
      <trkpt lat="45.88529" lon="4.64935">
        <ele>281</ele>
        <time>2017-07-11T09:47:10Z</time>
      </trkpt>
      <trkpt lat="45.88528" lon="4.64945">
        <ele>281</ele>
        <time>2017-07-11T09:47:14Z</time>
      </trkpt>
      <trkpt lat="45.88527" lon="4.64948">
        <ele>281</ele>
        <time>2017-07-11T09:47:15Z</time>
      </trkpt>
      <trkpt lat="45.88524" lon="4.64959">
        <ele>282</ele>
        <time>2017-07-11T09:47:20Z</time>
      </trkpt>
      <trkpt lat="45.88523" lon="4.64961">
        <ele>282</ele>
        <time>2017-07-11T09:47:21Z</time>
      </trkpt>
      <trkpt lat="45.88524" lon="4.64973">
        <ele>282</ele>
        <time>2017-07-11T09:47:26Z</time>
      </trkpt>
      <trkpt lat="45.88523" lon="4.64976">
        <ele>283</ele>
        <time>2017-07-11T09:47:27Z</time>
      </trkpt>
      <trkpt lat="45.8852" lon="4.64988">
        <ele>284</ele>
        <time>2017-07-11T09:47:32Z</time>
      </trkpt>
      <trkpt lat="45.88519" lon="4.6499">
        <ele>284</ele>
        <time>2017-07-11T09:47:33Z</time>
      </trkpt>
      <trkpt lat="45.88516" lon="4.65001">
        <ele>286</ele>
        <time>2017-07-11T09:47:37Z</time>
      </trkpt>
      <trkpt lat="45.88516" lon="4.65004">
        <ele>286</ele>
        <time>2017-07-11T09:47:38Z</time>
      </trkpt>
      <trkpt lat="45.88513" lon="4.65014">
        <ele>286</ele>
        <time>2017-07-11T09:47:42Z</time>
      </trkpt>
      <trkpt lat="45.88512" lon="4.65017">
        <ele>286</ele>
        <time>2017-07-11T09:47:43Z</time>
      </trkpt>
      <trkpt lat="45.88509" lon="4.65027">
        <ele>286</ele>
        <time>2017-07-11T09:47:47Z</time>
      </trkpt>
      <trkpt lat="45.88509" lon="4.6503">
        <ele>286</ele>
        <time>2017-07-11T09:47:48Z</time>
      </trkpt>
      <trkpt lat="45.88505" lon="4.6504">
        <ele>286</ele>
        <time>2017-07-11T09:47:52Z</time>
      </trkpt>
      <trkpt lat="45.88504" lon="4.65043">
        <ele>286</ele>
        <time>2017-07-11T09:47:53Z</time>
      </trkpt>
      <trkpt lat="45.88502" lon="4.65054">
        <ele>286</ele>
        <time>2017-07-11T09:47:57Z</time>
      </trkpt>
      <trkpt lat="45.88502" lon="4.65057">
        <ele>286</ele>
        <time>2017-07-11T09:47:58Z</time>
      </trkpt>
      <trkpt lat="45.88499" lon="4.65069">
        <ele>290</ele>
        <time>2017-07-11T09:48:02Z</time>
      </trkpt>
      <trkpt lat="45.88498" lon="4.65071">
        <ele>290</ele>
        <time>2017-07-11T09:48:03Z</time>
      </trkpt>
      <trkpt lat="45.88493" lon="4.65078">
        <ele>290</ele>
        <time>2017-07-11T09:48:06Z</time>
      </trkpt>
      <trkpt lat="45.88492" lon="4.65081">
        <ele>290</ele>
        <time>2017-07-11T09:48:07Z</time>
      </trkpt>
      <trkpt lat="45.88487" lon="4.6509">
        <ele>292</ele>
        <time>2017-07-11T09:48:11Z</time>
      </trkpt>
      <trkpt lat="45.88486" lon="4.65092">
        <ele>292</ele>
        <time>2017-07-11T09:48:12Z</time>
      </trkpt>
      <trkpt lat="45.88482" lon="4.651">
        <ele>292</ele>
        <time>2017-07-11T09:48:16Z</time>
      </trkpt>
      <trkpt lat="45.8848" lon="4.65103">
        <ele>293</ele>
        <time>2017-07-11T09:48:17Z</time>
      </trkpt>
      <trkpt lat="45.88475" lon="4.65111">
        <ele>293</ele>
        <time>2017-07-11T09:48:21Z</time>
      </trkpt>
      <trkpt lat="45.88473" lon="4.65113">
        <ele>293</ele>
        <time>2017-07-11T09:48:22Z</time>
      </trkpt>
      <trkpt lat="45.88469" lon="4.65122">
        <ele>294</ele>
        <time>2017-07-11T09:48:27Z</time>
      </trkpt>
      <trkpt lat="45.8847" lon="4.65126">
        <ele>294</ele>
        <time>2017-07-11T09:48:28Z</time>
      </trkpt>
      <trkpt lat="45.88465" lon="4.65133">
        <ele>294</ele>
        <time>2017-07-11T09:48:32Z</time>
      </trkpt>
      <trkpt lat="45.88463" lon="4.65135">
        <ele>294</ele>
        <time>2017-07-11T09:48:33Z</time>
      </trkpt>
      <trkpt lat="45.88456" lon="4.65143">
        <ele>295</ele>
        <time>2017-07-11T09:48:37Z</time>
      </trkpt>
      <trkpt lat="45.88454" lon="4.65145">
        <ele>295</ele>
        <time>2017-07-11T09:48:38Z</time>
      </trkpt>
      <trkpt lat="45.88449" lon="4.65152">
        <ele>295</ele>
        <time>2017-07-11T09:48:41Z</time>
      </trkpt>
      <trkpt lat="45.88447" lon="4.65154">
        <ele>295</ele>
        <time>2017-07-11T09:48:42Z</time>
      </trkpt>
      <trkpt lat="45.88441" lon="4.65162">
        <ele>296</ele>
        <time>2017-07-11T09:48:46Z</time>
      </trkpt>
      <trkpt lat="45.8844" lon="4.65164">
        <ele>296</ele>
        <time>2017-07-11T09:48:47Z</time>
      </trkpt>
      <trkpt lat="45.88435" lon="4.65171">
        <ele>298</ele>
        <time>2017-07-11T09:48:52Z</time>
      </trkpt>
      <trkpt lat="45.88433" lon="4.65173">
        <ele>298</ele>
        <time>2017-07-11T09:48:53Z</time>
      </trkpt>
      <trkpt lat="45.88426" lon="4.6518">
        <ele>298</ele>
        <time>2017-07-11T09:48:58Z</time>
      </trkpt>
      <trkpt lat="45.88425" lon="4.65181">
        <ele>298</ele>
        <time>2017-07-11T09:48:59Z</time>
      </trkpt>
      <trkpt lat="45.88418" lon="4.65185">
        <ele>298</ele>
        <time>2017-07-11T09:49:04Z</time>
      </trkpt>
      <trkpt lat="45.88416" lon="4.65186">
        <ele>299</ele>
        <time>2017-07-11T09:49:05Z</time>
      </trkpt>
      <trkpt lat="45.88409" lon="4.65191">
        <ele>299</ele>
        <time>2017-07-11T09:49:10Z</time>
      </trkpt>
      <trkpt lat="45.88408" lon="4.65193">
        <ele>299</ele>
        <time>2017-07-11T09:49:11Z</time>
      </trkpt>
      <trkpt lat="45.884" lon="4.65199">
        <ele>300</ele>
        <time>2017-07-11T09:49:15Z</time>
      </trkpt>
      <trkpt lat="45.88398" lon="4.65201">
        <ele>300</ele>
        <time>2017-07-11T09:49:16Z</time>
      </trkpt>
      <trkpt lat="45.88392" lon="4.65209">
        <ele>300</ele>
        <time>2017-07-11T09:49:19Z</time>
      </trkpt>
      <trkpt lat="45.8839" lon="4.65211">
        <ele>300</ele>
        <time>2017-07-11T09:49:20Z</time>
      </trkpt>
      <trkpt lat="45.88384" lon="4.65217">
        <ele>300</ele>
        <time>2017-07-11T09:49:23Z</time>
      </trkpt>
      <trkpt lat="45.8838" lon="4.6522">
        <ele>300</ele>
        <time>2017-07-11T09:49:24Z</time>
      </trkpt>
      <trkpt lat="45.88376" lon="4.65224">
        <ele>300</ele>
        <time>2017-07-11T09:49:26Z</time>
      </trkpt>
      <trkpt lat="45.88372" lon="4.65228">
        <ele>300</ele>
        <time>2017-07-11T09:49:27Z</time>
      </trkpt>
      <trkpt lat="45.88366" lon="4.65236">
        <ele>300</ele>
        <time>2017-07-11T09:49:30Z</time>
      </trkpt>
      <trkpt lat="45.88364" lon="4.65238">
        <ele>300</ele>
        <time>2017-07-11T09:49:31Z</time>
      </trkpt>
      <trkpt lat="45.88359" lon="4.65245">
        <ele>300</ele>
        <time>2017-07-11T09:49:35Z</time>
      </trkpt>
      <trkpt lat="45.88357" lon="4.65247">
        <ele>300</ele>
        <time>2017-07-11T09:49:36Z</time>
      </trkpt>
      <trkpt lat="45.88351" lon="4.65255">
        <ele>301</ele>
        <time>2017-07-11T09:49:40Z</time>
      </trkpt>
      <trkpt lat="45.8835" lon="4.65256">
        <ele>301</ele>
        <time>2017-07-11T09:49:41Z</time>
      </trkpt>
      <trkpt lat="45.88344" lon="4.65264">
        <ele>301</ele>
        <time>2017-07-11T09:49:45Z</time>
      </trkpt>
      <trkpt lat="45.88343" lon="4.65265">
        <ele>301</ele>
        <time>2017-07-11T09:49:46Z</time>
      </trkpt>
      <trkpt lat="45.88337" lon="4.65273">
        <ele>302</ele>
        <time>2017-07-11T09:49:51Z</time>
      </trkpt>
      <trkpt lat="45.88336" lon="4.65274">
        <ele>302</ele>
        <time>2017-07-11T09:49:52Z</time>
      </trkpt>
      <trkpt lat="45.88329" lon="4.65282">
        <ele>304</ele>
        <time>2017-07-11T09:49:56Z</time>
      </trkpt>
      <trkpt lat="45.88327" lon="4.65284">
        <ele>304</ele>
        <time>2017-07-11T09:49:57Z</time>
      </trkpt>
      <trkpt lat="45.88321" lon="4.65291">
        <ele>304</ele>
        <time>2017-07-11T09:50:01Z</time>
      </trkpt>
      <trkpt lat="45.8832" lon="4.65292">
        <ele>304</ele>
        <time>2017-07-11T09:50:02Z</time>
      </trkpt>
      <trkpt lat="45.88313" lon="4.653">
        <ele>305</ele>
        <time>2017-07-11T09:50:06Z</time>
      </trkpt>
      <trkpt lat="45.88312" lon="4.65301">
        <ele>305</ele>
        <time>2017-07-11T09:50:07Z</time>
      </trkpt>
      <trkpt lat="45.88309" lon="4.65311">
        <ele>305</ele>
        <time>2017-07-11T09:50:12Z</time>
      </trkpt>
      <trkpt lat="45.88307" lon="4.65314">
        <ele>305</ele>
        <time>2017-07-11T09:50:13Z</time>
      </trkpt>
      <trkpt lat="45.88303" lon="4.65321">
        <ele>305</ele>
        <time>2017-07-11T09:50:16Z</time>
      </trkpt>
      <trkpt lat="45.88301" lon="4.65323">
        <ele>305</ele>
        <time>2017-07-11T09:50:17Z</time>
      </trkpt>
      <trkpt lat="45.88295" lon="4.65332">
        <ele>305</ele>
        <time>2017-07-11T09:50:20Z</time>
      </trkpt>
      <trkpt lat="45.88295" lon="4.65334">
        <ele>307</ele>
        <time>2017-07-11T09:50:21Z</time>
      </trkpt>
      <trkpt lat="45.88291" lon="4.65345">
        <ele>307</ele>
        <time>2017-07-11T09:50:25Z</time>
      </trkpt>
      <trkpt lat="45.88289" lon="4.65348">
        <ele>307</ele>
        <time>2017-07-11T09:50:26Z</time>
      </trkpt>
      <trkpt lat="45.88284" lon="4.65357">
        <ele>308</ele>
        <time>2017-07-11T09:50:30Z</time>
      </trkpt>
      <trkpt lat="45.88283" lon="4.65359">
        <ele>308</ele>
        <time>2017-07-11T09:50:31Z</time>
      </trkpt>
      <trkpt lat="45.88281" lon="4.65371">
        <ele>308</ele>
        <time>2017-07-11T09:50:35Z</time>
      </trkpt>
      <trkpt lat="45.8828" lon="4.65374">
        <ele>308</ele>
        <time>2017-07-11T09:50:36Z</time>
      </trkpt>
      <trkpt lat="45.88276" lon="4.65385">
        <ele>308</ele>
        <time>2017-07-11T09:50:40Z</time>
      </trkpt>
      <trkpt lat="45.88275" lon="4.65387">
        <ele>308</ele>
        <time>2017-07-11T09:50:41Z</time>
      </trkpt>
      <trkpt lat="45.88273" lon="4.65398">
        <ele>309</ele>
        <time>2017-07-11T09:50:45Z</time>
      </trkpt>
      <trkpt lat="45.88272" lon="4.654">
        <ele>309</ele>
        <time>2017-07-11T09:50:46Z</time>
      </trkpt>
      <trkpt lat="45.88268" lon="4.6541">
        <ele>309</ele>
        <time>2017-07-11T09:50:50Z</time>
      </trkpt>
      <trkpt lat="45.88267" lon="4.65412">
        <ele>309</ele>
        <time>2017-07-11T09:50:51Z</time>
      </trkpt>
      <trkpt lat="45.88263" lon="4.65422">
        <ele>311</ele>
        <time>2017-07-11T09:50:55Z</time>
      </trkpt>
      <trkpt lat="45.88263" lon="4.65425">
        <ele>311</ele>
        <time>2017-07-11T09:50:56Z</time>
      </trkpt>
      <trkpt lat="45.88261" lon="4.65436">
        <ele>311</ele>
        <time>2017-07-11T09:51:00Z</time>
      </trkpt>
      <trkpt lat="45.88261" lon="4.65438">
        <ele>311</ele>
        <time>2017-07-11T09:51:01Z</time>
      </trkpt>
      <trkpt lat="45.88257" lon="4.65448">
        <ele>311</ele>
        <time>2017-07-11T09:51:06Z</time>
      </trkpt>
      <trkpt lat="45.88256" lon="4.65451">
        <ele>311</ele>
        <time>2017-07-11T09:51:07Z</time>
      </trkpt>
      <trkpt lat="45.88253" lon="4.6546">
        <ele>311</ele>
        <time>2017-07-11T09:51:11Z</time>
      </trkpt>
      <trkpt lat="45.88253" lon="4.65463">
        <ele>311</ele>
        <time>2017-07-11T09:51:12Z</time>
      </trkpt>
      <trkpt lat="45.88248" lon="4.65472">
        <ele>316</ele>
        <time>2017-07-11T09:51:17Z</time>
      </trkpt>
      <trkpt lat="45.88247" lon="4.65475">
        <ele>316</ele>
        <time>2017-07-11T09:51:18Z</time>
      </trkpt>
      <trkpt lat="45.88243" lon="4.65486">
        <ele>316</ele>
        <time>2017-07-11T09:51:22Z</time>
      </trkpt>
      <trkpt lat="45.88241" lon="4.65489">
        <ele>316</ele>
        <time>2017-07-11T09:51:23Z</time>
      </trkpt>
      <trkpt lat="45.88238" lon="4.655">
        <ele>317</ele>
        <time>2017-07-11T09:51:28Z</time>
      </trkpt>
      <trkpt lat="45.88238" lon="4.65502">
        <ele>317</ele>
        <time>2017-07-11T09:51:29Z</time>
      </trkpt>
      <trkpt lat="45.88235" lon="4.65512">
        <ele>318</ele>
        <time>2017-07-11T09:51:33Z</time>
      </trkpt>
      <trkpt lat="45.88234" lon="4.65515">
        <ele>318</ele>
        <time>2017-07-11T09:51:34Z</time>
      </trkpt>
      <trkpt lat="45.88231" lon="4.65525">
        <ele>319</ele>
        <time>2017-07-11T09:51:38Z</time>
      </trkpt>
      <trkpt lat="45.8823" lon="4.65527">
        <ele>319</ele>
        <time>2017-07-11T09:51:39Z</time>
      </trkpt>
      <trkpt lat="45.88228" lon="4.65539">
        <ele>320</ele>
        <time>2017-07-11T09:51:44Z</time>
      </trkpt>
      <trkpt lat="45.88227" lon="4.65542">
        <ele>320</ele>
        <time>2017-07-11T09:51:45Z</time>
      </trkpt>
      <trkpt lat="45.88223" lon="4.65551">
        <ele>320</ele>
        <time>2017-07-11T09:51:49Z</time>
      </trkpt>
      <trkpt lat="45.88222" lon="4.65554">
        <ele>320</ele>
        <time>2017-07-11T09:51:50Z</time>
      </trkpt>
      <trkpt lat="45.88218" lon="4.65563">
        <ele>320</ele>
        <time>2017-07-11T09:51:54Z</time>
      </trkpt>
      <trkpt lat="45.88217" lon="4.65565">
        <ele>321</ele>
        <time>2017-07-11T09:51:55Z</time>
      </trkpt>
      <trkpt lat="45.88213" lon="4.65575">
        <ele>321</ele>
        <time>2017-07-11T09:52:00Z</time>
      </trkpt>
      <trkpt lat="45.88213" lon="4.65577">
        <ele>321</ele>
        <time>2017-07-11T09:52:01Z</time>
      </trkpt>
      <trkpt lat="45.88209" lon="4.65588">
        <ele>321</ele>
        <time>2017-07-11T09:52:06Z</time>
      </trkpt>
      <trkpt lat="45.88208" lon="4.65591">
        <ele>321</ele>
        <time>2017-07-11T09:52:07Z</time>
      </trkpt>
      <trkpt lat="45.88204" lon="4.65602">
        <ele>322</ele>
        <time>2017-07-11T09:52:11Z</time>
      </trkpt>
      <trkpt lat="45.88203" lon="4.65604">
        <ele>322</ele>
        <time>2017-07-11T09:52:12Z</time>
      </trkpt>
      <trkpt lat="45.88199" lon="4.65613">
        <ele>322</ele>
        <time>2017-07-11T09:52:16Z</time>
      </trkpt>
      <trkpt lat="45.88199" lon="4.65616">
        <ele>322</ele>
        <time>2017-07-11T09:52:17Z</time>
      </trkpt>
      <trkpt lat="45.88197" lon="4.65627">
        <ele>322</ele>
        <time>2017-07-11T09:52:21Z</time>
      </trkpt>
      <trkpt lat="45.88196" lon="4.6563">
        <ele>322</ele>
        <time>2017-07-11T09:52:22Z</time>
      </trkpt>
      <trkpt lat="45.88192" lon="4.6564">
        <ele>322</ele>
        <time>2017-07-11T09:52:26Z</time>
      </trkpt>
      <trkpt lat="45.88191" lon="4.65642">
        <ele>322</ele>
        <time>2017-07-11T09:52:27Z</time>
      </trkpt>
      <trkpt lat="45.88187" lon="4.65652">
        <ele>322</ele>
        <time>2017-07-11T09:52:31Z</time>
      </trkpt>
      <trkpt lat="45.88186" lon="4.65655">
        <ele>322</ele>
        <time>2017-07-11T09:52:32Z</time>
      </trkpt>
      <trkpt lat="45.88182" lon="4.65662">
        <ele>323</ele>
        <time>2017-07-11T09:52:35Z</time>
      </trkpt>
      <trkpt lat="45.88181" lon="4.65665">
        <ele>323</ele>
        <time>2017-07-11T09:52:36Z</time>
      </trkpt>
      <trkpt lat="45.88176" lon="4.65674">
        <ele>323</ele>
        <time>2017-07-11T09:52:40Z</time>
      </trkpt>
      <trkpt lat="45.88174" lon="4.65677">
        <ele>323</ele>
        <time>2017-07-11T09:52:41Z</time>
      </trkpt>
      <trkpt lat="45.8817" lon="4.65686">
        <ele>323</ele>
        <time>2017-07-11T09:52:45Z</time>
      </trkpt>
      <trkpt lat="45.8817" lon="4.65689">
        <ele>322</ele>
        <time>2017-07-11T09:52:46Z</time>
      </trkpt>
      <trkpt lat="45.88166" lon="4.65699">
        <ele>330</ele>
        <time>2017-07-11T09:52:50Z</time>
      </trkpt>
      <trkpt lat="45.88164" lon="4.65701">
        <ele>331</ele>
        <time>2017-07-11T09:52:51Z</time>
      </trkpt>
      <trkpt lat="45.88159" lon="4.6571">
        <ele>331</ele>
        <time>2017-07-11T09:52:55Z</time>
      </trkpt>
      <trkpt lat="45.88158" lon="4.65712">
        <ele>331</ele>
        <time>2017-07-11T09:52:56Z</time>
      </trkpt>
      <trkpt lat="45.88152" lon="4.65719">
        <ele>331</ele>
        <time>2017-07-11T09:53:00Z</time>
      </trkpt>
      <trkpt lat="45.88151" lon="4.65721">
        <ele>331</ele>
        <time>2017-07-11T09:53:01Z</time>
      </trkpt>
      <trkpt lat="45.88146" lon="4.65729">
        <ele>331</ele>
        <time>2017-07-11T09:53:05Z</time>
      </trkpt>
      <trkpt lat="45.88145" lon="4.65731">
        <ele>331</ele>
        <time>2017-07-11T09:53:06Z</time>
      </trkpt>
      <trkpt lat="45.88139" lon="4.6574">
        <ele>332</ele>
        <time>2017-07-11T09:53:11Z</time>
      </trkpt>
      <trkpt lat="45.88138" lon="4.65741">
        <ele>332</ele>
        <time>2017-07-11T09:53:12Z</time>
      </trkpt>
      <trkpt lat="45.88132" lon="4.65749">
        <ele>333</ele>
        <time>2017-07-11T09:53:17Z</time>
      </trkpt>
      <trkpt lat="45.88131" lon="4.65751">
        <ele>332</ele>
        <time>2017-07-11T09:53:18Z</time>
      </trkpt>
      <trkpt lat="45.88126" lon="4.6576">
        <ele>333</ele>
        <time>2017-07-11T09:53:23Z</time>
      </trkpt>
      <trkpt lat="45.88125" lon="4.65761">
        <ele>333</ele>
        <time>2017-07-11T09:53:24Z</time>
      </trkpt>
      <trkpt lat="45.88119" lon="4.65766">
        <ele>334</ele>
        <time>2017-07-11T09:53:26Z</time>
      </trkpt>
      <trkpt lat="45.88117" lon="4.65768">
        <ele>334</ele>
        <time>2017-07-11T09:53:27Z</time>
      </trkpt>
      <trkpt lat="45.8811" lon="4.65776">
        <ele>334</ele>
        <time>2017-07-11T09:53:30Z</time>
      </trkpt>
      <trkpt lat="45.88107" lon="4.65778">
        <ele>334</ele>
        <time>2017-07-11T09:53:31Z</time>
      </trkpt>
      <trkpt lat="45.88102" lon="4.65787">
        <ele>334</ele>
        <time>2017-07-11T09:53:35Z</time>
      </trkpt>
      <trkpt lat="45.881" lon="4.6579">
        <ele>334</ele>
        <time>2017-07-11T09:53:36Z</time>
      </trkpt>
      <trkpt lat="45.88093" lon="4.65796">
        <ele>334</ele>
        <time>2017-07-11T09:53:41Z</time>
      </trkpt>
      <trkpt lat="45.88091" lon="4.65798">
        <ele>334</ele>
        <time>2017-07-11T09:53:42Z</time>
      </trkpt>
      <trkpt lat="45.88085" lon="4.65803">
        <ele>334</ele>
        <time>2017-07-11T09:53:46Z</time>
      </trkpt>
      <trkpt lat="45.88083" lon="4.65804">
        <ele>341</ele>
        <time>2017-07-11T09:53:47Z</time>
      </trkpt>
      <trkpt lat="45.88076" lon="4.65809">
        <ele>340</ele>
        <time>2017-07-11T09:53:51Z</time>
      </trkpt>
      <trkpt lat="45.88073" lon="4.65812">
        <ele>340</ele>
        <time>2017-07-11T09:53:52Z</time>
      </trkpt>
      <trkpt lat="45.88068" lon="4.65816">
        <ele>340</ele>
        <time>2017-07-11T09:53:54Z</time>
      </trkpt>
      <trkpt lat="45.88065" lon="4.65818">
        <ele>340</ele>
        <time>2017-07-11T09:53:55Z</time>
      </trkpt>
      <trkpt lat="45.88057" lon="4.65824">
        <ele>341</ele>
        <time>2017-07-11T09:53:58Z</time>
      </trkpt>
      <trkpt lat="45.88054" lon="4.65826">
        <ele>341</ele>
        <time>2017-07-11T09:53:59Z</time>
      </trkpt>
      <trkpt lat="45.88047" lon="4.6583">
        <ele>342</ele>
        <time>2017-07-11T09:54:01Z</time>
      </trkpt>
      <trkpt lat="45.88045" lon="4.65832">
        <ele>342</ele>
        <time>2017-07-11T09:54:02Z</time>
      </trkpt>
      <trkpt lat="45.88037" lon="4.65838">
        <ele>338</ele>
        <time>2017-07-11T09:54:05Z</time>
      </trkpt>
      <trkpt lat="45.88035" lon="4.65838">
        <ele>338</ele>
        <time>2017-07-11T09:54:06Z</time>
      </trkpt>
      <trkpt lat="45.88027" lon="4.65843">
        <ele>339</ele>
        <time>2017-07-11T09:54:10Z</time>
      </trkpt>
      <trkpt lat="45.88024" lon="4.65845">
        <ele>339</ele>
        <time>2017-07-11T09:54:11Z</time>
      </trkpt>
      <trkpt lat="45.88017" lon="4.65851">
        <ele>339</ele>
        <time>2017-07-11T09:54:15Z</time>
      </trkpt>
      <trkpt lat="45.88016" lon="4.65853">
        <ele>339</ele>
        <time>2017-07-11T09:54:16Z</time>
      </trkpt>
      <trkpt lat="45.88009" lon="4.65858">
        <ele>339</ele>
        <time>2017-07-11T09:54:19Z</time>
      </trkpt>
      <trkpt lat="45.88006" lon="4.65859">
        <ele>339</ele>
        <time>2017-07-11T09:54:20Z</time>
      </trkpt>
      <trkpt lat="45.88001" lon="4.65864">
        <ele>339</ele>
        <time>2017-07-11T09:54:22Z</time>
      </trkpt>
      <trkpt lat="45.87998" lon="4.65866">
        <ele>343</ele>
        <time>2017-07-11T09:54:23Z</time>
      </trkpt>
      <trkpt lat="45.87992" lon="4.65874">
        <ele>343</ele>
        <time>2017-07-11T09:54:26Z</time>
      </trkpt>
      <trkpt lat="45.87989" lon="4.65877">
        <ele>343</ele>
        <time>2017-07-11T09:54:27Z</time>
      </trkpt>
      <trkpt lat="45.87984" lon="4.65882">
        <ele>343</ele>
        <time>2017-07-11T09:54:31Z</time>
      </trkpt>
      <trkpt lat="45.87982" lon="4.65884">
        <ele>342</ele>
        <time>2017-07-11T09:54:32Z</time>
      </trkpt>
      <trkpt lat="45.87976" lon="4.65892">
        <ele>342</ele>
        <time>2017-07-11T09:54:35Z</time>
      </trkpt>
      <trkpt lat="45.87974" lon="4.65895">
        <ele>342</ele>
        <time>2017-07-11T09:54:36Z</time>
      </trkpt>
      <trkpt lat="45.87968" lon="4.65901">
        <ele>342</ele>
        <time>2017-07-11T09:54:38Z</time>
      </trkpt>
      <trkpt lat="45.87966" lon="4.65903">
        <ele>342</ele>
        <time>2017-07-11T09:54:39Z</time>
      </trkpt>
      <trkpt lat="45.87959" lon="4.6591">
        <ele>343</ele>
        <time>2017-07-11T09:54:42Z</time>
      </trkpt>
      <trkpt lat="45.87957" lon="4.65913">
        <ele>343</ele>
        <time>2017-07-11T09:54:43Z</time>
      </trkpt>
      <trkpt lat="45.8795" lon="4.6592">
        <ele>341</ele>
        <time>2017-07-11T09:54:46Z</time>
      </trkpt>
      <trkpt lat="45.87949" lon="4.65922">
        <ele>341</ele>
        <time>2017-07-11T09:54:47Z</time>
      </trkpt>
      <trkpt lat="45.87944" lon="4.65931">
        <ele>341</ele>
        <time>2017-07-11T09:54:50Z</time>
      </trkpt>
      <trkpt lat="45.87941" lon="4.65934">
        <ele>341</ele>
        <time>2017-07-11T09:54:51Z</time>
      </trkpt>
      <trkpt lat="45.87937" lon="4.65943">
        <ele>341</ele>
        <time>2017-07-11T09:54:53Z</time>
      </trkpt>
      <trkpt lat="45.87936" lon="4.65947">
        <ele>341</ele>
        <time>2017-07-11T09:54:54Z</time>
      </trkpt>
      <trkpt lat="45.87933" lon="4.65958">
        <ele>341</ele>
        <time>2017-07-11T09:54:58Z</time>
      </trkpt>
      <trkpt lat="45.87931" lon="4.65961">
        <ele>341</ele>
        <time>2017-07-11T09:54:59Z</time>
      </trkpt>
      <trkpt lat="45.87927" lon="4.65971">
        <ele>341</ele>
        <time>2017-07-11T09:55:02Z</time>
      </trkpt>
      <trkpt lat="45.87926" lon="4.65974">
        <ele>341</ele>
        <time>2017-07-11T09:55:03Z</time>
      </trkpt>
      <trkpt lat="45.87923" lon="4.65984">
        <ele>342</ele>
        <time>2017-07-11T09:55:06Z</time>
      </trkpt>
      <trkpt lat="45.87923" lon="4.65987">
        <ele>342</ele>
        <time>2017-07-11T09:55:07Z</time>
      </trkpt>
      <trkpt lat="45.87917" lon="4.65995">
        <ele>342</ele>
        <time>2017-07-11T09:55:09Z</time>
      </trkpt>
      <trkpt lat="45.87916" lon="4.65998">
        <ele>343</ele>
        <time>2017-07-11T09:55:10Z</time>
      </trkpt>
      <trkpt lat="45.87914" lon="4.66009">
        <ele>342</ele>
        <time>2017-07-11T09:55:13Z</time>
      </trkpt>
      <trkpt lat="45.87915" lon="4.66013">
        <ele>342</ele>
        <time>2017-07-11T09:55:14Z</time>
      </trkpt>
      <trkpt lat="45.87916" lon="4.66023">
        <ele>342</ele>
        <time>2017-07-11T09:55:16Z</time>
      </trkpt>
      <trkpt lat="45.87916" lon="4.66027">
        <ele>342</ele>
        <time>2017-07-11T09:55:17Z</time>
      </trkpt>
      <trkpt lat="45.87917" lon="4.66039">
        <ele>342</ele>
        <time>2017-07-11T09:55:20Z</time>
      </trkpt>
      <trkpt lat="45.87918" lon="4.66043">
        <ele>342</ele>
        <time>2017-07-11T09:55:21Z</time>
      </trkpt>
      <trkpt lat="45.87919" lon="4.66056">
        <ele>342</ele>
        <time>2017-07-11T09:55:24Z</time>
      </trkpt>
      <trkpt lat="45.8792" lon="4.6606">
        <ele>343</ele>
        <time>2017-07-11T09:55:25Z</time>
      </trkpt>
      <trkpt lat="45.87921" lon="4.66073">
        <ele>343</ele>
        <time>2017-07-11T09:55:28Z</time>
      </trkpt>
      <trkpt lat="45.87921" lon="4.66077">
        <ele>343</ele>
        <time>2017-07-11T09:55:29Z</time>
      </trkpt>
      <trkpt lat="45.87922" lon="4.66089">
        <ele>345</ele>
        <time>2017-07-11T09:55:32Z</time>
      </trkpt>
      <trkpt lat="45.87922" lon="4.66093">
        <ele>345</ele>
        <time>2017-07-11T09:55:33Z</time>
      </trkpt>
      <trkpt lat="45.87921" lon="4.66105">
        <ele>346</ele>
        <time>2017-07-11T09:55:37Z</time>
      </trkpt>
      <trkpt lat="45.87922" lon="4.66108">
        <ele>346</ele>
        <time>2017-07-11T09:55:38Z</time>
      </trkpt>
      <trkpt lat="45.8792" lon="4.6612">
        <ele>347</ele>
        <time>2017-07-11T09:55:43Z</time>
      </trkpt>
      <trkpt lat="45.87919" lon="4.66122">
        <ele>348</ele>
        <time>2017-07-11T09:55:44Z</time>
      </trkpt>
      <trkpt lat="45.87923" lon="4.66133">
        <ele>349</ele>
        <time>2017-07-11T09:55:49Z</time>
      </trkpt>
      <trkpt lat="45.87925" lon="4.66134">
        <ele>349</ele>
        <time>2017-07-11T09:55:50Z</time>
      </trkpt>
      <trkpt lat="45.87933" lon="4.66136">
        <ele>349</ele>
        <time>2017-07-11T09:55:53Z</time>
      </trkpt>
      <trkpt lat="45.87935" lon="4.66137">
        <ele>349</ele>
        <time>2017-07-11T09:55:54Z</time>
      </trkpt>
      <trkpt lat="45.87943" lon="4.66139">
        <ele>349</ele>
        <time>2017-07-11T09:55:58Z</time>
      </trkpt>
      <trkpt lat="45.87945" lon="4.66139">
        <ele>348</ele>
        <time>2017-07-11T09:55:59Z</time>
      </trkpt>
      <trkpt lat="45.87952" lon="4.66139">
        <ele>348</ele>
        <time>2017-07-11T09:56:02Z</time>
      </trkpt>
      <trkpt lat="45.87955" lon="4.6614">
        <ele>348</ele>
        <time>2017-07-11T09:56:03Z</time>
      </trkpt>
      <trkpt lat="45.87964" lon="4.66141">
        <ele>348</ele>
        <time>2017-07-11T09:56:06Z</time>
      </trkpt>
      <trkpt lat="45.87967" lon="4.66141">
        <ele>348</ele>
        <time>2017-07-11T09:56:07Z</time>
      </trkpt>
      <trkpt lat="45.87974" lon="4.66143">
        <ele>348</ele>
        <time>2017-07-11T09:56:10Z</time>
      </trkpt>
      <trkpt lat="45.87977" lon="4.66143">
        <ele>348</ele>
        <time>2017-07-11T09:56:11Z</time>
      </trkpt>
      <trkpt lat="45.87986" lon="4.66142">
        <ele>348</ele>
        <time>2017-07-11T09:56:15Z</time>
      </trkpt>
      <trkpt lat="45.87988" lon="4.66141">
        <ele>348</ele>
        <time>2017-07-11T09:56:16Z</time>
      </trkpt>
      <trkpt lat="45.87996" lon="4.66141">
        <ele>348</ele>
        <time>2017-07-11T09:56:20Z</time>
      </trkpt>
      <trkpt lat="45.87999" lon="4.66142">
        <ele>348</ele>
        <time>2017-07-11T09:56:21Z</time>
      </trkpt>
      <trkpt lat="45.88006" lon="4.66142">
        <ele>348</ele>
        <time>2017-07-11T09:56:23Z</time>
      </trkpt>
      <trkpt lat="45.88009" lon="4.66142">
        <ele>348</ele>
        <time>2017-07-11T09:56:24Z</time>
      </trkpt>
      <trkpt lat="45.88016" lon="4.66141">
        <ele>348</ele>
        <time>2017-07-11T09:56:26Z</time>
      </trkpt>
      <trkpt lat="45.88019" lon="4.66142">
        <ele>348</ele>
        <time>2017-07-11T09:56:27Z</time>
      </trkpt>
      <trkpt lat="45.88025" lon="4.66142">
        <ele>348</ele>
        <time>2017-07-11T09:56:29Z</time>
      </trkpt>
      <trkpt lat="45.88028" lon="4.66142">
        <ele>348</ele>
        <time>2017-07-11T09:56:30Z</time>
      </trkpt>
      <trkpt lat="45.88035" lon="4.6614">
        <ele>348</ele>
        <time>2017-07-11T09:56:32Z</time>
      </trkpt>
      <trkpt lat="45.88039" lon="4.6614">
        <ele>348</ele>
        <time>2017-07-11T09:56:33Z</time>
      </trkpt>
      <trkpt lat="45.88046" lon="4.66141">
        <ele>348</ele>
        <time>2017-07-11T09:56:35Z</time>
      </trkpt>
      <trkpt lat="45.8805" lon="4.66141">
        <ele>348</ele>
        <time>2017-07-11T09:56:36Z</time>
      </trkpt>
      <trkpt lat="45.88057" lon="4.6614">
        <ele>348</ele>
        <time>2017-07-11T09:56:38Z</time>
      </trkpt>
      <trkpt lat="45.8806" lon="4.6614">
        <ele>348</ele>
        <time>2017-07-11T09:56:39Z</time>
      </trkpt>
      <trkpt lat="45.88067" lon="4.6614">
        <ele>348</ele>
        <time>2017-07-11T09:56:41Z</time>
      </trkpt>
      <trkpt lat="45.88071" lon="4.66139">
        <ele>348</ele>
        <time>2017-07-11T09:56:42Z</time>
      </trkpt>
      <trkpt lat="45.88077" lon="4.66138">
        <ele>348</ele>
        <time>2017-07-11T09:56:44Z</time>
      </trkpt>
      <trkpt lat="45.8808" lon="4.66138">
        <ele>348</ele>
        <time>2017-07-11T09:56:45Z</time>
      </trkpt>
      <trkpt lat="45.88086" lon="4.66138">
        <ele>349</ele>
        <time>2017-07-11T09:56:47Z</time>
      </trkpt>
      <trkpt lat="45.88089" lon="4.66138">
        <ele>349</ele>
        <time>2017-07-11T09:56:48Z</time>
      </trkpt>
      <trkpt lat="45.88096" lon="4.66137">
        <ele>349</ele>
        <time>2017-07-11T09:56:50Z</time>
      </trkpt>
      <trkpt lat="45.881" lon="4.66137">
        <ele>349</ele>
        <time>2017-07-11T09:56:51Z</time>
      </trkpt>
      <trkpt lat="45.88106" lon="4.66136">
        <ele>349</ele>
        <time>2017-07-11T09:56:53Z</time>
      </trkpt>
      <trkpt lat="45.88109" lon="4.66136">
        <ele>349</ele>
        <time>2017-07-11T09:56:54Z</time>
      </trkpt>
      <trkpt lat="45.88115" lon="4.66136">
        <ele>349</ele>
        <time>2017-07-11T09:56:56Z</time>
      </trkpt>
      <trkpt lat="45.88118" lon="4.66136">
        <ele>349</ele>
        <time>2017-07-11T09:56:57Z</time>
      </trkpt>
      <trkpt lat="45.88124" lon="4.66135">
        <ele>349</ele>
        <time>2017-07-11T09:56:59Z</time>
      </trkpt>
      <trkpt lat="45.88127" lon="4.66135">
        <ele>349</ele>
        <time>2017-07-11T09:57:00Z</time>
      </trkpt>
      <trkpt lat="45.88134" lon="4.66133">
        <ele>349</ele>
        <time>2017-07-11T09:57:02Z</time>
      </trkpt>
      <trkpt lat="45.88137" lon="4.66133">
        <ele>349</ele>
        <time>2017-07-11T09:57:03Z</time>
      </trkpt>
      <trkpt lat="45.88144" lon="4.66131">
        <ele>349</ele>
        <time>2017-07-11T09:57:05Z</time>
      </trkpt>
      <trkpt lat="45.88147" lon="4.66131">
        <ele>349</ele>
        <time>2017-07-11T09:57:06Z</time>
      </trkpt>
      <trkpt lat="45.88155" lon="4.6613">
        <ele>349</ele>
        <time>2017-07-11T09:57:08Z</time>
      </trkpt>
      <trkpt lat="45.88159" lon="4.66129">
        <ele>349</ele>
        <time>2017-07-11T09:57:09Z</time>
      </trkpt>
      <trkpt lat="45.88166" lon="4.66129">
        <ele>349</ele>
        <time>2017-07-11T09:57:11Z</time>
      </trkpt>
      <trkpt lat="45.8817" lon="4.66129">
        <ele>350</ele>
        <time>2017-07-11T09:57:12Z</time>
      </trkpt>
      <trkpt lat="45.88177" lon="4.66128">
        <ele>350</ele>
        <time>2017-07-11T09:57:14Z</time>
      </trkpt>
      <trkpt lat="45.8818" lon="4.66128">
        <ele>350</ele>
        <time>2017-07-11T09:57:15Z</time>
      </trkpt>
      <trkpt lat="45.88188" lon="4.66129">
        <ele>350</ele>
        <time>2017-07-11T09:57:18Z</time>
      </trkpt>
      <trkpt lat="45.88191" lon="4.6613">
        <ele>350</ele>
        <time>2017-07-11T09:57:19Z</time>
      </trkpt>
      <trkpt lat="45.882" lon="4.6613">
        <ele>350</ele>
        <time>2017-07-11T09:57:22Z</time>
      </trkpt>
      <trkpt lat="45.88203" lon="4.6613">
        <ele>350</ele>
        <time>2017-07-11T09:57:23Z</time>
      </trkpt>
      <trkpt lat="45.88209" lon="4.66129">
        <ele>350</ele>
        <time>2017-07-11T09:57:25Z</time>
      </trkpt>
      <trkpt lat="45.88212" lon="4.66129">
        <ele>350</ele>
        <time>2017-07-11T09:57:26Z</time>
      </trkpt>
      <trkpt lat="45.8822" lon="4.66129">
        <ele>350</ele>
        <time>2017-07-11T09:57:29Z</time>
      </trkpt>
      <trkpt lat="45.88224" lon="4.6613">
        <ele>350</ele>
        <time>2017-07-11T09:57:30Z</time>
      </trkpt>
      <trkpt lat="45.88232" lon="4.66132">
        <ele>350</ele>
        <time>2017-07-11T09:57:33Z</time>
      </trkpt>
      <trkpt lat="45.88236" lon="4.66132">
        <ele>350</ele>
        <time>2017-07-11T09:57:34Z</time>
      </trkpt>
      <trkpt lat="45.88244" lon="4.66133">
        <ele>350</ele>
        <time>2017-07-11T09:57:37Z</time>
      </trkpt>
      <trkpt lat="45.88247" lon="4.66132">
        <ele>350</ele>
        <time>2017-07-11T09:57:38Z</time>
      </trkpt>
      <trkpt lat="45.88253" lon="4.66133">
        <ele>351</ele>
        <time>2017-07-11T09:57:40Z</time>
      </trkpt>
      <trkpt lat="45.88256" lon="4.66134">
        <ele>351</ele>
        <time>2017-07-11T09:57:41Z</time>
      </trkpt>
      <trkpt lat="45.88263" lon="4.66134">
        <ele>352</ele>
        <time>2017-07-11T09:57:43Z</time>
      </trkpt>
      <trkpt lat="45.88267" lon="4.66134">
        <ele>352</ele>
        <time>2017-07-11T09:57:44Z</time>
      </trkpt>
      <trkpt lat="45.88273" lon="4.66134">
        <ele>352</ele>
        <time>2017-07-11T09:57:46Z</time>
      </trkpt>
      <trkpt lat="45.88277" lon="4.66134">
        <ele>352</ele>
        <time>2017-07-11T09:57:47Z</time>
      </trkpt>
      <trkpt lat="45.88286" lon="4.66135">
        <ele>352</ele>
        <time>2017-07-11T09:57:50Z</time>
      </trkpt>
      <trkpt lat="45.88289" lon="4.66135">
        <ele>352</ele>
        <time>2017-07-11T09:57:51Z</time>
      </trkpt>
      <trkpt lat="45.88297" lon="4.66135">
        <ele>352</ele>
        <time>2017-07-11T09:57:54Z</time>
      </trkpt>
      <trkpt lat="45.883" lon="4.66135">
        <ele>353</ele>
        <time>2017-07-11T09:57:55Z</time>
      </trkpt>
      <trkpt lat="45.88308" lon="4.66136">
        <ele>353</ele>
        <time>2017-07-11T09:57:58Z</time>
      </trkpt>
      <trkpt lat="45.88311" lon="4.66137">
        <ele>353</ele>
        <time>2017-07-11T09:57:59Z</time>
      </trkpt>
      <trkpt lat="45.88318" lon="4.66138">
        <ele>353</ele>
        <time>2017-07-11T09:58:02Z</time>
      </trkpt>
      <trkpt lat="45.88321" lon="4.66138">
        <ele>354</ele>
        <time>2017-07-11T09:58:03Z</time>
      </trkpt>
      <trkpt lat="45.88329" lon="4.66138">
        <ele>354</ele>
        <time>2017-07-11T09:58:06Z</time>
      </trkpt>
      <trkpt lat="45.88331" lon="4.66138">
        <ele>354</ele>
        <time>2017-07-11T09:58:07Z</time>
      </trkpt>
      <trkpt lat="45.88339" lon="4.66139">
        <ele>357</ele>
        <time>2017-07-11T09:58:10Z</time>
      </trkpt>
      <trkpt lat="45.88342" lon="4.66139">
        <ele>357</ele>
        <time>2017-07-11T09:58:11Z</time>
      </trkpt>
      <trkpt lat="45.8835" lon="4.66139">
        <ele>357</ele>
        <time>2017-07-11T09:58:14Z</time>
      </trkpt>
      <trkpt lat="45.88352" lon="4.66139">
        <ele>357</ele>
        <time>2017-07-11T09:58:15Z</time>
      </trkpt>
      <trkpt lat="45.88359" lon="4.66141">
        <ele>357</ele>
        <time>2017-07-11T09:58:18Z</time>
      </trkpt>
      <trkpt lat="45.88361" lon="4.66141">
        <ele>357</ele>
        <time>2017-07-11T09:58:19Z</time>
      </trkpt>
      <trkpt lat="45.88369" lon="4.66142">
        <ele>357</ele>
        <time>2017-07-11T09:58:22Z</time>
      </trkpt>
      <trkpt lat="45.88371" lon="4.66142">
        <ele>357</ele>
        <time>2017-07-11T09:58:23Z</time>
      </trkpt>
      <trkpt lat="45.88378" lon="4.66144">
        <ele>357</ele>
        <time>2017-07-11T09:58:26Z</time>
      </trkpt>
      <trkpt lat="45.88381" lon="4.66143">
        <ele>357</ele>
        <time>2017-07-11T09:58:27Z</time>
      </trkpt>
      <trkpt lat="45.88388" lon="4.66142">
        <ele>357</ele>
        <time>2017-07-11T09:58:30Z</time>
      </trkpt>
      <trkpt lat="45.8839" lon="4.66142">
        <ele>357</ele>
        <time>2017-07-11T09:58:31Z</time>
      </trkpt>
      <trkpt lat="45.88398" lon="4.66144">
        <ele>358</ele>
        <time>2017-07-11T09:58:35Z</time>
      </trkpt>
      <trkpt lat="45.884" lon="4.66145">
        <ele>358</ele>
        <time>2017-07-11T09:58:36Z</time>
      </trkpt>
      <trkpt lat="45.88408" lon="4.66146">
        <ele>359</ele>
        <time>2017-07-11T09:58:40Z</time>
      </trkpt>
      <trkpt lat="45.8841" lon="4.66146">
        <ele>359</ele>
        <time>2017-07-11T09:58:41Z</time>
      </trkpt>
      <trkpt lat="45.88419" lon="4.66146">
        <ele>361</ele>
        <time>2017-07-11T09:58:45Z</time>
      </trkpt>
      <trkpt lat="45.88421" lon="4.66147">
        <ele>361</ele>
        <time>2017-07-11T09:58:46Z</time>
      </trkpt>
      <trkpt lat="45.88429" lon="4.66146">
        <ele>361</ele>
        <time>2017-07-11T09:58:50Z</time>
      </trkpt>
      <trkpt lat="45.88431" lon="4.66147">
        <ele>361</ele>
        <time>2017-07-11T09:58:51Z</time>
      </trkpt>
      <trkpt lat="45.88438" lon="4.66148">
        <ele>361</ele>
        <time>2017-07-11T09:58:54Z</time>
      </trkpt>
      <trkpt lat="45.8844" lon="4.66148">
        <ele>361</ele>
        <time>2017-07-11T09:58:55Z</time>
      </trkpt>
      <trkpt lat="45.88448" lon="4.66149">
        <ele>361</ele>
        <time>2017-07-11T09:58:59Z</time>
      </trkpt>
      <trkpt lat="45.88451" lon="4.66149">
        <ele>361</ele>
        <time>2017-07-11T09:59:00Z</time>
      </trkpt>
      <trkpt lat="45.88458" lon="4.66149">
        <ele>361</ele>
        <time>2017-07-11T09:59:04Z</time>
      </trkpt>
      <trkpt lat="45.8846" lon="4.66149">
        <ele>361</ele>
        <time>2017-07-11T09:59:05Z</time>
      </trkpt>
      <trkpt lat="45.88467" lon="4.66149">
        <ele>362</ele>
        <time>2017-07-11T09:59:09Z</time>
      </trkpt>
      <trkpt lat="45.88469" lon="4.6615">
        <ele>362</ele>
        <time>2017-07-11T09:59:10Z</time>
      </trkpt>
      <trkpt lat="45.88476" lon="4.66154">
        <ele>362</ele>
        <time>2017-07-11T09:59:14Z</time>
      </trkpt>
      <trkpt lat="45.88478" lon="4.66155">
        <ele>363</ele>
        <time>2017-07-11T09:59:15Z</time>
      </trkpt>
      <trkpt lat="45.88486" lon="4.66159">
        <ele>364</ele>
        <time>2017-07-11T09:59:18Z</time>
      </trkpt>
      <trkpt lat="45.88489" lon="4.66161">
        <ele>364</ele>
        <time>2017-07-11T09:59:19Z</time>
      </trkpt>
      <trkpt lat="45.88495" lon="4.66164">
        <ele>366</ele>
        <time>2017-07-11T09:59:21Z</time>
      </trkpt>
      <trkpt lat="45.88498" lon="4.66166">
        <ele>366</ele>
        <time>2017-07-11T09:59:22Z</time>
      </trkpt>
      <trkpt lat="45.88503" lon="4.66172">
        <ele>368</ele>
        <time>2017-07-11T09:59:25Z</time>
      </trkpt>
      <trkpt lat="45.88505" lon="4.66173">
        <ele>368</ele>
        <time>2017-07-11T09:59:26Z</time>
      </trkpt>
      <trkpt lat="45.88511" lon="4.66179">
        <ele>369</ele>
        <time>2017-07-11T09:59:29Z</time>
      </trkpt>
      <trkpt lat="45.88513" lon="4.66181">
        <ele>369</ele>
        <time>2017-07-11T09:59:30Z</time>
      </trkpt>
      <trkpt lat="45.8852" lon="4.66186">
        <ele>369</ele>
        <time>2017-07-11T09:59:34Z</time>
      </trkpt>
      <trkpt lat="45.88523" lon="4.66187">
        <ele>369</ele>
        <time>2017-07-11T09:59:35Z</time>
      </trkpt>
      <trkpt lat="45.88529" lon="4.66191">
        <ele>369</ele>
        <time>2017-07-11T09:59:38Z</time>
      </trkpt>
      <trkpt lat="45.88531" lon="4.66193">
        <ele>369</ele>
        <time>2017-07-11T09:59:39Z</time>
      </trkpt>
      <trkpt lat="45.88538" lon="4.66198">
        <ele>370</ele>
        <time>2017-07-11T09:59:42Z</time>
      </trkpt>
      <trkpt lat="45.88541" lon="4.662">
        <ele>370</ele>
        <time>2017-07-11T09:59:43Z</time>
      </trkpt>
      <trkpt lat="45.88546" lon="4.66206">
        <ele>370</ele>
        <time>2017-07-11T09:59:46Z</time>
      </trkpt>
      <trkpt lat="45.88549" lon="4.66208">
        <ele>370</ele>
        <time>2017-07-11T09:59:47Z</time>
      </trkpt>
      <trkpt lat="45.88553" lon="4.66218">
        <ele>370</ele>
        <time>2017-07-11T09:59:51Z</time>
      </trkpt>
      <trkpt lat="45.88554" lon="4.6622">
        <ele>370</ele>
        <time>2017-07-11T09:59:52Z</time>
      </trkpt>
      <trkpt lat="45.8856" lon="4.66228">
        <ele>370</ele>
        <time>2017-07-11T09:59:56Z</time>
      </trkpt>
      <trkpt lat="45.88561" lon="4.6623">
        <ele>370</ele>
        <time>2017-07-11T09:59:57Z</time>
      </trkpt>
      <trkpt lat="45.88568" lon="4.66234">
        <ele>370</ele>
        <time>2017-07-11T10:00:00Z</time>
      </trkpt>
      <trkpt lat="45.88571" lon="4.66236">
        <ele>371</ele>
        <time>2017-07-11T10:00:01Z</time>
      </trkpt>
      <trkpt lat="45.88577" lon="4.66243">
        <ele>371</ele>
        <time>2017-07-11T10:00:05Z</time>
      </trkpt>
      <trkpt lat="45.88579" lon="4.66245">
        <ele>371</ele>
        <time>2017-07-11T10:00:06Z</time>
      </trkpt>
      <trkpt lat="45.88583" lon="4.66252">
        <ele>372</ele>
        <time>2017-07-11T10:00:09Z</time>
      </trkpt>
      <trkpt lat="45.88585" lon="4.66254">
        <ele>371</ele>
        <time>2017-07-11T10:00:10Z</time>
      </trkpt>
      <trkpt lat="45.88591" lon="4.66263">
        <ele>372</ele>
        <time>2017-07-11T10:00:15Z</time>
      </trkpt>
      <trkpt lat="45.88592" lon="4.66265">
        <ele>372</ele>
        <time>2017-07-11T10:00:16Z</time>
      </trkpt>
      <trkpt lat="45.88599" lon="4.66271">
        <ele>372</ele>
        <time>2017-07-11T10:00:19Z</time>
      </trkpt>
      <trkpt lat="45.88601" lon="4.66273">
        <ele>372</ele>
        <time>2017-07-11T10:00:20Z</time>
      </trkpt>
      <trkpt lat="45.88606" lon="4.66283">
        <ele>372</ele>
        <time>2017-07-11T10:00:24Z</time>
      </trkpt>
      <trkpt lat="45.88607" lon="4.66286">
        <ele>373</ele>
        <time>2017-07-11T10:00:25Z</time>
      </trkpt>
      <trkpt lat="45.88611" lon="4.66295">
        <ele>373</ele>
        <time>2017-07-11T10:00:28Z</time>
      </trkpt>
      <trkpt lat="45.88613" lon="4.66297">
        <ele>373</ele>
        <time>2017-07-11T10:00:29Z</time>
      </trkpt>
      <trkpt lat="45.88617" lon="4.66306">
        <ele>373</ele>
        <time>2017-07-11T10:00:33Z</time>
      </trkpt>
      <trkpt lat="45.88618" lon="4.66309">
        <ele>373</ele>
        <time>2017-07-11T10:00:34Z</time>
      </trkpt>
      <trkpt lat="45.88623" lon="4.66317">
        <ele>374</ele>
        <time>2017-07-11T10:00:37Z</time>
      </trkpt>
      <trkpt lat="45.88625" lon="4.6632">
        <ele>374</ele>
        <time>2017-07-11T10:00:38Z</time>
      </trkpt>
      <trkpt lat="45.8863" lon="4.66329">
        <ele>373</ele>
        <time>2017-07-11T10:00:41Z</time>
      </trkpt>
      <trkpt lat="45.88633" lon="4.66333">
        <ele>373</ele>
        <time>2017-07-11T10:00:42Z</time>
      </trkpt>
      <trkpt lat="45.88638" lon="4.66341">
        <ele>379</ele>
        <time>2017-07-11T10:00:45Z</time>
      </trkpt>
      <trkpt lat="45.88639" lon="4.66343">
        <ele>379</ele>
        <time>2017-07-11T10:00:46Z</time>
      </trkpt>
      <trkpt lat="45.88642" lon="4.66353">
        <ele>379</ele>
        <time>2017-07-11T10:00:50Z</time>
      </trkpt>
      <trkpt lat="45.88644" lon="4.66356">
        <ele>380</ele>
        <time>2017-07-11T10:00:51Z</time>
      </trkpt>
      <trkpt lat="45.88647" lon="4.66364">
        <ele>380</ele>
        <time>2017-07-11T10:00:54Z</time>
      </trkpt>
      <trkpt lat="45.88649" lon="4.66366">
        <ele>380</ele>
        <time>2017-07-11T10:00:55Z</time>
      </trkpt>
      <trkpt lat="45.88655" lon="4.66373">
        <ele>381</ele>
        <time>2017-07-11T10:00:58Z</time>
      </trkpt>
      <trkpt lat="45.88657" lon="4.66375">
        <ele>381</ele>
        <time>2017-07-11T10:00:59Z</time>
      </trkpt>
      <trkpt lat="45.88661" lon="4.66384">
        <ele>381</ele>
        <time>2017-07-11T10:01:02Z</time>
      </trkpt>
      <trkpt lat="45.88664" lon="4.66387">
        <ele>381</ele>
        <time>2017-07-11T10:01:03Z</time>
      </trkpt>
      <trkpt lat="45.88672" lon="4.66393">
        <ele>378</ele>
        <time>2017-07-11T10:01:06Z</time>
      </trkpt>
      <trkpt lat="45.88674" lon="4.66394">
        <ele>378</ele>
        <time>2017-07-11T10:01:07Z</time>
      </trkpt>
      <trkpt lat="45.8868" lon="4.66399">
        <ele>378</ele>
        <time>2017-07-11T10:01:10Z</time>
      </trkpt>
      <trkpt lat="45.88682" lon="4.66401">
        <ele>379</ele>
        <time>2017-07-11T10:01:11Z</time>
      </trkpt>
      <trkpt lat="45.88688" lon="4.66407">
        <ele>378</ele>
        <time>2017-07-11T10:01:14Z</time>
      </trkpt>
      <trkpt lat="45.88691" lon="4.66409">
        <ele>378</ele>
        <time>2017-07-11T10:01:15Z</time>
      </trkpt>
      <trkpt lat="45.88698" lon="4.66414">
        <ele>378</ele>
        <time>2017-07-11T10:01:18Z</time>
      </trkpt>
      <trkpt lat="45.887" lon="4.66416">
        <ele>378</ele>
        <time>2017-07-11T10:01:19Z</time>
      </trkpt>
      <trkpt lat="45.88705" lon="4.66423">
        <ele>383</ele>
        <time>2017-07-11T10:01:22Z</time>
      </trkpt>
      <trkpt lat="45.88707" lon="4.66425">
        <ele>383</ele>
        <time>2017-07-11T10:01:23Z</time>
      </trkpt>
      <trkpt lat="45.88712" lon="4.66434">
        <ele>383</ele>
        <time>2017-07-11T10:01:27Z</time>
      </trkpt>
      <trkpt lat="45.88714" lon="4.66436">
        <ele>383</ele>
        <time>2017-07-11T10:01:28Z</time>
      </trkpt>
      <trkpt lat="45.88721" lon="4.6644">
        <ele>383</ele>
        <time>2017-07-11T10:01:31Z</time>
      </trkpt>
      <trkpt lat="45.88723" lon="4.66441">
        <ele>383</ele>
        <time>2017-07-11T10:01:32Z</time>
      </trkpt>
      <trkpt lat="45.8873" lon="4.66449">
        <ele>384</ele>
        <time>2017-07-11T10:01:35Z</time>
      </trkpt>
      <trkpt lat="45.88732" lon="4.66452">
        <ele>384</ele>
        <time>2017-07-11T10:01:36Z</time>
      </trkpt>
      <trkpt lat="45.88737" lon="4.66461">
        <ele>384</ele>
        <time>2017-07-11T10:01:39Z</time>
      </trkpt>
      <trkpt lat="45.8874" lon="4.66464">
        <ele>384</ele>
        <time>2017-07-11T10:01:40Z</time>
      </trkpt>
      <trkpt lat="45.88745" lon="4.66471">
        <ele>385</ele>
        <time>2017-07-11T10:01:43Z</time>
      </trkpt>
      <trkpt lat="45.88747" lon="4.66474">
        <ele>385</ele>
        <time>2017-07-11T10:01:44Z</time>
      </trkpt>
      <trkpt lat="45.88752" lon="4.6648">
        <ele>384</ele>
        <time>2017-07-11T10:01:46Z</time>
      </trkpt>
      <trkpt lat="45.88754" lon="4.66483">
        <ele>384</ele>
        <time>2017-07-11T10:01:47Z</time>
      </trkpt>
      <trkpt lat="45.8876" lon="4.6649">
        <ele>384</ele>
        <time>2017-07-11T10:01:50Z</time>
      </trkpt>
      <trkpt lat="45.88761" lon="4.66494">
        <ele>385</ele>
        <time>2017-07-11T10:01:51Z</time>
      </trkpt>
      <trkpt lat="45.88766" lon="4.66501">
        <ele>389</ele>
        <time>2017-07-11T10:01:54Z</time>
      </trkpt>
      <trkpt lat="45.88769" lon="4.66504">
        <ele>389</ele>
        <time>2017-07-11T10:01:55Z</time>
      </trkpt>
      <trkpt lat="45.88774" lon="4.6651">
        <ele>390</ele>
        <time>2017-07-11T10:01:58Z</time>
      </trkpt>
      <trkpt lat="45.88776" lon="4.66512">
        <ele>390</ele>
        <time>2017-07-11T10:01:59Z</time>
      </trkpt>
      <trkpt lat="45.88782" lon="4.66518">
        <ele>390</ele>
        <time>2017-07-11T10:02:02Z</time>
      </trkpt>
      <trkpt lat="45.88784" lon="4.6652">
        <ele>390</ele>
        <time>2017-07-11T10:02:03Z</time>
      </trkpt>
      <trkpt lat="45.88789" lon="4.66527">
        <ele>391</ele>
        <time>2017-07-11T10:02:06Z</time>
      </trkpt>
      <trkpt lat="45.8879" lon="4.6653">
        <ele>391</ele>
        <time>2017-07-11T10:02:07Z</time>
      </trkpt>
      <trkpt lat="45.88797" lon="4.66537">
        <ele>391</ele>
        <time>2017-07-11T10:02:10Z</time>
      </trkpt>
      <trkpt lat="45.88799" lon="4.66539">
        <ele>391</ele>
        <time>2017-07-11T10:02:11Z</time>
      </trkpt>
      <trkpt lat="45.88806" lon="4.66544">
        <ele>392</ele>
        <time>2017-07-11T10:02:15Z</time>
      </trkpt>
      <trkpt lat="45.88809" lon="4.66545">
        <ele>392</ele>
        <time>2017-07-11T10:02:16Z</time>
      </trkpt>
      <trkpt lat="45.88816" lon="4.66549">
        <ele>392</ele>
        <time>2017-07-11T10:02:20Z</time>
      </trkpt>
      <trkpt lat="45.88818" lon="4.6655">
        <ele>392</ele>
        <time>2017-07-11T10:02:21Z</time>
      </trkpt>
      <trkpt lat="45.88827" lon="4.66553">
        <ele>393</ele>
        <time>2017-07-11T10:02:26Z</time>
      </trkpt>
      <trkpt lat="45.88828" lon="4.66554">
        <ele>393</ele>
        <time>2017-07-11T10:02:27Z</time>
      </trkpt>
      <trkpt lat="45.88835" lon="4.66555">
        <ele>391</ele>
        <time>2017-07-11T10:02:31Z</time>
      </trkpt>
      <trkpt lat="45.88837" lon="4.66556">
        <ele>391</ele>
        <time>2017-07-11T10:02:32Z</time>
      </trkpt>
      <trkpt lat="45.88845" lon="4.66561">
        <ele>392</ele>
        <time>2017-07-11T10:02:37Z</time>
      </trkpt>
      <trkpt lat="45.88847" lon="4.66563">
        <ele>392</ele>
        <time>2017-07-11T10:02:38Z</time>
      </trkpt>
      <trkpt lat="45.88853" lon="4.66569">
        <ele>392</ele>
        <time>2017-07-11T10:02:43Z</time>
      </trkpt>
      <trkpt lat="45.88855" lon="4.6657">
        <ele>392</ele>
        <time>2017-07-11T10:02:44Z</time>
      </trkpt>
      <trkpt lat="45.88861" lon="4.66577">
        <ele>392</ele>
        <time>2017-07-11T10:02:48Z</time>
      </trkpt>
      <trkpt lat="45.88863" lon="4.66578">
        <ele>392</ele>
        <time>2017-07-11T10:02:49Z</time>
      </trkpt>
      <trkpt lat="45.8887" lon="4.66585">
        <ele>399</ele>
        <time>2017-07-11T10:02:54Z</time>
      </trkpt>
      <trkpt lat="45.88872" lon="4.66587">
        <ele>399</ele>
        <time>2017-07-11T10:02:55Z</time>
      </trkpt>
      <trkpt lat="45.88876" lon="4.66598">
        <ele>400</ele>
        <time>2017-07-11T10:03:00Z</time>
      </trkpt>
      <trkpt lat="45.88878" lon="4.666">
        <ele>400</ele>
        <time>2017-07-11T10:03:01Z</time>
      </trkpt>
      <trkpt lat="45.88884" lon="4.66607">
        <ele>400</ele>
        <time>2017-07-11T10:03:05Z</time>
      </trkpt>
      <trkpt lat="45.88885" lon="4.66609">
        <ele>400</ele>
        <time>2017-07-11T10:03:06Z</time>
      </trkpt>
      <trkpt lat="45.88889" lon="4.66617">
        <ele>400</ele>
        <time>2017-07-11T10:03:10Z</time>
      </trkpt>
      <trkpt lat="45.88891" lon="4.66619">
        <ele>400</ele>
        <time>2017-07-11T10:03:11Z</time>
      </trkpt>
      <trkpt lat="45.88895" lon="4.66629">
        <ele>401</ele>
        <time>2017-07-11T10:03:15Z</time>
      </trkpt>
      <trkpt lat="45.88896" lon="4.66631">
        <ele>401</ele>
        <time>2017-07-11T10:03:16Z</time>
      </trkpt>
      <trkpt lat="45.88903" lon="4.66638">
        <ele>402</ele>
        <time>2017-07-11T10:03:20Z</time>
      </trkpt>
      <trkpt lat="45.88904" lon="4.6664">
        <ele>402</ele>
        <time>2017-07-11T10:03:21Z</time>
      </trkpt>
      <trkpt lat="45.88909" lon="4.66651">
        <ele>403</ele>
        <time>2017-07-11T10:03:26Z</time>
      </trkpt>
      <trkpt lat="45.88911" lon="4.66653">
        <ele>404</ele>
        <time>2017-07-11T10:03:27Z</time>
      </trkpt>
      <trkpt lat="45.88918" lon="4.66658">
        <ele>404</ele>
        <time>2017-07-11T10:03:30Z</time>
      </trkpt>
      <trkpt lat="45.8892" lon="4.66659">
        <ele>404</ele>
        <time>2017-07-11T10:03:31Z</time>
      </trkpt>
      <trkpt lat="45.88927" lon="4.66664">
        <ele>404</ele>
        <time>2017-07-11T10:03:35Z</time>
      </trkpt>
      <trkpt lat="45.88928" lon="4.66666">
        <ele>403</ele>
        <time>2017-07-11T10:03:36Z</time>
      </trkpt>
      <trkpt lat="45.88935" lon="4.66673">
        <ele>408</ele>
        <time>2017-07-11T10:03:40Z</time>
      </trkpt>
      <trkpt lat="45.88938" lon="4.66675">
        <ele>408</ele>
        <time>2017-07-11T10:03:41Z</time>
      </trkpt>
      <trkpt lat="45.88945" lon="4.66681">
        <ele>408</ele>
        <time>2017-07-11T10:03:45Z</time>
      </trkpt>
      <trkpt lat="45.88947" lon="4.66683">
        <ele>408</ele>
        <time>2017-07-11T10:03:46Z</time>
      </trkpt>
      <trkpt lat="45.88954" lon="4.66688">
        <ele>409</ele>
        <time>2017-07-11T10:03:50Z</time>
      </trkpt>
      <trkpt lat="45.88956" lon="4.66689">
        <ele>409</ele>
        <time>2017-07-11T10:03:51Z</time>
      </trkpt>
      <trkpt lat="45.88963" lon="4.66693">
        <ele>409</ele>
        <time>2017-07-11T10:03:54Z</time>
      </trkpt>
      <trkpt lat="45.88967" lon="4.66695">
        <ele>409</ele>
        <time>2017-07-11T10:03:55Z</time>
      </trkpt>
      <trkpt lat="45.88975" lon="4.66699">
        <ele>409</ele>
        <time>2017-07-11T10:03:59Z</time>
      </trkpt>
      <trkpt lat="45.88978" lon="4.66701">
        <ele>409</ele>
        <time>2017-07-11T10:04:00Z</time>
      </trkpt>
      <trkpt lat="45.88986" lon="4.66704">
        <ele>409</ele>
        <time>2017-07-11T10:04:04Z</time>
      </trkpt>
      <trkpt lat="45.88988" lon="4.66704">
        <ele>409</ele>
        <time>2017-07-11T10:04:05Z</time>
      </trkpt>
      <trkpt lat="45.88996" lon="4.66706">
        <ele>409</ele>
        <time>2017-07-11T10:04:10Z</time>
      </trkpt>
      <trkpt lat="45.88998" lon="4.66707">
        <ele>409</ele>
        <time>2017-07-11T10:04:11Z</time>
      </trkpt>
      <trkpt lat="45.89005" lon="4.66712">
        <ele>407</ele>
        <time>2017-07-11T10:04:15Z</time>
      </trkpt>
      <trkpt lat="45.89007" lon="4.66713">
        <ele>407</ele>
        <time>2017-07-11T10:04:16Z</time>
      </trkpt>
      <trkpt lat="45.89016" lon="4.66714">
        <ele>407</ele>
        <time>2017-07-11T10:04:20Z</time>
      </trkpt>
      <trkpt lat="45.89017" lon="4.66715">
        <ele>407</ele>
        <time>2017-07-11T10:04:21Z</time>
      </trkpt>
      <trkpt lat="45.89024" lon="4.6672">
        <ele>407</ele>
        <time>2017-07-11T10:04:23Z</time>
      </trkpt>
      <trkpt lat="45.89026" lon="4.66722">
        <ele>407</ele>
        <time>2017-07-11T10:04:24Z</time>
      </trkpt>
      <trkpt lat="45.89034" lon="4.66727">
        <ele>407</ele>
        <time>2017-07-11T10:04:27Z</time>
      </trkpt>
      <trkpt lat="45.89037" lon="4.66728">
        <ele>407</ele>
        <time>2017-07-11T10:04:28Z</time>
      </trkpt>
      <trkpt lat="45.89044" lon="4.66733">
        <ele>407</ele>
        <time>2017-07-11T10:04:32Z</time>
      </trkpt>
      <trkpt lat="45.89047" lon="4.66735">
        <ele>407</ele>
        <time>2017-07-11T10:04:33Z</time>
      </trkpt>
      <trkpt lat="45.89053" lon="4.66742">
        <ele>407</ele>
        <time>2017-07-11T10:04:37Z</time>
      </trkpt>
      <trkpt lat="45.89054" lon="4.66745">
        <ele>407</ele>
        <time>2017-07-11T10:04:38Z</time>
      </trkpt>
      <trkpt lat="45.89058" lon="4.66755">
        <ele>412</ele>
        <time>2017-07-11T10:04:41Z</time>
      </trkpt>
      <trkpt lat="45.89059" lon="4.6676">
        <ele>412</ele>
        <time>2017-07-11T10:04:42Z</time>
      </trkpt>
      <trkpt lat="45.89066" lon="4.66765">
        <ele>412</ele>
        <time>2017-07-11T10:04:46Z</time>
      </trkpt>
      <trkpt lat="45.89067" lon="4.66766">
        <ele>412</ele>
        <time>2017-07-11T10:04:47Z</time>
      </trkpt>
      <trkpt lat="45.89073" lon="4.66764">
        <ele>412</ele>
        <time>2017-07-11T10:04:49Z</time>
      </trkpt>
      <trkpt lat="45.89079" lon="4.66765">
        <ele>411</ele>
        <time>2017-07-11T10:04:50Z</time>
      </trkpt>
      <trkpt lat="45.89083" lon="4.66773">
        <ele>412</ele>
        <time>2017-07-11T10:04:53Z</time>
      </trkpt>
      <trkpt lat="45.89084" lon="4.66777">
        <ele>410</ele>
        <time>2017-07-11T10:04:54Z</time>
      </trkpt>
      <trkpt lat="45.89089" lon="4.66783">
        <ele>410</ele>
        <time>2017-07-11T10:04:56Z</time>
      </trkpt>
      <trkpt lat="45.89092" lon="4.66786">
        <ele>410</ele>
        <time>2017-07-11T10:04:57Z</time>
      </trkpt>
      <trkpt lat="45.89097" lon="4.66789">
        <ele>410</ele>
        <time>2017-07-11T10:04:59Z</time>
      </trkpt>
      <trkpt lat="45.89101" lon="4.6679">
        <ele>410</ele>
        <time>2017-07-11T10:05:00Z</time>
      </trkpt>
      <trkpt lat="45.89109" lon="4.66793">
        <ele>410</ele>
        <time>2017-07-11T10:05:03Z</time>
      </trkpt>
      <trkpt lat="45.89112" lon="4.66794">
        <ele>410</ele>
        <time>2017-07-11T10:05:04Z</time>
      </trkpt>
      <trkpt lat="45.89117" lon="4.668">
        <ele>410</ele>
        <time>2017-07-11T10:05:07Z</time>
      </trkpt>
      <trkpt lat="45.89118" lon="4.66803">
        <ele>411</ele>
        <time>2017-07-11T10:05:08Z</time>
      </trkpt>
      <trkpt lat="45.89114" lon="4.66814">
        <ele>411</ele>
        <time>2017-07-11T10:05:11Z</time>
      </trkpt>
      <trkpt lat="45.89112" lon="4.66817">
        <ele>411</ele>
        <time>2017-07-11T10:05:12Z</time>
      </trkpt>
      <trkpt lat="45.89112" lon="4.66818">
        <ele>411</ele>
        <time>2017-07-11T10:05:13Z</time>
      </trkpt>
      <trkpt lat="45.89117" lon="4.66813">
        <ele>411</ele>
        <time>2017-07-11T10:12:02Z</time>
      </trkpt>
      <trkpt lat="45.89119" lon="4.66817">
        <ele>411</ele>
        <time>2017-07-11T10:12:03Z</time>
      </trkpt>
      <trkpt lat="45.89123" lon="4.66807">
        <ele>411</ele>
        <time>2017-07-11T10:12:10Z</time>
      </trkpt>
      <trkpt lat="45.89125" lon="4.66806">
        <ele>411</ele>
        <time>2017-07-11T10:12:11Z</time>
      </trkpt>
      <trkpt lat="45.89131" lon="4.6681">
        <ele>411</ele>
        <time>2017-07-11T10:12:14Z</time>
      </trkpt>
      <trkpt lat="45.89134" lon="4.66813">
        <ele>411</ele>
        <time>2017-07-11T10:12:15Z</time>
      </trkpt>
      <trkpt lat="45.89138" lon="4.66823">
        <ele>411</ele>
        <time>2017-07-11T10:12:17Z</time>
      </trkpt>
      <trkpt lat="45.89138" lon="4.66826">
        <ele>411</ele>
        <time>2017-07-11T10:12:18Z</time>
      </trkpt>
      <trkpt lat="45.89137" lon="4.66838">
        <ele>414</ele>
        <time>2017-07-11T10:12:21Z</time>
      </trkpt>
      <trkpt lat="45.89137" lon="4.66842">
        <ele>414</ele>
        <time>2017-07-11T10:12:22Z</time>
      </trkpt>
      <trkpt lat="45.89136" lon="4.66854">
        <ele>414</ele>
        <time>2017-07-11T10:12:25Z</time>
      </trkpt>
      <trkpt lat="45.89134" lon="4.66857">
        <ele>414</ele>
        <time>2017-07-11T10:12:26Z</time>
      </trkpt>
      <trkpt lat="45.89134" lon="4.66867">
        <ele>414</ele>
        <time>2017-07-11T10:12:28Z</time>
      </trkpt>
      <trkpt lat="45.89134" lon="4.66872">
        <ele>414</ele>
        <time>2017-07-11T10:12:29Z</time>
      </trkpt>
      <trkpt lat="45.89144" lon="4.66879">
        <ele>414</ele>
        <time>2017-07-11T10:12:30Z</time>
      </trkpt>
      <trkpt lat="45.89148" lon="4.6689">
        <ele>414</ele>
        <time>2017-07-11T10:12:32Z</time>
      </trkpt>
      <trkpt lat="45.8915" lon="4.66894">
        <ele>414</ele>
        <time>2017-07-11T10:12:33Z</time>
      </trkpt>
      <trkpt lat="45.89153" lon="4.66902">
        <ele>415</ele>
        <time>2017-07-11T10:12:35Z</time>
      </trkpt>
      <trkpt lat="45.89154" lon="4.66906">
        <ele>415</ele>
        <time>2017-07-11T10:12:36Z</time>
      </trkpt>
      <trkpt lat="45.89158" lon="4.66915">
        <ele>415</ele>
        <time>2017-07-11T10:12:38Z</time>
      </trkpt>
      <trkpt lat="45.8916" lon="4.66919">
        <ele>414</ele>
        <time>2017-07-11T10:12:39Z</time>
      </trkpt>
      <trkpt lat="45.89163" lon="4.66927">
        <ele>414</ele>
        <time>2017-07-11T10:12:41Z</time>
      </trkpt>
      <trkpt lat="45.89164" lon="4.66931">
        <ele>413</ele>
        <time>2017-07-11T10:12:42Z</time>
      </trkpt>
      <trkpt lat="45.89167" lon="4.66942">
        <ele>413</ele>
        <time>2017-07-11T10:12:45Z</time>
      </trkpt>
      <trkpt lat="45.89168" lon="4.66945">
        <ele>415</ele>
        <time>2017-07-11T10:12:46Z</time>
      </trkpt>
      <trkpt lat="45.89171" lon="4.66955">
        <ele>415</ele>
        <time>2017-07-11T10:12:49Z</time>
      </trkpt>
      <trkpt lat="45.89172" lon="4.66959">
        <ele>415</ele>
        <time>2017-07-11T10:12:50Z</time>
      </trkpt>
      <trkpt lat="45.89174" lon="4.66968">
        <ele>415</ele>
        <time>2017-07-11T10:12:52Z</time>
      </trkpt>
      <trkpt lat="45.89175" lon="4.66973">
        <ele>415</ele>
        <time>2017-07-11T10:12:53Z</time>
      </trkpt>
      <trkpt lat="45.89178" lon="4.66982">
        <ele>414</ele>
        <time>2017-07-11T10:12:55Z</time>
      </trkpt>
      <trkpt lat="45.89179" lon="4.66987">
        <ele>414</ele>
        <time>2017-07-11T10:12:56Z</time>
      </trkpt>
      <trkpt lat="45.89182" lon="4.66999">
        <ele>414</ele>
        <time>2017-07-11T10:12:58Z</time>
      </trkpt>
      <trkpt lat="45.89184" lon="4.67005">
        <ele>412</ele>
        <time>2017-07-11T10:12:59Z</time>
      </trkpt>
      <trkpt lat="45.89184" lon="4.67016">
        <ele>412</ele>
        <time>2017-07-11T10:13:01Z</time>
      </trkpt>
      <trkpt lat="45.89185" lon="4.6702">
        <ele>412</ele>
        <time>2017-07-11T10:13:02Z</time>
      </trkpt>
      <trkpt lat="45.89187" lon="4.6703">
        <ele>412</ele>
        <time>2017-07-11T10:13:04Z</time>
      </trkpt>
      <trkpt lat="45.89189" lon="4.67035">
        <ele>412</ele>
        <time>2017-07-11T10:13:05Z</time>
      </trkpt>
      <trkpt lat="45.89192" lon="4.67046">
        <ele>412</ele>
        <time>2017-07-11T10:13:07Z</time>
      </trkpt>
      <trkpt lat="45.89194" lon="4.67052">
        <ele>412</ele>
        <time>2017-07-11T10:13:08Z</time>
      </trkpt>
      <trkpt lat="45.89197" lon="4.67058">
        <ele>412</ele>
        <time>2017-07-11T10:13:09Z</time>
      </trkpt>
      <trkpt lat="45.89199" lon="4.67066">
        <ele>412</ele>
        <time>2017-07-11T10:13:10Z</time>
      </trkpt>
      <trkpt lat="45.89201" lon="4.67072">
        <ele>412</ele>
        <time>2017-07-11T10:13:11Z</time>
      </trkpt>
      <trkpt lat="45.89203" lon="4.67078">
        <ele>412</ele>
        <time>2017-07-11T10:13:12Z</time>
      </trkpt>
      <trkpt lat="45.89208" lon="4.67088">
        <ele>410</ele>
        <time>2017-07-11T10:13:14Z</time>
      </trkpt>
      <trkpt lat="45.8921" lon="4.67093">
        <ele>410</ele>
        <time>2017-07-11T10:13:15Z</time>
      </trkpt>
      <trkpt lat="45.89214" lon="4.67102">
        <ele>410</ele>
        <time>2017-07-11T10:13:17Z</time>
      </trkpt>
      <trkpt lat="45.89217" lon="4.67106">
        <ele>410</ele>
        <time>2017-07-11T10:13:18Z</time>
      </trkpt>
      <trkpt lat="45.89222" lon="4.67115">
        <ele>411</ele>
        <time>2017-07-11T10:13:20Z</time>
      </trkpt>
      <trkpt lat="45.89225" lon="4.6712">
        <ele>411</ele>
        <time>2017-07-11T10:13:21Z</time>
      </trkpt>
      <trkpt lat="45.8923" lon="4.67129">
        <ele>411</ele>
        <time>2017-07-11T10:13:23Z</time>
      </trkpt>
      <trkpt lat="45.89233" lon="4.67134">
        <ele>411</ele>
        <time>2017-07-11T10:13:24Z</time>
      </trkpt>
      <trkpt lat="45.89238" lon="4.67144">
        <ele>411</ele>
        <time>2017-07-11T10:13:26Z</time>
      </trkpt>
      <trkpt lat="45.89241" lon="4.67149">
        <ele>411</ele>
        <time>2017-07-11T10:13:27Z</time>
      </trkpt>
      <trkpt lat="45.89247" lon="4.67158">
        <ele>412</ele>
        <time>2017-07-11T10:13:29Z</time>
      </trkpt>
      <trkpt lat="45.8925" lon="4.67162">
        <ele>412</ele>
        <time>2017-07-11T10:13:30Z</time>
      </trkpt>
      <trkpt lat="45.89257" lon="4.67169">
        <ele>413</ele>
        <time>2017-07-11T10:13:32Z</time>
      </trkpt>
      <trkpt lat="45.8926" lon="4.67172">
        <ele>412</ele>
        <time>2017-07-11T10:13:33Z</time>
      </trkpt>
      <trkpt lat="45.89264" lon="4.67176">
        <ele>412</ele>
        <time>2017-07-11T10:13:34Z</time>
      </trkpt>
      <trkpt lat="45.89268" lon="4.67179">
        <ele>412</ele>
        <time>2017-07-11T10:13:35Z</time>
      </trkpt>
      <trkpt lat="45.89274" lon="4.67185">
        <ele>412</ele>
        <time>2017-07-11T10:13:37Z</time>
      </trkpt>
      <trkpt lat="45.89276" lon="4.67187">
        <ele>412</ele>
        <time>2017-07-11T10:13:38Z</time>
      </trkpt>
      <trkpt lat="45.89278" lon="4.67186">
        <ele>412</ele>
        <time>2017-07-11T10:13:39Z</time>
      </trkpt>
      <trkpt lat="45.89279" lon="4.67186">
        <ele>412</ele>
        <time>2017-07-11T10:13:40Z</time>
      </trkpt>
      <trkpt lat="45.89282" lon="4.67187">
        <ele>412</ele>
        <time>2017-07-11T10:13:49Z</time>
      </trkpt>
      <trkpt lat="45.89284" lon="4.67187">
        <ele>412</ele>
        <time>2017-07-11T10:13:50Z</time>
      </trkpt>
      <trkpt lat="45.8929" lon="4.67189">
        <ele>412</ele>
        <time>2017-07-11T10:13:53Z</time>
      </trkpt>
      <trkpt lat="45.89293" lon="4.67191">
        <ele>412</ele>
        <time>2017-07-11T10:13:54Z</time>
      </trkpt>
      <trkpt lat="45.89297" lon="4.67193">
        <ele>412</ele>
        <time>2017-07-11T10:13:55Z</time>
      </trkpt>
      <trkpt lat="45.89302" lon="4.67195">
        <ele>412</ele>
        <time>2017-07-11T10:13:56Z</time>
      </trkpt>
      <trkpt lat="45.89306" lon="4.67197">
        <ele>412</ele>
        <time>2017-07-11T10:13:57Z</time>
      </trkpt>
      <trkpt lat="45.8931" lon="4.672">
        <ele>412</ele>
        <time>2017-07-11T10:13:58Z</time>
      </trkpt>
      <trkpt lat="45.89314" lon="4.67203">
        <ele>412</ele>
        <time>2017-07-11T10:13:59Z</time>
      </trkpt>
      <trkpt lat="45.89319" lon="4.67206">
        <ele>412</ele>
        <time>2017-07-11T10:14:00Z</time>
      </trkpt>
      <trkpt lat="45.89323" lon="4.67209">
        <ele>412</ele>
        <time>2017-07-11T10:14:01Z</time>
      </trkpt>
      <trkpt lat="45.89327" lon="4.67212">
        <ele>411</ele>
        <time>2017-07-11T10:14:02Z</time>
      </trkpt>
      <trkpt lat="45.89332" lon="4.67214">
        <ele>411</ele>
        <time>2017-07-11T10:14:03Z</time>
      </trkpt>
      <trkpt lat="45.89337" lon="4.67215">
        <ele>415</ele>
        <time>2017-07-11T10:14:04Z</time>
      </trkpt>
      <trkpt lat="45.89341" lon="4.67217">
        <ele>415</ele>
        <time>2017-07-11T10:14:05Z</time>
      </trkpt>
      <trkpt lat="45.89346" lon="4.6722">
        <ele>415</ele>
        <time>2017-07-11T10:14:06Z</time>
      </trkpt>
      <trkpt lat="45.8935" lon="4.67223">
        <ele>415</ele>
        <time>2017-07-11T10:14:07Z</time>
      </trkpt>
      <trkpt lat="45.89354" lon="4.67227">
        <ele>415</ele>
        <time>2017-07-11T10:14:08Z</time>
      </trkpt>
      <trkpt lat="45.89358" lon="4.67232">
        <ele>415</ele>
        <time>2017-07-11T10:14:09Z</time>
      </trkpt>
      <trkpt lat="45.89361" lon="4.67237">
        <ele>415</ele>
        <time>2017-07-11T10:14:10Z</time>
      </trkpt>
      <trkpt lat="45.89364" lon="4.67242">
        <ele>415</ele>
        <time>2017-07-11T10:14:11Z</time>
      </trkpt>
      <trkpt lat="45.89368" lon="4.6725">
        <ele>409</ele>
        <time>2017-07-11T10:14:12Z</time>
      </trkpt>
      <trkpt lat="45.89371" lon="4.67257">
        <ele>409</ele>
        <time>2017-07-11T10:14:13Z</time>
      </trkpt>
      <trkpt lat="45.89374" lon="4.67263">
        <ele>409</ele>
        <time>2017-07-11T10:14:14Z</time>
      </trkpt>
      <trkpt lat="45.89377" lon="4.67269">
        <ele>409</ele>
        <time>2017-07-11T10:14:15Z</time>
      </trkpt>
      <trkpt lat="45.8938" lon="4.67275">
        <ele>409</ele>
        <time>2017-07-11T10:14:16Z</time>
      </trkpt>
      <trkpt lat="45.89383" lon="4.67281">
        <ele>409</ele>
        <time>2017-07-11T10:14:17Z</time>
      </trkpt>
      <trkpt lat="45.89387" lon="4.67287">
        <ele>408</ele>
        <time>2017-07-11T10:14:18Z</time>
      </trkpt>
      <trkpt lat="45.89391" lon="4.67294">
        <ele>408</ele>
        <time>2017-07-11T10:14:19Z</time>
      </trkpt>
      <trkpt lat="45.89395" lon="4.673">
        <ele>408</ele>
        <time>2017-07-11T10:14:20Z</time>
      </trkpt>
      <trkpt lat="45.89399" lon="4.67306">
        <ele>408</ele>
        <time>2017-07-11T10:14:21Z</time>
      </trkpt>
      <trkpt lat="45.89404" lon="4.67311">
        <ele>408</ele>
        <time>2017-07-11T10:14:22Z</time>
      </trkpt>
      <trkpt lat="45.89408" lon="4.67317">
        <ele>407</ele>
        <time>2017-07-11T10:14:23Z</time>
      </trkpt>
      <trkpt lat="45.89413" lon="4.67322">
        <ele>407</ele>
        <time>2017-07-11T10:14:24Z</time>
      </trkpt>
      <trkpt lat="45.89417" lon="4.67328">
        <ele>409</ele>
        <time>2017-07-11T10:14:25Z</time>
      </trkpt>
      <trkpt lat="45.89422" lon="4.67333">
        <ele>409</ele>
        <time>2017-07-11T10:14:26Z</time>
      </trkpt>
      <trkpt lat="45.89427" lon="4.67339">
        <ele>407</ele>
        <time>2017-07-11T10:14:27Z</time>
      </trkpt>
      <trkpt lat="45.89432" lon="4.67344">
        <ele>407</ele>
        <time>2017-07-11T10:14:28Z</time>
      </trkpt>
      <trkpt lat="45.89437" lon="4.6735">
        <ele>407</ele>
        <time>2017-07-11T10:14:29Z</time>
      </trkpt>
      <trkpt lat="45.89442" lon="4.67354">
        <ele>407</ele>
        <time>2017-07-11T10:14:30Z</time>
      </trkpt>
      <trkpt lat="45.89448" lon="4.67359">
        <ele>407</ele>
        <time>2017-07-11T10:14:31Z</time>
      </trkpt>
      <trkpt lat="45.89454" lon="4.67363">
        <ele>408</ele>
        <time>2017-07-11T10:14:32Z</time>
      </trkpt>
      <trkpt lat="45.89459" lon="4.67368">
        <ele>408</ele>
        <time>2017-07-11T10:14:33Z</time>
      </trkpt>
      <trkpt lat="45.89465" lon="4.67371">
        <ele>408</ele>
        <time>2017-07-11T10:14:34Z</time>
      </trkpt>
      <trkpt lat="45.8947" lon="4.67376">
        <ele>407</ele>
        <time>2017-07-11T10:14:35Z</time>
      </trkpt>
      <trkpt lat="45.89475" lon="4.67381">
        <ele>407</ele>
        <time>2017-07-11T10:14:36Z</time>
      </trkpt>
      <trkpt lat="45.89481" lon="4.67386">
        <ele>407</ele>
        <time>2017-07-11T10:14:37Z</time>
      </trkpt>
      <trkpt lat="45.89487" lon="4.67391">
        <ele>407</ele>
        <time>2017-07-11T10:14:38Z</time>
      </trkpt>
      <trkpt lat="45.89493" lon="4.67395">
        <ele>406</ele>
        <time>2017-07-11T10:14:39Z</time>
      </trkpt>
      <trkpt lat="45.89498" lon="4.674">
        <ele>406</ele>
        <time>2017-07-11T10:14:40Z</time>
      </trkpt>
      <trkpt lat="45.89503" lon="4.67405">
        <ele>408</ele>
        <time>2017-07-11T10:14:41Z</time>
      </trkpt>
      <trkpt lat="45.89508" lon="4.67409">
        <ele>407</ele>
        <time>2017-07-11T10:14:42Z</time>
      </trkpt>
      <trkpt lat="45.89513" lon="4.67414">
        <ele>408</ele>
        <time>2017-07-11T10:14:43Z</time>
      </trkpt>
      <trkpt lat="45.89519" lon="4.67418">
        <ele>402</ele>
        <time>2017-07-11T10:14:44Z</time>
      </trkpt>
      <trkpt lat="45.89525" lon="4.67421">
        <ele>402</ele>
        <time>2017-07-11T10:14:45Z</time>
      </trkpt>
      <trkpt lat="45.89531" lon="4.67424">
        <ele>402</ele>
        <time>2017-07-11T10:14:46Z</time>
      </trkpt>
      <trkpt lat="45.89537" lon="4.67426">
        <ele>402</ele>
        <time>2017-07-11T10:14:47Z</time>
      </trkpt>
      <trkpt lat="45.89543" lon="4.67429">
        <ele>402</ele>
        <time>2017-07-11T10:14:48Z</time>
      </trkpt>
      <trkpt lat="45.89549" lon="4.67432">
        <ele>402</ele>
        <time>2017-07-11T10:14:49Z</time>
      </trkpt>
      <trkpt lat="45.89555" lon="4.67434">
        <ele>402</ele>
        <time>2017-07-11T10:14:50Z</time>
      </trkpt>
      <trkpt lat="45.8956" lon="4.67436">
        <ele>403</ele>
        <time>2017-07-11T10:14:51Z</time>
      </trkpt>
      <trkpt lat="45.89566" lon="4.67438">
        <ele>403</ele>
        <time>2017-07-11T10:14:52Z</time>
      </trkpt>
      <trkpt lat="45.89573" lon="4.67441">
        <ele>403</ele>
        <time>2017-07-11T10:14:53Z</time>
      </trkpt>
      <trkpt lat="45.8958" lon="4.67443">
        <ele>403</ele>
        <time>2017-07-11T10:14:54Z</time>
      </trkpt>
      <trkpt lat="45.89588" lon="4.67446">
        <ele>404</ele>
        <time>2017-07-11T10:14:55Z</time>
      </trkpt>
      <trkpt lat="45.89596" lon="4.67449">
        <ele>404</ele>
        <time>2017-07-11T10:14:56Z</time>
      </trkpt>
      <trkpt lat="45.89604" lon="4.67452">
        <ele>404</ele>
        <time>2017-07-11T10:14:57Z</time>
      </trkpt>
      <trkpt lat="45.89611" lon="4.67455">
        <ele>403</ele>
        <time>2017-07-11T10:14:58Z</time>
      </trkpt>
      <trkpt lat="45.89618" lon="4.67457">
        <ele>403</ele>
        <time>2017-07-11T10:14:59Z</time>
      </trkpt>
      <trkpt lat="45.89624" lon="4.6746">
        <ele>403</ele>
        <time>2017-07-11T10:15:00Z</time>
      </trkpt>
      <trkpt lat="45.8963" lon="4.67463">
        <ele>403</ele>
        <time>2017-07-11T10:15:01Z</time>
      </trkpt>
      <trkpt lat="45.89636" lon="4.67465">
        <ele>403</ele>
        <time>2017-07-11T10:15:02Z</time>
      </trkpt>
      <trkpt lat="45.89643" lon="4.67468">
        <ele>403</ele>
        <time>2017-07-11T10:15:03Z</time>
      </trkpt>
      <trkpt lat="45.89649" lon="4.6747">
        <ele>403</ele>
        <time>2017-07-11T10:15:04Z</time>
      </trkpt>
      <trkpt lat="45.89656" lon="4.67472">
        <ele>402</ele>
        <time>2017-07-11T10:15:05Z</time>
      </trkpt>
      <trkpt lat="45.89663" lon="4.67474">
        <ele>402</ele>
        <time>2017-07-11T10:15:06Z</time>
      </trkpt>
      <trkpt lat="45.8967" lon="4.67476">
        <ele>402</ele>
        <time>2017-07-11T10:15:07Z</time>
      </trkpt>
      <trkpt lat="45.89676" lon="4.67479">
        <ele>402</ele>
        <time>2017-07-11T10:15:08Z</time>
      </trkpt>
      <trkpt lat="45.89682" lon="4.67481">
        <ele>402</ele>
        <time>2017-07-11T10:15:09Z</time>
      </trkpt>
      <trkpt lat="45.89689" lon="4.67483">
        <ele>402</ele>
        <time>2017-07-11T10:15:10Z</time>
      </trkpt>
      <trkpt lat="45.89695" lon="4.67486">
        <ele>402</ele>
        <time>2017-07-11T10:15:11Z</time>
      </trkpt>
      <trkpt lat="45.89702" lon="4.67488">
        <ele>402</ele>
        <time>2017-07-11T10:15:12Z</time>
      </trkpt>
      <trkpt lat="45.89709" lon="4.6749">
        <ele>402</ele>
        <time>2017-07-11T10:15:13Z</time>
      </trkpt>
      <trkpt lat="45.89717" lon="4.67492">
        <ele>402</ele>
        <time>2017-07-11T10:15:14Z</time>
      </trkpt>
      <trkpt lat="45.89725" lon="4.67494">
        <ele>402</ele>
        <time>2017-07-11T10:15:15Z</time>
      </trkpt>
      <trkpt lat="45.89735" lon="4.67495">
        <ele>401</ele>
        <time>2017-07-11T10:15:16Z</time>
      </trkpt>
      <trkpt lat="45.89742" lon="4.67497">
        <ele>400</ele>
        <time>2017-07-11T10:15:17Z</time>
      </trkpt>
      <trkpt lat="45.8975" lon="4.67498">
        <ele>399</ele>
        <time>2017-07-11T10:15:18Z</time>
      </trkpt>
      <trkpt lat="45.89757" lon="4.67498">
        <ele>399</ele>
        <time>2017-07-11T10:15:19Z</time>
      </trkpt>
      <trkpt lat="45.89765" lon="4.67496">
        <ele>399</ele>
        <time>2017-07-11T10:15:20Z</time>
      </trkpt>
      <trkpt lat="45.89772" lon="4.67495">
        <ele>399</ele>
        <time>2017-07-11T10:15:21Z</time>
      </trkpt>
      <trkpt lat="45.8978" lon="4.67493">
        <ele>399</ele>
        <time>2017-07-11T10:15:22Z</time>
      </trkpt>
      <trkpt lat="45.89788" lon="4.6749">
        <ele>399</ele>
        <time>2017-07-11T10:15:23Z</time>
      </trkpt>
      <trkpt lat="45.89795" lon="4.67485">
        <ele>399</ele>
        <time>2017-07-11T10:15:24Z</time>
      </trkpt>
      <trkpt lat="45.89803" lon="4.67477">
        <ele>399</ele>
        <time>2017-07-11T10:15:25Z</time>
      </trkpt>
      <trkpt lat="45.8981" lon="4.67468">
        <ele>398</ele>
        <time>2017-07-11T10:15:26Z</time>
      </trkpt>
      <trkpt lat="45.89817" lon="4.67458">
        <ele>399</ele>
        <time>2017-07-11T10:15:27Z</time>
      </trkpt>
      <trkpt lat="45.89822" lon="4.67447">
        <ele>399</ele>
        <time>2017-07-11T10:15:28Z</time>
      </trkpt>
      <trkpt lat="45.89826" lon="4.67435">
        <ele>398</ele>
        <time>2017-07-11T10:15:29Z</time>
      </trkpt>
      <trkpt lat="45.89829" lon="4.67423">
        <ele>398</ele>
        <time>2017-07-11T10:15:30Z</time>
      </trkpt>
      <trkpt lat="45.89833" lon="4.6741">
        <ele>399</ele>
        <time>2017-07-11T10:15:31Z</time>
      </trkpt>
      <trkpt lat="45.89837" lon="4.67399">
        <ele>397</ele>
        <time>2017-07-11T10:15:32Z</time>
      </trkpt>
      <trkpt lat="45.89841" lon="4.67388">
        <ele>397</ele>
        <time>2017-07-11T10:15:33Z</time>
      </trkpt>
      <trkpt lat="45.89847" lon="4.67378">
        <ele>398</ele>
        <time>2017-07-11T10:15:34Z</time>
      </trkpt>
      <trkpt lat="45.89854" lon="4.67369">
        <ele>398</ele>
        <time>2017-07-11T10:15:35Z</time>
      </trkpt>
      <trkpt lat="45.89861" lon="4.67363">
        <ele>398</ele>
        <time>2017-07-11T10:15:36Z</time>
      </trkpt>
      <trkpt lat="45.89868" lon="4.67358">
        <ele>398</ele>
        <time>2017-07-11T10:15:37Z</time>
      </trkpt>
      <trkpt lat="45.89877" lon="4.67355">
        <ele>398</ele>
        <time>2017-07-11T10:15:38Z</time>
      </trkpt>
      <trkpt lat="45.89885" lon="4.67353">
        <ele>398</ele>
        <time>2017-07-11T10:15:39Z</time>
      </trkpt>
      <trkpt lat="45.89894" lon="4.67352">
        <ele>398</ele>
        <time>2017-07-11T10:15:40Z</time>
      </trkpt>
      <trkpt lat="45.89902" lon="4.67352">
        <ele>398</ele>
        <time>2017-07-11T10:15:41Z</time>
      </trkpt>
      <trkpt lat="45.89911" lon="4.67353">
        <ele>398</ele>
        <time>2017-07-11T10:15:42Z</time>
      </trkpt>
      <trkpt lat="45.8992" lon="4.67355">
        <ele>396</ele>
        <time>2017-07-11T10:15:43Z</time>
      </trkpt>
      <trkpt lat="45.89929" lon="4.67357">
        <ele>396</ele>
        <time>2017-07-11T10:15:44Z</time>
      </trkpt>
      <trkpt lat="45.89937" lon="4.67359">
        <ele>395</ele>
        <time>2017-07-11T10:15:45Z</time>
      </trkpt>
      <trkpt lat="45.89946" lon="4.67362">
        <ele>395</ele>
        <time>2017-07-11T10:15:46Z</time>
      </trkpt>
      <trkpt lat="45.89955" lon="4.67365">
        <ele>395</ele>
        <time>2017-07-11T10:15:47Z</time>
      </trkpt>
      <trkpt lat="45.89964" lon="4.67367">
        <ele>394</ele>
        <time>2017-07-11T10:15:48Z</time>
      </trkpt>
      <trkpt lat="45.89973" lon="4.6737">
        <ele>394</ele>
        <time>2017-07-11T10:15:49Z</time>
      </trkpt>
      <trkpt lat="45.89982" lon="4.67373">
        <ele>394</ele>
        <time>2017-07-11T10:15:50Z</time>
      </trkpt>
      <trkpt lat="45.89991" lon="4.67377">
        <ele>394</ele>
        <time>2017-07-11T10:15:51Z</time>
      </trkpt>
      <trkpt lat="45.90001" lon="4.6738">
        <ele>396</ele>
        <time>2017-07-11T10:15:52Z</time>
      </trkpt>
      <trkpt lat="45.9001" lon="4.67384">
        <ele>396</ele>
        <time>2017-07-11T10:15:53Z</time>
      </trkpt>
      <trkpt lat="45.9002" lon="4.67388">
        <ele>395</ele>
        <time>2017-07-11T10:15:54Z</time>
      </trkpt>
      <trkpt lat="45.90029" lon="4.67394">
        <ele>395</ele>
        <time>2017-07-11T10:15:55Z</time>
      </trkpt>
      <trkpt lat="45.90038" lon="4.674">
        <ele>396</ele>
        <time>2017-07-11T10:15:56Z</time>
      </trkpt>
      <trkpt lat="45.90045" lon="4.67408">
        <ele>396</ele>
        <time>2017-07-11T10:15:57Z</time>
      </trkpt>
      <trkpt lat="45.90053" lon="4.67417">
        <ele>386</ele>
        <time>2017-07-11T10:15:58Z</time>
      </trkpt>
      <trkpt lat="45.9006" lon="4.67425">
        <ele>387</ele>
        <time>2017-07-11T10:15:59Z</time>
      </trkpt>
      <trkpt lat="45.90067" lon="4.67433">
        <ele>387</ele>
        <time>2017-07-11T10:16:00Z</time>
      </trkpt>
      <trkpt lat="45.90075" lon="4.67443">
        <ele>386</ele>
        <time>2017-07-11T10:16:01Z</time>
      </trkpt>
      <trkpt lat="45.90082" lon="4.67453">
        <ele>384</ele>
        <time>2017-07-11T10:16:02Z</time>
      </trkpt>
      <trkpt lat="45.9009" lon="4.67461">
        <ele>388</ele>
        <time>2017-07-11T10:16:03Z</time>
      </trkpt>
      <trkpt lat="45.90098" lon="4.6747">
        <ele>387</ele>
        <time>2017-07-11T10:16:04Z</time>
      </trkpt>
      <trkpt lat="45.90105" lon="4.6748">
        <ele>386</ele>
        <time>2017-07-11T10:16:05Z</time>
      </trkpt>
      <trkpt lat="45.90113" lon="4.6749">
        <ele>386</ele>
        <time>2017-07-11T10:16:06Z</time>
      </trkpt>
      <trkpt lat="45.90119" lon="4.67501">
        <ele>378</ele>
        <time>2017-07-11T10:16:07Z</time>
      </trkpt>
      <trkpt lat="45.90124" lon="4.67512">
        <ele>378</ele>
        <time>2017-07-11T10:16:08Z</time>
      </trkpt>
      <trkpt lat="45.90129" lon="4.67525">
        <ele>378</ele>
        <time>2017-07-11T10:16:09Z</time>
      </trkpt>
      <trkpt lat="45.90135" lon="4.67537">
        <ele>377</ele>
        <time>2017-07-11T10:16:10Z</time>
      </trkpt>
      <trkpt lat="45.9014" lon="4.67548">
        <ele>377</ele>
        <time>2017-07-11T10:16:11Z</time>
      </trkpt>
      <trkpt lat="45.90146" lon="4.6756">
        <ele>377</ele>
        <time>2017-07-11T10:16:12Z</time>
      </trkpt>
      <trkpt lat="45.90153" lon="4.67571">
        <ele>376</ele>
        <time>2017-07-11T10:16:13Z</time>
      </trkpt>
      <trkpt lat="45.90161" lon="4.67581">
        <ele>376</ele>
        <time>2017-07-11T10:16:14Z</time>
      </trkpt>
      <trkpt lat="45.90168" lon="4.6759">
        <ele>376</ele>
        <time>2017-07-11T10:16:15Z</time>
      </trkpt>
      <trkpt lat="45.90176" lon="4.67599">
        <ele>376</ele>
        <time>2017-07-11T10:16:16Z</time>
      </trkpt>
      <trkpt lat="45.90184" lon="4.67608">
        <ele>376</ele>
        <time>2017-07-11T10:16:17Z</time>
      </trkpt>
      <trkpt lat="45.90192" lon="4.67617">
        <ele>376</ele>
        <time>2017-07-11T10:16:18Z</time>
      </trkpt>
      <trkpt lat="45.902" lon="4.67626">
        <ele>376</ele>
        <time>2017-07-11T10:16:19Z</time>
      </trkpt>
      <trkpt lat="45.90208" lon="4.67635">
        <ele>375</ele>
        <time>2017-07-11T10:16:20Z</time>
      </trkpt>
      <trkpt lat="45.90215" lon="4.67644">
        <ele>375</ele>
        <time>2017-07-11T10:16:21Z</time>
      </trkpt>
      <trkpt lat="45.90223" lon="4.67652">
        <ele>375</ele>
        <time>2017-07-11T10:16:22Z</time>
      </trkpt>
      <trkpt lat="45.90232" lon="4.67659">
        <ele>375</ele>
        <time>2017-07-11T10:16:23Z</time>
      </trkpt>
      <trkpt lat="45.9024" lon="4.67666">
        <ele>375</ele>
        <time>2017-07-11T10:16:24Z</time>
      </trkpt>
      <trkpt lat="45.90248" lon="4.67672">
        <ele>374</ele>
        <time>2017-07-11T10:16:25Z</time>
      </trkpt>
      <trkpt lat="45.90256" lon="4.67677">
        <ele>374</ele>
        <time>2017-07-11T10:16:26Z</time>
      </trkpt>
      <trkpt lat="45.90264" lon="4.6768">
        <ele>374</ele>
        <time>2017-07-11T10:16:27Z</time>
      </trkpt>
      <trkpt lat="45.90272" lon="4.67683">
        <ele>374</ele>
        <time>2017-07-11T10:16:28Z</time>
      </trkpt>
      <trkpt lat="45.9028" lon="4.67686">
        <ele>374</ele>
        <time>2017-07-11T10:16:29Z</time>
      </trkpt>
      <trkpt lat="45.90288" lon="4.67688">
        <ele>374</ele>
        <time>2017-07-11T10:16:30Z</time>
      </trkpt>
      <trkpt lat="45.90296" lon="4.67691">
        <ele>374</ele>
        <time>2017-07-11T10:16:31Z</time>
      </trkpt>
      <trkpt lat="45.90304" lon="4.67695">
        <ele>374</ele>
        <time>2017-07-11T10:16:32Z</time>
      </trkpt>
      <trkpt lat="45.90311" lon="4.67699">
        <ele>374</ele>
        <time>2017-07-11T10:16:33Z</time>
      </trkpt>
      <trkpt lat="45.90318" lon="4.67702">
        <ele>374</ele>
        <time>2017-07-11T10:16:34Z</time>
      </trkpt>
      <trkpt lat="45.90326" lon="4.67706">
        <ele>374</ele>
        <time>2017-07-11T10:16:35Z</time>
      </trkpt>
      <trkpt lat="45.90334" lon="4.67709">
        <ele>372</ele>
        <time>2017-07-11T10:16:36Z</time>
      </trkpt>
      <trkpt lat="45.90342" lon="4.67712">
        <ele>372</ele>
        <time>2017-07-11T10:16:37Z</time>
      </trkpt>
      <trkpt lat="45.9035" lon="4.67714">
        <ele>371</ele>
        <time>2017-07-11T10:16:38Z</time>
      </trkpt>
      <trkpt lat="45.90358" lon="4.67718">
        <ele>371</ele>
        <time>2017-07-11T10:16:39Z</time>
      </trkpt>
      <trkpt lat="45.90366" lon="4.67721">
        <ele>371</ele>
        <time>2017-07-11T10:16:40Z</time>
      </trkpt>
      <trkpt lat="45.90374" lon="4.67724">
        <ele>371</ele>
        <time>2017-07-11T10:16:41Z</time>
      </trkpt>
      <trkpt lat="45.90382" lon="4.67726">
        <ele>370</ele>
        <time>2017-07-11T10:16:42Z</time>
      </trkpt>
      <trkpt lat="45.90391" lon="4.67729">
        <ele>370</ele>
        <time>2017-07-11T10:16:43Z</time>
      </trkpt>
      <trkpt lat="45.90399" lon="4.67733">
        <ele>369</ele>
        <time>2017-07-11T10:16:44Z</time>
      </trkpt>
      <trkpt lat="45.90407" lon="4.67737">
        <ele>368</ele>
        <time>2017-07-11T10:16:45Z</time>
      </trkpt>
      <trkpt lat="45.90415" lon="4.6774">
        <ele>367</ele>
        <time>2017-07-11T10:16:46Z</time>
      </trkpt>
      <trkpt lat="45.90424" lon="4.67743">
        <ele>366</ele>
        <time>2017-07-11T10:16:47Z</time>
      </trkpt>
      <trkpt lat="45.90432" lon="4.67746">
        <ele>366</ele>
        <time>2017-07-11T10:16:48Z</time>
      </trkpt>
      <trkpt lat="45.9044" lon="4.67749">
        <ele>366</ele>
        <time>2017-07-11T10:16:49Z</time>
      </trkpt>
      <trkpt lat="45.90449" lon="4.67751">
        <ele>364</ele>
        <time>2017-07-11T10:16:50Z</time>
      </trkpt>
      <trkpt lat="45.90457" lon="4.67754">
        <ele>364</ele>
        <time>2017-07-11T10:16:51Z</time>
      </trkpt>
      <trkpt lat="45.90466" lon="4.67758">
        <ele>364</ele>
        <time>2017-07-11T10:16:52Z</time>
      </trkpt>
      <trkpt lat="45.90474" lon="4.6776">
        <ele>364</ele>
        <time>2017-07-11T10:16:53Z</time>
      </trkpt>
      <trkpt lat="45.90483" lon="4.67764">
        <ele>364</ele>
        <time>2017-07-11T10:16:54Z</time>
      </trkpt>
      <trkpt lat="45.90491" lon="4.67767">
        <ele>364</ele>
        <time>2017-07-11T10:16:55Z</time>
      </trkpt>
      <trkpt lat="45.90499" lon="4.6777">
        <ele>364</ele>
        <time>2017-07-11T10:16:56Z</time>
      </trkpt>
      <trkpt lat="45.90507" lon="4.67773">
        <ele>364</ele>
        <time>2017-07-11T10:16:57Z</time>
      </trkpt>
      <trkpt lat="45.90515" lon="4.67776">
        <ele>365</ele>
        <time>2017-07-11T10:16:58Z</time>
      </trkpt>
      <trkpt lat="45.90522" lon="4.67779">
        <ele>365</ele>
        <time>2017-07-11T10:16:59Z</time>
      </trkpt>
      <trkpt lat="45.90529" lon="4.67781">
        <ele>365</ele>
        <time>2017-07-11T10:17:00Z</time>
      </trkpt>
      <trkpt lat="45.90536" lon="4.67784">
        <ele>365</ele>
        <time>2017-07-11T10:17:01Z</time>
      </trkpt>
      <trkpt lat="45.90543" lon="4.67786">
        <ele>365</ele>
        <time>2017-07-11T10:17:02Z</time>
      </trkpt>
      <trkpt lat="45.90548" lon="4.67788">
        <ele>365</ele>
        <time>2017-07-11T10:17:03Z</time>
      </trkpt>
      <trkpt lat="45.90554" lon="4.6779">
        <ele>365</ele>
        <time>2017-07-11T10:17:04Z</time>
      </trkpt>
      <trkpt lat="45.9056" lon="4.67792">
        <ele>365</ele>
        <time>2017-07-11T10:17:05Z</time>
      </trkpt>
      <trkpt lat="45.90566" lon="4.67793">
        <ele>365</ele>
        <time>2017-07-11T10:17:06Z</time>
      </trkpt>
      <trkpt lat="45.90571" lon="4.67794">
        <ele>365</ele>
        <time>2017-07-11T10:17:07Z</time>
      </trkpt>
      <trkpt lat="45.90577" lon="4.67795">
        <ele>366</ele>
        <time>2017-07-11T10:17:08Z</time>
      </trkpt>
      <trkpt lat="45.90583" lon="4.67796">
        <ele>366</ele>
        <time>2017-07-11T10:17:09Z</time>
      </trkpt>
      <trkpt lat="45.90588" lon="4.67796">
        <ele>367</ele>
        <time>2017-07-11T10:17:10Z</time>
      </trkpt>
      <trkpt lat="45.90593" lon="4.67797">
        <ele>367</ele>
        <time>2017-07-11T10:17:11Z</time>
      </trkpt>
      <trkpt lat="45.90599" lon="4.67797">
        <ele>367</ele>
        <time>2017-07-11T10:17:12Z</time>
      </trkpt>
      <trkpt lat="45.90604" lon="4.67797">
        <ele>367</ele>
        <time>2017-07-11T10:17:13Z</time>
      </trkpt>
      <trkpt lat="45.9061" lon="4.67797">
        <ele>367</ele>
        <time>2017-07-11T10:17:14Z</time>
      </trkpt>
      <trkpt lat="45.90615" lon="4.67797">
        <ele>367</ele>
        <time>2017-07-11T10:17:15Z</time>
      </trkpt>
      <trkpt lat="45.90621" lon="4.67798">
        <ele>367</ele>
        <time>2017-07-11T10:17:16Z</time>
      </trkpt>
      <trkpt lat="45.90626" lon="4.67798">
        <ele>367</ele>
        <time>2017-07-11T10:17:17Z</time>
      </trkpt>
      <trkpt lat="45.90632" lon="4.67798">
        <ele>367</ele>
        <time>2017-07-11T10:17:18Z</time>
      </trkpt>
      <trkpt lat="45.90638" lon="4.67799">
        <ele>367</ele>
        <time>2017-07-11T10:17:19Z</time>
      </trkpt>
      <trkpt lat="45.90644" lon="4.67799">
        <ele>368</ele>
        <time>2017-07-11T10:17:20Z</time>
      </trkpt>
      <trkpt lat="45.90649" lon="4.67799">
        <ele>368</ele>
        <time>2017-07-11T10:17:21Z</time>
      </trkpt>
      <trkpt lat="45.90656" lon="4.67799">
        <ele>368</ele>
        <time>2017-07-11T10:17:22Z</time>
      </trkpt>
      <trkpt lat="45.90662" lon="4.67799">
        <ele>368</ele>
        <time>2017-07-11T10:17:23Z</time>
      </trkpt>
      <trkpt lat="45.90667" lon="4.678">
        <ele>368</ele>
        <time>2017-07-11T10:17:24Z</time>
      </trkpt>
      <trkpt lat="45.90672" lon="4.678">
        <ele>368</ele>
        <time>2017-07-11T10:17:25Z</time>
      </trkpt>
      <trkpt lat="45.90677" lon="4.67801">
        <ele>368</ele>
        <time>2017-07-11T10:17:26Z</time>
      </trkpt>
      <trkpt lat="45.90682" lon="4.67803">
        <ele>368</ele>
        <time>2017-07-11T10:17:27Z</time>
      </trkpt>
      <trkpt lat="45.90687" lon="4.67804">
        <ele>368</ele>
        <time>2017-07-11T10:17:28Z</time>
      </trkpt>
      <trkpt lat="45.90692" lon="4.67805">
        <ele>368</ele>
        <time>2017-07-11T10:17:29Z</time>
      </trkpt>
      <trkpt lat="45.90697" lon="4.67808">
        <ele>368</ele>
        <time>2017-07-11T10:17:30Z</time>
      </trkpt>
      <trkpt lat="45.90702" lon="4.6781">
        <ele>368</ele>
        <time>2017-07-11T10:17:31Z</time>
      </trkpt>
      <trkpt lat="45.90707" lon="4.67811">
        <ele>368</ele>
        <time>2017-07-11T10:17:32Z</time>
      </trkpt>
      <trkpt lat="45.90711" lon="4.67813">
        <ele>369</ele>
        <time>2017-07-11T10:17:33Z</time>
      </trkpt>
      <trkpt lat="45.90716" lon="4.67815">
        <ele>369</ele>
        <time>2017-07-11T10:17:34Z</time>
      </trkpt>
      <trkpt lat="45.90721" lon="4.67817">
        <ele>369</ele>
        <time>2017-07-11T10:17:35Z</time>
      </trkpt>
      <trkpt lat="45.90727" lon="4.67819">
        <ele>369</ele>
        <time>2017-07-11T10:17:36Z</time>
      </trkpt>
      <trkpt lat="45.90732" lon="4.67821">
        <ele>369</ele>
        <time>2017-07-11T10:17:37Z</time>
      </trkpt>
      <trkpt lat="45.90737" lon="4.67823">
        <ele>369</ele>
        <time>2017-07-11T10:17:38Z</time>
      </trkpt>
      <trkpt lat="45.90741" lon="4.67825">
        <ele>370</ele>
        <time>2017-07-11T10:17:39Z</time>
      </trkpt>
      <trkpt lat="45.90745" lon="4.67827">
        <ele>370</ele>
        <time>2017-07-11T10:17:40Z</time>
      </trkpt>
      <trkpt lat="45.9075" lon="4.67829">
        <ele>370</ele>
        <time>2017-07-11T10:17:41Z</time>
      </trkpt>
      <trkpt lat="45.90754" lon="4.6783">
        <ele>370</ele>
        <time>2017-07-11T10:17:42Z</time>
      </trkpt>
      <trkpt lat="45.90759" lon="4.67832">
        <ele>370</ele>
        <time>2017-07-11T10:17:43Z</time>
      </trkpt>
      <trkpt lat="45.90763" lon="4.67834">
        <ele>371</ele>
        <time>2017-07-11T10:17:44Z</time>
      </trkpt>
      <trkpt lat="45.90772" lon="4.67837">
        <ele>371</ele>
        <time>2017-07-11T10:17:46Z</time>
      </trkpt>
      <trkpt lat="45.90776" lon="4.67839">
        <ele>371</ele>
        <time>2017-07-11T10:17:47Z</time>
      </trkpt>
      <trkpt lat="45.90781" lon="4.67841">
        <ele>371</ele>
        <time>2017-07-11T10:17:48Z</time>
      </trkpt>
      <trkpt lat="45.90786" lon="4.67842">
        <ele>371</ele>
        <time>2017-07-11T10:17:49Z</time>
      </trkpt>
      <trkpt lat="45.90791" lon="4.67844">
        <ele>371</ele>
        <time>2017-07-11T10:17:50Z</time>
      </trkpt>
      <trkpt lat="45.90796" lon="4.67846">
        <ele>371</ele>
        <time>2017-07-11T10:17:51Z</time>
      </trkpt>
      <trkpt lat="45.908" lon="4.67847">
        <ele>371</ele>
        <time>2017-07-11T10:17:52Z</time>
      </trkpt>
      <trkpt lat="45.90805" lon="4.67848">
        <ele>371</ele>
        <time>2017-07-11T10:17:53Z</time>
      </trkpt>
      <trkpt lat="45.9081" lon="4.67849">
        <ele>371</ele>
        <time>2017-07-11T10:17:54Z</time>
      </trkpt>
      <trkpt lat="45.90815" lon="4.67851">
        <ele>371</ele>
        <time>2017-07-11T10:17:55Z</time>
      </trkpt>
      <trkpt lat="45.90819" lon="4.67853">
        <ele>371</ele>
        <time>2017-07-11T10:17:56Z</time>
      </trkpt>
      <trkpt lat="45.90824" lon="4.67854">
        <ele>371</ele>
        <time>2017-07-11T10:17:57Z</time>
      </trkpt>
      <trkpt lat="45.90828" lon="4.67856">
        <ele>371</ele>
        <time>2017-07-11T10:17:58Z</time>
      </trkpt>
      <trkpt lat="45.90832" lon="4.67857">
        <ele>371</ele>
        <time>2017-07-11T10:17:59Z</time>
      </trkpt>
      <trkpt lat="45.90837" lon="4.67859">
        <ele>370</ele>
        <time>2017-07-11T10:18:00Z</time>
      </trkpt>
      <trkpt lat="45.90842" lon="4.6786">
        <ele>370</ele>
        <time>2017-07-11T10:18:01Z</time>
      </trkpt>
      <trkpt lat="45.90847" lon="4.67862">
        <ele>370</ele>
        <time>2017-07-11T10:18:02Z</time>
      </trkpt>
      <trkpt lat="45.90852" lon="4.67864">
        <ele>370</ele>
        <time>2017-07-11T10:18:03Z</time>
      </trkpt>
      <trkpt lat="45.90858" lon="4.67866">
        <ele>370</ele>
        <time>2017-07-11T10:18:04Z</time>
      </trkpt>
      <trkpt lat="45.90863" lon="4.67868">
        <ele>370</ele>
        <time>2017-07-11T10:18:05Z</time>
      </trkpt>
      <trkpt lat="45.90869" lon="4.6787">
        <ele>370</ele>
        <time>2017-07-11T10:18:06Z</time>
      </trkpt>
      <trkpt lat="45.90874" lon="4.67872">
        <ele>370</ele>
        <time>2017-07-11T10:18:07Z</time>
      </trkpt>
      <trkpt lat="45.90879" lon="4.67873">
        <ele>370</ele>
        <time>2017-07-11T10:18:08Z</time>
      </trkpt>
      <trkpt lat="45.90884" lon="4.67875">
        <ele>370</ele>
        <time>2017-07-11T10:18:09Z</time>
      </trkpt>
      <trkpt lat="45.90889" lon="4.67877">
        <ele>370</ele>
        <time>2017-07-11T10:18:10Z</time>
      </trkpt>
      <trkpt lat="45.90894" lon="4.67879">
        <ele>370</ele>
        <time>2017-07-11T10:18:11Z</time>
      </trkpt>
      <trkpt lat="45.90899" lon="4.6788">
        <ele>370</ele>
        <time>2017-07-11T10:18:12Z</time>
      </trkpt>
      <trkpt lat="45.90904" lon="4.67882">
        <ele>370</ele>
        <time>2017-07-11T10:18:13Z</time>
      </trkpt>
      <trkpt lat="45.90908" lon="4.67884">
        <ele>370</ele>
        <time>2017-07-11T10:18:14Z</time>
      </trkpt>
      <trkpt lat="45.90913" lon="4.67885">
        <ele>370</ele>
        <time>2017-07-11T10:18:15Z</time>
      </trkpt>
      <trkpt lat="45.90918" lon="4.67887">
        <ele>370</ele>
        <time>2017-07-11T10:18:16Z</time>
      </trkpt>
      <trkpt lat="45.90923" lon="4.67889">
        <ele>370</ele>
        <time>2017-07-11T10:18:17Z</time>
      </trkpt>
      <trkpt lat="45.90928" lon="4.67891">
        <ele>370</ele>
        <time>2017-07-11T10:18:18Z</time>
      </trkpt>
      <trkpt lat="45.90933" lon="4.67893">
        <ele>370</ele>
        <time>2017-07-11T10:18:19Z</time>
      </trkpt>
      <trkpt lat="45.90938" lon="4.67895">
        <ele>370</ele>
        <time>2017-07-11T10:18:20Z</time>
      </trkpt>
      <trkpt lat="45.90943" lon="4.67897">
        <ele>370</ele>
        <time>2017-07-11T10:18:21Z</time>
      </trkpt>
      <trkpt lat="45.90948" lon="4.67899">
        <ele>370</ele>
        <time>2017-07-11T10:18:22Z</time>
      </trkpt>
      <trkpt lat="45.90952" lon="4.67901">
        <ele>370</ele>
        <time>2017-07-11T10:18:23Z</time>
      </trkpt>
      <trkpt lat="45.90961" lon="4.67904">
        <ele>370</ele>
        <time>2017-07-11T10:18:25Z</time>
      </trkpt>
      <trkpt lat="45.90965" lon="4.67906">
        <ele>370</ele>
        <time>2017-07-11T10:18:26Z</time>
      </trkpt>
      <trkpt lat="45.90973" lon="4.6791">
        <ele>370</ele>
        <time>2017-07-11T10:18:28Z</time>
      </trkpt>
      <trkpt lat="45.90977" lon="4.67912">
        <ele>370</ele>
        <time>2017-07-11T10:18:29Z</time>
      </trkpt>
      <trkpt lat="45.90984" lon="4.67915">
        <ele>371</ele>
        <time>2017-07-11T10:18:31Z</time>
      </trkpt>
      <trkpt lat="45.90987" lon="4.67917">
        <ele>371</ele>
        <time>2017-07-11T10:18:32Z</time>
      </trkpt>
      <trkpt lat="45.90994" lon="4.67921">
        <ele>372</ele>
        <time>2017-07-11T10:18:34Z</time>
      </trkpt>
      <trkpt lat="45.90998" lon="4.67923">
        <ele>372</ele>
        <time>2017-07-11T10:18:35Z</time>
      </trkpt>
      <trkpt lat="45.91006" lon="4.67926">
        <ele>373</ele>
        <time>2017-07-11T10:18:37Z</time>
      </trkpt>
      <trkpt lat="45.91009" lon="4.67929">
        <ele>373</ele>
        <time>2017-07-11T10:18:38Z</time>
      </trkpt>
      <trkpt lat="45.91016" lon="4.67933">
        <ele>373</ele>
        <time>2017-07-11T10:18:40Z</time>
      </trkpt>
      <trkpt lat="45.91019" lon="4.67935">
        <ele>374</ele>
        <time>2017-07-11T10:18:41Z</time>
      </trkpt>
      <trkpt lat="45.91026" lon="4.67939">
        <ele>374</ele>
        <time>2017-07-11T10:18:43Z</time>
      </trkpt>
      <trkpt lat="45.91029" lon="4.67941">
        <ele>374</ele>
        <time>2017-07-11T10:18:44Z</time>
      </trkpt>
      <trkpt lat="45.91037" lon="4.67945">
        <ele>374</ele>
        <time>2017-07-11T10:18:46Z</time>
      </trkpt>
      <trkpt lat="45.9104" lon="4.67946">
        <ele>374</ele>
        <time>2017-07-11T10:18:47Z</time>
      </trkpt>
      <trkpt lat="45.91047" lon="4.67949">
        <ele>374</ele>
        <time>2017-07-11T10:18:49Z</time>
      </trkpt>
      <trkpt lat="45.91051" lon="4.67951">
        <ele>375</ele>
        <time>2017-07-11T10:18:50Z</time>
      </trkpt>
      <trkpt lat="45.91058" lon="4.67953">
        <ele>375</ele>
        <time>2017-07-11T10:18:52Z</time>
      </trkpt>
      <trkpt lat="45.91061" lon="4.67954">
        <ele>375</ele>
        <time>2017-07-11T10:18:53Z</time>
      </trkpt>
      <trkpt lat="45.91068" lon="4.67956">
        <ele>375</ele>
        <time>2017-07-11T10:18:55Z</time>
      </trkpt>
      <trkpt lat="45.91072" lon="4.67957">
        <ele>375</ele>
        <time>2017-07-11T10:18:56Z</time>
      </trkpt>
      <trkpt lat="45.9108" lon="4.67959">
        <ele>375</ele>
        <time>2017-07-11T10:18:58Z</time>
      </trkpt>
      <trkpt lat="45.91083" lon="4.6796">
        <ele>375</ele>
        <time>2017-07-11T10:18:59Z</time>
      </trkpt>
      <trkpt lat="45.9109" lon="4.67963">
        <ele>377</ele>
        <time>2017-07-11T10:19:01Z</time>
      </trkpt>
      <trkpt lat="45.91094" lon="4.67964">
        <ele>377</ele>
        <time>2017-07-11T10:19:02Z</time>
      </trkpt>
      <trkpt lat="45.91101" lon="4.67965">
        <ele>377</ele>
        <time>2017-07-11T10:19:04Z</time>
      </trkpt>
      <trkpt lat="45.91105" lon="4.67966">
        <ele>377</ele>
        <time>2017-07-11T10:19:05Z</time>
      </trkpt>
      <trkpt lat="45.91112" lon="4.67967">
        <ele>377</ele>
        <time>2017-07-11T10:19:07Z</time>
      </trkpt>
      <trkpt lat="45.91115" lon="4.67968">
        <ele>377</ele>
        <time>2017-07-11T10:19:08Z</time>
      </trkpt>
      <trkpt lat="45.91122" lon="4.6797">
        <ele>377</ele>
        <time>2017-07-11T10:19:10Z</time>
      </trkpt>
      <trkpt lat="45.91125" lon="4.67972">
        <ele>377</ele>
        <time>2017-07-11T10:19:11Z</time>
      </trkpt>
      <trkpt lat="45.91132" lon="4.67974">
        <ele>377</ele>
        <time>2017-07-11T10:19:13Z</time>
      </trkpt>
      <trkpt lat="45.91136" lon="4.67975">
        <ele>377</ele>
        <time>2017-07-11T10:19:14Z</time>
      </trkpt>
      <trkpt lat="45.91142" lon="4.67978">
        <ele>378</ele>
        <time>2017-07-11T10:19:16Z</time>
      </trkpt>
      <trkpt lat="45.91145" lon="4.6798">
        <ele>378</ele>
        <time>2017-07-11T10:19:17Z</time>
      </trkpt>
      <trkpt lat="45.91152" lon="4.67983">
        <ele>378</ele>
        <time>2017-07-11T10:19:19Z</time>
      </trkpt>
      <trkpt lat="45.91155" lon="4.67985">
        <ele>379</ele>
        <time>2017-07-11T10:19:20Z</time>
      </trkpt>
      <trkpt lat="45.91162" lon="4.67988">
        <ele>379</ele>
        <time>2017-07-11T10:19:22Z</time>
      </trkpt>
      <trkpt lat="45.91165" lon="4.6799">
        <ele>380</ele>
        <time>2017-07-11T10:19:23Z</time>
      </trkpt>
      <trkpt lat="45.91171" lon="4.67994">
        <ele>381</ele>
        <time>2017-07-11T10:19:25Z</time>
      </trkpt>
      <trkpt lat="45.91174" lon="4.67996">
        <ele>380</ele>
        <time>2017-07-11T10:19:26Z</time>
      </trkpt>
      <trkpt lat="45.9118" lon="4.67999">
        <ele>380</ele>
        <time>2017-07-11T10:19:28Z</time>
      </trkpt>
      <trkpt lat="45.91184" lon="4.68001">
        <ele>382</ele>
        <time>2017-07-11T10:19:29Z</time>
      </trkpt>
      <trkpt lat="45.91189" lon="4.68005">
        <ele>382</ele>
        <time>2017-07-11T10:19:31Z</time>
      </trkpt>
      <trkpt lat="45.91192" lon="4.68007">
        <ele>383</ele>
        <time>2017-07-11T10:19:32Z</time>
      </trkpt>
      <trkpt lat="45.91198" lon="4.6801">
        <ele>383</ele>
        <time>2017-07-11T10:19:34Z</time>
      </trkpt>
      <trkpt lat="45.91201" lon="4.68011">
        <ele>383</ele>
        <time>2017-07-11T10:19:35Z</time>
      </trkpt>
      <trkpt lat="45.91209" lon="4.68016">
        <ele>383</ele>
        <time>2017-07-11T10:19:38Z</time>
      </trkpt>
      <trkpt lat="45.91213" lon="4.68017">
        <ele>383</ele>
        <time>2017-07-11T10:19:39Z</time>
      </trkpt>
      <trkpt lat="45.91219" lon="4.68019">
        <ele>384</ele>
        <time>2017-07-11T10:19:41Z</time>
      </trkpt>
      <trkpt lat="45.91222" lon="4.6802">
        <ele>384</ele>
        <time>2017-07-11T10:19:42Z</time>
      </trkpt>
      <trkpt lat="45.91228" lon="4.68023">
        <ele>384</ele>
        <time>2017-07-11T10:19:44Z</time>
      </trkpt>
      <trkpt lat="45.91231" lon="4.68025">
        <ele>384</ele>
        <time>2017-07-11T10:19:45Z</time>
      </trkpt>
      <trkpt lat="45.91238" lon="4.68028">
        <ele>384</ele>
        <time>2017-07-11T10:19:47Z</time>
      </trkpt>
      <trkpt lat="45.91241" lon="4.68029">
        <ele>384</ele>
        <time>2017-07-11T10:19:48Z</time>
      </trkpt>
      <trkpt lat="45.91246" lon="4.68032">
        <ele>384</ele>
        <time>2017-07-11T10:19:50Z</time>
      </trkpt>
      <trkpt lat="45.9125" lon="4.68033">
        <ele>384</ele>
        <time>2017-07-11T10:19:51Z</time>
      </trkpt>
      <trkpt lat="45.91256" lon="4.68036">
        <ele>385</ele>
        <time>2017-07-11T10:19:53Z</time>
      </trkpt>
      <trkpt lat="45.9126" lon="4.68037">
        <ele>385</ele>
        <time>2017-07-11T10:19:54Z</time>
      </trkpt>
      <trkpt lat="45.91265" lon="4.68041">
        <ele>385</ele>
        <time>2017-07-11T10:19:56Z</time>
      </trkpt>
      <trkpt lat="45.91268" lon="4.68043">
        <ele>385</ele>
        <time>2017-07-11T10:19:57Z</time>
      </trkpt>
      <trkpt lat="45.91275" lon="4.68046">
        <ele>385</ele>
        <time>2017-07-11T10:19:59Z</time>
      </trkpt>
      <trkpt lat="45.91278" lon="4.68047">
        <ele>385</ele>
        <time>2017-07-11T10:20:00Z</time>
      </trkpt>
      <trkpt lat="45.91286" lon="4.68051">
        <ele>385</ele>
        <time>2017-07-11T10:20:03Z</time>
      </trkpt>
      <trkpt lat="45.91289" lon="4.68052">
        <ele>385</ele>
        <time>2017-07-11T10:20:04Z</time>
      </trkpt>
      <trkpt lat="45.91297" lon="4.68055">
        <ele>385</ele>
        <time>2017-07-11T10:20:06Z</time>
      </trkpt>
      <trkpt lat="45.913" lon="4.68056">
        <ele>385</ele>
        <time>2017-07-11T10:20:07Z</time>
      </trkpt>
      <trkpt lat="45.91306" lon="4.68059">
        <ele>385</ele>
        <time>2017-07-11T10:20:09Z</time>
      </trkpt>
      <trkpt lat="45.91309" lon="4.68061">
        <ele>385</ele>
        <time>2017-07-11T10:20:10Z</time>
      </trkpt>
      <trkpt lat="45.91314" lon="4.68064">
        <ele>385</ele>
        <time>2017-07-11T10:20:12Z</time>
      </trkpt>
      <trkpt lat="45.91318" lon="4.68066">
        <ele>385</ele>
        <time>2017-07-11T10:20:13Z</time>
      </trkpt>
      <trkpt lat="45.91324" lon="4.68069">
        <ele>385</ele>
        <time>2017-07-11T10:20:15Z</time>
      </trkpt>
      <trkpt lat="45.91328" lon="4.6807">
        <ele>385</ele>
        <time>2017-07-11T10:20:16Z</time>
      </trkpt>
      <trkpt lat="45.91334" lon="4.68074">
        <ele>385</ele>
        <time>2017-07-11T10:20:18Z</time>
      </trkpt>
      <trkpt lat="45.91337" lon="4.68076">
        <ele>385</ele>
        <time>2017-07-11T10:20:19Z</time>
      </trkpt>
      <trkpt lat="45.91344" lon="4.68079">
        <ele>385</ele>
        <time>2017-07-11T10:20:21Z</time>
      </trkpt>
      <trkpt lat="45.91348" lon="4.6808">
        <ele>385</ele>
        <time>2017-07-11T10:20:22Z</time>
      </trkpt>
      <trkpt lat="45.91355" lon="4.68082">
        <ele>385</ele>
        <time>2017-07-11T10:20:24Z</time>
      </trkpt>
      <trkpt lat="45.91359" lon="4.68084">
        <ele>386</ele>
        <time>2017-07-11T10:20:25Z</time>
      </trkpt>
      <trkpt lat="45.91368" lon="4.68086">
        <ele>386</ele>
        <time>2017-07-11T10:20:27Z</time>
      </trkpt>
      <trkpt lat="45.91372" lon="4.68087">
        <ele>386</ele>
        <time>2017-07-11T10:20:28Z</time>
      </trkpt>
      <trkpt lat="45.91379" lon="4.68088">
        <ele>386</ele>
        <time>2017-07-11T10:20:30Z</time>
      </trkpt>
      <trkpt lat="45.91383" lon="4.68089">
        <ele>386</ele>
        <time>2017-07-11T10:20:31Z</time>
      </trkpt>
      <trkpt lat="45.91391" lon="4.68089">
        <ele>386</ele>
        <time>2017-07-11T10:20:33Z</time>
      </trkpt>
      <trkpt lat="45.91395" lon="4.68089">
        <ele>386</ele>
        <time>2017-07-11T10:20:34Z</time>
      </trkpt>
      <trkpt lat="45.91402" lon="4.68089">
        <ele>386</ele>
        <time>2017-07-11T10:20:36Z</time>
      </trkpt>
      <trkpt lat="45.91406" lon="4.68088">
        <ele>386</ele>
        <time>2017-07-11T10:20:37Z</time>
      </trkpt>
      <trkpt lat="45.91411" lon="4.68087">
        <ele>386</ele>
        <time>2017-07-11T10:20:38Z</time>
      </trkpt>
      <trkpt lat="45.91415" lon="4.68086">
        <ele>386</ele>
        <time>2017-07-11T10:20:39Z</time>
      </trkpt>
      <trkpt lat="45.9142" lon="4.68086">
        <ele>386</ele>
        <time>2017-07-11T10:20:40Z</time>
      </trkpt>
      <trkpt lat="45.91425" lon="4.68085">
        <ele>385</ele>
        <time>2017-07-11T10:20:41Z</time>
      </trkpt>
      <trkpt lat="45.9143" lon="4.68086">
        <ele>385</ele>
        <time>2017-07-11T10:20:42Z</time>
      </trkpt>
      <trkpt lat="45.91435" lon="4.68085">
        <ele>385</ele>
        <time>2017-07-11T10:20:43Z</time>
      </trkpt>
      <trkpt lat="45.91441" lon="4.68086">
        <ele>385</ele>
        <time>2017-07-11T10:20:44Z</time>
      </trkpt>
      <trkpt lat="45.91446" lon="4.68087">
        <ele>384</ele>
        <time>2017-07-11T10:20:45Z</time>
      </trkpt>
      <trkpt lat="45.91451" lon="4.68089">
        <ele>384</ele>
        <time>2017-07-11T10:20:46Z</time>
      </trkpt>
      <trkpt lat="45.91456" lon="4.6809">
        <ele>384</ele>
        <time>2017-07-11T10:20:47Z</time>
      </trkpt>
      <trkpt lat="45.91462" lon="4.68093">
        <ele>384</ele>
        <time>2017-07-11T10:20:48Z</time>
      </trkpt>
      <trkpt lat="45.91467" lon="4.68095">
        <ele>384</ele>
        <time>2017-07-11T10:20:49Z</time>
      </trkpt>
      <trkpt lat="45.91472" lon="4.681">
        <ele>384</ele>
        <time>2017-07-11T10:20:50Z</time>
      </trkpt>
      <trkpt lat="45.91478" lon="4.68103">
        <ele>383</ele>
        <time>2017-07-11T10:20:51Z</time>
      </trkpt>
      <trkpt lat="45.91484" lon="4.68107">
        <ele>383</ele>
        <time>2017-07-11T10:20:52Z</time>
      </trkpt>
      <trkpt lat="45.91489" lon="4.68112">
        <ele>383</ele>
        <time>2017-07-11T10:20:53Z</time>
      </trkpt>
      <trkpt lat="45.91495" lon="4.68116">
        <ele>383</ele>
        <time>2017-07-11T10:20:54Z</time>
      </trkpt>
      <trkpt lat="45.91502" lon="4.68119">
        <ele>380</ele>
        <time>2017-07-11T10:20:55Z</time>
      </trkpt>
      <trkpt lat="45.91509" lon="4.68123">
        <ele>380</ele>
        <time>2017-07-11T10:20:56Z</time>
      </trkpt>
      <trkpt lat="45.91516" lon="4.68126">
        <ele>380</ele>
        <time>2017-07-11T10:20:57Z</time>
      </trkpt>
      <trkpt lat="45.91524" lon="4.68129">
        <ele>379</ele>
        <time>2017-07-11T10:20:58Z</time>
      </trkpt>
      <trkpt lat="45.91531" lon="4.68133">
        <ele>379</ele>
        <time>2017-07-11T10:20:59Z</time>
      </trkpt>
      <trkpt lat="45.91538" lon="4.68138">
        <ele>379</ele>
        <time>2017-07-11T10:21:00Z</time>
      </trkpt>
      <trkpt lat="45.91546" lon="4.68142">
        <ele>379</ele>
        <time>2017-07-11T10:21:01Z</time>
      </trkpt>
      <trkpt lat="45.91553" lon="4.68147">
        <ele>379</ele>
        <time>2017-07-11T10:21:02Z</time>
      </trkpt>
      <trkpt lat="45.91562" lon="4.68151">
        <ele>378</ele>
        <time>2017-07-11T10:21:03Z</time>
      </trkpt>
      <trkpt lat="45.9157" lon="4.68156">
        <ele>378</ele>
        <time>2017-07-11T10:21:04Z</time>
      </trkpt>
      <trkpt lat="45.91578" lon="4.6816">
        <ele>378</ele>
        <time>2017-07-11T10:21:05Z</time>
      </trkpt>
      <trkpt lat="45.91587" lon="4.68165">
        <ele>377</ele>
        <time>2017-07-11T10:21:06Z</time>
      </trkpt>
      <trkpt lat="45.91595" lon="4.68171">
        <ele>377</ele>
        <time>2017-07-11T10:21:07Z</time>
      </trkpt>
      <trkpt lat="45.91603" lon="4.68177">
        <ele>376</ele>
        <time>2017-07-11T10:21:08Z</time>
      </trkpt>
      <trkpt lat="45.91612" lon="4.68184">
        <ele>375</ele>
        <time>2017-07-11T10:21:09Z</time>
      </trkpt>
      <trkpt lat="45.9162" lon="4.68191">
        <ele>375</ele>
        <time>2017-07-11T10:21:10Z</time>
      </trkpt>
      <trkpt lat="45.91629" lon="4.68198">
        <ele>375</ele>
        <time>2017-07-11T10:21:11Z</time>
      </trkpt>
      <trkpt lat="45.91637" lon="4.68205">
        <ele>374</ele>
        <time>2017-07-11T10:21:12Z</time>
      </trkpt>
      <trkpt lat="45.91646" lon="4.6821">
        <ele>374</ele>
        <time>2017-07-11T10:21:13Z</time>
      </trkpt>
      <trkpt lat="45.91655" lon="4.68216">
        <ele>374</ele>
        <time>2017-07-11T10:21:14Z</time>
      </trkpt>
      <trkpt lat="45.91664" lon="4.68222">
        <ele>374</ele>
        <time>2017-07-11T10:21:15Z</time>
      </trkpt>
      <trkpt lat="45.91673" lon="4.68228">
        <ele>371</ele>
        <time>2017-07-11T10:21:16Z</time>
      </trkpt>
      <trkpt lat="45.91682" lon="4.68234">
        <ele>371</ele>
        <time>2017-07-11T10:21:17Z</time>
      </trkpt>
      <trkpt lat="45.91691" lon="4.68239">
        <ele>371</ele>
        <time>2017-07-11T10:21:18Z</time>
      </trkpt>
      <trkpt lat="45.917" lon="4.68245">
        <ele>370</ele>
        <time>2017-07-11T10:21:19Z</time>
      </trkpt>
      <trkpt lat="45.91709" lon="4.6825">
        <ele>373</ele>
        <time>2017-07-11T10:21:20Z</time>
      </trkpt>
      <trkpt lat="45.91718" lon="4.68254">
        <ele>372</ele>
        <time>2017-07-11T10:21:21Z</time>
      </trkpt>
      <trkpt lat="45.91727" lon="4.68258">
        <ele>372</ele>
        <time>2017-07-11T10:21:22Z</time>
      </trkpt>
      <trkpt lat="45.91736" lon="4.68261">
        <ele>372</ele>
        <time>2017-07-11T10:21:23Z</time>
      </trkpt>
      <trkpt lat="45.91745" lon="4.68263">
        <ele>371</ele>
        <time>2017-07-11T10:21:24Z</time>
      </trkpt>
      <trkpt lat="45.91753" lon="4.68265">
        <ele>371</ele>
        <time>2017-07-11T10:21:25Z</time>
      </trkpt>
      <trkpt lat="45.91761" lon="4.68267">
        <ele>372</ele>
        <time>2017-07-11T10:21:26Z</time>
      </trkpt>
      <trkpt lat="45.91768" lon="4.68269">
        <ele>372</ele>
        <time>2017-07-11T10:21:27Z</time>
      </trkpt>
      <trkpt lat="45.91775" lon="4.6827">
        <ele>372</ele>
        <time>2017-07-11T10:21:28Z</time>
      </trkpt>
      <trkpt lat="45.91782" lon="4.68272">
        <ele>372</ele>
        <time>2017-07-11T10:21:29Z</time>
      </trkpt>
      <trkpt lat="45.91788" lon="4.68274">
        <ele>372</ele>
        <time>2017-07-11T10:21:30Z</time>
      </trkpt>
      <trkpt lat="45.91793" lon="4.68275">
        <ele>372</ele>
        <time>2017-07-11T10:21:31Z</time>
      </trkpt>
      <trkpt lat="45.91798" lon="4.68276">
        <ele>372</ele>
        <time>2017-07-11T10:21:32Z</time>
      </trkpt>
      <trkpt lat="45.91804" lon="4.68276">
        <ele>372</ele>
        <time>2017-07-11T10:21:33Z</time>
      </trkpt>
      <trkpt lat="45.91812" lon="4.6828">
        <ele>373</ele>
        <time>2017-07-11T10:21:35Z</time>
      </trkpt>
      <trkpt lat="45.91816" lon="4.68282">
        <ele>373</ele>
        <time>2017-07-11T10:21:36Z</time>
      </trkpt>
      <trkpt lat="45.91823" lon="4.68283">
        <ele>373</ele>
        <time>2017-07-11T10:21:38Z</time>
      </trkpt>
      <trkpt lat="45.91827" lon="4.68283">
        <ele>373</ele>
        <time>2017-07-11T10:21:39Z</time>
      </trkpt>
      <trkpt lat="45.91836" lon="4.68284">
        <ele>374</ele>
        <time>2017-07-11T10:21:41Z</time>
      </trkpt>
      <trkpt lat="45.9184" lon="4.68284">
        <ele>374</ele>
        <time>2017-07-11T10:21:42Z</time>
      </trkpt>
      <trkpt lat="45.91846" lon="4.68285">
        <ele>375</ele>
        <time>2017-07-11T10:21:43Z</time>
      </trkpt>
      <trkpt lat="45.91851" lon="4.68286">
        <ele>375</ele>
        <time>2017-07-11T10:21:44Z</time>
      </trkpt>
      <trkpt lat="45.91856" lon="4.68287">
        <ele>375</ele>
        <time>2017-07-11T10:21:45Z</time>
      </trkpt>
      <trkpt lat="45.91861" lon="4.68288">
        <ele>375</ele>
        <time>2017-07-11T10:21:46Z</time>
      </trkpt>
      <trkpt lat="45.91866" lon="4.68289">
        <ele>375</ele>
        <time>2017-07-11T10:21:47Z</time>
      </trkpt>
      <trkpt lat="45.9187" lon="4.68289">
        <ele>376</ele>
        <time>2017-07-11T10:21:48Z</time>
      </trkpt>
      <trkpt lat="45.91875" lon="4.6829">
        <ele>376</ele>
        <time>2017-07-11T10:21:49Z</time>
      </trkpt>
      <trkpt lat="45.91879" lon="4.6829">
        <ele>376</ele>
        <time>2017-07-11T10:21:50Z</time>
      </trkpt>
      <trkpt lat="45.91888" lon="4.68291">
        <ele>376</ele>
        <time>2017-07-11T10:21:52Z</time>
      </trkpt>
      <trkpt lat="45.91893" lon="4.68292">
        <ele>376</ele>
        <time>2017-07-11T10:21:53Z</time>
      </trkpt>
      <trkpt lat="45.91897" lon="4.68292">
        <ele>376</ele>
        <time>2017-07-11T10:21:54Z</time>
      </trkpt>
      <trkpt lat="45.91902" lon="4.68292">
        <ele>376</ele>
        <time>2017-07-11T10:21:55Z</time>
      </trkpt>
      <trkpt lat="45.91911" lon="4.68293">
        <ele>377</ele>
        <time>2017-07-11T10:21:57Z</time>
      </trkpt>
      <trkpt lat="45.91915" lon="4.68294">
        <ele>377</ele>
        <time>2017-07-11T10:21:58Z</time>
      </trkpt>
      <trkpt lat="45.91923" lon="4.68296">
        <ele>379</ele>
        <time>2017-07-11T10:22:00Z</time>
      </trkpt>
      <trkpt lat="45.91928" lon="4.68297">
        <ele>379</ele>
        <time>2017-07-11T10:22:01Z</time>
      </trkpt>
      <trkpt lat="45.91936" lon="4.68299">
        <ele>379</ele>
        <time>2017-07-11T10:22:03Z</time>
      </trkpt>
      <trkpt lat="45.9194" lon="4.683">
        <ele>379</ele>
        <time>2017-07-11T10:22:04Z</time>
      </trkpt>
      <trkpt lat="45.91949" lon="4.68302">
        <ele>379</ele>
        <time>2017-07-11T10:22:06Z</time>
      </trkpt>
      <trkpt lat="45.91953" lon="4.68303">
        <ele>379</ele>
        <time>2017-07-11T10:22:07Z</time>
      </trkpt>
      <trkpt lat="45.91958" lon="4.68305">
        <ele>379</ele>
        <time>2017-07-11T10:22:08Z</time>
      </trkpt>
      <trkpt lat="45.91963" lon="4.68306">
        <ele>380</ele>
        <time>2017-07-11T10:22:09Z</time>
      </trkpt>
      <trkpt lat="45.91972" lon="4.68308">
        <ele>380</ele>
        <time>2017-07-11T10:22:11Z</time>
      </trkpt>
      <trkpt lat="45.91976" lon="4.68309">
        <ele>380</ele>
        <time>2017-07-11T10:22:12Z</time>
      </trkpt>
      <trkpt lat="45.9198" lon="4.68311">
        <ele>380</ele>
        <time>2017-07-11T10:22:13Z</time>
      </trkpt>
      <trkpt lat="45.91985" lon="4.68312">
        <ele>380</ele>
        <time>2017-07-11T10:22:14Z</time>
      </trkpt>
      <trkpt lat="45.91993" lon="4.68314">
        <ele>381</ele>
        <time>2017-07-11T10:22:16Z</time>
      </trkpt>
      <trkpt lat="45.91996" lon="4.68316">
        <ele>381</ele>
        <time>2017-07-11T10:22:17Z</time>
      </trkpt>
      <trkpt lat="45.92003" lon="4.68318">
        <ele>381</ele>
        <time>2017-07-11T10:22:19Z</time>
      </trkpt>
      <trkpt lat="45.92006" lon="4.68318">
        <ele>381</ele>
        <time>2017-07-11T10:22:20Z</time>
      </trkpt>
      <trkpt lat="45.92013" lon="4.68319">
        <ele>381</ele>
        <time>2017-07-11T10:22:22Z</time>
      </trkpt>
      <trkpt lat="45.92017" lon="4.68318">
        <ele>380</ele>
        <time>2017-07-11T10:22:23Z</time>
      </trkpt>
      <trkpt lat="45.92025" lon="4.68318">
        <ele>380</ele>
        <time>2017-07-11T10:22:25Z</time>
      </trkpt>
      <trkpt lat="45.92029" lon="4.68318">
        <ele>380</ele>
        <time>2017-07-11T10:22:26Z</time>
      </trkpt>
      <trkpt lat="45.92037" lon="4.68319">
        <ele>380</ele>
        <time>2017-07-11T10:22:28Z</time>
      </trkpt>
      <trkpt lat="45.92041" lon="4.68319">
        <ele>379</ele>
        <time>2017-07-11T10:22:29Z</time>
      </trkpt>
      <trkpt lat="45.92049" lon="4.68321">
        <ele>380</ele>
        <time>2017-07-11T10:22:31Z</time>
      </trkpt>
      <trkpt lat="45.92053" lon="4.68323">
        <ele>380</ele>
        <time>2017-07-11T10:22:32Z</time>
      </trkpt>
      <trkpt lat="45.92061" lon="4.68326">
        <ele>380</ele>
        <time>2017-07-11T10:22:34Z</time>
      </trkpt>
      <trkpt lat="45.92065" lon="4.68326">
        <ele>380</ele>
        <time>2017-07-11T10:22:35Z</time>
      </trkpt>
      <trkpt lat="45.92073" lon="4.68328">
        <ele>381</ele>
        <time>2017-07-11T10:22:37Z</time>
      </trkpt>
      <trkpt lat="45.92077" lon="4.68329">
        <ele>381</ele>
        <time>2017-07-11T10:22:38Z</time>
      </trkpt>
      <trkpt lat="45.92084" lon="4.68332">
        <ele>382</ele>
        <time>2017-07-11T10:22:40Z</time>
      </trkpt>
      <trkpt lat="45.92088" lon="4.68332">
        <ele>381</ele>
        <time>2017-07-11T10:22:41Z</time>
      </trkpt>
      <trkpt lat="45.92094" lon="4.68334">
        <ele>383</ele>
        <time>2017-07-11T10:22:43Z</time>
      </trkpt>
      <trkpt lat="45.92097" lon="4.68335">
        <ele>383</ele>
        <time>2017-07-11T10:22:44Z</time>
      </trkpt>
      <trkpt lat="45.92104" lon="4.68337">
        <ele>383</ele>
        <time>2017-07-11T10:22:46Z</time>
      </trkpt>
      <trkpt lat="45.92106" lon="4.68339">
        <ele>383</ele>
        <time>2017-07-11T10:22:47Z</time>
      </trkpt>
      <trkpt lat="45.92112" lon="4.68344">
        <ele>383</ele>
        <time>2017-07-11T10:22:49Z</time>
      </trkpt>
      <trkpt lat="45.92115" lon="4.68346">
        <ele>383</ele>
        <time>2017-07-11T10:22:50Z</time>
      </trkpt>
      <trkpt lat="45.92122" lon="4.68351">
        <ele>383</ele>
        <time>2017-07-11T10:22:52Z</time>
      </trkpt>
      <trkpt lat="45.92125" lon="4.68353">
        <ele>383</ele>
        <time>2017-07-11T10:22:53Z</time>
      </trkpt>
      <trkpt lat="45.92132" lon="4.6836">
        <ele>383</ele>
        <time>2017-07-11T10:22:55Z</time>
      </trkpt>
      <trkpt lat="45.92136" lon="4.68363">
        <ele>383</ele>
        <time>2017-07-11T10:22:56Z</time>
      </trkpt>
      <trkpt lat="45.92142" lon="4.6837">
        <ele>383</ele>
        <time>2017-07-11T10:22:58Z</time>
      </trkpt>
      <trkpt lat="45.92145" lon="4.68373">
        <ele>383</ele>
        <time>2017-07-11T10:22:59Z</time>
      </trkpt>
      <trkpt lat="45.92151" lon="4.68379">
        <ele>384</ele>
        <time>2017-07-11T10:23:01Z</time>
      </trkpt>
      <trkpt lat="45.92155" lon="4.68382">
        <ele>384</ele>
        <time>2017-07-11T10:23:02Z</time>
      </trkpt>
      <trkpt lat="45.92161" lon="4.68389">
        <ele>384</ele>
        <time>2017-07-11T10:23:04Z</time>
      </trkpt>
      <trkpt lat="45.92165" lon="4.68393">
        <ele>384</ele>
        <time>2017-07-11T10:23:05Z</time>
      </trkpt>
      <trkpt lat="45.92168" lon="4.68398">
        <ele>384</ele>
        <time>2017-07-11T10:23:06Z</time>
      </trkpt>
      <trkpt lat="45.92171" lon="4.68403">
        <ele>384</ele>
        <time>2017-07-11T10:23:07Z</time>
      </trkpt>
      <trkpt lat="45.92177" lon="4.68412">
        <ele>384</ele>
        <time>2017-07-11T10:23:09Z</time>
      </trkpt>
      <trkpt lat="45.9218" lon="4.68416">
        <ele>384</ele>
        <time>2017-07-11T10:23:10Z</time>
      </trkpt>
      <trkpt lat="45.92187" lon="4.68422">
        <ele>386</ele>
        <time>2017-07-11T10:23:12Z</time>
      </trkpt>
      <trkpt lat="45.92191" lon="4.68423">
        <ele>386</ele>
        <time>2017-07-11T10:23:13Z</time>
      </trkpt>
      <trkpt lat="45.92199" lon="4.68428">
        <ele>386</ele>
        <time>2017-07-11T10:23:15Z</time>
      </trkpt>
      <trkpt lat="45.92203" lon="4.6843">
        <ele>386</ele>
        <time>2017-07-11T10:23:16Z</time>
      </trkpt>
      <trkpt lat="45.92211" lon="4.68433">
        <ele>386</ele>
        <time>2017-07-11T10:23:18Z</time>
      </trkpt>
      <trkpt lat="45.92215" lon="4.68435">
        <ele>386</ele>
        <time>2017-07-11T10:23:19Z</time>
      </trkpt>
      <trkpt lat="45.92221" lon="4.68442">
        <ele>386</ele>
        <time>2017-07-11T10:23:21Z</time>
      </trkpt>
      <trkpt lat="45.92225" lon="4.68445">
        <ele>386</ele>
        <time>2017-07-11T10:23:22Z</time>
      </trkpt>
      <trkpt lat="45.92231" lon="4.68452">
        <ele>386</ele>
        <time>2017-07-11T10:23:24Z</time>
      </trkpt>
      <trkpt lat="45.92235" lon="4.68456">
        <ele>386</ele>
        <time>2017-07-11T10:23:25Z</time>
      </trkpt>
      <trkpt lat="45.92241" lon="4.68461">
        <ele>386</ele>
        <time>2017-07-11T10:23:27Z</time>
      </trkpt>
      <trkpt lat="45.92245" lon="4.68464">
        <ele>386</ele>
        <time>2017-07-11T10:23:28Z</time>
      </trkpt>
      <trkpt lat="45.92252" lon="4.6847">
        <ele>384</ele>
        <time>2017-07-11T10:23:30Z</time>
      </trkpt>
      <trkpt lat="45.92255" lon="4.68474">
        <ele>384</ele>
        <time>2017-07-11T10:23:31Z</time>
      </trkpt>
      <trkpt lat="45.92262" lon="4.68481">
        <ele>384</ele>
        <time>2017-07-11T10:23:33Z</time>
      </trkpt>
      <trkpt lat="45.92265" lon="4.68485">
        <ele>384</ele>
        <time>2017-07-11T10:23:34Z</time>
      </trkpt>
      <trkpt lat="45.92271" lon="4.68493">
        <ele>384</ele>
        <time>2017-07-11T10:23:36Z</time>
      </trkpt>
      <trkpt lat="45.92274" lon="4.68497">
        <ele>384</ele>
        <time>2017-07-11T10:23:37Z</time>
      </trkpt>
      <trkpt lat="45.9228" lon="4.68503">
        <ele>387</ele>
        <time>2017-07-11T10:23:39Z</time>
      </trkpt>
      <trkpt lat="45.92284" lon="4.68505">
        <ele>387</ele>
        <time>2017-07-11T10:23:40Z</time>
      </trkpt>
      <trkpt lat="45.9229" lon="4.68511">
        <ele>387</ele>
        <time>2017-07-11T10:23:42Z</time>
      </trkpt>
      <trkpt lat="45.92294" lon="4.68514">
        <ele>387</ele>
        <time>2017-07-11T10:23:43Z</time>
      </trkpt>
      <trkpt lat="45.92301" lon="4.68521">
        <ele>387</ele>
        <time>2017-07-11T10:23:45Z</time>
      </trkpt>
      <trkpt lat="45.92304" lon="4.68525">
        <ele>387</ele>
        <time>2017-07-11T10:23:46Z</time>
      </trkpt>
      <trkpt lat="45.92308" lon="4.68528">
        <ele>387</ele>
        <time>2017-07-11T10:23:47Z</time>
      </trkpt>
      <trkpt lat="45.92312" lon="4.68532">
        <ele>387</ele>
        <time>2017-07-11T10:23:48Z</time>
      </trkpt>
      <trkpt lat="45.92316" lon="4.68535">
        <ele>388</ele>
        <time>2017-07-11T10:23:49Z</time>
      </trkpt>
      <trkpt lat="45.9232" lon="4.68538">
        <ele>388</ele>
        <time>2017-07-11T10:23:50Z</time>
      </trkpt>
      <trkpt lat="45.92327" lon="4.68544">
        <ele>388</ele>
        <time>2017-07-11T10:23:52Z</time>
      </trkpt>
      <trkpt lat="45.9233" lon="4.68548">
        <ele>388</ele>
        <time>2017-07-11T10:23:53Z</time>
      </trkpt>
      <trkpt lat="45.92334" lon="4.68551">
        <ele>385</ele>
        <time>2017-07-11T10:23:54Z</time>
      </trkpt>
      <trkpt lat="45.92338" lon="4.68553">
        <ele>385</ele>
        <time>2017-07-11T10:23:55Z</time>
      </trkpt>
      <trkpt lat="45.92346" lon="4.68559">
        <ele>385</ele>
        <time>2017-07-11T10:23:57Z</time>
      </trkpt>
      <trkpt lat="45.9235" lon="4.68562">
        <ele>385</ele>
        <time>2017-07-11T10:23:58Z</time>
      </trkpt>
      <trkpt lat="45.92355" lon="4.68564">
        <ele>385</ele>
        <time>2017-07-11T10:23:59Z</time>
      </trkpt>
      <trkpt lat="45.9236" lon="4.68567">
        <ele>385</ele>
        <time>2017-07-11T10:24:00Z</time>
      </trkpt>
      <trkpt lat="45.92365" lon="4.6857">
        <ele>385</ele>
        <time>2017-07-11T10:24:01Z</time>
      </trkpt>
      <trkpt lat="45.92369" lon="4.68573">
        <ele>384</ele>
        <time>2017-07-11T10:24:02Z</time>
      </trkpt>
      <trkpt lat="45.92374" lon="4.68577">
        <ele>384</ele>
        <time>2017-07-11T10:24:03Z</time>
      </trkpt>
      <trkpt lat="45.92379" lon="4.6858">
        <ele>384</ele>
        <time>2017-07-11T10:24:04Z</time>
      </trkpt>
      <trkpt lat="45.92383" lon="4.68583">
        <ele>384</ele>
        <time>2017-07-11T10:24:05Z</time>
      </trkpt>
      <trkpt lat="45.92388" lon="4.68586">
        <ele>386</ele>
        <time>2017-07-11T10:24:06Z</time>
      </trkpt>
      <trkpt lat="45.92393" lon="4.6859">
        <ele>386</ele>
        <time>2017-07-11T10:24:07Z</time>
      </trkpt>
      <trkpt lat="45.92398" lon="4.68592">
        <ele>386</ele>
        <time>2017-07-11T10:24:08Z</time>
      </trkpt>
      <trkpt lat="45.92403" lon="4.68595">
        <ele>385</ele>
        <time>2017-07-11T10:24:09Z</time>
      </trkpt>
      <trkpt lat="45.92409" lon="4.68598">
        <ele>385</ele>
        <time>2017-07-11T10:24:10Z</time>
      </trkpt>
      <trkpt lat="45.92415" lon="4.686">
        <ele>385</ele>
        <time>2017-07-11T10:24:11Z</time>
      </trkpt>
      <trkpt lat="45.92421" lon="4.68604">
        <ele>381</ele>
        <time>2017-07-11T10:24:12Z</time>
      </trkpt>
      <trkpt lat="45.92427" lon="4.68607">
        <ele>381</ele>
        <time>2017-07-11T10:24:13Z</time>
      </trkpt>
      <trkpt lat="45.92434" lon="4.68611">
        <ele>381</ele>
        <time>2017-07-11T10:24:14Z</time>
      </trkpt>
      <trkpt lat="45.9244" lon="4.68615">
        <ele>381</ele>
        <time>2017-07-11T10:24:15Z</time>
      </trkpt>
      <trkpt lat="45.92447" lon="4.68618">
        <ele>380</ele>
        <time>2017-07-11T10:24:16Z</time>
      </trkpt>
      <trkpt lat="45.92454" lon="4.68622">
        <ele>380</ele>
        <time>2017-07-11T10:24:17Z</time>
      </trkpt>
      <trkpt lat="45.92461" lon="4.68626">
        <ele>380</ele>
        <time>2017-07-11T10:24:18Z</time>
      </trkpt>
      <trkpt lat="45.92468" lon="4.68629">
        <ele>380</ele>
        <time>2017-07-11T10:24:19Z</time>
      </trkpt>
      <trkpt lat="45.92476" lon="4.68631">
        <ele>379</ele>
        <time>2017-07-11T10:24:20Z</time>
      </trkpt>
      <trkpt lat="45.92484" lon="4.68634">
        <ele>379</ele>
        <time>2017-07-11T10:24:21Z</time>
      </trkpt>
      <trkpt lat="45.92492" lon="4.68637">
        <ele>379</ele>
        <time>2017-07-11T10:24:22Z</time>
      </trkpt>
      <trkpt lat="45.92499" lon="4.6864">
        <ele>379</ele>
        <time>2017-07-11T10:24:23Z</time>
      </trkpt>
      <trkpt lat="45.92507" lon="4.68642">
        <ele>375</ele>
        <time>2017-07-11T10:24:24Z</time>
      </trkpt>
      <trkpt lat="45.92515" lon="4.68644">
        <ele>375</ele>
        <time>2017-07-11T10:24:25Z</time>
      </trkpt>
      <trkpt lat="45.92523" lon="4.68646">
        <ele>375</ele>
        <time>2017-07-11T10:24:26Z</time>
      </trkpt>
      <trkpt lat="45.9253" lon="4.68649">
        <ele>375</ele>
        <time>2017-07-11T10:24:27Z</time>
      </trkpt>
      <trkpt lat="45.92537" lon="4.6865">
        <ele>375</ele>
        <time>2017-07-11T10:24:28Z</time>
      </trkpt>
      <trkpt lat="45.92544" lon="4.68652">
        <ele>374</ele>
        <time>2017-07-11T10:24:29Z</time>
      </trkpt>
      <trkpt lat="45.92551" lon="4.68653">
        <ele>374</ele>
        <time>2017-07-11T10:24:30Z</time>
      </trkpt>
      <trkpt lat="45.92558" lon="4.68652">
        <ele>374</ele>
        <time>2017-07-11T10:24:31Z</time>
      </trkpt>
      <trkpt lat="45.92565" lon="4.68649">
        <ele>374</ele>
        <time>2017-07-11T10:24:32Z</time>
      </trkpt>
      <trkpt lat="45.92572" lon="4.68646">
        <ele>374</ele>
        <time>2017-07-11T10:24:33Z</time>
      </trkpt>
      <trkpt lat="45.92578" lon="4.68643">
        <ele>373</ele>
        <time>2017-07-11T10:24:34Z</time>
      </trkpt>
      <trkpt lat="45.92584" lon="4.6864">
        <ele>370</ele>
        <time>2017-07-11T10:24:35Z</time>
      </trkpt>
      <trkpt lat="45.92588" lon="4.68637">
        <ele>370</ele>
        <time>2017-07-11T10:24:36Z</time>
      </trkpt>
      <trkpt lat="45.92595" lon="4.68632">
        <ele>370</ele>
        <time>2017-07-11T10:24:38Z</time>
      </trkpt>
      <trkpt lat="45.92598" lon="4.68629">
        <ele>369</ele>
        <time>2017-07-11T10:24:39Z</time>
      </trkpt>
      <trkpt lat="45.92606" lon="4.68627">
        <ele>369</ele>
        <time>2017-07-11T10:24:43Z</time>
      </trkpt>
      <trkpt lat="45.9261" lon="4.68626">
        <ele>369</ele>
        <time>2017-07-11T10:24:44Z</time>
      </trkpt>
      <trkpt lat="45.92618" lon="4.68622">
        <ele>369</ele>
        <time>2017-07-11T10:24:46Z</time>
      </trkpt>
      <trkpt lat="45.92622" lon="4.68621">
        <ele>368</ele>
        <time>2017-07-11T10:24:47Z</time>
      </trkpt>
      <trkpt lat="45.92627" lon="4.6862">
        <ele>368</ele>
        <time>2017-07-11T10:24:48Z</time>
      </trkpt>
      <trkpt lat="45.92632" lon="4.68619">
        <ele>368</ele>
        <time>2017-07-11T10:24:49Z</time>
      </trkpt>
      <trkpt lat="45.92638" lon="4.68617">
        <ele>368</ele>
        <time>2017-07-11T10:24:50Z</time>
      </trkpt>
      <trkpt lat="45.92643" lon="4.68615">
        <ele>367</ele>
        <time>2017-07-11T10:24:51Z</time>
      </trkpt>
      <trkpt lat="45.92649" lon="4.68613">
        <ele>367</ele>
        <time>2017-07-11T10:24:52Z</time>
      </trkpt>
      <trkpt lat="45.92653" lon="4.68612">
        <ele>367</ele>
        <time>2017-07-11T10:24:53Z</time>
      </trkpt>
      <trkpt lat="45.92661" lon="4.68608">
        <ele>367</ele>
        <time>2017-07-11T10:24:55Z</time>
      </trkpt>
      <trkpt lat="45.92665" lon="4.68606">
        <ele>367</ele>
        <time>2017-07-11T10:24:56Z</time>
      </trkpt>
      <trkpt lat="45.9267" lon="4.68604">
        <ele>364</ele>
        <time>2017-07-11T10:24:57Z</time>
      </trkpt>
      <trkpt lat="45.92675" lon="4.68602">
        <ele>364</ele>
        <time>2017-07-11T10:24:58Z</time>
      </trkpt>
      <trkpt lat="45.9268" lon="4.686">
        <ele>364</ele>
        <time>2017-07-11T10:24:59Z</time>
      </trkpt>
      <trkpt lat="45.92686" lon="4.68598">
        <ele>364</ele>
        <time>2017-07-11T10:25:00Z</time>
      </trkpt>
      <trkpt lat="45.92692" lon="4.68596">
        <ele>364</ele>
        <time>2017-07-11T10:25:01Z</time>
      </trkpt>
      <trkpt lat="45.92697" lon="4.68594">
        <ele>364</ele>
        <time>2017-07-11T10:25:02Z</time>
      </trkpt>
      <trkpt lat="45.92702" lon="4.68592">
        <ele>364</ele>
        <time>2017-07-11T10:25:03Z</time>
      </trkpt>
      <trkpt lat="45.92708" lon="4.68589">
        <ele>364</ele>
        <time>2017-07-11T10:25:04Z</time>
      </trkpt>
      <trkpt lat="45.92714" lon="4.68586">
        <ele>364</ele>
        <time>2017-07-11T10:25:05Z</time>
      </trkpt>
      <trkpt lat="45.92719" lon="4.68584">
        <ele>364</ele>
        <time>2017-07-11T10:25:06Z</time>
      </trkpt>
      <trkpt lat="45.92725" lon="4.68582">
        <ele>366</ele>
        <time>2017-07-11T10:25:07Z</time>
      </trkpt>
      <trkpt lat="45.9273" lon="4.6858">
        <ele>366</ele>
        <time>2017-07-11T10:25:08Z</time>
      </trkpt>
      <trkpt lat="45.92735" lon="4.68578">
        <ele>366</ele>
        <time>2017-07-11T10:25:09Z</time>
      </trkpt>
      <trkpt lat="45.9274" lon="4.68576">
        <ele>366</ele>
        <time>2017-07-11T10:25:10Z</time>
      </trkpt>
      <trkpt lat="45.92745" lon="4.68575">
        <ele>366</ele>
        <time>2017-07-11T10:25:11Z</time>
      </trkpt>
      <trkpt lat="45.9275" lon="4.68573">
        <ele>366</ele>
        <time>2017-07-11T10:25:12Z</time>
      </trkpt>
      <trkpt lat="45.92756" lon="4.68573">
        <ele>366</ele>
        <time>2017-07-11T10:25:13Z</time>
      </trkpt>
      <trkpt lat="45.92762" lon="4.68574">
        <ele>365</ele>
        <time>2017-07-11T10:25:14Z</time>
      </trkpt>
      <trkpt lat="45.92767" lon="4.68574">
        <ele>365</ele>
        <time>2017-07-11T10:25:15Z</time>
      </trkpt>
      <trkpt lat="45.92773" lon="4.68574">
        <ele>365</ele>
        <time>2017-07-11T10:25:16Z</time>
      </trkpt>
      <trkpt lat="45.9278" lon="4.68575">
        <ele>365</ele>
        <time>2017-07-11T10:25:17Z</time>
      </trkpt>
      <trkpt lat="45.92787" lon="4.68575">
        <ele>365</ele>
        <time>2017-07-11T10:25:18Z</time>
      </trkpt>
      <trkpt lat="45.92794" lon="4.68577">
        <ele>364</ele>
        <time>2017-07-11T10:25:19Z</time>
      </trkpt>
      <trkpt lat="45.92801" lon="4.68577">
        <ele>364</ele>
        <time>2017-07-11T10:25:20Z</time>
      </trkpt>
      <trkpt lat="45.92808" lon="4.68578">
        <ele>363</ele>
        <time>2017-07-11T10:25:21Z</time>
      </trkpt>
      <trkpt lat="45.92815" lon="4.68579">
        <ele>363</ele>
        <time>2017-07-11T10:25:22Z</time>
      </trkpt>
      <trkpt lat="45.92822" lon="4.68581">
        <ele>362</ele>
        <time>2017-07-11T10:25:23Z</time>
      </trkpt>
      <trkpt lat="45.92829" lon="4.68582">
        <ele>362</ele>
        <time>2017-07-11T10:25:24Z</time>
      </trkpt>
      <trkpt lat="45.92836" lon="4.68583">
        <ele>361</ele>
        <time>2017-07-11T10:25:25Z</time>
      </trkpt>
      <trkpt lat="45.92843" lon="4.68584">
        <ele>360</ele>
        <time>2017-07-11T10:25:26Z</time>
      </trkpt>
      <trkpt lat="45.9285" lon="4.68586">
        <ele>359</ele>
        <time>2017-07-11T10:25:27Z</time>
      </trkpt>
      <trkpt lat="45.92857" lon="4.68588">
        <ele>359</ele>
        <time>2017-07-11T10:25:28Z</time>
      </trkpt>
      <trkpt lat="45.92865" lon="4.68589">
        <ele>359</ele>
        <time>2017-07-11T10:25:29Z</time>
      </trkpt>
      <trkpt lat="45.92872" lon="4.68591">
        <ele>359</ele>
        <time>2017-07-11T10:25:30Z</time>
      </trkpt>
      <trkpt lat="45.9288" lon="4.68591">
        <ele>358</ele>
        <time>2017-07-11T10:25:31Z</time>
      </trkpt>
      <trkpt lat="45.92888" lon="4.68593">
        <ele>358</ele>
        <time>2017-07-11T10:25:32Z</time>
      </trkpt>
      <trkpt lat="45.92895" lon="4.68594">
        <ele>358</ele>
        <time>2017-07-11T10:25:33Z</time>
      </trkpt>
      <trkpt lat="45.92903" lon="4.68595">
        <ele>358</ele>
        <time>2017-07-11T10:25:34Z</time>
      </trkpt>
      <trkpt lat="45.92911" lon="4.68596">
        <ele>358</ele>
        <time>2017-07-11T10:25:35Z</time>
      </trkpt>
      <trkpt lat="45.92919" lon="4.68597">
        <ele>359</ele>
        <time>2017-07-11T10:25:36Z</time>
      </trkpt>
      <trkpt lat="45.92927" lon="4.68599">
        <ele>359</ele>
        <time>2017-07-11T10:25:37Z</time>
      </trkpt>
      <trkpt lat="45.92935" lon="4.68601">
        <ele>358</ele>
        <time>2017-07-11T10:25:38Z</time>
      </trkpt>
      <trkpt lat="45.92943" lon="4.68603">
        <ele>358</ele>
        <time>2017-07-11T10:25:39Z</time>
      </trkpt>
      <trkpt lat="45.92952" lon="4.68604">
        <ele>358</ele>
        <time>2017-07-11T10:25:40Z</time>
      </trkpt>
      <trkpt lat="45.92961" lon="4.68607">
        <ele>358</ele>
        <time>2017-07-11T10:25:41Z</time>
      </trkpt>
      <trkpt lat="45.92969" lon="4.68608">
        <ele>358</ele>
        <time>2017-07-11T10:25:42Z</time>
      </trkpt>
      <trkpt lat="45.92977" lon="4.6861">
        <ele>358</ele>
        <time>2017-07-11T10:25:43Z</time>
      </trkpt>
      <trkpt lat="45.92985" lon="4.68612">
        <ele>358</ele>
        <time>2017-07-11T10:25:44Z</time>
      </trkpt>
      <trkpt lat="45.92993" lon="4.68613">
        <ele>358</ele>
        <time>2017-07-11T10:25:45Z</time>
      </trkpt>
      <trkpt lat="45.93002" lon="4.68614">
        <ele>356</ele>
        <time>2017-07-11T10:25:46Z</time>
      </trkpt>
      <trkpt lat="45.93011" lon="4.68615">
        <ele>356</ele>
        <time>2017-07-11T10:25:47Z</time>
      </trkpt>
      <trkpt lat="45.93019" lon="4.68617">
        <ele>356</ele>
        <time>2017-07-11T10:25:48Z</time>
      </trkpt>
      <trkpt lat="45.93027" lon="4.68619">
        <ele>356</ele>
        <time>2017-07-11T10:25:49Z</time>
      </trkpt>
      <trkpt lat="45.93036" lon="4.68621">
        <ele>355</ele>
        <time>2017-07-11T10:25:50Z</time>
      </trkpt>
      <trkpt lat="45.93044" lon="4.68622">
        <ele>355</ele>
        <time>2017-07-11T10:25:51Z</time>
      </trkpt>
      <trkpt lat="45.93052" lon="4.68624">
        <ele>354</ele>
        <time>2017-07-11T10:25:52Z</time>
      </trkpt>
      <trkpt lat="45.93061" lon="4.68627">
        <ele>354</ele>
        <time>2017-07-11T10:25:53Z</time>
      </trkpt>
      <trkpt lat="45.9307" lon="4.68629">
        <ele>354</ele>
        <time>2017-07-11T10:25:54Z</time>
      </trkpt>
      <trkpt lat="45.93078" lon="4.68631">
        <ele>354</ele>
        <time>2017-07-11T10:25:55Z</time>
      </trkpt>
      <trkpt lat="45.93086" lon="4.68633">
        <ele>349</ele>
        <time>2017-07-11T10:25:56Z</time>
      </trkpt>
      <trkpt lat="45.93095" lon="4.68635">
        <ele>349</ele>
        <time>2017-07-11T10:25:57Z</time>
      </trkpt>
      <trkpt lat="45.93103" lon="4.68638">
        <ele>349</ele>
        <time>2017-07-11T10:25:58Z</time>
      </trkpt>
      <trkpt lat="45.93113" lon="4.6864">
        <ele>348</ele>
        <time>2017-07-11T10:25:59Z</time>
      </trkpt>
      <trkpt lat="45.93122" lon="4.68642">
        <ele>348</ele>
        <time>2017-07-11T10:26:00Z</time>
      </trkpt>
      <trkpt lat="45.93131" lon="4.68644">
        <ele>348</ele>
        <time>2017-07-11T10:26:01Z</time>
      </trkpt>
      <trkpt lat="45.9314" lon="4.68646">
        <ele>347</ele>
        <time>2017-07-11T10:26:02Z</time>
      </trkpt>
      <trkpt lat="45.93149" lon="4.68649">
        <ele>347</ele>
        <time>2017-07-11T10:26:03Z</time>
      </trkpt>
      <trkpt lat="45.93159" lon="4.68651">
        <ele>347</ele>
        <time>2017-07-11T10:26:04Z</time>
      </trkpt>
      <trkpt lat="45.93168" lon="4.68654">
        <ele>345</ele>
        <time>2017-07-11T10:26:05Z</time>
      </trkpt>
      <trkpt lat="45.93178" lon="4.68657">
        <ele>345</ele>
        <time>2017-07-11T10:26:06Z</time>
      </trkpt>
      <trkpt lat="45.93188" lon="4.68658">
        <ele>345</ele>
        <time>2017-07-11T10:26:07Z</time>
      </trkpt>
      <trkpt lat="45.93197" lon="4.6866">
        <ele>345</ele>
        <time>2017-07-11T10:26:08Z</time>
      </trkpt>
      <trkpt lat="45.93207" lon="4.68662">
        <ele>344</ele>
        <time>2017-07-11T10:26:09Z</time>
      </trkpt>
      <trkpt lat="45.93217" lon="4.68664">
        <ele>344</ele>
        <time>2017-07-11T10:26:10Z</time>
      </trkpt>
      <trkpt lat="45.93227" lon="4.68667">
        <ele>344</ele>
        <time>2017-07-11T10:26:11Z</time>
      </trkpt>
      <trkpt lat="45.93236" lon="4.68669">
        <ele>345</ele>
        <time>2017-07-11T10:26:12Z</time>
      </trkpt>
      <trkpt lat="45.93245" lon="4.68671">
        <ele>344</ele>
        <time>2017-07-11T10:26:13Z</time>
      </trkpt>
      <trkpt lat="45.93254" lon="4.68673">
        <ele>344</ele>
        <time>2017-07-11T10:26:14Z</time>
      </trkpt>
      <trkpt lat="45.93262" lon="4.68675">
        <ele>344</ele>
        <time>2017-07-11T10:26:15Z</time>
      </trkpt>
      <trkpt lat="45.9327" lon="4.68677">
        <ele>344</ele>
        <time>2017-07-11T10:26:16Z</time>
      </trkpt>
      <trkpt lat="45.93279" lon="4.68679">
        <ele>344</ele>
        <time>2017-07-11T10:26:17Z</time>
      </trkpt>
      <trkpt lat="45.93287" lon="4.68681">
        <ele>344</ele>
        <time>2017-07-11T10:26:18Z</time>
      </trkpt>
      <trkpt lat="45.93295" lon="4.68682">
        <ele>344</ele>
        <time>2017-07-11T10:26:19Z</time>
      </trkpt>
      <trkpt lat="45.93302" lon="4.68684">
        <ele>344</ele>
        <time>2017-07-11T10:26:20Z</time>
      </trkpt>
      <trkpt lat="45.93309" lon="4.68686">
        <ele>344</ele>
        <time>2017-07-11T10:26:21Z</time>
      </trkpt>
      <trkpt lat="45.93317" lon="4.68688">
        <ele>344</ele>
        <time>2017-07-11T10:26:22Z</time>
      </trkpt>
      <trkpt lat="45.93324" lon="4.68691">
        <ele>344</ele>
        <time>2017-07-11T10:26:23Z</time>
      </trkpt>
      <trkpt lat="45.93331" lon="4.68692">
        <ele>344</ele>
        <time>2017-07-11T10:26:24Z</time>
      </trkpt>
      <trkpt lat="45.93337" lon="4.68694">
        <ele>344</ele>
        <time>2017-07-11T10:26:25Z</time>
      </trkpt>
      <trkpt lat="45.93344" lon="4.68695">
        <ele>344</ele>
        <time>2017-07-11T10:26:26Z</time>
      </trkpt>
      <trkpt lat="45.93351" lon="4.68697">
        <ele>344</ele>
        <time>2017-07-11T10:26:27Z</time>
      </trkpt>
      <trkpt lat="45.93357" lon="4.68698">
        <ele>344</ele>
        <time>2017-07-11T10:26:28Z</time>
      </trkpt>
      <trkpt lat="45.93364" lon="4.687">
        <ele>344</ele>
        <time>2017-07-11T10:26:29Z</time>
      </trkpt>
      <trkpt lat="45.93371" lon="4.68701">
        <ele>344</ele>
        <time>2017-07-11T10:26:30Z</time>
      </trkpt>
      <trkpt lat="45.93377" lon="4.68702">
        <ele>344</ele>
        <time>2017-07-11T10:26:31Z</time>
      </trkpt>
      <trkpt lat="45.93384" lon="4.68703">
        <ele>344</ele>
        <time>2017-07-11T10:26:32Z</time>
      </trkpt>
      <trkpt lat="45.93392" lon="4.68705">
        <ele>344</ele>
        <time>2017-07-11T10:26:33Z</time>
      </trkpt>
      <trkpt lat="45.93399" lon="4.68707">
        <ele>344</ele>
        <time>2017-07-11T10:26:34Z</time>
      </trkpt>
      <trkpt lat="45.93406" lon="4.68708">
        <ele>344</ele>
        <time>2017-07-11T10:26:35Z</time>
      </trkpt>
      <trkpt lat="45.93413" lon="4.6871">
        <ele>343</ele>
        <time>2017-07-11T10:26:36Z</time>
      </trkpt>
      <trkpt lat="45.9342" lon="4.68711">
        <ele>343</ele>
        <time>2017-07-11T10:26:37Z</time>
      </trkpt>
      <trkpt lat="45.93427" lon="4.68713">
        <ele>343</ele>
        <time>2017-07-11T10:26:38Z</time>
      </trkpt>
      <trkpt lat="45.93433" lon="4.68714">
        <ele>343</ele>
        <time>2017-07-11T10:26:39Z</time>
      </trkpt>
      <trkpt lat="45.9344" lon="4.68716">
        <ele>343</ele>
        <time>2017-07-11T10:26:40Z</time>
      </trkpt>
      <trkpt lat="45.93446" lon="4.68718">
        <ele>343</ele>
        <time>2017-07-11T10:26:41Z</time>
      </trkpt>
      <trkpt lat="45.93452" lon="4.6872">
        <ele>342</ele>
        <time>2017-07-11T10:26:42Z</time>
      </trkpt>
      <trkpt lat="45.93458" lon="4.68721">
        <ele>342</ele>
        <time>2017-07-11T10:26:43Z</time>
      </trkpt>
      <trkpt lat="45.93464" lon="4.68722">
        <ele>342</ele>
        <time>2017-07-11T10:26:44Z</time>
      </trkpt>
      <trkpt lat="45.9347" lon="4.68724">
        <ele>342</ele>
        <time>2017-07-11T10:26:45Z</time>
      </trkpt>
      <trkpt lat="45.93476" lon="4.68725">
        <ele>342</ele>
        <time>2017-07-11T10:26:46Z</time>
      </trkpt>
      <trkpt lat="45.93482" lon="4.68727">
        <ele>342</ele>
        <time>2017-07-11T10:26:47Z</time>
      </trkpt>
      <trkpt lat="45.93487" lon="4.68728">
        <ele>342</ele>
        <time>2017-07-11T10:26:48Z</time>
      </trkpt>
      <trkpt lat="45.93492" lon="4.6873">
        <ele>342</ele>
        <time>2017-07-11T10:26:49Z</time>
      </trkpt>
      <trkpt lat="45.93498" lon="4.68731">
        <ele>342</ele>
        <time>2017-07-11T10:26:50Z</time>
      </trkpt>
      <trkpt lat="45.93503" lon="4.68732">
        <ele>342</ele>
        <time>2017-07-11T10:26:51Z</time>
      </trkpt>
      <trkpt lat="45.93508" lon="4.68733">
        <ele>342</ele>
        <time>2017-07-11T10:26:52Z</time>
      </trkpt>
      <trkpt lat="45.93514" lon="4.68735">
        <ele>342</ele>
        <time>2017-07-11T10:26:53Z</time>
      </trkpt>
      <trkpt lat="45.93519" lon="4.68736">
        <ele>342</ele>
        <time>2017-07-11T10:26:54Z</time>
      </trkpt>
      <trkpt lat="45.93525" lon="4.68738">
        <ele>342</ele>
        <time>2017-07-11T10:26:55Z</time>
      </trkpt>
      <trkpt lat="45.93531" lon="4.68739">
        <ele>342</ele>
        <time>2017-07-11T10:26:56Z</time>
      </trkpt>
      <trkpt lat="45.93537" lon="4.6874">
        <ele>342</ele>
        <time>2017-07-11T10:26:57Z</time>
      </trkpt>
      <trkpt lat="45.93543" lon="4.68742">
        <ele>342</ele>
        <time>2017-07-11T10:26:58Z</time>
      </trkpt>
      <trkpt lat="45.93549" lon="4.68744">
        <ele>342</ele>
        <time>2017-07-11T10:26:59Z</time>
      </trkpt>
      <trkpt lat="45.93555" lon="4.68745">
        <ele>342</ele>
        <time>2017-07-11T10:27:00Z</time>
      </trkpt>
      <trkpt lat="45.9356" lon="4.68746">
        <ele>342</ele>
        <time>2017-07-11T10:27:01Z</time>
      </trkpt>
      <trkpt lat="45.93566" lon="4.68748">
        <ele>343</ele>
        <time>2017-07-11T10:27:02Z</time>
      </trkpt>
      <trkpt lat="45.93571" lon="4.68749">
        <ele>343</ele>
        <time>2017-07-11T10:27:03Z</time>
      </trkpt>
      <trkpt lat="45.93577" lon="4.68751">
        <ele>344</ele>
        <time>2017-07-11T10:27:04Z</time>
      </trkpt>
      <trkpt lat="45.93583" lon="4.68752">
        <ele>344</ele>
        <time>2017-07-11T10:27:05Z</time>
      </trkpt>
      <trkpt lat="45.93589" lon="4.68754">
        <ele>344</ele>
        <time>2017-07-11T10:27:06Z</time>
      </trkpt>
      <trkpt lat="45.93595" lon="4.68755">
        <ele>344</ele>
        <time>2017-07-11T10:27:07Z</time>
      </trkpt>
      <trkpt lat="45.93602" lon="4.68757">
        <ele>344</ele>
        <time>2017-07-11T10:27:08Z</time>
      </trkpt>
      <trkpt lat="45.93608" lon="4.68758">
        <ele>344</ele>
        <time>2017-07-11T10:27:09Z</time>
      </trkpt>
      <trkpt lat="45.93614" lon="4.6876">
        <ele>343</ele>
        <time>2017-07-11T10:27:10Z</time>
      </trkpt>
      <trkpt lat="45.93621" lon="4.68761">
        <ele>343</ele>
        <time>2017-07-11T10:27:11Z</time>
      </trkpt>
      <trkpt lat="45.93627" lon="4.68763">
        <ele>343</ele>
        <time>2017-07-11T10:27:12Z</time>
      </trkpt>
      <trkpt lat="45.93633" lon="4.68766">
        <ele>343</ele>
        <time>2017-07-11T10:27:13Z</time>
      </trkpt>
      <trkpt lat="45.9364" lon="4.68769">
        <ele>343</ele>
        <time>2017-07-11T10:27:14Z</time>
      </trkpt>
      <trkpt lat="45.93646" lon="4.68772">
        <ele>343</ele>
        <time>2017-07-11T10:27:15Z</time>
      </trkpt>
      <trkpt lat="45.93653" lon="4.68774">
        <ele>343</ele>
        <time>2017-07-11T10:27:16Z</time>
      </trkpt>
      <trkpt lat="45.9366" lon="4.68774">
        <ele>343</ele>
        <time>2017-07-11T10:27:17Z</time>
      </trkpt>
      <trkpt lat="45.93667" lon="4.68775">
        <ele>343</ele>
        <time>2017-07-11T10:27:18Z</time>
      </trkpt>
      <trkpt lat="45.93673" lon="4.68776">
        <ele>342</ele>
        <time>2017-07-11T10:27:19Z</time>
      </trkpt>
      <trkpt lat="45.93681" lon="4.68777">
        <ele>342</ele>
        <time>2017-07-11T10:27:20Z</time>
      </trkpt>
      <trkpt lat="45.93687" lon="4.68779">
        <ele>342</ele>
        <time>2017-07-11T10:27:21Z</time>
      </trkpt>
      <trkpt lat="45.93694" lon="4.68781">
        <ele>342</ele>
        <time>2017-07-11T10:27:22Z</time>
      </trkpt>
      <trkpt lat="45.937" lon="4.68782">
        <ele>342</ele>
        <time>2017-07-11T10:27:23Z</time>
      </trkpt>
      <trkpt lat="45.93706" lon="4.68784">
        <ele>342</ele>
        <time>2017-07-11T10:27:24Z</time>
      </trkpt>
      <trkpt lat="45.93712" lon="4.68786">
        <ele>342</ele>
        <time>2017-07-11T10:27:25Z</time>
      </trkpt>
      <trkpt lat="45.93718" lon="4.68787">
        <ele>342</ele>
        <time>2017-07-11T10:27:26Z</time>
      </trkpt>
      <trkpt lat="45.93723" lon="4.68789">
        <ele>342</ele>
        <time>2017-07-11T10:27:27Z</time>
      </trkpt>
      <trkpt lat="45.93729" lon="4.68791">
        <ele>342</ele>
        <time>2017-07-11T10:27:28Z</time>
      </trkpt>
      <trkpt lat="45.93734" lon="4.68793">
        <ele>342</ele>
        <time>2017-07-11T10:27:29Z</time>
      </trkpt>
      <trkpt lat="45.9374" lon="4.68794">
        <ele>342</ele>
        <time>2017-07-11T10:27:30Z</time>
      </trkpt>
      <trkpt lat="45.93745" lon="4.68795">
        <ele>342</ele>
        <time>2017-07-11T10:27:31Z</time>
      </trkpt>
      <trkpt lat="45.93751" lon="4.68797">
        <ele>341</ele>
        <time>2017-07-11T10:27:32Z</time>
      </trkpt>
      <trkpt lat="45.93757" lon="4.68798">
        <ele>341</ele>
        <time>2017-07-11T10:27:33Z</time>
      </trkpt>
      <trkpt lat="45.93762" lon="4.68799">
        <ele>341</ele>
        <time>2017-07-11T10:27:34Z</time>
      </trkpt>
      <trkpt lat="45.93767" lon="4.68801">
        <ele>341</ele>
        <time>2017-07-11T10:27:35Z</time>
      </trkpt>
      <trkpt lat="45.93773" lon="4.68803">
        <ele>341</ele>
        <time>2017-07-11T10:27:36Z</time>
      </trkpt>
      <trkpt lat="45.93779" lon="4.68806">
        <ele>341</ele>
        <time>2017-07-11T10:27:37Z</time>
      </trkpt>
      <trkpt lat="45.93785" lon="4.68808">
        <ele>341</ele>
        <time>2017-07-11T10:27:38Z</time>
      </trkpt>
      <trkpt lat="45.93791" lon="4.68812">
        <ele>341</ele>
        <time>2017-07-11T10:27:39Z</time>
      </trkpt>
      <trkpt lat="45.93797" lon="4.68816">
        <ele>341</ele>
        <time>2017-07-11T10:27:40Z</time>
      </trkpt>
      <trkpt lat="45.93804" lon="4.68819">
        <ele>341</ele>
        <time>2017-07-11T10:27:41Z</time>
      </trkpt>
      <trkpt lat="45.9381" lon="4.68824">
        <ele>341</ele>
        <time>2017-07-11T10:27:42Z</time>
      </trkpt>
      <trkpt lat="45.93817" lon="4.68828">
        <ele>341</ele>
        <time>2017-07-11T10:27:43Z</time>
      </trkpt>
      <trkpt lat="45.93824" lon="4.68831">
        <ele>342</ele>
        <time>2017-07-11T10:27:44Z</time>
      </trkpt>
      <trkpt lat="45.9383" lon="4.68834">
        <ele>342</ele>
        <time>2017-07-11T10:27:45Z</time>
      </trkpt>
      <trkpt lat="45.93836" lon="4.68837">
        <ele>342</ele>
        <time>2017-07-11T10:27:46Z</time>
      </trkpt>
      <trkpt lat="45.93841" lon="4.68841">
        <ele>342</ele>
        <time>2017-07-11T10:27:47Z</time>
      </trkpt>
      <trkpt lat="45.93846" lon="4.68844">
        <ele>342</ele>
        <time>2017-07-11T10:27:48Z</time>
      </trkpt>
      <trkpt lat="45.93851" lon="4.68847">
        <ele>342</ele>
        <time>2017-07-11T10:27:49Z</time>
      </trkpt>
      <trkpt lat="45.93857" lon="4.68851">
        <ele>342</ele>
        <time>2017-07-11T10:27:50Z</time>
      </trkpt>
      <trkpt lat="45.93862" lon="4.68854">
        <ele>342</ele>
        <time>2017-07-11T10:27:51Z</time>
      </trkpt>
      <trkpt lat="45.93868" lon="4.68857">
        <ele>342</ele>
        <time>2017-07-11T10:27:52Z</time>
      </trkpt>
      <trkpt lat="45.93874" lon="4.68861">
        <ele>342</ele>
        <time>2017-07-11T10:27:53Z</time>
      </trkpt>
      <trkpt lat="45.9388" lon="4.68866">
        <ele>343</ele>
        <time>2017-07-11T10:27:54Z</time>
      </trkpt>
      <trkpt lat="45.93886" lon="4.6887">
        <ele>343</ele>
        <time>2017-07-11T10:27:55Z</time>
      </trkpt>
      <trkpt lat="45.93892" lon="4.68874">
        <ele>343</ele>
        <time>2017-07-11T10:27:56Z</time>
      </trkpt>
      <trkpt lat="45.93898" lon="4.68878">
        <ele>342</ele>
        <time>2017-07-11T10:27:57Z</time>
      </trkpt>
      <trkpt lat="45.93905" lon="4.6888">
        <ele>342</ele>
        <time>2017-07-11T10:27:58Z</time>
      </trkpt>
      <trkpt lat="45.93911" lon="4.68882">
        <ele>342</ele>
        <time>2017-07-11T10:27:59Z</time>
      </trkpt>
      <trkpt lat="45.93917" lon="4.68884">
        <ele>342</ele>
        <time>2017-07-11T10:28:00Z</time>
      </trkpt>
      <trkpt lat="45.93923" lon="4.68885">
        <ele>342</ele>
        <time>2017-07-11T10:28:01Z</time>
      </trkpt>
      <trkpt lat="45.93929" lon="4.68887">
        <ele>342</ele>
        <time>2017-07-11T10:28:02Z</time>
      </trkpt>
      <trkpt lat="45.93935" lon="4.68889">
        <ele>342</ele>
        <time>2017-07-11T10:28:03Z</time>
      </trkpt>
      <trkpt lat="45.93941" lon="4.68891">
        <ele>342</ele>
        <time>2017-07-11T10:28:04Z</time>
      </trkpt>
      <trkpt lat="45.93946" lon="4.68894">
        <ele>342</ele>
        <time>2017-07-11T10:28:05Z</time>
      </trkpt>
      <trkpt lat="45.93952" lon="4.68897">
        <ele>342</ele>
        <time>2017-07-11T10:28:06Z</time>
      </trkpt>
      <trkpt lat="45.93959" lon="4.689">
        <ele>342</ele>
        <time>2017-07-11T10:28:07Z</time>
      </trkpt>
      <trkpt lat="45.93965" lon="4.68902">
        <ele>342</ele>
        <time>2017-07-11T10:28:08Z</time>
      </trkpt>
      <trkpt lat="45.93971" lon="4.68904">
        <ele>342</ele>
        <time>2017-07-11T10:28:09Z</time>
      </trkpt>
      <trkpt lat="45.93977" lon="4.68906">
        <ele>342</ele>
        <time>2017-07-11T10:28:10Z</time>
      </trkpt>
      <trkpt lat="45.93983" lon="4.68908">
        <ele>342</ele>
        <time>2017-07-11T10:28:11Z</time>
      </trkpt>
      <trkpt lat="45.93989" lon="4.6891">
        <ele>342</ele>
        <time>2017-07-11T10:28:12Z</time>
      </trkpt>
      <trkpt lat="45.93994" lon="4.68912">
        <ele>342</ele>
        <time>2017-07-11T10:28:13Z</time>
      </trkpt>
      <trkpt lat="45.94" lon="4.68915">
        <ele>342</ele>
        <time>2017-07-11T10:28:14Z</time>
      </trkpt>
      <trkpt lat="45.94006" lon="4.68916">
        <ele>342</ele>
        <time>2017-07-11T10:28:15Z</time>
      </trkpt>
      <trkpt lat="45.94011" lon="4.68919">
        <ele>342</ele>
        <time>2017-07-11T10:28:16Z</time>
      </trkpt>
      <trkpt lat="45.94017" lon="4.68921">
        <ele>341</ele>
        <time>2017-07-11T10:28:17Z</time>
      </trkpt>
      <trkpt lat="45.94023" lon="4.68923">
        <ele>341</ele>
        <time>2017-07-11T10:28:18Z</time>
      </trkpt>
      <trkpt lat="45.9403" lon="4.68926">
        <ele>341</ele>
        <time>2017-07-11T10:28:19Z</time>
      </trkpt>
      <trkpt lat="45.94035" lon="4.68928">
        <ele>341</ele>
        <time>2017-07-11T10:28:20Z</time>
      </trkpt>
      <trkpt lat="45.94041" lon="4.68931">
        <ele>341</ele>
        <time>2017-07-11T10:28:21Z</time>
      </trkpt>
      <trkpt lat="45.94048" lon="4.68935">
        <ele>341</ele>
        <time>2017-07-11T10:28:22Z</time>
      </trkpt>
      <trkpt lat="45.94054" lon="4.68939">
        <ele>341</ele>
        <time>2017-07-11T10:28:23Z</time>
      </trkpt>
      <trkpt lat="45.9406" lon="4.68942">
        <ele>341</ele>
        <time>2017-07-11T10:28:24Z</time>
      </trkpt>
      <trkpt lat="45.94066" lon="4.68946">
        <ele>341</ele>
        <time>2017-07-11T10:28:25Z</time>
      </trkpt>
      <trkpt lat="45.94072" lon="4.68948">
        <ele>341</ele>
        <time>2017-07-11T10:28:26Z</time>
      </trkpt>
      <trkpt lat="45.94078" lon="4.6895">
        <ele>341</ele>
        <time>2017-07-11T10:28:27Z</time>
      </trkpt>
      <trkpt lat="45.94084" lon="4.6895">
        <ele>340</ele>
        <time>2017-07-11T10:28:28Z</time>
      </trkpt>
      <trkpt lat="45.94091" lon="4.68951">
        <ele>340</ele>
        <time>2017-07-11T10:28:29Z</time>
      </trkpt>
      <trkpt lat="45.94098" lon="4.68952">
        <ele>340</ele>
        <time>2017-07-11T10:28:30Z</time>
      </trkpt>
      <trkpt lat="45.94105" lon="4.68954">
        <ele>340</ele>
        <time>2017-07-11T10:28:31Z</time>
      </trkpt>
      <trkpt lat="45.94112" lon="4.68956">
        <ele>340</ele>
        <time>2017-07-11T10:28:32Z</time>
      </trkpt>
      <trkpt lat="45.94119" lon="4.68959">
        <ele>340</ele>
        <time>2017-07-11T10:28:33Z</time>
      </trkpt>
      <trkpt lat="45.94126" lon="4.68961">
        <ele>340</ele>
        <time>2017-07-11T10:28:34Z</time>
      </trkpt>
      <trkpt lat="45.94133" lon="4.68964">
        <ele>340</ele>
        <time>2017-07-11T10:28:35Z</time>
      </trkpt>
      <trkpt lat="45.9414" lon="4.68966">
        <ele>340</ele>
        <time>2017-07-11T10:28:36Z</time>
      </trkpt>
      <trkpt lat="45.94147" lon="4.68968">
        <ele>340</ele>
        <time>2017-07-11T10:28:37Z</time>
      </trkpt>
      <trkpt lat="45.94154" lon="4.6897">
        <ele>340</ele>
        <time>2017-07-11T10:28:38Z</time>
      </trkpt>
      <trkpt lat="45.94161" lon="4.68972">
        <ele>340</ele>
        <time>2017-07-11T10:28:39Z</time>
      </trkpt>
      <trkpt lat="45.94168" lon="4.68975">
        <ele>339</ele>
        <time>2017-07-11T10:28:40Z</time>
      </trkpt>
      <trkpt lat="45.94175" lon="4.68977">
        <ele>339</ele>
        <time>2017-07-11T10:28:41Z</time>
      </trkpt>
      <trkpt lat="45.94181" lon="4.68979">
        <ele>339</ele>
        <time>2017-07-11T10:28:42Z</time>
      </trkpt>
      <trkpt lat="45.94187" lon="4.68981">
        <ele>338</ele>
        <time>2017-07-11T10:28:43Z</time>
      </trkpt>
      <trkpt lat="45.94194" lon="4.68983">
        <ele>338</ele>
        <time>2017-07-11T10:28:44Z</time>
      </trkpt>
      <trkpt lat="45.94201" lon="4.68984">
        <ele>338</ele>
        <time>2017-07-11T10:28:45Z</time>
      </trkpt>
      <trkpt lat="45.94207" lon="4.68986">
        <ele>338</ele>
        <time>2017-07-11T10:28:46Z</time>
      </trkpt>
      <trkpt lat="45.94214" lon="4.68987">
        <ele>338</ele>
        <time>2017-07-11T10:28:47Z</time>
      </trkpt>
      <trkpt lat="45.9422" lon="4.68989">
        <ele>338</ele>
        <time>2017-07-11T10:28:48Z</time>
      </trkpt>
      <trkpt lat="45.94226" lon="4.6899">
        <ele>338</ele>
        <time>2017-07-11T10:28:49Z</time>
      </trkpt>
      <trkpt lat="45.94232" lon="4.68991">
        <ele>338</ele>
        <time>2017-07-11T10:28:50Z</time>
      </trkpt>
      <trkpt lat="45.94238" lon="4.68992">
        <ele>338</ele>
        <time>2017-07-11T10:28:51Z</time>
      </trkpt>
      <trkpt lat="45.94244" lon="4.68994">
        <ele>338</ele>
        <time>2017-07-11T10:28:52Z</time>
      </trkpt>
      <trkpt lat="45.9425" lon="4.68995">
        <ele>338</ele>
        <time>2017-07-11T10:28:53Z</time>
      </trkpt>
      <trkpt lat="45.94255" lon="4.68997">
        <ele>338</ele>
        <time>2017-07-11T10:28:54Z</time>
      </trkpt>
      <trkpt lat="45.94261" lon="4.68998">
        <ele>337</ele>
        <time>2017-07-11T10:28:55Z</time>
      </trkpt>
      <trkpt lat="45.94266" lon="4.68999">
        <ele>337</ele>
        <time>2017-07-11T10:28:56Z</time>
      </trkpt>
      <trkpt lat="45.94272" lon="4.69">
        <ele>337</ele>
        <time>2017-07-11T10:28:57Z</time>
      </trkpt>
      <trkpt lat="45.94277" lon="4.69001">
        <ele>337</ele>
        <time>2017-07-11T10:28:58Z</time>
      </trkpt>
      <trkpt lat="45.94283" lon="4.69002">
        <ele>337</ele>
        <time>2017-07-11T10:28:59Z</time>
      </trkpt>
      <trkpt lat="45.94289" lon="4.69003">
        <ele>337</ele>
        <time>2017-07-11T10:29:00Z</time>
      </trkpt>
      <trkpt lat="45.94295" lon="4.69004">
        <ele>337</ele>
        <time>2017-07-11T10:29:01Z</time>
      </trkpt>
      <trkpt lat="45.94302" lon="4.69004">
        <ele>337</ele>
        <time>2017-07-11T10:29:02Z</time>
      </trkpt>
      <trkpt lat="45.94309" lon="4.69005">
        <ele>337</ele>
        <time>2017-07-11T10:29:03Z</time>
      </trkpt>
      <trkpt lat="45.94316" lon="4.69006">
        <ele>337</ele>
        <time>2017-07-11T10:29:04Z</time>
      </trkpt>
      <trkpt lat="45.94323" lon="4.69007">
        <ele>337</ele>
        <time>2017-07-11T10:29:05Z</time>
      </trkpt>
      <trkpt lat="45.9433" lon="4.69008">
        <ele>337</ele>
        <time>2017-07-11T10:29:06Z</time>
      </trkpt>
      <trkpt lat="45.94336" lon="4.69008">
        <ele>337</ele>
        <time>2017-07-11T10:29:07Z</time>
      </trkpt>
      <trkpt lat="45.94343" lon="4.69008">
        <ele>337</ele>
        <time>2017-07-11T10:29:08Z</time>
      </trkpt>
      <trkpt lat="45.94349" lon="4.69008">
        <ele>338</ele>
        <time>2017-07-11T10:29:09Z</time>
      </trkpt>
      <trkpt lat="45.94355" lon="4.69008">
        <ele>338</ele>
        <time>2017-07-11T10:29:10Z</time>
      </trkpt>
      <trkpt lat="45.9436" lon="4.69009">
        <ele>338</ele>
        <time>2017-07-11T10:29:11Z</time>
      </trkpt>
      <trkpt lat="45.94366" lon="4.69009">
        <ele>338</ele>
        <time>2017-07-11T10:29:12Z</time>
      </trkpt>
      <trkpt lat="45.94371" lon="4.69009">
        <ele>338</ele>
        <time>2017-07-11T10:29:13Z</time>
      </trkpt>
      <trkpt lat="45.94377" lon="4.69009">
        <ele>338</ele>
        <time>2017-07-11T10:29:14Z</time>
      </trkpt>
      <trkpt lat="45.94382" lon="4.69009">
        <ele>338</ele>
        <time>2017-07-11T10:29:15Z</time>
      </trkpt>
      <trkpt lat="45.94388" lon="4.69009">
        <ele>338</ele>
        <time>2017-07-11T10:29:16Z</time>
      </trkpt>
      <trkpt lat="45.94394" lon="4.69009">
        <ele>338</ele>
        <time>2017-07-11T10:29:17Z</time>
      </trkpt>
      <trkpt lat="45.944" lon="4.69009">
        <ele>339</ele>
        <time>2017-07-11T10:29:18Z</time>
      </trkpt>
      <trkpt lat="45.94407" lon="4.69009">
        <ele>339</ele>
        <time>2017-07-11T10:29:19Z</time>
      </trkpt>
      <trkpt lat="45.94414" lon="4.69009">
        <ele>339</ele>
        <time>2017-07-11T10:29:20Z</time>
      </trkpt>
      <trkpt lat="45.9442" lon="4.69009">
        <ele>340</ele>
        <time>2017-07-11T10:29:21Z</time>
      </trkpt>
      <trkpt lat="45.94425" lon="4.69009">
        <ele>340</ele>
        <time>2017-07-11T10:29:22Z</time>
      </trkpt>
      <trkpt lat="45.94431" lon="4.69009">
        <ele>340</ele>
        <time>2017-07-11T10:29:23Z</time>
      </trkpt>
      <trkpt lat="45.94437" lon="4.69009">
        <ele>340</ele>
        <time>2017-07-11T10:29:24Z</time>
      </trkpt>
      <trkpt lat="45.94441" lon="4.69009">
        <ele>340</ele>
        <time>2017-07-11T10:29:25Z</time>
      </trkpt>
      <trkpt lat="45.94446" lon="4.69009">
        <ele>340</ele>
        <time>2017-07-11T10:29:26Z</time>
      </trkpt>
      <trkpt lat="45.94452" lon="4.69009">
        <ele>340</ele>
        <time>2017-07-11T10:29:27Z</time>
      </trkpt>
      <trkpt lat="45.94457" lon="4.6901">
        <ele>340</ele>
        <time>2017-07-11T10:29:28Z</time>
      </trkpt>
      <trkpt lat="45.94463" lon="4.6901">
        <ele>341</ele>
        <time>2017-07-11T10:29:29Z</time>
      </trkpt>
      <trkpt lat="45.94469" lon="4.6901">
        <ele>341</ele>
        <time>2017-07-11T10:29:30Z</time>
      </trkpt>
      <trkpt lat="45.94475" lon="4.69011">
        <ele>341</ele>
        <time>2017-07-11T10:29:31Z</time>
      </trkpt>
      <trkpt lat="45.94481" lon="4.69012">
        <ele>341</ele>
        <time>2017-07-11T10:29:32Z</time>
      </trkpt>
      <trkpt lat="45.94487" lon="4.69014">
        <ele>341</ele>
        <time>2017-07-11T10:29:33Z</time>
      </trkpt>
      <trkpt lat="45.94493" lon="4.69015">
        <ele>341</ele>
        <time>2017-07-11T10:29:34Z</time>
      </trkpt>
      <trkpt lat="45.94498" lon="4.69016">
        <ele>341</ele>
        <time>2017-07-11T10:29:35Z</time>
      </trkpt>
      <trkpt lat="45.94504" lon="4.69017">
        <ele>342</ele>
        <time>2017-07-11T10:29:36Z</time>
      </trkpt>
      <trkpt lat="45.94509" lon="4.69018">
        <ele>342</ele>
        <time>2017-07-11T10:29:37Z</time>
      </trkpt>
      <trkpt lat="45.94514" lon="4.6902">
        <ele>342</ele>
        <time>2017-07-11T10:29:38Z</time>
      </trkpt>
      <trkpt lat="45.94519" lon="4.69021">
        <ele>342</ele>
        <time>2017-07-11T10:29:39Z</time>
      </trkpt>
      <trkpt lat="45.94524" lon="4.69022">
        <ele>342</ele>
        <time>2017-07-11T10:29:40Z</time>
      </trkpt>
      <trkpt lat="45.94529" lon="4.69024">
        <ele>342</ele>
        <time>2017-07-11T10:29:41Z</time>
      </trkpt>
      <trkpt lat="45.94534" lon="4.69025">
        <ele>342</ele>
        <time>2017-07-11T10:29:42Z</time>
      </trkpt>
      <trkpt lat="45.94539" lon="4.69026">
        <ele>342</ele>
        <time>2017-07-11T10:29:43Z</time>
      </trkpt>
      <trkpt lat="45.94544" lon="4.69028">
        <ele>342</ele>
        <time>2017-07-11T10:29:44Z</time>
      </trkpt>
      <trkpt lat="45.94549" lon="4.69029">
        <ele>342</ele>
        <time>2017-07-11T10:29:45Z</time>
      </trkpt>
      <trkpt lat="45.94555" lon="4.69031">
        <ele>342</ele>
        <time>2017-07-11T10:29:46Z</time>
      </trkpt>
      <trkpt lat="45.94561" lon="4.69032">
        <ele>342</ele>
        <time>2017-07-11T10:29:47Z</time>
      </trkpt>
      <trkpt lat="45.94567" lon="4.69034">
        <ele>342</ele>
        <time>2017-07-11T10:29:48Z</time>
      </trkpt>
      <trkpt lat="45.94573" lon="4.69035">
        <ele>342</ele>
        <time>2017-07-11T10:29:49Z</time>
      </trkpt>
      <trkpt lat="45.94578" lon="4.69037">
        <ele>342</ele>
        <time>2017-07-11T10:29:50Z</time>
      </trkpt>
      <trkpt lat="45.94584" lon="4.69039">
        <ele>342</ele>
        <time>2017-07-11T10:29:51Z</time>
      </trkpt>
      <trkpt lat="45.94589" lon="4.69041">
        <ele>342</ele>
        <time>2017-07-11T10:29:52Z</time>
      </trkpt>
      <trkpt lat="45.94594" lon="4.69042">
        <ele>342</ele>
        <time>2017-07-11T10:29:53Z</time>
      </trkpt>
      <trkpt lat="45.94599" lon="4.69044">
        <ele>342</ele>
        <time>2017-07-11T10:29:54Z</time>
      </trkpt>
      <trkpt lat="45.94603" lon="4.69046">
        <ele>342</ele>
        <time>2017-07-11T10:29:55Z</time>
      </trkpt>
      <trkpt lat="45.94608" lon="4.69047">
        <ele>342</ele>
        <time>2017-07-11T10:29:56Z</time>
      </trkpt>
      <trkpt lat="45.94613" lon="4.69049">
        <ele>342</ele>
        <time>2017-07-11T10:29:57Z</time>
      </trkpt>
      <trkpt lat="45.94618" lon="4.6905">
        <ele>342</ele>
        <time>2017-07-11T10:29:58Z</time>
      </trkpt>
      <trkpt lat="45.94624" lon="4.69052">
        <ele>342</ele>
        <time>2017-07-11T10:29:59Z</time>
      </trkpt>
      <trkpt lat="45.94629" lon="4.69054">
        <ele>342</ele>
        <time>2017-07-11T10:30:00Z</time>
      </trkpt>
      <trkpt lat="45.94634" lon="4.69056">
        <ele>342</ele>
        <time>2017-07-11T10:30:01Z</time>
      </trkpt>
      <trkpt lat="45.9464" lon="4.69057">
        <ele>342</ele>
        <time>2017-07-11T10:30:02Z</time>
      </trkpt>
      <trkpt lat="45.94645" lon="4.6906">
        <ele>342</ele>
        <time>2017-07-11T10:30:03Z</time>
      </trkpt>
      <trkpt lat="45.9465" lon="4.69062">
        <ele>342</ele>
        <time>2017-07-11T10:30:04Z</time>
      </trkpt>
      <trkpt lat="45.94655" lon="4.69064">
        <ele>342</ele>
        <time>2017-07-11T10:30:05Z</time>
      </trkpt>
      <trkpt lat="45.9466" lon="4.69066">
        <ele>342</ele>
        <time>2017-07-11T10:30:06Z</time>
      </trkpt>
      <trkpt lat="45.94665" lon="4.69067">
        <ele>342</ele>
        <time>2017-07-11T10:30:07Z</time>
      </trkpt>
      <trkpt lat="45.9467" lon="4.69069">
        <ele>342</ele>
        <time>2017-07-11T10:30:08Z</time>
      </trkpt>
      <trkpt lat="45.94675" lon="4.69072">
        <ele>342</ele>
        <time>2017-07-11T10:30:09Z</time>
      </trkpt>
      <trkpt lat="45.9468" lon="4.69074">
        <ele>342</ele>
        <time>2017-07-11T10:30:10Z</time>
      </trkpt>
      <trkpt lat="45.94685" lon="4.69075">
        <ele>342</ele>
        <time>2017-07-11T10:30:11Z</time>
      </trkpt>
      <trkpt lat="45.94691" lon="4.69077">
        <ele>342</ele>
        <time>2017-07-11T10:30:12Z</time>
      </trkpt>
      <trkpt lat="45.94696" lon="4.69079">
        <ele>342</ele>
        <time>2017-07-11T10:30:13Z</time>
      </trkpt>
      <trkpt lat="45.94702" lon="4.69081">
        <ele>342</ele>
        <time>2017-07-11T10:30:14Z</time>
      </trkpt>
      <trkpt lat="45.94707" lon="4.69082">
        <ele>343</ele>
        <time>2017-07-11T10:30:15Z</time>
      </trkpt>
      <trkpt lat="45.94712" lon="4.69084">
        <ele>344</ele>
        <time>2017-07-11T10:30:16Z</time>
      </trkpt>
      <trkpt lat="45.94717" lon="4.69085">
        <ele>344</ele>
        <time>2017-07-11T10:30:17Z</time>
      </trkpt>
      <trkpt lat="45.94722" lon="4.69087">
        <ele>344</ele>
        <time>2017-07-11T10:30:18Z</time>
      </trkpt>
      <trkpt lat="45.94726" lon="4.69089">
        <ele>344</ele>
        <time>2017-07-11T10:30:19Z</time>
      </trkpt>
      <trkpt lat="45.94732" lon="4.6909">
        <ele>344</ele>
        <time>2017-07-11T10:30:20Z</time>
      </trkpt>
      <trkpt lat="45.94737" lon="4.69092">
        <ele>344</ele>
        <time>2017-07-11T10:30:21Z</time>
      </trkpt>
      <trkpt lat="45.94742" lon="4.69093">
        <ele>344</ele>
        <time>2017-07-11T10:30:22Z</time>
      </trkpt>
      <trkpt lat="45.94746" lon="4.69095">
        <ele>345</ele>
        <time>2017-07-11T10:30:23Z</time>
      </trkpt>
      <trkpt lat="45.94751" lon="4.69097">
        <ele>345</ele>
        <time>2017-07-11T10:30:24Z</time>
      </trkpt>
      <trkpt lat="45.94756" lon="4.69098">
        <ele>345</ele>
        <time>2017-07-11T10:30:25Z</time>
      </trkpt>
      <trkpt lat="45.9476" lon="4.69099">
        <ele>344</ele>
        <time>2017-07-11T10:30:26Z</time>
      </trkpt>
      <trkpt lat="45.94765" lon="4.691">
        <ele>344</ele>
        <time>2017-07-11T10:30:27Z</time>
      </trkpt>
      <trkpt lat="45.94771" lon="4.69102">
        <ele>344</ele>
        <time>2017-07-11T10:30:28Z</time>
      </trkpt>
      <trkpt lat="45.94776" lon="4.69104">
        <ele>344</ele>
        <time>2017-07-11T10:30:29Z</time>
      </trkpt>
      <trkpt lat="45.94782" lon="4.69105">
        <ele>344</ele>
        <time>2017-07-11T10:30:30Z</time>
      </trkpt>
      <trkpt lat="45.94787" lon="4.69107">
        <ele>344</ele>
        <time>2017-07-11T10:30:31Z</time>
      </trkpt>
      <trkpt lat="45.94792" lon="4.69108">
        <ele>344</ele>
        <time>2017-07-11T10:30:32Z</time>
      </trkpt>
      <trkpt lat="45.94797" lon="4.6911">
        <ele>344</ele>
        <time>2017-07-11T10:30:33Z</time>
      </trkpt>
      <trkpt lat="45.94802" lon="4.69112">
        <ele>344</ele>
        <time>2017-07-11T10:30:34Z</time>
      </trkpt>
      <trkpt lat="45.94806" lon="4.69113">
        <ele>344</ele>
        <time>2017-07-11T10:30:35Z</time>
      </trkpt>
      <trkpt lat="45.94812" lon="4.69114">
        <ele>344</ele>
        <time>2017-07-11T10:30:36Z</time>
      </trkpt>
      <trkpt lat="45.94817" lon="4.69116">
        <ele>344</ele>
        <time>2017-07-11T10:30:37Z</time>
      </trkpt>
      <trkpt lat="45.94822" lon="4.69118">
        <ele>344</ele>
        <time>2017-07-11T10:30:38Z</time>
      </trkpt>
      <trkpt lat="45.94827" lon="4.6912">
        <ele>344</ele>
        <time>2017-07-11T10:30:39Z</time>
      </trkpt>
      <trkpt lat="45.94833" lon="4.69121">
        <ele>344</ele>
        <time>2017-07-11T10:30:40Z</time>
      </trkpt>
      <trkpt lat="45.94838" lon="4.69123">
        <ele>342</ele>
        <time>2017-07-11T10:30:41Z</time>
      </trkpt>
      <trkpt lat="45.94843" lon="4.69125">
        <ele>342</ele>
        <time>2017-07-11T10:30:42Z</time>
      </trkpt>
      <trkpt lat="45.94848" lon="4.69128">
        <ele>342</ele>
        <time>2017-07-11T10:30:43Z</time>
      </trkpt>
      <trkpt lat="45.94853" lon="4.6913">
        <ele>342</ele>
        <time>2017-07-11T10:30:44Z</time>
      </trkpt>
      <trkpt lat="45.94859" lon="4.69132">
        <ele>342</ele>
        <time>2017-07-11T10:30:45Z</time>
      </trkpt>
      <trkpt lat="45.94864" lon="4.69134">
        <ele>342</ele>
        <time>2017-07-11T10:30:46Z</time>
      </trkpt>
      <trkpt lat="45.94869" lon="4.69136">
        <ele>342</ele>
        <time>2017-07-11T10:30:47Z</time>
      </trkpt>
      <trkpt lat="45.94874" lon="4.69139">
        <ele>342</ele>
        <time>2017-07-11T10:30:48Z</time>
      </trkpt>
      <trkpt lat="45.94879" lon="4.69141">
        <ele>342</ele>
        <time>2017-07-11T10:30:49Z</time>
      </trkpt>
      <trkpt lat="45.94884" lon="4.69143">
        <ele>342</ele>
        <time>2017-07-11T10:30:50Z</time>
      </trkpt>
      <trkpt lat="45.9489" lon="4.69146">
        <ele>342</ele>
        <time>2017-07-11T10:30:51Z</time>
      </trkpt>
      <trkpt lat="45.94895" lon="4.69148">
        <ele>342</ele>
        <time>2017-07-11T10:30:52Z</time>
      </trkpt>
      <trkpt lat="45.94901" lon="4.69151">
        <ele>342</ele>
        <time>2017-07-11T10:30:53Z</time>
      </trkpt>
      <trkpt lat="45.94906" lon="4.69154">
        <ele>342</ele>
        <time>2017-07-11T10:30:54Z</time>
      </trkpt>
      <trkpt lat="45.94912" lon="4.69157">
        <ele>342</ele>
        <time>2017-07-11T10:30:55Z</time>
      </trkpt>
      <trkpt lat="45.94918" lon="4.69161">
        <ele>341</ele>
        <time>2017-07-11T10:30:56Z</time>
      </trkpt>
      <trkpt lat="45.94924" lon="4.69164">
        <ele>341</ele>
        <time>2017-07-11T10:30:57Z</time>
      </trkpt>
      <trkpt lat="45.9493" lon="4.69168">
        <ele>341</ele>
        <time>2017-07-11T10:30:58Z</time>
      </trkpt>
      <trkpt lat="45.94936" lon="4.69173">
        <ele>341</ele>
        <time>2017-07-11T10:30:59Z</time>
      </trkpt>
      <trkpt lat="45.94942" lon="4.69177">
        <ele>341</ele>
        <time>2017-07-11T10:31:00Z</time>
      </trkpt>
      <trkpt lat="45.94948" lon="4.69181">
        <ele>340</ele>
        <time>2017-07-11T10:31:01Z</time>
      </trkpt>
      <trkpt lat="45.94955" lon="4.69186">
        <ele>340</ele>
        <time>2017-07-11T10:31:02Z</time>
      </trkpt>
      <trkpt lat="45.94961" lon="4.69191">
        <ele>340</ele>
        <time>2017-07-11T10:31:03Z</time>
      </trkpt>
      <trkpt lat="45.94967" lon="4.69197">
        <ele>340</ele>
        <time>2017-07-11T10:31:04Z</time>
      </trkpt>
      <trkpt lat="45.94974" lon="4.69203">
        <ele>340</ele>
        <time>2017-07-11T10:31:05Z</time>
      </trkpt>
      <trkpt lat="45.94981" lon="4.69208">
        <ele>340</ele>
        <time>2017-07-11T10:31:06Z</time>
      </trkpt>
      <trkpt lat="45.94988" lon="4.69213">
        <ele>340</ele>
        <time>2017-07-11T10:31:07Z</time>
      </trkpt>
      <trkpt lat="45.94996" lon="4.69216">
        <ele>340</ele>
        <time>2017-07-11T10:31:08Z</time>
      </trkpt>
      <trkpt lat="45.95004" lon="4.69219">
        <ele>337</ele>
        <time>2017-07-11T10:31:09Z</time>
      </trkpt>
      <trkpt lat="45.95012" lon="4.69222">
        <ele>337</ele>
        <time>2017-07-11T10:31:10Z</time>
      </trkpt>
      <trkpt lat="45.9502" lon="4.69227">
        <ele>337</ele>
        <time>2017-07-11T10:31:11Z</time>
      </trkpt>
      <trkpt lat="45.95027" lon="4.69234">
        <ele>337</ele>
        <time>2017-07-11T10:31:12Z</time>
      </trkpt>
      <trkpt lat="45.95035" lon="4.69241">
        <ele>336</ele>
        <time>2017-07-11T10:31:13Z</time>
      </trkpt>
      <trkpt lat="45.95043" lon="4.69248">
        <ele>336</ele>
        <time>2017-07-11T10:31:14Z</time>
      </trkpt>
      <trkpt lat="45.9505" lon="4.69256">
        <ele>337</ele>
        <time>2017-07-11T10:31:15Z</time>
      </trkpt>
      <trkpt lat="45.95058" lon="4.69263">
        <ele>336</ele>
        <time>2017-07-11T10:31:16Z</time>
      </trkpt>
      <trkpt lat="45.95065" lon="4.69271">
        <ele>336</ele>
        <time>2017-07-11T10:31:17Z</time>
      </trkpt>
      <trkpt lat="45.95072" lon="4.6928">
        <ele>336</ele>
        <time>2017-07-11T10:31:18Z</time>
      </trkpt>
      <trkpt lat="45.95079" lon="4.69287">
        <ele>336</ele>
        <time>2017-07-11T10:31:19Z</time>
      </trkpt>
      <trkpt lat="45.95087" lon="4.69295">
        <ele>334</ele>
        <time>2017-07-11T10:31:20Z</time>
      </trkpt>
      <trkpt lat="45.95093" lon="4.69302">
        <ele>334</ele>
        <time>2017-07-11T10:31:21Z</time>
      </trkpt>
      <trkpt lat="45.951" lon="4.6931">
        <ele>334</ele>
        <time>2017-07-11T10:31:22Z</time>
      </trkpt>
      <trkpt lat="45.95106" lon="4.69317">
        <ele>334</ele>
        <time>2017-07-11T10:31:23Z</time>
      </trkpt>
      <trkpt lat="45.95112" lon="4.69324">
        <ele>334</ele>
        <time>2017-07-11T10:31:24Z</time>
      </trkpt>
      <trkpt lat="45.95119" lon="4.69332">
        <ele>334</ele>
        <time>2017-07-11T10:31:25Z</time>
      </trkpt>
      <trkpt lat="45.95125" lon="4.69338">
        <ele>336</ele>
        <time>2017-07-11T10:31:26Z</time>
      </trkpt>
      <trkpt lat="45.95131" lon="4.69345">
        <ele>337</ele>
        <time>2017-07-11T10:31:27Z</time>
      </trkpt>
      <trkpt lat="45.95137" lon="4.6935">
        <ele>337</ele>
        <time>2017-07-11T10:31:28Z</time>
      </trkpt>
      <trkpt lat="45.95143" lon="4.69356">
        <ele>337</ele>
        <time>2017-07-11T10:31:29Z</time>
      </trkpt>
      <trkpt lat="45.95148" lon="4.69361">
        <ele>337</ele>
        <time>2017-07-11T10:31:30Z</time>
      </trkpt>
      <trkpt lat="45.95153" lon="4.69367">
        <ele>337</ele>
        <time>2017-07-11T10:31:31Z</time>
      </trkpt>
      <trkpt lat="45.95158" lon="4.69371">
        <ele>337</ele>
        <time>2017-07-11T10:31:32Z</time>
      </trkpt>
      <trkpt lat="45.95162" lon="4.69375">
        <ele>337</ele>
        <time>2017-07-11T10:31:33Z</time>
      </trkpt>
      <trkpt lat="45.95167" lon="4.69379">
        <ele>337</ele>
        <time>2017-07-11T10:31:34Z</time>
      </trkpt>
      <trkpt lat="45.95171" lon="4.69384">
        <ele>337</ele>
        <time>2017-07-11T10:31:35Z</time>
      </trkpt>
      <trkpt lat="45.95176" lon="4.69388">
        <ele>337</ele>
        <time>2017-07-11T10:31:36Z</time>
      </trkpt>
      <trkpt lat="45.95181" lon="4.69392">
        <ele>337</ele>
        <time>2017-07-11T10:31:37Z</time>
      </trkpt>
      <trkpt lat="45.95186" lon="4.69396">
        <ele>337</ele>
        <time>2017-07-11T10:31:38Z</time>
      </trkpt>
      <trkpt lat="45.95192" lon="4.69399">
        <ele>337</ele>
        <time>2017-07-11T10:31:39Z</time>
      </trkpt>
      <trkpt lat="45.95197" lon="4.69402">
        <ele>337</ele>
        <time>2017-07-11T10:31:40Z</time>
      </trkpt>
      <trkpt lat="45.95203" lon="4.69405">
        <ele>337</ele>
        <time>2017-07-11T10:31:41Z</time>
      </trkpt>
      <trkpt lat="45.95209" lon="4.69408">
        <ele>337</ele>
        <time>2017-07-11T10:31:42Z</time>
      </trkpt>
      <trkpt lat="45.95215" lon="4.6941">
        <ele>337</ele>
        <time>2017-07-11T10:31:43Z</time>
      </trkpt>
      <trkpt lat="45.95221" lon="4.69413">
        <ele>337</ele>
        <time>2017-07-11T10:31:44Z</time>
      </trkpt>
      <trkpt lat="45.95226" lon="4.69416">
        <ele>337</ele>
        <time>2017-07-11T10:31:45Z</time>
      </trkpt>
      <trkpt lat="45.95232" lon="4.69418">
        <ele>339</ele>
        <time>2017-07-11T10:31:46Z</time>
      </trkpt>
      <trkpt lat="45.95237" lon="4.6942">
        <ele>339</ele>
        <time>2017-07-11T10:31:47Z</time>
      </trkpt>
      <trkpt lat="45.95242" lon="4.69424">
        <ele>339</ele>
        <time>2017-07-11T10:31:48Z</time>
      </trkpt>
      <trkpt lat="45.95247" lon="4.69427">
        <ele>339</ele>
        <time>2017-07-11T10:31:49Z</time>
      </trkpt>
      <trkpt lat="45.95252" lon="4.69429">
        <ele>338</ele>
        <time>2017-07-11T10:31:50Z</time>
      </trkpt>
      <trkpt lat="45.95257" lon="4.69432">
        <ele>338</ele>
        <time>2017-07-11T10:31:51Z</time>
      </trkpt>
      <trkpt lat="45.95263" lon="4.69434">
        <ele>338</ele>
        <time>2017-07-11T10:31:52Z</time>
      </trkpt>
      <trkpt lat="45.95268" lon="4.69437">
        <ele>338</ele>
        <time>2017-07-11T10:31:53Z</time>
      </trkpt>
      <trkpt lat="45.95272" lon="4.69439">
        <ele>338</ele>
        <time>2017-07-11T10:31:54Z</time>
      </trkpt>
      <trkpt lat="45.95277" lon="4.69442">
        <ele>338</ele>
        <time>2017-07-11T10:31:55Z</time>
      </trkpt>
      <trkpt lat="45.95282" lon="4.69444">
        <ele>338</ele>
        <time>2017-07-11T10:31:56Z</time>
      </trkpt>
      <trkpt lat="45.95287" lon="4.69446">
        <ele>338</ele>
        <time>2017-07-11T10:31:57Z</time>
      </trkpt>
      <trkpt lat="45.95293" lon="4.69448">
        <ele>338</ele>
        <time>2017-07-11T10:31:58Z</time>
      </trkpt>
      <trkpt lat="45.95297" lon="4.6945">
        <ele>338</ele>
        <time>2017-07-11T10:31:59Z</time>
      </trkpt>
      <trkpt lat="45.95302" lon="4.69452">
        <ele>338</ele>
        <time>2017-07-11T10:32:00Z</time>
      </trkpt>
      <trkpt lat="45.95306" lon="4.69455">
        <ele>338</ele>
        <time>2017-07-11T10:32:01Z</time>
      </trkpt>
      <trkpt lat="45.95311" lon="4.69457">
        <ele>338</ele>
        <time>2017-07-11T10:32:02Z</time>
      </trkpt>
      <trkpt lat="45.95315" lon="4.69459">
        <ele>338</ele>
        <time>2017-07-11T10:32:03Z</time>
      </trkpt>
      <trkpt lat="45.9532" lon="4.69461">
        <ele>338</ele>
        <time>2017-07-11T10:32:04Z</time>
      </trkpt>
      <trkpt lat="45.95325" lon="4.69464">
        <ele>339</ele>
        <time>2017-07-11T10:32:05Z</time>
      </trkpt>
      <trkpt lat="45.9533" lon="4.69466">
        <ele>339</ele>
        <time>2017-07-11T10:32:06Z</time>
      </trkpt>
      <trkpt lat="45.95335" lon="4.69469">
        <ele>337</ele>
        <time>2017-07-11T10:32:07Z</time>
      </trkpt>
      <trkpt lat="45.9534" lon="4.69472">
        <ele>337</ele>
        <time>2017-07-11T10:32:08Z</time>
      </trkpt>
      <trkpt lat="45.95345" lon="4.69475">
        <ele>337</ele>
        <time>2017-07-11T10:32:09Z</time>
      </trkpt>
      <trkpt lat="45.9535" lon="4.69478">
        <ele>337</ele>
        <time>2017-07-11T10:32:10Z</time>
      </trkpt>
      <trkpt lat="45.95354" lon="4.69481">
        <ele>337</ele>
        <time>2017-07-11T10:32:11Z</time>
      </trkpt>
      <trkpt lat="45.95359" lon="4.69484">
        <ele>337</ele>
        <time>2017-07-11T10:32:12Z</time>
      </trkpt>
      <trkpt lat="45.95363" lon="4.69487">
        <ele>337</ele>
        <time>2017-07-11T10:32:13Z</time>
      </trkpt>
      <trkpt lat="45.95368" lon="4.69491">
        <ele>337</ele>
        <time>2017-07-11T10:32:14Z</time>
      </trkpt>
      <trkpt lat="45.95372" lon="4.69495">
        <ele>337</ele>
        <time>2017-07-11T10:32:15Z</time>
      </trkpt>
      <trkpt lat="45.95377" lon="4.69498">
        <ele>337</ele>
        <time>2017-07-11T10:32:16Z</time>
      </trkpt>
      <trkpt lat="45.95382" lon="4.69502">
        <ele>340</ele>
        <time>2017-07-11T10:32:17Z</time>
      </trkpt>
      <trkpt lat="45.95387" lon="4.69505">
        <ele>340</ele>
        <time>2017-07-11T10:32:18Z</time>
      </trkpt>
      <trkpt lat="45.95393" lon="4.69509">
        <ele>339</ele>
        <time>2017-07-11T10:32:19Z</time>
      </trkpt>
      <trkpt lat="45.95398" lon="4.69513">
        <ele>339</ele>
        <time>2017-07-11T10:32:20Z</time>
      </trkpt>
      <trkpt lat="45.95404" lon="4.69516">
        <ele>339</ele>
        <time>2017-07-11T10:32:21Z</time>
      </trkpt>
      <trkpt lat="45.95409" lon="4.69519">
        <ele>339</ele>
        <time>2017-07-11T10:32:22Z</time>
      </trkpt>
      <trkpt lat="45.95414" lon="4.69522">
        <ele>339</ele>
        <time>2017-07-11T10:32:23Z</time>
      </trkpt>
      <trkpt lat="45.9542" lon="4.69525">
        <ele>337</ele>
        <time>2017-07-11T10:32:24Z</time>
      </trkpt>
      <trkpt lat="45.95425" lon="4.69528">
        <ele>337</ele>
        <time>2017-07-11T10:32:25Z</time>
      </trkpt>
      <trkpt lat="45.95431" lon="4.69531">
        <ele>337</ele>
        <time>2017-07-11T10:32:26Z</time>
      </trkpt>
      <trkpt lat="45.95437" lon="4.69533">
        <ele>337</ele>
        <time>2017-07-11T10:32:27Z</time>
      </trkpt>
      <trkpt lat="45.95443" lon="4.69537">
        <ele>337</ele>
        <time>2017-07-11T10:32:28Z</time>
      </trkpt>
      <trkpt lat="45.95448" lon="4.6954">
        <ele>337</ele>
        <time>2017-07-11T10:32:29Z</time>
      </trkpt>
      <trkpt lat="45.95453" lon="4.69543">
        <ele>337</ele>
        <time>2017-07-11T10:32:30Z</time>
      </trkpt>
      <trkpt lat="45.95459" lon="4.69546">
        <ele>337</ele>
        <time>2017-07-11T10:32:31Z</time>
      </trkpt>
      <trkpt lat="45.95464" lon="4.69549">
        <ele>337</ele>
        <time>2017-07-11T10:32:32Z</time>
      </trkpt>
      <trkpt lat="45.95471" lon="4.69552">
        <ele>336</ele>
        <time>2017-07-11T10:32:33Z</time>
      </trkpt>
      <trkpt lat="45.95478" lon="4.69555">
        <ele>336</ele>
        <time>2017-07-11T10:32:34Z</time>
      </trkpt>
      <trkpt lat="45.95484" lon="4.69558">
        <ele>336</ele>
        <time>2017-07-11T10:32:35Z</time>
      </trkpt>
      <trkpt lat="45.95491" lon="4.69561">
        <ele>336</ele>
        <time>2017-07-11T10:32:36Z</time>
      </trkpt>
      <trkpt lat="45.95498" lon="4.69563">
        <ele>336</ele>
        <time>2017-07-11T10:32:37Z</time>
      </trkpt>
      <trkpt lat="45.95504" lon="4.69566">
        <ele>334</ele>
        <time>2017-07-11T10:32:38Z</time>
      </trkpt>
      <trkpt lat="45.95511" lon="4.6957">
        <ele>334</ele>
        <time>2017-07-11T10:32:39Z</time>
      </trkpt>
      <trkpt lat="45.95518" lon="4.69573">
        <ele>333</ele>
        <time>2017-07-11T10:32:40Z</time>
      </trkpt>
      <trkpt lat="45.95525" lon="4.69576">
        <ele>333</ele>
        <time>2017-07-11T10:32:41Z</time>
      </trkpt>
      <trkpt lat="45.95532" lon="4.69579">
        <ele>332</ele>
        <time>2017-07-11T10:32:42Z</time>
      </trkpt>
      <trkpt lat="45.95539" lon="4.69583">
        <ele>332</ele>
        <time>2017-07-11T10:32:43Z</time>
      </trkpt>
      <trkpt lat="45.95547" lon="4.69587">
        <ele>331</ele>
        <time>2017-07-11T10:32:44Z</time>
      </trkpt>
      <trkpt lat="45.95555" lon="4.6959">
        <ele>331</ele>
        <time>2017-07-11T10:32:45Z</time>
      </trkpt>
      <trkpt lat="45.95563" lon="4.69593">
        <ele>330</ele>
        <time>2017-07-11T10:32:46Z</time>
      </trkpt>
      <trkpt lat="45.95572" lon="4.69596">
        <ele>330</ele>
        <time>2017-07-11T10:32:47Z</time>
      </trkpt>
      <trkpt lat="45.9558" lon="4.696">
        <ele>329</ele>
        <time>2017-07-11T10:32:48Z</time>
      </trkpt>
      <trkpt lat="45.95588" lon="4.69603">
        <ele>328</ele>
        <time>2017-07-11T10:32:49Z</time>
      </trkpt>
      <trkpt lat="45.95597" lon="4.69607">
        <ele>328</ele>
        <time>2017-07-11T10:32:50Z</time>
      </trkpt>
      <trkpt lat="45.95606" lon="4.69611">
        <ele>328</ele>
        <time>2017-07-11T10:32:51Z</time>
      </trkpt>
      <trkpt lat="45.95615" lon="4.69614">
        <ele>328</ele>
        <time>2017-07-11T10:32:52Z</time>
      </trkpt>
      <trkpt lat="45.95624" lon="4.69618">
        <ele>328</ele>
        <time>2017-07-11T10:32:53Z</time>
      </trkpt>
      <trkpt lat="45.95633" lon="4.69622">
        <ele>328</ele>
        <time>2017-07-11T10:32:54Z</time>
      </trkpt>
      <trkpt lat="45.95642" lon="4.69625">
        <ele>328</ele>
        <time>2017-07-11T10:32:55Z</time>
      </trkpt>
      <trkpt lat="45.9565" lon="4.69629">
        <ele>328</ele>
        <time>2017-07-11T10:32:56Z</time>
      </trkpt>
      <trkpt lat="45.95659" lon="4.69633">
        <ele>327</ele>
        <time>2017-07-11T10:32:57Z</time>
      </trkpt>
      <trkpt lat="45.95668" lon="4.69637">
        <ele>326</ele>
        <time>2017-07-11T10:32:58Z</time>
      </trkpt>
      <trkpt lat="45.95676" lon="4.69641">
        <ele>326</ele>
        <time>2017-07-11T10:32:59Z</time>
      </trkpt>
      <trkpt lat="45.95684" lon="4.69645">
        <ele>326</ele>
        <time>2017-07-11T10:33:00Z</time>
      </trkpt>
      <trkpt lat="45.95693" lon="4.69649">
        <ele>326</ele>
        <time>2017-07-11T10:33:01Z</time>
      </trkpt>
      <trkpt lat="45.95701" lon="4.69652">
        <ele>326</ele>
        <time>2017-07-11T10:33:02Z</time>
      </trkpt>
      <trkpt lat="45.9571" lon="4.69655">
        <ele>326</ele>
        <time>2017-07-11T10:33:03Z</time>
      </trkpt>
      <trkpt lat="45.95718" lon="4.69658">
        <ele>326</ele>
        <time>2017-07-11T10:33:04Z</time>
      </trkpt>
      <trkpt lat="45.95725" lon="4.69662">
        <ele>326</ele>
        <time>2017-07-11T10:33:05Z</time>
      </trkpt>
      <trkpt lat="45.95733" lon="4.69665">
        <ele>326</ele>
        <time>2017-07-11T10:33:06Z</time>
      </trkpt>
      <trkpt lat="45.95741" lon="4.69669">
        <ele>326</ele>
        <time>2017-07-11T10:33:07Z</time>
      </trkpt>
      <trkpt lat="45.95748" lon="4.69673">
        <ele>326</ele>
        <time>2017-07-11T10:33:08Z</time>
      </trkpt>
      <trkpt lat="45.95755" lon="4.69678">
        <ele>326</ele>
        <time>2017-07-11T10:33:09Z</time>
      </trkpt>
      <trkpt lat="45.95762" lon="4.69682">
        <ele>326</ele>
        <time>2017-07-11T10:33:10Z</time>
      </trkpt>
      <trkpt lat="45.95769" lon="4.69686">
        <ele>326</ele>
        <time>2017-07-11T10:33:11Z</time>
      </trkpt>
      <trkpt lat="45.95776" lon="4.6969">
        <ele>326</ele>
        <time>2017-07-11T10:33:12Z</time>
      </trkpt>
      <trkpt lat="45.95782" lon="4.69694">
        <ele>326</ele>
        <time>2017-07-11T10:33:13Z</time>
      </trkpt>
      <trkpt lat="45.95787" lon="4.697">
        <ele>326</ele>
        <time>2017-07-11T10:33:14Z</time>
      </trkpt>
      <trkpt lat="45.95792" lon="4.69706">
        <ele>326</ele>
        <time>2017-07-11T10:33:15Z</time>
      </trkpt>
      <trkpt lat="45.95797" lon="4.69712">
        <ele>326</ele>
        <time>2017-07-11T10:33:16Z</time>
      </trkpt>
      <trkpt lat="45.95801" lon="4.69718">
        <ele>326</ele>
        <time>2017-07-11T10:33:17Z</time>
      </trkpt>
      <trkpt lat="45.95805" lon="4.69724">
        <ele>326</ele>
        <time>2017-07-11T10:33:18Z</time>
      </trkpt>
      <trkpt lat="45.95809" lon="4.69731">
        <ele>326</ele>
        <time>2017-07-11T10:33:19Z</time>
      </trkpt>
      <trkpt lat="45.95813" lon="4.69737">
        <ele>327</ele>
        <time>2017-07-11T10:33:20Z</time>
      </trkpt>
      <trkpt lat="45.95818" lon="4.69744">
        <ele>327</ele>
        <time>2017-07-11T10:33:21Z</time>
      </trkpt>
      <trkpt lat="45.95822" lon="4.6975">
        <ele>327</ele>
        <time>2017-07-11T10:33:22Z</time>
      </trkpt>
      <trkpt lat="45.95825" lon="4.69757">
        <ele>328</ele>
        <time>2017-07-11T10:33:23Z</time>
      </trkpt>
      <trkpt lat="45.95829" lon="4.69764">
        <ele>328</ele>
        <time>2017-07-11T10:33:24Z</time>
      </trkpt>
      <trkpt lat="45.95833" lon="4.6977">
        <ele>328</ele>
        <time>2017-07-11T10:33:25Z</time>
      </trkpt>
      <trkpt lat="45.95837" lon="4.69777">
        <ele>327</ele>
        <time>2017-07-11T10:33:26Z</time>
      </trkpt>
      <trkpt lat="45.9584" lon="4.69783">
        <ele>327</ele>
        <time>2017-07-11T10:33:27Z</time>
      </trkpt>
      <trkpt lat="45.95843" lon="4.69789">
        <ele>327</ele>
        <time>2017-07-11T10:33:28Z</time>
      </trkpt>
      <trkpt lat="45.95847" lon="4.69796">
        <ele>327</ele>
        <time>2017-07-11T10:33:29Z</time>
      </trkpt>
      <trkpt lat="45.9585" lon="4.69803">
        <ele>327</ele>
        <time>2017-07-11T10:33:30Z</time>
      </trkpt>
      <trkpt lat="45.95854" lon="4.6981">
        <ele>328</ele>
        <time>2017-07-11T10:33:31Z</time>
      </trkpt>
      <trkpt lat="45.95857" lon="4.69817">
        <ele>328</ele>
        <time>2017-07-11T10:33:32Z</time>
      </trkpt>
      <trkpt lat="45.9586" lon="4.69825">
        <ele>328</ele>
        <time>2017-07-11T10:33:33Z</time>
      </trkpt>
      <trkpt lat="45.95863" lon="4.69833">
        <ele>328</ele>
        <time>2017-07-11T10:33:34Z</time>
      </trkpt>
      <trkpt lat="45.95865" lon="4.69841">
        <ele>329</ele>
        <time>2017-07-11T10:33:35Z</time>
      </trkpt>
      <trkpt lat="45.95868" lon="4.69848">
        <ele>329</ele>
        <time>2017-07-11T10:33:36Z</time>
      </trkpt>
      <trkpt lat="45.95871" lon="4.69856">
        <ele>329</ele>
        <time>2017-07-11T10:33:37Z</time>
      </trkpt>
      <trkpt lat="45.95873" lon="4.69863">
        <ele>329</ele>
        <time>2017-07-11T10:33:38Z</time>
      </trkpt>
      <trkpt lat="45.95875" lon="4.6987">
        <ele>329</ele>
        <time>2017-07-11T10:33:39Z</time>
      </trkpt>
      <trkpt lat="45.95877" lon="4.69878">
        <ele>329</ele>
        <time>2017-07-11T10:33:40Z</time>
      </trkpt>
      <trkpt lat="45.95879" lon="4.69885">
        <ele>329</ele>
        <time>2017-07-11T10:33:41Z</time>
      </trkpt>
      <trkpt lat="45.95881" lon="4.69892">
        <ele>329</ele>
        <time>2017-07-11T10:33:42Z</time>
      </trkpt>
      <trkpt lat="45.95883" lon="4.69899">
        <ele>329</ele>
        <time>2017-07-11T10:33:43Z</time>
      </trkpt>
      <trkpt lat="45.95885" lon="4.69906">
        <ele>329</ele>
        <time>2017-07-11T10:33:44Z</time>
      </trkpt>
      <trkpt lat="45.95887" lon="4.69914">
        <ele>329</ele>
        <time>2017-07-11T10:33:45Z</time>
      </trkpt>
      <trkpt lat="45.95888" lon="4.69922">
        <ele>328</ele>
        <time>2017-07-11T10:33:46Z</time>
      </trkpt>
      <trkpt lat="45.9589" lon="4.69929">
        <ele>328</ele>
        <time>2017-07-11T10:33:47Z</time>
      </trkpt>
      <trkpt lat="45.95892" lon="4.69936">
        <ele>328</ele>
        <time>2017-07-11T10:33:48Z</time>
      </trkpt>
      <trkpt lat="45.95893" lon="4.69943">
        <ele>328</ele>
        <time>2017-07-11T10:33:49Z</time>
      </trkpt>
      <trkpt lat="45.95895" lon="4.6995">
        <ele>328</ele>
        <time>2017-07-11T10:33:50Z</time>
      </trkpt>
      <trkpt lat="45.95896" lon="4.69958">
        <ele>328</ele>
        <time>2017-07-11T10:33:51Z</time>
      </trkpt>
      <trkpt lat="45.95898" lon="4.69965">
        <ele>328</ele>
        <time>2017-07-11T10:33:52Z</time>
      </trkpt>
      <trkpt lat="45.959" lon="4.69973">
        <ele>328</ele>
        <time>2017-07-11T10:33:53Z</time>
      </trkpt>
      <trkpt lat="45.95901" lon="4.69979">
        <ele>328</ele>
        <time>2017-07-11T10:33:54Z</time>
      </trkpt>
      <trkpt lat="45.95903" lon="4.69986">
        <ele>328</ele>
        <time>2017-07-11T10:33:55Z</time>
      </trkpt>
      <trkpt lat="45.95906" lon="4.69993">
        <ele>328</ele>
        <time>2017-07-11T10:33:56Z</time>
      </trkpt>
      <trkpt lat="45.95908" lon="4.69999">
        <ele>328</ele>
        <time>2017-07-11T10:33:57Z</time>
      </trkpt>
      <trkpt lat="45.9591" lon="4.70006">
        <ele>328</ele>
        <time>2017-07-11T10:33:58Z</time>
      </trkpt>
      <trkpt lat="45.95912" lon="4.70013">
        <ele>328</ele>
        <time>2017-07-11T10:33:59Z</time>
      </trkpt>
      <trkpt lat="45.95915" lon="4.70019">
        <ele>328</ele>
        <time>2017-07-11T10:34:00Z</time>
      </trkpt>
      <trkpt lat="45.95918" lon="4.70025">
        <ele>328</ele>
        <time>2017-07-11T10:34:01Z</time>
      </trkpt>
      <trkpt lat="45.95922" lon="4.70031">
        <ele>328</ele>
        <time>2017-07-11T10:34:02Z</time>
      </trkpt>
      <trkpt lat="45.95925" lon="4.70038">
        <ele>328</ele>
        <time>2017-07-11T10:34:03Z</time>
      </trkpt>
      <trkpt lat="45.95929" lon="4.70044">
        <ele>328</ele>
        <time>2017-07-11T10:34:04Z</time>
      </trkpt>
      <trkpt lat="45.95933" lon="4.70051">
        <ele>328</ele>
        <time>2017-07-11T10:34:05Z</time>
      </trkpt>
      <trkpt lat="45.95937" lon="4.70057">
        <ele>328</ele>
        <time>2017-07-11T10:34:06Z</time>
      </trkpt>
      <trkpt lat="45.95941" lon="4.70064">
        <ele>328</ele>
        <time>2017-07-11T10:34:07Z</time>
      </trkpt>
      <trkpt lat="45.95946" lon="4.7007">
        <ele>328</ele>
        <time>2017-07-11T10:34:08Z</time>
      </trkpt>
      <trkpt lat="45.95951" lon="4.70075">
        <ele>328</ele>
        <time>2017-07-11T10:34:09Z</time>
      </trkpt>
      <trkpt lat="45.95955" lon="4.7008">
        <ele>328</ele>
        <time>2017-07-11T10:34:10Z</time>
      </trkpt>
      <trkpt lat="45.95959" lon="4.70085">
        <ele>328</ele>
        <time>2017-07-11T10:34:11Z</time>
      </trkpt>
      <trkpt lat="45.95964" lon="4.7009">
        <ele>328</ele>
        <time>2017-07-11T10:34:12Z</time>
      </trkpt>
      <trkpt lat="45.95968" lon="4.70094">
        <ele>328</ele>
        <time>2017-07-11T10:34:13Z</time>
      </trkpt>
      <trkpt lat="45.95972" lon="4.70098">
        <ele>328</ele>
        <time>2017-07-11T10:34:14Z</time>
      </trkpt>
      <trkpt lat="45.95976" lon="4.70103">
        <ele>328</ele>
        <time>2017-07-11T10:34:15Z</time>
      </trkpt>
      <trkpt lat="45.9598" lon="4.70107">
        <ele>328</ele>
        <time>2017-07-11T10:34:16Z</time>
      </trkpt>
      <trkpt lat="45.95985" lon="4.70112">
        <ele>328</ele>
        <time>2017-07-11T10:34:17Z</time>
      </trkpt>
      <trkpt lat="45.95989" lon="4.70116">
        <ele>328</ele>
        <time>2017-07-11T10:34:18Z</time>
      </trkpt>
      <trkpt lat="45.95994" lon="4.7012">
        <ele>328</ele>
        <time>2017-07-11T10:34:19Z</time>
      </trkpt>
      <trkpt lat="45.95999" lon="4.70124">
        <ele>328</ele>
        <time>2017-07-11T10:34:20Z</time>
      </trkpt>
      <trkpt lat="45.96003" lon="4.70128">
        <ele>328</ele>
        <time>2017-07-11T10:34:21Z</time>
      </trkpt>
      <trkpt lat="45.96007" lon="4.70132">
        <ele>328</ele>
        <time>2017-07-11T10:34:22Z</time>
      </trkpt>
      <trkpt lat="45.96011" lon="4.70136">
        <ele>328</ele>
        <time>2017-07-11T10:34:23Z</time>
      </trkpt>
      <trkpt lat="45.96015" lon="4.70139">
        <ele>329</ele>
        <time>2017-07-11T10:34:24Z</time>
      </trkpt>
      <trkpt lat="45.9602" lon="4.70143">
        <ele>329</ele>
        <time>2017-07-11T10:34:25Z</time>
      </trkpt>
      <trkpt lat="45.96024" lon="4.70146">
        <ele>329</ele>
        <time>2017-07-11T10:34:26Z</time>
      </trkpt>
      <trkpt lat="45.96028" lon="4.70151">
        <ele>329</ele>
        <time>2017-07-11T10:34:27Z</time>
      </trkpt>
      <trkpt lat="45.96033" lon="4.70155">
        <ele>329</ele>
        <time>2017-07-11T10:34:28Z</time>
      </trkpt>
      <trkpt lat="45.96038" lon="4.70159">
        <ele>329</ele>
        <time>2017-07-11T10:34:29Z</time>
      </trkpt>
      <trkpt lat="45.96042" lon="4.70164">
        <ele>328</ele>
        <time>2017-07-11T10:34:30Z</time>
      </trkpt>
      <trkpt lat="45.96048" lon="4.70168">
        <ele>327</ele>
        <time>2017-07-11T10:34:31Z</time>
      </trkpt>
      <trkpt lat="45.96053" lon="4.70173">
        <ele>327</ele>
        <time>2017-07-11T10:34:32Z</time>
      </trkpt>
      <trkpt lat="45.96058" lon="4.70178">
        <ele>327</ele>
        <time>2017-07-11T10:34:33Z</time>
      </trkpt>
      <trkpt lat="45.96063" lon="4.70182">
        <ele>327</ele>
        <time>2017-07-11T10:34:34Z</time>
      </trkpt>
      <trkpt lat="45.96069" lon="4.70186">
        <ele>327</ele>
        <time>2017-07-11T10:34:35Z</time>
      </trkpt>
      <trkpt lat="45.96074" lon="4.7019">
        <ele>327</ele>
        <time>2017-07-11T10:34:36Z</time>
      </trkpt>
      <trkpt lat="45.9608" lon="4.70195">
        <ele>327</ele>
        <time>2017-07-11T10:34:37Z</time>
      </trkpt>
      <trkpt lat="45.96085" lon="4.702">
        <ele>327</ele>
        <time>2017-07-11T10:34:38Z</time>
      </trkpt>
      <trkpt lat="45.96091" lon="4.70205">
        <ele>327</ele>
        <time>2017-07-11T10:34:39Z</time>
      </trkpt>
      <trkpt lat="45.96097" lon="4.70209">
        <ele>327</ele>
        <time>2017-07-11T10:34:40Z</time>
      </trkpt>
      <trkpt lat="45.96102" lon="4.70214">
        <ele>327</ele>
        <time>2017-07-11T10:34:41Z</time>
      </trkpt>
      <trkpt lat="45.96108" lon="4.7022">
        <ele>327</ele>
        <time>2017-07-11T10:34:42Z</time>
      </trkpt>
      <trkpt lat="45.96114" lon="4.70226">
        <ele>327</ele>
        <time>2017-07-11T10:34:43Z</time>
      </trkpt>
      <trkpt lat="45.9612" lon="4.70231">
        <ele>327</ele>
        <time>2017-07-11T10:34:44Z</time>
      </trkpt>
      <trkpt lat="45.96126" lon="4.70237">
        <ele>327</ele>
        <time>2017-07-11T10:34:45Z</time>
      </trkpt>
      <trkpt lat="45.96132" lon="4.70244">
        <ele>327</ele>
        <time>2017-07-11T10:34:46Z</time>
      </trkpt>
      <trkpt lat="45.96138" lon="4.7025">
        <ele>327</ele>
        <time>2017-07-11T10:34:47Z</time>
      </trkpt>
      <trkpt lat="45.96144" lon="4.70256">
        <ele>324</ele>
        <time>2017-07-11T10:34:48Z</time>
      </trkpt>
      <trkpt lat="45.96149" lon="4.70262">
        <ele>324</ele>
        <time>2017-07-11T10:34:49Z</time>
      </trkpt>
      <trkpt lat="45.96155" lon="4.70268">
        <ele>324</ele>
        <time>2017-07-11T10:34:50Z</time>
      </trkpt>
      <trkpt lat="45.96161" lon="4.70274">
        <ele>324</ele>
        <time>2017-07-11T10:34:51Z</time>
      </trkpt>
      <trkpt lat="45.96167" lon="4.7028">
        <ele>327</ele>
        <time>2017-07-11T10:34:52Z</time>
      </trkpt>
      <trkpt lat="45.96173" lon="4.70287">
        <ele>326</ele>
        <time>2017-07-11T10:34:53Z</time>
      </trkpt>
      <trkpt lat="45.96178" lon="4.70294">
        <ele>326</ele>
        <time>2017-07-11T10:34:54Z</time>
      </trkpt>
      <trkpt lat="45.96184" lon="4.70301">
        <ele>326</ele>
        <time>2017-07-11T10:34:55Z</time>
      </trkpt>
      <trkpt lat="45.96189" lon="4.70308">
        <ele>325</ele>
        <time>2017-07-11T10:34:56Z</time>
      </trkpt>
      <trkpt lat="45.96194" lon="4.70316">
        <ele>325</ele>
        <time>2017-07-11T10:34:57Z</time>
      </trkpt>
      <trkpt lat="45.96199" lon="4.70324">
        <ele>325</ele>
        <time>2017-07-11T10:34:58Z</time>
      </trkpt>
      <trkpt lat="45.96204" lon="4.70332">
        <ele>326</ele>
        <time>2017-07-11T10:34:59Z</time>
      </trkpt>
      <trkpt lat="45.96209" lon="4.70339">
        <ele>321</ele>
        <time>2017-07-11T10:35:00Z</time>
      </trkpt>
      <trkpt lat="45.96214" lon="4.70347">
        <ele>321</ele>
        <time>2017-07-11T10:35:01Z</time>
      </trkpt>
      <trkpt lat="45.96219" lon="4.70355">
        <ele>321</ele>
        <time>2017-07-11T10:35:02Z</time>
      </trkpt>
      <trkpt lat="45.96224" lon="4.70363">
        <ele>321</ele>
        <time>2017-07-11T10:35:03Z</time>
      </trkpt>
      <trkpt lat="45.96229" lon="4.70371">
        <ele>321</ele>
        <time>2017-07-11T10:35:04Z</time>
      </trkpt>
      <trkpt lat="45.96234" lon="4.70379">
        <ele>320</ele>
        <time>2017-07-11T10:35:05Z</time>
      </trkpt>
      <trkpt lat="45.96239" lon="4.70387">
        <ele>320</ele>
        <time>2017-07-11T10:35:06Z</time>
      </trkpt>
      <trkpt lat="45.96245" lon="4.70394">
        <ele>320</ele>
        <time>2017-07-11T10:35:07Z</time>
      </trkpt>
      <trkpt lat="45.9625" lon="4.70402">
        <ele>324</ele>
        <time>2017-07-11T10:35:08Z</time>
      </trkpt>
      <trkpt lat="45.96256" lon="4.70409">
        <ele>323</ele>
        <time>2017-07-11T10:35:09Z</time>
      </trkpt>
      <trkpt lat="45.96261" lon="4.70416">
        <ele>323</ele>
        <time>2017-07-11T10:35:10Z</time>
      </trkpt>
      <trkpt lat="45.96267" lon="4.70424">
        <ele>321</ele>
        <time>2017-07-11T10:35:11Z</time>
      </trkpt>
      <trkpt lat="45.96272" lon="4.70432">
        <ele>321</ele>
        <time>2017-07-11T10:35:12Z</time>
      </trkpt>
      <trkpt lat="45.96278" lon="4.7044">
        <ele>321</ele>
        <time>2017-07-11T10:35:13Z</time>
      </trkpt>
      <trkpt lat="45.96283" lon="4.70448">
        <ele>321</ele>
        <time>2017-07-11T10:35:14Z</time>
      </trkpt>
      <trkpt lat="45.96288" lon="4.70457">
        <ele>321</ele>
        <time>2017-07-11T10:35:15Z</time>
      </trkpt>
      <trkpt lat="45.96294" lon="4.70465">
        <ele>321</ele>
        <time>2017-07-11T10:35:16Z</time>
      </trkpt>
      <trkpt lat="45.96299" lon="4.70474">
        <ele>320</ele>
        <time>2017-07-11T10:35:17Z</time>
      </trkpt>
      <trkpt lat="45.96306" lon="4.70481">
        <ele>320</ele>
        <time>2017-07-11T10:35:18Z</time>
      </trkpt>
      <trkpt lat="45.96312" lon="4.70488">
        <ele>320</ele>
        <time>2017-07-11T10:35:19Z</time>
      </trkpt>
      <trkpt lat="45.96317" lon="4.70497">
        <ele>320</ele>
        <time>2017-07-11T10:35:20Z</time>
      </trkpt>
      <trkpt lat="45.96323" lon="4.70504">
        <ele>317</ele>
        <time>2017-07-11T10:35:21Z</time>
      </trkpt>
      <trkpt lat="45.96329" lon="4.70513">
        <ele>317</ele>
        <time>2017-07-11T10:35:22Z</time>
      </trkpt>
      <trkpt lat="45.96335" lon="4.70522">
        <ele>319</ele>
        <time>2017-07-11T10:35:23Z</time>
      </trkpt>
      <trkpt lat="45.96342" lon="4.7053">
        <ele>319</ele>
        <time>2017-07-11T10:35:24Z</time>
      </trkpt>
      <trkpt lat="45.96348" lon="4.70539">
        <ele>319</ele>
        <time>2017-07-11T10:35:25Z</time>
      </trkpt>
      <trkpt lat="45.96355" lon="4.70548">
        <ele>318</ele>
        <time>2017-07-11T10:35:26Z</time>
      </trkpt>
      <trkpt lat="45.96362" lon="4.70557">
        <ele>318</ele>
        <time>2017-07-11T10:35:27Z</time>
      </trkpt>
      <trkpt lat="45.96369" lon="4.70566">
        <ele>318</ele>
        <time>2017-07-11T10:35:28Z</time>
      </trkpt>
      <trkpt lat="45.96376" lon="4.70574">
        <ele>318</ele>
        <time>2017-07-11T10:35:29Z</time>
      </trkpt>
      <trkpt lat="45.96383" lon="4.70583">
        <ele>318</ele>
        <time>2017-07-11T10:35:30Z</time>
      </trkpt>
      <trkpt lat="45.96391" lon="4.70592">
        <ele>312</ele>
        <time>2017-07-11T10:35:31Z</time>
      </trkpt>
      <trkpt lat="45.96398" lon="4.70601">
        <ele>313</ele>
        <time>2017-07-11T10:35:32Z</time>
      </trkpt>
      <trkpt lat="45.96406" lon="4.7061">
        <ele>312</ele>
        <time>2017-07-11T10:35:33Z</time>
      </trkpt>
      <trkpt lat="45.96413" lon="4.7062">
        <ele>311</ele>
        <time>2017-07-11T10:35:34Z</time>
      </trkpt>
      <trkpt lat="45.96421" lon="4.70629">
        <ele>313</ele>
        <time>2017-07-11T10:35:35Z</time>
      </trkpt>
      <trkpt lat="45.96429" lon="4.70638">
        <ele>313</ele>
        <time>2017-07-11T10:35:36Z</time>
      </trkpt>
      <trkpt lat="45.96437" lon="4.70647">
        <ele>312</ele>
        <time>2017-07-11T10:35:37Z</time>
      </trkpt>
      <trkpt lat="45.96445" lon="4.70657">
        <ele>312</ele>
        <time>2017-07-11T10:35:38Z</time>
      </trkpt>
      <trkpt lat="45.96454" lon="4.70665">
        <ele>312</ele>
        <time>2017-07-11T10:35:39Z</time>
      </trkpt>
      <trkpt lat="45.96463" lon="4.70674">
        <ele>305</ele>
        <time>2017-07-11T10:35:40Z</time>
      </trkpt>
      <trkpt lat="45.96472" lon="4.70682">
        <ele>305</ele>
        <time>2017-07-11T10:35:41Z</time>
      </trkpt>
      <trkpt lat="45.96481" lon="4.70689">
        <ele>305</ele>
        <time>2017-07-11T10:35:42Z</time>
      </trkpt>
      <trkpt lat="45.9649" lon="4.70698">
        <ele>305</ele>
        <time>2017-07-11T10:35:43Z</time>
      </trkpt>
      <trkpt lat="45.96499" lon="4.70705">
        <ele>304</ele>
        <time>2017-07-11T10:35:44Z</time>
      </trkpt>
      <trkpt lat="45.96509" lon="4.70713">
        <ele>306</ele>
        <time>2017-07-11T10:35:45Z</time>
      </trkpt>
      <trkpt lat="45.96519" lon="4.7072">
        <ele>305</ele>
        <time>2017-07-11T10:35:46Z</time>
      </trkpt>
      <trkpt lat="45.96529" lon="4.70728">
        <ele>305</ele>
        <time>2017-07-11T10:35:47Z</time>
      </trkpt>
      <trkpt lat="45.96539" lon="4.70737">
        <ele>305</ele>
        <time>2017-07-11T10:35:48Z</time>
      </trkpt>
      <trkpt lat="45.96549" lon="4.70745">
        <ele>305</ele>
        <time>2017-07-11T10:35:49Z</time>
      </trkpt>
      <trkpt lat="45.96559" lon="4.70753">
        <ele>299</ele>
        <time>2017-07-11T10:35:50Z</time>
      </trkpt>
      <trkpt lat="45.9657" lon="4.70761">
        <ele>299</ele>
        <time>2017-07-11T10:35:51Z</time>
      </trkpt>
      <trkpt lat="45.96581" lon="4.70769">
        <ele>299</ele>
        <time>2017-07-11T10:35:52Z</time>
      </trkpt>
      <trkpt lat="45.96592" lon="4.70777">
        <ele>299</ele>
        <time>2017-07-11T10:35:53Z</time>
      </trkpt>
      <trkpt lat="45.96604" lon="4.70786">
        <ele>299</ele>
        <time>2017-07-11T10:35:54Z</time>
      </trkpt>
      <trkpt lat="45.96616" lon="4.70793">
        <ele>298</ele>
        <time>2017-07-11T10:35:55Z</time>
      </trkpt>
      <trkpt lat="45.96627" lon="4.70801">
        <ele>298</ele>
        <time>2017-07-11T10:35:56Z</time>
      </trkpt>
      <trkpt lat="45.96639" lon="4.70808">
        <ele>298</ele>
        <time>2017-07-11T10:35:57Z</time>
      </trkpt>
      <trkpt lat="45.9665" lon="4.70816">
        <ele>297</ele>
        <time>2017-07-11T10:35:58Z</time>
      </trkpt>
      <trkpt lat="45.96662" lon="4.70824">
        <ele>296</ele>
        <time>2017-07-11T10:35:59Z</time>
      </trkpt>
      <trkpt lat="45.96673" lon="4.70831">
        <ele>296</ele>
        <time>2017-07-11T10:36:00Z</time>
      </trkpt>
      <trkpt lat="45.96684" lon="4.70839">
        <ele>292</ele>
        <time>2017-07-11T10:36:01Z</time>
      </trkpt>
      <trkpt lat="45.96696" lon="4.70846">
        <ele>290</ele>
        <time>2017-07-11T10:36:02Z</time>
      </trkpt>
      <trkpt lat="45.96707" lon="4.70852">
        <ele>290</ele>
        <time>2017-07-11T10:36:03Z</time>
      </trkpt>
      <trkpt lat="45.96718" lon="4.70859">
        <ele>289</ele>
        <time>2017-07-11T10:36:04Z</time>
      </trkpt>
      <trkpt lat="45.96729" lon="4.70867">
        <ele>289</ele>
        <time>2017-07-11T10:36:05Z</time>
      </trkpt>
      <trkpt lat="45.9674" lon="4.70875">
        <ele>288</ele>
        <time>2017-07-11T10:36:06Z</time>
      </trkpt>
      <trkpt lat="45.96752" lon="4.70882">
        <ele>289</ele>
        <time>2017-07-11T10:36:07Z</time>
      </trkpt>
      <trkpt lat="45.96763" lon="4.70888">
        <ele>288</ele>
        <time>2017-07-11T10:36:08Z</time>
      </trkpt>
      <trkpt lat="45.96773" lon="4.70896">
        <ele>288</ele>
        <time>2017-07-11T10:36:09Z</time>
      </trkpt>
      <trkpt lat="45.96784" lon="4.70902">
        <ele>288</ele>
        <time>2017-07-11T10:36:10Z</time>
      </trkpt>
      <trkpt lat="45.96795" lon="4.70909">
        <ele>288</ele>
        <time>2017-07-11T10:36:11Z</time>
      </trkpt>
      <trkpt lat="45.96805" lon="4.70916">
        <ele>288</ele>
        <time>2017-07-11T10:36:12Z</time>
      </trkpt>
      <trkpt lat="45.96816" lon="4.70923">
        <ele>282</ele>
        <time>2017-07-11T10:36:13Z</time>
      </trkpt>
      <trkpt lat="45.96826" lon="4.70929">
        <ele>282</ele>
        <time>2017-07-11T10:36:14Z</time>
      </trkpt>
      <trkpt lat="45.96836" lon="4.70935">
        <ele>282</ele>
        <time>2017-07-11T10:36:15Z</time>
      </trkpt>
      <trkpt lat="45.96847" lon="4.70943">
        <ele>281</ele>
        <time>2017-07-11T10:36:16Z</time>
      </trkpt>
      <trkpt lat="45.96856" lon="4.7095">
        <ele>280</ele>
        <time>2017-07-11T10:36:17Z</time>
      </trkpt>
      <trkpt lat="45.96866" lon="4.70957">
        <ele>279</ele>
        <time>2017-07-11T10:36:18Z</time>
      </trkpt>
      <trkpt lat="45.96877" lon="4.70962">
        <ele>279</ele>
        <time>2017-07-11T10:36:19Z</time>
      </trkpt>
      <trkpt lat="45.96887" lon="4.70967">
        <ele>279</ele>
        <time>2017-07-11T10:36:20Z</time>
      </trkpt>
      <trkpt lat="45.96898" lon="4.70971">
        <ele>278</ele>
        <time>2017-07-11T10:36:21Z</time>
      </trkpt>
      <trkpt lat="45.96909" lon="4.70974">
        <ele>277</ele>
        <time>2017-07-11T10:36:22Z</time>
      </trkpt>
      <trkpt lat="45.9692" lon="4.70977">
        <ele>276</ele>
        <time>2017-07-11T10:36:23Z</time>
      </trkpt>
      <trkpt lat="45.96931" lon="4.7098">
        <ele>275</ele>
        <time>2017-07-11T10:36:24Z</time>
      </trkpt>
      <trkpt lat="45.96942" lon="4.70983">
        <ele>275</ele>
        <time>2017-07-11T10:36:25Z</time>
      </trkpt>
      <trkpt lat="45.96954" lon="4.70985">
        <ele>275</ele>
        <time>2017-07-11T10:36:26Z</time>
      </trkpt>
      <trkpt lat="45.96965" lon="4.70987">
        <ele>274</ele>
        <time>2017-07-11T10:36:27Z</time>
      </trkpt>
      <trkpt lat="45.96977" lon="4.70988">
        <ele>273</ele>
        <time>2017-07-11T10:36:28Z</time>
      </trkpt>
      <trkpt lat="45.96989" lon="4.70988">
        <ele>272</ele>
        <time>2017-07-11T10:36:29Z</time>
      </trkpt>
      <trkpt lat="45.97" lon="4.70989">
        <ele>269</ele>
        <time>2017-07-11T10:36:30Z</time>
      </trkpt>
      <trkpt lat="45.97012" lon="4.70988">
        <ele>269</ele>
        <time>2017-07-11T10:36:31Z</time>
      </trkpt>
      <trkpt lat="45.97024" lon="4.70987">
        <ele>269</ele>
        <time>2017-07-11T10:36:32Z</time>
      </trkpt>
      <trkpt lat="45.97035" lon="4.70987">
        <ele>269</ele>
        <time>2017-07-11T10:36:33Z</time>
      </trkpt>
      <trkpt lat="45.97047" lon="4.70985">
        <ele>269</ele>
        <time>2017-07-11T10:36:34Z</time>
      </trkpt>
      <trkpt lat="45.97059" lon="4.70984">
        <ele>268</ele>
        <time>2017-07-11T10:36:35Z</time>
      </trkpt>
      <trkpt lat="45.97071" lon="4.70982">
        <ele>268</ele>
        <time>2017-07-11T10:36:36Z</time>
      </trkpt>
      <trkpt lat="45.97084" lon="4.70979">
        <ele>264</ele>
        <time>2017-07-11T10:36:37Z</time>
      </trkpt>
      <trkpt lat="45.97096" lon="4.70976">
        <ele>264</ele>
        <time>2017-07-11T10:36:38Z</time>
      </trkpt>
      <trkpt lat="45.97108" lon="4.70972">
        <ele>264</ele>
        <time>2017-07-11T10:36:39Z</time>
      </trkpt>
      <trkpt lat="45.9712" lon="4.70967">
        <ele>264</ele>
        <time>2017-07-11T10:36:40Z</time>
      </trkpt>
      <trkpt lat="45.97132" lon="4.70961">
        <ele>264</ele>
        <time>2017-07-11T10:36:41Z</time>
      </trkpt>
      <trkpt lat="45.97144" lon="4.70956">
        <ele>263</ele>
        <time>2017-07-11T10:36:42Z</time>
      </trkpt>
      <trkpt lat="45.97155" lon="4.70951">
        <ele>263</ele>
        <time>2017-07-11T10:36:43Z</time>
      </trkpt>
      <trkpt lat="45.97166" lon="4.70945">
        <ele>263</ele>
        <time>2017-07-11T10:36:44Z</time>
      </trkpt>
      <trkpt lat="45.97175" lon="4.70939">
        <ele>258</ele>
        <time>2017-07-11T10:36:45Z</time>
      </trkpt>
      <trkpt lat="45.97185" lon="4.70933">
        <ele>258</ele>
        <time>2017-07-11T10:36:46Z</time>
      </trkpt>
      <trkpt lat="45.97194" lon="4.70926">
        <ele>257</ele>
        <time>2017-07-11T10:36:47Z</time>
      </trkpt>
      <trkpt lat="45.97204" lon="4.70919">
        <ele>257</ele>
        <time>2017-07-11T10:36:48Z</time>
      </trkpt>
      <trkpt lat="45.97213" lon="4.70912">
        <ele>260</ele>
        <time>2017-07-11T10:36:49Z</time>
      </trkpt>
      <trkpt lat="45.97221" lon="4.70904">
        <ele>259</ele>
        <time>2017-07-11T10:36:50Z</time>
      </trkpt>
      <trkpt lat="45.97229" lon="4.70894">
        <ele>259</ele>
        <time>2017-07-11T10:36:51Z</time>
      </trkpt>
      <trkpt lat="45.97237" lon="4.70884">
        <ele>259</ele>
        <time>2017-07-11T10:36:52Z</time>
      </trkpt>
      <trkpt lat="45.97244" lon="4.70873">
        <ele>259</ele>
        <time>2017-07-11T10:36:53Z</time>
      </trkpt>
      <trkpt lat="45.97252" lon="4.70862">
        <ele>253</ele>
        <time>2017-07-11T10:36:54Z</time>
      </trkpt>
      <trkpt lat="45.97259" lon="4.70851">
        <ele>254</ele>
        <time>2017-07-11T10:36:55Z</time>
      </trkpt>
      <trkpt lat="45.97267" lon="4.7084">
        <ele>254</ele>
        <time>2017-07-11T10:36:56Z</time>
      </trkpt>
      <trkpt lat="45.97275" lon="4.70829">
        <ele>255</ele>
        <time>2017-07-11T10:36:57Z</time>
      </trkpt>
      <trkpt lat="45.97283" lon="4.70818">
        <ele>254</ele>
        <time>2017-07-11T10:36:58Z</time>
      </trkpt>
      <trkpt lat="45.97291" lon="4.70807">
        <ele>254</ele>
        <time>2017-07-11T10:36:59Z</time>
      </trkpt>
      <trkpt lat="45.97299" lon="4.70798">
        <ele>253</ele>
        <time>2017-07-11T10:37:00Z</time>
      </trkpt>
      <trkpt lat="45.97306" lon="4.70789">
        <ele>253</ele>
        <time>2017-07-11T10:37:01Z</time>
      </trkpt>
      <trkpt lat="45.97313" lon="4.70782">
        <ele>252</ele>
        <time>2017-07-11T10:37:02Z</time>
      </trkpt>
      <trkpt lat="45.97321" lon="4.70774">
        <ele>252</ele>
        <time>2017-07-11T10:37:03Z</time>
      </trkpt>
      <trkpt lat="45.97328" lon="4.70768">
        <ele>251</ele>
        <time>2017-07-11T10:37:04Z</time>
      </trkpt>
      <trkpt lat="45.97337" lon="4.70763">
        <ele>247</ele>
        <time>2017-07-11T10:37:05Z</time>
      </trkpt>
      <trkpt lat="45.97346" lon="4.70758">
        <ele>247</ele>
        <time>2017-07-11T10:37:06Z</time>
      </trkpt>
      <trkpt lat="45.97355" lon="4.70754">
        <ele>246</ele>
        <time>2017-07-11T10:37:07Z</time>
      </trkpt>
      <trkpt lat="45.97365" lon="4.70749">
        <ele>245</ele>
        <time>2017-07-11T10:37:08Z</time>
      </trkpt>
      <trkpt lat="45.97375" lon="4.70745">
        <ele>244</ele>
        <time>2017-07-11T10:37:09Z</time>
      </trkpt>
      <trkpt lat="45.97384" lon="4.70743">
        <ele>243</ele>
        <time>2017-07-11T10:37:10Z</time>
      </trkpt>
      <trkpt lat="45.97394" lon="4.70742">
        <ele>243</ele>
        <time>2017-07-11T10:37:11Z</time>
      </trkpt>
      <trkpt lat="45.97403" lon="4.70743">
        <ele>242</ele>
        <time>2017-07-11T10:37:12Z</time>
      </trkpt>
      <trkpt lat="45.97413" lon="4.70744">
        <ele>241</ele>
        <time>2017-07-11T10:37:13Z</time>
      </trkpt>
      <trkpt lat="45.97423" lon="4.70745">
        <ele>239</ele>
        <time>2017-07-11T10:37:14Z</time>
      </trkpt>
      <trkpt lat="45.97433" lon="4.70746">
        <ele>239</ele>
        <time>2017-07-11T10:37:15Z</time>
      </trkpt>
      <trkpt lat="45.97443" lon="4.70747">
        <ele>239</ele>
        <time>2017-07-11T10:37:16Z</time>
      </trkpt>
      <trkpt lat="45.97453" lon="4.70747">
        <ele>238</ele>
        <time>2017-07-11T10:37:17Z</time>
      </trkpt>
      <trkpt lat="45.97462" lon="4.70747">
        <ele>238</ele>
        <time>2017-07-11T10:37:18Z</time>
      </trkpt>
      <trkpt lat="45.9747" lon="4.70745">
        <ele>238</ele>
        <time>2017-07-11T10:37:19Z</time>
      </trkpt>
      <trkpt lat="45.97477" lon="4.70743">
        <ele>237</ele>
        <time>2017-07-11T10:37:20Z</time>
      </trkpt>
      <trkpt lat="45.97482" lon="4.70742">
        <ele>237</ele>
        <time>2017-07-11T10:37:21Z</time>
      </trkpt>
      <trkpt lat="45.97487" lon="4.7074">
        <ele>237</ele>
        <time>2017-07-11T10:37:22Z</time>
      </trkpt>
      <trkpt lat="45.97493" lon="4.70737">
        <ele>237</ele>
        <time>2017-07-11T10:37:23Z</time>
      </trkpt>
      <trkpt lat="45.97499" lon="4.70735">
        <ele>237</ele>
        <time>2017-07-11T10:37:24Z</time>
      </trkpt>
      <trkpt lat="45.97505" lon="4.70734">
        <ele>235</ele>
        <time>2017-07-11T10:37:25Z</time>
      </trkpt>
      <trkpt lat="45.97511" lon="4.70734">
        <ele>235</ele>
        <time>2017-07-11T10:37:26Z</time>
      </trkpt>
      <trkpt lat="45.97518" lon="4.70733">
        <ele>234</ele>
        <time>2017-07-11T10:37:27Z</time>
      </trkpt>
      <trkpt lat="45.97525" lon="4.70732">
        <ele>234</ele>
        <time>2017-07-11T10:37:28Z</time>
      </trkpt>
      <trkpt lat="45.97532" lon="4.7073">
        <ele>234</ele>
        <time>2017-07-11T10:37:29Z</time>
      </trkpt>
      <trkpt lat="45.9754" lon="4.70729">
        <ele>234</ele>
        <time>2017-07-11T10:37:30Z</time>
      </trkpt>
      <trkpt lat="45.97547" lon="4.70727">
        <ele>233</ele>
        <time>2017-07-11T10:37:31Z</time>
      </trkpt>
      <trkpt lat="45.97554" lon="4.70726">
        <ele>233</ele>
        <time>2017-07-11T10:37:32Z</time>
      </trkpt>
      <trkpt lat="45.97562" lon="4.70724">
        <ele>233</ele>
        <time>2017-07-11T10:37:33Z</time>
      </trkpt>
      <trkpt lat="45.9757" lon="4.70722">
        <ele>233</ele>
        <time>2017-07-11T10:37:34Z</time>
      </trkpt>
      <trkpt lat="45.97579" lon="4.70718">
        <ele>233</ele>
        <time>2017-07-11T10:37:35Z</time>
      </trkpt>
      <trkpt lat="45.97589" lon="4.70718">
        <ele>229</ele>
        <time>2017-07-11T10:37:36Z</time>
      </trkpt>
      <trkpt lat="45.97598" lon="4.70719">
        <ele>229</ele>
        <time>2017-07-11T10:37:37Z</time>
      </trkpt>
      <trkpt lat="45.97607" lon="4.7072">
        <ele>229</ele>
        <time>2017-07-11T10:37:38Z</time>
      </trkpt>
      <trkpt lat="45.97616" lon="4.70722">
        <ele>228</ele>
        <time>2017-07-11T10:37:39Z</time>
      </trkpt>
      <trkpt lat="45.97625" lon="4.70726">
        <ele>228</ele>
        <time>2017-07-11T10:37:40Z</time>
      </trkpt>
      <trkpt lat="45.97634" lon="4.7073">
        <ele>227</ele>
        <time>2017-07-11T10:37:41Z</time>
      </trkpt>
      <trkpt lat="45.97643" lon="4.70733">
        <ele>227</ele>
        <time>2017-07-11T10:37:42Z</time>
      </trkpt>
      <trkpt lat="45.97653" lon="4.70737">
        <ele>226</ele>
        <time>2017-07-11T10:37:43Z</time>
      </trkpt>
      <trkpt lat="45.97662" lon="4.70741">
        <ele>225</ele>
        <time>2017-07-11T10:37:44Z</time>
      </trkpt>
      <trkpt lat="45.97672" lon="4.70745">
        <ele>224</ele>
        <time>2017-07-11T10:37:45Z</time>
      </trkpt>
      <trkpt lat="45.97681" lon="4.70749">
        <ele>224</ele>
        <time>2017-07-11T10:37:46Z</time>
      </trkpt>
      <trkpt lat="45.9769" lon="4.70753">
        <ele>223</ele>
        <time>2017-07-11T10:37:47Z</time>
      </trkpt>
      <trkpt lat="45.977" lon="4.70757">
        <ele>223</ele>
        <time>2017-07-11T10:37:48Z</time>
      </trkpt>
      <trkpt lat="45.9771" lon="4.70762">
        <ele>223</ele>
        <time>2017-07-11T10:37:49Z</time>
      </trkpt>
      <trkpt lat="45.9772" lon="4.70766">
        <ele>222</ele>
        <time>2017-07-11T10:37:50Z</time>
      </trkpt>
      <trkpt lat="45.97729" lon="4.70769">
        <ele>222</ele>
        <time>2017-07-11T10:37:51Z</time>
      </trkpt>
      <trkpt lat="45.97739" lon="4.70773">
        <ele>222</ele>
        <time>2017-07-11T10:37:52Z</time>
      </trkpt>
      <trkpt lat="45.97748" lon="4.70776">
        <ele>222</ele>
        <time>2017-07-11T10:37:53Z</time>
      </trkpt>
      <trkpt lat="45.97757" lon="4.70779">
        <ele>221</ele>
        <time>2017-07-11T10:37:54Z</time>
      </trkpt>
      <trkpt lat="45.97764" lon="4.7078">
        <ele>221</ele>
        <time>2017-07-11T10:37:55Z</time>
      </trkpt>
      <trkpt lat="45.9777" lon="4.70782">
        <ele>221</ele>
        <time>2017-07-11T10:37:56Z</time>
      </trkpt>
      <trkpt lat="45.97775" lon="4.70786">
        <ele>221</ele>
        <time>2017-07-11T10:37:57Z</time>
      </trkpt>
      <trkpt lat="45.9778" lon="4.70788">
        <ele>221</ele>
        <time>2017-07-11T10:37:58Z</time>
      </trkpt>
      <trkpt lat="45.97786" lon="4.70793">
        <ele>221</ele>
        <time>2017-07-11T10:37:59Z</time>
      </trkpt>
      <trkpt lat="45.97791" lon="4.70798">
        <ele>221</ele>
        <time>2017-07-11T10:38:00Z</time>
      </trkpt>
      <trkpt lat="45.97796" lon="4.70803">
        <ele>221</ele>
        <time>2017-07-11T10:38:01Z</time>
      </trkpt>
      <trkpt lat="45.978" lon="4.70809">
        <ele>221</ele>
        <time>2017-07-11T10:38:02Z</time>
      </trkpt>
      <trkpt lat="45.97804" lon="4.70815">
        <ele>221</ele>
        <time>2017-07-11T10:38:03Z</time>
      </trkpt>
      <trkpt lat="45.97807" lon="4.70823">
        <ele>221</ele>
        <time>2017-07-11T10:38:04Z</time>
      </trkpt>
      <trkpt lat="45.9781" lon="4.70832">
        <ele>221</ele>
        <time>2017-07-11T10:38:05Z</time>
      </trkpt>
      <trkpt lat="45.97813" lon="4.70841">
        <ele>220</ele>
        <time>2017-07-11T10:38:06Z</time>
      </trkpt>
      <trkpt lat="45.97815" lon="4.7085">
        <ele>220</ele>
        <time>2017-07-11T10:38:07Z</time>
      </trkpt>
      <trkpt lat="45.97816" lon="4.70859">
        <ele>220</ele>
        <time>2017-07-11T10:38:08Z</time>
      </trkpt>
      <trkpt lat="45.97817" lon="4.70868">
        <ele>220</ele>
        <time>2017-07-11T10:38:09Z</time>
      </trkpt>
      <trkpt lat="45.97818" lon="4.70877">
        <ele>220</ele>
        <time>2017-07-11T10:38:10Z</time>
      </trkpt>
      <trkpt lat="45.97818" lon="4.70887">
        <ele>220</ele>
        <time>2017-07-11T10:38:11Z</time>
      </trkpt>
      <trkpt lat="45.97819" lon="4.70897">
        <ele>220</ele>
        <time>2017-07-11T10:38:12Z</time>
      </trkpt>
      <trkpt lat="45.97818" lon="4.70907">
        <ele>219</ele>
        <time>2017-07-11T10:38:13Z</time>
      </trkpt>
      <trkpt lat="45.97818" lon="4.70918">
        <ele>219</ele>
        <time>2017-07-11T10:38:14Z</time>
      </trkpt>
      <trkpt lat="45.9782" lon="4.7093">
        <ele>219</ele>
        <time>2017-07-11T10:38:15Z</time>
      </trkpt>
      <trkpt lat="45.97821" lon="4.7094">
        <ele>218</ele>
        <time>2017-07-11T10:38:16Z</time>
      </trkpt>
      <trkpt lat="45.97825" lon="4.70951">
        <ele>218</ele>
        <time>2017-07-11T10:38:17Z</time>
      </trkpt>
      <trkpt lat="45.97827" lon="4.70962">
        <ele>218</ele>
        <time>2017-07-11T10:38:18Z</time>
      </trkpt>
      <trkpt lat="45.97829" lon="4.70975">
        <ele>218</ele>
        <time>2017-07-11T10:38:19Z</time>
      </trkpt>
      <trkpt lat="45.97831" lon="4.70988">
        <ele>217</ele>
        <time>2017-07-11T10:38:20Z</time>
      </trkpt>
      <trkpt lat="45.97832" lon="4.71">
        <ele>216</ele>
        <time>2017-07-11T10:38:21Z</time>
      </trkpt>
      <trkpt lat="45.97833" lon="4.71013">
        <ele>216</ele>
        <time>2017-07-11T10:38:22Z</time>
      </trkpt>
      <trkpt lat="45.97835" lon="4.71026">
        <ele>216</ele>
        <time>2017-07-11T10:38:23Z</time>
      </trkpt>
      <trkpt lat="45.97836" lon="4.71038">
        <ele>216</ele>
        <time>2017-07-11T10:38:24Z</time>
      </trkpt>
      <trkpt lat="45.97837" lon="4.71052">
        <ele>215</ele>
        <time>2017-07-11T10:38:25Z</time>
      </trkpt>
      <trkpt lat="45.97839" lon="4.71065">
        <ele>215</ele>
        <time>2017-07-11T10:38:26Z</time>
      </trkpt>
      <trkpt lat="45.9784" lon="4.71078">
        <ele>214</ele>
        <time>2017-07-11T10:38:27Z</time>
      </trkpt>
      <trkpt lat="45.97841" lon="4.71092">
        <ele>214</ele>
        <time>2017-07-11T10:38:28Z</time>
      </trkpt>
      <trkpt lat="45.97843" lon="4.71105">
        <ele>213</ele>
        <time>2017-07-11T10:38:29Z</time>
      </trkpt>
      <trkpt lat="45.97844" lon="4.71118">
        <ele>213</ele>
        <time>2017-07-11T10:38:30Z</time>
      </trkpt>
      <trkpt lat="45.97846" lon="4.71129">
        <ele>212</ele>
        <time>2017-07-11T10:38:31Z</time>
      </trkpt>
      <trkpt lat="45.97848" lon="4.7114">
        <ele>212</ele>
        <time>2017-07-11T10:38:32Z</time>
      </trkpt>
      <trkpt lat="45.97849" lon="4.71152">
        <ele>212</ele>
        <time>2017-07-11T10:38:33Z</time>
      </trkpt>
      <trkpt lat="45.97851" lon="4.71163">
        <ele>212</ele>
        <time>2017-07-11T10:38:34Z</time>
      </trkpt>
      <trkpt lat="45.97851" lon="4.71175">
        <ele>210</ele>
        <time>2017-07-11T10:38:35Z</time>
      </trkpt>
      <trkpt lat="45.97851" lon="4.71188">
        <ele>209</ele>
        <time>2017-07-11T10:38:36Z</time>
      </trkpt>
      <trkpt lat="45.9785" lon="4.71201">
        <ele>209</ele>
        <time>2017-07-11T10:38:37Z</time>
      </trkpt>
      <trkpt lat="45.9785" lon="4.71214">
        <ele>208</ele>
        <time>2017-07-11T10:38:38Z</time>
      </trkpt>
      <trkpt lat="45.97849" lon="4.71226">
        <ele>208</ele>
        <time>2017-07-11T10:38:39Z</time>
      </trkpt>
      <trkpt lat="45.9785" lon="4.71239">
        <ele>208</ele>
        <time>2017-07-11T10:38:40Z</time>
      </trkpt>
      <trkpt lat="45.9785" lon="4.71252">
        <ele>207</ele>
        <time>2017-07-11T10:38:41Z</time>
      </trkpt>
      <trkpt lat="45.97849" lon="4.71265">
        <ele>206</ele>
        <time>2017-07-11T10:38:42Z</time>
      </trkpt>
      <trkpt lat="45.97849" lon="4.71278">
        <ele>206</ele>
        <time>2017-07-11T10:38:43Z</time>
      </trkpt>
      <trkpt lat="45.97849" lon="4.71292">
        <ele>206</ele>
        <time>2017-07-11T10:38:44Z</time>
      </trkpt>
      <trkpt lat="45.97849" lon="4.71305">
        <ele>206</ele>
        <time>2017-07-11T10:38:45Z</time>
      </trkpt>
      <trkpt lat="45.97848" lon="4.71319">
        <ele>205</ele>
        <time>2017-07-11T10:38:46Z</time>
      </trkpt>
      <trkpt lat="45.97848" lon="4.71332">
        <ele>205</ele>
        <time>2017-07-11T10:38:47Z</time>
      </trkpt>
      <trkpt lat="45.97848" lon="4.71346">
        <ele>204</ele>
        <time>2017-07-11T10:38:48Z</time>
      </trkpt>
      <trkpt lat="45.97848" lon="4.71359">
        <ele>204</ele>
        <time>2017-07-11T10:38:49Z</time>
      </trkpt>
      <trkpt lat="45.97848" lon="4.71373">
        <ele>203</ele>
        <time>2017-07-11T10:38:50Z</time>
      </trkpt>
      <trkpt lat="45.97848" lon="4.71387">
        <ele>203</ele>
        <time>2017-07-11T10:38:51Z</time>
      </trkpt>
      <trkpt lat="45.97849" lon="4.71399">
        <ele>203</ele>
        <time>2017-07-11T10:38:52Z</time>
      </trkpt>
      <trkpt lat="45.9785" lon="4.71412">
        <ele>203</ele>
        <time>2017-07-11T10:38:53Z</time>
      </trkpt>
      <trkpt lat="45.97852" lon="4.71424">
        <ele>202</ele>
        <time>2017-07-11T10:38:54Z</time>
      </trkpt>
      <trkpt lat="45.97855" lon="4.71436">
        <ele>201</ele>
        <time>2017-07-11T10:38:55Z</time>
      </trkpt>
      <trkpt lat="45.97857" lon="4.71449">
        <ele>201</ele>
        <time>2017-07-11T10:38:56Z</time>
      </trkpt>
      <trkpt lat="45.9786" lon="4.71462">
        <ele>201</ele>
        <time>2017-07-11T10:38:57Z</time>
      </trkpt>
      <trkpt lat="45.97863" lon="4.71474">
        <ele>201</ele>
        <time>2017-07-11T10:38:58Z</time>
      </trkpt>
      <trkpt lat="45.97866" lon="4.71486">
        <ele>201</ele>
        <time>2017-07-11T10:38:59Z</time>
      </trkpt>
      <trkpt lat="45.97868" lon="4.71499">
        <ele>201</ele>
        <time>2017-07-11T10:39:00Z</time>
      </trkpt>
      <trkpt lat="45.9787" lon="4.71511">
        <ele>199</ele>
        <time>2017-07-11T10:39:01Z</time>
      </trkpt>
      <trkpt lat="45.97872" lon="4.71523">
        <ele>199</ele>
        <time>2017-07-11T10:39:02Z</time>
      </trkpt>
      <trkpt lat="45.97874" lon="4.71536">
        <ele>199</ele>
        <time>2017-07-11T10:39:03Z</time>
      </trkpt>
      <trkpt lat="45.97876" lon="4.71548">
        <ele>199</ele>
        <time>2017-07-11T10:39:04Z</time>
      </trkpt>
      <trkpt lat="45.97877" lon="4.71559">
        <ele>198</ele>
        <time>2017-07-11T10:39:05Z</time>
      </trkpt>
      <trkpt lat="45.97878" lon="4.71571">
        <ele>198</ele>
        <time>2017-07-11T10:39:06Z</time>
      </trkpt>
      <trkpt lat="45.97879" lon="4.71582">
        <ele>198</ele>
        <time>2017-07-11T10:39:07Z</time>
      </trkpt>
      <trkpt lat="45.9788" lon="4.71593">
        <ele>197</ele>
        <time>2017-07-11T10:39:08Z</time>
      </trkpt>
      <trkpt lat="45.97881" lon="4.71606">
        <ele>197</ele>
        <time>2017-07-11T10:39:09Z</time>
      </trkpt>
      <trkpt lat="45.97881" lon="4.71617">
        <ele>197</ele>
        <time>2017-07-11T10:39:10Z</time>
      </trkpt>
      <trkpt lat="45.97881" lon="4.71628">
        <ele>197</ele>
        <time>2017-07-11T10:39:11Z</time>
      </trkpt>
      <trkpt lat="45.97881" lon="4.71639">
        <ele>197</ele>
        <time>2017-07-11T10:39:12Z</time>
      </trkpt>
      <trkpt lat="45.97879" lon="4.71649">
        <ele>197</ele>
        <time>2017-07-11T10:39:13Z</time>
      </trkpt>
      <trkpt lat="45.97878" lon="4.71661">
        <ele>197</ele>
        <time>2017-07-11T10:39:14Z</time>
      </trkpt>
      <trkpt lat="45.97874" lon="4.71671">
        <ele>196</ele>
        <time>2017-07-11T10:39:15Z</time>
      </trkpt>
      <trkpt lat="45.97871" lon="4.71681">
        <ele>196</ele>
        <time>2017-07-11T10:39:16Z</time>
      </trkpt>
      <trkpt lat="45.97868" lon="4.7169">
        <ele>196</ele>
        <time>2017-07-11T10:39:17Z</time>
      </trkpt>
      <trkpt lat="45.97866" lon="4.71697">
        <ele>196</ele>
        <time>2017-07-11T10:39:18Z</time>
      </trkpt>
      <trkpt lat="45.97864" lon="4.71708">
        <ele>196</ele>
        <time>2017-07-11T10:39:20Z</time>
      </trkpt>
      <trkpt lat="45.97862" lon="4.71713">
        <ele>196</ele>
        <time>2017-07-11T10:39:21Z</time>
      </trkpt>
      <trkpt lat="45.97859" lon="4.71718">
        <ele>196</ele>
        <time>2017-07-11T10:39:22Z</time>
      </trkpt>
      <trkpt lat="45.97856" lon="4.71724">
        <ele>196</ele>
        <time>2017-07-11T10:39:23Z</time>
      </trkpt>
      <trkpt lat="45.97853" lon="4.7173">
        <ele>196</ele>
        <time>2017-07-11T10:39:24Z</time>
      </trkpt>
      <trkpt lat="45.9785" lon="4.71736">
        <ele>196</ele>
        <time>2017-07-11T10:39:25Z</time>
      </trkpt>
      <trkpt lat="45.97846" lon="4.71742">
        <ele>195</ele>
        <time>2017-07-11T10:39:26Z</time>
      </trkpt>
      <trkpt lat="45.97841" lon="4.71745">
        <ele>195</ele>
        <time>2017-07-11T10:39:27Z</time>
      </trkpt>
      <trkpt lat="45.97835" lon="4.71746">
        <ele>195</ele>
        <time>2017-07-11T10:39:28Z</time>
      </trkpt>
      <trkpt lat="45.9783" lon="4.71748">
        <ele>195</ele>
        <time>2017-07-11T10:39:29Z</time>
      </trkpt>
      <trkpt lat="45.97824" lon="4.71748">
        <ele>195</ele>
        <time>2017-07-11T10:39:30Z</time>
      </trkpt>
      <trkpt lat="45.97818" lon="4.71747">
        <ele>196</ele>
        <time>2017-07-11T10:39:31Z</time>
      </trkpt>
      <trkpt lat="45.97812" lon="4.71747">
        <ele>196</ele>
        <time>2017-07-11T10:39:32Z</time>
      </trkpt>
      <trkpt lat="45.97806" lon="4.71746">
        <ele>196</ele>
        <time>2017-07-11T10:39:33Z</time>
      </trkpt>
      <trkpt lat="45.978" lon="4.71746">
        <ele>196</ele>
        <time>2017-07-11T10:39:34Z</time>
      </trkpt>
      <trkpt lat="45.97794" lon="4.71745">
        <ele>196</ele>
        <time>2017-07-11T10:39:35Z</time>
      </trkpt>
      <trkpt lat="45.97789" lon="4.71743">
        <ele>196</ele>
        <time>2017-07-11T10:39:36Z</time>
      </trkpt>
      <trkpt lat="45.97784" lon="4.71741">
        <ele>196</ele>
        <time>2017-07-11T10:39:37Z</time>
      </trkpt>
      <trkpt lat="45.97778" lon="4.7174">
        <ele>196</ele>
        <time>2017-07-11T10:39:38Z</time>
      </trkpt>
      <trkpt lat="45.97773" lon="4.71738">
        <ele>196</ele>
        <time>2017-07-11T10:39:39Z</time>
      </trkpt>
      <trkpt lat="45.97768" lon="4.71735">
        <ele>196</ele>
        <time>2017-07-11T10:39:40Z</time>
      </trkpt>
      <trkpt lat="45.97762" lon="4.71733">
        <ele>196</ele>
        <time>2017-07-11T10:39:41Z</time>
      </trkpt>
      <trkpt lat="45.97756" lon="4.71732">
        <ele>196</ele>
        <time>2017-07-11T10:39:42Z</time>
      </trkpt>
      <trkpt lat="45.97751" lon="4.71731">
        <ele>196</ele>
        <time>2017-07-11T10:39:43Z</time>
      </trkpt>
      <trkpt lat="45.97745" lon="4.7173">
        <ele>196</ele>
        <time>2017-07-11T10:39:44Z</time>
      </trkpt>
      <trkpt lat="45.97739" lon="4.71729">
        <ele>196</ele>
        <time>2017-07-11T10:39:45Z</time>
      </trkpt>
      <trkpt lat="45.97733" lon="4.71728">
        <ele>196</ele>
        <time>2017-07-11T10:39:46Z</time>
      </trkpt>
      <trkpt lat="45.97727" lon="4.71729">
        <ele>196</ele>
        <time>2017-07-11T10:39:47Z</time>
      </trkpt>
      <trkpt lat="45.97722" lon="4.71729">
        <ele>196</ele>
        <time>2017-07-11T10:39:48Z</time>
      </trkpt>
      <trkpt lat="45.97717" lon="4.71729">
        <ele>196</ele>
        <time>2017-07-11T10:39:49Z</time>
      </trkpt>
      <trkpt lat="45.97711" lon="4.71729">
        <ele>196</ele>
        <time>2017-07-11T10:39:50Z</time>
      </trkpt>
      <trkpt lat="45.97706" lon="4.71729">
        <ele>196</ele>
        <time>2017-07-11T10:39:51Z</time>
      </trkpt>
      <trkpt lat="45.977" lon="4.71728">
        <ele>196</ele>
        <time>2017-07-11T10:39:52Z</time>
      </trkpt>
      <trkpt lat="45.97695" lon="4.71727">
        <ele>196</ele>
        <time>2017-07-11T10:39:53Z</time>
      </trkpt>
      <trkpt lat="45.97689" lon="4.71726">
        <ele>196</ele>
        <time>2017-07-11T10:39:54Z</time>
      </trkpt>
      <trkpt lat="45.97684" lon="4.71725">
        <ele>196</ele>
        <time>2017-07-11T10:39:55Z</time>
      </trkpt>
      <trkpt lat="45.97678" lon="4.71725">
        <ele>196</ele>
        <time>2017-07-11T10:39:56Z</time>
      </trkpt>
      <trkpt lat="45.97672" lon="4.71724">
        <ele>196</ele>
        <time>2017-07-11T10:39:57Z</time>
      </trkpt>
      <trkpt lat="45.97667" lon="4.71724">
        <ele>196</ele>
        <time>2017-07-11T10:39:58Z</time>
      </trkpt>
      <trkpt lat="45.97662" lon="4.71724">
        <ele>196</ele>
        <time>2017-07-11T10:39:59Z</time>
      </trkpt>
      <trkpt lat="45.97657" lon="4.71722">
        <ele>196</ele>
        <time>2017-07-11T10:40:00Z</time>
      </trkpt>
      <trkpt lat="45.97652" lon="4.71721">
        <ele>196</ele>
        <time>2017-07-11T10:40:01Z</time>
      </trkpt>
      <trkpt lat="45.97645" lon="4.71717">
        <ele>197</ele>
        <time>2017-07-11T10:40:04Z</time>
      </trkpt>
      <trkpt lat="45.97643" lon="4.71716">
        <ele>197</ele>
        <time>2017-07-11T10:40:05Z</time>
      </trkpt>
      <trkpt lat="45.97637" lon="4.71711">
        <ele>197</ele>
        <time>2017-07-11T10:40:09Z</time>
      </trkpt>
      <trkpt lat="45.97634" lon="4.7171">
        <ele>197</ele>
        <time>2017-07-11T10:40:10Z</time>
      </trkpt>
      <trkpt lat="45.97626" lon="4.71709">
        <ele>197</ele>
        <time>2017-07-11T10:40:12Z</time>
      </trkpt>
      <trkpt lat="45.97621" lon="4.71711">
        <ele>197</ele>
        <time>2017-07-11T10:40:13Z</time>
      </trkpt>
      <trkpt lat="45.97616" lon="4.71714">
        <ele>197</ele>
        <time>2017-07-11T10:40:14Z</time>
      </trkpt>
      <trkpt lat="45.97611" lon="4.71717">
        <ele>197</ele>
        <time>2017-07-11T10:40:15Z</time>
      </trkpt>
      <trkpt lat="45.97606" lon="4.7172">
        <ele>197</ele>
        <time>2017-07-11T10:40:16Z</time>
      </trkpt>
      <trkpt lat="45.97602" lon="4.71723">
        <ele>197</ele>
        <time>2017-07-11T10:40:17Z</time>
      </trkpt>
      <trkpt lat="45.97596" lon="4.71725">
        <ele>196</ele>
        <time>2017-07-11T10:40:18Z</time>
      </trkpt>
      <trkpt lat="45.9759" lon="4.71725">
        <ele>196</ele>
        <time>2017-07-11T10:40:19Z</time>
      </trkpt>
      <trkpt lat="45.97584" lon="4.71725">
        <ele>196</ele>
        <time>2017-07-11T10:40:20Z</time>
      </trkpt>
      <trkpt lat="45.97578" lon="4.71724">
        <ele>197</ele>
        <time>2017-07-11T10:40:21Z</time>
      </trkpt>
      <trkpt lat="45.97572" lon="4.71723">
        <ele>197</ele>
        <time>2017-07-11T10:40:22Z</time>
      </trkpt>
      <trkpt lat="45.97566" lon="4.71722">
        <ele>198</ele>
        <time>2017-07-11T10:40:23Z</time>
      </trkpt>
      <trkpt lat="45.97561" lon="4.71721">
        <ele>198</ele>
        <time>2017-07-11T10:40:24Z</time>
      </trkpt>
      <trkpt lat="45.97556" lon="4.71721">
        <ele>198</ele>
        <time>2017-07-11T10:40:25Z</time>
      </trkpt>
      <trkpt lat="45.97551" lon="4.7172">
        <ele>198</ele>
        <time>2017-07-11T10:40:26Z</time>
      </trkpt>
      <trkpt lat="45.97546" lon="4.7172">
        <ele>198</ele>
        <time>2017-07-11T10:40:27Z</time>
      </trkpt>
      <trkpt lat="45.9754" lon="4.71719">
        <ele>198</ele>
        <time>2017-07-11T10:40:28Z</time>
      </trkpt>
      <trkpt lat="45.97535" lon="4.71719">
        <ele>198</ele>
        <time>2017-07-11T10:40:29Z</time>
      </trkpt>
      <trkpt lat="45.97529" lon="4.71718">
        <ele>198</ele>
        <time>2017-07-11T10:40:30Z</time>
      </trkpt>
      <trkpt lat="45.97523" lon="4.71718">
        <ele>198</ele>
        <time>2017-07-11T10:40:31Z</time>
      </trkpt>
      <trkpt lat="45.97517" lon="4.71718">
        <ele>198</ele>
        <time>2017-07-11T10:40:32Z</time>
      </trkpt>
      <trkpt lat="45.97512" lon="4.71717">
        <ele>198</ele>
        <time>2017-07-11T10:40:33Z</time>
      </trkpt>
      <trkpt lat="45.97505" lon="4.71717">
        <ele>198</ele>
        <time>2017-07-11T10:40:34Z</time>
      </trkpt>
      <trkpt lat="45.975" lon="4.71718">
        <ele>198</ele>
        <time>2017-07-11T10:40:35Z</time>
      </trkpt>
      <trkpt lat="45.97495" lon="4.71717">
        <ele>198</ele>
        <time>2017-07-11T10:40:36Z</time>
      </trkpt>
      <trkpt lat="45.97491" lon="4.71716">
        <ele>198</ele>
        <time>2017-07-11T10:40:37Z</time>
      </trkpt>
      <trkpt lat="45.97486" lon="4.71715">
        <ele>198</ele>
        <time>2017-07-11T10:40:38Z</time>
      </trkpt>
      <trkpt lat="45.97481" lon="4.71714">
        <ele>198</ele>
        <time>2017-07-11T10:40:39Z</time>
      </trkpt>
      <trkpt lat="45.97476" lon="4.71714">
        <ele>197</ele>
        <time>2017-07-11T10:40:40Z</time>
      </trkpt>
      <trkpt lat="45.9747" lon="4.71714">
        <ele>197</ele>
        <time>2017-07-11T10:40:41Z</time>
      </trkpt>
      <trkpt lat="45.97465" lon="4.71715">
        <ele>197</ele>
        <time>2017-07-11T10:40:42Z</time>
      </trkpt>
      <trkpt lat="45.9746" lon="4.71715">
        <ele>197</ele>
        <time>2017-07-11T10:40:43Z</time>
      </trkpt>
      <trkpt lat="45.97454" lon="4.71715">
        <ele>197</ele>
        <time>2017-07-11T10:40:44Z</time>
      </trkpt>
      <trkpt lat="45.97449" lon="4.71715">
        <ele>197</ele>
        <time>2017-07-11T10:40:45Z</time>
      </trkpt>
      <trkpt lat="45.97444" lon="4.71714">
        <ele>197</ele>
        <time>2017-07-11T10:40:46Z</time>
      </trkpt>
      <trkpt lat="45.97439" lon="4.71714">
        <ele>197</ele>
        <time>2017-07-11T10:40:47Z</time>
      </trkpt>
      <trkpt lat="45.97434" lon="4.71714">
        <ele>196</ele>
        <time>2017-07-11T10:40:48Z</time>
      </trkpt>
      <trkpt lat="45.97429" lon="4.71713">
        <ele>196</ele>
        <time>2017-07-11T10:40:49Z</time>
      </trkpt>
      <trkpt lat="45.97424" lon="4.71713">
        <ele>196</ele>
        <time>2017-07-11T10:40:50Z</time>
      </trkpt>
      <trkpt lat="45.97419" lon="4.71712">
        <ele>196</ele>
        <time>2017-07-11T10:40:51Z</time>
      </trkpt>
      <trkpt lat="45.97414" lon="4.71712">
        <ele>195</ele>
        <time>2017-07-11T10:40:52Z</time>
      </trkpt>
      <trkpt lat="45.97409" lon="4.71712">
        <ele>195</ele>
        <time>2017-07-11T10:40:53Z</time>
      </trkpt>
      <trkpt lat="45.97404" lon="4.71711">
        <ele>195</ele>
        <time>2017-07-11T10:40:54Z</time>
      </trkpt>
      <trkpt lat="45.97398" lon="4.71711">
        <ele>195</ele>
        <time>2017-07-11T10:40:55Z</time>
      </trkpt>
      <trkpt lat="45.97393" lon="4.71711">
        <ele>195</ele>
        <time>2017-07-11T10:40:56Z</time>
      </trkpt>
      <trkpt lat="45.97387" lon="4.7171">
        <ele>195</ele>
        <time>2017-07-11T10:40:57Z</time>
      </trkpt>
      <trkpt lat="45.97382" lon="4.7171">
        <ele>195</ele>
        <time>2017-07-11T10:40:58Z</time>
      </trkpt>
      <trkpt lat="45.97377" lon="4.71709">
        <ele>195</ele>
        <time>2017-07-11T10:40:59Z</time>
      </trkpt>
      <trkpt lat="45.97372" lon="4.71709">
        <ele>195</ele>
        <time>2017-07-11T10:41:00Z</time>
      </trkpt>
      <trkpt lat="45.97367" lon="4.71709">
        <ele>195</ele>
        <time>2017-07-11T10:41:01Z</time>
      </trkpt>
      <trkpt lat="45.97362" lon="4.71709">
        <ele>195</ele>
        <time>2017-07-11T10:41:02Z</time>
      </trkpt>
      <trkpt lat="45.97356" lon="4.71709">
        <ele>195</ele>
        <time>2017-07-11T10:41:03Z</time>
      </trkpt>
      <trkpt lat="45.97351" lon="4.71709">
        <ele>195</ele>
        <time>2017-07-11T10:41:04Z</time>
      </trkpt>
      <trkpt lat="45.97346" lon="4.71709">
        <ele>195</ele>
        <time>2017-07-11T10:41:05Z</time>
      </trkpt>
      <trkpt lat="45.9734" lon="4.71708">
        <ele>195</ele>
        <time>2017-07-11T10:41:06Z</time>
      </trkpt>
      <trkpt lat="45.97335" lon="4.71708">
        <ele>195</ele>
        <time>2017-07-11T10:41:07Z</time>
      </trkpt>
      <trkpt lat="45.9733" lon="4.71706">
        <ele>196</ele>
        <time>2017-07-11T10:41:08Z</time>
      </trkpt>
      <trkpt lat="45.97325" lon="4.71704">
        <ele>196</ele>
        <time>2017-07-11T10:41:09Z</time>
      </trkpt>
      <trkpt lat="45.9732" lon="4.717">
        <ele>196</ele>
        <time>2017-07-11T10:41:10Z</time>
      </trkpt>
      <trkpt lat="45.97316" lon="4.71697">
        <ele>196</ele>
        <time>2017-07-11T10:41:11Z</time>
      </trkpt>
      <trkpt lat="45.97311" lon="4.71695">
        <ele>196</ele>
        <time>2017-07-11T10:41:12Z</time>
      </trkpt>
      <trkpt lat="45.97305" lon="4.71695">
        <ele>196</ele>
        <time>2017-07-11T10:41:13Z</time>
      </trkpt>
      <trkpt lat="45.97299" lon="4.71697">
        <ele>196</ele>
        <time>2017-07-11T10:41:14Z</time>
      </trkpt>
      <trkpt lat="45.97293" lon="4.71701">
        <ele>196</ele>
        <time>2017-07-11T10:41:15Z</time>
      </trkpt>
      <trkpt lat="45.97288" lon="4.71703">
        <ele>196</ele>
        <time>2017-07-11T10:41:16Z</time>
      </trkpt>
      <trkpt lat="45.97282" lon="4.71704">
        <ele>196</ele>
        <time>2017-07-11T10:41:17Z</time>
      </trkpt>
      <trkpt lat="45.97277" lon="4.71703">
        <ele>197</ele>
        <time>2017-07-11T10:41:18Z</time>
      </trkpt>
      <trkpt lat="45.97271" lon="4.71701">
        <ele>197</ele>
        <time>2017-07-11T10:41:19Z</time>
      </trkpt>
      <trkpt lat="45.97265" lon="4.71701">
        <ele>197</ele>
        <time>2017-07-11T10:41:20Z</time>
      </trkpt>
      <trkpt lat="45.97259" lon="4.717">
        <ele>197</ele>
        <time>2017-07-11T10:41:21Z</time>
      </trkpt>
      <trkpt lat="45.97254" lon="4.71699">
        <ele>197</ele>
        <time>2017-07-11T10:41:22Z</time>
      </trkpt>
      <trkpt lat="45.97249" lon="4.71698">
        <ele>197</ele>
        <time>2017-07-11T10:41:23Z</time>
      </trkpt>
      <trkpt lat="45.97243" lon="4.71697">
        <ele>197</ele>
        <time>2017-07-11T10:41:24Z</time>
      </trkpt>
      <trkpt lat="45.97238" lon="4.71696">
        <ele>197</ele>
        <time>2017-07-11T10:41:25Z</time>
      </trkpt>
      <trkpt lat="45.97232" lon="4.71695">
        <ele>197</ele>
        <time>2017-07-11T10:41:26Z</time>
      </trkpt>
      <trkpt lat="45.97226" lon="4.71694">
        <ele>197</ele>
        <time>2017-07-11T10:41:27Z</time>
      </trkpt>
      <trkpt lat="45.9722" lon="4.71694">
        <ele>197</ele>
        <time>2017-07-11T10:41:28Z</time>
      </trkpt>
      <trkpt lat="45.97214" lon="4.71694">
        <ele>197</ele>
        <time>2017-07-11T10:41:29Z</time>
      </trkpt>
      <trkpt lat="45.97207" lon="4.71693">
        <ele>197</ele>
        <time>2017-07-11T10:41:30Z</time>
      </trkpt>
      <trkpt lat="45.97201" lon="4.71693">
        <ele>197</ele>
        <time>2017-07-11T10:41:31Z</time>
      </trkpt>
      <trkpt lat="45.97195" lon="4.71693">
        <ele>197</ele>
        <time>2017-07-11T10:41:32Z</time>
      </trkpt>
      <trkpt lat="45.97189" lon="4.71693">
        <ele>197</ele>
        <time>2017-07-11T10:41:33Z</time>
      </trkpt>
      <trkpt lat="45.97183" lon="4.71693">
        <ele>197</ele>
        <time>2017-07-11T10:41:34Z</time>
      </trkpt>
      <trkpt lat="45.97177" lon="4.71693">
        <ele>197</ele>
        <time>2017-07-11T10:41:35Z</time>
      </trkpt>
      <trkpt lat="45.97172" lon="4.71692">
        <ele>197</ele>
        <time>2017-07-11T10:41:36Z</time>
      </trkpt>
      <trkpt lat="45.97166" lon="4.71692">
        <ele>195</ele>
        <time>2017-07-11T10:41:37Z</time>
      </trkpt>
      <trkpt lat="45.9716" lon="4.71691">
        <ele>195</ele>
        <time>2017-07-11T10:41:38Z</time>
      </trkpt>
      <trkpt lat="45.97154" lon="4.7169">
        <ele>195</ele>
        <time>2017-07-11T10:41:39Z</time>
      </trkpt>
      <trkpt lat="45.97149" lon="4.7169">
        <ele>195</ele>
        <time>2017-07-11T10:41:40Z</time>
      </trkpt>
      <trkpt lat="45.97143" lon="4.71689">
        <ele>195</ele>
        <time>2017-07-11T10:41:41Z</time>
      </trkpt>
      <trkpt lat="45.97136" lon="4.71689">
        <ele>195</ele>
        <time>2017-07-11T10:41:42Z</time>
      </trkpt>
      <trkpt lat="45.9713" lon="4.71688">
        <ele>195</ele>
        <time>2017-07-11T10:41:43Z</time>
      </trkpt>
      <trkpt lat="45.97123" lon="4.71688">
        <ele>195</ele>
        <time>2017-07-11T10:41:44Z</time>
      </trkpt>
      <trkpt lat="45.97117" lon="4.71689">
        <ele>194</ele>
        <time>2017-07-11T10:41:45Z</time>
      </trkpt>
      <trkpt lat="45.97111" lon="4.71688">
        <ele>194</ele>
        <time>2017-07-11T10:41:46Z</time>
      </trkpt>
      <trkpt lat="45.97105" lon="4.71688">
        <ele>194</ele>
        <time>2017-07-11T10:41:47Z</time>
      </trkpt>
      <trkpt lat="45.97098" lon="4.71687">
        <ele>194</ele>
        <time>2017-07-11T10:41:48Z</time>
      </trkpt>
      <trkpt lat="45.97092" lon="4.71687">
        <ele>194</ele>
        <time>2017-07-11T10:41:49Z</time>
      </trkpt>
      <trkpt lat="45.97087" lon="4.71686">
        <ele>194</ele>
        <time>2017-07-11T10:41:50Z</time>
      </trkpt>
      <trkpt lat="45.97081" lon="4.71684">
        <ele>193</ele>
        <time>2017-07-11T10:41:51Z</time>
      </trkpt>
      <trkpt lat="45.97075" lon="4.71683">
        <ele>193</ele>
        <time>2017-07-11T10:41:52Z</time>
      </trkpt>
      <trkpt lat="45.97069" lon="4.71682">
        <ele>193</ele>
        <time>2017-07-11T10:41:53Z</time>
      </trkpt>
      <trkpt lat="45.97063" lon="4.71681">
        <ele>193</ele>
        <time>2017-07-11T10:41:54Z</time>
      </trkpt>
      <trkpt lat="45.97058" lon="4.71681">
        <ele>193</ele>
        <time>2017-07-11T10:41:55Z</time>
      </trkpt>
      <trkpt lat="45.97052" lon="4.7168">
        <ele>193</ele>
        <time>2017-07-11T10:41:56Z</time>
      </trkpt>
      <trkpt lat="45.97046" lon="4.71679">
        <ele>193</ele>
        <time>2017-07-11T10:41:57Z</time>
      </trkpt>
      <trkpt lat="45.9704" lon="4.71678">
        <ele>193</ele>
        <time>2017-07-11T10:41:58Z</time>
      </trkpt>
      <trkpt lat="45.97034" lon="4.71677">
        <ele>193</ele>
        <time>2017-07-11T10:41:59Z</time>
      </trkpt>
      <trkpt lat="45.97027" lon="4.71677">
        <ele>193</ele>
        <time>2017-07-11T10:42:00Z</time>
      </trkpt>
      <trkpt lat="45.9702" lon="4.71676">
        <ele>193</ele>
        <time>2017-07-11T10:42:01Z</time>
      </trkpt>
      <trkpt lat="45.97013" lon="4.71676">
        <ele>193</ele>
        <time>2017-07-11T10:42:02Z</time>
      </trkpt>
      <trkpt lat="45.97006" lon="4.71676">
        <ele>193</ele>
        <time>2017-07-11T10:42:03Z</time>
      </trkpt>
      <trkpt lat="45.97" lon="4.71676">
        <ele>193</ele>
        <time>2017-07-11T10:42:04Z</time>
      </trkpt>
      <trkpt lat="45.96994" lon="4.71675">
        <ele>193</ele>
        <time>2017-07-11T10:42:05Z</time>
      </trkpt>
      <trkpt lat="45.96987" lon="4.71675">
        <ele>193</ele>
        <time>2017-07-11T10:42:06Z</time>
      </trkpt>
      <trkpt lat="45.9698" lon="4.71675">
        <ele>192</ele>
        <time>2017-07-11T10:42:07Z</time>
      </trkpt>
      <trkpt lat="45.96974" lon="4.71675">
        <ele>192</ele>
        <time>2017-07-11T10:42:08Z</time>
      </trkpt>
      <trkpt lat="45.96967" lon="4.71674">
        <ele>192</ele>
        <time>2017-07-11T10:42:09Z</time>
      </trkpt>
      <trkpt lat="45.96961" lon="4.71674">
        <ele>192</ele>
        <time>2017-07-11T10:42:10Z</time>
      </trkpt>
      <trkpt lat="45.96955" lon="4.71673">
        <ele>192</ele>
        <time>2017-07-11T10:42:11Z</time>
      </trkpt>
      <trkpt lat="45.96949" lon="4.71672">
        <ele>192</ele>
        <time>2017-07-11T10:42:12Z</time>
      </trkpt>
      <trkpt lat="45.96942" lon="4.71672">
        <ele>192</ele>
        <time>2017-07-11T10:42:13Z</time>
      </trkpt>
      <trkpt lat="45.96935" lon="4.71673">
        <ele>193</ele>
        <time>2017-07-11T10:42:14Z</time>
      </trkpt>
      <trkpt lat="45.96929" lon="4.71673">
        <ele>193</ele>
        <time>2017-07-11T10:42:15Z</time>
      </trkpt>
      <trkpt lat="45.96922" lon="4.71673">
        <ele>194</ele>
        <time>2017-07-11T10:42:16Z</time>
      </trkpt>
      <trkpt lat="45.96916" lon="4.71673">
        <ele>194</ele>
        <time>2017-07-11T10:42:17Z</time>
      </trkpt>
      <trkpt lat="45.9691" lon="4.71673">
        <ele>193</ele>
        <time>2017-07-11T10:42:18Z</time>
      </trkpt>
      <trkpt lat="45.96903" lon="4.71672">
        <ele>192</ele>
        <time>2017-07-11T10:42:19Z</time>
      </trkpt>
      <trkpt lat="45.96897" lon="4.71671">
        <ele>192</ele>
        <time>2017-07-11T10:42:20Z</time>
      </trkpt>
      <trkpt lat="45.96892" lon="4.7167">
        <ele>191</ele>
        <time>2017-07-11T10:42:21Z</time>
      </trkpt>
      <trkpt lat="45.96885" lon="4.71669">
        <ele>191</ele>
        <time>2017-07-11T10:42:22Z</time>
      </trkpt>
      <trkpt lat="45.96879" lon="4.71668">
        <ele>191</ele>
        <time>2017-07-11T10:42:23Z</time>
      </trkpt>
      <trkpt lat="45.96873" lon="4.71667">
        <ele>191</ele>
        <time>2017-07-11T10:42:24Z</time>
      </trkpt>
      <trkpt lat="45.96869" lon="4.71666">
        <ele>195</ele>
        <time>2017-07-11T10:42:25Z</time>
      </trkpt>
      <trkpt lat="45.96864" lon="4.71664">
        <ele>195</ele>
        <time>2017-07-11T10:42:26Z</time>
      </trkpt>
      <trkpt lat="45.96857" lon="4.71663">
        <ele>194</ele>
        <time>2017-07-11T10:42:27Z</time>
      </trkpt>
      <trkpt lat="45.96851" lon="4.71662">
        <ele>194</ele>
        <time>2017-07-11T10:42:28Z</time>
      </trkpt>
      <trkpt lat="45.96846" lon="4.71661">
        <ele>194</ele>
        <time>2017-07-11T10:42:29Z</time>
      </trkpt>
      <trkpt lat="45.9684" lon="4.7166">
        <ele>193</ele>
        <time>2017-07-11T10:42:30Z</time>
      </trkpt>
      <trkpt lat="45.96834" lon="4.7166">
        <ele>193</ele>
        <time>2017-07-11T10:42:31Z</time>
      </trkpt>
      <trkpt lat="45.96828" lon="4.71659">
        <ele>192</ele>
        <time>2017-07-11T10:42:32Z</time>
      </trkpt>
      <trkpt lat="45.96822" lon="4.71658">
        <ele>193</ele>
        <time>2017-07-11T10:42:33Z</time>
      </trkpt>
      <trkpt lat="45.96817" lon="4.71657">
        <ele>193</ele>
        <time>2017-07-11T10:42:34Z</time>
      </trkpt>
      <trkpt lat="45.96811" lon="4.71657">
        <ele>193</ele>
        <time>2017-07-11T10:42:35Z</time>
      </trkpt>
      <trkpt lat="45.96805" lon="4.71656">
        <ele>193</ele>
        <time>2017-07-11T10:42:36Z</time>
      </trkpt>
      <trkpt lat="45.96799" lon="4.71655">
        <ele>193</ele>
        <time>2017-07-11T10:42:37Z</time>
      </trkpt>
      <trkpt lat="45.96793" lon="4.71655">
        <ele>192</ele>
        <time>2017-07-11T10:42:38Z</time>
      </trkpt>
      <trkpt lat="45.96787" lon="4.71654">
        <ele>192</ele>
        <time>2017-07-11T10:42:39Z</time>
      </trkpt>
      <trkpt lat="45.96781" lon="4.71653">
        <ele>192</ele>
        <time>2017-07-11T10:42:40Z</time>
      </trkpt>
      <trkpt lat="45.96775" lon="4.71653">
        <ele>192</ele>
        <time>2017-07-11T10:42:41Z</time>
      </trkpt>
      <trkpt lat="45.96769" lon="4.71652">
        <ele>192</ele>
        <time>2017-07-11T10:42:42Z</time>
      </trkpt>
      <trkpt lat="45.96762" lon="4.71651">
        <ele>191</ele>
        <time>2017-07-11T10:42:43Z</time>
      </trkpt>
      <trkpt lat="45.96755" lon="4.7165">
        <ele>191</ele>
        <time>2017-07-11T10:42:44Z</time>
      </trkpt>
      <trkpt lat="45.96748" lon="4.7165">
        <ele>190</ele>
        <time>2017-07-11T10:42:45Z</time>
      </trkpt>
      <trkpt lat="45.9674" lon="4.71649">
        <ele>190</ele>
        <time>2017-07-11T10:42:46Z</time>
      </trkpt>
      <trkpt lat="45.96732" lon="4.71648">
        <ele>190</ele>
        <time>2017-07-11T10:42:47Z</time>
      </trkpt>
      <trkpt lat="45.96725" lon="4.71647">
        <ele>190</ele>
        <time>2017-07-11T10:42:48Z</time>
      </trkpt>
      <trkpt lat="45.96718" lon="4.71646">
        <ele>190</ele>
        <time>2017-07-11T10:42:49Z</time>
      </trkpt>
      <trkpt lat="45.96711" lon="4.71645">
        <ele>190</ele>
        <time>2017-07-11T10:42:50Z</time>
      </trkpt>
      <trkpt lat="45.96705" lon="4.71644">
        <ele>190</ele>
        <time>2017-07-11T10:42:51Z</time>
      </trkpt>
      <trkpt lat="45.96698" lon="4.71643">
        <ele>190</ele>
        <time>2017-07-11T10:42:52Z</time>
      </trkpt>
      <trkpt lat="45.96691" lon="4.71642">
        <ele>190</ele>
        <time>2017-07-11T10:42:53Z</time>
      </trkpt>
      <trkpt lat="45.96685" lon="4.71641">
        <ele>190</ele>
        <time>2017-07-11T10:42:54Z</time>
      </trkpt>
      <trkpt lat="45.96678" lon="4.71641">
        <ele>189</ele>
        <time>2017-07-11T10:42:55Z</time>
      </trkpt>
      <trkpt lat="45.96672" lon="4.7164">
        <ele>189</ele>
        <time>2017-07-11T10:42:56Z</time>
      </trkpt>
      <trkpt lat="45.96666" lon="4.71639">
        <ele>188</ele>
        <time>2017-07-11T10:42:57Z</time>
      </trkpt>
      <trkpt lat="45.9666" lon="4.71637">
        <ele>188</ele>
        <time>2017-07-11T10:42:58Z</time>
      </trkpt>
      <trkpt lat="45.96654" lon="4.71637">
        <ele>188</ele>
        <time>2017-07-11T10:42:59Z</time>
      </trkpt>
      <trkpt lat="45.96647" lon="4.71636">
        <ele>188</ele>
        <time>2017-07-11T10:43:00Z</time>
      </trkpt>
      <trkpt lat="45.96641" lon="4.71634">
        <ele>188</ele>
        <time>2017-07-11T10:43:01Z</time>
      </trkpt>
      <trkpt lat="45.96635" lon="4.71633">
        <ele>188</ele>
        <time>2017-07-11T10:43:02Z</time>
      </trkpt>
      <trkpt lat="45.96629" lon="4.71632">
        <ele>188</ele>
        <time>2017-07-11T10:43:03Z</time>
      </trkpt>
      <trkpt lat="45.96623" lon="4.71631">
        <ele>188</ele>
        <time>2017-07-11T10:43:04Z</time>
      </trkpt>
      <trkpt lat="45.96616" lon="4.7163">
        <ele>187</ele>
        <time>2017-07-11T10:43:05Z</time>
      </trkpt>
      <trkpt lat="45.9661" lon="4.71628">
        <ele>187</ele>
        <time>2017-07-11T10:43:06Z</time>
      </trkpt>
      <trkpt lat="45.96605" lon="4.71627">
        <ele>187</ele>
        <time>2017-07-11T10:43:07Z</time>
      </trkpt>
      <trkpt lat="45.96599" lon="4.71626">
        <ele>187</ele>
        <time>2017-07-11T10:43:08Z</time>
      </trkpt>
      <trkpt lat="45.96594" lon="4.71624">
        <ele>187</ele>
        <time>2017-07-11T10:43:09Z</time>
      </trkpt>
      <trkpt lat="45.96588" lon="4.71623">
        <ele>187</ele>
        <time>2017-07-11T10:43:10Z</time>
      </trkpt>
      <trkpt lat="45.96582" lon="4.71622">
        <ele>185</ele>
        <time>2017-07-11T10:43:11Z</time>
      </trkpt>
      <trkpt lat="45.96576" lon="4.71622">
        <ele>185</ele>
        <time>2017-07-11T10:43:12Z</time>
      </trkpt>
      <trkpt lat="45.96571" lon="4.71621">
        <ele>185</ele>
        <time>2017-07-11T10:43:13Z</time>
      </trkpt>
      <trkpt lat="45.96565" lon="4.7162">
        <ele>185</ele>
        <time>2017-07-11T10:43:14Z</time>
      </trkpt>
      <trkpt lat="45.96559" lon="4.71618">
        <ele>185</ele>
        <time>2017-07-11T10:43:15Z</time>
      </trkpt>
      <trkpt lat="45.96553" lon="4.71614">
        <ele>185</ele>
        <time>2017-07-11T10:43:16Z</time>
      </trkpt>
      <trkpt lat="45.96549" lon="4.71609">
        <ele>185</ele>
        <time>2017-07-11T10:43:17Z</time>
      </trkpt>
      <trkpt lat="45.96545" lon="4.71605">
        <ele>185</ele>
        <time>2017-07-11T10:43:18Z</time>
      </trkpt>
      <trkpt lat="45.9654" lon="4.71602">
        <ele>185</ele>
        <time>2017-07-11T10:43:19Z</time>
      </trkpt>
      <trkpt lat="45.96533" lon="4.71601">
        <ele>185</ele>
        <time>2017-07-11T10:43:20Z</time>
      </trkpt>
      <trkpt lat="45.96528" lon="4.71603">
        <ele>185</ele>
        <time>2017-07-11T10:43:21Z</time>
      </trkpt>
      <trkpt lat="45.96523" lon="4.71606">
        <ele>184</ele>
        <time>2017-07-11T10:43:22Z</time>
      </trkpt>
      <trkpt lat="45.96517" lon="4.71609">
        <ele>184</ele>
        <time>2017-07-11T10:43:23Z</time>
      </trkpt>
      <trkpt lat="45.96511" lon="4.7161">
        <ele>184</ele>
        <time>2017-07-11T10:43:24Z</time>
      </trkpt>
      <trkpt lat="45.96504" lon="4.71609">
        <ele>184</ele>
        <time>2017-07-11T10:43:25Z</time>
      </trkpt>
      <trkpt lat="45.96497" lon="4.71608">
        <ele>183</ele>
        <time>2017-07-11T10:43:26Z</time>
      </trkpt>
      <trkpt lat="45.9649" lon="4.71607">
        <ele>183</ele>
        <time>2017-07-11T10:43:27Z</time>
      </trkpt>
      <trkpt lat="45.96482" lon="4.71606">
        <ele>183</ele>
        <time>2017-07-11T10:43:28Z</time>
      </trkpt>
      <trkpt lat="45.96475" lon="4.71606">
        <ele>183</ele>
        <time>2017-07-11T10:43:29Z</time>
      </trkpt>
      <trkpt lat="45.96468" lon="4.71605">
        <ele>183</ele>
        <time>2017-07-11T10:43:30Z</time>
      </trkpt>
      <trkpt lat="45.96462" lon="4.71604">
        <ele>183</ele>
        <time>2017-07-11T10:43:31Z</time>
      </trkpt>
      <trkpt lat="45.96455" lon="4.71603">
        <ele>183</ele>
        <time>2017-07-11T10:43:32Z</time>
      </trkpt>
      <trkpt lat="45.96448" lon="4.71602">
        <ele>183</ele>
        <time>2017-07-11T10:43:33Z</time>
      </trkpt>
      <trkpt lat="45.96441" lon="4.71601">
        <ele>183</ele>
        <time>2017-07-11T10:43:34Z</time>
      </trkpt>
      <trkpt lat="45.96435" lon="4.71601">
        <ele>183</ele>
        <time>2017-07-11T10:43:35Z</time>
      </trkpt>
      <trkpt lat="45.96429" lon="4.716">
        <ele>184</ele>
        <time>2017-07-11T10:43:36Z</time>
      </trkpt>
      <trkpt lat="45.96423" lon="4.71599">
        <ele>184</ele>
        <time>2017-07-11T10:43:37Z</time>
      </trkpt>
      <trkpt lat="45.96416" lon="4.71599">
        <ele>183</ele>
        <time>2017-07-11T10:43:38Z</time>
      </trkpt>
      <trkpt lat="45.96409" lon="4.71598">
        <ele>183</ele>
        <time>2017-07-11T10:43:39Z</time>
      </trkpt>
      <trkpt lat="45.96402" lon="4.71598">
        <ele>183</ele>
        <time>2017-07-11T10:43:40Z</time>
      </trkpt>
      <trkpt lat="45.96395" lon="4.71596">
        <ele>183</ele>
        <time>2017-07-11T10:43:41Z</time>
      </trkpt>
      <trkpt lat="45.96388" lon="4.71595">
        <ele>183</ele>
        <time>2017-07-11T10:43:42Z</time>
      </trkpt>
      <trkpt lat="45.9638" lon="4.71594">
        <ele>182</ele>
        <time>2017-07-11T10:43:43Z</time>
      </trkpt>
      <trkpt lat="45.96373" lon="4.71592">
        <ele>182</ele>
        <time>2017-07-11T10:43:44Z</time>
      </trkpt>
      <trkpt lat="45.96366" lon="4.71591">
        <ele>182</ele>
        <time>2017-07-11T10:43:45Z</time>
      </trkpt>
      <trkpt lat="45.96358" lon="4.7159">
        <ele>182</ele>
        <time>2017-07-11T10:43:46Z</time>
      </trkpt>
      <trkpt lat="45.96351" lon="4.71589">
        <ele>182</ele>
        <time>2017-07-11T10:43:47Z</time>
      </trkpt>
      <trkpt lat="45.96345" lon="4.71588">
        <ele>182</ele>
        <time>2017-07-11T10:43:48Z</time>
      </trkpt>
      <trkpt lat="45.96338" lon="4.71587">
        <ele>183</ele>
        <time>2017-07-11T10:43:49Z</time>
      </trkpt>
      <trkpt lat="45.9633" lon="4.71585">
        <ele>182</ele>
        <time>2017-07-11T10:43:50Z</time>
      </trkpt>
      <trkpt lat="45.96321" lon="4.71583">
        <ele>184</ele>
        <time>2017-07-11T10:43:51Z</time>
      </trkpt>
      <trkpt lat="45.96315" lon="4.71582">
        <ele>184</ele>
        <time>2017-07-11T10:43:52Z</time>
      </trkpt>
      <trkpt lat="45.96308" lon="4.71581">
        <ele>184</ele>
        <time>2017-07-11T10:43:53Z</time>
      </trkpt>
      <trkpt lat="45.96302" lon="4.7158">
        <ele>184</ele>
        <time>2017-07-11T10:43:54Z</time>
      </trkpt>
      <trkpt lat="45.96296" lon="4.71579">
        <ele>184</ele>
        <time>2017-07-11T10:43:55Z</time>
      </trkpt>
      <trkpt lat="45.9629" lon="4.71578">
        <ele>184</ele>
        <time>2017-07-11T10:43:56Z</time>
      </trkpt>
      <trkpt lat="45.96284" lon="4.71578">
        <ele>184</ele>
        <time>2017-07-11T10:43:57Z</time>
      </trkpt>
      <trkpt lat="45.96279" lon="4.71577">
        <ele>184</ele>
        <time>2017-07-11T10:43:58Z</time>
      </trkpt>
      <trkpt lat="45.96273" lon="4.71576">
        <ele>184</ele>
        <time>2017-07-11T10:43:59Z</time>
      </trkpt>
      <trkpt lat="45.96266" lon="4.71574">
        <ele>183</ele>
        <time>2017-07-11T10:44:00Z</time>
      </trkpt>
      <trkpt lat="45.9626" lon="4.71573">
        <ele>183</ele>
        <time>2017-07-11T10:44:01Z</time>
      </trkpt>
      <trkpt lat="45.96253" lon="4.71572">
        <ele>183</ele>
        <time>2017-07-11T10:44:02Z</time>
      </trkpt>
      <trkpt lat="45.96247" lon="4.7157">
        <ele>182</ele>
        <time>2017-07-11T10:44:03Z</time>
      </trkpt>
      <trkpt lat="45.96241" lon="4.71569">
        <ele>183</ele>
        <time>2017-07-11T10:44:04Z</time>
      </trkpt>
      <trkpt lat="45.96235" lon="4.71569">
        <ele>183</ele>
        <time>2017-07-11T10:44:05Z</time>
      </trkpt>
      <trkpt lat="45.96228" lon="4.71567">
        <ele>183</ele>
        <time>2017-07-11T10:44:06Z</time>
      </trkpt>
      <trkpt lat="45.96222" lon="4.71566">
        <ele>183</ele>
        <time>2017-07-11T10:44:07Z</time>
      </trkpt>
      <trkpt lat="45.96218" lon="4.71564">
        <ele>183</ele>
        <time>2017-07-11T10:44:08Z</time>
      </trkpt>
      <trkpt lat="45.96212" lon="4.71563">
        <ele>183</ele>
        <time>2017-07-11T10:44:09Z</time>
      </trkpt>
      <trkpt lat="45.96204" lon="4.7156">
        <ele>183</ele>
        <time>2017-07-11T10:44:11Z</time>
      </trkpt>
      <trkpt lat="45.96198" lon="4.7156">
        <ele>183</ele>
        <time>2017-07-11T10:44:12Z</time>
      </trkpt>
      <trkpt lat="45.96193" lon="4.71559">
        <ele>183</ele>
        <time>2017-07-11T10:44:13Z</time>
      </trkpt>
      <trkpt lat="45.96188" lon="4.71558">
        <ele>183</ele>
        <time>2017-07-11T10:44:14Z</time>
      </trkpt>
      <trkpt lat="45.96183" lon="4.71557">
        <ele>183</ele>
        <time>2017-07-11T10:44:15Z</time>
      </trkpt>
      <trkpt lat="45.96177" lon="4.71556">
        <ele>183</ele>
        <time>2017-07-11T10:44:16Z</time>
      </trkpt>
      <trkpt lat="45.96172" lon="4.71555">
        <ele>183</ele>
        <time>2017-07-11T10:44:17Z</time>
      </trkpt>
      <trkpt lat="45.96166" lon="4.71554">
        <ele>184</ele>
        <time>2017-07-11T10:44:18Z</time>
      </trkpt>
      <trkpt lat="45.96162" lon="4.71552">
        <ele>184</ele>
        <time>2017-07-11T10:44:19Z</time>
      </trkpt>
      <trkpt lat="45.96157" lon="4.71551">
        <ele>184</ele>
        <time>2017-07-11T10:44:20Z</time>
      </trkpt>
      <trkpt lat="45.9615" lon="4.7155">
        <ele>184</ele>
        <time>2017-07-11T10:44:21Z</time>
      </trkpt>
      <trkpt lat="45.96145" lon="4.71549">
        <ele>184</ele>
        <time>2017-07-11T10:44:22Z</time>
      </trkpt>
      <trkpt lat="45.9614" lon="4.71548">
        <ele>184</ele>
        <time>2017-07-11T10:44:23Z</time>
      </trkpt>
      <trkpt lat="45.96135" lon="4.71547">
        <ele>184</ele>
        <time>2017-07-11T10:44:24Z</time>
      </trkpt>
      <trkpt lat="45.9613" lon="4.71546">
        <ele>185</ele>
        <time>2017-07-11T10:44:25Z</time>
      </trkpt>
      <trkpt lat="45.96125" lon="4.71545">
        <ele>185</ele>
        <time>2017-07-11T10:44:26Z</time>
      </trkpt>
      <trkpt lat="45.9612" lon="4.71544">
        <ele>185</ele>
        <time>2017-07-11T10:44:27Z</time>
      </trkpt>
      <trkpt lat="45.96114" lon="4.71543">
        <ele>185</ele>
        <time>2017-07-11T10:44:28Z</time>
      </trkpt>
      <trkpt lat="45.96108" lon="4.71543">
        <ele>185</ele>
        <time>2017-07-11T10:44:29Z</time>
      </trkpt>
      <trkpt lat="45.96102" lon="4.71542">
        <ele>185</ele>
        <time>2017-07-11T10:44:30Z</time>
      </trkpt>
      <trkpt lat="45.96095" lon="4.71541">
        <ele>185</ele>
        <time>2017-07-11T10:44:31Z</time>
      </trkpt>
      <trkpt lat="45.96089" lon="4.71539">
        <ele>185</ele>
        <time>2017-07-11T10:44:32Z</time>
      </trkpt>
      <trkpt lat="45.96082" lon="4.71538">
        <ele>185</ele>
        <time>2017-07-11T10:44:33Z</time>
      </trkpt>
      <trkpt lat="45.96076" lon="4.71537">
        <ele>186</ele>
        <time>2017-07-11T10:44:34Z</time>
      </trkpt>
      <trkpt lat="45.96069" lon="4.71536">
        <ele>186</ele>
        <time>2017-07-11T10:44:35Z</time>
      </trkpt>
      <trkpt lat="45.96063" lon="4.71534">
        <ele>186</ele>
        <time>2017-07-11T10:44:36Z</time>
      </trkpt>
      <trkpt lat="45.96057" lon="4.71533">
        <ele>186</ele>
        <time>2017-07-11T10:44:37Z</time>
      </trkpt>
      <trkpt lat="45.96051" lon="4.71532">
        <ele>186</ele>
        <time>2017-07-11T10:44:38Z</time>
      </trkpt>
      <trkpt lat="45.96045" lon="4.71531">
        <ele>186</ele>
        <time>2017-07-11T10:44:39Z</time>
      </trkpt>
      <trkpt lat="45.9604" lon="4.7153">
        <ele>186</ele>
        <time>2017-07-11T10:44:40Z</time>
      </trkpt>
      <trkpt lat="45.96035" lon="4.71529">
        <ele>186</ele>
        <time>2017-07-11T10:44:41Z</time>
      </trkpt>
      <trkpt lat="45.96029" lon="4.71528">
        <ele>186</ele>
        <time>2017-07-11T10:44:42Z</time>
      </trkpt>
      <trkpt lat="45.96024" lon="4.71528">
        <ele>186</ele>
        <time>2017-07-11T10:44:43Z</time>
      </trkpt>
      <trkpt lat="45.96019" lon="4.71527">
        <ele>186</ele>
        <time>2017-07-11T10:44:44Z</time>
      </trkpt>
      <trkpt lat="45.9601" lon="4.71525">
        <ele>186</ele>
        <time>2017-07-11T10:44:46Z</time>
      </trkpt>
      <trkpt lat="45.96006" lon="4.71524">
        <ele>186</ele>
        <time>2017-07-11T10:44:47Z</time>
      </trkpt>
      <trkpt lat="45.96001" lon="4.71521">
        <ele>186</ele>
        <time>2017-07-11T10:44:48Z</time>
      </trkpt>
      <trkpt lat="45.95996" lon="4.71519">
        <ele>185</ele>
        <time>2017-07-11T10:44:49Z</time>
      </trkpt>
      <trkpt lat="45.95992" lon="4.71517">
        <ele>185</ele>
        <time>2017-07-11T10:44:50Z</time>
      </trkpt>
      <trkpt lat="45.95987" lon="4.71516">
        <ele>185</ele>
        <time>2017-07-11T10:44:51Z</time>
      </trkpt>
      <trkpt lat="45.95981" lon="4.71517">
        <ele>185</ele>
        <time>2017-07-11T10:44:52Z</time>
      </trkpt>
      <trkpt lat="45.95976" lon="4.71519">
        <ele>185</ele>
        <time>2017-07-11T10:44:53Z</time>
      </trkpt>
      <trkpt lat="45.9597" lon="4.71521">
        <ele>184</ele>
        <time>2017-07-11T10:44:54Z</time>
      </trkpt>
      <trkpt lat="45.95965" lon="4.71522">
        <ele>184</ele>
        <time>2017-07-11T10:44:55Z</time>
      </trkpt>
      <trkpt lat="45.95959" lon="4.71523">
        <ele>184</ele>
        <time>2017-07-11T10:44:56Z</time>
      </trkpt>
      <trkpt lat="45.95953" lon="4.71524">
        <ele>184</ele>
        <time>2017-07-11T10:44:57Z</time>
      </trkpt>
      <trkpt lat="45.95946" lon="4.71525">
        <ele>184</ele>
        <time>2017-07-11T10:44:58Z</time>
      </trkpt>
      <trkpt lat="45.95941" lon="4.71525">
        <ele>184</ele>
        <time>2017-07-11T10:44:59Z</time>
      </trkpt>
      <trkpt lat="45.95934" lon="4.71525">
        <ele>184</ele>
        <time>2017-07-11T10:45:00Z</time>
      </trkpt>
      <trkpt lat="45.95929" lon="4.71525">
        <ele>184</ele>
        <time>2017-07-11T10:45:01Z</time>
      </trkpt>
      <trkpt lat="45.95923" lon="4.71525">
        <ele>184</ele>
        <time>2017-07-11T10:45:02Z</time>
      </trkpt>
      <trkpt lat="45.95917" lon="4.71525">
        <ele>184</ele>
        <time>2017-07-11T10:45:03Z</time>
      </trkpt>
      <trkpt lat="45.95911" lon="4.71525">
        <ele>182</ele>
        <time>2017-07-11T10:45:04Z</time>
      </trkpt>
      <trkpt lat="45.95905" lon="4.71525">
        <ele>182</ele>
        <time>2017-07-11T10:45:05Z</time>
      </trkpt>
      <trkpt lat="45.95899" lon="4.71525">
        <ele>182</ele>
        <time>2017-07-11T10:45:06Z</time>
      </trkpt>
      <trkpt lat="45.95893" lon="4.71524">
        <ele>182</ele>
        <time>2017-07-11T10:45:07Z</time>
      </trkpt>
      <trkpt lat="45.95887" lon="4.71524">
        <ele>182</ele>
        <time>2017-07-11T10:45:08Z</time>
      </trkpt>
      <trkpt lat="45.95881" lon="4.71524">
        <ele>182</ele>
        <time>2017-07-11T10:45:09Z</time>
      </trkpt>
      <trkpt lat="45.95875" lon="4.71523">
        <ele>182</ele>
        <time>2017-07-11T10:45:10Z</time>
      </trkpt>
      <trkpt lat="45.95869" lon="4.71523">
        <ele>182</ele>
        <time>2017-07-11T10:45:11Z</time>
      </trkpt>
      <trkpt lat="45.95862" lon="4.71523">
        <ele>182</ele>
        <time>2017-07-11T10:45:12Z</time>
      </trkpt>
      <trkpt lat="45.95855" lon="4.71523">
        <ele>182</ele>
        <time>2017-07-11T10:45:13Z</time>
      </trkpt>
      <trkpt lat="45.95849" lon="4.71523">
        <ele>182</ele>
        <time>2017-07-11T10:45:14Z</time>
      </trkpt>
      <trkpt lat="45.95843" lon="4.71522">
        <ele>182</ele>
        <time>2017-07-11T10:45:15Z</time>
      </trkpt>
      <trkpt lat="45.95837" lon="4.71522">
        <ele>182</ele>
        <time>2017-07-11T10:45:16Z</time>
      </trkpt>
      <trkpt lat="45.95831" lon="4.71522">
        <ele>182</ele>
        <time>2017-07-11T10:45:17Z</time>
      </trkpt>
      <trkpt lat="45.95824" lon="4.71521">
        <ele>182</ele>
        <time>2017-07-11T10:45:18Z</time>
      </trkpt>
      <trkpt lat="45.95818" lon="4.71521">
        <ele>181</ele>
        <time>2017-07-11T10:45:19Z</time>
      </trkpt>
      <trkpt lat="45.95812" lon="4.71521">
        <ele>181</ele>
        <time>2017-07-11T10:45:20Z</time>
      </trkpt>
      <trkpt lat="45.95806" lon="4.71521">
        <ele>181</ele>
        <time>2017-07-11T10:45:21Z</time>
      </trkpt>
      <trkpt lat="45.958" lon="4.7152">
        <ele>181</ele>
        <time>2017-07-11T10:45:22Z</time>
      </trkpt>
      <trkpt lat="45.95793" lon="4.7152">
        <ele>181</ele>
        <time>2017-07-11T10:45:23Z</time>
      </trkpt>
      <trkpt lat="45.95787" lon="4.7152">
        <ele>181</ele>
        <time>2017-07-11T10:45:24Z</time>
      </trkpt>
      <trkpt lat="45.95781" lon="4.7152">
        <ele>181</ele>
        <time>2017-07-11T10:45:25Z</time>
      </trkpt>
      <trkpt lat="45.95775" lon="4.7152">
        <ele>181</ele>
        <time>2017-07-11T10:45:26Z</time>
      </trkpt>
      <trkpt lat="45.95768" lon="4.71519">
        <ele>181</ele>
        <time>2017-07-11T10:45:27Z</time>
      </trkpt>
      <trkpt lat="45.95762" lon="4.71519">
        <ele>181</ele>
        <time>2017-07-11T10:45:28Z</time>
      </trkpt>
      <trkpt lat="45.95755" lon="4.71518">
        <ele>181</ele>
        <time>2017-07-11T10:45:29Z</time>
      </trkpt>
      <trkpt lat="45.95749" lon="4.71518">
        <ele>181</ele>
        <time>2017-07-11T10:45:30Z</time>
      </trkpt>
      <trkpt lat="45.95742" lon="4.71517">
        <ele>181</ele>
        <time>2017-07-11T10:45:31Z</time>
      </trkpt>
      <trkpt lat="45.95736" lon="4.71517">
        <ele>181</ele>
        <time>2017-07-11T10:45:32Z</time>
      </trkpt>
      <trkpt lat="45.9573" lon="4.71516">
        <ele>180</ele>
        <time>2017-07-11T10:45:33Z</time>
      </trkpt>
      <trkpt lat="45.95724" lon="4.71515">
        <ele>180</ele>
        <time>2017-07-11T10:45:34Z</time>
      </trkpt>
      <trkpt lat="45.95718" lon="4.71515">
        <ele>180</ele>
        <time>2017-07-11T10:45:35Z</time>
      </trkpt>
      <trkpt lat="45.95712" lon="4.71515">
        <ele>180</ele>
        <time>2017-07-11T10:45:36Z</time>
      </trkpt>
      <trkpt lat="45.95705" lon="4.71514">
        <ele>180</ele>
        <time>2017-07-11T10:45:37Z</time>
      </trkpt>
      <trkpt lat="45.957" lon="4.71513">
        <ele>180</ele>
        <time>2017-07-11T10:45:38Z</time>
      </trkpt>
      <trkpt lat="45.95695" lon="4.71511">
        <ele>180</ele>
        <time>2017-07-11T10:45:39Z</time>
      </trkpt>
      <trkpt lat="45.95689" lon="4.7151">
        <ele>181</ele>
        <time>2017-07-11T10:45:40Z</time>
      </trkpt>
      <trkpt lat="45.95683" lon="4.7151">
        <ele>181</ele>
        <time>2017-07-11T10:45:41Z</time>
      </trkpt>
      <trkpt lat="45.95677" lon="4.71509">
        <ele>181</ele>
        <time>2017-07-11T10:45:42Z</time>
      </trkpt>
      <trkpt lat="45.95671" lon="4.71508">
        <ele>181</ele>
        <time>2017-07-11T10:45:43Z</time>
      </trkpt>
      <trkpt lat="45.95664" lon="4.71507">
        <ele>181</ele>
        <time>2017-07-11T10:45:44Z</time>
      </trkpt>
      <trkpt lat="45.95658" lon="4.71506">
        <ele>181</ele>
        <time>2017-07-11T10:45:45Z</time>
      </trkpt>
      <trkpt lat="45.95651" lon="4.71505">
        <ele>180</ele>
        <time>2017-07-11T10:45:46Z</time>
      </trkpt>
      <trkpt lat="45.95645" lon="4.71503">
        <ele>180</ele>
        <time>2017-07-11T10:45:47Z</time>
      </trkpt>
      <trkpt lat="45.95639" lon="4.71502">
        <ele>180</ele>
        <time>2017-07-11T10:45:48Z</time>
      </trkpt>
      <trkpt lat="45.95632" lon="4.71502">
        <ele>180</ele>
        <time>2017-07-11T10:45:49Z</time>
      </trkpt>
      <trkpt lat="45.95626" lon="4.71502">
        <ele>180</ele>
        <time>2017-07-11T10:45:50Z</time>
      </trkpt>
      <trkpt lat="45.9562" lon="4.71501">
        <ele>180</ele>
        <time>2017-07-11T10:45:51Z</time>
      </trkpt>
      <trkpt lat="45.95614" lon="4.715">
        <ele>181</ele>
        <time>2017-07-11T10:45:52Z</time>
      </trkpt>
      <trkpt lat="45.95607" lon="4.71498">
        <ele>181</ele>
        <time>2017-07-11T10:45:53Z</time>
      </trkpt>
      <trkpt lat="45.95601" lon="4.71498">
        <ele>181</ele>
        <time>2017-07-11T10:45:54Z</time>
      </trkpt>
      <trkpt lat="45.95597" lon="4.71497">
        <ele>181</ele>
        <time>2017-07-11T10:45:55Z</time>
      </trkpt>
      <trkpt lat="45.95592" lon="4.71496">
        <ele>181</ele>
        <time>2017-07-11T10:45:56Z</time>
      </trkpt>
      <trkpt lat="45.95587" lon="4.71494">
        <ele>180</ele>
        <time>2017-07-11T10:45:57Z</time>
      </trkpt>
      <trkpt lat="45.95581" lon="4.71494">
        <ele>180</ele>
        <time>2017-07-11T10:45:58Z</time>
      </trkpt>
      <trkpt lat="45.95575" lon="4.71493">
        <ele>180</ele>
        <time>2017-07-11T10:45:59Z</time>
      </trkpt>
      <trkpt lat="45.9557" lon="4.71492">
        <ele>180</ele>
        <time>2017-07-11T10:46:00Z</time>
      </trkpt>
      <trkpt lat="45.95564" lon="4.71492">
        <ele>179</ele>
        <time>2017-07-11T10:46:01Z</time>
      </trkpt>
      <trkpt lat="45.95559" lon="4.71492">
        <ele>179</ele>
        <time>2017-07-11T10:46:02Z</time>
      </trkpt>
      <trkpt lat="45.95553" lon="4.71493">
        <ele>179</ele>
        <time>2017-07-11T10:46:03Z</time>
      </trkpt>
      <trkpt lat="45.95545" lon="4.71492">
        <ele>179</ele>
        <time>2017-07-11T10:46:04Z</time>
      </trkpt>
      <trkpt lat="45.95536" lon="4.71492">
        <ele>179</ele>
        <time>2017-07-11T10:46:05Z</time>
      </trkpt>
      <trkpt lat="45.95528" lon="4.71492">
        <ele>178</ele>
        <time>2017-07-11T10:46:06Z</time>
      </trkpt>
      <trkpt lat="45.95521" lon="4.71492">
        <ele>178</ele>
        <time>2017-07-11T10:46:07Z</time>
      </trkpt>
      <trkpt lat="45.95513" lon="4.71493">
        <ele>178</ele>
        <time>2017-07-11T10:46:08Z</time>
      </trkpt>
      <trkpt lat="45.95506" lon="4.71493">
        <ele>178</ele>
        <time>2017-07-11T10:46:09Z</time>
      </trkpt>
      <trkpt lat="45.95499" lon="4.71493">
        <ele>177</ele>
        <time>2017-07-11T10:46:10Z</time>
      </trkpt>
      <trkpt lat="45.95492" lon="4.71492">
        <ele>177</ele>
        <time>2017-07-11T10:46:11Z</time>
      </trkpt>
      <trkpt lat="45.95484" lon="4.71492">
        <ele>177</ele>
        <time>2017-07-11T10:46:12Z</time>
      </trkpt>
      <trkpt lat="45.95478" lon="4.71492">
        <ele>176</ele>
        <time>2017-07-11T10:46:13Z</time>
      </trkpt>
      <trkpt lat="45.95471" lon="4.71492">
        <ele>176</ele>
        <time>2017-07-11T10:46:14Z</time>
      </trkpt>
      <trkpt lat="45.95464" lon="4.71493">
        <ele>176</ele>
        <time>2017-07-11T10:46:15Z</time>
      </trkpt>
      <trkpt lat="45.95457" lon="4.71492">
        <ele>176</ele>
        <time>2017-07-11T10:46:16Z</time>
      </trkpt>
      <trkpt lat="45.95451" lon="4.71492">
        <ele>176</ele>
        <time>2017-07-11T10:46:17Z</time>
      </trkpt>
      <trkpt lat="45.95444" lon="4.71492">
        <ele>176</ele>
        <time>2017-07-11T10:46:18Z</time>
      </trkpt>
      <trkpt lat="45.95437" lon="4.71492">
        <ele>175</ele>
        <time>2017-07-11T10:46:19Z</time>
      </trkpt>
      <trkpt lat="45.95431" lon="4.71492">
        <ele>175</ele>
        <time>2017-07-11T10:46:20Z</time>
      </trkpt>
      <trkpt lat="45.95425" lon="4.71491">
        <ele>175</ele>
        <time>2017-07-11T10:46:21Z</time>
      </trkpt>
      <trkpt lat="45.95419" lon="4.7149">
        <ele>175</ele>
        <time>2017-07-11T10:46:22Z</time>
      </trkpt>
      <trkpt lat="45.95413" lon="4.7149">
        <ele>174</ele>
        <time>2017-07-11T10:46:23Z</time>
      </trkpt>
      <trkpt lat="45.95406" lon="4.71489">
        <ele>175</ele>
        <time>2017-07-11T10:46:24Z</time>
      </trkpt>
      <trkpt lat="45.95399" lon="4.71489">
        <ele>175</ele>
        <time>2017-07-11T10:46:25Z</time>
      </trkpt>
      <trkpt lat="45.95392" lon="4.71488">
        <ele>175</ele>
        <time>2017-07-11T10:46:26Z</time>
      </trkpt>
      <trkpt lat="45.95384" lon="4.71488">
        <ele>175</ele>
        <time>2017-07-11T10:46:27Z</time>
      </trkpt>
      <trkpt lat="45.95377" lon="4.71488">
        <ele>175</ele>
        <time>2017-07-11T10:46:28Z</time>
      </trkpt>
      <trkpt lat="45.9537" lon="4.71487">
        <ele>175</ele>
        <time>2017-07-11T10:46:29Z</time>
      </trkpt>
      <trkpt lat="45.95363" lon="4.71487">
        <ele>175</ele>
        <time>2017-07-11T10:46:30Z</time>
      </trkpt>
      <trkpt lat="45.95356" lon="4.71487">
        <ele>175</ele>
        <time>2017-07-11T10:46:31Z</time>
      </trkpt>
      <trkpt lat="45.95349" lon="4.71486">
        <ele>175</ele>
        <time>2017-07-11T10:46:32Z</time>
      </trkpt>
      <trkpt lat="45.95343" lon="4.71485">
        <ele>175</ele>
        <time>2017-07-11T10:46:33Z</time>
      </trkpt>
      <trkpt lat="45.95336" lon="4.71485">
        <ele>175</ele>
        <time>2017-07-11T10:46:34Z</time>
      </trkpt>
      <trkpt lat="45.9533" lon="4.71485">
        <ele>175</ele>
        <time>2017-07-11T10:46:35Z</time>
      </trkpt>
      <trkpt lat="45.95325" lon="4.71485">
        <ele>175</ele>
        <time>2017-07-11T10:46:36Z</time>
      </trkpt>
      <trkpt lat="45.95319" lon="4.71485">
        <ele>175</ele>
        <time>2017-07-11T10:46:37Z</time>
      </trkpt>
      <trkpt lat="45.95313" lon="4.71486">
        <ele>175</ele>
        <time>2017-07-11T10:46:38Z</time>
      </trkpt>
      <trkpt lat="45.95307" lon="4.71486">
        <ele>175</ele>
        <time>2017-07-11T10:46:39Z</time>
      </trkpt>
      <trkpt lat="45.95301" lon="4.71486">
        <ele>175</ele>
        <time>2017-07-11T10:46:40Z</time>
      </trkpt>
      <trkpt lat="45.95295" lon="4.71485">
        <ele>176</ele>
        <time>2017-07-11T10:46:41Z</time>
      </trkpt>
      <trkpt lat="45.95289" lon="4.71485">
        <ele>176</ele>
        <time>2017-07-11T10:46:42Z</time>
      </trkpt>
      <trkpt lat="45.95283" lon="4.71485">
        <ele>176</ele>
        <time>2017-07-11T10:46:43Z</time>
      </trkpt>
      <trkpt lat="45.95277" lon="4.71484">
        <ele>176</ele>
        <time>2017-07-11T10:46:44Z</time>
      </trkpt>
      <trkpt lat="45.95271" lon="4.71484">
        <ele>176</ele>
        <time>2017-07-11T10:46:45Z</time>
      </trkpt>
      <trkpt lat="45.95265" lon="4.71483">
        <ele>176</ele>
        <time>2017-07-11T10:46:46Z</time>
      </trkpt>
      <trkpt lat="45.95259" lon="4.71483">
        <ele>176</ele>
        <time>2017-07-11T10:46:47Z</time>
      </trkpt>
      <trkpt lat="45.95253" lon="4.71482">
        <ele>176</ele>
        <time>2017-07-11T10:46:48Z</time>
      </trkpt>
      <trkpt lat="45.95246" lon="4.71482">
        <ele>177</ele>
        <time>2017-07-11T10:46:49Z</time>
      </trkpt>
      <trkpt lat="45.9524" lon="4.71481">
        <ele>177</ele>
        <time>2017-07-11T10:46:50Z</time>
      </trkpt>
      <trkpt lat="45.95233" lon="4.7148">
        <ele>177</ele>
        <time>2017-07-11T10:46:51Z</time>
      </trkpt>
      <trkpt lat="45.95227" lon="4.71479">
        <ele>177</ele>
        <time>2017-07-11T10:46:52Z</time>
      </trkpt>
      <trkpt lat="45.9522" lon="4.71479">
        <ele>177</ele>
        <time>2017-07-11T10:46:53Z</time>
      </trkpt>
      <trkpt lat="45.95214" lon="4.71478">
        <ele>177</ele>
        <time>2017-07-11T10:46:54Z</time>
      </trkpt>
      <trkpt lat="45.95208" lon="4.71477">
        <ele>177</ele>
        <time>2017-07-11T10:46:55Z</time>
      </trkpt>
      <trkpt lat="45.95203" lon="4.71476">
        <ele>177</ele>
        <time>2017-07-11T10:46:56Z</time>
      </trkpt>
      <trkpt lat="45.95197" lon="4.71475">
        <ele>177</ele>
        <time>2017-07-11T10:46:57Z</time>
      </trkpt>
      <trkpt lat="45.95192" lon="4.71474">
        <ele>177</ele>
        <time>2017-07-11T10:46:58Z</time>
      </trkpt>
      <trkpt lat="45.95187" lon="4.71474">
        <ele>177</ele>
        <time>2017-07-11T10:46:59Z</time>
      </trkpt>
      <trkpt lat="45.95182" lon="4.71474">
        <ele>177</ele>
        <time>2017-07-11T10:47:00Z</time>
      </trkpt>
      <trkpt lat="45.95176" lon="4.71473">
        <ele>177</ele>
        <time>2017-07-11T10:47:01Z</time>
      </trkpt>
      <trkpt lat="45.95171" lon="4.71472">
        <ele>177</ele>
        <time>2017-07-11T10:47:02Z</time>
      </trkpt>
      <trkpt lat="45.95165" lon="4.71471">
        <ele>178</ele>
        <time>2017-07-11T10:47:03Z</time>
      </trkpt>
      <trkpt lat="45.95161" lon="4.71472">
        <ele>178</ele>
        <time>2017-07-11T10:47:04Z</time>
      </trkpt>
      <trkpt lat="45.95156" lon="4.71472">
        <ele>178</ele>
        <time>2017-07-11T10:47:05Z</time>
      </trkpt>
      <trkpt lat="45.9515" lon="4.71471">
        <ele>178</ele>
        <time>2017-07-11T10:47:06Z</time>
      </trkpt>
      <trkpt lat="45.95145" lon="4.71471">
        <ele>178</ele>
        <time>2017-07-11T10:47:07Z</time>
      </trkpt>
      <trkpt lat="45.9514" lon="4.71472">
        <ele>178</ele>
        <time>2017-07-11T10:47:08Z</time>
      </trkpt>
      <trkpt lat="45.95135" lon="4.71472">
        <ele>178</ele>
        <time>2017-07-11T10:47:09Z</time>
      </trkpt>
      <trkpt lat="45.9513" lon="4.71472">
        <ele>178</ele>
        <time>2017-07-11T10:47:10Z</time>
      </trkpt>
      <trkpt lat="45.95125" lon="4.71472">
        <ele>178</ele>
        <time>2017-07-11T10:47:11Z</time>
      </trkpt>
      <trkpt lat="45.95117" lon="4.71471">
        <ele>179</ele>
        <time>2017-07-11T10:47:13Z</time>
      </trkpt>
      <trkpt lat="45.95112" lon="4.71471">
        <ele>179</ele>
        <time>2017-07-11T10:47:14Z</time>
      </trkpt>
      <trkpt lat="45.95108" lon="4.71471">
        <ele>179</ele>
        <time>2017-07-11T10:47:15Z</time>
      </trkpt>
      <trkpt lat="45.95103" lon="4.71471">
        <ele>179</ele>
        <time>2017-07-11T10:47:16Z</time>
      </trkpt>
      <trkpt lat="45.95095" lon="4.7147">
        <ele>179</ele>
        <time>2017-07-11T10:47:18Z</time>
      </trkpt>
      <trkpt lat="45.95091" lon="4.7147">
        <ele>179</ele>
        <time>2017-07-11T10:47:19Z</time>
      </trkpt>
      <trkpt lat="45.95083" lon="4.71469">
        <ele>181</ele>
        <time>2017-07-11T10:47:21Z</time>
      </trkpt>
      <trkpt lat="45.95079" lon="4.71469">
        <ele>181</ele>
        <time>2017-07-11T10:47:22Z</time>
      </trkpt>
      <trkpt lat="45.95071" lon="4.71468">
        <ele>181</ele>
        <time>2017-07-11T10:47:24Z</time>
      </trkpt>
      <trkpt lat="45.95066" lon="4.71468">
        <ele>181</ele>
        <time>2017-07-11T10:47:25Z</time>
      </trkpt>
      <trkpt lat="45.95061" lon="4.71467">
        <ele>181</ele>
        <time>2017-07-11T10:47:26Z</time>
      </trkpt>
      <trkpt lat="45.95057" lon="4.71467">
        <ele>181</ele>
        <time>2017-07-11T10:47:27Z</time>
      </trkpt>
      <trkpt lat="45.95048" lon="4.71466">
        <ele>181</ele>
        <time>2017-07-11T10:47:29Z</time>
      </trkpt>
      <trkpt lat="45.95043" lon="4.71466">
        <ele>182</ele>
        <time>2017-07-11T10:47:30Z</time>
      </trkpt>
      <trkpt lat="45.95034" lon="4.71466">
        <ele>182</ele>
        <time>2017-07-11T10:47:32Z</time>
      </trkpt>
      <trkpt lat="45.95031" lon="4.71465">
        <ele>182</ele>
        <time>2017-07-11T10:47:33Z</time>
      </trkpt>
      <trkpt lat="45.95023" lon="4.71464">
        <ele>182</ele>
        <time>2017-07-11T10:47:35Z</time>
      </trkpt>
      <trkpt lat="45.95019" lon="4.71464">
        <ele>182</ele>
        <time>2017-07-11T10:47:36Z</time>
      </trkpt>
      <trkpt lat="45.95011" lon="4.71463">
        <ele>182</ele>
        <time>2017-07-11T10:47:38Z</time>
      </trkpt>
      <trkpt lat="45.95008" lon="4.71462">
        <ele>182</ele>
        <time>2017-07-11T10:47:39Z</time>
      </trkpt>
      <trkpt lat="45.95" lon="4.71458">
        <ele>184</ele>
        <time>2017-07-11T10:47:41Z</time>
      </trkpt>
      <trkpt lat="45.94996" lon="4.71454">
        <ele>184</ele>
        <time>2017-07-11T10:47:42Z</time>
      </trkpt>
      <trkpt lat="45.9499" lon="4.71446">
        <ele>184</ele>
        <time>2017-07-11T10:47:44Z</time>
      </trkpt>
      <trkpt lat="45.94987" lon="4.71443">
        <ele>184</ele>
        <time>2017-07-11T10:47:45Z</time>
      </trkpt>
      <trkpt lat="45.9498" lon="4.71439">
        <ele>185</ele>
        <time>2017-07-11T10:47:47Z</time>
      </trkpt>
      <trkpt lat="45.94976" lon="4.71438">
        <ele>184</ele>
        <time>2017-07-11T10:47:48Z</time>
      </trkpt>
      <trkpt lat="45.94969" lon="4.71439">
        <ele>184</ele>
        <time>2017-07-11T10:47:50Z</time>
      </trkpt>
      <trkpt lat="45.94965" lon="4.71441">
        <ele>184</ele>
        <time>2017-07-11T10:47:51Z</time>
      </trkpt>
      <trkpt lat="45.94958" lon="4.71446">
        <ele>184</ele>
        <time>2017-07-11T10:47:53Z</time>
      </trkpt>
      <trkpt lat="45.94955" lon="4.7145">
        <ele>184</ele>
        <time>2017-07-11T10:47:54Z</time>
      </trkpt>
      <trkpt lat="45.94948" lon="4.71456">
        <ele>184</ele>
        <time>2017-07-11T10:47:56Z</time>
      </trkpt>
      <trkpt lat="45.94944" lon="4.71458">
        <ele>184</ele>
        <time>2017-07-11T10:47:57Z</time>
      </trkpt>
      <trkpt lat="45.94937" lon="4.7146">
        <ele>183</ele>
        <time>2017-07-11T10:47:59Z</time>
      </trkpt>
      <trkpt lat="45.94932" lon="4.71461">
        <ele>183</ele>
        <time>2017-07-11T10:48:00Z</time>
      </trkpt>
      <trkpt lat="45.94927" lon="4.71461">
        <ele>183</ele>
        <time>2017-07-11T10:48:01Z</time>
      </trkpt>
      <trkpt lat="45.94922" lon="4.71461">
        <ele>183</ele>
        <time>2017-07-11T10:48:02Z</time>
      </trkpt>
      <trkpt lat="45.94913" lon="4.71461">
        <ele>183</ele>
        <time>2017-07-11T10:48:04Z</time>
      </trkpt>
      <trkpt lat="45.94909" lon="4.71461">
        <ele>183</ele>
        <time>2017-07-11T10:48:05Z</time>
      </trkpt>
      <trkpt lat="45.949" lon="4.7146">
        <ele>183</ele>
        <time>2017-07-11T10:48:07Z</time>
      </trkpt>
      <trkpt lat="45.94896" lon="4.7146">
        <ele>183</ele>
        <time>2017-07-11T10:48:08Z</time>
      </trkpt>
      <trkpt lat="45.94888" lon="4.71459">
        <ele>183</ele>
        <time>2017-07-11T10:48:10Z</time>
      </trkpt>
      <trkpt lat="45.94883" lon="4.71458">
        <ele>184</ele>
        <time>2017-07-11T10:48:11Z</time>
      </trkpt>
      <trkpt lat="45.94878" lon="4.71458">
        <ele>184</ele>
        <time>2017-07-11T10:48:12Z</time>
      </trkpt>
      <trkpt lat="45.94873" lon="4.71457">
        <ele>184</ele>
        <time>2017-07-11T10:48:13Z</time>
      </trkpt>
      <trkpt lat="45.94868" lon="4.71457">
        <ele>184</ele>
        <time>2017-07-11T10:48:14Z</time>
      </trkpt>
      <trkpt lat="45.94864" lon="4.71457">
        <ele>184</ele>
        <time>2017-07-11T10:48:15Z</time>
      </trkpt>
      <trkpt lat="45.94856" lon="4.71457">
        <ele>184</ele>
        <time>2017-07-11T10:48:17Z</time>
      </trkpt>
      <trkpt lat="45.94851" lon="4.71456">
        <ele>184</ele>
        <time>2017-07-11T10:48:18Z</time>
      </trkpt>
      <trkpt lat="45.94847" lon="4.71456">
        <ele>184</ele>
        <time>2017-07-11T10:48:19Z</time>
      </trkpt>
      <trkpt lat="45.94842" lon="4.71456">
        <ele>184</ele>
        <time>2017-07-11T10:48:20Z</time>
      </trkpt>
      <trkpt lat="45.94837" lon="4.71456">
        <ele>184</ele>
        <time>2017-07-11T10:48:21Z</time>
      </trkpt>
      <trkpt lat="45.94833" lon="4.71455">
        <ele>183</ele>
        <time>2017-07-11T10:48:22Z</time>
      </trkpt>
      <trkpt lat="45.94828" lon="4.71455">
        <ele>183</ele>
        <time>2017-07-11T10:48:23Z</time>
      </trkpt>
      <trkpt lat="45.94823" lon="4.71455">
        <ele>183</ele>
        <time>2017-07-11T10:48:24Z</time>
      </trkpt>
      <trkpt lat="45.94819" lon="4.71454">
        <ele>183</ele>
        <time>2017-07-11T10:48:25Z</time>
      </trkpt>
      <trkpt lat="45.94813" lon="4.71454">
        <ele>183</ele>
        <time>2017-07-11T10:48:26Z</time>
      </trkpt>
      <trkpt lat="45.94808" lon="4.71454">
        <ele>183</ele>
        <time>2017-07-11T10:48:27Z</time>
      </trkpt>
      <trkpt lat="45.94803" lon="4.71454">
        <ele>183</ele>
        <time>2017-07-11T10:48:28Z</time>
      </trkpt>
      <trkpt lat="45.94798" lon="4.71454">
        <ele>183</ele>
        <time>2017-07-11T10:48:29Z</time>
      </trkpt>
      <trkpt lat="45.94793" lon="4.71453">
        <ele>183</ele>
        <time>2017-07-11T10:48:30Z</time>
      </trkpt>
      <trkpt lat="45.94787" lon="4.71452">
        <ele>183</ele>
        <time>2017-07-11T10:48:31Z</time>
      </trkpt>
      <trkpt lat="45.94782" lon="4.71452">
        <ele>183</ele>
        <time>2017-07-11T10:48:32Z</time>
      </trkpt>
      <trkpt lat="45.94776" lon="4.71451">
        <ele>183</ele>
        <time>2017-07-11T10:48:33Z</time>
      </trkpt>
      <trkpt lat="45.94771" lon="4.71451">
        <ele>183</ele>
        <time>2017-07-11T10:48:34Z</time>
      </trkpt>
      <trkpt lat="45.94762" lon="4.71451">
        <ele>183</ele>
        <time>2017-07-11T10:48:36Z</time>
      </trkpt>
      <trkpt lat="45.94757" lon="4.7145">
        <ele>183</ele>
        <time>2017-07-11T10:48:37Z</time>
      </trkpt>
      <trkpt lat="45.94749" lon="4.71449">
        <ele>183</ele>
        <time>2017-07-11T10:48:39Z</time>
      </trkpt>
      <trkpt lat="45.94744" lon="4.71448">
        <ele>183</ele>
        <time>2017-07-11T10:48:40Z</time>
      </trkpt>
      <trkpt lat="45.9474" lon="4.71448">
        <ele>182</ele>
        <time>2017-07-11T10:48:41Z</time>
      </trkpt>
      <trkpt lat="45.94735" lon="4.71448">
        <ele>182</ele>
        <time>2017-07-11T10:48:42Z</time>
      </trkpt>
      <trkpt lat="45.94729" lon="4.71447">
        <ele>182</ele>
        <time>2017-07-11T10:48:43Z</time>
      </trkpt>
      <trkpt lat="45.94724" lon="4.71446">
        <ele>182</ele>
        <time>2017-07-11T10:48:44Z</time>
      </trkpt>
      <trkpt lat="45.94719" lon="4.71446">
        <ele>182</ele>
        <time>2017-07-11T10:48:45Z</time>
      </trkpt>
      <trkpt lat="45.94713" lon="4.71445">
        <ele>182</ele>
        <time>2017-07-11T10:48:46Z</time>
      </trkpt>
      <trkpt lat="45.94708" lon="4.71445">
        <ele>182</ele>
        <time>2017-07-11T10:48:47Z</time>
      </trkpt>
      <trkpt lat="45.94704" lon="4.71444">
        <ele>182</ele>
        <time>2017-07-11T10:48:48Z</time>
      </trkpt>
      <trkpt lat="45.94698" lon="4.71444">
        <ele>182</ele>
        <time>2017-07-11T10:48:49Z</time>
      </trkpt>
      <trkpt lat="45.94694" lon="4.71444">
        <ele>182</ele>
        <time>2017-07-11T10:48:50Z</time>
      </trkpt>
      <trkpt lat="45.94688" lon="4.71444">
        <ele>182</ele>
        <time>2017-07-11T10:48:51Z</time>
      </trkpt>
      <trkpt lat="45.94684" lon="4.71444">
        <ele>182</ele>
        <time>2017-07-11T10:48:52Z</time>
      </trkpt>
      <trkpt lat="45.94678" lon="4.71444">
        <ele>182</ele>
        <time>2017-07-11T10:48:53Z</time>
      </trkpt>
      <trkpt lat="45.94673" lon="4.71444">
        <ele>182</ele>
        <time>2017-07-11T10:48:54Z</time>
      </trkpt>
      <trkpt lat="45.94668" lon="4.71444">
        <ele>182</ele>
        <time>2017-07-11T10:48:55Z</time>
      </trkpt>
      <trkpt lat="45.94663" lon="4.71444">
        <ele>181</ele>
        <time>2017-07-11T10:48:56Z</time>
      </trkpt>
      <trkpt lat="45.94658" lon="4.71444">
        <ele>181</ele>
        <time>2017-07-11T10:48:57Z</time>
      </trkpt>
      <trkpt lat="45.94653" lon="4.71443">
        <ele>181</ele>
        <time>2017-07-11T10:48:58Z</time>
      </trkpt>
      <trkpt lat="45.94647" lon="4.71443">
        <ele>181</ele>
        <time>2017-07-11T10:48:59Z</time>
      </trkpt>
      <trkpt lat="45.94643" lon="4.71443">
        <ele>181</ele>
        <time>2017-07-11T10:49:00Z</time>
      </trkpt>
      <trkpt lat="45.94637" lon="4.71442">
        <ele>181</ele>
        <time>2017-07-11T10:49:01Z</time>
      </trkpt>
      <trkpt lat="45.94632" lon="4.71442">
        <ele>181</ele>
        <time>2017-07-11T10:49:02Z</time>
      </trkpt>
      <trkpt lat="45.94627" lon="4.71441">
        <ele>181</ele>
        <time>2017-07-11T10:49:03Z</time>
      </trkpt>
      <trkpt lat="45.94621" lon="4.71441">
        <ele>181</ele>
        <time>2017-07-11T10:49:04Z</time>
      </trkpt>
      <trkpt lat="45.94616" lon="4.7144">
        <ele>181</ele>
        <time>2017-07-11T10:49:05Z</time>
      </trkpt>
      <trkpt lat="45.94611" lon="4.7144">
        <ele>182</ele>
        <time>2017-07-11T10:49:06Z</time>
      </trkpt>
      <trkpt lat="45.94606" lon="4.7144">
        <ele>182</ele>
        <time>2017-07-11T10:49:07Z</time>
      </trkpt>
      <trkpt lat="45.94601" lon="4.7144">
        <ele>182</ele>
        <time>2017-07-11T10:49:08Z</time>
      </trkpt>
      <trkpt lat="45.94596" lon="4.71441">
        <ele>182</ele>
        <time>2017-07-11T10:49:09Z</time>
      </trkpt>
      <trkpt lat="45.94591" lon="4.71441">
        <ele>182</ele>
        <time>2017-07-11T10:49:10Z</time>
      </trkpt>
      <trkpt lat="45.94585" lon="4.71441">
        <ele>182</ele>
        <time>2017-07-11T10:49:11Z</time>
      </trkpt>
      <trkpt lat="45.9458" lon="4.71442">
        <ele>182</ele>
        <time>2017-07-11T10:49:12Z</time>
      </trkpt>
      <trkpt lat="45.94575" lon="4.71443">
        <ele>181</ele>
        <time>2017-07-11T10:49:13Z</time>
      </trkpt>
      <trkpt lat="45.9457" lon="4.71445">
        <ele>181</ele>
        <time>2017-07-11T10:49:14Z</time>
      </trkpt>
      <trkpt lat="45.94564" lon="4.71446">
        <ele>181</ele>
        <time>2017-07-11T10:49:15Z</time>
      </trkpt>
      <trkpt lat="45.94558" lon="4.71448">
        <ele>181</ele>
        <time>2017-07-11T10:49:16Z</time>
      </trkpt>
      <trkpt lat="45.94552" lon="4.71449">
        <ele>181</ele>
        <time>2017-07-11T10:49:17Z</time>
      </trkpt>
      <trkpt lat="45.94545" lon="4.7145">
        <ele>180</ele>
        <time>2017-07-11T10:49:18Z</time>
      </trkpt>
      <trkpt lat="45.94539" lon="4.71452">
        <ele>180</ele>
        <time>2017-07-11T10:49:19Z</time>
      </trkpt>
      <trkpt lat="45.94532" lon="4.71455">
        <ele>180</ele>
        <time>2017-07-11T10:49:20Z</time>
      </trkpt>
      <trkpt lat="45.94525" lon="4.71458">
        <ele>180</ele>
        <time>2017-07-11T10:49:21Z</time>
      </trkpt>
      <trkpt lat="45.94517" lon="4.7146">
        <ele>180</ele>
        <time>2017-07-11T10:49:22Z</time>
      </trkpt>
      <trkpt lat="45.9451" lon="4.71462">
        <ele>180</ele>
        <time>2017-07-11T10:49:23Z</time>
      </trkpt>
      <trkpt lat="45.94503" lon="4.71465">
        <ele>180</ele>
        <time>2017-07-11T10:49:24Z</time>
      </trkpt>
      <trkpt lat="45.94496" lon="4.71468">
        <ele>179</ele>
        <time>2017-07-11T10:49:25Z</time>
      </trkpt>
      <trkpt lat="45.94489" lon="4.7147">
        <ele>179</ele>
        <time>2017-07-11T10:49:26Z</time>
      </trkpt>
      <trkpt lat="45.94482" lon="4.71472">
        <ele>179</ele>
        <time>2017-07-11T10:49:27Z</time>
      </trkpt>
      <trkpt lat="45.94473" lon="4.71473">
        <ele>179</ele>
        <time>2017-07-11T10:49:28Z</time>
      </trkpt>
      <trkpt lat="45.94464" lon="4.71473">
        <ele>179</ele>
        <time>2017-07-11T10:49:29Z</time>
      </trkpt>
      <trkpt lat="45.94456" lon="4.71475">
        <ele>179</ele>
        <time>2017-07-11T10:49:30Z</time>
      </trkpt>
      <trkpt lat="45.94449" lon="4.71477">
        <ele>179</ele>
        <time>2017-07-11T10:49:31Z</time>
      </trkpt>
      <trkpt lat="45.94442" lon="4.71481">
        <ele>179</ele>
        <time>2017-07-11T10:49:32Z</time>
      </trkpt>
      <trkpt lat="45.94435" lon="4.71484">
        <ele>179</ele>
        <time>2017-07-11T10:49:33Z</time>
      </trkpt>
      <trkpt lat="45.94428" lon="4.71487">
        <ele>178</ele>
        <time>2017-07-11T10:49:34Z</time>
      </trkpt>
      <trkpt lat="45.94422" lon="4.7149">
        <ele>178</ele>
        <time>2017-07-11T10:49:35Z</time>
      </trkpt>
      <trkpt lat="45.94415" lon="4.71492">
        <ele>178</ele>
        <time>2017-07-11T10:49:36Z</time>
      </trkpt>
      <trkpt lat="45.94408" lon="4.71496">
        <ele>178</ele>
        <time>2017-07-11T10:49:37Z</time>
      </trkpt>
      <trkpt lat="45.94402" lon="4.71499">
        <ele>178</ele>
        <time>2017-07-11T10:49:38Z</time>
      </trkpt>
      <trkpt lat="45.94395" lon="4.71502">
        <ele>177</ele>
        <time>2017-07-11T10:49:39Z</time>
      </trkpt>
      <trkpt lat="45.94388" lon="4.71502">
        <ele>177</ele>
        <time>2017-07-11T10:49:40Z</time>
      </trkpt>
      <trkpt lat="45.94381" lon="4.71504">
        <ele>177</ele>
        <time>2017-07-11T10:49:41Z</time>
      </trkpt>
      <trkpt lat="45.94375" lon="4.71507">
        <ele>177</ele>
        <time>2017-07-11T10:49:42Z</time>
      </trkpt>
      <trkpt lat="45.94368" lon="4.7151">
        <ele>176</ele>
        <time>2017-07-11T10:49:43Z</time>
      </trkpt>
      <trkpt lat="45.94362" lon="4.71514">
        <ele>176</ele>
        <time>2017-07-11T10:49:44Z</time>
      </trkpt>
      <trkpt lat="45.94355" lon="4.71517">
        <ele>176</ele>
        <time>2017-07-11T10:49:45Z</time>
      </trkpt>
      <trkpt lat="45.94349" lon="4.71521">
        <ele>176</ele>
        <time>2017-07-11T10:49:46Z</time>
      </trkpt>
      <trkpt lat="45.94343" lon="4.71523">
        <ele>176</ele>
        <time>2017-07-11T10:49:47Z</time>
      </trkpt>
      <trkpt lat="45.94337" lon="4.71526">
        <ele>176</ele>
        <time>2017-07-11T10:49:48Z</time>
      </trkpt>
      <trkpt lat="45.94331" lon="4.71529">
        <ele>176</ele>
        <time>2017-07-11T10:49:49Z</time>
      </trkpt>
      <trkpt lat="45.94324" lon="4.71531">
        <ele>176</ele>
        <time>2017-07-11T10:49:50Z</time>
      </trkpt>
      <trkpt lat="45.94317" lon="4.71533">
        <ele>175</ele>
        <time>2017-07-11T10:49:51Z</time>
      </trkpt>
      <trkpt lat="45.94311" lon="4.71535">
        <ele>175</ele>
        <time>2017-07-11T10:49:52Z</time>
      </trkpt>
      <trkpt lat="45.94305" lon="4.71538">
        <ele>175</ele>
        <time>2017-07-11T10:49:53Z</time>
      </trkpt>
      <trkpt lat="45.94298" lon="4.7154">
        <ele>175</ele>
        <time>2017-07-11T10:49:54Z</time>
      </trkpt>
      <trkpt lat="45.94293" lon="4.71542">
        <ele>175</ele>
        <time>2017-07-11T10:49:55Z</time>
      </trkpt>
      <trkpt lat="45.94286" lon="4.71544">
        <ele>175</ele>
        <time>2017-07-11T10:49:56Z</time>
      </trkpt>
      <trkpt lat="45.94281" lon="4.71547">
        <ele>175</ele>
        <time>2017-07-11T10:49:57Z</time>
      </trkpt>
      <trkpt lat="45.94276" lon="4.7155">
        <ele>175</ele>
        <time>2017-07-11T10:49:58Z</time>
      </trkpt>
      <trkpt lat="45.94272" lon="4.71552">
        <ele>175</ele>
        <time>2017-07-11T10:49:59Z</time>
      </trkpt>
      <trkpt lat="45.94266" lon="4.71554">
        <ele>175</ele>
        <time>2017-07-11T10:50:00Z</time>
      </trkpt>
      <trkpt lat="45.94261" lon="4.71556">
        <ele>175</ele>
        <time>2017-07-11T10:50:01Z</time>
      </trkpt>
      <trkpt lat="45.94255" lon="4.71557">
        <ele>175</ele>
        <time>2017-07-11T10:50:02Z</time>
      </trkpt>
      <trkpt lat="45.9425" lon="4.7156">
        <ele>175</ele>
        <time>2017-07-11T10:50:03Z</time>
      </trkpt>
      <trkpt lat="45.94245" lon="4.71563">
        <ele>174</ele>
        <time>2017-07-11T10:50:04Z</time>
      </trkpt>
      <trkpt lat="45.9424" lon="4.71565">
        <ele>174</ele>
        <time>2017-07-11T10:50:05Z</time>
      </trkpt>
      <trkpt lat="45.94235" lon="4.71566">
        <ele>174</ele>
        <time>2017-07-11T10:50:06Z</time>
      </trkpt>
      <trkpt lat="45.94229" lon="4.71568">
        <ele>174</ele>
        <time>2017-07-11T10:50:07Z</time>
      </trkpt>
      <trkpt lat="45.94224" lon="4.71568">
        <ele>174</ele>
        <time>2017-07-11T10:50:08Z</time>
      </trkpt>
      <trkpt lat="45.94219" lon="4.7157">
        <ele>174</ele>
        <time>2017-07-11T10:50:09Z</time>
      </trkpt>
      <trkpt lat="45.94214" lon="4.71572">
        <ele>174</ele>
        <time>2017-07-11T10:50:10Z</time>
      </trkpt>
      <trkpt lat="45.94209" lon="4.71574">
        <ele>174</ele>
        <time>2017-07-11T10:50:11Z</time>
      </trkpt>
      <trkpt lat="45.94204" lon="4.71576">
        <ele>174</ele>
        <time>2017-07-11T10:50:12Z</time>
      </trkpt>
      <trkpt lat="45.94199" lon="4.71579">
        <ele>174</ele>
        <time>2017-07-11T10:50:13Z</time>
      </trkpt>
      <trkpt lat="45.94194" lon="4.7158">
        <ele>174</ele>
        <time>2017-07-11T10:50:14Z</time>
      </trkpt>
      <trkpt lat="45.94189" lon="4.71582">
        <ele>174</ele>
        <time>2017-07-11T10:50:15Z</time>
      </trkpt>
      <trkpt lat="45.94184" lon="4.71584">
        <ele>173</ele>
        <time>2017-07-11T10:50:16Z</time>
      </trkpt>
      <trkpt lat="45.94178" lon="4.71586">
        <ele>174</ele>
        <time>2017-07-11T10:50:17Z</time>
      </trkpt>
      <trkpt lat="45.94172" lon="4.71588">
        <ele>174</ele>
        <time>2017-07-11T10:50:18Z</time>
      </trkpt>
      <trkpt lat="45.94167" lon="4.71591">
        <ele>174</ele>
        <time>2017-07-11T10:50:19Z</time>
      </trkpt>
      <trkpt lat="45.94161" lon="4.71594">
        <ele>173</ele>
        <time>2017-07-11T10:50:20Z</time>
      </trkpt>
      <trkpt lat="45.94155" lon="4.71596">
        <ele>173</ele>
        <time>2017-07-11T10:50:21Z</time>
      </trkpt>
      <trkpt lat="45.94148" lon="4.71599">
        <ele>173</ele>
        <time>2017-07-11T10:50:22Z</time>
      </trkpt>
      <trkpt lat="45.94142" lon="4.71602">
        <ele>173</ele>
        <time>2017-07-11T10:50:23Z</time>
      </trkpt>
      <trkpt lat="45.94136" lon="4.71604">
        <ele>173</ele>
        <time>2017-07-11T10:50:24Z</time>
      </trkpt>
      <trkpt lat="45.9413" lon="4.71606">
        <ele>173</ele>
        <time>2017-07-11T10:50:25Z</time>
      </trkpt>
      <trkpt lat="45.94124" lon="4.71609">
        <ele>173</ele>
        <time>2017-07-11T10:50:26Z</time>
      </trkpt>
      <trkpt lat="45.94119" lon="4.71611">
        <ele>173</ele>
        <time>2017-07-11T10:50:27Z</time>
      </trkpt>
      <trkpt lat="45.94113" lon="4.71614">
        <ele>173</ele>
        <time>2017-07-11T10:50:28Z</time>
      </trkpt>
      <trkpt lat="45.94108" lon="4.71615">
        <ele>173</ele>
        <time>2017-07-11T10:50:29Z</time>
      </trkpt>
      <trkpt lat="45.94102" lon="4.71616">
        <ele>173</ele>
        <time>2017-07-11T10:50:30Z</time>
      </trkpt>
      <trkpt lat="45.94097" lon="4.71618">
        <ele>173</ele>
        <time>2017-07-11T10:50:31Z</time>
      </trkpt>
      <trkpt lat="45.94091" lon="4.7162">
        <ele>173</ele>
        <time>2017-07-11T10:50:32Z</time>
      </trkpt>
      <trkpt lat="45.94086" lon="4.71623">
        <ele>173</ele>
        <time>2017-07-11T10:50:33Z</time>
      </trkpt>
      <trkpt lat="45.94081" lon="4.71624">
        <ele>174</ele>
        <time>2017-07-11T10:50:34Z</time>
      </trkpt>
      <trkpt lat="45.94076" lon="4.71626">
        <ele>174</ele>
        <time>2017-07-11T10:50:35Z</time>
      </trkpt>
      <trkpt lat="45.9407" lon="4.71631">
        <ele>174</ele>
        <time>2017-07-11T10:50:36Z</time>
      </trkpt>
      <trkpt lat="45.94065" lon="4.71633">
        <ele>174</ele>
        <time>2017-07-11T10:50:37Z</time>
      </trkpt>
      <trkpt lat="45.94059" lon="4.71635">
        <ele>174</ele>
        <time>2017-07-11T10:50:38Z</time>
      </trkpt>
      <trkpt lat="45.94054" lon="4.71637">
        <ele>174</ele>
        <time>2017-07-11T10:50:39Z</time>
      </trkpt>
      <trkpt lat="45.9405" lon="4.71639">
        <ele>175</ele>
        <time>2017-07-11T10:50:40Z</time>
      </trkpt>
      <trkpt lat="45.94045" lon="4.71642">
        <ele>175</ele>
        <time>2017-07-11T10:50:41Z</time>
      </trkpt>
      <trkpt lat="45.94039" lon="4.71644">
        <ele>175</ele>
        <time>2017-07-11T10:50:42Z</time>
      </trkpt>
      <trkpt lat="45.94034" lon="4.71646">
        <ele>175</ele>
        <time>2017-07-11T10:50:43Z</time>
      </trkpt>
      <trkpt lat="45.9403" lon="4.71648">
        <ele>175</ele>
        <time>2017-07-11T10:50:44Z</time>
      </trkpt>
      <trkpt lat="45.94025" lon="4.7165">
        <ele>175</ele>
        <time>2017-07-11T10:50:45Z</time>
      </trkpt>
      <trkpt lat="45.94019" lon="4.71652">
        <ele>176</ele>
        <time>2017-07-11T10:50:46Z</time>
      </trkpt>
      <trkpt lat="45.94014" lon="4.71654">
        <ele>176</ele>
        <time>2017-07-11T10:50:47Z</time>
      </trkpt>
      <trkpt lat="45.94008" lon="4.71657">
        <ele>176</ele>
        <time>2017-07-11T10:50:48Z</time>
      </trkpt>
      <trkpt lat="45.94003" lon="4.71659">
        <ele>176</ele>
        <time>2017-07-11T10:50:49Z</time>
      </trkpt>
      <trkpt lat="45.93998" lon="4.71661">
        <ele>177</ele>
        <time>2017-07-11T10:50:50Z</time>
      </trkpt>
      <trkpt lat="45.93993" lon="4.71662">
        <ele>177</ele>
        <time>2017-07-11T10:50:51Z</time>
      </trkpt>
      <trkpt lat="45.93987" lon="4.71662">
        <ele>177</ele>
        <time>2017-07-11T10:50:52Z</time>
      </trkpt>
      <trkpt lat="45.93982" lon="4.71663">
        <ele>177</ele>
        <time>2017-07-11T10:50:53Z</time>
      </trkpt>
      <trkpt lat="45.93977" lon="4.71664">
        <ele>177</ele>
        <time>2017-07-11T10:50:54Z</time>
      </trkpt>
      <trkpt lat="45.93972" lon="4.71666">
        <ele>177</ele>
        <time>2017-07-11T10:50:55Z</time>
      </trkpt>
      <trkpt lat="45.93966" lon="4.71669">
        <ele>175</ele>
        <time>2017-07-11T10:50:56Z</time>
      </trkpt>
      <trkpt lat="45.93961" lon="4.71671">
        <ele>175</ele>
        <time>2017-07-11T10:50:57Z</time>
      </trkpt>
      <trkpt lat="45.93956" lon="4.71672">
        <ele>175</ele>
        <time>2017-07-11T10:50:58Z</time>
      </trkpt>
      <trkpt lat="45.93951" lon="4.71674">
        <ele>175</ele>
        <time>2017-07-11T10:50:59Z</time>
      </trkpt>
      <trkpt lat="45.93946" lon="4.71675">
        <ele>175</ele>
        <time>2017-07-11T10:51:00Z</time>
      </trkpt>
      <trkpt lat="45.93941" lon="4.71678">
        <ele>175</ele>
        <time>2017-07-11T10:51:01Z</time>
      </trkpt>
      <trkpt lat="45.93935" lon="4.71681">
        <ele>175</ele>
        <time>2017-07-11T10:51:02Z</time>
      </trkpt>
      <trkpt lat="45.93931" lon="4.71682">
        <ele>175</ele>
        <time>2017-07-11T10:51:03Z</time>
      </trkpt>
      <trkpt lat="45.93926" lon="4.71684">
        <ele>175</ele>
        <time>2017-07-11T10:51:04Z</time>
      </trkpt>
      <trkpt lat="45.93922" lon="4.71686">
        <ele>175</ele>
        <time>2017-07-11T10:51:05Z</time>
      </trkpt>
      <trkpt lat="45.93917" lon="4.71689">
        <ele>175</ele>
        <time>2017-07-11T10:51:06Z</time>
      </trkpt>
      <trkpt lat="45.93913" lon="4.71691">
        <ele>174</ele>
        <time>2017-07-11T10:51:07Z</time>
      </trkpt>
      <trkpt lat="45.93908" lon="4.71693">
        <ele>174</ele>
        <time>2017-07-11T10:51:08Z</time>
      </trkpt>
      <trkpt lat="45.93903" lon="4.71695">
        <ele>174</ele>
        <time>2017-07-11T10:51:09Z</time>
      </trkpt>
      <trkpt lat="45.93898" lon="4.71698">
        <ele>174</ele>
        <time>2017-07-11T10:51:10Z</time>
      </trkpt>
      <trkpt lat="45.93893" lon="4.717">
        <ele>174</ele>
        <time>2017-07-11T10:51:11Z</time>
      </trkpt>
      <trkpt lat="45.93888" lon="4.71702">
        <ele>174</ele>
        <time>2017-07-11T10:51:12Z</time>
      </trkpt>
      <trkpt lat="45.93883" lon="4.71704">
        <ele>174</ele>
        <time>2017-07-11T10:51:13Z</time>
      </trkpt>
      <trkpt lat="45.93878" lon="4.71706">
        <ele>174</ele>
        <time>2017-07-11T10:51:14Z</time>
      </trkpt>
      <trkpt lat="45.93874" lon="4.71707">
        <ele>174</ele>
        <time>2017-07-11T10:51:15Z</time>
      </trkpt>
      <trkpt lat="45.93869" lon="4.71709">
        <ele>174</ele>
        <time>2017-07-11T10:51:16Z</time>
      </trkpt>
      <trkpt lat="45.93865" lon="4.71709">
        <ele>174</ele>
        <time>2017-07-11T10:51:17Z</time>
      </trkpt>
      <trkpt lat="45.9386" lon="4.71711">
        <ele>174</ele>
        <time>2017-07-11T10:51:18Z</time>
      </trkpt>
      <trkpt lat="45.93854" lon="4.71713">
        <ele>174</ele>
        <time>2017-07-11T10:51:19Z</time>
      </trkpt>
      <trkpt lat="45.93849" lon="4.71714">
        <ele>174</ele>
        <time>2017-07-11T10:51:20Z</time>
      </trkpt>
      <trkpt lat="45.93844" lon="4.71715">
        <ele>174</ele>
        <time>2017-07-11T10:51:21Z</time>
      </trkpt>
      <trkpt lat="45.93838" lon="4.71717">
        <ele>175</ele>
        <time>2017-07-11T10:51:22Z</time>
      </trkpt>
      <trkpt lat="45.93832" lon="4.71719">
        <ele>175</ele>
        <time>2017-07-11T10:51:23Z</time>
      </trkpt>
      <trkpt lat="45.93827" lon="4.7172">
        <ele>175</ele>
        <time>2017-07-11T10:51:24Z</time>
      </trkpt>
      <trkpt lat="45.93822" lon="4.71721">
        <ele>175</ele>
        <time>2017-07-11T10:51:25Z</time>
      </trkpt>
      <trkpt lat="45.93816" lon="4.71722">
        <ele>175</ele>
        <time>2017-07-11T10:51:26Z</time>
      </trkpt>
      <trkpt lat="45.93809" lon="4.71725">
        <ele>175</ele>
        <time>2017-07-11T10:51:27Z</time>
      </trkpt>
      <trkpt lat="45.93802" lon="4.71726">
        <ele>175</ele>
        <time>2017-07-11T10:51:28Z</time>
      </trkpt>
      <trkpt lat="45.93796" lon="4.71727">
        <ele>175</ele>
        <time>2017-07-11T10:51:29Z</time>
      </trkpt>
      <trkpt lat="45.9379" lon="4.71729">
        <ele>175</ele>
        <time>2017-07-11T10:51:30Z</time>
      </trkpt>
      <trkpt lat="45.93785" lon="4.71732">
        <ele>175</ele>
        <time>2017-07-11T10:51:31Z</time>
      </trkpt>
      <trkpt lat="45.93779" lon="4.71732">
        <ele>175</ele>
        <time>2017-07-11T10:51:32Z</time>
      </trkpt>
      <trkpt lat="45.93774" lon="4.71734">
        <ele>175</ele>
        <time>2017-07-11T10:51:33Z</time>
      </trkpt>
      <trkpt lat="45.93769" lon="4.71735">
        <ele>175</ele>
        <time>2017-07-11T10:51:34Z</time>
      </trkpt>
      <trkpt lat="45.93764" lon="4.71737">
        <ele>175</ele>
        <time>2017-07-11T10:51:35Z</time>
      </trkpt>
      <trkpt lat="45.93759" lon="4.71739">
        <ele>175</ele>
        <time>2017-07-11T10:51:36Z</time>
      </trkpt>
      <trkpt lat="45.93754" lon="4.71741">
        <ele>175</ele>
        <time>2017-07-11T10:51:37Z</time>
      </trkpt>
      <trkpt lat="45.9375" lon="4.71742">
        <ele>175</ele>
        <time>2017-07-11T10:51:38Z</time>
      </trkpt>
      <trkpt lat="45.93745" lon="4.71743">
        <ele>175</ele>
        <time>2017-07-11T10:51:39Z</time>
      </trkpt>
      <trkpt lat="45.9374" lon="4.71746">
        <ele>176</ele>
        <time>2017-07-11T10:51:40Z</time>
      </trkpt>
      <trkpt lat="45.93732" lon="4.71749">
        <ele>176</ele>
        <time>2017-07-11T10:51:42Z</time>
      </trkpt>
      <trkpt lat="45.93726" lon="4.71751">
        <ele>176</ele>
        <time>2017-07-11T10:51:43Z</time>
      </trkpt>
      <trkpt lat="45.93719" lon="4.71754">
        <ele>176</ele>
        <time>2017-07-11T10:51:45Z</time>
      </trkpt>
      <trkpt lat="45.93716" lon="4.71755">
        <ele>176</ele>
        <time>2017-07-11T10:51:46Z</time>
      </trkpt>
      <trkpt lat="45.93709" lon="4.7176">
        <ele>176</ele>
        <time>2017-07-11T10:52:06Z</time>
      </trkpt>
      <trkpt lat="45.93706" lon="4.71763">
        <ele>177</ele>
        <time>2017-07-11T10:52:07Z</time>
      </trkpt>
      <trkpt lat="45.93703" lon="4.7177">
        <ele>177</ele>
        <time>2017-07-11T10:52:09Z</time>
      </trkpt>
      <trkpt lat="45.937" lon="4.71775">
        <ele>177</ele>
        <time>2017-07-11T10:52:10Z</time>
      </trkpt>
      <trkpt lat="45.93695" lon="4.71783">
        <ele>177</ele>
        <time>2017-07-11T10:52:12Z</time>
      </trkpt>
      <trkpt lat="45.93694" lon="4.71787">
        <ele>177</ele>
        <time>2017-07-11T10:52:13Z</time>
      </trkpt>
      <trkpt lat="45.93689" lon="4.71794">
        <ele>177</ele>
        <time>2017-07-11T10:52:15Z</time>
      </trkpt>
      <trkpt lat="45.93686" lon="4.71798">
        <ele>177</ele>
        <time>2017-07-11T10:52:16Z</time>
      </trkpt>
      <trkpt lat="45.93683" lon="4.71803">
        <ele>177</ele>
        <time>2017-07-11T10:52:17Z</time>
      </trkpt>
      <trkpt lat="45.93679" lon="4.71808">
        <ele>177</ele>
        <time>2017-07-11T10:52:18Z</time>
      </trkpt>
      <trkpt lat="45.93676" lon="4.71814">
        <ele>177</ele>
        <time>2017-07-11T10:52:19Z</time>
      </trkpt>
      <trkpt lat="45.93674" lon="4.71821">
        <ele>177</ele>
        <time>2017-07-11T10:52:20Z</time>
      </trkpt>
      <trkpt lat="45.93672" lon="4.71829">
        <ele>177</ele>
        <time>2017-07-11T10:52:21Z</time>
      </trkpt>
      <trkpt lat="45.9367" lon="4.71836">
        <ele>177</ele>
        <time>2017-07-11T10:52:22Z</time>
      </trkpt>
      <trkpt lat="45.93668" lon="4.71843">
        <ele>176</ele>
        <time>2017-07-11T10:52:23Z</time>
      </trkpt>
      <trkpt lat="45.93666" lon="4.7185">
        <ele>177</ele>
        <time>2017-07-11T10:52:24Z</time>
      </trkpt>
      <trkpt lat="45.93664" lon="4.71857">
        <ele>177</ele>
        <time>2017-07-11T10:52:25Z</time>
      </trkpt>
      <trkpt lat="45.93662" lon="4.71865">
        <ele>177</ele>
        <time>2017-07-11T10:52:26Z</time>
      </trkpt>
      <trkpt lat="45.9366" lon="4.71873">
        <ele>177</ele>
        <time>2017-07-11T10:52:27Z</time>
      </trkpt>
      <trkpt lat="45.93658" lon="4.71883">
        <ele>177</ele>
        <time>2017-07-11T10:52:28Z</time>
      </trkpt>
      <trkpt lat="45.93655" lon="4.71891">
        <ele>177</ele>
        <time>2017-07-11T10:52:29Z</time>
      </trkpt>
      <trkpt lat="45.93653" lon="4.71899">
        <ele>176</ele>
        <time>2017-07-11T10:52:30Z</time>
      </trkpt>
      <trkpt lat="45.93651" lon="4.71906">
        <ele>176</ele>
        <time>2017-07-11T10:52:31Z</time>
      </trkpt>
      <trkpt lat="45.93648" lon="4.71913">
        <ele>176</ele>
        <time>2017-07-11T10:52:32Z</time>
      </trkpt>
      <trkpt lat="45.93644" lon="4.71918">
        <ele>176</ele>
        <time>2017-07-11T10:52:33Z</time>
      </trkpt>
      <trkpt lat="45.93642" lon="4.71925">
        <ele>176</ele>
        <time>2017-07-11T10:52:34Z</time>
      </trkpt>
      <trkpt lat="45.9364" lon="4.71931">
        <ele>176</ele>
        <time>2017-07-11T10:52:35Z</time>
      </trkpt>
      <trkpt lat="45.93637" lon="4.71938">
        <ele>176</ele>
        <time>2017-07-11T10:52:36Z</time>
      </trkpt>
      <trkpt lat="45.93634" lon="4.71945">
        <ele>176</ele>
        <time>2017-07-11T10:52:37Z</time>
      </trkpt>
      <trkpt lat="45.93631" lon="4.71953">
        <ele>176</ele>
        <time>2017-07-11T10:52:38Z</time>
      </trkpt>
      <trkpt lat="45.93628" lon="4.71962">
        <ele>176</ele>
        <time>2017-07-11T10:52:39Z</time>
      </trkpt>
      <trkpt lat="45.93626" lon="4.7197">
        <ele>176</ele>
        <time>2017-07-11T10:52:40Z</time>
      </trkpt>
      <trkpt lat="45.93624" lon="4.71977">
        <ele>176</ele>
        <time>2017-07-11T10:52:41Z</time>
      </trkpt>
      <trkpt lat="45.93622" lon="4.71983">
        <ele>176</ele>
        <time>2017-07-11T10:52:42Z</time>
      </trkpt>
      <trkpt lat="45.9362" lon="4.71989">
        <ele>176</ele>
        <time>2017-07-11T10:52:43Z</time>
      </trkpt>
      <trkpt lat="45.93619" lon="4.71996">
        <ele>176</ele>
        <time>2017-07-11T10:52:44Z</time>
      </trkpt>
      <trkpt lat="45.93618" lon="4.72003">
        <ele>175</ele>
        <time>2017-07-11T10:52:45Z</time>
      </trkpt>
      <trkpt lat="45.93616" lon="4.7201">
        <ele>175</ele>
        <time>2017-07-11T10:52:46Z</time>
      </trkpt>
      <trkpt lat="45.93615" lon="4.72019">
        <ele>175</ele>
        <time>2017-07-11T10:52:47Z</time>
      </trkpt>
      <trkpt lat="45.93613" lon="4.72026">
        <ele>175</ele>
        <time>2017-07-11T10:52:48Z</time>
      </trkpt>
      <trkpt lat="45.93608" lon="4.72033">
        <ele>175</ele>
        <time>2017-07-11T10:52:49Z</time>
      </trkpt>
      <trkpt lat="45.93606" lon="4.7204">
        <ele>175</ele>
        <time>2017-07-11T10:52:50Z</time>
      </trkpt>
      <trkpt lat="45.93604" lon="4.72046">
        <ele>175</ele>
        <time>2017-07-11T10:52:51Z</time>
      </trkpt>
      <trkpt lat="45.93601" lon="4.72052">
        <ele>175</ele>
        <time>2017-07-11T10:52:52Z</time>
      </trkpt>
      <trkpt lat="45.936" lon="4.72059">
        <ele>175</ele>
        <time>2017-07-11T10:52:53Z</time>
      </trkpt>
      <trkpt lat="45.93597" lon="4.72065">
        <ele>175</ele>
        <time>2017-07-11T10:52:54Z</time>
      </trkpt>
      <trkpt lat="45.93596" lon="4.72072">
        <ele>175</ele>
        <time>2017-07-11T10:52:55Z</time>
      </trkpt>
      <trkpt lat="45.93594" lon="4.72078">
        <ele>175</ele>
        <time>2017-07-11T10:52:56Z</time>
      </trkpt>
      <trkpt lat="45.93592" lon="4.72089">
        <ele>175</ele>
        <time>2017-07-11T10:52:58Z</time>
      </trkpt>
      <trkpt lat="45.93592" lon="4.72095">
        <ele>175</ele>
        <time>2017-07-11T10:52:59Z</time>
      </trkpt>
      <trkpt lat="45.93591" lon="4.72102">
        <ele>174</ele>
        <time>2017-07-11T10:53:00Z</time>
      </trkpt>
      <trkpt lat="45.9359" lon="4.72109">
        <ele>174</ele>
        <time>2017-07-11T10:53:01Z</time>
      </trkpt>
      <trkpt lat="45.93586" lon="4.72113">
        <ele>174</ele>
        <time>2017-07-11T10:53:02Z</time>
      </trkpt>
      <trkpt lat="45.93583" lon="4.72119">
        <ele>175</ele>
        <time>2017-07-11T10:53:03Z</time>
      </trkpt>
      <trkpt lat="45.93581" lon="4.72126">
        <ele>174</ele>
        <time>2017-07-11T10:53:04Z</time>
      </trkpt>
      <trkpt lat="45.93578" lon="4.72134">
        <ele>174</ele>
        <time>2017-07-11T10:53:05Z</time>
      </trkpt>
      <trkpt lat="45.93576" lon="4.72142">
        <ele>174</ele>
        <time>2017-07-11T10:53:06Z</time>
      </trkpt>
      <trkpt lat="45.93573" lon="4.72149">
        <ele>174</ele>
        <time>2017-07-11T10:53:07Z</time>
      </trkpt>
      <trkpt lat="45.93572" lon="4.72157">
        <ele>174</ele>
        <time>2017-07-11T10:53:08Z</time>
      </trkpt>
      <trkpt lat="45.93573" lon="4.72167">
        <ele>173</ele>
        <time>2017-07-11T10:53:09Z</time>
      </trkpt>
      <trkpt lat="45.93572" lon="4.72175">
        <ele>173</ele>
        <time>2017-07-11T10:53:10Z</time>
      </trkpt>
      <trkpt lat="45.9357" lon="4.72182">
        <ele>173</ele>
        <time>2017-07-11T10:53:11Z</time>
      </trkpt>
      <trkpt lat="45.93568" lon="4.72188">
        <ele>173</ele>
        <time>2017-07-11T10:53:12Z</time>
      </trkpt>
      <trkpt lat="45.93561" lon="4.72195">
        <ele>173</ele>
        <time>2017-07-11T10:53:13Z</time>
      </trkpt>
      <trkpt lat="45.93554" lon="4.72202">
        <ele>173</ele>
        <time>2017-07-11T10:53:14Z</time>
      </trkpt>
      <trkpt lat="45.93552" lon="4.72208">
        <ele>173</ele>
        <time>2017-07-11T10:53:15Z</time>
      </trkpt>
      <trkpt lat="45.93549" lon="4.72213">
        <ele>173</ele>
        <time>2017-07-11T10:53:16Z</time>
      </trkpt>
      <trkpt lat="45.93545" lon="4.72219">
        <ele>172</ele>
        <time>2017-07-11T10:53:17Z</time>
      </trkpt>
      <trkpt lat="45.93541" lon="4.72223">
        <ele>172</ele>
        <time>2017-07-11T10:53:18Z</time>
      </trkpt>
      <trkpt lat="45.93537" lon="4.72226">
        <ele>172</ele>
        <time>2017-07-11T10:53:19Z</time>
      </trkpt>
      <trkpt lat="45.93534" lon="4.72231">
        <ele>172</ele>
        <time>2017-07-11T10:53:20Z</time>
      </trkpt>
      <trkpt lat="45.93531" lon="4.72236">
        <ele>172</ele>
        <time>2017-07-11T10:53:21Z</time>
      </trkpt>
      <trkpt lat="45.93526" lon="4.72246">
        <ele>172</ele>
        <time>2017-07-11T10:53:23Z</time>
      </trkpt>
      <trkpt lat="45.93524" lon="4.72252">
        <ele>172</ele>
        <time>2017-07-11T10:53:24Z</time>
      </trkpt>
      <trkpt lat="45.93522" lon="4.72259">
        <ele>172</ele>
        <time>2017-07-11T10:53:25Z</time>
      </trkpt>
      <trkpt lat="45.93519" lon="4.72265">
        <ele>172</ele>
        <time>2017-07-11T10:53:26Z</time>
      </trkpt>
      <trkpt lat="45.93516" lon="4.72271">
        <ele>172</ele>
        <time>2017-07-11T10:53:27Z</time>
      </trkpt>
      <trkpt lat="45.93514" lon="4.72278">
        <ele>172</ele>
        <time>2017-07-11T10:53:28Z</time>
      </trkpt>
      <trkpt lat="45.93512" lon="4.72285">
        <ele>172</ele>
        <time>2017-07-11T10:53:29Z</time>
      </trkpt>
      <trkpt lat="45.9351" lon="4.72292">
        <ele>172</ele>
        <time>2017-07-11T10:53:30Z</time>
      </trkpt>
      <trkpt lat="45.93507" lon="4.72297">
        <ele>172</ele>
        <time>2017-07-11T10:53:31Z</time>
      </trkpt>
      <trkpt lat="45.93503" lon="4.72302">
        <ele>172</ele>
        <time>2017-07-11T10:53:32Z</time>
      </trkpt>
      <trkpt lat="45.935" lon="4.72308">
        <ele>173</ele>
        <time>2017-07-11T10:53:33Z</time>
      </trkpt>
      <trkpt lat="45.93497" lon="4.72314">
        <ele>173</ele>
        <time>2017-07-11T10:53:34Z</time>
      </trkpt>
      <trkpt lat="45.93494" lon="4.7232">
        <ele>173</ele>
        <time>2017-07-11T10:53:35Z</time>
      </trkpt>
      <trkpt lat="45.9349" lon="4.72325">
        <ele>173</ele>
        <time>2017-07-11T10:53:36Z</time>
      </trkpt>
      <trkpt lat="45.93487" lon="4.72329">
        <ele>173</ele>
        <time>2017-07-11T10:53:37Z</time>
      </trkpt>
      <trkpt lat="45.93483" lon="4.72335">
        <ele>173</ele>
        <time>2017-07-11T10:53:38Z</time>
      </trkpt>
      <trkpt lat="45.9348" lon="4.7234">
        <ele>173</ele>
        <time>2017-07-11T10:53:39Z</time>
      </trkpt>
      <trkpt lat="45.93476" lon="4.72345">
        <ele>173</ele>
        <time>2017-07-11T10:53:40Z</time>
      </trkpt>
      <trkpt lat="45.9347" lon="4.72353">
        <ele>173</ele>
        <time>2017-07-11T10:53:42Z</time>
      </trkpt>
      <trkpt lat="45.93467" lon="4.72358">
        <ele>173</ele>
        <time>2017-07-11T10:53:43Z</time>
      </trkpt>
      <trkpt lat="45.93463" lon="4.72364">
        <ele>173</ele>
        <time>2017-07-11T10:53:44Z</time>
      </trkpt>
      <trkpt lat="45.93461" lon="4.72369">
        <ele>173</ele>
        <time>2017-07-11T10:53:45Z</time>
      </trkpt>
      <trkpt lat="45.93458" lon="4.72374">
        <ele>173</ele>
        <time>2017-07-11T10:53:46Z</time>
      </trkpt>
      <trkpt lat="45.93455" lon="4.72379">
        <ele>173</ele>
        <time>2017-07-11T10:53:47Z</time>
      </trkpt>
      <trkpt lat="45.93451" lon="4.72383">
        <ele>173</ele>
        <time>2017-07-11T10:53:48Z</time>
      </trkpt>
      <trkpt lat="45.93447" lon="4.72387">
        <ele>173</ele>
        <time>2017-07-11T10:53:49Z</time>
      </trkpt>
      <trkpt lat="45.93442" lon="4.72391">
        <ele>173</ele>
        <time>2017-07-11T10:53:50Z</time>
      </trkpt>
      <trkpt lat="45.93437" lon="4.72395">
        <ele>173</ele>
        <time>2017-07-11T10:53:51Z</time>
      </trkpt>
      <trkpt lat="45.93433" lon="4.72399">
        <ele>174</ele>
        <time>2017-07-11T10:53:52Z</time>
      </trkpt>
      <trkpt lat="45.93428" lon="4.72403">
        <ele>174</ele>
        <time>2017-07-11T10:53:53Z</time>
      </trkpt>
      <trkpt lat="45.93423" lon="4.72406">
        <ele>174</ele>
        <time>2017-07-11T10:53:54Z</time>
      </trkpt>
      <trkpt lat="45.93417" lon="4.72409">
        <ele>174</ele>
        <time>2017-07-11T10:53:55Z</time>
      </trkpt>
      <trkpt lat="45.93412" lon="4.7241">
        <ele>174</ele>
        <time>2017-07-11T10:53:56Z</time>
      </trkpt>
      <trkpt lat="45.93407" lon="4.7241">
        <ele>174</ele>
        <time>2017-07-11T10:53:57Z</time>
      </trkpt>
      <trkpt lat="45.93399" lon="4.72409">
        <ele>174</ele>
        <time>2017-07-11T10:53:59Z</time>
      </trkpt>
      <trkpt lat="45.93394" lon="4.72409">
        <ele>174</ele>
        <time>2017-07-11T10:54:00Z</time>
      </trkpt>
      <trkpt lat="45.93387" lon="4.72412">
        <ele>174</ele>
        <time>2017-07-11T10:54:02Z</time>
      </trkpt>
      <trkpt lat="45.93384" lon="4.72417">
        <ele>174</ele>
        <time>2017-07-11T10:54:03Z</time>
      </trkpt>
      <trkpt lat="45.93382" lon="4.72426">
        <ele>173</ele>
        <time>2017-07-11T10:54:05Z</time>
      </trkpt>
      <trkpt lat="45.93384" lon="4.72433">
        <ele>173</ele>
        <time>2017-07-11T10:54:06Z</time>
      </trkpt>
      <trkpt lat="45.93387" lon="4.72445">
        <ele>173</ele>
        <time>2017-07-11T10:54:08Z</time>
      </trkpt>
      <trkpt lat="45.93387" lon="4.72452">
        <ele>173</ele>
        <time>2017-07-11T10:54:09Z</time>
      </trkpt>
      <trkpt lat="45.93385" lon="4.72458">
        <ele>173</ele>
        <time>2017-07-11T10:54:10Z</time>
      </trkpt>
      <trkpt lat="45.93381" lon="4.72464">
        <ele>173</ele>
        <time>2017-07-11T10:54:11Z</time>
      </trkpt>
      <trkpt lat="45.93378" lon="4.72469">
        <ele>173</ele>
        <time>2017-07-11T10:54:12Z</time>
      </trkpt>
      <trkpt lat="45.93373" lon="4.72473">
        <ele>173</ele>
        <time>2017-07-11T10:54:13Z</time>
      </trkpt>
      <trkpt lat="45.93369" lon="4.72476">
        <ele>173</ele>
        <time>2017-07-11T10:54:14Z</time>
      </trkpt>
      <trkpt lat="45.93367" lon="4.72484">
        <ele>173</ele>
        <time>2017-07-11T10:54:15Z</time>
      </trkpt>
      <trkpt lat="45.93364" lon="4.72488">
        <ele>173</ele>
        <time>2017-07-11T10:54:16Z</time>
      </trkpt>
      <trkpt lat="45.93359" lon="4.72491">
        <ele>173</ele>
        <time>2017-07-11T10:54:17Z</time>
      </trkpt>
      <trkpt lat="45.93355" lon="4.72496">
        <ele>173</ele>
        <time>2017-07-11T10:54:18Z</time>
      </trkpt>
      <trkpt lat="45.93352" lon="4.72502">
        <ele>172</ele>
        <time>2017-07-11T10:54:19Z</time>
      </trkpt>
      <trkpt lat="45.93347" lon="4.72508">
        <ele>172</ele>
        <time>2017-07-11T10:54:20Z</time>
      </trkpt>
      <trkpt lat="45.93343" lon="4.72514">
        <ele>172</ele>
        <time>2017-07-11T10:54:21Z</time>
      </trkpt>
      <trkpt lat="45.93338" lon="4.72519">
        <ele>172</ele>
        <time>2017-07-11T10:54:22Z</time>
      </trkpt>
      <trkpt lat="45.93334" lon="4.72524">
        <ele>172</ele>
        <time>2017-07-11T10:54:23Z</time>
      </trkpt>
      <trkpt lat="45.9333" lon="4.72528">
        <ele>172</ele>
        <time>2017-07-11T10:54:24Z</time>
      </trkpt>
      <trkpt lat="45.93327" lon="4.72533">
        <ele>172</ele>
        <time>2017-07-11T10:54:25Z</time>
      </trkpt>
      <trkpt lat="45.93323" lon="4.72537">
        <ele>172</ele>
        <time>2017-07-11T10:54:26Z</time>
      </trkpt>
      <trkpt lat="45.9332" lon="4.72542">
        <ele>172</ele>
        <time>2017-07-11T10:54:27Z</time>
      </trkpt>
      <trkpt lat="45.93313" lon="4.7255">
        <ele>172</ele>
        <time>2017-07-11T10:54:29Z</time>
      </trkpt>
      <trkpt lat="45.93312" lon="4.72555">
        <ele>172</ele>
        <time>2017-07-11T10:54:30Z</time>
      </trkpt>
      <trkpt lat="45.93307" lon="4.7256">
        <ele>172</ele>
        <time>2017-07-11T10:54:31Z</time>
      </trkpt>
      <trkpt lat="45.93304" lon="4.72566">
        <ele>171</ele>
        <time>2017-07-11T10:54:32Z</time>
      </trkpt>
      <trkpt lat="45.93299" lon="4.7257">
        <ele>171</ele>
        <time>2017-07-11T10:54:33Z</time>
      </trkpt>
      <trkpt lat="45.93295" lon="4.72576">
        <ele>171</ele>
        <time>2017-07-11T10:54:34Z</time>
      </trkpt>
      <trkpt lat="45.9329" lon="4.7258">
        <ele>171</ele>
        <time>2017-07-11T10:54:35Z</time>
      </trkpt>
      <trkpt lat="45.93286" lon="4.72584">
        <ele>170</ele>
        <time>2017-07-11T10:54:36Z</time>
      </trkpt>
      <trkpt lat="45.93282" lon="4.72588">
        <ele>170</ele>
        <time>2017-07-11T10:54:37Z</time>
      </trkpt>
      <trkpt lat="45.93279" lon="4.72592">
        <ele>170</ele>
        <time>2017-07-11T10:54:38Z</time>
      </trkpt>
      <trkpt lat="45.93275" lon="4.72596">
        <ele>170</ele>
        <time>2017-07-11T10:54:39Z</time>
      </trkpt>
      <trkpt lat="45.93271" lon="4.726">
        <ele>170</ele>
        <time>2017-07-11T10:54:40Z</time>
      </trkpt>
      <trkpt lat="45.93266" lon="4.72609">
        <ele>170</ele>
        <time>2017-07-11T10:54:42Z</time>
      </trkpt>
      <trkpt lat="45.93262" lon="4.72614">
        <ele>170</ele>
        <time>2017-07-11T10:54:43Z</time>
      </trkpt>
      <trkpt lat="45.93258" lon="4.72617">
        <ele>170</ele>
        <time>2017-07-11T10:54:44Z</time>
      </trkpt>
      <trkpt lat="45.93254" lon="4.72621">
        <ele>170</ele>
        <time>2017-07-11T10:54:45Z</time>
      </trkpt>
      <trkpt lat="45.9325" lon="4.72625">
        <ele>170</ele>
        <time>2017-07-11T10:54:46Z</time>
      </trkpt>
      <trkpt lat="45.93246" lon="4.7263">
        <ele>170</ele>
        <time>2017-07-11T10:54:47Z</time>
      </trkpt>
      <trkpt lat="45.93242" lon="4.72635">
        <ele>170</ele>
        <time>2017-07-11T10:54:48Z</time>
      </trkpt>
      <trkpt lat="45.93239" lon="4.7264">
        <ele>170</ele>
        <time>2017-07-11T10:54:49Z</time>
      </trkpt>
      <trkpt lat="45.93235" lon="4.72645">
        <ele>170</ele>
        <time>2017-07-11T10:54:50Z</time>
      </trkpt>
      <trkpt lat="45.93231" lon="4.7265">
        <ele>170</ele>
        <time>2017-07-11T10:54:51Z</time>
      </trkpt>
      <trkpt lat="45.93227" lon="4.72654">
        <ele>170</ele>
        <time>2017-07-11T10:54:52Z</time>
      </trkpt>
      <trkpt lat="45.93223" lon="4.72659">
        <ele>170</ele>
        <time>2017-07-11T10:54:53Z</time>
      </trkpt>
      <trkpt lat="45.9322" lon="4.72664">
        <ele>170</ele>
        <time>2017-07-11T10:54:54Z</time>
      </trkpt>
      <trkpt lat="45.93217" lon="4.72669">
        <ele>169</ele>
        <time>2017-07-11T10:54:55Z</time>
      </trkpt>
      <trkpt lat="45.93212" lon="4.72673">
        <ele>169</ele>
        <time>2017-07-11T10:54:56Z</time>
      </trkpt>
      <trkpt lat="45.93209" lon="4.72677">
        <ele>169</ele>
        <time>2017-07-11T10:54:57Z</time>
      </trkpt>
      <trkpt lat="45.93205" lon="4.72682">
        <ele>169</ele>
        <time>2017-07-11T10:54:58Z</time>
      </trkpt>
      <trkpt lat="45.93201" lon="4.72686">
        <ele>169</ele>
        <time>2017-07-11T10:54:59Z</time>
      </trkpt>
      <trkpt lat="45.93197" lon="4.72691">
        <ele>169</ele>
        <time>2017-07-11T10:55:00Z</time>
      </trkpt>
      <trkpt lat="45.93193" lon="4.72695">
        <ele>169</ele>
        <time>2017-07-11T10:55:01Z</time>
      </trkpt>
      <trkpt lat="45.93188" lon="4.727">
        <ele>169</ele>
        <time>2017-07-11T10:55:02Z</time>
      </trkpt>
      <trkpt lat="45.93184" lon="4.72704">
        <ele>169</ele>
        <time>2017-07-11T10:55:03Z</time>
      </trkpt>
      <trkpt lat="45.9318" lon="4.72709">
        <ele>169</ele>
        <time>2017-07-11T10:55:04Z</time>
      </trkpt>
      <trkpt lat="45.93176" lon="4.72714">
        <ele>169</ele>
        <time>2017-07-11T10:55:05Z</time>
      </trkpt>
      <trkpt lat="45.93172" lon="4.72719">
        <ele>170</ele>
        <time>2017-07-11T10:55:06Z</time>
      </trkpt>
      <trkpt lat="45.93168" lon="4.72724">
        <ele>170</ele>
        <time>2017-07-11T10:55:07Z</time>
      </trkpt>
      <trkpt lat="45.93164" lon="4.72728">
        <ele>170</ele>
        <time>2017-07-11T10:55:08Z</time>
      </trkpt>
      <trkpt lat="45.9316" lon="4.72732">
        <ele>170</ele>
        <time>2017-07-11T10:55:09Z</time>
      </trkpt>
      <trkpt lat="45.93156" lon="4.72736">
        <ele>170</ele>
        <time>2017-07-11T10:55:10Z</time>
      </trkpt>
      <trkpt lat="45.93151" lon="4.7274">
        <ele>170</ele>
        <time>2017-07-11T10:55:11Z</time>
      </trkpt>
      <trkpt lat="45.93147" lon="4.72745">
        <ele>170</ele>
        <time>2017-07-11T10:55:12Z</time>
      </trkpt>
      <trkpt lat="45.93142" lon="4.7275">
        <ele>171</ele>
        <time>2017-07-11T10:55:13Z</time>
      </trkpt>
      <trkpt lat="45.93138" lon="4.72755">
        <ele>171</ele>
        <time>2017-07-11T10:55:14Z</time>
      </trkpt>
      <trkpt lat="45.93134" lon="4.7276">
        <ele>171</ele>
        <time>2017-07-11T10:55:15Z</time>
      </trkpt>
      <trkpt lat="45.93129" lon="4.72765">
        <ele>171</ele>
        <time>2017-07-11T10:55:16Z</time>
      </trkpt>
      <trkpt lat="45.93125" lon="4.7277">
        <ele>171</ele>
        <time>2017-07-11T10:55:17Z</time>
      </trkpt>
      <trkpt lat="45.93121" lon="4.72775">
        <ele>171</ele>
        <time>2017-07-11T10:55:18Z</time>
      </trkpt>
      <trkpt lat="45.93117" lon="4.7278">
        <ele>171</ele>
        <time>2017-07-11T10:55:19Z</time>
      </trkpt>
      <trkpt lat="45.93113" lon="4.72784">
        <ele>171</ele>
        <time>2017-07-11T10:55:20Z</time>
      </trkpt>
      <trkpt lat="45.93109" lon="4.72789">
        <ele>171</ele>
        <time>2017-07-11T10:55:21Z</time>
      </trkpt>
      <trkpt lat="45.93106" lon="4.72794">
        <ele>171</ele>
        <time>2017-07-11T10:55:22Z</time>
      </trkpt>
      <trkpt lat="45.93102" lon="4.72799">
        <ele>171</ele>
        <time>2017-07-11T10:55:23Z</time>
      </trkpt>
      <trkpt lat="45.93098" lon="4.72804">
        <ele>171</ele>
        <time>2017-07-11T10:55:24Z</time>
      </trkpt>
      <trkpt lat="45.93095" lon="4.72808">
        <ele>172</ele>
        <time>2017-07-11T10:55:25Z</time>
      </trkpt>
      <trkpt lat="45.93091" lon="4.72812">
        <ele>172</ele>
        <time>2017-07-11T10:55:26Z</time>
      </trkpt>
      <trkpt lat="45.93087" lon="4.72816">
        <ele>172</ele>
        <time>2017-07-11T10:55:27Z</time>
      </trkpt>
      <trkpt lat="45.93084" lon="4.72821">
        <ele>172</ele>
        <time>2017-07-11T10:55:28Z</time>
      </trkpt>
      <trkpt lat="45.9308" lon="4.72825">
        <ele>173</ele>
        <time>2017-07-11T10:55:29Z</time>
      </trkpt>
      <trkpt lat="45.93077" lon="4.7283">
        <ele>173</ele>
        <time>2017-07-11T10:55:30Z</time>
      </trkpt>
      <trkpt lat="45.93073" lon="4.72834">
        <ele>173</ele>
        <time>2017-07-11T10:55:31Z</time>
      </trkpt>
      <trkpt lat="45.93067" lon="4.72842">
        <ele>173</ele>
        <time>2017-07-11T10:55:33Z</time>
      </trkpt>
      <trkpt lat="45.93065" lon="4.72847">
        <ele>172</ele>
        <time>2017-07-11T10:55:34Z</time>
      </trkpt>
      <trkpt lat="45.9306" lon="4.72854">
        <ele>172</ele>
        <time>2017-07-11T10:55:36Z</time>
      </trkpt>
      <trkpt lat="45.93055" lon="4.72858">
        <ele>172</ele>
        <time>2017-07-11T10:55:37Z</time>
      </trkpt>
      <trkpt lat="45.93051" lon="4.72861">
        <ele>172</ele>
        <time>2017-07-11T10:55:38Z</time>
      </trkpt>
      <trkpt lat="45.93046" lon="4.72866">
        <ele>172</ele>
        <time>2017-07-11T10:55:39Z</time>
      </trkpt>
      <trkpt lat="45.93041" lon="4.7287">
        <ele>172</ele>
        <time>2017-07-11T10:55:40Z</time>
      </trkpt>
      <trkpt lat="45.93034" lon="4.72871">
        <ele>172</ele>
        <time>2017-07-11T10:55:41Z</time>
      </trkpt>
      <trkpt lat="45.9303" lon="4.72874">
        <ele>172</ele>
        <time>2017-07-11T10:55:42Z</time>
      </trkpt>
      <trkpt lat="45.93026" lon="4.72878">
        <ele>172</ele>
        <time>2017-07-11T10:55:43Z</time>
      </trkpt>
      <trkpt lat="45.93021" lon="4.72883">
        <ele>172</ele>
        <time>2017-07-11T10:55:44Z</time>
      </trkpt>
      <trkpt lat="45.93018" lon="4.72887">
        <ele>172</ele>
        <time>2017-07-11T10:55:45Z</time>
      </trkpt>
      <trkpt lat="45.93015" lon="4.72893">
        <ele>172</ele>
        <time>2017-07-11T10:55:46Z</time>
      </trkpt>
      <trkpt lat="45.93013" lon="4.72898">
        <ele>172</ele>
        <time>2017-07-11T10:55:47Z</time>
      </trkpt>
      <trkpt lat="45.9301" lon="4.72904">
        <ele>171</ele>
        <time>2017-07-11T10:55:48Z</time>
      </trkpt>
      <trkpt lat="45.93008" lon="4.72909">
        <ele>171</ele>
        <time>2017-07-11T10:55:49Z</time>
      </trkpt>
      <trkpt lat="45.93004" lon="4.72913">
        <ele>171</ele>
        <time>2017-07-11T10:55:50Z</time>
      </trkpt>
      <trkpt lat="45.93" lon="4.72917">
        <ele>171</ele>
        <time>2017-07-11T10:55:51Z</time>
      </trkpt>
      <trkpt lat="45.92996" lon="4.72923">
        <ele>171</ele>
        <time>2017-07-11T10:55:52Z</time>
      </trkpt>
      <trkpt lat="45.92991" lon="4.72928">
        <ele>171</ele>
        <time>2017-07-11T10:55:53Z</time>
      </trkpt>
      <trkpt lat="45.92987" lon="4.72934">
        <ele>171</ele>
        <time>2017-07-11T10:55:54Z</time>
      </trkpt>
      <trkpt lat="45.92982" lon="4.72939">
        <ele>171</ele>
        <time>2017-07-11T10:55:55Z</time>
      </trkpt>
      <trkpt lat="45.92977" lon="4.72944">
        <ele>171</ele>
        <time>2017-07-11T10:55:56Z</time>
      </trkpt>
      <trkpt lat="45.92973" lon="4.72949">
        <ele>171</ele>
        <time>2017-07-11T10:55:57Z</time>
      </trkpt>
      <trkpt lat="45.92969" lon="4.72955">
        <ele>171</ele>
        <time>2017-07-11T10:55:58Z</time>
      </trkpt>
      <trkpt lat="45.92965" lon="4.7296">
        <ele>171</ele>
        <time>2017-07-11T10:55:59Z</time>
      </trkpt>
      <trkpt lat="45.9296" lon="4.72965">
        <ele>171</ele>
        <time>2017-07-11T10:56:00Z</time>
      </trkpt>
      <trkpt lat="45.92957" lon="4.72969">
        <ele>171</ele>
        <time>2017-07-11T10:56:01Z</time>
      </trkpt>
      <trkpt lat="45.92953" lon="4.72973">
        <ele>171</ele>
        <time>2017-07-11T10:56:02Z</time>
      </trkpt>
      <trkpt lat="45.92949" lon="4.72977">
        <ele>171</ele>
        <time>2017-07-11T10:56:03Z</time>
      </trkpt>
      <trkpt lat="45.92945" lon="4.72981">
        <ele>171</ele>
        <time>2017-07-11T10:56:04Z</time>
      </trkpt>
      <trkpt lat="45.9294" lon="4.72985">
        <ele>171</ele>
        <time>2017-07-11T10:56:05Z</time>
      </trkpt>
      <trkpt lat="45.92936" lon="4.7299">
        <ele>171</ele>
        <time>2017-07-11T10:56:06Z</time>
      </trkpt>
      <trkpt lat="45.92931" lon="4.72994">
        <ele>172</ele>
        <time>2017-07-11T10:56:07Z</time>
      </trkpt>
      <trkpt lat="45.92927" lon="4.72999">
        <ele>172</ele>
        <time>2017-07-11T10:56:08Z</time>
      </trkpt>
      <trkpt lat="45.92923" lon="4.73004">
        <ele>172</ele>
        <time>2017-07-11T10:56:09Z</time>
      </trkpt>
      <trkpt lat="45.92919" lon="4.73009">
        <ele>172</ele>
        <time>2017-07-11T10:56:10Z</time>
      </trkpt>
      <trkpt lat="45.92915" lon="4.73014">
        <ele>172</ele>
        <time>2017-07-11T10:56:11Z</time>
      </trkpt>
      <trkpt lat="45.92912" lon="4.73019">
        <ele>172</ele>
        <time>2017-07-11T10:56:12Z</time>
      </trkpt>
      <trkpt lat="45.92909" lon="4.73024">
        <ele>172</ele>
        <time>2017-07-11T10:56:13Z</time>
      </trkpt>
      <trkpt lat="45.92902" lon="4.73033">
        <ele>172</ele>
        <time>2017-07-11T10:56:15Z</time>
      </trkpt>
      <trkpt lat="45.92899" lon="4.73038">
        <ele>172</ele>
        <time>2017-07-11T10:56:16Z</time>
      </trkpt>
      <trkpt lat="45.92896" lon="4.73044">
        <ele>172</ele>
        <time>2017-07-11T10:56:17Z</time>
      </trkpt>
      <trkpt lat="45.92893" lon="4.73049">
        <ele>172</ele>
        <time>2017-07-11T10:56:18Z</time>
      </trkpt>
      <trkpt lat="45.9289" lon="4.73054">
        <ele>172</ele>
        <time>2017-07-11T10:56:19Z</time>
      </trkpt>
      <trkpt lat="45.92887" lon="4.73059">
        <ele>172</ele>
        <time>2017-07-11T10:56:20Z</time>
      </trkpt>
      <trkpt lat="45.92881" lon="4.73068">
        <ele>172</ele>
        <time>2017-07-11T10:56:22Z</time>
      </trkpt>
      <trkpt lat="45.92877" lon="4.73072">
        <ele>172</ele>
        <time>2017-07-11T10:56:23Z</time>
      </trkpt>
      <trkpt lat="45.92871" lon="4.7308">
        <ele>172</ele>
        <time>2017-07-11T10:56:25Z</time>
      </trkpt>
      <trkpt lat="45.92868" lon="4.73084">
        <ele>172</ele>
        <time>2017-07-11T10:56:26Z</time>
      </trkpt>
      <trkpt lat="45.92861" lon="4.73093">
        <ele>171</ele>
        <time>2017-07-11T10:56:28Z</time>
      </trkpt>
      <trkpt lat="45.92858" lon="4.73097">
        <ele>171</ele>
        <time>2017-07-11T10:56:29Z</time>
      </trkpt>
      <trkpt lat="45.92852" lon="4.73104">
        <ele>171</ele>
        <time>2017-07-11T10:56:31Z</time>
      </trkpt>
      <trkpt lat="45.92849" lon="4.73104">
        <ele>171</ele>
        <time>2017-07-11T10:56:32Z</time>
      </trkpt>
      <trkpt lat="45.92844" lon="4.73096">
        <ele>171</ele>
        <time>2017-07-11T10:56:34Z</time>
      </trkpt>
      <trkpt lat="45.92844" lon="4.73091">
        <ele>171</ele>
        <time>2017-07-11T10:56:35Z</time>
      </trkpt>
      <trkpt lat="45.92843" lon="4.7308">
        <ele>171</ele>
        <time>2017-07-11T10:56:37Z</time>
      </trkpt>
      <trkpt lat="45.92842" lon="4.73074">
        <ele>171</ele>
        <time>2017-07-11T10:56:38Z</time>
      </trkpt>
      <trkpt lat="45.92841" lon="4.73068">
        <ele>171</ele>
        <time>2017-07-11T10:56:39Z</time>
      </trkpt>
      <trkpt lat="45.92841" lon="4.73061">
        <ele>171</ele>
        <time>2017-07-11T10:56:40Z</time>
      </trkpt>
      <trkpt lat="45.9284" lon="4.73054">
        <ele>171</ele>
        <time>2017-07-11T10:56:41Z</time>
      </trkpt>
      <trkpt lat="45.9284" lon="4.73047">
        <ele>171</ele>
        <time>2017-07-11T10:56:42Z</time>
      </trkpt>
      <trkpt lat="45.92839" lon="4.73041">
        <ele>171</ele>
        <time>2017-07-11T10:56:43Z</time>
      </trkpt>
      <trkpt lat="45.92837" lon="4.73034">
        <ele>171</ele>
        <time>2017-07-11T10:56:44Z</time>
      </trkpt>
      <trkpt lat="45.92837" lon="4.73022">
        <ele>171</ele>
        <time>2017-07-11T10:56:46Z</time>
      </trkpt>
      <trkpt lat="45.92836" lon="4.73015">
        <ele>171</ele>
        <time>2017-07-11T10:56:47Z</time>
      </trkpt>
      <trkpt lat="45.92835" lon="4.73003">
        <ele>170</ele>
        <time>2017-07-11T10:56:49Z</time>
      </trkpt>
      <trkpt lat="45.92834" lon="4.72997">
        <ele>170</ele>
        <time>2017-07-11T10:56:50Z</time>
      </trkpt>
      <trkpt lat="45.92833" lon="4.72986">
        <ele>170</ele>
        <time>2017-07-11T10:56:52Z</time>
      </trkpt>
      <trkpt lat="45.92832" lon="4.7298">
        <ele>170</ele>
        <time>2017-07-11T10:56:53Z</time>
      </trkpt>
      <trkpt lat="45.92832" lon="4.72973">
        <ele>170</ele>
        <time>2017-07-11T10:56:54Z</time>
      </trkpt>
      <trkpt lat="45.92832" lon="4.72966">
        <ele>170</ele>
        <time>2017-07-11T10:56:55Z</time>
      </trkpt>
      <trkpt lat="45.92831" lon="4.7296">
        <ele>170</ele>
        <time>2017-07-11T10:56:56Z</time>
      </trkpt>
      <trkpt lat="45.9283" lon="4.72953">
        <ele>170</ele>
        <time>2017-07-11T10:56:57Z</time>
      </trkpt>
      <trkpt lat="45.92829" lon="4.72942">
        <ele>170</ele>
        <time>2017-07-11T10:56:59Z</time>
      </trkpt>
      <trkpt lat="45.92828" lon="4.72936">
        <ele>170</ele>
        <time>2017-07-11T10:57:00Z</time>
      </trkpt>
      <trkpt lat="45.92827" lon="4.72924">
        <ele>170</ele>
        <time>2017-07-11T10:57:02Z</time>
      </trkpt>
      <trkpt lat="45.92827" lon="4.72918">
        <ele>170</ele>
        <time>2017-07-11T10:57:03Z</time>
      </trkpt>
      <trkpt lat="45.92826" lon="4.72907">
        <ele>170</ele>
        <time>2017-07-11T10:57:05Z</time>
      </trkpt>
      <trkpt lat="45.92825" lon="4.72901">
        <ele>170</ele>
        <time>2017-07-11T10:57:06Z</time>
      </trkpt>
      <trkpt lat="45.92823" lon="4.72894">
        <ele>170</ele>
        <time>2017-07-11T10:57:07Z</time>
      </trkpt>
      <trkpt lat="45.92822" lon="4.72886">
        <ele>170</ele>
        <time>2017-07-11T10:57:08Z</time>
      </trkpt>
      <trkpt lat="45.9282" lon="4.72878">
        <ele>170</ele>
        <time>2017-07-11T10:57:09Z</time>
      </trkpt>
      <trkpt lat="45.92818" lon="4.7287">
        <ele>170</ele>
        <time>2017-07-11T10:57:10Z</time>
      </trkpt>
      <trkpt lat="45.92816" lon="4.72862">
        <ele>170</ele>
        <time>2017-07-11T10:57:11Z</time>
      </trkpt>
      <trkpt lat="45.92814" lon="4.72854">
        <ele>170</ele>
        <time>2017-07-11T10:57:12Z</time>
      </trkpt>
      <trkpt lat="45.92812" lon="4.72846">
        <ele>170</ele>
        <time>2017-07-11T10:57:13Z</time>
      </trkpt>
      <trkpt lat="45.9281" lon="4.72838">
        <ele>170</ele>
        <time>2017-07-11T10:57:14Z</time>
      </trkpt>
      <trkpt lat="45.92809" lon="4.7283">
        <ele>171</ele>
        <time>2017-07-11T10:57:15Z</time>
      </trkpt>
      <trkpt lat="45.92808" lon="4.72823">
        <ele>171</ele>
        <time>2017-07-11T10:57:16Z</time>
      </trkpt>
      <trkpt lat="45.92807" lon="4.72816">
        <ele>171</ele>
        <time>2017-07-11T10:57:17Z</time>
      </trkpt>
      <trkpt lat="45.92806" lon="4.72809">
        <ele>171</ele>
        <time>2017-07-11T10:57:18Z</time>
      </trkpt>
      <trkpt lat="45.92804" lon="4.72802">
        <ele>171</ele>
        <time>2017-07-11T10:57:19Z</time>
      </trkpt>
      <trkpt lat="45.92802" lon="4.72795">
        <ele>171</ele>
        <time>2017-07-11T10:57:20Z</time>
      </trkpt>
      <trkpt lat="45.92795" lon="4.72789">
        <ele>171</ele>
        <time>2017-07-11T10:57:22Z</time>
      </trkpt>
      <trkpt lat="45.9279" lon="4.72791">
        <ele>170</ele>
        <time>2017-07-11T10:57:23Z</time>
      </trkpt>
      <trkpt lat="45.92785" lon="4.72794">
        <ele>170</ele>
        <time>2017-07-11T10:57:24Z</time>
      </trkpt>
      <trkpt lat="45.92781" lon="4.72796">
        <ele>170</ele>
        <time>2017-07-11T10:57:25Z</time>
      </trkpt>
      <trkpt lat="45.92777" lon="4.72799">
        <ele>170</ele>
        <time>2017-07-11T10:57:26Z</time>
      </trkpt>
      <trkpt lat="45.92773" lon="4.72802">
        <ele>170</ele>
        <time>2017-07-11T10:57:27Z</time>
      </trkpt>
      <trkpt lat="45.92766" lon="4.72807">
        <ele>170</ele>
        <time>2017-07-11T10:57:29Z</time>
      </trkpt>
      <trkpt lat="45.92762" lon="4.7281">
        <ele>170</ele>
        <time>2017-07-11T10:57:30Z</time>
      </trkpt>
      <trkpt lat="45.92758" lon="4.72814">
        <ele>170</ele>
        <time>2017-07-11T10:57:31Z</time>
      </trkpt>
      <trkpt lat="45.92753" lon="4.72817">
        <ele>170</ele>
        <time>2017-07-11T10:57:32Z</time>
      </trkpt>
      <trkpt lat="45.92749" lon="4.72821">
        <ele>169</ele>
        <time>2017-07-11T10:57:33Z</time>
      </trkpt>
      <trkpt lat="45.92744" lon="4.72824">
        <ele>169</ele>
        <time>2017-07-11T10:57:34Z</time>
      </trkpt>
      <trkpt lat="45.92739" lon="4.72828">
        <ele>169</ele>
        <time>2017-07-11T10:57:35Z</time>
      </trkpt>
      <trkpt lat="45.92733" lon="4.72832">
        <ele>169</ele>
        <time>2017-07-11T10:57:36Z</time>
      </trkpt>
      <trkpt lat="45.92728" lon="4.72835">
        <ele>169</ele>
        <time>2017-07-11T10:57:37Z</time>
      </trkpt>
      <trkpt lat="45.92723" lon="4.72839">
        <ele>169</ele>
        <time>2017-07-11T10:57:38Z</time>
      </trkpt>
      <trkpt lat="45.92719" lon="4.72842">
        <ele>169</ele>
        <time>2017-07-11T10:57:39Z</time>
      </trkpt>
      <trkpt lat="45.92714" lon="4.72846">
        <ele>169</ele>
        <time>2017-07-11T10:57:40Z</time>
      </trkpt>
      <trkpt lat="45.9271" lon="4.72849">
        <ele>169</ele>
        <time>2017-07-11T10:57:41Z</time>
      </trkpt>
      <trkpt lat="45.92706" lon="4.72852">
        <ele>169</ele>
        <time>2017-07-11T10:57:42Z</time>
      </trkpt>
      <trkpt lat="45.92702" lon="4.72855">
        <ele>169</ele>
        <time>2017-07-11T10:57:43Z</time>
      </trkpt>
      <trkpt lat="45.92698" lon="4.72858">
        <ele>169</ele>
        <time>2017-07-11T10:57:44Z</time>
      </trkpt>
      <trkpt lat="45.92694" lon="4.72861">
        <ele>169</ele>
        <time>2017-07-11T10:57:45Z</time>
      </trkpt>
      <trkpt lat="45.92689" lon="4.72864">
        <ele>169</ele>
        <time>2017-07-11T10:57:46Z</time>
      </trkpt>
      <trkpt lat="45.92685" lon="4.72868">
        <ele>169</ele>
        <time>2017-07-11T10:57:47Z</time>
      </trkpt>
      <trkpt lat="45.92681" lon="4.72872">
        <ele>169</ele>
        <time>2017-07-11T10:57:48Z</time>
      </trkpt>
      <trkpt lat="45.92676" lon="4.72877">
        <ele>170</ele>
        <time>2017-07-11T10:57:49Z</time>
      </trkpt>
      <trkpt lat="45.92671" lon="4.72881">
        <ele>170</ele>
        <time>2017-07-11T10:57:50Z</time>
      </trkpt>
      <trkpt lat="45.92666" lon="4.72885">
        <ele>169</ele>
        <time>2017-07-11T10:57:51Z</time>
      </trkpt>
      <trkpt lat="45.92661" lon="4.7289">
        <ele>169</ele>
        <time>2017-07-11T10:57:52Z</time>
      </trkpt>
      <trkpt lat="45.92656" lon="4.72894">
        <ele>169</ele>
        <time>2017-07-11T10:57:53Z</time>
      </trkpt>
      <trkpt lat="45.92651" lon="4.72897">
        <ele>170</ele>
        <time>2017-07-11T10:57:54Z</time>
      </trkpt>
      <trkpt lat="45.92646" lon="4.72901">
        <ele>169</ele>
        <time>2017-07-11T10:57:55Z</time>
      </trkpt>
      <trkpt lat="45.92642" lon="4.72904">
        <ele>169</ele>
        <time>2017-07-11T10:57:56Z</time>
      </trkpt>
      <trkpt lat="45.92637" lon="4.72908">
        <ele>169</ele>
        <time>2017-07-11T10:57:57Z</time>
      </trkpt>
      <trkpt lat="45.92633" lon="4.72911">
        <ele>169</ele>
        <time>2017-07-11T10:57:58Z</time>
      </trkpt>
      <trkpt lat="45.92629" lon="4.72915">
        <ele>169</ele>
        <time>2017-07-11T10:57:59Z</time>
      </trkpt>
      <trkpt lat="45.92624" lon="4.72918">
        <ele>169</ele>
        <time>2017-07-11T10:58:00Z</time>
      </trkpt>
      <trkpt lat="45.9262" lon="4.72922">
        <ele>169</ele>
        <time>2017-07-11T10:58:01Z</time>
      </trkpt>
      <trkpt lat="45.92616" lon="4.72926">
        <ele>169</ele>
        <time>2017-07-11T10:58:02Z</time>
      </trkpt>
      <trkpt lat="45.92612" lon="4.72931">
        <ele>169</ele>
        <time>2017-07-11T10:58:03Z</time>
      </trkpt>
      <trkpt lat="45.92607" lon="4.72936">
        <ele>169</ele>
        <time>2017-07-11T10:58:04Z</time>
      </trkpt>
      <trkpt lat="45.92603" lon="4.72941">
        <ele>169</ele>
        <time>2017-07-11T10:58:05Z</time>
      </trkpt>
      <trkpt lat="45.92598" lon="4.72945">
        <ele>169</ele>
        <time>2017-07-11T10:58:06Z</time>
      </trkpt>
      <trkpt lat="45.92594" lon="4.7295">
        <ele>169</ele>
        <time>2017-07-11T10:58:07Z</time>
      </trkpt>
      <trkpt lat="45.9259" lon="4.72954">
        <ele>169</ele>
        <time>2017-07-11T10:58:08Z</time>
      </trkpt>
      <trkpt lat="45.92587" lon="4.72958">
        <ele>169</ele>
        <time>2017-07-11T10:58:09Z</time>
      </trkpt>
      <trkpt lat="45.92583" lon="4.72962">
        <ele>169</ele>
        <time>2017-07-11T10:58:10Z</time>
      </trkpt>
      <trkpt lat="45.92576" lon="4.7297">
        <ele>169</ele>
        <time>2017-07-11T10:58:12Z</time>
      </trkpt>
      <trkpt lat="45.92572" lon="4.72973">
        <ele>169</ele>
        <time>2017-07-11T10:58:13Z</time>
      </trkpt>
      <trkpt lat="45.92568" lon="4.72977">
        <ele>169</ele>
        <time>2017-07-11T10:58:14Z</time>
      </trkpt>
      <trkpt lat="45.92563" lon="4.72981">
        <ele>169</ele>
        <time>2017-07-11T10:58:15Z</time>
      </trkpt>
      <trkpt lat="45.92559" lon="4.72985">
        <ele>169</ele>
        <time>2017-07-11T10:58:16Z</time>
      </trkpt>
      <trkpt lat="45.92555" lon="4.7299">
        <ele>169</ele>
        <time>2017-07-11T10:58:17Z</time>
      </trkpt>
      <trkpt lat="45.9255" lon="4.72995">
        <ele>169</ele>
        <time>2017-07-11T10:58:18Z</time>
      </trkpt>
      <trkpt lat="45.92546" lon="4.72999">
        <ele>169</ele>
        <time>2017-07-11T10:58:19Z</time>
      </trkpt>
      <trkpt lat="45.92542" lon="4.73003">
        <ele>169</ele>
        <time>2017-07-11T10:58:20Z</time>
      </trkpt>
      <trkpt lat="45.92537" lon="4.73006">
        <ele>169</ele>
        <time>2017-07-11T10:58:21Z</time>
      </trkpt>
      <trkpt lat="45.9253" lon="4.73012">
        <ele>169</ele>
        <time>2017-07-11T10:58:23Z</time>
      </trkpt>
      <trkpt lat="45.92526" lon="4.73016">
        <ele>169</ele>
        <time>2017-07-11T10:58:24Z</time>
      </trkpt>
      <trkpt lat="45.92518" lon="4.73022">
        <ele>169</ele>
        <time>2017-07-11T10:58:26Z</time>
      </trkpt>
      <trkpt lat="45.92515" lon="4.73026">
        <ele>169</ele>
        <time>2017-07-11T10:58:27Z</time>
      </trkpt>
      <trkpt lat="45.92511" lon="4.7303">
        <ele>169</ele>
        <time>2017-07-11T10:58:28Z</time>
      </trkpt>
      <trkpt lat="45.92507" lon="4.73033">
        <ele>169</ele>
        <time>2017-07-11T10:58:29Z</time>
      </trkpt>
      <trkpt lat="45.925" lon="4.73039">
        <ele>170</ele>
        <time>2017-07-11T10:58:31Z</time>
      </trkpt>
      <trkpt lat="45.92496" lon="4.73043">
        <ele>170</ele>
        <time>2017-07-11T10:58:32Z</time>
      </trkpt>
      <trkpt lat="45.92488" lon="4.73049">
        <ele>170</ele>
        <time>2017-07-11T10:58:34Z</time>
      </trkpt>
      <trkpt lat="45.92484" lon="4.73052">
        <ele>170</ele>
        <time>2017-07-11T10:58:35Z</time>
      </trkpt>
      <trkpt lat="45.9248" lon="4.73056">
        <ele>170</ele>
        <time>2017-07-11T10:58:36Z</time>
      </trkpt>
      <trkpt lat="45.92476" lon="4.7306">
        <ele>170</ele>
        <time>2017-07-11T10:58:37Z</time>
      </trkpt>
      <trkpt lat="45.92472" lon="4.73064">
        <ele>170</ele>
        <time>2017-07-11T10:58:38Z</time>
      </trkpt>
      <trkpt lat="45.92468" lon="4.73068">
        <ele>170</ele>
        <time>2017-07-11T10:58:39Z</time>
      </trkpt>
      <trkpt lat="45.92464" lon="4.73072">
        <ele>170</ele>
        <time>2017-07-11T10:58:40Z</time>
      </trkpt>
      <trkpt lat="45.9246" lon="4.73075">
        <ele>170</ele>
        <time>2017-07-11T10:58:41Z</time>
      </trkpt>
      <trkpt lat="45.92453" lon="4.73081">
        <ele>170</ele>
        <time>2017-07-11T10:58:43Z</time>
      </trkpt>
      <trkpt lat="45.9245" lon="4.73085">
        <ele>170</ele>
        <time>2017-07-11T10:58:44Z</time>
      </trkpt>
      <trkpt lat="45.92446" lon="4.73089">
        <ele>170</ele>
        <time>2017-07-11T10:58:45Z</time>
      </trkpt>
      <trkpt lat="45.92442" lon="4.73092">
        <ele>170</ele>
        <time>2017-07-11T10:58:46Z</time>
      </trkpt>
      <trkpt lat="45.92438" lon="4.73095">
        <ele>171</ele>
        <time>2017-07-11T10:58:47Z</time>
      </trkpt>
      <trkpt lat="45.92434" lon="4.73098">
        <ele>171</ele>
        <time>2017-07-11T10:58:48Z</time>
      </trkpt>
      <trkpt lat="45.9243" lon="4.73101">
        <ele>171</ele>
        <time>2017-07-11T10:58:49Z</time>
      </trkpt>
      <trkpt lat="45.92425" lon="4.73104">
        <ele>171</ele>
        <time>2017-07-11T10:58:50Z</time>
      </trkpt>
      <trkpt lat="45.92418" lon="4.7311">
        <ele>170</ele>
        <time>2017-07-11T10:58:52Z</time>
      </trkpt>
      <trkpt lat="45.92415" lon="4.73113">
        <ele>171</ele>
        <time>2017-07-11T10:58:53Z</time>
      </trkpt>
      <trkpt lat="45.9241" lon="4.73118">
        <ele>171</ele>
        <time>2017-07-11T10:58:55Z</time>
      </trkpt>
      <trkpt lat="45.92408" lon="4.73123">
        <ele>171</ele>
        <time>2017-07-11T10:58:56Z</time>
      </trkpt>
      <trkpt lat="45.92405" lon="4.73135">
        <ele>171</ele>
        <time>2017-07-11T10:58:58Z</time>
      </trkpt>
      <trkpt lat="45.92405" lon="4.73141">
        <ele>171</ele>
        <time>2017-07-11T10:58:59Z</time>
      </trkpt>
      <trkpt lat="45.92404" lon="4.73148">
        <ele>171</ele>
        <time>2017-07-11T10:59:00Z</time>
      </trkpt>
      <trkpt lat="45.92404" lon="4.73155">
        <ele>171</ele>
        <time>2017-07-11T10:59:01Z</time>
      </trkpt>
      <trkpt lat="45.92404" lon="4.73162">
        <ele>170</ele>
        <time>2017-07-11T10:59:02Z</time>
      </trkpt>
      <trkpt lat="45.92404" lon="4.73169">
        <ele>171</ele>
        <time>2017-07-11T10:59:03Z</time>
      </trkpt>
      <trkpt lat="45.92404" lon="4.73175">
        <ele>171</ele>
        <time>2017-07-11T10:59:04Z</time>
      </trkpt>
      <trkpt lat="45.92404" lon="4.73182">
        <ele>171</ele>
        <time>2017-07-11T10:59:05Z</time>
      </trkpt>
      <trkpt lat="45.92404" lon="4.73194">
        <ele>171</ele>
        <time>2017-07-11T10:59:07Z</time>
      </trkpt>
      <trkpt lat="45.92404" lon="4.732">
        <ele>171</ele>
        <time>2017-07-11T10:59:08Z</time>
      </trkpt>
      <trkpt lat="45.92403" lon="4.73212">
        <ele>171</ele>
        <time>2017-07-11T10:59:10Z</time>
      </trkpt>
      <trkpt lat="45.92403" lon="4.73219">
        <ele>171</ele>
        <time>2017-07-11T10:59:11Z</time>
      </trkpt>
      <trkpt lat="45.92403" lon="4.73225">
        <ele>171</ele>
        <time>2017-07-11T10:59:12Z</time>
      </trkpt>
      <trkpt lat="45.92403" lon="4.73232">
        <ele>171</ele>
        <time>2017-07-11T10:59:13Z</time>
      </trkpt>
      <trkpt lat="45.92403" lon="4.73239">
        <ele>171</ele>
        <time>2017-07-11T10:59:14Z</time>
      </trkpt>
      <trkpt lat="45.92403" lon="4.73246">
        <ele>171</ele>
        <time>2017-07-11T10:59:15Z</time>
      </trkpt>
      <trkpt lat="45.92404" lon="4.73253">
        <ele>171</ele>
        <time>2017-07-11T10:59:16Z</time>
      </trkpt>
      <trkpt lat="45.92404" lon="4.73261">
        <ele>171</ele>
        <time>2017-07-11T10:59:17Z</time>
      </trkpt>
      <trkpt lat="45.92404" lon="4.73268">
        <ele>171</ele>
        <time>2017-07-11T10:59:18Z</time>
      </trkpt>
      <trkpt lat="45.92405" lon="4.73276">
        <ele>171</ele>
        <time>2017-07-11T10:59:19Z</time>
      </trkpt>
      <trkpt lat="45.92406" lon="4.73283">
        <ele>171</ele>
        <time>2017-07-11T10:59:20Z</time>
      </trkpt>
      <trkpt lat="45.92407" lon="4.73291">
        <ele>171</ele>
        <time>2017-07-11T10:59:21Z</time>
      </trkpt>
      <trkpt lat="45.92407" lon="4.73299">
        <ele>171</ele>
        <time>2017-07-11T10:59:22Z</time>
      </trkpt>
      <trkpt lat="45.92408" lon="4.73306">
        <ele>171</ele>
        <time>2017-07-11T10:59:23Z</time>
      </trkpt>
      <trkpt lat="45.92409" lon="4.73312">
        <ele>171</ele>
        <time>2017-07-11T10:59:24Z</time>
      </trkpt>
      <trkpt lat="45.9241" lon="4.73319">
        <ele>171</ele>
        <time>2017-07-11T10:59:25Z</time>
      </trkpt>
      <trkpt lat="45.92411" lon="4.73331">
        <ele>171</ele>
        <time>2017-07-11T10:59:27Z</time>
      </trkpt>
      <trkpt lat="45.92412" lon="4.73337">
        <ele>171</ele>
        <time>2017-07-11T10:59:28Z</time>
      </trkpt>
      <trkpt lat="45.92414" lon="4.73348">
        <ele>171</ele>
        <time>2017-07-11T10:59:30Z</time>
      </trkpt>
      <trkpt lat="45.92415" lon="4.73353">
        <ele>171</ele>
        <time>2017-07-11T10:59:31Z</time>
      </trkpt>
      <trkpt lat="45.92416" lon="4.73359">
        <ele>171</ele>
        <time>2017-07-11T10:59:32Z</time>
      </trkpt>
      <trkpt lat="45.92416" lon="4.73366">
        <ele>171</ele>
        <time>2017-07-11T10:59:33Z</time>
      </trkpt>
      <trkpt lat="45.92417" lon="4.73374">
        <ele>172</ele>
        <time>2017-07-11T10:59:34Z</time>
      </trkpt>
      <trkpt lat="45.92418" lon="4.73381">
        <ele>172</ele>
        <time>2017-07-11T10:59:35Z</time>
      </trkpt>
      <trkpt lat="45.9242" lon="4.73388">
        <ele>172</ele>
        <time>2017-07-11T10:59:36Z</time>
      </trkpt>
      <trkpt lat="45.92423" lon="4.73396">
        <ele>172</ele>
        <time>2017-07-11T10:59:37Z</time>
      </trkpt>
      <trkpt lat="45.92426" lon="4.73402">
        <ele>172</ele>
        <time>2017-07-11T10:59:38Z</time>
      </trkpt>
      <trkpt lat="45.92429" lon="4.73406">
        <ele>172</ele>
        <time>2017-07-11T10:59:39Z</time>
      </trkpt>
      <trkpt lat="45.92436" lon="4.73412">
        <ele>172</ele>
        <time>2017-07-11T10:59:41Z</time>
      </trkpt>
      <trkpt lat="45.9244" lon="4.73415">
        <ele>172</ele>
        <time>2017-07-11T10:59:42Z</time>
      </trkpt>
      <trkpt lat="45.92448" lon="4.73421">
        <ele>173</ele>
        <time>2017-07-11T10:59:45Z</time>
      </trkpt>
      <trkpt lat="45.92451" lon="4.73424">
        <ele>173</ele>
        <time>2017-07-11T10:59:46Z</time>
      </trkpt>
      <trkpt lat="45.92456" lon="4.73432">
        <ele>173</ele>
        <time>2017-07-11T10:59:48Z</time>
      </trkpt>
      <trkpt lat="45.92459" lon="4.73438">
        <ele>173</ele>
        <time>2017-07-11T10:59:49Z</time>
      </trkpt>
      <trkpt lat="45.92461" lon="4.73444">
        <ele>173</ele>
        <time>2017-07-11T10:59:50Z</time>
      </trkpt>
      <trkpt lat="45.92462" lon="4.7345">
        <ele>173</ele>
        <time>2017-07-11T10:59:51Z</time>
      </trkpt>
      <trkpt lat="45.92463" lon="4.73458">
        <ele>173</ele>
        <time>2017-07-11T10:59:52Z</time>
      </trkpt>
      <trkpt lat="45.92464" lon="4.73466">
        <ele>173</ele>
        <time>2017-07-11T10:59:53Z</time>
      </trkpt>
      <trkpt lat="45.92464" lon="4.73473">
        <ele>173</ele>
        <time>2017-07-11T10:59:54Z</time>
      </trkpt>
      <trkpt lat="45.92463" lon="4.73481">
        <ele>173</ele>
        <time>2017-07-11T10:59:55Z</time>
      </trkpt>
      <trkpt lat="45.92462" lon="4.73488">
        <ele>173</ele>
        <time>2017-07-11T10:59:56Z</time>
      </trkpt>
      <trkpt lat="45.92462" lon="4.73495">
        <ele>173</ele>
        <time>2017-07-11T10:59:57Z</time>
      </trkpt>
      <trkpt lat="45.92463" lon="4.73507">
        <ele>174</ele>
        <time>2017-07-11T10:59:59Z</time>
      </trkpt>
      <trkpt lat="45.92462" lon="4.73513">
        <ele>174</ele>
        <time>2017-07-11T11:00:00Z</time>
      </trkpt>
      <trkpt lat="45.92462" lon="4.73525">
        <ele>174</ele>
        <time>2017-07-11T11:00:02Z</time>
      </trkpt>
      <trkpt lat="45.92462" lon="4.7353">
        <ele>174</ele>
        <time>2017-07-11T11:00:03Z</time>
      </trkpt>
      <trkpt lat="45.92461" lon="4.73539">
        <ele>174</ele>
        <time>2017-07-11T11:00:05Z</time>
      </trkpt>
      <trkpt lat="45.92461" lon="4.73544">
        <ele>173</ele>
        <time>2017-07-11T11:00:06Z</time>
      </trkpt>
      <trkpt lat="45.92459" lon="4.73552">
        <ele>173</ele>
        <time>2017-07-11T11:00:08Z</time>
      </trkpt>
      <trkpt lat="45.92459" lon="4.73557">
        <ele>173</ele>
        <time>2017-07-11T11:00:09Z</time>
      </trkpt>
      <trkpt lat="45.92459" lon="4.73569">
        <ele>173</ele>
        <time>2017-07-11T11:00:11Z</time>
      </trkpt>
      <trkpt lat="45.9246" lon="4.73576">
        <ele>173</ele>
        <time>2017-07-11T11:00:12Z</time>
      </trkpt>
      <trkpt lat="45.9246" lon="4.73588">
        <ele>174</ele>
        <time>2017-07-11T11:00:14Z</time>
      </trkpt>
      <trkpt lat="45.92461" lon="4.73594">
        <ele>174</ele>
        <time>2017-07-11T11:00:15Z</time>
      </trkpt>
      <trkpt lat="45.92461" lon="4.73606">
        <ele>174</ele>
        <time>2017-07-11T11:00:17Z</time>
      </trkpt>
      <trkpt lat="45.92462" lon="4.73612">
        <ele>174</ele>
        <time>2017-07-11T11:00:18Z</time>
      </trkpt>
      <trkpt lat="45.92463" lon="4.73624">
        <ele>174</ele>
        <time>2017-07-11T11:00:20Z</time>
      </trkpt>
      <trkpt lat="45.92463" lon="4.73629">
        <ele>174</ele>
        <time>2017-07-11T11:00:21Z</time>
      </trkpt>
      <trkpt lat="45.92462" lon="4.73641">
        <ele>174</ele>
        <time>2017-07-11T11:00:23Z</time>
      </trkpt>
      <trkpt lat="45.92461" lon="4.73646">
        <ele>174</ele>
        <time>2017-07-11T11:00:24Z</time>
      </trkpt>
      <trkpt lat="45.92459" lon="4.73658">
        <ele>174</ele>
        <time>2017-07-11T11:00:26Z</time>
      </trkpt>
      <trkpt lat="45.92458" lon="4.73663">
        <ele>174</ele>
        <time>2017-07-11T11:00:27Z</time>
      </trkpt>
      <trkpt lat="45.92456" lon="4.73675">
        <ele>174</ele>
        <time>2017-07-11T11:00:29Z</time>
      </trkpt>
      <trkpt lat="45.92456" lon="4.73681">
        <ele>174</ele>
        <time>2017-07-11T11:00:30Z</time>
      </trkpt>
      <trkpt lat="45.92456" lon="4.73691">
        <ele>174</ele>
        <time>2017-07-11T11:00:32Z</time>
      </trkpt>
      <trkpt lat="45.92457" lon="4.73695">
        <ele>174</ele>
        <time>2017-07-11T11:00:33Z</time>
      </trkpt>
      <trkpt lat="45.92457" lon="4.73697">
        <ele>174</ele>
        <time>2017-07-11T11:00:34Z</time>
      </trkpt>
      <trkpt lat="45.9245" lon="4.73703">
        <ele>174</ele>
        <time>2017-07-11T11:02:49Z</time>
      </trkpt>
      <trkpt lat="45.92449" lon="4.73703">
        <ele>174</ele>
        <time>2017-07-11T11:02:50Z</time>
      </trkpt>
      <trkpt lat="45.92452" lon="4.73706">
        <ele>174</ele>
        <time>2017-07-11T11:07:23.41Z</time>
      </trkpt>
    </trkseg>
  </trk>
</gpx>